<?xml version='1.0' encoding='UTF-8'?><gpx version="1.1" creator="JPX - https://github.com/jenetics/jpx" xmlns="http://www.topografix.com/GPX/1/1"><trk><trkseg><trkpt lat="45.4303974" lon="9.2452021"><ele>109.00000000000001</ele><time>2026-04-11T09:48:14.803Z</time></trkpt><trkpt lat="45.4304464" lon="9.2452887"><ele>109.0</ele><time>2026-04-11T09:48:26.796Z</time></trkpt><trkpt lat="45.4304946" lon="9.2453653"><ele>109.0</ele><time>2026-04-11T09:49:32.841Z</time></trkpt><trkpt lat="45.4304549" lon="9.2452927"><ele>109.0</ele><time>2026-04-11T09:50:00.807Z</time></trkpt><trkpt lat="45.4303887" lon="9.2453887"><ele>109.00000000000001</ele><time>2026-04-11T09:50:12.799Z</time></trkpt><trkpt lat="45.4303769" lon="9.2454818"><ele>109.0</ele><time>2026-04-11T09:50:14.748Z</time></trkpt><trkpt lat="45.4303974" lon="9.2453291"><ele>109.0</ele><time>2026-04-11T09:50:15.797Z</time></trkpt><trkpt lat="45.4303723" lon="9.2454298"><ele>109.0</ele><time>2026-04-11T09:50:55.747Z</time></trkpt><trkpt lat="45.4305078" lon="9.2456057"><ele>109.0</ele><time>2026-04-11T09:51:22.959Z</time></trkpt><trkpt lat="45.4305444" lon="9.2457237"><ele>109.0</ele><time>2026-04-11T09:51:47.497Z</time></trkpt><trkpt lat="45.4305675" lon="9.2456291"><ele>109.0</ele><time>2026-04-11T09:53:23.613Z</time></trkpt><trkpt lat="45.4305843" lon="9.2455269"><ele>109.00000000000001</ele><time>2026-04-11T09:53:34.84Z</time></trkpt><trkpt lat="45.4305207" lon="9.2455828"><ele>109.0</ele><time>2026-04-11T09:53:51.751Z</time></trkpt><trkpt lat="45.4305381" lon="9.2456703"><ele>109.0</ele><time>2026-04-11T09:54:18.845Z</time></trkpt><trkpt lat="45.4305932" lon="9.245617"><ele>109.0</ele><time>2026-04-11T09:55:10.495Z</time></trkpt><trkpt lat="45.4305948" lon="9.2454949"><ele>109.00000000000001</ele><time>2026-04-11T09:55:14.352Z</time></trkpt><trkpt lat="45.4305507" lon="9.245419"><ele>109.0</ele><time>2026-04-11T09:56:14.79Z</time></trkpt><trkpt lat="45.4304936" lon="9.2452956"><ele>109.00000000000001</ele><time>2026-04-11T09:56:17.788Z</time></trkpt><trkpt lat="45.4304479" lon="9.2452187"><ele>109.0</ele><time>2026-04-11T09:56:19.827Z</time></trkpt><trkpt lat="45.4303851" lon="9.2451306"><ele>109.0</ele><time>2026-04-11T09:56:22.823Z</time></trkpt><trkpt lat="45.4303007" lon="9.2452599"><ele>109.0</ele><time>2026-04-11T09:56:24.754Z</time></trkpt><trkpt lat="45.4302625" lon="9.2453521"><ele>109.00000000000001</ele><time>2026-04-11T09:56:25.754Z</time></trkpt><trkpt lat="45.4302236" lon="9.2454282"><ele>109.0</ele><time>2026-04-11T09:56:26.754Z</time></trkpt><trkpt lat="45.4301797" lon="9.2455014"><ele>109.00000000000001</ele><time>2026-04-11T09:56:27.754Z</time></trkpt><trkpt lat="45.4301328" lon="9.2455786"><ele>109.0</ele><time>2026-04-11T09:56:28.753Z</time></trkpt><trkpt lat="45.4300868" lon="9.2456672"><ele>109.0</ele><time>2026-04-11T09:56:29.754Z</time></trkpt><trkpt lat="45.430036" lon="9.2457564"><ele>109.0</ele><time>2026-04-11T09:56:30.754Z</time></trkpt><trkpt lat="45.429984" lon="9.2458505"><ele>109.00000000000001</ele><time>2026-04-11T09:56:31.754Z</time></trkpt><trkpt lat="45.4299316" lon="9.2459436"><ele>109.0</ele><time>2026-04-11T09:56:32.754Z</time></trkpt><trkpt lat="45.4298731" lon="9.2460221"><ele>108.83333333333334</ele><time>2026-04-11T09:56:33.754Z</time></trkpt><trkpt lat="45.4298095" lon="9.2460636"><ele>108.66666666666667</ele><time>2026-04-11T09:56:34.754Z</time></trkpt><trkpt lat="45.4297445" lon="9.2460617"><ele>108.5</ele><time>2026-04-11T09:56:35.754Z</time></trkpt><trkpt lat="45.4296869" lon="9.2460013"><ele>108.33333333333334</ele><time>2026-04-11T09:56:36.754Z</time></trkpt><trkpt lat="45.4296375" lon="9.2459045"><ele>108.16666666666667</ele><time>2026-04-11T09:56:37.754Z</time></trkpt><trkpt lat="45.4296128" lon="9.2457867"><ele>108.0</ele><time>2026-04-11T09:56:38.754Z</time></trkpt><trkpt lat="45.4295967" lon="9.2456577"><ele>107.66666666666667</ele><time>2026-04-11T09:56:39.753Z</time></trkpt><trkpt lat="45.4295797" lon="9.245531"><ele>107.33333333333334</ele><time>2026-04-11T09:56:40.754Z</time></trkpt><trkpt lat="45.429542" lon="9.2454173"><ele>107.0</ele><time>2026-04-11T09:56:41.754Z</time></trkpt><trkpt lat="45.4294841" lon="9.2453243"><ele>106.66666666666667</ele><time>2026-04-11T09:56:42.754Z</time></trkpt><trkpt lat="45.4294272" lon="9.2452419"><ele>106.33333333333334</ele><time>2026-04-11T09:56:43.754Z</time></trkpt><trkpt lat="45.4293948" lon="9.2451408"><ele>106.0</ele><time>2026-04-11T09:56:44.755Z</time></trkpt><trkpt lat="45.4293854" lon="9.2450186"><ele>106.00000000000001</ele><time>2026-04-11T09:56:45.755Z</time></trkpt><trkpt lat="45.429373" lon="9.2448976"><ele>106.0</ele><time>2026-04-11T09:56:46.755Z</time></trkpt><trkpt lat="45.4293338" lon="9.2447983"><ele>106.0</ele><time>2026-04-11T09:56:47.755Z</time></trkpt><trkpt lat="45.4292624" lon="9.2447245"><ele>106.0</ele><time>2026-04-11T09:56:48.755Z</time></trkpt><trkpt lat="45.4291755" lon="9.2446908"><ele>106.00000000000001</ele><time>2026-04-11T09:56:49.755Z</time></trkpt><trkpt lat="45.4290831" lon="9.2447008"><ele>106.0</ele><time>2026-04-11T09:56:50.755Z</time></trkpt><trkpt lat="45.4290019" lon="9.2447546"><ele>106.00000000000001</ele><time>2026-04-11T09:56:51.755Z</time></trkpt><trkpt lat="45.4289424" lon="9.2448492"><ele>106.0</ele><time>2026-04-11T09:56:52.754Z</time></trkpt><trkpt lat="45.4289216" lon="9.2449698"><ele>106.0</ele><time>2026-04-11T09:56:53.755Z</time></trkpt><trkpt lat="45.4289356" lon="9.24509"><ele>106.0</ele><time>2026-04-11T09:56:54.755Z</time></trkpt><trkpt lat="45.428971" lon="9.2451983"><ele>106.00000000000001</ele><time>2026-04-11T09:56:55.755Z</time></trkpt><trkpt lat="45.4290148" lon="9.2452908"><ele>106.0</ele><time>2026-04-11T09:56:56.755Z</time></trkpt><trkpt lat="45.429054" lon="9.245381"><ele>106.0</ele><time>2026-04-11T09:56:57.755Z</time></trkpt><trkpt lat="45.429088" lon="9.2454826"><ele>106.0</ele><time>2026-04-11T09:56:58.755Z</time></trkpt><trkpt lat="45.4291199" lon="9.2456015"><ele>106.0</ele><time>2026-04-11T09:56:59.755Z</time></trkpt><trkpt lat="45.429151" lon="9.245733"><ele>106.0</ele><time>2026-04-11T09:57:00.755Z</time></trkpt><trkpt lat="45.4291789" lon="9.2458817"><ele>106.0</ele><time>2026-04-11T09:57:01.755Z</time></trkpt><trkpt lat="45.4292025" lon="9.2460453"><ele>106.25</ele><time>2026-04-11T09:57:02.755Z</time></trkpt><trkpt lat="45.4292152" lon="9.2462185"><ele>106.5</ele><time>2026-04-11T09:57:03.755Z</time></trkpt><trkpt lat="45.4292181" lon="9.2463922"><ele>106.75</ele><time>2026-04-11T09:57:04.755Z</time></trkpt><trkpt lat="45.4292122" lon="9.246559"><ele>107.0</ele><time>2026-04-11T09:57:05.755Z</time></trkpt><trkpt lat="45.4292018" lon="9.2467235"><ele>107.0</ele><time>2026-04-11T09:57:06.755Z</time></trkpt><trkpt lat="45.4291826" lon="9.2468821"><ele>106.99999999999999</ele><time>2026-04-11T09:57:07.755Z</time></trkpt><trkpt lat="45.4291434" lon="9.2470297"><ele>106.99999999999999</ele><time>2026-04-11T09:57:08.755Z</time></trkpt><trkpt lat="45.4290944" lon="9.2471677"><ele>107.0</ele><time>2026-04-11T09:57:09.755Z</time></trkpt><trkpt lat="45.429038" lon="9.2472924"><ele>107.0</ele><time>2026-04-11T09:57:10.755Z</time></trkpt><trkpt lat="45.4289751" lon="9.2474131"><ele>107.19999999999999</ele><time>2026-04-11T09:57:11.755Z</time></trkpt><trkpt lat="45.4289066" lon="9.2475333"><ele>107.39999999999999</ele><time>2026-04-11T09:57:12.755Z</time></trkpt><trkpt lat="45.4288382" lon="9.2476493"><ele>107.60000000000001</ele><time>2026-04-11T09:57:13.755Z</time></trkpt><trkpt lat="45.4287502" lon="9.2477471"><ele>107.80000000000001</ele><time>2026-04-11T09:57:14.755Z</time></trkpt><trkpt lat="45.4286704" lon="9.2478429"><ele>108.0</ele><time>2026-04-11T09:57:15.754Z</time></trkpt><trkpt lat="45.4285883" lon="9.2479459"><ele>108.0</ele><time>2026-04-11T09:57:16.755Z</time></trkpt><trkpt lat="45.4284987" lon="9.248032"><ele>108.0</ele><time>2026-04-11T09:57:17.755Z</time></trkpt><trkpt lat="45.4284095" lon="9.2481305"><ele>108.0</ele><time>2026-04-11T09:57:18.755Z</time></trkpt><trkpt lat="45.4283256" lon="9.2482489"><ele>108.0</ele><time>2026-04-11T09:57:19.755Z</time></trkpt><trkpt lat="45.4282376" lon="9.2483663"><ele>108.0</ele><time>2026-04-11T09:57:20.755Z</time></trkpt><trkpt lat="45.428149" lon="9.248483"><ele>108.00000000000001</ele><time>2026-04-11T09:57:21.755Z</time></trkpt><trkpt lat="45.428064" lon="9.2485998"><ele>108.00000000000001</ele><time>2026-04-11T09:57:22.754Z</time></trkpt><trkpt lat="45.4279899" lon="9.2487078"><ele>108.0</ele><time>2026-04-11T09:57:23.755Z</time></trkpt><trkpt lat="45.427936" lon="9.2487719"><ele>108.0</ele><time>2026-04-11T09:57:24.755Z</time></trkpt><trkpt lat="45.4278699" lon="9.2488367"><ele>107.66666666666667</ele><time>2026-04-11T09:57:28.754Z</time></trkpt><trkpt lat="45.4278227" lon="9.2489077"><ele>107.33333333333334</ele><time>2026-04-11T09:57:31.801Z</time></trkpt><trkpt lat="45.4277366" lon="9.2490321"><ele>107.0</ele><time>2026-04-11T09:57:33.755Z</time></trkpt><trkpt lat="45.4276514" lon="9.2491603"><ele>106.66666666666667</ele><time>2026-04-11T09:57:35.755Z</time></trkpt><trkpt lat="45.4276018" lon="9.2492189"><ele>106.33333333333334</ele><time>2026-04-11T09:57:36.755Z</time></trkpt><trkpt lat="45.4275527" lon="9.2492781"><ele>106.0</ele><time>2026-04-11T09:57:37.755Z</time></trkpt><trkpt lat="45.4275024" lon="9.2493551"><ele>106.0</ele><time>2026-04-11T09:57:38.755Z</time></trkpt><trkpt lat="45.427444" lon="9.2494446"><ele>106.0</ele><time>2026-04-11T09:57:39.755Z</time></trkpt><trkpt lat="45.4273688" lon="9.2495363"><ele>106.0</ele><time>2026-04-11T09:57:40.756Z</time></trkpt><trkpt lat="45.4272894" lon="9.249635"><ele>106.0</ele><time>2026-04-11T09:57:41.756Z</time></trkpt><trkpt lat="45.4272092" lon="9.2497523"><ele>106.0</ele><time>2026-04-11T09:57:42.756Z</time></trkpt><trkpt lat="45.4271365" lon="9.2498708"><ele>106.0</ele><time>2026-04-11T09:57:43.756Z</time></trkpt><trkpt lat="45.4270634" lon="9.2499733"><ele>106.0</ele><time>2026-04-11T09:57:44.756Z</time></trkpt><trkpt lat="45.4269883" lon="9.2500607"><ele>106.0</ele><time>2026-04-11T09:57:45.756Z</time></trkpt><trkpt lat="45.4269076" lon="9.2501451"><ele>106.0</ele><time>2026-04-11T09:57:46.756Z</time></trkpt><trkpt lat="45.4268314" lon="9.2502309"><ele>106.0</ele><time>2026-04-11T09:57:47.756Z</time></trkpt><trkpt lat="45.4267572" lon="9.2503219"><ele>106.0</ele><time>2026-04-11T09:57:48.756Z</time></trkpt><trkpt lat="45.4266809" lon="9.2504149"><ele>106.0</ele><time>2026-04-11T09:57:49.756Z</time></trkpt><trkpt lat="45.4266022" lon="9.2505152"><ele>106.0</ele><time>2026-04-11T09:57:50.755Z</time></trkpt><trkpt lat="45.4265184" lon="9.2506199"><ele>106.0</ele><time>2026-04-11T09:57:51.756Z</time></trkpt><trkpt lat="45.4264295" lon="9.250716"><ele>106.0</ele><time>2026-04-11T09:57:52.756Z</time></trkpt><trkpt lat="45.4263346" lon="9.250813"><ele>105.75</ele><time>2026-04-11T09:57:53.756Z</time></trkpt><trkpt lat="45.4262408" lon="9.2509203"><ele>105.5</ele><time>2026-04-11T09:57:54.755Z</time></trkpt><trkpt lat="45.426144" lon="9.2510299"><ele>105.25</ele><time>2026-04-11T09:57:55.756Z</time></trkpt><trkpt lat="45.4260431" lon="9.2511411"><ele>105.0</ele><time>2026-04-11T09:57:56.756Z</time></trkpt><trkpt lat="45.4259382" lon="9.2512508"><ele>105.0</ele><time>2026-04-11T09:57:57.756Z</time></trkpt><trkpt lat="45.4258328" lon="9.251364"><ele>105.0</ele><time>2026-04-11T09:57:58.755Z</time></trkpt><trkpt lat="45.425728" lon="9.2514796"><ele>105.0</ele><time>2026-04-11T09:57:59.756Z</time></trkpt><trkpt lat="45.425623" lon="9.2515914"><ele>105.0</ele><time>2026-04-11T09:58:00.756Z</time></trkpt><trkpt lat="45.4255211" lon="9.2516995"><ele>104.75</ele><time>2026-04-11T09:58:01.755Z</time></trkpt><trkpt lat="45.4254237" lon="9.2518147"><ele>104.5</ele><time>2026-04-11T09:58:02.756Z</time></trkpt><trkpt lat="45.4253269" lon="9.2519269"><ele>104.25</ele><time>2026-04-11T09:58:03.756Z</time></trkpt><trkpt lat="45.425233" lon="9.2520307"><ele>104.0</ele><time>2026-04-11T09:58:04.756Z</time></trkpt><trkpt lat="45.4251451" lon="9.2521249"><ele>103.99999999999999</ele><time>2026-04-11T09:58:05.755Z</time></trkpt><trkpt lat="45.4250642" lon="9.2522207"><ele>104.0</ele><time>2026-04-11T09:58:06.756Z</time></trkpt><trkpt lat="45.4249916" lon="9.252314"><ele>104.0</ele><time>2026-04-11T09:58:07.756Z</time></trkpt><trkpt lat="45.424928" lon="9.2523947"><ele>104.0</ele><time>2026-04-11T09:58:08.756Z</time></trkpt><trkpt lat="45.4248708" lon="9.2524551"><ele>103.99999999999999</ele><time>2026-04-11T09:58:09.756Z</time></trkpt><trkpt lat="45.4248163" lon="9.2525013"><ele>104.0</ele><time>2026-04-11T09:58:10.756Z</time></trkpt><trkpt lat="45.4247311" lon="9.2525028"><ele>104.16666666666666</ele><time>2026-04-11T09:58:12.755Z</time></trkpt><trkpt lat="45.4246606" lon="9.2524947"><ele>104.33333333333333</ele><time>2026-04-11T09:58:14.755Z</time></trkpt><trkpt lat="45.4245925" lon="9.252519"><ele>104.5</ele><time>2026-04-11T09:58:16.756Z</time></trkpt><trkpt lat="45.4245279" lon="9.2525645"><ele>104.66666666666666</ele><time>2026-04-11T09:58:20.175Z</time></trkpt><trkpt lat="45.4244131" lon="9.252631"><ele>104.83333333333333</ele><time>2026-04-11T10:01:52.76Z</time></trkpt><trkpt lat="45.4243597" lon="9.252715"><ele>105.0</ele><time>2026-04-11T10:01:54.76Z</time></trkpt><trkpt lat="45.4243547" lon="9.2528252"><ele>104.5</ele><time>2026-04-11T10:01:57.76Z</time></trkpt><trkpt lat="45.4244124" lon="9.2528973"><ele>104.0</ele><time>2026-04-11T10:03:03.761Z</time></trkpt><trkpt lat="45.4244662" lon="9.2529589"><ele>103.5</ele><time>2026-04-11T10:03:07.761Z</time></trkpt><trkpt lat="45.4244468" lon="9.2530602"><ele>103.0</ele><time>2026-04-11T10:03:10.761Z</time></trkpt><trkpt lat="45.4243494" lon="9.2531976"><ele>102.5</ele><time>2026-04-11T10:03:12.762Z</time></trkpt><trkpt lat="45.4242931" lon="9.2532646"><ele>102.0</ele><time>2026-04-11T10:03:13.762Z</time></trkpt><trkpt lat="45.4242355" lon="9.2533233"><ele>102.0</ele><time>2026-04-11T10:03:14.762Z</time></trkpt><trkpt lat="45.4241743" lon="9.2533873"><ele>102.0</ele><time>2026-04-11T10:03:15.762Z</time></trkpt><trkpt lat="45.4241154" lon="9.2534501"><ele>102.0</ele><time>2026-04-11T10:03:16.762Z</time></trkpt><trkpt lat="45.4240521" lon="9.2535067"><ele>102.0</ele><time>2026-04-11T10:03:17.762Z</time></trkpt><trkpt lat="45.4239863" lon="9.25355"><ele>102.0</ele><time>2026-04-11T10:03:18.762Z</time></trkpt><trkpt lat="45.4239151" lon="9.253577"><ele>102.0</ele><time>2026-04-11T10:03:19.762Z</time></trkpt><trkpt lat="45.423842" lon="9.2535817"><ele>102.0</ele><time>2026-04-11T10:03:20.762Z</time></trkpt><trkpt lat="45.4237718" lon="9.2535547"><ele>102.0</ele><time>2026-04-11T10:03:21.762Z</time></trkpt><trkpt lat="45.4236954" lon="9.2535193"><ele>102.0</ele><time>2026-04-11T10:03:22.762Z</time></trkpt><trkpt lat="45.4236205" lon="9.2534922"><ele>102.0</ele><time>2026-04-11T10:03:23.762Z</time></trkpt><trkpt lat="45.4235435" lon="9.253483"><ele>102.0</ele><time>2026-04-11T10:03:24.762Z</time></trkpt><trkpt lat="45.4234657" lon="9.2535171"><ele>102.0</ele><time>2026-04-11T10:03:25.762Z</time></trkpt><trkpt lat="45.4233918" lon="9.2535824"><ele>102.0</ele><time>2026-04-11T10:03:26.762Z</time></trkpt><trkpt lat="45.423329" lon="9.2536727"><ele>102.0</ele><time>2026-04-11T10:03:27.761Z</time></trkpt><trkpt lat="45.423276" lon="9.2537843"><ele>102.0</ele><time>2026-04-11T10:03:28.761Z</time></trkpt><trkpt lat="45.4232316" lon="9.2539042"><ele>102.0</ele><time>2026-04-11T10:03:29.762Z</time></trkpt><trkpt lat="45.4231906" lon="9.2540265"><ele>102.0</ele><time>2026-04-11T10:03:30.762Z</time></trkpt><trkpt lat="45.4231427" lon="9.2541577"><ele>102.0</ele><time>2026-04-11T10:03:31.761Z</time></trkpt><trkpt lat="45.4230941" lon="9.2542947"><ele>102.25</ele><time>2026-04-11T10:03:32.762Z</time></trkpt><trkpt lat="45.4230415" lon="9.2544356"><ele>102.5</ele><time>2026-04-11T10:03:33.762Z</time></trkpt><trkpt lat="45.4229767" lon="9.2545718"><ele>102.75</ele><time>2026-04-11T10:03:34.762Z</time></trkpt><trkpt lat="45.4229" lon="9.2547"><ele>103.0</ele><time>2026-04-11T10:03:35.762Z</time></trkpt><trkpt lat="45.422812" lon="9.2548128"><ele>103.2</ele><time>2026-04-11T10:03:36.762Z</time></trkpt><trkpt lat="45.4227213" lon="9.2549074"><ele>103.4</ele><time>2026-04-11T10:03:37.762Z</time></trkpt><trkpt lat="45.4226398" lon="9.2549927"><ele>103.60000000000001</ele><time>2026-04-11T10:03:38.762Z</time></trkpt><trkpt lat="45.4225688" lon="9.2550706"><ele>103.80000000000001</ele><time>2026-04-11T10:03:39.762Z</time></trkpt><trkpt lat="45.422503" lon="9.2551407"><ele>104.0</ele><time>2026-04-11T10:03:40.762Z</time></trkpt><trkpt lat="45.4224414" lon="9.2552075"><ele>104.0</ele><time>2026-04-11T10:03:41.762Z</time></trkpt><trkpt lat="45.4223849" lon="9.255266"><ele>104.0</ele><time>2026-04-11T10:03:42.762Z</time></trkpt><trkpt lat="45.4222988" lon="9.2553707"><ele>104.0</ele><time>2026-04-11T10:03:44.762Z</time></trkpt><trkpt lat="45.4221997" lon="9.2554551"><ele>104.0</ele><time>2026-04-11T10:03:46.762Z</time></trkpt><trkpt lat="45.4221274" lon="9.2554986"><ele>104.0</ele><time>2026-04-11T10:03:47.761Z</time></trkpt><trkpt lat="45.4220459" lon="9.2555673"><ele>104.4</ele><time>2026-04-11T10:03:48.762Z</time></trkpt><trkpt lat="45.4219797" lon="9.2556771"><ele>104.80000000000001</ele><time>2026-04-11T10:03:49.761Z</time></trkpt><trkpt lat="45.4219209" lon="9.2558008"><ele>105.19999999999999</ele><time>2026-04-11T10:03:50.762Z</time></trkpt><trkpt lat="45.421857" lon="9.2559043"><ele>105.6</ele><time>2026-04-11T10:03:51.762Z</time></trkpt><trkpt lat="45.4217772" lon="9.2559933"><ele>106.0</ele><time>2026-04-11T10:03:52.762Z</time></trkpt><trkpt lat="45.4216894" lon="9.2560801"><ele>106.0</ele><time>2026-04-11T10:03:53.762Z</time></trkpt><trkpt lat="45.4216" lon="9.2561753"><ele>106.0</ele><time>2026-04-11T10:03:54.762Z</time></trkpt><trkpt lat="45.4215103" lon="9.2562743"><ele>106.0</ele><time>2026-04-11T10:03:55.762Z</time></trkpt><trkpt lat="45.4214268" lon="9.2563658"><ele>106.0</ele><time>2026-04-11T10:03:56.762Z</time></trkpt><trkpt lat="45.4213515" lon="9.2564473"><ele>106.0</ele><time>2026-04-11T10:03:57.762Z</time></trkpt><trkpt lat="45.4212851" lon="9.2565193"><ele>105.4</ele><time>2026-04-11T10:03:58.762Z</time></trkpt><trkpt lat="45.4212311" lon="9.2565802"><ele>104.8</ele><time>2026-04-11T10:03:59.762Z</time></trkpt><trkpt lat="45.4211824" lon="9.2566378"><ele>104.2</ele><time>2026-04-11T10:04:00.762Z</time></trkpt><trkpt lat="45.4211016" lon="9.2567337"><ele>103.60000000000001</ele><time>2026-04-11T10:04:02.762Z</time></trkpt><trkpt lat="45.4210232" lon="9.2568136"><ele>103.0</ele><time>2026-04-11T10:04:04.761Z</time></trkpt><trkpt lat="45.4209151" lon="9.2569117"><ele>103.00000000000001</ele><time>2026-04-11T10:04:06.763Z</time></trkpt><trkpt lat="45.4208595" lon="9.2569666"><ele>103.0</ele><time>2026-04-11T10:04:07.763Z</time></trkpt><trkpt lat="45.4208035" lon="9.2570231"><ele>103.0</ele><time>2026-04-11T10:04:08.763Z</time></trkpt><trkpt lat="45.420728" lon="9.2571172"><ele>103.0</ele><time>2026-04-11T10:04:10.763Z</time></trkpt><trkpt lat="45.4206564" lon="9.2571986"><ele>103.00000000000001</ele><time>2026-04-11T10:04:12.763Z</time></trkpt><trkpt lat="45.4205898" lon="9.2572597"><ele>103.0</ele><time>2026-04-11T10:04:14.762Z</time></trkpt><trkpt lat="45.4205031" lon="9.2572933"><ele>103.50000000000001</ele><time>2026-04-11T10:04:16.763Z</time></trkpt><trkpt lat="45.4204362" lon="9.2573039"><ele>104.0</ele><time>2026-04-11T10:04:18.762Z</time></trkpt><trkpt lat="45.4203556" lon="9.2572899"><ele>104.5</ele><time>2026-04-11T10:04:21.763Z</time></trkpt><trkpt lat="45.4202908" lon="9.257292"><ele>105.0</ele><time>2026-04-11T10:04:22.763Z</time></trkpt><trkpt lat="45.4202216" lon="9.2573381"><ele>105.50000000000001</ele><time>2026-04-11T10:04:23.763Z</time></trkpt><trkpt lat="45.4201619" lon="9.2574339"><ele>106.0</ele><time>2026-04-11T10:04:24.763Z</time></trkpt><trkpt lat="45.4201253" lon="9.2575569"><ele>106.0</ele><time>2026-04-11T10:04:25.763Z</time></trkpt><trkpt lat="45.4200892" lon="9.2576832"><ele>106.0</ele><time>2026-04-11T10:04:26.763Z</time></trkpt><trkpt lat="45.4200291" lon="9.2577945"><ele>106.0</ele><time>2026-04-11T10:04:27.763Z</time></trkpt><trkpt lat="45.4199508" lon="9.2578863"><ele>106.0</ele><time>2026-04-11T10:04:28.763Z</time></trkpt><trkpt lat="45.4198689" lon="9.2579736"><ele>106.0</ele><time>2026-04-11T10:04:29.763Z</time></trkpt><trkpt lat="45.4197821" lon="9.2580623"><ele>106.19999999999999</ele><time>2026-04-11T10:04:30.762Z</time></trkpt><trkpt lat="45.4196987" lon="9.2581469"><ele>106.39999999999999</ele><time>2026-04-11T10:04:31.763Z</time></trkpt><trkpt lat="45.4196179" lon="9.258228"><ele>106.6</ele><time>2026-04-11T10:04:32.763Z</time></trkpt><trkpt lat="45.4195419" lon="9.2583141"><ele>106.8</ele><time>2026-04-11T10:04:33.763Z</time></trkpt><trkpt lat="45.4194679" lon="9.2583974"><ele>107.0</ele><time>2026-04-11T10:04:34.763Z</time></trkpt><trkpt lat="45.4193904" lon="9.2584789"><ele>107.16666666666666</ele><time>2026-04-11T10:04:35.763Z</time></trkpt><trkpt lat="45.4193168" lon="9.258558"><ele>107.33333333333333</ele><time>2026-04-11T10:04:36.763Z</time></trkpt><trkpt lat="45.41925" lon="9.2586353"><ele>107.5</ele><time>2026-04-11T10:04:37.762Z</time></trkpt><trkpt lat="45.4191849" lon="9.2587037"><ele>107.66666666666666</ele><time>2026-04-11T10:04:38.763Z</time></trkpt><trkpt lat="45.4191218" lon="9.2587601"><ele>107.83333333333333</ele><time>2026-04-11T10:04:39.763Z</time></trkpt><trkpt lat="45.4190663" lon="9.2588187"><ele>108.0</ele><time>2026-04-11T10:04:40.763Z</time></trkpt><trkpt lat="45.4190151" lon="9.2588739"><ele>108.0</ele><time>2026-04-11T10:04:41.763Z</time></trkpt><trkpt lat="45.418925" lon="9.2589693"><ele>108.00000000000001</ele><time>2026-04-11T10:04:43.763Z</time></trkpt><trkpt lat="45.4188141" lon="9.2590881"><ele>108.00000000000001</ele><time>2026-04-11T10:04:45.763Z</time></trkpt><trkpt lat="45.4187469" lon="9.2591512"><ele>108.0</ele><time>2026-04-11T10:04:46.763Z</time></trkpt><trkpt lat="45.4186935" lon="9.2592071"><ele>108.0</ele><time>2026-04-11T10:04:47.763Z</time></trkpt><trkpt lat="45.4185974" lon="9.2593095"><ele>107.80000000000001</ele><time>2026-04-11T10:04:49.762Z</time></trkpt><trkpt lat="45.4185297" lon="9.2593817"><ele>107.60000000000001</ele><time>2026-04-11T10:04:51.763Z</time></trkpt><trkpt lat="45.418471" lon="9.2594283"><ele>107.39999999999999</ele><time>2026-04-11T10:05:00.764Z</time></trkpt><trkpt lat="45.4183676" lon="9.2595397"><ele>107.19999999999999</ele><time>2026-04-11T10:05:03.764Z</time></trkpt><trkpt lat="45.4182726" lon="9.2596257"><ele>107.0</ele><time>2026-04-11T10:05:04.764Z</time></trkpt><trkpt lat="45.4181878" lon="9.259709"><ele>106.6</ele><time>2026-04-11T10:05:05.764Z</time></trkpt><trkpt lat="45.4181055" lon="9.2597965"><ele>106.19999999999999</ele><time>2026-04-11T10:05:06.764Z</time></trkpt><trkpt lat="45.4180201" lon="9.2598848"><ele>105.8</ele><time>2026-04-11T10:05:07.764Z</time></trkpt><trkpt lat="45.4179395" lon="9.2599675"><ele>105.4</ele><time>2026-04-11T10:05:08.764Z</time></trkpt><trkpt lat="45.4178657" lon="9.2600447"><ele>105.0</ele><time>2026-04-11T10:05:09.764Z</time></trkpt><trkpt lat="45.4177927" lon="9.2601178"><ele>104.83333333333333</ele><time>2026-04-11T10:05:10.764Z</time></trkpt><trkpt lat="45.4177173" lon="9.2601829"><ele>104.66666666666666</ele><time>2026-04-11T10:05:11.764Z</time></trkpt><trkpt lat="45.417645" lon="9.2602374"><ele>104.5</ele><time>2026-04-11T10:05:12.764Z</time></trkpt><trkpt lat="45.4175742" lon="9.260279"><ele>104.33333333333333</ele><time>2026-04-11T10:05:13.764Z</time></trkpt><trkpt lat="45.4175" lon="9.2603151"><ele>104.16666666666666</ele><time>2026-04-11T10:05:14.764Z</time></trkpt><trkpt lat="45.4174248" lon="9.2603681"><ele>104.0</ele><time>2026-04-11T10:05:15.764Z</time></trkpt><trkpt lat="45.4173642" lon="9.2604546"><ele>103.99999999999999</ele><time>2026-04-11T10:05:16.764Z</time></trkpt><trkpt lat="45.4173178" lon="9.2605616"><ele>104.0</ele><time>2026-04-11T10:05:17.764Z</time></trkpt><trkpt lat="45.4172585" lon="9.2606563"><ele>104.0</ele><time>2026-04-11T10:05:18.764Z</time></trkpt><trkpt lat="45.4171918" lon="9.2607276"><ele>104.0</ele><time>2026-04-11T10:05:19.763Z</time></trkpt><trkpt lat="45.4171299" lon="9.2607956"><ele>103.99999999999999</ele><time>2026-04-11T10:05:20.763Z</time></trkpt><trkpt lat="45.4170713" lon="9.2608571"><ele>104.0</ele><time>2026-04-11T10:05:21.764Z</time></trkpt><trkpt lat="45.4170112" lon="9.2609158"><ele>105.33333333333333</ele><time>2026-04-11T10:05:22.764Z</time></trkpt><trkpt lat="45.4169504" lon="9.2609825"><ele>106.66666666666666</ele><time>2026-04-11T10:05:23.764Z</time></trkpt><trkpt lat="45.4168905" lon="9.2610473"><ele>108.0</ele><time>2026-04-11T10:05:24.764Z</time></trkpt><trkpt lat="45.4168274" lon="9.2611189"><ele>109.33333333333334</ele><time>2026-04-11T10:05:25.763Z</time></trkpt><trkpt lat="45.4167597" lon="9.2611905"><ele>110.66666666666667</ele><time>2026-04-11T10:05:26.764Z</time></trkpt><trkpt lat="45.4166911" lon="9.2612661"><ele>112.0</ele><time>2026-04-11T10:05:27.764Z</time></trkpt><trkpt lat="45.4166237" lon="9.2613402"><ele>112.00000000000001</ele><time>2026-04-11T10:05:28.764Z</time></trkpt><trkpt lat="45.4165509" lon="9.2614118"><ele>112.0</ele><time>2026-04-11T10:05:29.764Z</time></trkpt><trkpt lat="45.4164801" lon="9.2614737"><ele>112.0</ele><time>2026-04-11T10:05:30.764Z</time></trkpt><trkpt lat="45.4164178" lon="9.2615337"><ele>112.0</ele><time>2026-04-11T10:05:31.764Z</time></trkpt><trkpt lat="45.4163652" lon="9.2615892"><ele>112.00000000000001</ele><time>2026-04-11T10:05:32.763Z</time></trkpt><trkpt lat="45.4162655" lon="9.2616852"><ele>112.0</ele><time>2026-04-11T10:05:34.764Z</time></trkpt><trkpt lat="45.4161634" lon="9.2617917"><ele>112.28571428571428</ele><time>2026-04-11T10:05:36.764Z</time></trkpt><trkpt lat="45.4161113" lon="9.2618545"><ele>112.57142857142857</ele><time>2026-04-11T10:05:37.764Z</time></trkpt><trkpt lat="45.4160551" lon="9.2619163"><ele>112.85714285714286</ele><time>2026-04-11T10:05:38.764Z</time></trkpt><trkpt lat="45.4159922" lon="9.2619734"><ele>113.14285714285714</ele><time>2026-04-11T10:05:39.764Z</time></trkpt><trkpt lat="45.4159271" lon="9.2620211"><ele>113.42857142857142</ele><time>2026-04-11T10:05:40.764Z</time></trkpt><trkpt lat="45.4158641" lon="9.2620586"><ele>113.71428571428571</ele><time>2026-04-11T10:05:41.764Z</time></trkpt><trkpt lat="45.4158014" lon="9.2620877"><ele>114.0</ele><time>2026-04-11T10:05:42.763Z</time></trkpt><trkpt lat="45.4157336" lon="9.2621037"><ele>114.0</ele><time>2026-04-11T10:05:43.764Z</time></trkpt><trkpt lat="45.4156678" lon="9.2621099"><ele>114.0</ele><time>2026-04-11T10:05:44.764Z</time></trkpt><trkpt lat="45.4156" lon="9.2621066"><ele>114.0</ele><time>2026-04-11T10:05:45.764Z</time></trkpt><trkpt lat="45.4155106" lon="9.2621003"><ele>114.0</ele><time>2026-04-11T10:05:47.763Z</time></trkpt><trkpt lat="45.4154282" lon="9.2620771"><ele>114.0</ele><time>2026-04-11T10:05:49.764Z</time></trkpt><trkpt lat="45.4153026" lon="9.2620333"><ele>114.0</ele><time>2026-04-11T10:05:51.765Z</time></trkpt><trkpt lat="45.4152178" lon="9.2619956"><ele>113.25</ele><time>2026-04-11T10:05:52.765Z</time></trkpt><trkpt lat="45.4151283" lon="9.2619498"><ele>112.5</ele><time>2026-04-11T10:05:53.765Z</time></trkpt><trkpt lat="45.4150242" lon="9.2618849"><ele>111.75</ele><time>2026-04-11T10:05:54.765Z</time></trkpt><trkpt lat="45.4148981" lon="9.2617992"><ele>111.0</ele><time>2026-04-11T10:05:55.764Z</time></trkpt><trkpt lat="45.4147705" lon="9.2617084"><ele>109.5</ele><time>2026-04-11T10:05:56.765Z</time></trkpt><trkpt lat="45.4146489" lon="9.2616245"><ele>108.0</ele><time>2026-04-11T10:05:57.764Z</time></trkpt><trkpt lat="45.4145211" lon="9.2615409"><ele>106.5</ele><time>2026-04-11T10:05:58.764Z</time></trkpt><trkpt lat="45.4143846" lon="9.26146"><ele>105.0</ele><time>2026-04-11T10:05:59.764Z</time></trkpt><trkpt lat="45.4142441" lon="9.261378"><ele>105.0</ele><time>2026-04-11T10:06:00.765Z</time></trkpt><trkpt lat="45.4141047" lon="9.2612955"><ele>105.0</ele><time>2026-04-11T10:06:01.765Z</time></trkpt><trkpt lat="45.4139758" lon="9.2611977"><ele>105.0</ele><time>2026-04-11T10:06:02.765Z</time></trkpt><trkpt lat="45.4138656" lon="9.2611022"><ele>105.0</ele><time>2026-04-11T10:06:03.765Z</time></trkpt><trkpt lat="45.4137655" lon="9.2609991"><ele>104.4</ele><time>2026-04-11T10:06:04.765Z</time></trkpt><trkpt lat="45.4136787" lon="9.2608928"><ele>103.8</ele><time>2026-04-11T10:06:05.765Z</time></trkpt><trkpt lat="45.4135748" lon="9.2608979"><ele>103.19999999999999</ele><time>2026-04-11T10:06:06.765Z</time></trkpt><trkpt lat="45.4135089" lon="9.2608419"><ele>102.6</ele><time>2026-04-11T10:06:07.764Z</time></trkpt><trkpt lat="45.4134611" lon="9.2607444"><ele>102.0</ele><time>2026-04-11T10:06:08.764Z</time></trkpt><trkpt lat="45.4134304" lon="9.2606388"><ele>101.66666666666667</ele><time>2026-04-11T10:06:09.765Z</time></trkpt><trkpt lat="45.4134164" lon="9.2605099"><ele>101.33333333333334</ele><time>2026-04-11T10:06:10.765Z</time></trkpt><trkpt lat="45.4134133" lon="9.2603808"><ele>101.0</ele><time>2026-04-11T10:06:11.765Z</time></trkpt><trkpt lat="45.4133964" lon="9.2602825"><ele>100.66666666666667</ele><time>2026-04-11T10:06:12.765Z</time></trkpt><trkpt lat="45.4133171" lon="9.2602286"><ele>100.33333333333334</ele><time>2026-04-11T10:06:13.765Z</time></trkpt><trkpt lat="45.4132348" lon="9.260221"><ele>100.0</ele><time>2026-04-11T10:06:14.765Z</time></trkpt><trkpt lat="45.4131446" lon="9.2602622"><ele>100.0</ele><time>2026-04-11T10:06:15.764Z</time></trkpt><trkpt lat="45.4130576" lon="9.2603441"><ele>100.0</ele><time>2026-04-11T10:06:16.765Z</time></trkpt><trkpt lat="45.4129703" lon="9.2604427"><ele>100.0</ele><time>2026-04-11T10:06:17.765Z</time></trkpt><trkpt lat="45.4128885" lon="9.2605649"><ele>100.0</ele><time>2026-04-11T10:06:18.765Z</time></trkpt><trkpt lat="45.4128221" lon="9.2607086"><ele>100.0</ele><time>2026-04-11T10:06:19.765Z</time></trkpt><trkpt lat="45.4127765" lon="9.2608694"><ele>100.0</ele><time>2026-04-11T10:06:20.765Z</time></trkpt><trkpt lat="45.4127413" lon="9.2610417"><ele>100.0</ele><time>2026-04-11T10:06:21.765Z</time></trkpt><trkpt lat="45.4127259" lon="9.2612268"><ele>100.0</ele><time>2026-04-11T10:06:22.764Z</time></trkpt><trkpt lat="45.4127254" lon="9.2614169"><ele>100.75</ele><time>2026-04-11T10:06:23.765Z</time></trkpt><trkpt lat="45.4127372" lon="9.2616108"><ele>101.5</ele><time>2026-04-11T10:06:24.765Z</time></trkpt><trkpt lat="45.4127578" lon="9.2618028"><ele>102.25</ele><time>2026-04-11T10:06:25.765Z</time></trkpt><trkpt lat="45.4127712" lon="9.2620049"><ele>103.0</ele><time>2026-04-11T10:06:26.765Z</time></trkpt><trkpt lat="45.4127834" lon="9.2622276"><ele>103.75</ele><time>2026-04-11T10:06:27.765Z</time></trkpt><trkpt lat="45.4128105" lon="9.2624612"><ele>104.5</ele><time>2026-04-11T10:06:28.764Z</time></trkpt><trkpt lat="45.4128626" lon="9.2626355"><ele>105.25</ele><time>2026-04-11T10:06:29.765Z</time></trkpt><trkpt lat="45.4129092" lon="9.2628067"><ele>106.0</ele><time>2026-04-11T10:06:30.764Z</time></trkpt><trkpt lat="45.4129819" lon="9.2629872"><ele>105.25</ele><time>2026-04-11T10:06:31.765Z</time></trkpt><trkpt lat="45.4130579" lon="9.2631596"><ele>104.5</ele><time>2026-04-11T10:06:32.764Z</time></trkpt><trkpt lat="45.4131423" lon="9.2633297"><ele>103.75</ele><time>2026-04-11T10:06:33.765Z</time></trkpt><trkpt lat="45.4132179" lon="9.2634884"><ele>103.0</ele><time>2026-04-11T10:06:34.765Z</time></trkpt><trkpt lat="45.4132879" lon="9.2636113"><ele>103.0</ele><time>2026-04-11T10:06:35.765Z</time></trkpt><trkpt lat="45.4133488" lon="9.2637294"><ele>103.0</ele><time>2026-04-11T10:06:36.764Z</time></trkpt><trkpt lat="45.4134065" lon="9.2638444"><ele>103.0</ele><time>2026-04-11T10:06:37.765Z</time></trkpt><trkpt lat="45.4134451" lon="9.2639643"><ele>103.0</ele><time>2026-04-11T10:06:38.765Z</time></trkpt><trkpt lat="45.4134562" lon="9.2640895"><ele>103.0</ele><time>2026-04-11T10:06:39.764Z</time></trkpt><trkpt lat="45.4134354" lon="9.2642278"><ele>102.5</ele><time>2026-04-11T10:06:40.764Z</time></trkpt><trkpt lat="45.4134028" lon="9.2643818"><ele>102.0</ele><time>2026-04-11T10:06:41.765Z</time></trkpt><trkpt lat="45.4133455" lon="9.2645374"><ele>101.5</ele><time>2026-04-11T10:06:42.765Z</time></trkpt><trkpt lat="45.4132692" lon="9.2646842"><ele>101.0</ele><time>2026-04-11T10:06:43.766Z</time></trkpt><trkpt lat="45.4131686" lon="9.2648206"><ele>101.0</ele><time>2026-04-11T10:06:44.766Z</time></trkpt><trkpt lat="45.4130513" lon="9.2649388"><ele>101.0</ele><time>2026-04-11T10:06:45.766Z</time></trkpt><trkpt lat="45.4129378" lon="9.2650592"><ele>101.0</ele><time>2026-04-11T10:06:46.766Z</time></trkpt><trkpt lat="45.4128297" lon="9.2651725"><ele>101.0</ele><time>2026-04-11T10:06:47.766Z</time></trkpt><trkpt lat="45.412728" lon="9.265281"><ele>101.0</ele><time>2026-04-11T10:06:48.766Z</time></trkpt><trkpt lat="45.4126331" lon="9.2653812"><ele>101.0</ele><time>2026-04-11T10:06:49.766Z</time></trkpt><trkpt lat="45.4125452" lon="9.265475"><ele>101.0</ele><time>2026-04-11T10:06:50.766Z</time></trkpt><trkpt lat="45.4124673" lon="9.2655507"><ele>101.0</ele><time>2026-04-11T10:06:51.766Z</time></trkpt><trkpt lat="45.4123959" lon="9.2656169"><ele>101.0</ele><time>2026-04-11T10:06:52.766Z</time></trkpt><trkpt lat="45.4123326" lon="9.2656835"><ele>100.99999999999999</ele><time>2026-04-11T10:06:53.766Z</time></trkpt><trkpt lat="45.4122717" lon="9.2657516"><ele>101.0</ele><time>2026-04-11T10:06:54.766Z</time></trkpt><trkpt lat="45.4122122" lon="9.2658138"><ele>101.0</ele><time>2026-04-11T10:06:55.765Z</time></trkpt><trkpt lat="45.4121539" lon="9.2658784"><ele>101.0</ele><time>2026-04-11T10:06:56.765Z</time></trkpt><trkpt lat="45.4121041" lon="9.2659439"><ele>100.99999999999999</ele><time>2026-04-11T10:06:57.765Z</time></trkpt><trkpt lat="45.4120177" lon="9.266037"><ele>101.0</ele><time>2026-04-11T10:06:59.766Z</time></trkpt><trkpt lat="45.411947" lon="9.2661001"><ele>101.0</ele><time>2026-04-11T10:07:01.766Z</time></trkpt><trkpt lat="45.4118855" lon="9.2661559"><ele>101.0</ele><time>2026-04-11T10:07:04.766Z</time></trkpt><trkpt lat="45.4117828" lon="9.2662678"><ele>101.0</ele><time>2026-04-11T10:07:58.767Z</time></trkpt><trkpt lat="45.4117168" lon="9.2663446"><ele>101.0</ele><time>2026-04-11T10:07:59.767Z</time></trkpt><trkpt lat="45.4116431" lon="9.2664234"><ele>101.0</ele><time>2026-04-11T10:08:00.767Z</time></trkpt><trkpt lat="45.4115641" lon="9.2665081"><ele>100.75</ele><time>2026-04-11T10:08:01.767Z</time></trkpt><trkpt lat="45.4114679" lon="9.2666017"><ele>100.5</ele><time>2026-04-11T10:08:02.766Z</time></trkpt><trkpt lat="45.4113589" lon="9.2667037"><ele>100.25</ele><time>2026-04-11T10:08:03.767Z</time></trkpt><trkpt lat="45.4112561" lon="9.2668104"><ele>100.0</ele><time>2026-04-11T10:08:04.767Z</time></trkpt><trkpt lat="45.4111533" lon="9.2669197"><ele>100.0</ele><time>2026-04-11T10:08:05.767Z</time></trkpt><trkpt lat="45.4110482" lon="9.2670307"><ele>100.0</ele><time>2026-04-11T10:08:06.767Z</time></trkpt><trkpt lat="45.4109398" lon="9.2671421"><ele>100.0</ele><time>2026-04-11T10:08:07.767Z</time></trkpt><trkpt lat="45.4108324" lon="9.2672575"><ele>100.0</ele><time>2026-04-11T10:08:08.767Z</time></trkpt><trkpt lat="45.4107292" lon="9.267366"><ele>100.5</ele><time>2026-04-11T10:08:09.767Z</time></trkpt><trkpt lat="45.4106308" lon="9.2674669"><ele>101.0</ele><time>2026-04-11T10:08:10.767Z</time></trkpt><trkpt lat="45.4105368" lon="9.2675623"><ele>101.5</ele><time>2026-04-11T10:08:11.767Z</time></trkpt><trkpt lat="45.4104486" lon="9.2676531"><ele>102.0</ele><time>2026-04-11T10:08:12.767Z</time></trkpt><trkpt lat="45.4103626" lon="9.2677415"><ele>102.0</ele><time>2026-04-11T10:08:13.766Z</time></trkpt><trkpt lat="45.4102762" lon="9.2678312"><ele>102.0</ele><time>2026-04-11T10:08:14.767Z</time></trkpt><trkpt lat="45.4101928" lon="9.2679214"><ele>102.0</ele><time>2026-04-11T10:08:15.767Z</time></trkpt><trkpt lat="45.4101101" lon="9.268005"><ele>102.0</ele><time>2026-04-11T10:08:16.767Z</time></trkpt><trkpt lat="45.4100194" lon="9.2680656"><ele>102.0</ele><time>2026-04-11T10:08:17.767Z</time></trkpt><trkpt lat="45.409928" lon="9.2681138"><ele>102.16666666666667</ele><time>2026-04-11T10:08:18.767Z</time></trkpt><trkpt lat="45.409838" lon="9.2681542"><ele>102.33333333333334</ele><time>2026-04-11T10:08:19.767Z</time></trkpt><trkpt lat="45.4097607" lon="9.2681968"><ele>102.5</ele><time>2026-04-11T10:08:20.766Z</time></trkpt><trkpt lat="45.4096974" lon="9.2682467"><ele>102.66666666666667</ele><time>2026-04-11T10:08:21.767Z</time></trkpt><trkpt lat="45.4096076" lon="9.268333"><ele>102.83333333333334</ele><time>2026-04-11T10:08:23.767Z</time></trkpt><trkpt lat="45.409552" lon="9.2683995"><ele>103.0</ele><time>2026-04-11T10:08:25.767Z</time></trkpt><trkpt lat="45.4095028" lon="9.2684574"><ele>102.60000000000001</ele><time>2026-04-11T10:08:50.768Z</time></trkpt><trkpt lat="45.4094346" lon="9.2685299"><ele>102.2</ele><time>2026-04-11T10:08:52.767Z</time></trkpt><trkpt lat="45.4093267" lon="9.2686905"><ele>101.8</ele><time>2026-04-11T10:08:54.768Z</time></trkpt><trkpt lat="45.4092662" lon="9.2687906"><ele>101.4</ele><time>2026-04-11T10:08:55.768Z</time></trkpt><trkpt lat="45.4091983" lon="9.2689005"><ele>101.0</ele><time>2026-04-11T10:08:56.768Z</time></trkpt><trkpt lat="45.4091238" lon="9.2690144"><ele>101.0</ele><time>2026-04-11T10:08:57.768Z</time></trkpt><trkpt lat="45.4090378" lon="9.2691278"><ele>101.0</ele><time>2026-04-11T10:08:58.767Z</time></trkpt><trkpt lat="45.4089463" lon="9.2692327"><ele>101.0</ele><time>2026-04-11T10:08:59.768Z</time></trkpt><trkpt lat="45.4088479" lon="9.2693328"><ele>101.0</ele><time>2026-04-11T10:09:00.768Z</time></trkpt><trkpt lat="45.4087504" lon="9.2694347"><ele>101.25</ele><time>2026-04-11T10:09:01.768Z</time></trkpt><trkpt lat="45.4086569" lon="9.2695386"><ele>101.5</ele><time>2026-04-11T10:09:02.768Z</time></trkpt><trkpt lat="45.4085654" lon="9.2696369"><ele>101.75</ele><time>2026-04-11T10:09:03.768Z</time></trkpt><trkpt lat="45.4084756" lon="9.2697323"><ele>102.0</ele><time>2026-04-11T10:09:04.768Z</time></trkpt><trkpt lat="45.4083867" lon="9.2698232"><ele>102.0</ele><time>2026-04-11T10:09:05.768Z</time></trkpt><trkpt lat="45.4082979" lon="9.269907"><ele>102.0</ele><time>2026-04-11T10:09:06.768Z</time></trkpt><trkpt lat="45.4082121" lon="9.2699967"><ele>102.0</ele><time>2026-04-11T10:09:07.768Z</time></trkpt><trkpt lat="45.4081281" lon="9.270086"><ele>102.0</ele><time>2026-04-11T10:09:08.768Z</time></trkpt><trkpt lat="45.4080445" lon="9.2701746"><ele>102.0</ele><time>2026-04-11T10:09:09.768Z</time></trkpt><trkpt lat="45.4079598" lon="9.2702594"><ele>101.6</ele><time>2026-04-11T10:09:10.768Z</time></trkpt><trkpt lat="45.4078782" lon="9.2703467"><ele>101.19999999999999</ele><time>2026-04-11T10:09:11.768Z</time></trkpt><trkpt lat="45.4077944" lon="9.2704366"><ele>100.8</ele><time>2026-04-11T10:09:12.767Z</time></trkpt><trkpt lat="45.4077074" lon="9.2705274"><ele>100.4</ele><time>2026-04-11T10:09:13.768Z</time></trkpt><trkpt lat="45.4076205" lon="9.2706174"><ele>100.0</ele><time>2026-04-11T10:09:14.768Z</time></trkpt><trkpt lat="45.4075306" lon="9.270711"><ele>100.0</ele><time>2026-04-11T10:09:15.768Z</time></trkpt><trkpt lat="45.407438" lon="9.2708071"><ele>100.0</ele><time>2026-04-11T10:09:16.768Z</time></trkpt><trkpt lat="45.4073449" lon="9.2709017"><ele>100.0</ele><time>2026-04-11T10:09:17.768Z</time></trkpt><trkpt lat="45.4072516" lon="9.270999"><ele>100.0</ele><time>2026-04-11T10:09:18.768Z</time></trkpt><trkpt lat="45.4071592" lon="9.2711009"><ele>100.25</ele><time>2026-04-11T10:09:19.768Z</time></trkpt><trkpt lat="45.4070631" lon="9.2712053"><ele>100.5</ele><time>2026-04-11T10:09:20.769Z</time></trkpt><trkpt lat="45.4069659" lon="9.2713059"><ele>100.75</ele><time>2026-04-11T10:09:21.769Z</time></trkpt><trkpt lat="45.4068688" lon="9.2714093"><ele>101.0</ele><time>2026-04-11T10:09:22.769Z</time></trkpt><trkpt lat="45.4067695" lon="9.2715096"><ele>100.5</ele><time>2026-04-11T10:09:23.769Z</time></trkpt><trkpt lat="45.4066705" lon="9.2716148"><ele>100.0</ele><time>2026-04-11T10:09:24.768Z</time></trkpt><trkpt lat="45.406572" lon="9.2717165"><ele>99.5</ele><time>2026-04-11T10:09:25.768Z</time></trkpt><trkpt lat="45.4064713" lon="9.2718214"><ele>99.0</ele><time>2026-04-11T10:09:26.769Z</time></trkpt><trkpt lat="45.4063689" lon="9.271924"><ele>99.0</ele><time>2026-04-11T10:09:27.769Z</time></trkpt><trkpt lat="45.4062681" lon="9.2720284"><ele>99.0</ele><time>2026-04-11T10:09:28.769Z</time></trkpt><trkpt lat="45.4061704" lon="9.2721311"><ele>99.0</ele><time>2026-04-11T10:09:29.769Z</time></trkpt><trkpt lat="45.4060706" lon="9.2722297"><ele>99.0</ele><time>2026-04-11T10:09:30.769Z</time></trkpt><trkpt lat="45.4059744" lon="9.2723273"><ele>98.75</ele><time>2026-04-11T10:09:31.769Z</time></trkpt><trkpt lat="45.405879" lon="9.2724252"><ele>98.5</ele><time>2026-04-11T10:09:32.769Z</time></trkpt><trkpt lat="45.4057838" lon="9.2725205"><ele>98.25</ele><time>2026-04-11T10:09:33.769Z</time></trkpt><trkpt lat="45.4056932" lon="9.2726155"><ele>98.0</ele><time>2026-04-11T10:09:34.769Z</time></trkpt><trkpt lat="45.405601" lon="9.2727104"><ele>98.0</ele><time>2026-04-11T10:09:35.769Z</time></trkpt><trkpt lat="45.4055086" lon="9.2728049"><ele>98.0</ele><time>2026-04-11T10:09:36.769Z</time></trkpt><trkpt lat="45.4054133" lon="9.2728991"><ele>98.0</ele><time>2026-04-11T10:09:37.769Z</time></trkpt><trkpt lat="45.4053196" lon="9.2729953"><ele>98.0</ele><time>2026-04-11T10:09:38.769Z</time></trkpt><trkpt lat="45.405223" lon="9.2730918"><ele>97.25</ele><time>2026-04-11T10:09:39.769Z</time></trkpt><trkpt lat="45.4051176" lon="9.2732075"><ele>96.5</ele><time>2026-04-11T10:09:40.769Z</time></trkpt><trkpt lat="45.4050077" lon="9.2733315"><ele>95.75</ele><time>2026-04-11T10:09:41.769Z</time></trkpt><trkpt lat="45.4048933" lon="9.2734612"><ele>95.0</ele><time>2026-04-11T10:09:42.768Z</time></trkpt><trkpt lat="45.4047694" lon="9.2735959"><ele>95.33333333333334</ele><time>2026-04-11T10:09:43.769Z</time></trkpt><trkpt lat="45.404637" lon="9.273729"><ele>95.66666666666667</ele><time>2026-04-11T10:09:44.768Z</time></trkpt><trkpt lat="45.4045052" lon="9.2738689"><ele>96.0</ele><time>2026-04-11T10:09:45.769Z</time></trkpt><trkpt lat="45.404374" lon="9.274005"><ele>96.0</ele><time>2026-04-11T10:09:46.769Z</time></trkpt><trkpt lat="45.4042488" lon="9.2741304"><ele>96.0</ele><time>2026-04-11T10:09:47.769Z</time></trkpt><trkpt lat="45.404133" lon="9.2742508"><ele>96.0</ele><time>2026-04-11T10:09:48.769Z</time></trkpt><trkpt lat="45.4040211" lon="9.2743636"><ele>96.0</ele><time>2026-04-11T10:09:49.769Z</time></trkpt><trkpt lat="45.4039131" lon="9.274475"><ele>96.5</ele><time>2026-04-11T10:09:50.769Z</time></trkpt><trkpt lat="45.4038067" lon="9.2745905"><ele>97.0</ele><time>2026-04-11T10:09:51.769Z</time></trkpt><trkpt lat="45.4037011" lon="9.274704"><ele>97.5</ele><time>2026-04-11T10:09:52.768Z</time></trkpt><trkpt lat="45.4035959" lon="9.2748168"><ele>98.0</ele><time>2026-04-11T10:09:53.769Z</time></trkpt><trkpt lat="45.403488" lon="9.2749313"><ele>98.0</ele><time>2026-04-11T10:09:54.769Z</time></trkpt><trkpt lat="45.403382" lon="9.2750477"><ele>98.0</ele><time>2026-04-11T10:09:55.768Z</time></trkpt><trkpt lat="45.4032718" lon="9.2751624"><ele>98.0</ele><time>2026-04-11T10:09:56.768Z</time></trkpt><trkpt lat="45.4031621" lon="9.2752774"><ele>98.0</ele><time>2026-04-11T10:09:57.769Z</time></trkpt><trkpt lat="45.4030541" lon="9.2753926"><ele>98.75</ele><time>2026-04-11T10:09:58.769Z</time></trkpt><trkpt lat="45.4029431" lon="9.2755021"><ele>99.5</ele><time>2026-04-11T10:09:59.768Z</time></trkpt><trkpt lat="45.4028353" lon="9.2756107"><ele>100.25</ele><time>2026-04-11T10:10:00.769Z</time></trkpt><trkpt lat="45.4027338" lon="9.2757163"><ele>101.0</ele><time>2026-04-11T10:10:01.769Z</time></trkpt><trkpt lat="45.4026422" lon="9.2758079"><ele>100.99999999999999</ele><time>2026-04-11T10:10:02.769Z</time></trkpt><trkpt lat="45.4025609" lon="9.2758897"><ele>101.0</ele><time>2026-04-11T10:10:03.768Z</time></trkpt><trkpt lat="45.4024945" lon="9.2759613"><ele>101.0</ele><time>2026-04-11T10:10:04.769Z</time></trkpt><trkpt lat="45.4024339" lon="9.2760263"><ele>101.0</ele><time>2026-04-11T10:10:05.769Z</time></trkpt><trkpt lat="45.402382" lon="9.2760782"><ele>100.99999999999999</ele><time>2026-04-11T10:10:06.768Z</time></trkpt><trkpt lat="45.4022943" lon="9.2761578"><ele>101.0</ele><time>2026-04-11T10:10:08.769Z</time></trkpt><trkpt lat="45.402239" lon="9.2762011"><ele>100.99999999999999</ele><time>2026-04-11T10:10:10.77Z</time></trkpt><trkpt lat="45.4021709" lon="9.2762651"><ele>101.0</ele><time>2026-04-11T10:10:13.769Z</time></trkpt><trkpt lat="45.402111" lon="9.2763216"><ele>101.0</ele><time>2026-04-11T10:10:22.77Z</time></trkpt><trkpt lat="45.4020437" lon="9.2764329"><ele>101.0</ele><time>2026-04-11T10:10:49.77Z</time></trkpt><trkpt lat="45.4019874" lon="9.2764907"><ele>100.99999999999999</ele><time>2026-04-11T10:10:50.77Z</time></trkpt><trkpt lat="45.4019192" lon="9.2765661"><ele>101.0</ele><time>2026-04-11T10:10:51.77Z</time></trkpt><trkpt lat="45.4018476" lon="9.2766448"><ele>101.0</ele><time>2026-04-11T10:10:52.77Z</time></trkpt><trkpt lat="45.4017636" lon="9.2767334"><ele>101.0</ele><time>2026-04-11T10:10:53.769Z</time></trkpt><trkpt lat="45.4016708" lon="9.2768283"><ele>101.0</ele><time>2026-04-11T10:10:54.77Z</time></trkpt><trkpt lat="45.4015782" lon="9.2769245"><ele>101.0</ele><time>2026-04-11T10:10:55.77Z</time></trkpt><trkpt lat="45.4014798" lon="9.2770271"><ele>101.0</ele><time>2026-04-11T10:10:56.77Z</time></trkpt><trkpt lat="45.4013783" lon="9.2771318"><ele>101.0</ele><time>2026-04-11T10:10:57.77Z</time></trkpt><trkpt lat="45.4012721" lon="9.2772421"><ele>101.0</ele><time>2026-04-11T10:10:58.769Z</time></trkpt><trkpt lat="45.4011685" lon="9.2773577"><ele>101.0</ele><time>2026-04-11T10:10:59.77Z</time></trkpt><trkpt lat="45.4010633" lon="9.2774706"><ele>101.5</ele><time>2026-04-11T10:11:00.769Z</time></trkpt><trkpt lat="45.4009564" lon="9.2775815"><ele>102.0</ele><time>2026-04-11T10:11:01.771Z</time></trkpt><trkpt lat="45.4008517" lon="9.2776888"><ele>102.5</ele><time>2026-04-11T10:11:02.77Z</time></trkpt><trkpt lat="45.4007489" lon="9.277793"><ele>103.0</ele><time>2026-04-11T10:11:03.771Z</time></trkpt><trkpt lat="45.40065" lon="9.2778992"><ele>103.0</ele><time>2026-04-11T10:11:04.771Z</time></trkpt><trkpt lat="45.4005531" lon="9.2780057"><ele>103.0</ele><time>2026-04-11T10:11:05.771Z</time></trkpt><trkpt lat="45.4004571" lon="9.278111"><ele>103.0</ele><time>2026-04-11T10:11:06.771Z</time></trkpt><trkpt lat="45.4003663" lon="9.2782103"><ele>103.0</ele><time>2026-04-11T10:11:07.77Z</time></trkpt><trkpt lat="45.4002746" lon="9.2783087"><ele>102.0</ele><time>2026-04-11T10:11:08.77Z</time></trkpt><trkpt lat="45.4001834" lon="9.2784066"><ele>101.0</ele><time>2026-04-11T10:11:09.771Z</time></trkpt><trkpt lat="45.4000948" lon="9.2785078"><ele>100.0</ele><time>2026-04-11T10:11:10.771Z</time></trkpt><trkpt lat="45.4000037" lon="9.2786069"><ele>99.0</ele><time>2026-04-11T10:11:11.771Z</time></trkpt><trkpt lat="45.3999098" lon="9.2787027"><ele>99.0</ele><time>2026-04-11T10:11:12.771Z</time></trkpt><trkpt lat="45.3998172" lon="9.2787992"><ele>99.0</ele><time>2026-04-11T10:11:13.77Z</time></trkpt><trkpt lat="45.3997264" lon="9.2789"><ele>99.0</ele><time>2026-04-11T10:11:14.771Z</time></trkpt><trkpt lat="45.3996342" lon="9.2790001"><ele>99.0</ele><time>2026-04-11T10:11:15.771Z</time></trkpt><trkpt lat="45.3995407" lon="9.2790991"><ele>99.0</ele><time>2026-04-11T10:11:16.771Z</time></trkpt><trkpt lat="45.3994471" lon="9.2791981"><ele>99.0</ele><time>2026-04-11T10:11:17.771Z</time></trkpt><trkpt lat="45.3993551" lon="9.2793002"><ele>99.0</ele><time>2026-04-11T10:11:18.771Z</time></trkpt><trkpt lat="45.3992618" lon="9.2794034"><ele>99.0</ele><time>2026-04-11T10:11:19.771Z</time></trkpt><trkpt lat="45.3991681" lon="9.2795036"><ele>99.0</ele><time>2026-04-11T10:11:20.771Z</time></trkpt><trkpt lat="45.3990755" lon="9.2796059"><ele>99.0</ele><time>2026-04-11T10:11:21.771Z</time></trkpt><trkpt lat="45.3989806" lon="9.2797059"><ele>99.0</ele><time>2026-04-11T10:11:22.77Z</time></trkpt><trkpt lat="45.3988841" lon="9.2798043"><ele>99.0</ele><time>2026-04-11T10:11:23.771Z</time></trkpt><trkpt lat="45.398788" lon="9.2799071"><ele>99.25</ele><time>2026-04-11T10:11:24.771Z</time></trkpt><trkpt lat="45.3986939" lon="9.2800098"><ele>99.5</ele><time>2026-04-11T10:11:25.771Z</time></trkpt><trkpt lat="45.3985989" lon="9.2801129"><ele>99.75</ele><time>2026-04-11T10:11:26.771Z</time></trkpt><trkpt lat="45.3985031" lon="9.280215"><ele>100.0</ele><time>2026-04-11T10:11:27.771Z</time></trkpt><trkpt lat="45.3984069" lon="9.2803181"><ele>100.0</ele><time>2026-04-11T10:11:28.77Z</time></trkpt><trkpt lat="45.3983095" lon="9.2804206"><ele>100.0</ele><time>2026-04-11T10:11:29.771Z</time></trkpt><trkpt lat="45.3982134" lon="9.2805247"><ele>100.0</ele><time>2026-04-11T10:11:30.771Z</time></trkpt><trkpt lat="45.3981172" lon="9.2806266"><ele>100.0</ele><time>2026-04-11T10:11:31.771Z</time></trkpt><trkpt lat="45.3980209" lon="9.2807252"><ele>100.0</ele><time>2026-04-11T10:11:32.771Z</time></trkpt><trkpt lat="45.397924" lon="9.2808212"><ele>100.0</ele><time>2026-04-11T10:11:33.771Z</time></trkpt><trkpt lat="45.3978293" lon="9.2809189"><ele>100.0</ele><time>2026-04-11T10:11:34.771Z</time></trkpt><trkpt lat="45.397734" lon="9.2810175"><ele>100.0</ele><time>2026-04-11T10:11:35.771Z</time></trkpt><trkpt lat="45.3976423" lon="9.28111"><ele>100.0</ele><time>2026-04-11T10:11:36.771Z</time></trkpt><trkpt lat="45.3975527" lon="9.2811953"><ele>100.0</ele><time>2026-04-11T10:11:37.771Z</time></trkpt><trkpt lat="45.3974681" lon="9.2812757"><ele>100.0</ele><time>2026-04-11T10:11:38.771Z</time></trkpt><trkpt lat="45.3973889" lon="9.2813545"><ele>100.0</ele><time>2026-04-11T10:11:39.771Z</time></trkpt><trkpt lat="45.397318" lon="9.281431"><ele>100.0</ele><time>2026-04-11T10:11:40.771Z</time></trkpt><trkpt lat="45.3972509" lon="9.2815032"><ele>100.00000000000001</ele><time>2026-04-11T10:11:41.771Z</time></trkpt><trkpt lat="45.3971852" lon="9.2815711"><ele>100.0</ele><time>2026-04-11T10:11:42.771Z</time></trkpt><trkpt lat="45.3971206" lon="9.2816338"><ele>100.0</ele><time>2026-04-11T10:11:43.771Z</time></trkpt><trkpt lat="45.3970673" lon="9.2816897"><ele>100.0</ele><time>2026-04-11T10:11:44.771Z</time></trkpt><trkpt lat="45.3970136" lon="9.2817425"><ele>100.00000000000001</ele><time>2026-04-11T10:11:45.771Z</time></trkpt><trkpt lat="45.3969229" lon="9.2818243"><ele>100.0</ele><time>2026-04-11T10:11:47.771Z</time></trkpt><trkpt lat="45.3968459" lon="9.2818916"><ele>100.0</ele><time>2026-04-11T10:11:49.771Z</time></trkpt><trkpt lat="45.3967633" lon="9.2819441"><ele>100.0</ele><time>2026-04-11T10:11:51.771Z</time></trkpt><trkpt lat="45.3966594" lon="9.2820578"><ele>100.0</ele><time>2026-04-11T10:11:53.772Z</time></trkpt><trkpt lat="45.3965859" lon="9.2821316"><ele>100.0</ele><time>2026-04-11T10:11:54.772Z</time></trkpt><trkpt lat="45.3965051" lon="9.2822033"><ele>100.0</ele><time>2026-04-11T10:11:55.771Z</time></trkpt><trkpt lat="45.3964116" lon="9.282273"><ele>99.75</ele><time>2026-04-11T10:11:56.772Z</time></trkpt><trkpt lat="45.3963163" lon="9.2823552"><ele>99.5</ele><time>2026-04-11T10:11:57.772Z</time></trkpt><trkpt lat="45.3962204" lon="9.2824441"><ele>99.25</ele><time>2026-04-11T10:11:58.772Z</time></trkpt><trkpt lat="45.3961223" lon="9.2825349"><ele>99.0</ele><time>2026-04-11T10:11:59.772Z</time></trkpt><trkpt lat="45.3960226" lon="9.2826245"><ele>99.0</ele><time>2026-04-11T10:12:00.771Z</time></trkpt><trkpt lat="45.3959227" lon="9.2827164"><ele>99.0</ele><time>2026-04-11T10:12:01.772Z</time></trkpt><trkpt lat="45.3958214" lon="9.2828149"><ele>99.0</ele><time>2026-04-11T10:12:02.772Z</time></trkpt><trkpt lat="45.3957163" lon="9.2829113"><ele>99.0</ele><time>2026-04-11T10:12:03.772Z</time></trkpt><trkpt lat="45.3956064" lon="9.2830091"><ele>99.0</ele><time>2026-04-11T10:12:04.772Z</time></trkpt><trkpt lat="45.3954971" lon="9.283117"><ele>99.0</ele><time>2026-04-11T10:12:05.771Z</time></trkpt><trkpt lat="45.3953833" lon="9.283223"><ele>99.0</ele><time>2026-04-11T10:12:06.772Z</time></trkpt><trkpt lat="45.3952634" lon="9.2833224"><ele>99.0</ele><time>2026-04-11T10:12:07.772Z</time></trkpt><trkpt lat="45.3951472" lon="9.283431"><ele>99.0</ele><time>2026-04-11T10:12:08.772Z</time></trkpt><trkpt lat="45.3950416" lon="9.2835356"><ele>99.0</ele><time>2026-04-11T10:12:09.772Z</time></trkpt><trkpt lat="45.3949308" lon="9.2836239"><ele>99.0</ele><time>2026-04-11T10:12:10.772Z</time></trkpt><trkpt lat="45.3948262" lon="9.2837204"><ele>99.0</ele><time>2026-04-11T10:12:11.772Z</time></trkpt><trkpt lat="45.3947319" lon="9.2838369"><ele>98.6</ele><time>2026-04-11T10:12:12.772Z</time></trkpt><trkpt lat="45.3946408" lon="9.2839521"><ele>98.2</ele><time>2026-04-11T10:12:13.772Z</time></trkpt><trkpt lat="45.3945588" lon="9.2840551"><ele>97.8</ele><time>2026-04-11T10:12:14.772Z</time></trkpt><trkpt lat="45.3944822" lon="9.2841536"><ele>97.39999999999999</ele><time>2026-04-11T10:12:15.772Z</time></trkpt><trkpt lat="45.3944089" lon="9.2842506"><ele>97.0</ele><time>2026-04-11T10:12:16.772Z</time></trkpt><trkpt lat="45.3943437" lon="9.2843366"><ele>97.00000000000001</ele><time>2026-04-11T10:12:17.772Z</time></trkpt><trkpt lat="45.3942916" lon="9.2844037"><ele>97.0</ele><time>2026-04-11T10:12:18.772Z</time></trkpt><trkpt lat="45.394209" lon="9.2845114"><ele>97.0</ele><time>2026-04-11T10:12:20.772Z</time></trkpt><trkpt lat="45.3941245" lon="9.284631"><ele>97.0</ele><time>2026-04-11T10:12:22.772Z</time></trkpt><trkpt lat="45.3940759" lon="9.2846952"><ele>97.00000000000001</ele><time>2026-04-11T10:12:23.772Z</time></trkpt><trkpt lat="45.394023" lon="9.284765"><ele>97.0</ele><time>2026-04-11T10:12:24.772Z</time></trkpt><trkpt lat="45.3939673" lon="9.2848416"><ele>97.0</ele><time>2026-04-11T10:12:25.772Z</time></trkpt><trkpt lat="45.3939048" lon="9.2849273"><ele>97.0</ele><time>2026-04-11T10:12:26.772Z</time></trkpt><trkpt lat="45.3938379" lon="9.2850191"><ele>97.0</ele><time>2026-04-11T10:12:27.772Z</time></trkpt><trkpt lat="45.3937687" lon="9.2851119"><ele>97.0</ele><time>2026-04-11T10:12:28.772Z</time></trkpt><trkpt lat="45.3937041" lon="9.2852"><ele>97.0</ele><time>2026-04-11T10:12:29.771Z</time></trkpt><trkpt lat="45.3936412" lon="9.2852845"><ele>97.0</ele><time>2026-04-11T10:12:30.772Z</time></trkpt><trkpt lat="45.3935805" lon="9.285372"><ele>97.0</ele><time>2026-04-11T10:12:31.772Z</time></trkpt><trkpt lat="45.3935198" lon="9.2854628"><ele>97.0</ele><time>2026-04-11T10:12:32.772Z</time></trkpt><trkpt lat="45.3934545" lon="9.2855505"><ele>97.0</ele><time>2026-04-11T10:12:33.771Z</time></trkpt><trkpt lat="45.3933821" lon="9.2856535"><ele>97.0</ele><time>2026-04-11T10:12:34.772Z</time></trkpt><trkpt lat="45.3933037" lon="9.2857677"><ele>97.0</ele><time>2026-04-11T10:12:35.772Z</time></trkpt><trkpt lat="45.3932242" lon="9.2858894"><ele>97.0</ele><time>2026-04-11T10:12:36.772Z</time></trkpt><trkpt lat="45.3931566" lon="9.2859921"><ele>97.0</ele><time>2026-04-11T10:12:37.772Z</time></trkpt><trkpt lat="45.3930925" lon="9.2860897"><ele>97.0</ele><time>2026-04-11T10:12:38.772Z</time></trkpt><trkpt lat="45.3930297" lon="9.2861824"><ele>97.0</ele><time>2026-04-11T10:12:39.772Z</time></trkpt><trkpt lat="45.3929671" lon="9.2862706"><ele>96.83333333333334</ele><time>2026-04-11T10:12:40.772Z</time></trkpt><trkpt lat="45.3929098" lon="9.2863461"><ele>96.66666666666667</ele><time>2026-04-11T10:12:41.772Z</time></trkpt><trkpt lat="45.3928615" lon="9.2864078"><ele>96.5</ele><time>2026-04-11T10:12:42.772Z</time></trkpt><trkpt lat="45.3927944" lon="9.2864948"><ele>96.33333333333334</ele><time>2026-04-11T10:12:44.772Z</time></trkpt><trkpt lat="45.3927554" lon="9.2865725"><ele>96.16666666666667</ele><time>2026-04-11T10:12:46.773Z</time></trkpt><trkpt lat="45.392686" lon="9.2866407"><ele>96.0</ele><time>2026-04-11T10:12:56.773Z</time></trkpt><trkpt lat="45.3926031" lon="9.286753"><ele>95.99999999999999</ele><time>2026-04-11T10:12:58.772Z</time></trkpt><trkpt lat="45.3925565" lon="9.286816"><ele>96.0</ele><time>2026-04-11T10:12:59.772Z</time></trkpt><trkpt lat="45.3924999" lon="9.2868835"><ele>96.0</ele><time>2026-04-11T10:13:00.773Z</time></trkpt><trkpt lat="45.3924405" lon="9.2869569"><ele>96.0</ele><time>2026-04-11T10:13:01.773Z</time></trkpt><trkpt lat="45.3923798" lon="9.2870191"><ele>96.0</ele><time>2026-04-11T10:13:02.772Z</time></trkpt><trkpt lat="45.392313" lon="9.2870565"><ele>95.99999999999999</ele><time>2026-04-11T10:13:03.773Z</time></trkpt><trkpt lat="45.3922426" lon="9.2870544"><ele>96.0</ele><time>2026-04-11T10:13:04.773Z</time></trkpt><trkpt lat="45.3921795" lon="9.2870087"><ele>96.0</ele><time>2026-04-11T10:13:05.773Z</time></trkpt><trkpt lat="45.3921204" lon="9.286939"><ele>96.0</ele><time>2026-04-11T10:13:06.773Z</time></trkpt><trkpt lat="45.3920587" lon="9.2868781"><ele>96.0</ele><time>2026-04-11T10:13:07.773Z</time></trkpt><trkpt lat="45.3919864" lon="9.286854"><ele>96.0</ele><time>2026-04-11T10:13:08.773Z</time></trkpt><trkpt lat="45.3919002" lon="9.286875"><ele>96.0</ele><time>2026-04-11T10:13:09.773Z</time></trkpt><trkpt lat="45.3918384" lon="9.2869332"><ele>96.0</ele><time>2026-04-11T10:13:10.773Z</time></trkpt><trkpt lat="45.391797" lon="9.287027"><ele>96.0</ele><time>2026-04-11T10:13:11.773Z</time></trkpt><trkpt lat="45.3917906" lon="9.287153"><ele>96.0</ele><time>2026-04-11T10:13:12.773Z</time></trkpt><trkpt lat="45.3917985" lon="9.2872718"><ele>96.0</ele><time>2026-04-11T10:13:13.773Z</time></trkpt><trkpt lat="45.3918202" lon="9.2873887"><ele>96.0</ele><time>2026-04-11T10:13:14.773Z</time></trkpt><trkpt lat="45.3918382" lon="9.2874988"><ele>96.0</ele><time>2026-04-11T10:13:15.773Z</time></trkpt><trkpt lat="45.3918235" lon="9.2876112"><ele>96.0</ele><time>2026-04-11T10:13:16.773Z</time></trkpt><trkpt lat="45.3917715" lon="9.2877214"><ele>96.33333333333334</ele><time>2026-04-11T10:13:17.773Z</time></trkpt><trkpt lat="45.3916907" lon="9.2878421"><ele>96.66666666666667</ele><time>2026-04-11T10:13:18.773Z</time></trkpt><trkpt lat="45.3915698" lon="9.2879888"><ele>97.0</ele><time>2026-04-11T10:13:19.772Z</time></trkpt><trkpt lat="45.3914203" lon="9.2881724"><ele>97.0</ele><time>2026-04-11T10:13:20.773Z</time></trkpt><trkpt lat="45.3912571" lon="9.2883741"><ele>97.0</ele><time>2026-04-11T10:13:21.773Z</time></trkpt><trkpt lat="45.3910851" lon="9.2885812"><ele>97.0</ele><time>2026-04-11T10:13:22.773Z</time></trkpt><trkpt lat="45.39091" lon="9.2887884"><ele>96.66666666666667</ele><time>2026-04-11T10:13:23.773Z</time></trkpt><trkpt lat="45.3907377" lon="9.2889947"><ele>96.33333333333334</ele><time>2026-04-11T10:13:24.773Z</time></trkpt><trkpt lat="45.390569" lon="9.2891916"><ele>96.0</ele><time>2026-04-11T10:13:25.773Z</time></trkpt><trkpt lat="45.3904047" lon="9.2893831"><ele>95.66666666666667</ele><time>2026-04-11T10:13:26.773Z</time></trkpt><trkpt lat="45.3902451" lon="9.2895692"><ele>95.33333333333334</ele><time>2026-04-11T10:13:27.773Z</time></trkpt><trkpt lat="45.3900895" lon="9.2897573"><ele>95.0</ele><time>2026-04-11T10:13:28.773Z</time></trkpt><trkpt lat="45.3899353" lon="9.289935"><ele>95.0</ele><time>2026-04-11T10:13:29.773Z</time></trkpt><trkpt lat="45.3897834" lon="9.29011"><ele>95.0</ele><time>2026-04-11T10:13:30.773Z</time></trkpt><trkpt lat="45.3896342" lon="9.2902888"><ele>95.0</ele><time>2026-04-11T10:13:31.772Z</time></trkpt><trkpt lat="45.3894861" lon="9.2904719"><ele>95.33333333333334</ele><time>2026-04-11T10:13:32.773Z</time></trkpt><trkpt lat="45.3893382" lon="9.2906531"><ele>95.66666666666667</ele><time>2026-04-11T10:13:33.774Z</time></trkpt><trkpt lat="45.3891908" lon="9.2908338"><ele>96.0</ele><time>2026-04-11T10:13:34.774Z</time></trkpt><trkpt lat="45.389042" lon="9.2910103"><ele>96.0</ele><time>2026-04-11T10:13:35.773Z</time></trkpt><trkpt lat="45.3888929" lon="9.2911885"><ele>96.0</ele><time>2026-04-11T10:13:36.774Z</time></trkpt><trkpt lat="45.3887421" lon="9.2913724"><ele>96.0</ele><time>2026-04-11T10:13:37.773Z</time></trkpt><trkpt lat="45.3885857" lon="9.2915592"><ele>96.0</ele><time>2026-04-11T10:13:38.774Z</time></trkpt><trkpt lat="45.388427" lon="9.2917518"><ele>96.0</ele><time>2026-04-11T10:13:39.774Z</time></trkpt><trkpt lat="45.3882645" lon="9.2919444"><ele>96.0</ele><time>2026-04-11T10:13:40.774Z</time></trkpt><trkpt lat="45.3881" lon="9.2921364"><ele>94.66666666666667</ele><time>2026-04-11T10:13:41.773Z</time></trkpt><trkpt lat="45.3879344" lon="9.2923352"><ele>93.33333333333334</ele><time>2026-04-11T10:13:42.774Z</time></trkpt><trkpt lat="45.3877677" lon="9.2925344"><ele>92.0</ele><time>2026-04-11T10:13:43.774Z</time></trkpt><trkpt lat="45.3876007" lon="9.2927338"><ele>92.0</ele><time>2026-04-11T10:13:44.774Z</time></trkpt><trkpt lat="45.3874337" lon="9.2929358"><ele>92.0</ele><time>2026-04-11T10:13:45.774Z</time></trkpt><trkpt lat="45.3872647" lon="9.2931367"><ele>92.0</ele><time>2026-04-11T10:13:46.774Z</time></trkpt><trkpt lat="45.3870953" lon="9.2933398"><ele>92.66666666666667</ele><time>2026-04-11T10:13:47.774Z</time></trkpt><trkpt lat="45.3869223" lon="9.2935419"><ele>93.33333333333333</ele><time>2026-04-11T10:13:48.774Z</time></trkpt><trkpt lat="45.3867517" lon="9.2937463"><ele>94.0</ele><time>2026-04-11T10:13:49.774Z</time></trkpt><trkpt lat="45.3865814" lon="9.2939534"><ele>94.0</ele><time>2026-04-11T10:13:50.774Z</time></trkpt><trkpt lat="45.3864087" lon="9.2941606"><ele>94.0</ele><time>2026-04-11T10:13:51.773Z</time></trkpt><trkpt lat="45.386235" lon="9.2943636"><ele>94.0</ele><time>2026-04-11T10:13:52.773Z</time></trkpt><trkpt lat="45.3860595" lon="9.294569"><ele>94.0</ele><time>2026-04-11T10:13:53.774Z</time></trkpt><trkpt lat="45.385884" lon="9.2947761"><ele>93.0</ele><time>2026-04-11T10:13:54.774Z</time></trkpt><trkpt lat="45.3857118" lon="9.2949858"><ele>92.0</ele><time>2026-04-11T10:13:55.774Z</time></trkpt><trkpt lat="45.3855376" lon="9.2951935"><ele>91.5</ele><time>2026-04-11T10:13:56.774Z</time></trkpt><trkpt lat="45.3853616" lon="9.2953978"><ele>91.0</ele><time>2026-04-11T10:13:57.774Z</time></trkpt><trkpt lat="45.3851896" lon="9.2956041"><ele>91.0</ele><time>2026-04-11T10:13:58.774Z</time></trkpt><trkpt lat="45.3850161" lon="9.2958154"><ele>91.0</ele><time>2026-04-11T10:13:59.774Z</time></trkpt><trkpt lat="45.3848408" lon="9.296025"><ele>92.0</ele><time>2026-04-11T10:14:00.774Z</time></trkpt><trkpt lat="45.3846644" lon="9.2962342"><ele>93.0</ele><time>2026-04-11T10:14:01.774Z</time></trkpt><trkpt lat="45.3844894" lon="9.2964407"><ele>93.0</ele><time>2026-04-11T10:14:02.774Z</time></trkpt><trkpt lat="45.3843181" lon="9.2966415"><ele>93.0</ele><time>2026-04-11T10:14:03.774Z</time></trkpt><trkpt lat="45.3841562" lon="9.2968395"><ele>93.0</ele><time>2026-04-11T10:14:04.774Z</time></trkpt><trkpt lat="45.3839982" lon="9.2970264"><ele>93.0</ele><time>2026-04-11T10:14:05.774Z</time></trkpt><trkpt lat="45.3838431" lon="9.2972104"><ele>93.0</ele><time>2026-04-11T10:14:06.774Z</time></trkpt><trkpt lat="45.3836904" lon="9.2973926"><ele>93.0</ele><time>2026-04-11T10:14:07.774Z</time></trkpt><trkpt lat="45.38354" lon="9.2975707"><ele>93.0</ele><time>2026-04-11T10:14:08.774Z</time></trkpt><trkpt lat="45.3833932" lon="9.2977474"><ele>93.0</ele><time>2026-04-11T10:14:09.774Z</time></trkpt><trkpt lat="45.3832447" lon="9.2979226"><ele>93.0</ele><time>2026-04-11T10:14:10.774Z</time></trkpt><trkpt lat="45.3830963" lon="9.2980976"><ele>93.0</ele><time>2026-04-11T10:14:11.774Z</time></trkpt><trkpt lat="45.3829486" lon="9.2982724"><ele>93.0</ele><time>2026-04-11T10:14:12.774Z</time></trkpt><trkpt lat="45.3828019" lon="9.2984452"><ele>93.0</ele><time>2026-04-11T10:14:13.774Z</time></trkpt><trkpt lat="45.3826568" lon="9.2986216"><ele>93.0</ele><time>2026-04-11T10:14:14.773Z</time></trkpt><trkpt lat="45.3825104" lon="9.2987944"><ele>93.0</ele><time>2026-04-11T10:14:15.774Z</time></trkpt><trkpt lat="45.3823644" lon="9.2989645"><ele>93.0</ele><time>2026-04-11T10:14:16.773Z</time></trkpt><trkpt lat="45.3822227" lon="9.299132"><ele>93.33333333333333</ele><time>2026-04-11T10:14:17.774Z</time></trkpt><trkpt lat="45.382088" lon="9.2992904"><ele>93.66666666666666</ele><time>2026-04-11T10:14:18.773Z</time></trkpt><trkpt lat="45.3819628" lon="9.2994404"><ele>94.0</ele><time>2026-04-11T10:14:19.774Z</time></trkpt><trkpt lat="45.381843" lon="9.2995802"><ele>94.0</ele><time>2026-04-11T10:14:20.774Z</time></trkpt><trkpt lat="45.381728" lon="9.2997081"><ele>94.0</ele><time>2026-04-11T10:14:21.774Z</time></trkpt><trkpt lat="45.381616" lon="9.2998261"><ele>94.0</ele><time>2026-04-11T10:14:22.774Z</time></trkpt><trkpt lat="45.3815182" lon="9.2999356"><ele>94.0</ele><time>2026-04-11T10:14:23.773Z</time></trkpt><trkpt lat="45.3814309" lon="9.3000355"><ele>94.0</ele><time>2026-04-11T10:14:24.774Z</time></trkpt><trkpt lat="45.3813511" lon="9.3001268"><ele>94.0</ele><time>2026-04-11T10:14:25.775Z</time></trkpt><trkpt lat="45.381276" lon="9.300212"><ele>94.0</ele><time>2026-04-11T10:14:26.774Z</time></trkpt><trkpt lat="45.3812017" lon="9.3002803"><ele>94.0</ele><time>2026-04-11T10:14:27.775Z</time></trkpt><trkpt lat="45.3811214" lon="9.3003221"><ele>94.0</ele><time>2026-04-11T10:14:28.775Z</time></trkpt><trkpt lat="45.3810416" lon="9.3003261"><ele>93.75</ele><time>2026-04-11T10:14:29.775Z</time></trkpt><trkpt lat="45.3809146" lon="9.3003432"><ele>93.5</ele><time>2026-04-11T10:14:31.775Z</time></trkpt><trkpt lat="45.380804" lon="9.300353"><ele>93.25</ele><time>2026-04-11T10:14:32.775Z</time></trkpt><trkpt lat="45.3807031" lon="9.3004119"><ele>93.0</ele><time>2026-04-11T10:14:33.775Z</time></trkpt><trkpt lat="45.3806213" lon="9.3004992"><ele>93.0</ele><time>2026-04-11T10:14:34.775Z</time></trkpt><trkpt lat="45.3805607" lon="9.3006125"><ele>93.0</ele><time>2026-04-11T10:14:35.775Z</time></trkpt><trkpt lat="45.3805286" lon="9.3007465"><ele>93.0</ele><time>2026-04-11T10:14:36.775Z</time></trkpt><trkpt lat="45.3805212" lon="9.300893"><ele>93.0</ele><time>2026-04-11T10:14:37.775Z</time></trkpt><trkpt lat="45.3805179" lon="9.3010379"><ele>93.0</ele><time>2026-04-11T10:14:38.775Z</time></trkpt><trkpt lat="45.380493" lon="9.3011817"><ele>93.0</ele><time>2026-04-11T10:14:39.775Z</time></trkpt><trkpt lat="45.3804371" lon="9.301319"><ele>93.0</ele><time>2026-04-11T10:14:40.775Z</time></trkpt><trkpt lat="45.3803425" lon="9.3014426"><ele>93.0</ele><time>2026-04-11T10:14:41.775Z</time></trkpt><trkpt lat="45.3802232" lon="9.3015669"><ele>93.0</ele><time>2026-04-11T10:14:42.775Z</time></trkpt><trkpt lat="45.3801215" lon="9.3017001"><ele>93.0</ele><time>2026-04-11T10:14:43.775Z</time></trkpt><trkpt lat="45.3800104" lon="9.3018335"><ele>93.0</ele><time>2026-04-11T10:14:44.775Z</time></trkpt><trkpt lat="45.3798947" lon="9.3019686"><ele>93.0</ele><time>2026-04-11T10:14:45.775Z</time></trkpt><trkpt lat="45.3797744" lon="9.3021072"><ele>93.33333333333333</ele><time>2026-04-11T10:14:46.775Z</time></trkpt><trkpt lat="45.3796527" lon="9.3022489"><ele>93.66666666666666</ele><time>2026-04-11T10:14:47.775Z</time></trkpt><trkpt lat="45.3795292" lon="9.3023923"><ele>94.0</ele><time>2026-04-11T10:14:48.775Z</time></trkpt><trkpt lat="45.3794049" lon="9.3025407"><ele>94.0</ele><time>2026-04-11T10:14:49.775Z</time></trkpt><trkpt lat="45.3792745" lon="9.3026869"><ele>94.0</ele><time>2026-04-11T10:14:50.775Z</time></trkpt><trkpt lat="45.3791477" lon="9.302838"><ele>94.0</ele><time>2026-04-11T10:14:51.775Z</time></trkpt><trkpt lat="45.3790156" lon="9.3029929"><ele>94.0</ele><time>2026-04-11T10:14:52.774Z</time></trkpt><trkpt lat="45.3788906" lon="9.3031493"><ele>94.0</ele><time>2026-04-11T10:14:53.775Z</time></trkpt><trkpt lat="45.3787576" lon="9.3033022"><ele>94.0</ele><time>2026-04-11T10:14:54.775Z</time></trkpt><trkpt lat="45.3786288" lon="9.303445"><ele>93.75</ele><time>2026-04-11T10:14:55.775Z</time></trkpt><trkpt lat="45.3785208" lon="9.3035637"><ele>93.5</ele><time>2026-04-11T10:14:56.775Z</time></trkpt><trkpt lat="45.3784073" lon="9.3036794"><ele>93.25</ele><time>2026-04-11T10:14:57.775Z</time></trkpt><trkpt lat="45.3782993" lon="9.3037981"><ele>93.0</ele><time>2026-04-11T10:14:58.774Z</time></trkpt><trkpt lat="45.3782098" lon="9.3038992"><ele>93.0</ele><time>2026-04-11T10:14:59.775Z</time></trkpt><trkpt lat="45.3781349" lon="9.3039855"><ele>93.0</ele><time>2026-04-11T10:15:00.775Z</time></trkpt><trkpt lat="45.3780731" lon="9.3040532"><ele>93.0</ele><time>2026-04-11T10:15:01.775Z</time></trkpt><trkpt lat="45.3779656" lon="9.3041198"><ele>93.0</ele><time>2026-04-11T10:15:03.775Z</time></trkpt><trkpt lat="45.3778463" lon="9.3041211"><ele>93.0</ele><time>2026-04-11T10:15:05.775Z</time></trkpt><trkpt lat="45.3777157" lon="9.3040809"><ele>93.14285714285715</ele><time>2026-04-11T10:15:07.774Z</time></trkpt><trkpt lat="45.3776365" lon="9.3040388"><ele>93.28571428571429</ele><time>2026-04-11T10:15:08.775Z</time></trkpt><trkpt lat="45.3775608" lon="9.3040271"><ele>93.42857142857143</ele><time>2026-04-11T10:15:09.775Z</time></trkpt><trkpt lat="45.3774879" lon="9.3040485"><ele>93.57142857142858</ele><time>2026-04-11T10:15:10.775Z</time></trkpt><trkpt lat="45.3774235" lon="9.3040879"><ele>93.71428571428571</ele><time>2026-04-11T10:15:11.775Z</time></trkpt><trkpt lat="45.377372" lon="9.3041464"><ele>93.85714285714286</ele><time>2026-04-11T10:15:12.775Z</time></trkpt><trkpt lat="45.377324" lon="9.3042198"><ele>94.0</ele><time>2026-04-11T10:15:13.775Z</time></trkpt><trkpt lat="45.377285" lon="9.3043055"><ele>94.0</ele><time>2026-04-11T10:15:14.776Z</time></trkpt><trkpt lat="45.3772622" lon="9.304407"><ele>94.0</ele><time>2026-04-11T10:15:15.776Z</time></trkpt><trkpt lat="45.3772568" lon="9.3045021"><ele>94.0</ele><time>2026-04-11T10:15:16.776Z</time></trkpt><trkpt lat="45.3772671" lon="9.3046467"><ele>94.0</ele><time>2026-04-11T10:15:18.776Z</time></trkpt><trkpt lat="45.3772821" lon="9.3047857"><ele>94.0</ele><time>2026-04-11T10:15:20.775Z</time></trkpt><trkpt lat="45.3772821" lon="9.3049243"><ele>94.0</ele><time>2026-04-11T10:15:22.776Z</time></trkpt><trkpt lat="45.3772227" lon="9.3051045"><ele>93.6</ele><time>2026-04-11T10:15:24.776Z</time></trkpt><trkpt lat="45.3771569" lon="9.3051852"><ele>93.2</ele><time>2026-04-11T10:15:25.776Z</time></trkpt><trkpt lat="45.377083" lon="9.3052733"><ele>92.8</ele><time>2026-04-11T10:15:26.776Z</time></trkpt><trkpt lat="45.377005" lon="9.3053704"><ele>92.39999999999999</ele><time>2026-04-11T10:15:27.776Z</time></trkpt><trkpt lat="45.3769203" lon="9.3054743"><ele>92.0</ele><time>2026-04-11T10:15:28.775Z</time></trkpt><trkpt lat="45.3768229" lon="9.3055873"><ele>92.0</ele><time>2026-04-11T10:15:29.776Z</time></trkpt><trkpt lat="45.3767279" lon="9.3056897"><ele>92.0</ele><time>2026-04-11T10:15:30.776Z</time></trkpt><trkpt lat="45.3766464" lon="9.3057891"><ele>92.0</ele><time>2026-04-11T10:15:31.776Z</time></trkpt><trkpt lat="45.3765697" lon="9.3058813"><ele>92.0</ele><time>2026-04-11T10:15:32.776Z</time></trkpt><trkpt lat="45.3764973" lon="9.3059657"><ele>92.0</ele><time>2026-04-11T10:15:33.776Z</time></trkpt><trkpt lat="45.3764293" lon="9.3060464"><ele>92.0</ele><time>2026-04-11T10:15:34.776Z</time></trkpt><trkpt lat="45.3763588" lon="9.3061383"><ele>92.0</ele><time>2026-04-11T10:15:35.775Z</time></trkpt><trkpt lat="45.3762829" lon="9.306235"><ele>92.0</ele><time>2026-04-11T10:15:36.776Z</time></trkpt><trkpt lat="45.3762008" lon="9.3063342"><ele>92.0</ele><time>2026-04-11T10:15:37.776Z</time></trkpt><trkpt lat="45.3761159" lon="9.3064414"><ele>92.0</ele><time>2026-04-11T10:15:38.776Z</time></trkpt><trkpt lat="45.376026" lon="9.30655"><ele>92.0</ele><time>2026-04-11T10:15:39.776Z</time></trkpt><trkpt lat="45.3759295" lon="9.306662"><ele>92.0</ele><time>2026-04-11T10:15:40.775Z</time></trkpt><trkpt lat="45.3758236" lon="9.3067797"><ele>92.0</ele><time>2026-04-11T10:15:41.776Z</time></trkpt><trkpt lat="45.3757179" lon="9.3069055"><ele>92.0</ele><time>2026-04-11T10:15:42.776Z</time></trkpt><trkpt lat="45.3756145" lon="9.3070391"><ele>91.66666666666667</ele><time>2026-04-11T10:15:43.776Z</time></trkpt><trkpt lat="45.3755026" lon="9.3071752"><ele>91.33333333333333</ele><time>2026-04-11T10:15:44.776Z</time></trkpt><trkpt lat="45.3753796" lon="9.307314"><ele>91.0</ele><time>2026-04-11T10:15:45.776Z</time></trkpt><trkpt lat="45.3752616" lon="9.3074504"><ele>91.0</ele><time>2026-04-11T10:15:46.776Z</time></trkpt><trkpt lat="45.3751395" lon="9.3075954"><ele>91.0</ele><time>2026-04-11T10:15:47.776Z</time></trkpt><trkpt lat="45.3750146" lon="9.3077453"><ele>91.0</ele><time>2026-04-11T10:15:48.775Z</time></trkpt><trkpt lat="45.3748984" lon="9.3078783"><ele>91.0</ele><time>2026-04-11T10:15:49.776Z</time></trkpt><trkpt lat="45.3747768" lon="9.3080269"><ele>91.0</ele><time>2026-04-11T10:15:50.776Z</time></trkpt><trkpt lat="45.3746566" lon="9.3081771"><ele>91.0</ele><time>2026-04-11T10:15:51.776Z</time></trkpt><trkpt lat="45.3745291" lon="9.3083187"><ele>91.0</ele><time>2026-04-11T10:15:52.775Z</time></trkpt><trkpt lat="45.3744039" lon="9.3084652"><ele>91.0</ele><time>2026-04-11T10:15:53.776Z</time></trkpt><trkpt lat="45.3742757" lon="9.3086131"><ele>91.0</ele><time>2026-04-11T10:15:54.775Z</time></trkpt><trkpt lat="45.3741533" lon="9.3087697"><ele>91.0</ele><time>2026-04-11T10:15:55.776Z</time></trkpt><trkpt lat="45.3740238" lon="9.3089242"><ele>91.0</ele><time>2026-04-11T10:15:56.776Z</time></trkpt><trkpt lat="45.3738992" lon="9.3090802"><ele>91.0</ele><time>2026-04-11T10:15:57.776Z</time></trkpt><trkpt lat="45.373767" lon="9.3092292"><ele>91.0</ele><time>2026-04-11T10:15:58.776Z</time></trkpt><trkpt lat="45.3736332" lon="9.3093811"><ele>91.0</ele><time>2026-04-11T10:15:59.776Z</time></trkpt><trkpt lat="45.373503" lon="9.3095365"><ele>91.0</ele><time>2026-04-11T10:16:00.776Z</time></trkpt><trkpt lat="45.3733705" lon="9.3096961"><ele>91.33333333333333</ele><time>2026-04-11T10:16:01.776Z</time></trkpt><trkpt lat="45.3732433" lon="9.3098563"><ele>91.66666666666667</ele><time>2026-04-11T10:16:02.776Z</time></trkpt><trkpt lat="45.3731071" lon="9.3100162"><ele>92.0</ele><time>2026-04-11T10:16:03.775Z</time></trkpt><trkpt lat="45.3729714" lon="9.3101757"><ele>92.0</ele><time>2026-04-11T10:16:04.777Z</time></trkpt><trkpt lat="45.3728389" lon="9.3103357"><ele>92.0</ele><time>2026-04-11T10:16:05.777Z</time></trkpt><trkpt lat="45.3727022" lon="9.3104911"><ele>92.0</ele><time>2026-04-11T10:16:06.776Z</time></trkpt><trkpt lat="45.3725696" lon="9.3106552"><ele>92.0</ele><time>2026-04-11T10:16:07.777Z</time></trkpt><trkpt lat="45.3724326" lon="9.3108167"><ele>92.0</ele><time>2026-04-11T10:16:08.777Z</time></trkpt><trkpt lat="45.3722983" lon="9.3109804"><ele>92.0</ele><time>2026-04-11T10:16:09.777Z</time></trkpt><trkpt lat="45.3721615" lon="9.3111434"><ele>92.0</ele><time>2026-04-11T10:16:10.776Z</time></trkpt><trkpt lat="45.3720264" lon="9.3113079"><ele>92.0</ele><time>2026-04-11T10:16:11.777Z</time></trkpt><trkpt lat="45.3718871" lon="9.3114719"><ele>92.0</ele><time>2026-04-11T10:16:12.777Z</time></trkpt><trkpt lat="45.3717507" lon="9.3116373"><ele>91.66666666666667</ele><time>2026-04-11T10:16:13.777Z</time></trkpt><trkpt lat="45.3716147" lon="9.3117941"><ele>91.33333333333333</ele><time>2026-04-11T10:16:14.777Z</time></trkpt><trkpt lat="45.3714828" lon="9.3119561"><ele>91.0</ele><time>2026-04-11T10:16:15.777Z</time></trkpt><trkpt lat="45.3713546" lon="9.3121109"><ele>90.66666666666666</ele><time>2026-04-11T10:16:16.776Z</time></trkpt><trkpt lat="45.3712288" lon="9.3122523"><ele>90.33333333333333</ele><time>2026-04-11T10:16:17.777Z</time></trkpt><trkpt lat="45.37111" lon="9.3123963"><ele>90.0</ele><time>2026-04-11T10:16:18.777Z</time></trkpt><trkpt lat="45.3709868" lon="9.31254"><ele>90.0</ele><time>2026-04-11T10:16:19.776Z</time></trkpt><trkpt lat="45.3708628" lon="9.3126968"><ele>90.0</ele><time>2026-04-11T10:16:20.777Z</time></trkpt><trkpt lat="45.3707349" lon="9.3128549"><ele>90.0</ele><time>2026-04-11T10:16:21.777Z</time></trkpt><trkpt lat="45.3705978" lon="9.3130218"><ele>89.33333333333333</ele><time>2026-04-11T10:16:22.777Z</time></trkpt><trkpt lat="45.3704533" lon="9.3131963"><ele>88.66666666666666</ele><time>2026-04-11T10:16:23.777Z</time></trkpt><trkpt lat="45.3703013" lon="9.3133729"><ele>88.0</ele><time>2026-04-11T10:16:24.777Z</time></trkpt><trkpt lat="45.3701515" lon="9.313549"><ele>88.0</ele><time>2026-04-11T10:16:25.776Z</time></trkpt><trkpt lat="45.370007" lon="9.313722"><ele>88.0</ele><time>2026-04-11T10:16:26.777Z</time></trkpt><trkpt lat="45.3698811" lon="9.3138776"><ele>88.0</ele><time>2026-04-11T10:16:27.777Z</time></trkpt><trkpt lat="45.3697649" lon="9.3140246"><ele>88.5</ele><time>2026-04-11T10:16:28.777Z</time></trkpt><trkpt lat="45.3696364" lon="9.3141833"><ele>89.0</ele><time>2026-04-11T10:16:29.777Z</time></trkpt><trkpt lat="45.3695355" lon="9.3143204"><ele>89.5</ele><time>2026-04-11T10:16:30.777Z</time></trkpt><trkpt lat="45.3694381" lon="9.3144485"><ele>90.0</ele><time>2026-04-11T10:16:31.777Z</time></trkpt><trkpt lat="45.369335" lon="9.3145632"><ele>90.0</ele><time>2026-04-11T10:16:32.776Z</time></trkpt><trkpt lat="45.369252" lon="9.3146673"><ele>90.0</ele><time>2026-04-11T10:16:33.776Z</time></trkpt><trkpt lat="45.3691797" lon="9.3147623"><ele>90.0</ele><time>2026-04-11T10:16:34.777Z</time></trkpt><trkpt lat="45.3690966" lon="9.3148586"><ele>90.0</ele><time>2026-04-11T10:16:35.777Z</time></trkpt><trkpt lat="45.3690137" lon="9.314956"><ele>90.0</ele><time>2026-04-11T10:16:36.777Z</time></trkpt><trkpt lat="45.3689262" lon="9.3150539"><ele>90.25</ele><time>2026-04-11T10:16:37.777Z</time></trkpt><trkpt lat="45.3688358" lon="9.3151542"><ele>90.5</ele><time>2026-04-11T10:16:38.776Z</time></trkpt><trkpt lat="45.3687426" lon="9.31526"><ele>90.75</ele><time>2026-04-11T10:16:39.777Z</time></trkpt><trkpt lat="45.3686497" lon="9.3153687"><ele>91.0</ele><time>2026-04-11T10:16:40.777Z</time></trkpt><trkpt lat="45.3685565" lon="9.3154811"><ele>91.0</ele><time>2026-04-11T10:16:41.777Z</time></trkpt><trkpt lat="45.3684635" lon="9.315597"><ele>91.0</ele><time>2026-04-11T10:16:42.777Z</time></trkpt><trkpt lat="45.3683683" lon="9.3157105"><ele>91.0</ele><time>2026-04-11T10:16:43.777Z</time></trkpt><trkpt lat="45.3682725" lon="9.3158261"><ele>91.0</ele><time>2026-04-11T10:16:44.776Z</time></trkpt><trkpt lat="45.3681742" lon="9.3159423"><ele>91.0</ele><time>2026-04-11T10:16:45.777Z</time></trkpt><trkpt lat="45.3680767" lon="9.3160575"><ele>91.0</ele><time>2026-04-11T10:16:46.777Z</time></trkpt><trkpt lat="45.3679777" lon="9.3161745"><ele>91.0</ele><time>2026-04-11T10:16:47.777Z</time></trkpt><trkpt lat="45.3678786" lon="9.3162938"><ele>91.0</ele><time>2026-04-11T10:16:48.777Z</time></trkpt><trkpt lat="45.3677805" lon="9.316413"><ele>90.75</ele><time>2026-04-11T10:16:49.777Z</time></trkpt><trkpt lat="45.3676831" lon="9.31653"><ele>90.5</ele><time>2026-04-11T10:16:50.777Z</time></trkpt><trkpt lat="45.3675815" lon="9.3166523"><ele>90.25</ele><time>2026-04-11T10:16:51.777Z</time></trkpt><trkpt lat="45.3674772" lon="9.316777"><ele>90.0</ele><time>2026-04-11T10:16:52.777Z</time></trkpt><trkpt lat="45.3673689" lon="9.3169032"><ele>90.0</ele><time>2026-04-11T10:16:53.777Z</time></trkpt><trkpt lat="45.3672609" lon="9.3170332"><ele>90.0</ele><time>2026-04-11T10:16:54.778Z</time></trkpt><trkpt lat="45.3671593" lon="9.3171615"><ele>90.0</ele><time>2026-04-11T10:16:55.778Z</time></trkpt><trkpt lat="45.3670565" lon="9.3172898"><ele>90.0</ele><time>2026-04-11T10:16:56.778Z</time></trkpt><trkpt lat="45.3669517" lon="9.3174143"><ele>89.75</ele><time>2026-04-11T10:16:57.778Z</time></trkpt><trkpt lat="45.366844" lon="9.3175366"><ele>89.5</ele><time>2026-04-11T10:16:58.778Z</time></trkpt><trkpt lat="45.3667423" lon="9.3176586"><ele>89.25</ele><time>2026-04-11T10:16:59.778Z</time></trkpt><trkpt lat="45.3666437" lon="9.3177803"><ele>89.0</ele><time>2026-04-11T10:17:00.778Z</time></trkpt><trkpt lat="45.366558" lon="9.3178853"><ele>89.0</ele><time>2026-04-11T10:17:01.778Z</time></trkpt><trkpt lat="45.3664804" lon="9.3179799"><ele>89.0</ele><time>2026-04-11T10:17:02.778Z</time></trkpt><trkpt lat="45.3664061" lon="9.3180688"><ele>89.0</ele><time>2026-04-11T10:17:03.778Z</time></trkpt><trkpt lat="45.3663404" lon="9.3181472"><ele>89.0</ele><time>2026-04-11T10:17:04.778Z</time></trkpt><trkpt lat="45.3662722" lon="9.3182226"><ele>89.0</ele><time>2026-04-11T10:17:05.778Z</time></trkpt><trkpt lat="45.3662001" lon="9.3183049"><ele>88.66666666666667</ele><time>2026-04-11T10:17:06.778Z</time></trkpt><trkpt lat="45.3661271" lon="9.3183902"><ele>88.33333333333334</ele><time>2026-04-11T10:17:07.778Z</time></trkpt><trkpt lat="45.36606" lon="9.3184699"><ele>88.0</ele><time>2026-04-11T10:17:08.778Z</time></trkpt><trkpt lat="45.3659924" lon="9.3185494"><ele>87.66666666666667</ele><time>2026-04-11T10:17:09.778Z</time></trkpt><trkpt lat="45.365926" lon="9.3186323"><ele>87.33333333333333</ele><time>2026-04-11T10:17:10.777Z</time></trkpt><trkpt lat="45.365859" lon="9.3187107"><ele>87.0</ele><time>2026-04-11T10:17:11.778Z</time></trkpt><trkpt lat="45.3657931" lon="9.318785"><ele>87.0</ele><time>2026-04-11T10:17:12.777Z</time></trkpt><trkpt lat="45.3657316" lon="9.3188554"><ele>87.0</ele><time>2026-04-11T10:17:13.778Z</time></trkpt><trkpt lat="45.365671" lon="9.3189223"><ele>87.0</ele><time>2026-04-11T10:17:14.778Z</time></trkpt><trkpt lat="45.3656158" lon="9.3189773"><ele>87.0</ele><time>2026-04-11T10:17:15.778Z</time></trkpt><trkpt lat="45.3655561" lon="9.3190312"><ele>87.0</ele><time>2026-04-11T10:17:16.778Z</time></trkpt><trkpt lat="45.3654894" lon="9.3190787"><ele>87.0</ele><time>2026-04-11T10:17:17.778Z</time></trkpt><trkpt lat="45.3654157" lon="9.3191224"><ele>87.0</ele><time>2026-04-11T10:17:18.778Z</time></trkpt><trkpt lat="45.3653482" lon="9.3191582"><ele>87.6</ele><time>2026-04-11T10:17:19.777Z</time></trkpt><trkpt lat="45.3652278" lon="9.3191978"><ele>88.19999999999999</ele><time>2026-04-11T10:17:21.778Z</time></trkpt><trkpt lat="45.3651065" lon="9.3191907"><ele>88.8</ele><time>2026-04-11T10:17:23.778Z</time></trkpt><trkpt lat="45.3650346" lon="9.3191755"><ele>89.4</ele><time>2026-04-11T10:17:24.778Z</time></trkpt><trkpt lat="45.3649553" lon="9.3191796"><ele>90.0</ele><time>2026-04-11T10:17:25.778Z</time></trkpt><trkpt lat="45.3648717" lon="9.3192081"><ele>90.0</ele><time>2026-04-11T10:17:26.777Z</time></trkpt><trkpt lat="45.3647965" lon="9.3192618"><ele>90.0</ele><time>2026-04-11T10:17:27.778Z</time></trkpt><trkpt lat="45.3647285" lon="9.3193516"><ele>90.0</ele><time>2026-04-11T10:17:28.778Z</time></trkpt><trkpt lat="45.3646806" lon="9.3194664"><ele>90.0</ele><time>2026-04-11T10:17:29.778Z</time></trkpt><trkpt lat="45.3646509" lon="9.3195962"><ele>90.0</ele><time>2026-04-11T10:17:30.778Z</time></trkpt><trkpt lat="45.3646415" lon="9.3197356"><ele>90.2</ele><time>2026-04-11T10:17:31.778Z</time></trkpt><trkpt lat="45.3646352" lon="9.3198792"><ele>90.4</ele><time>2026-04-11T10:17:32.778Z</time></trkpt><trkpt lat="45.3646205" lon="9.3200153"><ele>90.6</ele><time>2026-04-11T10:17:33.778Z</time></trkpt><trkpt lat="45.3645923" lon="9.3201393"><ele>90.8</ele><time>2026-04-11T10:17:34.778Z</time></trkpt><trkpt lat="45.3645662" lon="9.3202664"><ele>91.0</ele><time>2026-04-11T10:17:35.778Z</time></trkpt><trkpt lat="45.3645361" lon="9.3203887"><ele>91.0</ele><time>2026-04-11T10:17:36.778Z</time></trkpt><trkpt lat="45.3645143" lon="9.3205084"><ele>91.0</ele><time>2026-04-11T10:17:37.778Z</time></trkpt><trkpt lat="45.364508" lon="9.3206414"><ele>91.0</ele><time>2026-04-11T10:17:38.778Z</time></trkpt><trkpt lat="45.3645117" lon="9.3207736"><ele>91.0</ele><time>2026-04-11T10:17:39.778Z</time></trkpt><trkpt lat="45.3645178" lon="9.3208888"><ele>91.0</ele><time>2026-04-11T10:17:40.777Z</time></trkpt><trkpt lat="45.3645176" lon="9.3210056"><ele>91.0</ele><time>2026-04-11T10:17:41.778Z</time></trkpt><trkpt lat="45.3644835" lon="9.3211508"><ele>91.0</ele><time>2026-04-11T10:17:43.778Z</time></trkpt><trkpt lat="45.3644426" lon="9.3212354"><ele>91.0</ele><time>2026-04-11T10:17:45.779Z</time></trkpt><trkpt lat="45.3644359" lon="9.3213252"><ele>91.0</ele><time>2026-04-11T10:17:49.779Z</time></trkpt><trkpt lat="45.3644365" lon="9.321416"><ele>91.0</ele><time>2026-04-11T10:19:58.781Z</time></trkpt><trkpt lat="45.3645076" lon="9.3214497"><ele>91.0</ele><time>2026-04-11T10:20:21.781Z</time></trkpt><trkpt lat="45.3645739" lon="9.3213276"><ele>91.0</ele><time>2026-04-11T10:20:23.781Z</time></trkpt><trkpt lat="45.3646329" lon="9.3211726"><ele>91.0</ele><time>2026-04-11T10:20:25.781Z</time></trkpt><trkpt lat="45.3646702" lon="9.3210943"><ele>91.0</ele><time>2026-04-11T10:20:26.782Z</time></trkpt><trkpt lat="45.3647022" lon="9.3210041"><ele>91.0</ele><time>2026-04-11T10:20:27.782Z</time></trkpt><trkpt lat="45.364729" lon="9.3208995"><ele>91.0</ele><time>2026-04-11T10:20:28.782Z</time></trkpt><trkpt lat="45.3647541" lon="9.3207991"><ele>91.0</ele><time>2026-04-11T10:20:29.782Z</time></trkpt><trkpt lat="45.3647758" lon="9.3207088"><ele>91.0</ele><time>2026-04-11T10:20:30.782Z</time></trkpt><trkpt lat="45.3648013" lon="9.320556"><ele>90.83333333333333</ele><time>2026-04-11T10:20:32.781Z</time></trkpt><trkpt lat="45.3648365" lon="9.3204378"><ele>90.66666666666666</ele><time>2026-04-11T10:20:34.782Z</time></trkpt><trkpt lat="45.3648673" lon="9.3203552"><ele>90.5</ele><time>2026-04-11T10:20:36.782Z</time></trkpt><trkpt lat="45.3649145" lon="9.3202841"><ele>90.33333333333333</ele><time>2026-04-11T10:20:39.782Z</time></trkpt><trkpt lat="45.3649785" lon="9.3202476"><ele>90.16666666666667</ele><time>2026-04-11T10:20:48.782Z</time></trkpt><trkpt lat="45.3650525" lon="9.32022"><ele>90.0</ele><time>2026-04-11T10:20:49.782Z</time></trkpt><trkpt lat="45.3651344" lon="9.3201691"><ele>90.0</ele><time>2026-04-11T10:20:50.782Z</time></trkpt><trkpt lat="45.3652094" lon="9.3201026"><ele>90.0</ele><time>2026-04-11T10:20:51.782Z</time></trkpt><trkpt lat="45.3652794" lon="9.3200057"><ele>90.0</ele><time>2026-04-11T10:20:52.782Z</time></trkpt><trkpt lat="45.365328" lon="9.3198953"><ele>90.0</ele><time>2026-04-11T10:20:53.782Z</time></trkpt><trkpt lat="45.365354" lon="9.3198022"><ele>90.0</ele><time>2026-04-11T10:20:54.782Z</time></trkpt><trkpt lat="45.3653646" lon="9.3196992"><ele>90.0</ele><time>2026-04-11T10:20:55.782Z</time></trkpt><trkpt lat="45.3653641" lon="9.3195982"><ele>90.0</ele><time>2026-04-11T10:20:56.782Z</time></trkpt><trkpt lat="45.3653724" lon="9.3194852"><ele>90.0</ele><time>2026-04-11T10:20:57.782Z</time></trkpt><trkpt lat="45.3654064" lon="9.319383"><ele>90.0</ele><time>2026-04-11T10:20:58.782Z</time></trkpt><trkpt lat="45.3654555" lon="9.3192822"><ele>90.0</ele><time>2026-04-11T10:20:59.782Z</time></trkpt><trkpt lat="45.3655205" lon="9.3191885"><ele>90.0</ele><time>2026-04-11T10:21:00.782Z</time></trkpt><trkpt lat="45.3655954" lon="9.3190989"><ele>90.0</ele><time>2026-04-11T10:21:01.782Z</time></trkpt><trkpt lat="45.3656734" lon="9.3190038"><ele>89.25</ele><time>2026-04-11T10:21:02.781Z</time></trkpt><trkpt lat="45.3657568" lon="9.3188994"><ele>88.5</ele><time>2026-04-11T10:21:03.781Z</time></trkpt><trkpt lat="45.3658466" lon="9.3187875"><ele>87.75</ele><time>2026-04-11T10:21:04.782Z</time></trkpt><trkpt lat="45.3659445" lon="9.3186729"><ele>87.0</ele><time>2026-04-11T10:21:05.781Z</time></trkpt><trkpt lat="45.3660483" lon="9.3185482"><ele>87.0</ele><time>2026-04-11T10:21:06.782Z</time></trkpt><trkpt lat="45.3661616" lon="9.3184109"><ele>87.0</ele><time>2026-04-11T10:21:07.781Z</time></trkpt><trkpt lat="45.3662833" lon="9.3182698"><ele>87.0</ele><time>2026-04-11T10:21:08.782Z</time></trkpt><trkpt lat="45.366403" lon="9.318124"><ele>87.66666666666667</ele><time>2026-04-11T10:21:09.782Z</time></trkpt><trkpt lat="45.3665246" lon="9.3179743"><ele>88.33333333333334</ele><time>2026-04-11T10:21:10.782Z</time></trkpt><trkpt lat="45.3666491" lon="9.3178161"><ele>89.0</ele><time>2026-04-11T10:21:11.782Z</time></trkpt><trkpt lat="45.3667747" lon="9.3176581"><ele>89.0</ele><time>2026-04-11T10:21:12.782Z</time></trkpt><trkpt lat="45.3669033" lon="9.3175029"><ele>89.0</ele><time>2026-04-11T10:21:13.782Z</time></trkpt><trkpt lat="45.367028" lon="9.3173514"><ele>89.0</ele><time>2026-04-11T10:21:14.782Z</time></trkpt><trkpt lat="45.3671527" lon="9.317204"><ele>89.33333333333334</ele><time>2026-04-11T10:21:15.782Z</time></trkpt><trkpt lat="45.3672745" lon="9.317054"><ele>89.66666666666667</ele><time>2026-04-11T10:21:16.782Z</time></trkpt><trkpt lat="45.3673961" lon="9.3169105"><ele>90.0</ele><time>2026-04-11T10:21:17.783Z</time></trkpt><trkpt lat="45.3675157" lon="9.3167689"><ele>90.0</ele><time>2026-04-11T10:21:18.783Z</time></trkpt><trkpt lat="45.3676375" lon="9.3166249"><ele>90.0</ele><time>2026-04-11T10:21:19.782Z</time></trkpt><trkpt lat="45.3677602" lon="9.3164841"><ele>90.0</ele><time>2026-04-11T10:21:20.782Z</time></trkpt><trkpt lat="45.3678814" lon="9.3163383"><ele>89.66666666666667</ele><time>2026-04-11T10:21:21.783Z</time></trkpt><trkpt lat="45.3679984" lon="9.3161931"><ele>89.33333333333334</ele><time>2026-04-11T10:21:22.782Z</time></trkpt><trkpt lat="45.3681144" lon="9.316051"><ele>89.0</ele><time>2026-04-11T10:21:23.783Z</time></trkpt><trkpt lat="45.368226" lon="9.3159105"><ele>89.66666666666667</ele><time>2026-04-11T10:21:24.783Z</time></trkpt><trkpt lat="45.3683449" lon="9.3157754"><ele>90.33333333333333</ele><time>2026-04-11T10:21:25.783Z</time></trkpt><trkpt lat="45.3684663" lon="9.3156381"><ele>91.0</ele><time>2026-04-11T10:21:26.783Z</time></trkpt><trkpt lat="45.3685919" lon="9.3154966"><ele>91.0</ele><time>2026-04-11T10:21:27.783Z</time></trkpt><trkpt lat="45.3687142" lon="9.315357"><ele>91.0</ele><time>2026-04-11T10:21:28.783Z</time></trkpt><trkpt lat="45.3688382" lon="9.3152107"><ele>91.0</ele><time>2026-04-11T10:21:29.783Z</time></trkpt><trkpt lat="45.3689599" lon="9.3150599"><ele>90.66666666666666</ele><time>2026-04-11T10:21:30.782Z</time></trkpt><trkpt lat="45.3690881" lon="9.3149066"><ele>90.33333333333333</ele><time>2026-04-11T10:21:31.783Z</time></trkpt><trkpt lat="45.369221" lon="9.3147358"><ele>90.0</ele><time>2026-04-11T10:21:32.782Z</time></trkpt><trkpt lat="45.3693616" lon="9.3145713"><ele>90.0</ele><time>2026-04-11T10:21:33.783Z</time></trkpt><trkpt lat="45.3695061" lon="9.3143971"><ele>90.0</ele><time>2026-04-11T10:21:34.782Z</time></trkpt><trkpt lat="45.3696527" lon="9.3142192"><ele>90.0</ele><time>2026-04-11T10:21:35.783Z</time></trkpt><trkpt lat="45.3698049" lon="9.3140346"><ele>89.33333333333333</ele><time>2026-04-11T10:21:36.783Z</time></trkpt><trkpt lat="45.3699522" lon="9.3138556"><ele>88.66666666666666</ele><time>2026-04-11T10:21:37.783Z</time></trkpt><trkpt lat="45.370104" lon="9.3136737"><ele>88.0</ele><time>2026-04-11T10:21:38.783Z</time></trkpt><trkpt lat="45.3702567" lon="9.3134916"><ele>88.0</ele><time>2026-04-11T10:21:39.783Z</time></trkpt><trkpt lat="45.3704091" lon="9.3133054"><ele>88.0</ele><time>2026-04-11T10:21:40.783Z</time></trkpt><trkpt lat="45.3705608" lon="9.3131255"><ele>88.0</ele><time>2026-04-11T10:21:41.783Z</time></trkpt><trkpt lat="45.3707128" lon="9.3129432"><ele>88.66666666666666</ele><time>2026-04-11T10:21:42.783Z</time></trkpt><trkpt lat="45.3708646" lon="9.3127617"><ele>89.33333333333333</ele><time>2026-04-11T10:21:43.783Z</time></trkpt><trkpt lat="45.371008" lon="9.3125888"><ele>90.0</ele><time>2026-04-11T10:21:44.783Z</time></trkpt><trkpt lat="45.3711479" lon="9.3124271"><ele>90.0</ele><time>2026-04-11T10:21:45.783Z</time></trkpt><trkpt lat="45.3712823" lon="9.3122688"><ele>90.0</ele><time>2026-04-11T10:21:46.783Z</time></trkpt><trkpt lat="45.3714056" lon="9.3121213"><ele>90.0</ele><time>2026-04-11T10:21:47.783Z</time></trkpt><trkpt lat="45.3715212" lon="9.3119861"><ele>89.75</ele><time>2026-04-11T10:21:48.783Z</time></trkpt><trkpt lat="45.3716291" lon="9.311859"><ele>89.5</ele><time>2026-04-11T10:21:49.783Z</time></trkpt><trkpt lat="45.371736" lon="9.311729"><ele>89.25</ele><time>2026-04-11T10:21:50.783Z</time></trkpt><trkpt lat="45.3718471" lon="9.3115924"><ele>89.0</ele><time>2026-04-11T10:21:51.783Z</time></trkpt><trkpt lat="45.3719643" lon="9.3114518"><ele>90.0</ele><time>2026-04-11T10:21:52.782Z</time></trkpt><trkpt lat="45.3720832" lon="9.3113059"><ele>91.0</ele><time>2026-04-11T10:21:53.783Z</time></trkpt><trkpt lat="45.3722043" lon="9.3111558"><ele>92.0</ele><time>2026-04-11T10:21:54.783Z</time></trkpt><trkpt lat="45.3723326" lon="9.3110026"><ele>92.0</ele><time>2026-04-11T10:21:55.782Z</time></trkpt><trkpt lat="45.3724659" lon="9.3108498"><ele>92.0</ele><time>2026-04-11T10:21:56.783Z</time></trkpt><trkpt lat="45.3726017" lon="9.3106881"><ele>92.0</ele><time>2026-04-11T10:21:57.783Z</time></trkpt><trkpt lat="45.37274" lon="9.3105222"><ele>92.0</ele><time>2026-04-11T10:21:58.783Z</time></trkpt><trkpt lat="45.3728773" lon="9.3103584"><ele>92.0</ele><time>2026-04-11T10:21:59.783Z</time></trkpt><trkpt lat="45.3730125" lon="9.3101936"><ele>92.0</ele><time>2026-04-11T10:22:00.783Z</time></trkpt><trkpt lat="45.3731469" lon="9.310027"><ele>92.0</ele><time>2026-04-11T10:22:01.783Z</time></trkpt><trkpt lat="45.373278" lon="9.309868"><ele>92.0</ele><time>2026-04-11T10:22:02.783Z</time></trkpt><trkpt lat="45.3734074" lon="9.3097109"><ele>92.0</ele><time>2026-04-11T10:22:03.783Z</time></trkpt><trkpt lat="45.373536" lon="9.3095574"><ele>91.66666666666667</ele><time>2026-04-11T10:22:04.782Z</time></trkpt><trkpt lat="45.3736648" lon="9.3094061"><ele>91.33333333333333</ele><time>2026-04-11T10:22:05.783Z</time></trkpt><trkpt lat="45.3737908" lon="9.309254"><ele>91.0</ele><time>2026-04-11T10:22:06.782Z</time></trkpt><trkpt lat="45.3739158" lon="9.3091017"><ele>91.0</ele><time>2026-04-11T10:22:07.783Z</time></trkpt><trkpt lat="45.3740408" lon="9.3089523"><ele>91.0</ele><time>2026-04-11T10:22:08.784Z</time></trkpt><trkpt lat="45.3741657" lon="9.308802"><ele>91.0</ele><time>2026-04-11T10:22:09.784Z</time></trkpt><trkpt lat="45.3742906" lon="9.3086527"><ele>91.0</ele><time>2026-04-11T10:22:10.784Z</time></trkpt><trkpt lat="45.3744152" lon="9.3085086"><ele>91.0</ele><time>2026-04-11T10:22:11.784Z</time></trkpt><trkpt lat="45.37453" lon="9.3083722"><ele>91.0</ele><time>2026-04-11T10:22:12.784Z</time></trkpt><trkpt lat="45.3746413" lon="9.3082417"><ele>91.0</ele><time>2026-04-11T10:22:13.784Z</time></trkpt><trkpt lat="45.3747542" lon="9.3081043"><ele>91.0</ele><time>2026-04-11T10:22:14.783Z</time></trkpt><trkpt lat="45.3748729" lon="9.3079654"><ele>91.0</ele><time>2026-04-11T10:22:15.784Z</time></trkpt><trkpt lat="45.3749931" lon="9.307825"><ele>91.0</ele><time>2026-04-11T10:22:16.784Z</time></trkpt><trkpt lat="45.3751143" lon="9.3076776"><ele>91.0</ele><time>2026-04-11T10:22:17.783Z</time></trkpt><trkpt lat="45.3752388" lon="9.3075278"><ele>91.0</ele><time>2026-04-11T10:22:18.784Z</time></trkpt><trkpt lat="45.3753651" lon="9.3073743"><ele>91.0</ele><time>2026-04-11T10:22:19.784Z</time></trkpt><trkpt lat="45.3754977" lon="9.3072116"><ele>91.0</ele><time>2026-04-11T10:22:20.783Z</time></trkpt><trkpt lat="45.3756394" lon="9.3070322"><ele>91.0</ele><time>2026-04-11T10:22:21.784Z</time></trkpt><trkpt lat="45.3757868" lon="9.3068603"><ele>91.33333333333333</ele><time>2026-04-11T10:22:22.784Z</time></trkpt><trkpt lat="45.3759243" lon="9.3067062"><ele>91.66666666666667</ele><time>2026-04-11T10:22:23.784Z</time></trkpt><trkpt lat="45.3760494" lon="9.3065553"><ele>92.0</ele><time>2026-04-11T10:22:24.783Z</time></trkpt><trkpt lat="45.3761709" lon="9.3064125"><ele>92.0</ele><time>2026-04-11T10:22:25.784Z</time></trkpt><trkpt lat="45.3762898" lon="9.3062703"><ele>92.0</ele><time>2026-04-11T10:22:26.784Z</time></trkpt><trkpt lat="45.3764192" lon="9.3061174"><ele>92.0</ele><time>2026-04-11T10:22:27.784Z</time></trkpt><trkpt lat="45.3765542" lon="9.3059527"><ele>92.0</ele><time>2026-04-11T10:22:28.784Z</time></trkpt><trkpt lat="45.3766826" lon="9.3057942"><ele>92.0</ele><time>2026-04-11T10:22:29.784Z</time></trkpt><trkpt lat="45.3768002" lon="9.3056606"><ele>92.0</ele><time>2026-04-11T10:22:30.784Z</time></trkpt><trkpt lat="45.3769068" lon="9.3055381"><ele>91.8</ele><time>2026-04-11T10:22:31.784Z</time></trkpt><trkpt lat="45.3770044" lon="9.3054282"><ele>91.6</ele><time>2026-04-11T10:22:32.784Z</time></trkpt><trkpt lat="45.3770954" lon="9.305323"><ele>91.39999999999999</ele><time>2026-04-11T10:22:33.784Z</time></trkpt><trkpt lat="45.3771792" lon="9.3052297"><ele>91.19999999999999</ele><time>2026-04-11T10:22:34.784Z</time></trkpt><trkpt lat="45.3772462" lon="9.3051428"><ele>91.0</ele><time>2026-04-11T10:22:35.784Z</time></trkpt><trkpt lat="45.3773092" lon="9.3050712"><ele>91.33333333333333</ele><time>2026-04-11T10:22:36.784Z</time></trkpt><trkpt lat="45.3773741" lon="9.3050192"><ele>91.66666666666666</ele><time>2026-04-11T10:22:37.784Z</time></trkpt><trkpt lat="45.3774475" lon="9.3049849"><ele>92.0</ele><time>2026-04-11T10:22:38.784Z</time></trkpt><trkpt lat="45.3775271" lon="9.3049731"><ele>92.33333333333333</ele><time>2026-04-11T10:22:39.784Z</time></trkpt><trkpt lat="45.3776145" lon="9.3049625"><ele>92.66666666666667</ele><time>2026-04-11T10:22:40.784Z</time></trkpt><trkpt lat="45.3777066" lon="9.3049208"><ele>93.0</ele><time>2026-04-11T10:22:41.784Z</time></trkpt><trkpt lat="45.3777825" lon="9.3048319"><ele>93.0</ele><time>2026-04-11T10:22:42.784Z</time></trkpt><trkpt lat="45.3778536" lon="9.3047255"><ele>93.0</ele><time>2026-04-11T10:22:43.784Z</time></trkpt><trkpt lat="45.3779043" lon="9.3046017"><ele>93.0</ele><time>2026-04-11T10:22:44.783Z</time></trkpt><trkpt lat="45.3779395" lon="9.3044589"><ele>93.0</ele><time>2026-04-11T10:22:45.784Z</time></trkpt><trkpt lat="45.3779822" lon="9.3043205"><ele>93.0</ele><time>2026-04-11T10:22:46.784Z</time></trkpt><trkpt lat="45.3780501" lon="9.3042039"><ele>93.0</ele><time>2026-04-11T10:22:47.784Z</time></trkpt><trkpt lat="45.3781436" lon="9.3040869"><ele>93.0</ele><time>2026-04-11T10:22:48.784Z</time></trkpt><trkpt lat="45.3782511" lon="9.3039394"><ele>93.0</ele><time>2026-04-11T10:22:49.783Z</time></trkpt><trkpt lat="45.3783844" lon="9.3037659"><ele>93.0</ele><time>2026-04-11T10:22:50.783Z</time></trkpt><trkpt lat="45.3785368" lon="9.3036029"><ele>93.0</ele><time>2026-04-11T10:22:51.783Z</time></trkpt><trkpt lat="45.37868" lon="9.3034516"><ele>93.0</ele><time>2026-04-11T10:22:52.783Z</time></trkpt><trkpt lat="45.3788016" lon="9.3033073"><ele>93.25</ele><time>2026-04-11T10:22:53.784Z</time></trkpt><trkpt lat="45.3789132" lon="9.3031678"><ele>93.5</ele><time>2026-04-11T10:22:54.784Z</time></trkpt><trkpt lat="45.3790194" lon="9.303042"><ele>93.75</ele><time>2026-04-11T10:22:55.784Z</time></trkpt><trkpt lat="45.3791222" lon="9.3029228"><ele>94.0</ele><time>2026-04-11T10:22:56.784Z</time></trkpt><trkpt lat="45.3792272" lon="9.3028044"><ele>94.0</ele><time>2026-04-11T10:22:57.785Z</time></trkpt><trkpt lat="45.3793344" lon="9.3026854"><ele>94.0</ele><time>2026-04-11T10:22:58.785Z</time></trkpt><trkpt lat="45.379444" lon="9.3025619"><ele>94.0</ele><time>2026-04-11T10:22:59.785Z</time></trkpt><trkpt lat="45.3795574" lon="9.3024309"><ele>94.0</ele><time>2026-04-11T10:23:00.785Z</time></trkpt><trkpt lat="45.3796625" lon="9.3022642"><ele>93.75</ele><time>2026-04-11T10:23:01.785Z</time></trkpt><trkpt lat="45.3797871" lon="9.3021182"><ele>93.5</ele><time>2026-04-11T10:23:02.785Z</time></trkpt><trkpt lat="45.3799001" lon="9.3019807"><ele>93.25</ele><time>2026-04-11T10:23:03.785Z</time></trkpt><trkpt lat="45.3800058" lon="9.3018561"><ele>93.0</ele><time>2026-04-11T10:23:04.785Z</time></trkpt><trkpt lat="45.3800999" lon="9.3017443"><ele>93.0</ele><time>2026-04-11T10:23:05.785Z</time></trkpt><trkpt lat="45.3801908" lon="9.3016497"><ele>93.0</ele><time>2026-04-11T10:23:06.785Z</time></trkpt><trkpt lat="45.3802742" lon="9.301561"><ele>93.0</ele><time>2026-04-11T10:23:07.784Z</time></trkpt><trkpt lat="45.3803494" lon="9.3014802"><ele>93.0</ele><time>2026-04-11T10:23:08.785Z</time></trkpt><trkpt lat="45.3804098" lon="9.301416"><ele>93.0</ele><time>2026-04-11T10:23:09.785Z</time></trkpt><trkpt lat="45.3804949" lon="9.3013379"><ele>93.0</ele><time>2026-04-11T10:23:11.785Z</time></trkpt><trkpt lat="45.3805592" lon="9.301305"><ele>93.0</ele><time>2026-04-11T10:23:13.785Z</time></trkpt><trkpt lat="45.3806356" lon="9.3012911"><ele>93.0</ele><time>2026-04-11T10:23:16.785Z</time></trkpt><trkpt lat="45.3807103" lon="9.3013144"><ele>93.0</ele><time>2026-04-11T10:23:18.784Z</time></trkpt><trkpt lat="45.3808379" lon="9.3013301"><ele>93.0</ele><time>2026-04-11T10:23:20.785Z</time></trkpt><trkpt lat="45.3809083" lon="9.3013177"><ele>93.0</ele><time>2026-04-11T10:23:21.785Z</time></trkpt><trkpt lat="45.3809845" lon="9.3012824"><ele>93.0</ele><time>2026-04-11T10:23:22.785Z</time></trkpt><trkpt lat="45.3810548" lon="9.3012177"><ele>93.0</ele><time>2026-04-11T10:23:23.785Z</time></trkpt><trkpt lat="45.3811163" lon="9.3011255"><ele>93.0</ele><time>2026-04-11T10:23:24.785Z</time></trkpt><trkpt lat="45.3811607" lon="9.3010111"><ele>93.0</ele><time>2026-04-11T10:23:25.785Z</time></trkpt><trkpt lat="45.3811879" lon="9.3008769"><ele>93.0</ele><time>2026-04-11T10:23:26.785Z</time></trkpt><trkpt lat="45.3811958" lon="9.3007379"><ele>93.0</ele><time>2026-04-11T10:23:27.785Z</time></trkpt><trkpt lat="45.3812014" lon="9.3006075"><ele>93.0</ele><time>2026-04-11T10:23:28.785Z</time></trkpt><trkpt lat="45.3812305" lon="9.30048"><ele>93.0</ele><time>2026-04-11T10:23:29.785Z</time></trkpt><trkpt lat="45.3812918" lon="9.3003572"><ele>93.0</ele><time>2026-04-11T10:23:30.785Z</time></trkpt><trkpt lat="45.3813763" lon="9.3002368"><ele>93.0</ele><time>2026-04-11T10:23:31.784Z</time></trkpt><trkpt lat="45.3814566" lon="9.3001251"><ele>93.25</ele><time>2026-04-11T10:23:32.785Z</time></trkpt><trkpt lat="45.3815514" lon="9.300004"><ele>93.5</ele><time>2026-04-11T10:23:33.785Z</time></trkpt><trkpt lat="45.3816545" lon="9.299874"><ele>93.75</ele><time>2026-04-11T10:23:34.785Z</time></trkpt><trkpt lat="45.3817629" lon="9.2997445"><ele>94.0</ele><time>2026-04-11T10:23:35.784Z</time></trkpt><trkpt lat="45.3818697" lon="9.2996184"><ele>94.0</ele><time>2026-04-11T10:23:36.785Z</time></trkpt><trkpt lat="45.3819698" lon="9.2995019"><ele>94.0</ele><time>2026-04-11T10:23:37.784Z</time></trkpt><trkpt lat="45.3820641" lon="9.2993882"><ele>94.0</ele><time>2026-04-11T10:23:38.785Z</time></trkpt><trkpt lat="45.3821626" lon="9.2992702"><ele>94.0</ele><time>2026-04-11T10:23:39.785Z</time></trkpt><trkpt lat="45.3822629" lon="9.299153"><ele>93.75</ele><time>2026-04-11T10:23:40.785Z</time></trkpt><trkpt lat="45.3823654" lon="9.2990315"><ele>93.5</ele><time>2026-04-11T10:23:41.785Z</time></trkpt><trkpt lat="45.3824672" lon="9.2989038"><ele>93.25</ele><time>2026-04-11T10:23:42.785Z</time></trkpt><trkpt lat="45.3825735" lon="9.298777"><ele>93.0</ele><time>2026-04-11T10:23:43.785Z</time></trkpt><trkpt lat="45.3826815" lon="9.29865"><ele>93.0</ele><time>2026-04-11T10:23:44.785Z</time></trkpt><trkpt lat="45.3827872" lon="9.2985214"><ele>93.0</ele><time>2026-04-11T10:23:45.785Z</time></trkpt><trkpt lat="45.3828818" lon="9.2984022"><ele>93.0</ele><time>2026-04-11T10:23:46.785Z</time></trkpt><trkpt lat="45.3829751" lon="9.2982846"><ele>93.0</ele><time>2026-04-11T10:23:47.785Z</time></trkpt><trkpt lat="45.3830794" lon="9.298154"><ele>93.0</ele><time>2026-04-11T10:23:48.785Z</time></trkpt><trkpt lat="45.3831982" lon="9.2980226"><ele>93.0</ele><time>2026-04-11T10:23:49.786Z</time></trkpt><trkpt lat="45.3833314" lon="9.2978902"><ele>93.0</ele><time>2026-04-11T10:23:50.786Z</time></trkpt><trkpt lat="45.3834601" lon="9.2977246"><ele>93.0</ele><time>2026-04-11T10:23:51.786Z</time></trkpt><trkpt lat="45.3836009" lon="9.2975558"><ele>93.0</ele><time>2026-04-11T10:23:52.786Z</time></trkpt><trkpt lat="45.3837479" lon="9.2973776"><ele>93.0</ele><time>2026-04-11T10:23:53.786Z</time></trkpt><trkpt lat="45.3839203" lon="9.2971793"><ele>93.0</ele><time>2026-04-11T10:23:54.786Z</time></trkpt><trkpt lat="45.3841127" lon="9.2969389"><ele>93.0</ele><time>2026-04-11T10:23:55.786Z</time></trkpt><trkpt lat="45.3843217" lon="9.2966903"><ele>93.0</ele><time>2026-04-11T10:23:56.785Z</time></trkpt><trkpt lat="45.3845376" lon="9.296472"><ele>93.0</ele><time>2026-04-11T10:23:57.786Z</time></trkpt><trkpt lat="45.3847203" lon="9.2962518"><ele>92.33333333333333</ele><time>2026-04-11T10:23:58.786Z</time></trkpt><trkpt lat="45.3848915" lon="9.2960485"><ele>91.66666666666666</ele><time>2026-04-11T10:23:59.786Z</time></trkpt><trkpt lat="45.3850537" lon="9.2958605"><ele>91.0</ele><time>2026-04-11T10:24:00.786Z</time></trkpt><trkpt lat="45.3852065" lon="9.2956769"><ele>91.33333333333333</ele><time>2026-04-11T10:24:01.785Z</time></trkpt><trkpt lat="45.385356" lon="9.2954952"><ele>91.66666666666667</ele><time>2026-04-11T10:24:02.786Z</time></trkpt><trkpt lat="45.385506" lon="9.2953195"><ele>92.0</ele><time>2026-04-11T10:24:03.786Z</time></trkpt><trkpt lat="45.385652" lon="9.2951428"><ele>92.0</ele><time>2026-04-11T10:24:04.785Z</time></trkpt><trkpt lat="45.3857985" lon="9.294966"><ele>92.0</ele><time>2026-04-11T10:24:05.785Z</time></trkpt><trkpt lat="45.3859467" lon="9.2947894"><ele>92.0</ele><time>2026-04-11T10:24:06.786Z</time></trkpt><trkpt lat="45.3860928" lon="9.2946124"><ele>92.66666666666667</ele><time>2026-04-11T10:24:07.785Z</time></trkpt><trkpt lat="45.3862372" lon="9.2944356"><ele>93.33333333333333</ele><time>2026-04-11T10:24:08.786Z</time></trkpt><trkpt lat="45.3863828" lon="9.2942651"><ele>94.0</ele><time>2026-04-11T10:24:09.785Z</time></trkpt><trkpt lat="45.3865239" lon="9.2940956"><ele>94.0</ele><time>2026-04-11T10:24:10.785Z</time></trkpt><trkpt lat="45.3866634" lon="9.2939305"><ele>94.0</ele><time>2026-04-11T10:24:11.786Z</time></trkpt><trkpt lat="45.3867968" lon="9.2937682"><ele>94.0</ele><time>2026-04-11T10:24:12.786Z</time></trkpt><trkpt lat="45.3869264" lon="9.2936134"><ele>94.33333333333333</ele><time>2026-04-11T10:24:13.786Z</time></trkpt><trkpt lat="45.3870552" lon="9.2934624"><ele>94.66666666666667</ele><time>2026-04-11T10:24:14.785Z</time></trkpt><trkpt lat="45.3871832" lon="9.2933098"><ele>95.0</ele><time>2026-04-11T10:24:15.786Z</time></trkpt><trkpt lat="45.3873098" lon="9.2931512"><ele>94.0</ele><time>2026-04-11T10:24:16.786Z</time></trkpt><trkpt lat="45.3874378" lon="9.2930001"><ele>93.0</ele><time>2026-04-11T10:24:17.786Z</time></trkpt><trkpt lat="45.3875628" lon="9.2928539"><ele>92.0</ele><time>2026-04-11T10:24:18.786Z</time></trkpt><trkpt lat="45.387689" lon="9.2927058"><ele>92.0</ele><time>2026-04-11T10:24:19.785Z</time></trkpt><trkpt lat="45.3878157" lon="9.2925527"><ele>92.0</ele><time>2026-04-11T10:24:20.786Z</time></trkpt><trkpt lat="45.3879467" lon="9.2923961"><ele>92.0</ele><time>2026-04-11T10:24:21.786Z</time></trkpt><trkpt lat="45.3880796" lon="9.2922419"><ele>93.33333333333334</ele><time>2026-04-11T10:24:22.786Z</time></trkpt><trkpt lat="45.3882166" lon="9.2920868"><ele>94.66666666666667</ele><time>2026-04-11T10:24:23.786Z</time></trkpt><trkpt lat="45.3883495" lon="9.2919267"><ele>96.0</ele><time>2026-04-11T10:24:24.786Z</time></trkpt><trkpt lat="45.388481" lon="9.2917619"><ele>96.0</ele><time>2026-04-11T10:24:25.786Z</time></trkpt><trkpt lat="45.3886134" lon="9.2915999"><ele>96.0</ele><time>2026-04-11T10:24:26.785Z</time></trkpt><trkpt lat="45.3887421" lon="9.2914525"><ele>96.0</ele><time>2026-04-11T10:24:27.786Z</time></trkpt><trkpt lat="45.3888597" lon="9.2913069"><ele>96.0</ele><time>2026-04-11T10:24:28.786Z</time></trkpt><trkpt lat="45.3889759" lon="9.2911697"><ele>96.0</ele><time>2026-04-11T10:24:29.786Z</time></trkpt><trkpt lat="45.3890962" lon="9.2910289"><ele>96.0</ele><time>2026-04-11T10:24:30.786Z</time></trkpt><trkpt lat="45.3892312" lon="9.2908674"><ele>96.0</ele><time>2026-04-11T10:24:31.786Z</time></trkpt><trkpt lat="45.3893521" lon="9.2907254"><ele>96.0</ele><time>2026-04-11T10:24:32.785Z</time></trkpt><trkpt lat="45.3894705" lon="9.2905838"><ele>96.0</ele><time>2026-04-11T10:24:33.785Z</time></trkpt><trkpt lat="45.3895908" lon="9.2904522"><ele>95.75</ele><time>2026-04-11T10:24:34.786Z</time></trkpt><trkpt lat="45.3897084" lon="9.2903158"><ele>95.5</ele><time>2026-04-11T10:24:35.786Z</time></trkpt><trkpt lat="45.3898223" lon="9.2901851"><ele>95.25</ele><time>2026-04-11T10:24:36.786Z</time></trkpt><trkpt lat="45.3899337" lon="9.2900499"><ele>95.0</ele><time>2026-04-11T10:24:37.787Z</time></trkpt><trkpt lat="45.3900453" lon="9.289912"><ele>95.0</ele><time>2026-04-11T10:24:38.787Z</time></trkpt><trkpt lat="45.390157" lon="9.2897721"><ele>95.0</ele><time>2026-04-11T10:24:39.787Z</time></trkpt><trkpt lat="45.3902699" lon="9.2896342"><ele>95.0</ele><time>2026-04-11T10:24:40.787Z</time></trkpt><trkpt lat="45.3903737" lon="9.2895079"><ele>95.0</ele><time>2026-04-11T10:24:41.787Z</time></trkpt><trkpt lat="45.3904596" lon="9.2894035"><ele>95.16666666666667</ele><time>2026-04-11T10:24:42.787Z</time></trkpt><trkpt lat="45.3905278" lon="9.2893125"><ele>95.33333333333334</ele><time>2026-04-11T10:24:43.786Z</time></trkpt><trkpt lat="45.3905831" lon="9.2892439"><ele>95.5</ele><time>2026-04-11T10:24:44.786Z</time></trkpt><trkpt lat="45.3906316" lon="9.2891866"><ele>95.66666666666667</ele><time>2026-04-11T10:24:45.787Z</time></trkpt><trkpt lat="45.3907142" lon="9.2890808"><ele>95.83333333333333</ele><time>2026-04-11T10:24:47.787Z</time></trkpt><trkpt lat="45.390797" lon="9.2889854"><ele>96.0</ele><time>2026-04-11T10:24:49.787Z</time></trkpt><trkpt lat="45.390898" lon="9.28886"><ele>96.19999999999999</ele><time>2026-04-11T10:24:51.787Z</time></trkpt><trkpt lat="45.3909561" lon="9.2887876"><ele>96.39999999999999</ele><time>2026-04-11T10:24:52.787Z</time></trkpt><trkpt lat="45.3910195" lon="9.2887094"><ele>96.6</ele><time>2026-04-11T10:24:53.787Z</time></trkpt><trkpt lat="45.3910887" lon="9.2886249"><ele>96.8</ele><time>2026-04-11T10:24:54.786Z</time></trkpt><trkpt lat="45.3911681" lon="9.2885317"><ele>97.0</ele><time>2026-04-11T10:24:55.787Z</time></trkpt><trkpt lat="45.3912619" lon="9.288425"><ele>97.0</ele><time>2026-04-11T10:24:56.787Z</time></trkpt><trkpt lat="45.3913576" lon="9.2883145"><ele>97.0</ele><time>2026-04-11T10:24:57.786Z</time></trkpt><trkpt lat="45.3914488" lon="9.288211"><ele>97.0</ele><time>2026-04-11T10:24:58.786Z</time></trkpt><trkpt lat="45.3915343" lon="9.2881101"><ele>97.0</ele><time>2026-04-11T10:24:59.787Z</time></trkpt><trkpt lat="45.3916099" lon="9.2880234"><ele>97.0</ele><time>2026-04-11T10:25:00.787Z</time></trkpt><trkpt lat="45.3916761" lon="9.2879504"><ele>97.0</ele><time>2026-04-11T10:25:01.786Z</time></trkpt><trkpt lat="45.3917317" lon="9.2878832"><ele>97.0</ele><time>2026-04-11T10:25:02.787Z</time></trkpt><trkpt lat="45.3917773" lon="9.2878143"><ele>97.0</ele><time>2026-04-11T10:25:03.787Z</time></trkpt><trkpt lat="45.3918526" lon="9.287684"><ele>97.0</ele><time>2026-04-11T10:25:05.787Z</time></trkpt><trkpt lat="45.3919152" lon="9.2875727"><ele>97.0</ele><time>2026-04-11T10:25:07.786Z</time></trkpt><trkpt lat="45.3920108" lon="9.2874659"><ele>97.0</ele><time>2026-04-11T10:25:09.787Z</time></trkpt><trkpt lat="45.3920805" lon="9.2874091"><ele>97.0</ele><time>2026-04-11T10:25:10.787Z</time></trkpt><trkpt lat="45.3921372" lon="9.2873442"><ele>97.0</ele><time>2026-04-11T10:25:11.787Z</time></trkpt><trkpt lat="45.39218" lon="9.2872541"><ele>97.0</ele><time>2026-04-11T10:25:12.787Z</time></trkpt><trkpt lat="45.3921972" lon="9.2871489"><ele>97.0</ele><time>2026-04-11T10:25:13.787Z</time></trkpt><trkpt lat="45.3921842" lon="9.2870469"><ele>97.0</ele><time>2026-04-11T10:25:14.787Z</time></trkpt><trkpt lat="45.3921426" lon="9.2869656"><ele>97.0</ele><time>2026-04-11T10:25:15.786Z</time></trkpt><trkpt lat="45.3920779" lon="9.2869062"><ele>96.83333333333334</ele><time>2026-04-11T10:25:16.786Z</time></trkpt><trkpt lat="45.3920033" lon="9.2868825"><ele>96.66666666666667</ele><time>2026-04-11T10:25:17.786Z</time></trkpt><trkpt lat="45.3919235" lon="9.2868922"><ele>96.5</ele><time>2026-04-11T10:25:18.787Z</time></trkpt><trkpt lat="45.3918505" lon="9.2869294"><ele>96.33333333333334</ele><time>2026-04-11T10:25:19.787Z</time></trkpt><trkpt lat="45.391786" lon="9.2869729"><ele>96.16666666666667</ele><time>2026-04-11T10:25:20.787Z</time></trkpt><trkpt lat="45.3917198" lon="9.2870112"><ele>96.0</ele><time>2026-04-11T10:25:21.786Z</time></trkpt><trkpt lat="45.3916469" lon="9.2870418"><ele>96.0</ele><time>2026-04-11T10:25:22.787Z</time></trkpt><trkpt lat="45.3915709" lon="9.287087"><ele>96.0</ele><time>2026-04-11T10:25:23.787Z</time></trkpt><trkpt lat="45.3914952" lon="9.2871887"><ele>96.0</ele><time>2026-04-11T10:25:24.787Z</time></trkpt><trkpt lat="45.391401" lon="9.287336"><ele>96.0</ele><time>2026-04-11T10:25:25.787Z</time></trkpt><trkpt lat="45.3912718" lon="9.2875202"><ele>96.0</ele><time>2026-04-11T10:25:26.787Z</time></trkpt><trkpt lat="45.3910999" lon="9.2876755"><ele>96.0</ele><time>2026-04-11T10:25:27.787Z</time></trkpt><trkpt lat="45.3909397" lon="9.2878808"><ele>96.0</ele><time>2026-04-11T10:25:28.788Z</time></trkpt><trkpt lat="45.3907641" lon="9.2881118"><ele>96.5</ele><time>2026-04-11T10:25:29.788Z</time></trkpt><trkpt lat="45.3905845" lon="9.2883582"><ele>97.0</ele><time>2026-04-11T10:25:30.788Z</time></trkpt><trkpt lat="45.390413" lon="9.2885862"><ele>96.0</ele><time>2026-04-11T10:25:31.788Z</time></trkpt><trkpt lat="45.3902541" lon="9.2887927"><ele>95.0</ele><time>2026-04-11T10:25:32.788Z</time></trkpt><trkpt lat="45.3901004" lon="9.2889838"><ele>94.0</ele><time>2026-04-11T10:25:33.788Z</time></trkpt><trkpt lat="45.3899485" lon="9.2891623"><ele>94.0</ele><time>2026-04-11T10:25:34.787Z</time></trkpt><trkpt lat="45.3898072" lon="9.2893299"><ele>94.0</ele><time>2026-04-11T10:25:35.788Z</time></trkpt><trkpt lat="45.3896774" lon="9.2894942"><ele>94.0</ele><time>2026-04-11T10:25:36.788Z</time></trkpt><trkpt lat="45.3895488" lon="9.2896506"><ele>95.33333333333333</ele><time>2026-04-11T10:25:37.788Z</time></trkpt><trkpt lat="45.3894213" lon="9.2897961"><ele>96.66666666666666</ele><time>2026-04-11T10:25:38.788Z</time></trkpt><trkpt lat="45.3892928" lon="9.2899232"><ele>98.0</ele><time>2026-04-11T10:25:39.788Z</time></trkpt><trkpt lat="45.3891589" lon="9.2900307"><ele>98.0</ele><time>2026-04-11T10:25:40.788Z</time></trkpt><trkpt lat="45.3890148" lon="9.290107"><ele>98.0</ele><time>2026-04-11T10:25:41.788Z</time></trkpt><trkpt lat="45.3888654" lon="9.2901543"><ele>98.0</ele><time>2026-04-11T10:25:42.787Z</time></trkpt><trkpt lat="45.3887052" lon="9.2901752"><ele>99.0</ele><time>2026-04-11T10:25:43.788Z</time></trkpt><trkpt lat="45.3885512" lon="9.2901665"><ele>100.0</ele><time>2026-04-11T10:25:44.788Z</time></trkpt><trkpt lat="45.3883977" lon="9.2901237"><ele>101.0</ele><time>2026-04-11T10:25:45.788Z</time></trkpt><trkpt lat="45.3882565" lon="9.2900438"><ele>101.0</ele><time>2026-04-11T10:25:46.788Z</time></trkpt><trkpt lat="45.3881198" lon="9.2899275"><ele>101.0</ele><time>2026-04-11T10:25:47.788Z</time></trkpt><trkpt lat="45.3879958" lon="9.2897802"><ele>101.0</ele><time>2026-04-11T10:25:48.787Z</time></trkpt><trkpt lat="45.3878824" lon="9.2896059"><ele>99.66666666666666</ele><time>2026-04-11T10:25:49.788Z</time></trkpt><trkpt lat="45.3877546" lon="9.2894252"><ele>98.33333333333334</ele><time>2026-04-11T10:25:50.788Z</time></trkpt><trkpt lat="45.3876178" lon="9.289229"><ele>97.0</ele><time>2026-04-11T10:25:51.788Z</time></trkpt><trkpt lat="45.387472" lon="9.2890272"><ele>96.66666666666667</ele><time>2026-04-11T10:25:52.788Z</time></trkpt><trkpt lat="45.3873212" lon="9.288821"><ele>96.33333333333334</ele><time>2026-04-11T10:25:53.788Z</time></trkpt><trkpt lat="45.3871689" lon="9.2886067"><ele>96.0</ele><time>2026-04-11T10:25:54.788Z</time></trkpt><trkpt lat="45.3870134" lon="9.2883927"><ele>96.0</ele><time>2026-04-11T10:25:55.788Z</time></trkpt><trkpt lat="45.3868586" lon="9.2881788"><ele>96.0</ele><time>2026-04-11T10:25:56.788Z</time></trkpt><trkpt lat="45.3867104" lon="9.2879782"><ele>96.0</ele><time>2026-04-11T10:25:57.788Z</time></trkpt><trkpt lat="45.3865748" lon="9.2877838"><ele>95.66666666666667</ele><time>2026-04-11T10:25:58.787Z</time></trkpt><trkpt lat="45.3864396" lon="9.2875957"><ele>95.33333333333334</ele><time>2026-04-11T10:25:59.788Z</time></trkpt><trkpt lat="45.3863029" lon="9.2874112"><ele>95.0</ele><time>2026-04-11T10:26:00.788Z</time></trkpt><trkpt lat="45.3861692" lon="9.2872255"><ele>95.0</ele><time>2026-04-11T10:26:01.788Z</time></trkpt><trkpt lat="45.3860422" lon="9.2870506"><ele>95.0</ele><time>2026-04-11T10:26:02.787Z</time></trkpt><trkpt lat="45.3859291" lon="9.2868912"><ele>95.0</ele><time>2026-04-11T10:26:03.788Z</time></trkpt><trkpt lat="45.3858302" lon="9.2867424"><ele>95.0</ele><time>2026-04-11T10:26:04.788Z</time></trkpt><trkpt lat="45.385746" lon="9.2866013"><ele>95.0</ele><time>2026-04-11T10:26:05.788Z</time></trkpt><trkpt lat="45.3856644" lon="9.2864715"><ele>95.0</ele><time>2026-04-11T10:26:06.787Z</time></trkpt><trkpt lat="45.3855902" lon="9.2863539"><ele>95.0</ele><time>2026-04-11T10:26:07.788Z</time></trkpt><trkpt lat="45.385544" lon="9.2862419"><ele>94.8</ele><time>2026-04-11T10:26:08.788Z</time></trkpt><trkpt lat="45.3855156" lon="9.2861248"><ele>94.6</ele><time>2026-04-11T10:26:09.788Z</time></trkpt><trkpt lat="45.3854662" lon="9.2860104"><ele>94.4</ele><time>2026-04-11T10:26:10.788Z</time></trkpt><trkpt lat="45.3853884" lon="9.285929"><ele>94.2</ele><time>2026-04-11T10:26:11.788Z</time></trkpt><trkpt lat="45.3852904" lon="9.2858664"><ele>94.0</ele><time>2026-04-11T10:26:12.788Z</time></trkpt><trkpt lat="45.3851853" lon="9.2857683"><ele>93.33333333333333</ele><time>2026-04-11T10:26:13.788Z</time></trkpt><trkpt lat="45.3850745" lon="9.2856201"><ele>92.66666666666667</ele><time>2026-04-11T10:26:14.788Z</time></trkpt><trkpt lat="45.3849565" lon="9.2854568"><ele>92.0</ele><time>2026-04-11T10:26:15.788Z</time></trkpt><trkpt lat="45.3848288" lon="9.2852703"><ele>92.0</ele><time>2026-04-11T10:26:16.788Z</time></trkpt><trkpt lat="45.3846988" lon="9.2850699"><ele>92.0</ele><time>2026-04-11T10:26:17.789Z</time></trkpt><trkpt lat="45.3845565" lon="9.284858"><ele>92.0</ele><time>2026-04-11T10:26:18.789Z</time></trkpt><trkpt lat="45.3844034" lon="9.2846341"><ele>92.33333333333334</ele><time>2026-04-11T10:26:19.789Z</time></trkpt><trkpt lat="45.3842509" lon="9.284411"><ele>92.66666666666667</ele><time>2026-04-11T10:26:20.789Z</time></trkpt><trkpt lat="45.3841046" lon="9.2841811"><ele>93.0</ele><time>2026-04-11T10:26:21.789Z</time></trkpt><trkpt lat="45.3839765" lon="9.2839377"><ele>93.0</ele><time>2026-04-11T10:26:22.789Z</time></trkpt><trkpt lat="45.3838629" lon="9.2836743"><ele>93.0</ele><time>2026-04-11T10:26:23.788Z</time></trkpt><trkpt lat="45.3837569" lon="9.2833877"><ele>93.0</ele><time>2026-04-11T10:26:24.789Z</time></trkpt><trkpt lat="45.3836652" lon="9.2830958"><ele>92.0</ele><time>2026-04-11T10:26:25.789Z</time></trkpt><trkpt lat="45.3835904" lon="9.2827907"><ele>91.0</ele><time>2026-04-11T10:26:26.789Z</time></trkpt><trkpt lat="45.3835348" lon="9.2824673"><ele>92.5</ele><time>2026-04-11T10:26:27.789Z</time></trkpt><trkpt lat="45.3834994" lon="9.2821361"><ele>94.0</ele><time>2026-04-11T10:26:28.789Z</time></trkpt><trkpt lat="45.3834824" lon="9.281793"><ele>94.0</ele><time>2026-04-11T10:26:29.788Z</time></trkpt><trkpt lat="45.3834841" lon="9.2814474"><ele>94.0</ele><time>2026-04-11T10:26:30.789Z</time></trkpt><trkpt lat="45.3835035" lon="9.2810964"><ele>94.5</ele><time>2026-04-11T10:26:31.788Z</time></trkpt><trkpt lat="45.3835267" lon="9.2807398"><ele>95.0</ele><time>2026-04-11T10:26:32.789Z</time></trkpt><trkpt lat="45.3835483" lon="9.2803839"><ele>95.5</ele><time>2026-04-11T10:26:33.789Z</time></trkpt><trkpt lat="45.3835675" lon="9.2800233"><ele>96.0</ele><time>2026-04-11T10:26:34.789Z</time></trkpt><trkpt lat="45.383589" lon="9.2796561"><ele>96.0</ele><time>2026-04-11T10:26:35.789Z</time></trkpt><trkpt lat="45.3836128" lon="9.2792796"><ele>96.0</ele><time>2026-04-11T10:26:36.788Z</time></trkpt><trkpt lat="45.3836371" lon="9.2788981"><ele>95.0</ele><time>2026-04-11T10:26:37.789Z</time></trkpt><trkpt lat="45.383659" lon="9.278517"><ele>94.0</ele><time>2026-04-11T10:26:38.789Z</time></trkpt><trkpt lat="45.3836816" lon="9.2781532"><ele>94.0</ele><time>2026-04-11T10:26:39.789Z</time></trkpt><trkpt lat="45.3837006" lon="9.277801"><ele>94.0</ele><time>2026-04-11T10:26:40.789Z</time></trkpt><trkpt lat="45.3837199" lon="9.2774567"><ele>94.5</ele><time>2026-04-11T10:26:41.789Z</time></trkpt><trkpt lat="45.3837407" lon="9.2771241"><ele>95.0</ele><time>2026-04-11T10:26:42.789Z</time></trkpt><trkpt lat="45.3837613" lon="9.2768176"><ele>95.0</ele><time>2026-04-11T10:26:43.789Z</time></trkpt><trkpt lat="45.3837828" lon="9.2765332"><ele>95.0</ele><time>2026-04-11T10:26:44.789Z</time></trkpt><trkpt lat="45.383802" lon="9.2762589"><ele>95.0</ele><time>2026-04-11T10:26:45.789Z</time></trkpt><trkpt lat="45.3838166" lon="9.2759892"><ele>94.66666666666667</ele><time>2026-04-11T10:26:46.789Z</time></trkpt><trkpt lat="45.3838288" lon="9.2757186"><ele>94.33333333333333</ele><time>2026-04-11T10:26:47.789Z</time></trkpt><trkpt lat="45.3838444" lon="9.2754509"><ele>94.0</ele><time>2026-04-11T10:26:48.789Z</time></trkpt><trkpt lat="45.3838629" lon="9.2751846"><ele>94.0</ele><time>2026-04-11T10:26:49.789Z</time></trkpt><trkpt lat="45.3838809" lon="9.2749144"><ele>94.0</ele><time>2026-04-11T10:26:50.788Z</time></trkpt><trkpt lat="45.3838981" lon="9.2746372"><ele>94.0</ele><time>2026-04-11T10:26:51.789Z</time></trkpt><trkpt lat="45.3839158" lon="9.2743518"><ele>93.66666666666666</ele><time>2026-04-11T10:26:52.789Z</time></trkpt><trkpt lat="45.3839313" lon="9.2740591"><ele>93.33333333333333</ele><time>2026-04-11T10:26:53.789Z</time></trkpt><trkpt lat="45.3839503" lon="9.2737569"><ele>93.0</ele><time>2026-04-11T10:26:54.789Z</time></trkpt><trkpt lat="45.3839696" lon="9.2734494"><ele>93.66666666666667</ele><time>2026-04-11T10:26:55.789Z</time></trkpt><trkpt lat="45.3839897" lon="9.2731374"><ele>94.33333333333334</ele><time>2026-04-11T10:26:56.789Z</time></trkpt><trkpt lat="45.3840099" lon="9.2728198"><ele>95.0</ele><time>2026-04-11T10:26:57.789Z</time></trkpt><trkpt lat="45.3840321" lon="9.2724993"><ele>95.33333333333334</ele><time>2026-04-11T10:26:58.789Z</time></trkpt><trkpt lat="45.3840537" lon="9.2721794"><ele>95.66666666666667</ele><time>2026-04-11T10:26:59.789Z</time></trkpt><trkpt lat="45.3840721" lon="9.271876"><ele>96.0</ele><time>2026-04-11T10:27:00.789Z</time></trkpt><trkpt lat="45.3840902" lon="9.2715924"><ele>96.33333333333334</ele><time>2026-04-11T10:27:01.789Z</time></trkpt><trkpt lat="45.3841081" lon="9.2713298"><ele>96.66666666666667</ele><time>2026-04-11T10:27:02.789Z</time></trkpt><trkpt lat="45.3841249" lon="9.2710821"><ele>97.0</ele><time>2026-04-11T10:27:03.789Z</time></trkpt><trkpt lat="45.3841384" lon="9.2708456"><ele>97.0</ele><time>2026-04-11T10:27:04.789Z</time></trkpt><trkpt lat="45.3841349" lon="9.2706194"><ele>97.0</ele><time>2026-04-11T10:27:05.789Z</time></trkpt><trkpt lat="45.3841084" lon="9.2704032"><ele>97.0</ele><time>2026-04-11T10:27:06.79Z</time></trkpt><trkpt lat="45.3840536" lon="9.2701885"><ele>97.0</ele><time>2026-04-11T10:27:07.79Z</time></trkpt><trkpt lat="45.3839641" lon="9.2699861"><ele>97.0</ele><time>2026-04-11T10:27:08.79Z</time></trkpt><trkpt lat="45.3838578" lon="9.2698003"><ele>97.0</ele><time>2026-04-11T10:27:09.789Z</time></trkpt><trkpt lat="45.3837457" lon="9.2696153"><ele>97.0</ele><time>2026-04-11T10:27:10.79Z</time></trkpt><trkpt lat="45.3836363" lon="9.269421"><ele>97.0</ele><time>2026-04-11T10:27:11.79Z</time></trkpt><trkpt lat="45.3835274" lon="9.2692287"><ele>97.0</ele><time>2026-04-11T10:27:12.79Z</time></trkpt><trkpt lat="45.3834174" lon="9.269044"><ele>97.33333333333334</ele><time>2026-04-11T10:27:13.79Z</time></trkpt><trkpt lat="45.3833142" lon="9.2688725"><ele>97.66666666666666</ele><time>2026-04-11T10:27:14.79Z</time></trkpt><trkpt lat="45.3832197" lon="9.2686989"><ele>98.0</ele><time>2026-04-11T10:27:15.79Z</time></trkpt><trkpt lat="45.3831323" lon="9.2685237"><ele>98.0</ele><time>2026-04-11T10:27:16.79Z</time></trkpt><trkpt lat="45.38306" lon="9.2683292"><ele>98.0</ele><time>2026-04-11T10:27:17.79Z</time></trkpt><trkpt lat="45.3830062" lon="9.2681276"><ele>98.0</ele><time>2026-04-11T10:27:18.79Z</time></trkpt><trkpt lat="45.3829707" lon="9.2679168"><ele>98.25</ele><time>2026-04-11T10:27:19.79Z</time></trkpt><trkpt lat="45.3829581" lon="9.2677161"><ele>98.5</ele><time>2026-04-11T10:27:20.789Z</time></trkpt><trkpt lat="45.3829646" lon="9.267512"><ele>98.75</ele><time>2026-04-11T10:27:21.79Z</time></trkpt><trkpt lat="45.3829754" lon="9.2673212"><ele>99.0</ele><time>2026-04-11T10:27:22.79Z</time></trkpt><trkpt lat="45.3829899" lon="9.2671301"><ele>99.0</ele><time>2026-04-11T10:27:23.79Z</time></trkpt><trkpt lat="45.383012" lon="9.2669339"><ele>99.0</ele><time>2026-04-11T10:27:24.79Z</time></trkpt><trkpt lat="45.3830263" lon="9.266725"><ele>99.0</ele><time>2026-04-11T10:27:25.79Z</time></trkpt><trkpt lat="45.3830445" lon="9.2665255"><ele>99.0</ele><time>2026-04-11T10:27:26.79Z</time></trkpt><trkpt lat="45.3830733" lon="9.2663217"><ele>99.0</ele><time>2026-04-11T10:27:27.79Z</time></trkpt><trkpt lat="45.383084" lon="9.2661178"><ele>99.0</ele><time>2026-04-11T10:27:28.789Z</time></trkpt><trkpt lat="45.3830891" lon="9.2659501"><ele>99.0</ele><time>2026-04-11T10:27:29.79Z</time></trkpt><trkpt lat="45.3830969" lon="9.2657849"><ele>99.0</ele><time>2026-04-11T10:27:30.79Z</time></trkpt><trkpt lat="45.3831081" lon="9.2656366"><ele>99.0</ele><time>2026-04-11T10:27:31.79Z</time></trkpt><trkpt lat="45.3831233" lon="9.2655061"><ele>99.0</ele><time>2026-04-11T10:27:32.79Z</time></trkpt><trkpt lat="45.3831419" lon="9.2653878"><ele>99.0</ele><time>2026-04-11T10:27:33.79Z</time></trkpt><trkpt lat="45.3831568" lon="9.265294"><ele>99.0</ele><time>2026-04-11T10:27:34.79Z</time></trkpt><trkpt lat="45.3831835" lon="9.2651941"><ele>99.0</ele><time>2026-04-11T10:27:36.789Z</time></trkpt><trkpt lat="45.3832412" lon="9.2650751"><ele>99.0</ele><time>2026-04-11T10:27:38.79Z</time></trkpt><trkpt lat="45.3832765" lon="9.2649844"><ele>99.0</ele><time>2026-04-11T10:27:39.79Z</time></trkpt><trkpt lat="45.3832926" lon="9.2648681"><ele>99.0</ele><time>2026-04-11T10:27:40.79Z</time></trkpt><trkpt lat="45.3832856" lon="9.2647373"><ele>99.0</ele><time>2026-04-11T10:27:41.789Z</time></trkpt><trkpt lat="45.3832588" lon="9.2646072"><ele>99.0</ele><time>2026-04-11T10:27:42.79Z</time></trkpt><trkpt lat="45.3832513" lon="9.2644424"><ele>99.0</ele><time>2026-04-11T10:27:43.79Z</time></trkpt><trkpt lat="45.3832568" lon="9.2642932"><ele>99.0</ele><time>2026-04-11T10:27:44.79Z</time></trkpt><trkpt lat="45.3832655" lon="9.2641342"><ele>99.0</ele><time>2026-04-11T10:27:45.79Z</time></trkpt><trkpt lat="45.3832723" lon="9.2639711"><ele>99.0</ele><time>2026-04-11T10:27:46.79Z</time></trkpt><trkpt lat="45.3832659" lon="9.2637977"><ele>99.0</ele><time>2026-04-11T10:27:47.79Z</time></trkpt><trkpt lat="45.3832538" lon="9.2636287"><ele>99.0</ele><time>2026-04-11T10:27:48.789Z</time></trkpt><trkpt lat="45.3832352" lon="9.2634815"><ele>99.0</ele><time>2026-04-11T10:27:49.79Z</time></trkpt><trkpt lat="45.3832158" lon="9.2633545"><ele>99.0</ele><time>2026-04-11T10:27:50.789Z</time></trkpt><trkpt lat="45.3831877" lon="9.2632383"><ele>99.0</ele><time>2026-04-11T10:27:51.79Z</time></trkpt><trkpt lat="45.3831502" lon="9.2631343"><ele>99.0</ele><time>2026-04-11T10:27:52.79Z</time></trkpt><trkpt lat="45.3830958" lon="9.2630278"><ele>98.80000000000001</ele><time>2026-04-11T10:27:53.79Z</time></trkpt><trkpt lat="45.383027" lon="9.2629305"><ele>98.60000000000001</ele><time>2026-04-11T10:27:54.79Z</time></trkpt><trkpt lat="45.3829503" lon="9.2628432"><ele>98.4</ele><time>2026-04-11T10:27:55.791Z</time></trkpt><trkpt lat="45.3828579" lon="9.262772"><ele>98.2</ele><time>2026-04-11T10:27:56.791Z</time></trkpt><trkpt lat="45.382756" lon="9.2627234"><ele>98.0</ele><time>2026-04-11T10:27:57.791Z</time></trkpt><trkpt lat="45.3826258" lon="9.262697"><ele>98.0</ele><time>2026-04-11T10:27:58.79Z</time></trkpt><trkpt lat="45.3824791" lon="9.2626649"><ele>98.0</ele><time>2026-04-11T10:27:59.79Z</time></trkpt><trkpt lat="45.3823255" lon="9.2626104"><ele>98.0</ele><time>2026-04-11T10:28:00.791Z</time></trkpt><trkpt lat="45.3821692" lon="9.2625654"><ele>97.75</ele><time>2026-04-11T10:28:01.791Z</time></trkpt><trkpt lat="45.3820248" lon="9.2625346"><ele>97.5</ele><time>2026-04-11T10:28:02.791Z</time></trkpt><trkpt lat="45.3818917" lon="9.2624961"><ele>97.25</ele><time>2026-04-11T10:28:03.791Z</time></trkpt><trkpt lat="45.3817779" lon="9.2624628"><ele>97.0</ele><time>2026-04-11T10:28:04.79Z</time></trkpt><trkpt lat="45.3816529" lon="9.2624366"><ele>97.0</ele><time>2026-04-11T10:28:05.791Z</time></trkpt><trkpt lat="45.3815118" lon="9.2624168"><ele>97.0</ele><time>2026-04-11T10:28:06.791Z</time></trkpt><trkpt lat="45.3813504" lon="9.2623784"><ele>97.0</ele><time>2026-04-11T10:28:07.791Z</time></trkpt><trkpt lat="45.3811976" lon="9.2623305"><ele>97.0</ele><time>2026-04-11T10:28:08.791Z</time></trkpt><trkpt lat="45.3810592" lon="9.2622908"><ele>97.0</ele><time>2026-04-11T10:28:09.791Z</time></trkpt><trkpt lat="45.3809233" lon="9.2622566"><ele>97.0</ele><time>2026-04-11T10:28:10.791Z</time></trkpt><trkpt lat="45.3807772" lon="9.2622245"><ele>97.0</ele><time>2026-04-11T10:28:11.791Z</time></trkpt><trkpt lat="45.3806069" lon="9.2621855"><ele>96.33333333333334</ele><time>2026-04-11T10:28:12.791Z</time></trkpt><trkpt lat="45.380434" lon="9.2621362"><ele>95.66666666666667</ele><time>2026-04-11T10:28:13.791Z</time></trkpt><trkpt lat="45.3802681" lon="9.2620882"><ele>95.0</ele><time>2026-04-11T10:28:14.79Z</time></trkpt><trkpt lat="45.3801145" lon="9.2620458"><ele>95.0</ele><time>2026-04-11T10:28:15.791Z</time></trkpt><trkpt lat="45.3799698" lon="9.262008"><ele>95.0</ele><time>2026-04-11T10:28:16.791Z</time></trkpt><trkpt lat="45.3798202" lon="9.261967"><ele>95.0</ele><time>2026-04-11T10:28:17.791Z</time></trkpt><trkpt lat="45.3796637" lon="9.2619224"><ele>95.0</ele><time>2026-04-11T10:28:18.791Z</time></trkpt><trkpt lat="45.3795047" lon="9.2618624"><ele>95.0</ele><time>2026-04-11T10:28:19.791Z</time></trkpt><trkpt lat="45.3793489" lon="9.2617881"><ele>95.0</ele><time>2026-04-11T10:28:20.79Z</time></trkpt><trkpt lat="45.3791942" lon="9.2617013"><ele>95.0</ele><time>2026-04-11T10:28:21.791Z</time></trkpt><trkpt lat="45.3790436" lon="9.2616035"><ele>95.0</ele><time>2026-04-11T10:28:22.791Z</time></trkpt><trkpt lat="45.378897" lon="9.2614873"><ele>95.0</ele><time>2026-04-11T10:28:23.791Z</time></trkpt><trkpt lat="45.3787632" lon="9.2613656"><ele>95.33333333333334</ele><time>2026-04-11T10:28:24.791Z</time></trkpt><trkpt lat="45.3786349" lon="9.261238"><ele>95.66666666666667</ele><time>2026-04-11T10:28:25.791Z</time></trkpt><trkpt lat="45.3785093" lon="9.2611021"><ele>96.0</ele><time>2026-04-11T10:28:26.791Z</time></trkpt><trkpt lat="45.3783939" lon="9.2609557"><ele>96.0</ele><time>2026-04-11T10:28:27.791Z</time></trkpt><trkpt lat="45.3782836" lon="9.2608002"><ele>96.0</ele><time>2026-04-11T10:28:28.791Z</time></trkpt><trkpt lat="45.3781815" lon="9.2606375"><ele>96.0</ele><time>2026-04-11T10:28:29.791Z</time></trkpt><trkpt lat="45.3780824" lon="9.2604711"><ele>96.0</ele><time>2026-04-11T10:28:30.79Z</time></trkpt><trkpt lat="45.3779861" lon="9.2603056"><ele>96.0</ele><time>2026-04-11T10:28:31.791Z</time></trkpt><trkpt lat="45.3778847" lon="9.2601399"><ele>96.0</ele><time>2026-04-11T10:28:32.791Z</time></trkpt><trkpt lat="45.3777872" lon="9.2599753"><ele>96.0</ele><time>2026-04-11T10:28:33.791Z</time></trkpt><trkpt lat="45.3776907" lon="9.2598096"><ele>96.0</ele><time>2026-04-11T10:28:34.79Z</time></trkpt><trkpt lat="45.3775922" lon="9.2596455"><ele>96.0</ele><time>2026-04-11T10:28:35.791Z</time></trkpt><trkpt lat="45.3774894" lon="9.2594825"><ele>96.0</ele><time>2026-04-11T10:28:36.791Z</time></trkpt><trkpt lat="45.3773838" lon="9.2593263"><ele>96.0</ele><time>2026-04-11T10:28:37.791Z</time></trkpt><trkpt lat="45.3772708" lon="9.259176"><ele>96.0</ele><time>2026-04-11T10:28:38.79Z</time></trkpt><trkpt lat="45.3771531" lon="9.2590346"><ele>95.66666666666667</ele><time>2026-04-11T10:28:39.791Z</time></trkpt><trkpt lat="45.3770275" lon="9.2589025"><ele>95.33333333333334</ele><time>2026-04-11T10:28:40.791Z</time></trkpt><trkpt lat="45.3768987" lon="9.2587833"><ele>95.0</ele><time>2026-04-11T10:28:41.791Z</time></trkpt><trkpt lat="45.3767634" lon="9.258675"><ele>95.0</ele><time>2026-04-11T10:28:42.791Z</time></trkpt><trkpt lat="45.3766231" lon="9.2585741"><ele>95.0</ele><time>2026-04-11T10:28:43.791Z</time></trkpt><trkpt lat="45.3764804" lon="9.2584829"><ele>95.0</ele><time>2026-04-11T10:28:44.791Z</time></trkpt><trkpt lat="45.3763361" lon="9.2584051"><ele>95.66666666666667</ele><time>2026-04-11T10:28:45.792Z</time></trkpt><trkpt lat="45.3761846" lon="9.2583379"><ele>96.33333333333334</ele><time>2026-04-11T10:28:46.791Z</time></trkpt><trkpt lat="45.3760258" lon="9.2582896"><ele>97.0</ele><time>2026-04-11T10:28:47.792Z</time></trkpt><trkpt lat="45.3758685" lon="9.2582506"><ele>97.0</ele><time>2026-04-11T10:28:48.791Z</time></trkpt><trkpt lat="45.3757138" lon="9.2582204"><ele>97.0</ele><time>2026-04-11T10:28:49.792Z</time></trkpt><trkpt lat="45.3755559" lon="9.2582061"><ele>97.0</ele><time>2026-04-11T10:28:50.792Z</time></trkpt><trkpt lat="45.3753969" lon="9.2581997"><ele>96.66666666666667</ele><time>2026-04-11T10:28:51.792Z</time></trkpt><trkpt lat="45.375237" lon="9.2581968"><ele>96.33333333333334</ele><time>2026-04-11T10:28:52.792Z</time></trkpt><trkpt lat="45.3750762" lon="9.2581951"><ele>96.0</ele><time>2026-04-11T10:28:53.792Z</time></trkpt><trkpt lat="45.3749141" lon="9.2581927"><ele>96.0</ele><time>2026-04-11T10:28:54.792Z</time></trkpt><trkpt lat="45.3747517" lon="9.258192"><ele>96.0</ele><time>2026-04-11T10:28:55.792Z</time></trkpt><trkpt lat="45.3745882" lon="9.2581872"><ele>96.0</ele><time>2026-04-11T10:28:56.792Z</time></trkpt><trkpt lat="45.3744241" lon="9.2581811"><ele>95.33333333333333</ele><time>2026-04-11T10:28:57.792Z</time></trkpt><trkpt lat="45.3742638" lon="9.2581802"><ele>94.66666666666666</ele><time>2026-04-11T10:28:58.792Z</time></trkpt><trkpt lat="45.3741037" lon="9.258176"><ele>94.0</ele><time>2026-04-11T10:28:59.791Z</time></trkpt><trkpt lat="45.3739427" lon="9.2581671"><ele>94.0</ele><time>2026-04-11T10:29:00.792Z</time></trkpt><trkpt lat="45.3737862" lon="9.2581518"><ele>94.0</ele><time>2026-04-11T10:29:01.792Z</time></trkpt><trkpt lat="45.3736297" lon="9.2581281"><ele>94.0</ele><time>2026-04-11T10:29:02.791Z</time></trkpt><trkpt lat="45.3734746" lon="9.2580968"><ele>94.0</ele><time>2026-04-11T10:29:03.792Z</time></trkpt><trkpt lat="45.3733202" lon="9.2580564"><ele>94.0</ele><time>2026-04-11T10:29:04.792Z</time></trkpt><trkpt lat="45.3731607" lon="9.257999"><ele>94.0</ele><time>2026-04-11T10:29:05.791Z</time></trkpt><trkpt lat="45.3730013" lon="9.2579327"><ele>94.33333333333333</ele><time>2026-04-11T10:29:06.792Z</time></trkpt><trkpt lat="45.3728447" lon="9.2578533"><ele>94.66666666666667</ele><time>2026-04-11T10:29:07.791Z</time></trkpt><trkpt lat="45.3726915" lon="9.2577668"><ele>95.0</ele><time>2026-04-11T10:29:08.792Z</time></trkpt><trkpt lat="45.3725402" lon="9.2576655"><ele>95.0</ele><time>2026-04-11T10:29:09.791Z</time></trkpt><trkpt lat="45.3723948" lon="9.2575528"><ele>95.0</ele><time>2026-04-11T10:29:10.792Z</time></trkpt><trkpt lat="45.372251" lon="9.2574289"><ele>95.0</ele><time>2026-04-11T10:29:11.792Z</time></trkpt><trkpt lat="45.3721106" lon="9.2573016"><ele>94.33333333333334</ele><time>2026-04-11T10:29:12.792Z</time></trkpt><trkpt lat="45.3719752" lon="9.2571667"><ele>93.66666666666667</ele><time>2026-04-11T10:29:13.792Z</time></trkpt><trkpt lat="45.3718417" lon="9.257023"><ele>93.0</ele><time>2026-04-11T10:29:14.792Z</time></trkpt><trkpt lat="45.3717089" lon="9.2568683"><ele>93.0</ele><time>2026-04-11T10:29:15.792Z</time></trkpt><trkpt lat="45.3715817" lon="9.2567022"><ele>93.0</ele><time>2026-04-11T10:29:16.792Z</time></trkpt><trkpt lat="45.3714628" lon="9.2565277"><ele>93.0</ele><time>2026-04-11T10:29:17.791Z</time></trkpt><trkpt lat="45.371349" lon="9.2563421"><ele>93.33333333333333</ele><time>2026-04-11T10:29:18.792Z</time></trkpt><trkpt lat="45.3712404" lon="9.2561529"><ele>93.66666666666666</ele><time>2026-04-11T10:29:19.792Z</time></trkpt><trkpt lat="45.3711341" lon="9.2559566"><ele>94.0</ele><time>2026-04-11T10:29:20.792Z</time></trkpt><trkpt lat="45.3710302" lon="9.2557539"><ele>94.66666666666666</ele><time>2026-04-11T10:29:21.792Z</time></trkpt><trkpt lat="45.3709174" lon="9.2555472"><ele>95.33333333333333</ele><time>2026-04-11T10:29:22.792Z</time></trkpt><trkpt lat="45.3707845" lon="9.2553035"><ele>96.0</ele><time>2026-04-11T10:29:23.792Z</time></trkpt><trkpt lat="45.370634" lon="9.2550238"><ele>95.0</ele><time>2026-04-11T10:29:24.792Z</time></trkpt><trkpt lat="45.3704739" lon="9.2546923"><ele>94.0</ele><time>2026-04-11T10:29:25.791Z</time></trkpt><trkpt lat="45.3703002" lon="9.2543356"><ele>94.0</ele><time>2026-04-11T10:29:26.792Z</time></trkpt><trkpt lat="45.3701205" lon="9.2539758"><ele>94.0</ele><time>2026-04-11T10:29:27.792Z</time></trkpt><trkpt lat="45.3699368" lon="9.2536152"><ele>94.5</ele><time>2026-04-11T10:29:28.792Z</time></trkpt><trkpt lat="45.369742" lon="9.2532428"><ele>95.0</ele><time>2026-04-11T10:29:29.792Z</time></trkpt><trkpt lat="45.3695451" lon="9.2528671"><ele>95.5</ele><time>2026-04-11T10:29:30.791Z</time></trkpt><trkpt lat="45.3693591" lon="9.2525096"><ele>96.0</ele><time>2026-04-11T10:29:31.792Z</time></trkpt><trkpt lat="45.3691889" lon="9.2521755"><ele>95.0</ele><time>2026-04-11T10:29:32.792Z</time></trkpt><trkpt lat="45.3690349" lon="9.2518675"><ele>94.0</ele><time>2026-04-11T10:29:33.792Z</time></trkpt><trkpt lat="45.3688882" lon="9.251583"><ele>94.0</ele><time>2026-04-11T10:29:34.793Z</time></trkpt><trkpt lat="45.3687486" lon="9.251309"><ele>94.0</ele><time>2026-04-11T10:29:35.793Z</time></trkpt><trkpt lat="45.3686141" lon="9.2510445"><ele>94.0</ele><time>2026-04-11T10:29:36.793Z</time></trkpt><trkpt lat="45.3684768" lon="9.2507867"><ele>94.0</ele><time>2026-04-11T10:29:37.793Z</time></trkpt><trkpt lat="45.3683382" lon="9.2505381"><ele>94.0</ele><time>2026-04-11T10:29:38.793Z</time></trkpt><trkpt lat="45.3681893" lon="9.2503018"><ele>94.0</ele><time>2026-04-11T10:29:39.793Z</time></trkpt><trkpt lat="45.3680354" lon="9.2500796"><ele>94.0</ele><time>2026-04-11T10:29:40.793Z</time></trkpt><trkpt lat="45.3678695" lon="9.2498678"><ele>95.0</ele><time>2026-04-11T10:29:41.793Z</time></trkpt><trkpt lat="45.3676944" lon="9.2496637"><ele>96.0</ele><time>2026-04-11T10:29:42.793Z</time></trkpt><trkpt lat="45.3675109" lon="9.2494726"><ele>96.0</ele><time>2026-04-11T10:29:43.792Z</time></trkpt><trkpt lat="45.3673183" lon="9.2492882"><ele>96.0</ele><time>2026-04-11T10:29:44.793Z</time></trkpt><trkpt lat="45.3671171" lon="9.2491209"><ele>95.0</ele><time>2026-04-11T10:29:45.793Z</time></trkpt><trkpt lat="45.3669114" lon="9.2489642"><ele>94.0</ele><time>2026-04-11T10:29:46.793Z</time></trkpt><trkpt lat="45.3666975" lon="9.2488172"><ele>93.5</ele><time>2026-04-11T10:29:47.793Z</time></trkpt><trkpt lat="45.3664742" lon="9.2486804"><ele>93.0</ele><time>2026-04-11T10:29:48.793Z</time></trkpt><trkpt lat="45.3662497" lon="9.2485386"><ele>93.0</ele><time>2026-04-11T10:29:49.793Z</time></trkpt><trkpt lat="45.3660235" lon="9.2483913"><ele>93.0</ele><time>2026-04-11T10:29:50.793Z</time></trkpt><trkpt lat="45.3658003" lon="9.2482438"><ele>92.5</ele><time>2026-04-11T10:29:51.793Z</time></trkpt><trkpt lat="45.3655725" lon="9.2480927"><ele>92.0</ele><time>2026-04-11T10:29:52.793Z</time></trkpt><trkpt lat="45.3653359" lon="9.2479399"><ele>93.5</ele><time>2026-04-11T10:29:53.792Z</time></trkpt><trkpt lat="45.3651066" lon="9.2477881"><ele>95.0</ele><time>2026-04-11T10:29:54.793Z</time></trkpt><trkpt lat="45.3648865" lon="9.2476435"><ele>94.0</ele><time>2026-04-11T10:29:55.792Z</time></trkpt><trkpt lat="45.3646594" lon="9.2474975"><ele>93.0</ele><time>2026-04-11T10:29:56.793Z</time></trkpt><trkpt lat="45.3644338" lon="9.2473477"><ele>93.0</ele><time>2026-04-11T10:29:57.793Z</time></trkpt><trkpt lat="45.3642223" lon="9.2471732"><ele>93.0</ele><time>2026-04-11T10:29:58.793Z</time></trkpt><trkpt lat="45.3640222" lon="9.2469779"><ele>93.0</ele><time>2026-04-11T10:29:59.793Z</time></trkpt><trkpt lat="45.3638323" lon="9.2467609"><ele>93.0</ele><time>2026-04-11T10:30:00.792Z</time></trkpt><trkpt lat="45.3636549" lon="9.2465208"><ele>93.0</ele><time>2026-04-11T10:30:01.793Z</time></trkpt><trkpt lat="45.3634863" lon="9.2462506"><ele>93.0</ele><time>2026-04-11T10:30:02.793Z</time></trkpt><trkpt lat="45.3633272" lon="9.245953"><ele>93.0</ele><time>2026-04-11T10:30:03.793Z</time></trkpt><trkpt lat="45.3631841" lon="9.2456269"><ele>93.0</ele><time>2026-04-11T10:30:04.793Z</time></trkpt><trkpt lat="45.3630592" lon="9.2452767"><ele>93.5</ele><time>2026-04-11T10:30:05.792Z</time></trkpt><trkpt lat="45.362946" lon="9.2449038"><ele>94.0</ele><time>2026-04-11T10:30:06.793Z</time></trkpt><trkpt lat="45.362833" lon="9.2445261"><ele>94.0</ele><time>2026-04-11T10:30:07.793Z</time></trkpt><trkpt lat="45.3627152" lon="9.2441485"><ele>94.0</ele><time>2026-04-11T10:30:08.793Z</time></trkpt><trkpt lat="45.3625993" lon="9.2437642"><ele>94.0</ele><time>2026-04-11T10:30:09.793Z</time></trkpt><trkpt lat="45.3624796" lon="9.2433696"><ele>94.0</ele><time>2026-04-11T10:30:10.793Z</time></trkpt><trkpt lat="45.3623627" lon="9.2429778"><ele>94.0</ele><time>2026-04-11T10:30:11.792Z</time></trkpt><trkpt lat="45.3622434" lon="9.2425945"><ele>94.0</ele><time>2026-04-11T10:30:12.793Z</time></trkpt><trkpt lat="45.362128" lon="9.2422349"><ele>94.0</ele><time>2026-04-11T10:30:13.793Z</time></trkpt><trkpt lat="45.3620233" lon="9.2419068"><ele>94.0</ele><time>2026-04-11T10:30:14.793Z</time></trkpt><trkpt lat="45.3619297" lon="9.2415923"><ele>94.33333333333333</ele><time>2026-04-11T10:30:15.793Z</time></trkpt><trkpt lat="45.3618417" lon="9.2412976"><ele>94.66666666666667</ele><time>2026-04-11T10:30:16.793Z</time></trkpt><trkpt lat="45.361758" lon="9.2410166"><ele>95.0</ele><time>2026-04-11T10:30:17.793Z</time></trkpt><trkpt lat="45.3616813" lon="9.2407509"><ele>94.66666666666667</ele><time>2026-04-11T10:30:18.793Z</time></trkpt><trkpt lat="45.3616123" lon="9.2404967"><ele>94.33333333333333</ele><time>2026-04-11T10:30:19.793Z</time></trkpt><trkpt lat="45.361558" lon="9.2402357"><ele>94.0</ele><time>2026-04-11T10:30:20.793Z</time></trkpt><trkpt lat="45.3615224" lon="9.2399621"><ele>93.66666666666666</ele><time>2026-04-11T10:30:21.793Z</time></trkpt><trkpt lat="45.361502" lon="9.2396891"><ele>93.33333333333333</ele><time>2026-04-11T10:30:22.793Z</time></trkpt><trkpt lat="45.3614889" lon="9.2394196"><ele>93.0</ele><time>2026-04-11T10:30:23.794Z</time></trkpt><trkpt lat="45.3614868" lon="9.2391526"><ele>92.66666666666667</ele><time>2026-04-11T10:30:24.793Z</time></trkpt><trkpt lat="45.3614961" lon="9.2388886"><ele>92.33333333333334</ele><time>2026-04-11T10:30:25.794Z</time></trkpt><trkpt lat="45.3615167" lon="9.2386271"><ele>92.0</ele><time>2026-04-11T10:30:26.794Z</time></trkpt><trkpt lat="45.3615414" lon="9.238368"><ele>92.0</ele><time>2026-04-11T10:30:27.794Z</time></trkpt><trkpt lat="45.3615662" lon="9.2381138"><ele>92.0</ele><time>2026-04-11T10:30:28.794Z</time></trkpt><trkpt lat="45.3615907" lon="9.2378781"><ele>92.0</ele><time>2026-04-11T10:30:29.794Z</time></trkpt><trkpt lat="45.3616163" lon="9.237653"><ele>92.0</ele><time>2026-04-11T10:30:30.794Z</time></trkpt><trkpt lat="45.3616389" lon="9.2374346"><ele>92.0</ele><time>2026-04-11T10:30:31.794Z</time></trkpt><trkpt lat="45.3616583" lon="9.2372245"><ele>92.0</ele><time>2026-04-11T10:30:32.794Z</time></trkpt><trkpt lat="45.3616768" lon="9.237037"><ele>92.0</ele><time>2026-04-11T10:30:33.793Z</time></trkpt><trkpt lat="45.3616928" lon="9.2368736"><ele>92.39999999999999</ele><time>2026-04-11T10:30:34.794Z</time></trkpt><trkpt lat="45.3617171" lon="9.2367317"><ele>92.8</ele><time>2026-04-11T10:30:35.794Z</time></trkpt><trkpt lat="45.3617499" lon="9.2366128"><ele>93.2</ele><time>2026-04-11T10:30:36.794Z</time></trkpt><trkpt lat="45.3618019" lon="9.2365055"><ele>93.6</ele><time>2026-04-11T10:30:37.794Z</time></trkpt><trkpt lat="45.3619348" lon="9.2363907"><ele>94.0</ele><time>2026-04-11T10:30:39.642Z</time></trkpt><trkpt lat="45.3620433" lon="9.2363048"><ele>94.5</ele><time>2026-04-11T10:30:40.794Z</time></trkpt><trkpt lat="45.3621016" lon="9.2361914"><ele>95.0</ele><time>2026-04-11T10:30:41.794Z</time></trkpt><trkpt lat="45.362114" lon="9.2360464"><ele>95.5</ele><time>2026-04-11T10:30:42.794Z</time></trkpt><trkpt lat="45.3621086" lon="9.2358738"><ele>96.0</ele><time>2026-04-11T10:30:43.794Z</time></trkpt><trkpt lat="45.3621014" lon="9.235687"><ele>95.5</ele><time>2026-04-11T10:30:44.794Z</time></trkpt><trkpt lat="45.3621185" lon="9.235494"><ele>95.0</ele><time>2026-04-11T10:30:45.794Z</time></trkpt><trkpt lat="45.3621275" lon="9.23529"><ele>94.5</ele><time>2026-04-11T10:30:46.794Z</time></trkpt><trkpt lat="45.362119" lon="9.2350536"><ele>94.0</ele><time>2026-04-11T10:30:47.794Z</time></trkpt><trkpt lat="45.3620986" lon="9.2348238"><ele>93.66666666666666</ele><time>2026-04-11T10:30:48.794Z</time></trkpt><trkpt lat="45.3620774" lon="9.234585"><ele>93.33333333333333</ele><time>2026-04-11T10:30:49.794Z</time></trkpt><trkpt lat="45.3620578" lon="9.2343356"><ele>93.0</ele><time>2026-04-11T10:30:50.794Z</time></trkpt><trkpt lat="45.3620329" lon="9.2340836"><ele>93.66666666666667</ele><time>2026-04-11T10:30:51.794Z</time></trkpt><trkpt lat="45.3620084" lon="9.2338305"><ele>94.33333333333334</ele><time>2026-04-11T10:30:52.794Z</time></trkpt><trkpt lat="45.3619758" lon="9.2335586"><ele>95.0</ele><time>2026-04-11T10:30:53.794Z</time></trkpt><trkpt lat="45.3619355" lon="9.233281"><ele>94.66666666666667</ele><time>2026-04-11T10:30:54.794Z</time></trkpt><trkpt lat="45.3618895" lon="9.2329963"><ele>94.33333333333333</ele><time>2026-04-11T10:30:55.794Z</time></trkpt><trkpt lat="45.3618416" lon="9.2327068"><ele>94.0</ele><time>2026-04-11T10:30:56.794Z</time></trkpt><trkpt lat="45.3617913" lon="9.2324185"><ele>94.0</ele><time>2026-04-11T10:30:57.794Z</time></trkpt><trkpt lat="45.3617409" lon="9.2321568"><ele>94.0</ele><time>2026-04-11T10:30:58.794Z</time></trkpt><trkpt lat="45.3616859" lon="9.2319121"><ele>94.0</ele><time>2026-04-11T10:30:59.794Z</time></trkpt><trkpt lat="45.3616356" lon="9.2316854"><ele>94.0</ele><time>2026-04-11T10:31:00.794Z</time></trkpt><trkpt lat="45.3615861" lon="9.2314749"><ele>94.0</ele><time>2026-04-11T10:31:01.794Z</time></trkpt><trkpt lat="45.3615326" lon="9.2312582"><ele>94.0</ele><time>2026-04-11T10:31:02.794Z</time></trkpt><trkpt lat="45.3614822" lon="9.231028"><ele>94.33333333333333</ele><time>2026-04-11T10:31:03.793Z</time></trkpt><trkpt lat="45.3614333" lon="9.2308168"><ele>94.66666666666667</ele><time>2026-04-11T10:31:04.794Z</time></trkpt><trkpt lat="45.3613825" lon="9.2306148"><ele>95.0</ele><time>2026-04-11T10:31:05.794Z</time></trkpt><trkpt lat="45.3613332" lon="9.2304237"><ele>95.25</ele><time>2026-04-11T10:31:06.794Z</time></trkpt><trkpt lat="45.3612858" lon="9.2302437"><ele>95.5</ele><time>2026-04-11T10:31:07.794Z</time></trkpt><trkpt lat="45.3612423" lon="9.2300789"><ele>95.75</ele><time>2026-04-11T10:31:08.794Z</time></trkpt><trkpt lat="45.3612126" lon="9.2299253"><ele>96.0</ele><time>2026-04-11T10:31:09.794Z</time></trkpt><trkpt lat="45.3611932" lon="9.22978"><ele>95.6</ele><time>2026-04-11T10:31:10.794Z</time></trkpt><trkpt lat="45.3611896" lon="9.2296475"><ele>95.19999999999999</ele><time>2026-04-11T10:31:11.794Z</time></trkpt><trkpt lat="45.3611976" lon="9.2295235"><ele>94.80000000000001</ele><time>2026-04-11T10:31:12.795Z</time></trkpt><trkpt lat="45.3612148" lon="9.2294298"><ele>94.4</ele><time>2026-04-11T10:31:13.794Z</time></trkpt><trkpt lat="45.3612655" lon="9.2292959"><ele>94.0</ele><time>2026-04-11T10:31:15.795Z</time></trkpt><trkpt lat="45.3613488" lon="9.2292251"><ele>94.0</ele><time>2026-04-11T10:31:17.795Z</time></trkpt><trkpt lat="45.3614803" lon="9.2292329"><ele>94.0</ele><time>2026-04-11T10:31:19.794Z</time></trkpt><trkpt lat="45.3615407" lon="9.2293038"><ele>94.0</ele><time>2026-04-11T10:31:20.794Z</time></trkpt><trkpt lat="45.3615974" lon="9.2294064"><ele>94.0</ele><time>2026-04-11T10:31:21.795Z</time></trkpt><trkpt lat="45.361653" lon="9.2295406"><ele>94.0</ele><time>2026-04-11T10:31:22.795Z</time></trkpt><trkpt lat="45.3617011" lon="9.2296885"><ele>93.75</ele><time>2026-04-11T10:31:23.795Z</time></trkpt><trkpt lat="45.3617437" lon="9.2298437"><ele>93.5</ele><time>2026-04-11T10:31:24.795Z</time></trkpt><trkpt lat="45.3617851" lon="9.230003"><ele>93.25</ele><time>2026-04-11T10:31:25.795Z</time></trkpt><trkpt lat="45.3618255" lon="9.2301695"><ele>93.0</ele><time>2026-04-11T10:31:26.795Z</time></trkpt><trkpt lat="45.3618606" lon="9.2303189"><ele>93.0</ele><time>2026-04-11T10:31:27.795Z</time></trkpt><trkpt lat="45.3618878" lon="9.2304477"><ele>93.0</ele><time>2026-04-11T10:31:28.795Z</time></trkpt><trkpt lat="45.361893" lon="9.2305661"><ele>93.0</ele><time>2026-04-11T10:31:29.794Z</time></trkpt><trkpt lat="45.3618807" lon="9.2307054"><ele>93.0</ele><time>2026-04-11T10:31:30.795Z</time></trkpt><trkpt lat="45.3618232" lon="9.2308378"><ele>93.0</ele><time>2026-04-11T10:31:31.795Z</time></trkpt><trkpt lat="45.3617298" lon="9.2309281"><ele>93.5</ele><time>2026-04-11T10:31:32.795Z</time></trkpt><trkpt lat="45.3616098" lon="9.2309957"><ele>94.0</ele><time>2026-04-11T10:31:33.795Z</time></trkpt><trkpt lat="45.3614817" lon="9.2310672"><ele>94.5</ele><time>2026-04-11T10:31:34.795Z</time></trkpt><trkpt lat="45.3613333" lon="9.2311273"><ele>95.0</ele><time>2026-04-11T10:31:35.795Z</time></trkpt><trkpt lat="45.3611716" lon="9.2312128"><ele>95.0</ele><time>2026-04-11T10:31:36.794Z</time></trkpt><trkpt lat="45.3610103" lon="9.2312954"><ele>95.0</ele><time>2026-04-11T10:31:37.794Z</time></trkpt><trkpt lat="45.3608519" lon="9.2313852"><ele>95.0</ele><time>2026-04-11T10:31:38.794Z</time></trkpt><trkpt lat="45.3606997" lon="9.2314737"><ele>95.0</ele><time>2026-04-11T10:31:39.795Z</time></trkpt><trkpt lat="45.3605425" lon="9.2315516"><ele>95.0</ele><time>2026-04-11T10:31:40.795Z</time></trkpt><trkpt lat="45.3603901" lon="9.2316409"><ele>95.0</ele><time>2026-04-11T10:31:41.794Z</time></trkpt><trkpt lat="45.3602367" lon="9.2317234"><ele>95.33333333333334</ele><time>2026-04-11T10:31:42.795Z</time></trkpt><trkpt lat="45.360081" lon="9.2318012"><ele>95.66666666666667</ele><time>2026-04-11T10:31:43.795Z</time></trkpt><trkpt lat="45.3599234" lon="9.2318798"><ele>96.0</ele><time>2026-04-11T10:31:44.795Z</time></trkpt><trkpt lat="45.3597686" lon="9.2319543"><ele>96.33333333333334</ele><time>2026-04-11T10:31:45.795Z</time></trkpt><trkpt lat="45.3596127" lon="9.2320317"><ele>96.66666666666667</ele><time>2026-04-11T10:31:46.795Z</time></trkpt><trkpt lat="45.3594563" lon="9.2321069"><ele>97.0</ele><time>2026-04-11T10:31:47.795Z</time></trkpt><trkpt lat="45.3592924" lon="9.2321788"><ele>97.0</ele><time>2026-04-11T10:31:48.795Z</time></trkpt><trkpt lat="45.3591253" lon="9.2322551"><ele>97.0</ele><time>2026-04-11T10:31:49.795Z</time></trkpt><trkpt lat="45.3589603" lon="9.2323339"><ele>97.0</ele><time>2026-04-11T10:31:50.795Z</time></trkpt><trkpt lat="45.3587932" lon="9.232414"><ele>97.0</ele><time>2026-04-11T10:31:51.795Z</time></trkpt><trkpt lat="45.3586204" lon="9.2324969"><ele>97.0</ele><time>2026-04-11T10:31:52.795Z</time></trkpt><trkpt lat="45.3584467" lon="9.2325795"><ele>97.0</ele><time>2026-04-11T10:31:53.794Z</time></trkpt><trkpt lat="45.3582627" lon="9.2326686"><ele>97.0</ele><time>2026-04-11T10:31:54.794Z</time></trkpt><trkpt lat="45.3580707" lon="9.2327807"><ele>97.0</ele><time>2026-04-11T10:31:55.795Z</time></trkpt><trkpt lat="45.3578622" lon="9.2328812"><ele>97.0</ele><time>2026-04-11T10:31:56.795Z</time></trkpt><trkpt lat="45.3576504" lon="9.2329763"><ele>97.0</ele><time>2026-04-11T10:31:57.795Z</time></trkpt><trkpt lat="45.3574447" lon="9.2330724"><ele>97.0</ele><time>2026-04-11T10:31:58.795Z</time></trkpt><trkpt lat="45.3572507" lon="9.2331688"><ele>97.0</ele><time>2026-04-11T10:31:59.795Z</time></trkpt><trkpt lat="45.3570581" lon="9.2332568"><ele>96.33333333333334</ele><time>2026-04-11T10:32:00.795Z</time></trkpt><trkpt lat="45.3568727" lon="9.233352"><ele>95.66666666666667</ele><time>2026-04-11T10:32:01.796Z</time></trkpt><trkpt lat="45.3566911" lon="9.2334482"><ele>95.0</ele><time>2026-04-11T10:32:02.796Z</time></trkpt><trkpt lat="45.3565098" lon="9.2335305"><ele>95.0</ele><time>2026-04-11T10:32:03.796Z</time></trkpt><trkpt lat="45.3563311" lon="9.233614"><ele>95.0</ele><time>2026-04-11T10:32:04.795Z</time></trkpt><trkpt lat="45.3561539" lon="9.2337009"><ele>95.0</ele><time>2026-04-11T10:32:05.796Z</time></trkpt><trkpt lat="45.3559757" lon="9.23379"><ele>95.0</ele><time>2026-04-11T10:32:06.796Z</time></trkpt><trkpt lat="45.3557958" lon="9.2338853"><ele>95.0</ele><time>2026-04-11T10:32:07.796Z</time></trkpt><trkpt lat="45.3556115" lon="9.2339769"><ele>95.0</ele><time>2026-04-11T10:32:08.796Z</time></trkpt><trkpt lat="45.3554132" lon="9.2340823"><ele>94.5</ele><time>2026-04-11T10:32:09.796Z</time></trkpt><trkpt lat="45.355197" lon="9.2341796"><ele>94.0</ele><time>2026-04-11T10:32:10.795Z</time></trkpt><trkpt lat="45.3549714" lon="9.2342856"><ele>94.0</ele><time>2026-04-11T10:32:11.796Z</time></trkpt><trkpt lat="45.3547437" lon="9.2343919"><ele>94.0</ele><time>2026-04-11T10:32:12.796Z</time></trkpt><trkpt lat="45.3545141" lon="9.2344995"><ele>94.0</ele><time>2026-04-11T10:32:13.796Z</time></trkpt><trkpt lat="45.3542841" lon="9.2346084"><ele>94.0</ele><time>2026-04-11T10:32:14.796Z</time></trkpt><trkpt lat="45.3540526" lon="9.2347147"><ele>93.0</ele><time>2026-04-11T10:32:15.796Z</time></trkpt><trkpt lat="45.3538233" lon="9.2348211"><ele>92.0</ele><time>2026-04-11T10:32:16.796Z</time></trkpt><trkpt lat="45.3535991" lon="9.2349338"><ele>92.0</ele><time>2026-04-11T10:32:17.796Z</time></trkpt><trkpt lat="45.3533781" lon="9.2350442"><ele>92.0</ele><time>2026-04-11T10:32:18.796Z</time></trkpt><trkpt lat="45.3531592" lon="9.235148"><ele>93.5</ele><time>2026-04-11T10:32:19.796Z</time></trkpt><trkpt lat="45.3529421" lon="9.2352484"><ele>95.0</ele><time>2026-04-11T10:32:20.796Z</time></trkpt><trkpt lat="45.3527299" lon="9.2353509"><ele>95.0</ele><time>2026-04-11T10:32:21.796Z</time></trkpt><trkpt lat="45.3525226" lon="9.2354518"><ele>95.0</ele><time>2026-04-11T10:32:22.796Z</time></trkpt><trkpt lat="45.3523152" lon="9.2355562"><ele>95.0</ele><time>2026-04-11T10:32:23.796Z</time></trkpt><trkpt lat="45.3521136" lon="9.2356568"><ele>94.0</ele><time>2026-04-11T10:32:24.796Z</time></trkpt><trkpt lat="45.3519132" lon="9.2357496"><ele>93.0</ele><time>2026-04-11T10:32:25.796Z</time></trkpt><trkpt lat="45.3517277" lon="9.2358384"><ele>92.0</ele><time>2026-04-11T10:32:26.796Z</time></trkpt><trkpt lat="45.351553" lon="9.2359227"><ele>92.0</ele><time>2026-04-11T10:32:27.795Z</time></trkpt><trkpt lat="45.3513877" lon="9.2360091"><ele>92.0</ele><time>2026-04-11T10:32:28.796Z</time></trkpt><trkpt lat="45.3512267" lon="9.2360907"><ele>92.0</ele><time>2026-04-11T10:32:29.796Z</time></trkpt><trkpt lat="45.3510654" lon="9.2361644"><ele>92.33333333333334</ele><time>2026-04-11T10:32:30.796Z</time></trkpt><trkpt lat="45.3509046" lon="9.2362338"><ele>92.66666666666667</ele><time>2026-04-11T10:32:31.796Z</time></trkpt><trkpt lat="45.3507456" lon="9.236311"><ele>93.0</ele><time>2026-04-11T10:32:32.796Z</time></trkpt><trkpt lat="45.3505886" lon="9.2363903"><ele>92.66666666666667</ele><time>2026-04-11T10:32:33.796Z</time></trkpt><trkpt lat="45.3504296" lon="9.2364667"><ele>92.33333333333334</ele><time>2026-04-11T10:32:34.796Z</time></trkpt><trkpt lat="45.3502669" lon="9.2365419"><ele>92.0</ele><time>2026-04-11T10:32:35.795Z</time></trkpt><trkpt lat="45.3501074" lon="9.2366225"><ele>92.0</ele><time>2026-04-11T10:32:36.796Z</time></trkpt><trkpt lat="45.3499478" lon="9.2367"><ele>92.0</ele><time>2026-04-11T10:32:37.796Z</time></trkpt><trkpt lat="45.3497876" lon="9.2367759"><ele>92.0</ele><time>2026-04-11T10:32:38.796Z</time></trkpt><trkpt lat="45.3496268" lon="9.2368471"><ele>92.0</ele><time>2026-04-11T10:32:39.796Z</time></trkpt><trkpt lat="45.3494654" lon="9.2369225"><ele>92.0</ele><time>2026-04-11T10:32:40.796Z</time></trkpt><trkpt lat="45.3493053" lon="9.2370022"><ele>92.0</ele><time>2026-04-11T10:32:41.795Z</time></trkpt><trkpt lat="45.3491408" lon="9.2370834"><ele>92.0</ele><time>2026-04-11T10:32:42.795Z</time></trkpt><trkpt lat="45.3489753" lon="9.2371663"><ele>92.0</ele><time>2026-04-11T10:32:43.796Z</time></trkpt><trkpt lat="45.3488048" lon="9.2372432"><ele>92.0</ele><time>2026-04-11T10:32:44.796Z</time></trkpt><trkpt lat="45.3486306" lon="9.2373225"><ele>92.0</ele><time>2026-04-11T10:32:45.796Z</time></trkpt><trkpt lat="45.3484579" lon="9.2374031"><ele>92.0</ele><time>2026-04-11T10:32:46.796Z</time></trkpt><trkpt lat="45.3482838" lon="9.2374909"><ele>92.0</ele><time>2026-04-11T10:32:47.796Z</time></trkpt><trkpt lat="45.3481008" lon="9.2375745"><ele>91.66666666666667</ele><time>2026-04-11T10:32:48.796Z</time></trkpt><trkpt lat="45.3479193" lon="9.2376641"><ele>91.33333333333333</ele><time>2026-04-11T10:32:49.796Z</time></trkpt><trkpt lat="45.3477326" lon="9.2377637"><ele>91.0</ele><time>2026-04-11T10:32:50.796Z</time></trkpt><trkpt lat="45.3475402" lon="9.2378676"><ele>91.0</ele><time>2026-04-11T10:32:51.797Z</time></trkpt><trkpt lat="45.3473441" lon="9.2379609"><ele>91.0</ele><time>2026-04-11T10:32:52.797Z</time></trkpt><trkpt lat="45.3471498" lon="9.2380502"><ele>91.0</ele><time>2026-04-11T10:32:53.797Z</time></trkpt><trkpt lat="45.3469692" lon="9.2381367"><ele>91.0</ele><time>2026-04-11T10:32:54.797Z</time></trkpt><trkpt lat="45.3467961" lon="9.2382251"><ele>91.0</ele><time>2026-04-11T10:32:55.797Z</time></trkpt><trkpt lat="45.3466325" lon="9.2383172"><ele>91.0</ele><time>2026-04-11T10:32:56.797Z</time></trkpt><trkpt lat="45.346462" lon="9.2384168"><ele>91.33333333333333</ele><time>2026-04-11T10:32:57.797Z</time></trkpt><trkpt lat="45.3462952" lon="9.23853"><ele>91.66666666666667</ele><time>2026-04-11T10:32:58.796Z</time></trkpt><trkpt lat="45.3461353" lon="9.2386354"><ele>92.0</ele><time>2026-04-11T10:32:59.797Z</time></trkpt><trkpt lat="45.3459753" lon="9.2387416"><ele>92.0</ele><time>2026-04-11T10:33:00.797Z</time></trkpt><trkpt lat="45.3458113" lon="9.2388567"><ele>92.0</ele><time>2026-04-11T10:33:01.797Z</time></trkpt><trkpt lat="45.3456463" lon="9.2389793"><ele>92.0</ele><time>2026-04-11T10:33:02.797Z</time></trkpt><trkpt lat="45.3454832" lon="9.2391123"><ele>92.0</ele><time>2026-04-11T10:33:03.797Z</time></trkpt><trkpt lat="45.3453219" lon="9.2392435"><ele>92.0</ele><time>2026-04-11T10:33:04.797Z</time></trkpt><trkpt lat="45.3451716" lon="9.2393694"><ele>92.0</ele><time>2026-04-11T10:33:05.797Z</time></trkpt><trkpt lat="45.345026" lon="9.2395013"><ele>92.0</ele><time>2026-04-11T10:33:06.797Z</time></trkpt><trkpt lat="45.344884" lon="9.2396418"><ele>92.0</ele><time>2026-04-11T10:33:07.797Z</time></trkpt><trkpt lat="45.3447431" lon="9.2397847"><ele>92.0</ele><time>2026-04-11T10:33:08.797Z</time></trkpt><trkpt lat="45.3446067" lon="9.2399348"><ele>91.66666666666667</ele><time>2026-04-11T10:33:09.797Z</time></trkpt><trkpt lat="45.3444685" lon="9.2400884"><ele>91.33333333333333</ele><time>2026-04-11T10:33:10.797Z</time></trkpt><trkpt lat="45.3443346" lon="9.2402434"><ele>91.0</ele><time>2026-04-11T10:33:11.796Z</time></trkpt><trkpt lat="45.3442031" lon="9.2403922"><ele>91.0</ele><time>2026-04-11T10:33:12.797Z</time></trkpt><trkpt lat="45.3440759" lon="9.2405382"><ele>91.0</ele><time>2026-04-11T10:33:13.797Z</time></trkpt><trkpt lat="45.3439512" lon="9.2406832"><ele>91.0</ele><time>2026-04-11T10:33:14.796Z</time></trkpt><trkpt lat="45.3438289" lon="9.2408214"><ele>90.66666666666666</ele><time>2026-04-11T10:33:15.797Z</time></trkpt><trkpt lat="45.3437096" lon="9.2409607"><ele>90.33333333333333</ele><time>2026-04-11T10:33:16.796Z</time></trkpt><trkpt lat="45.3435868" lon="9.2411031"><ele>90.0</ele><time>2026-04-11T10:33:17.797Z</time></trkpt><trkpt lat="45.3434644" lon="9.241244"><ele>90.0</ele><time>2026-04-11T10:33:18.797Z</time></trkpt><trkpt lat="45.3433426" lon="9.2413876"><ele>90.0</ele><time>2026-04-11T10:33:19.797Z</time></trkpt><trkpt lat="45.3432174" lon="9.2415305"><ele>90.0</ele><time>2026-04-11T10:33:20.797Z</time></trkpt><trkpt lat="45.3430908" lon="9.2416801"><ele>90.33333333333333</ele><time>2026-04-11T10:33:21.797Z</time></trkpt><trkpt lat="45.3429574" lon="9.2418383"><ele>90.66666666666666</ele><time>2026-04-11T10:33:22.797Z</time></trkpt><trkpt lat="45.3428159" lon="9.2420029"><ele>91.0</ele><time>2026-04-11T10:33:23.797Z</time></trkpt><trkpt lat="45.3426662" lon="9.2421733"><ele>91.33333333333333</ele><time>2026-04-11T10:33:24.797Z</time></trkpt><trkpt lat="45.3425206" lon="9.2423468"><ele>91.66666666666667</ele><time>2026-04-11T10:33:25.797Z</time></trkpt><trkpt lat="45.3423778" lon="9.2425024"><ele>92.0</ele><time>2026-04-11T10:33:26.796Z</time></trkpt><trkpt lat="45.3422271" lon="9.2426706"><ele>91.66666666666667</ele><time>2026-04-11T10:33:27.797Z</time></trkpt><trkpt lat="45.3420909" lon="9.2428276"><ele>91.33333333333333</ele><time>2026-04-11T10:33:28.797Z</time></trkpt><trkpt lat="45.341965" lon="9.2429801"><ele>91.0</ele><time>2026-04-11T10:33:29.797Z</time></trkpt><trkpt lat="45.3418329" lon="9.2431384"><ele>91.0</ele><time>2026-04-11T10:33:30.797Z</time></trkpt><trkpt lat="45.3416869" lon="9.2433103"><ele>91.0</ele><time>2026-04-11T10:33:31.797Z</time></trkpt><trkpt lat="45.3415327" lon="9.2434867"><ele>91.0</ele><time>2026-04-11T10:33:32.797Z</time></trkpt><trkpt lat="45.3413755" lon="9.24366"><ele>91.0</ele><time>2026-04-11T10:33:33.797Z</time></trkpt><trkpt lat="45.3412194" lon="9.2438367"><ele>91.0</ele><time>2026-04-11T10:33:34.797Z</time></trkpt><trkpt lat="45.3410607" lon="9.2440207"><ele>91.0</ele><time>2026-04-11T10:33:35.797Z</time></trkpt><trkpt lat="45.340907" lon="9.2442062"><ele>91.0</ele><time>2026-04-11T10:33:36.796Z</time></trkpt><trkpt lat="45.340753" lon="9.2443894"><ele>91.0</ele><time>2026-04-11T10:33:37.797Z</time></trkpt><trkpt lat="45.3406001" lon="9.2445644"><ele>91.0</ele><time>2026-04-11T10:33:38.797Z</time></trkpt><trkpt lat="45.3404494" lon="9.2447458"><ele>91.0</ele><time>2026-04-11T10:33:39.798Z</time></trkpt><trkpt lat="45.3402943" lon="9.2449298"><ele>91.0</ele><time>2026-04-11T10:33:40.798Z</time></trkpt><trkpt lat="45.3401336" lon="9.2451104"><ele>91.0</ele><time>2026-04-11T10:33:41.798Z</time></trkpt><trkpt lat="45.3399735" lon="9.2452918"><ele>91.0</ele><time>2026-04-11T10:33:42.798Z</time></trkpt><trkpt lat="45.3398124" lon="9.2454822"><ele>91.0</ele><time>2026-04-11T10:33:43.798Z</time></trkpt><trkpt lat="45.3396499" lon="9.2456765"><ele>91.0</ele><time>2026-04-11T10:33:44.797Z</time></trkpt><trkpt lat="45.3394813" lon="9.2458699"><ele>92.0</ele><time>2026-04-11T10:33:45.798Z</time></trkpt><trkpt lat="45.3393131" lon="9.2460623"><ele>93.0</ele><time>2026-04-11T10:33:46.798Z</time></trkpt><trkpt lat="45.3391454" lon="9.2462522"><ele>94.0</ele><time>2026-04-11T10:33:47.798Z</time></trkpt><trkpt lat="45.338984" lon="9.2464314"><ele>93.66666666666666</ele><time>2026-04-11T10:33:48.798Z</time></trkpt><trkpt lat="45.3388358" lon="9.2465982"><ele>93.33333333333333</ele><time>2026-04-11T10:33:49.798Z</time></trkpt><trkpt lat="45.3386941" lon="9.24676"><ele>93.0</ele><time>2026-04-11T10:33:50.798Z</time></trkpt><trkpt lat="45.3385552" lon="9.246922"><ele>93.0</ele><time>2026-04-11T10:33:51.798Z</time></trkpt><trkpt lat="45.3384164" lon="9.2470815"><ele>93.0</ele><time>2026-04-11T10:33:52.798Z</time></trkpt><trkpt lat="45.3382749" lon="9.2472444"><ele>93.0</ele><time>2026-04-11T10:33:53.798Z</time></trkpt><trkpt lat="45.3381321" lon="9.2474089"><ele>93.0</ele><time>2026-04-11T10:33:54.797Z</time></trkpt><trkpt lat="45.3379879" lon="9.2475767"><ele>93.0</ele><time>2026-04-11T10:33:55.798Z</time></trkpt><trkpt lat="45.3378432" lon="9.2477448"><ele>93.0</ele><time>2026-04-11T10:33:56.797Z</time></trkpt><trkpt lat="45.3376963" lon="9.2479185"><ele>93.0</ele><time>2026-04-11T10:33:57.798Z</time></trkpt><trkpt lat="45.3375408" lon="9.2480878"><ele>93.0</ele><time>2026-04-11T10:33:58.798Z</time></trkpt><trkpt lat="45.3373854" lon="9.2482556"><ele>93.0</ele><time>2026-04-11T10:33:59.798Z</time></trkpt><trkpt lat="45.3372259" lon="9.2484221"><ele>93.0</ele><time>2026-04-11T10:34:00.798Z</time></trkpt><trkpt lat="45.3370715" lon="9.248585"><ele>93.0</ele><time>2026-04-11T10:34:01.797Z</time></trkpt><trkpt lat="45.3369154" lon="9.2487386"><ele>93.0</ele><time>2026-04-11T10:34:02.798Z</time></trkpt><trkpt lat="45.3367597" lon="9.2488893"><ele>93.33333333333333</ele><time>2026-04-11T10:34:03.798Z</time></trkpt><trkpt lat="45.3366062" lon="9.2490414"><ele>93.66666666666666</ele><time>2026-04-11T10:34:04.798Z</time></trkpt><trkpt lat="45.3364475" lon="9.2491831"><ele>94.0</ele><time>2026-04-11T10:34:05.798Z</time></trkpt><trkpt lat="45.3362843" lon="9.2493225"><ele>94.0</ele><time>2026-04-11T10:34:06.798Z</time></trkpt><trkpt lat="45.3361139" lon="9.2494593"><ele>94.0</ele><time>2026-04-11T10:34:07.797Z</time></trkpt><trkpt lat="45.3359369" lon="9.2495979"><ele>94.0</ele><time>2026-04-11T10:34:08.797Z</time></trkpt><trkpt lat="45.3357594" lon="9.2497179"><ele>94.0</ele><time>2026-04-11T10:34:09.798Z</time></trkpt><trkpt lat="45.3355833" lon="9.2498231"><ele>94.0</ele><time>2026-04-11T10:34:10.798Z</time></trkpt><trkpt lat="45.335403" lon="9.2499336"><ele>94.0</ele><time>2026-04-11T10:34:11.798Z</time></trkpt><trkpt lat="45.3352219" lon="9.2500473"><ele>94.0</ele><time>2026-04-11T10:34:12.797Z</time></trkpt><trkpt lat="45.3350442" lon="9.2501471"><ele>94.0</ele><time>2026-04-11T10:34:13.798Z</time></trkpt><trkpt lat="45.3348768" lon="9.2502323"><ele>94.0</ele><time>2026-04-11T10:34:14.798Z</time></trkpt><trkpt lat="45.3347184" lon="9.2503116"><ele>92.66666666666666</ele><time>2026-04-11T10:34:15.798Z</time></trkpt><trkpt lat="45.3345596" lon="9.2503799"><ele>91.33333333333333</ele><time>2026-04-11T10:34:16.798Z</time></trkpt><trkpt lat="45.3343995" lon="9.2504433"><ele>90.0</ele><time>2026-04-11T10:34:17.798Z</time></trkpt><trkpt lat="45.3342393" lon="9.2505137"><ele>90.0</ele><time>2026-04-11T10:34:18.797Z</time></trkpt><trkpt lat="45.3340789" lon="9.2505842"><ele>90.0</ele><time>2026-04-11T10:34:19.798Z</time></trkpt><trkpt lat="45.3339051" lon="9.2506379"><ele>90.0</ele><time>2026-04-11T10:34:20.798Z</time></trkpt><trkpt lat="45.3337306" lon="9.2506858"><ele>91.0</ele><time>2026-04-11T10:34:21.798Z</time></trkpt><trkpt lat="45.3335477" lon="9.2507385"><ele>92.0</ele><time>2026-04-11T10:34:22.798Z</time></trkpt><trkpt lat="45.3333713" lon="9.2507941"><ele>93.0</ele><time>2026-04-11T10:34:23.798Z</time></trkpt><trkpt lat="45.3331961" lon="9.2508443"><ele>92.66666666666667</ele><time>2026-04-11T10:34:24.797Z</time></trkpt><trkpt lat="45.3330212" lon="9.2509006"><ele>92.33333333333334</ele><time>2026-04-11T10:34:25.798Z</time></trkpt><trkpt lat="45.3328516" lon="9.2509589"><ele>92.0</ele><time>2026-04-11T10:34:26.799Z</time></trkpt><trkpt lat="45.3326843" lon="9.2510174"><ele>92.0</ele><time>2026-04-11T10:34:27.799Z</time></trkpt><trkpt lat="45.332519" lon="9.2510883"><ele>92.0</ele><time>2026-04-11T10:34:28.799Z</time></trkpt><trkpt lat="45.3323496" lon="9.2511534"><ele>92.0</ele><time>2026-04-11T10:34:29.798Z</time></trkpt><trkpt lat="45.3321869" lon="9.2512266"><ele>91.66666666666667</ele><time>2026-04-11T10:34:30.799Z</time></trkpt><trkpt lat="45.3320311" lon="9.2513095"><ele>91.33333333333333</ele><time>2026-04-11T10:34:31.795Z</time></trkpt><trkpt lat="45.3318741" lon="9.2513933"><ele>91.0</ele><time>2026-04-11T10:34:32.799Z</time></trkpt><trkpt lat="45.3317173" lon="9.2514796"><ele>91.0</ele><time>2026-04-11T10:34:33.799Z</time></trkpt><trkpt lat="45.331552" lon="9.2515555"><ele>91.0</ele><time>2026-04-11T10:34:34.799Z</time></trkpt><trkpt lat="45.3313926" lon="9.251646"><ele>91.0</ele><time>2026-04-11T10:34:35.799Z</time></trkpt><trkpt lat="45.3312325" lon="9.2517467"><ele>91.0</ele><time>2026-04-11T10:34:36.798Z</time></trkpt><trkpt lat="45.3310741" lon="9.2518539"><ele>91.0</ele><time>2026-04-11T10:34:37.799Z</time></trkpt><trkpt lat="45.330914" lon="9.2519733"><ele>91.0</ele><time>2026-04-11T10:34:38.798Z</time></trkpt><trkpt lat="45.3307462" lon="9.252111"><ele>91.0</ele><time>2026-04-11T10:34:39.799Z</time></trkpt><trkpt lat="45.3305493" lon="9.2522711"><ele>91.0</ele><time>2026-04-11T10:34:40.799Z</time></trkpt><trkpt lat="45.3303316" lon="9.2524688"><ele>90.5</ele><time>2026-04-11T10:34:41.798Z</time></trkpt><trkpt lat="45.3300797" lon="9.2526682"><ele>90.0</ele><time>2026-04-11T10:34:42.799Z</time></trkpt><trkpt lat="45.3298209" lon="9.2528767"><ele>90.0</ele><time>2026-04-11T10:34:43.799Z</time></trkpt><trkpt lat="45.3295639" lon="9.2530956"><ele>90.0</ele><time>2026-04-11T10:34:44.799Z</time></trkpt><trkpt lat="45.3293135" lon="9.2533059"><ele>90.0</ele><time>2026-04-11T10:34:45.799Z</time></trkpt><trkpt lat="45.3290732" lon="9.2535"><ele>90.0</ele><time>2026-04-11T10:34:46.799Z</time></trkpt><trkpt lat="45.3288411" lon="9.2536906"><ele>90.0</ele><time>2026-04-11T10:34:47.799Z</time></trkpt><trkpt lat="45.3286185" lon="9.2538673"><ele>90.0</ele><time>2026-04-11T10:34:48.799Z</time></trkpt><trkpt lat="45.3284069" lon="9.2540367"><ele>90.0</ele><time>2026-04-11T10:34:49.799Z</time></trkpt><trkpt lat="45.3282067" lon="9.2542059"><ele>90.0</ele><time>2026-04-11T10:34:50.799Z</time></trkpt><trkpt lat="45.3280133" lon="9.2543656"><ele>90.0</ele><time>2026-04-11T10:34:51.799Z</time></trkpt><trkpt lat="45.3278299" lon="9.2545195"><ele>90.0</ele><time>2026-04-11T10:34:52.799Z</time></trkpt><trkpt lat="45.3276529" lon="9.2546659"><ele>90.0</ele><time>2026-04-11T10:34:53.799Z</time></trkpt><trkpt lat="45.3274826" lon="9.2548115"><ele>90.0</ele><time>2026-04-11T10:34:54.798Z</time></trkpt><trkpt lat="45.3273167" lon="9.2549518"><ele>90.0</ele><time>2026-04-11T10:34:55.799Z</time></trkpt><trkpt lat="45.3271495" lon="9.2550908"><ele>90.0</ele><time>2026-04-11T10:34:56.798Z</time></trkpt><trkpt lat="45.3269803" lon="9.2552261"><ele>90.0</ele><time>2026-04-11T10:34:57.798Z</time></trkpt><trkpt lat="45.3268142" lon="9.255364"><ele>90.0</ele><time>2026-04-11T10:34:58.799Z</time></trkpt><trkpt lat="45.3266518" lon="9.2554989"><ele>90.0</ele><time>2026-04-11T10:34:59.799Z</time></trkpt><trkpt lat="45.3264924" lon="9.2556407"><ele>89.33333333333333</ele><time>2026-04-11T10:35:00.798Z</time></trkpt><trkpt lat="45.3263355" lon="9.2557736"><ele>88.66666666666666</ele><time>2026-04-11T10:35:01.799Z</time></trkpt><trkpt lat="45.3261782" lon="9.2559107"><ele>88.0</ele><time>2026-04-11T10:35:02.799Z</time></trkpt><trkpt lat="45.326013" lon="9.2560446"><ele>88.0</ele><time>2026-04-11T10:35:03.798Z</time></trkpt><trkpt lat="45.3258448" lon="9.256172"><ele>88.0</ele><time>2026-04-11T10:35:04.798Z</time></trkpt><trkpt lat="45.3256768" lon="9.2563209"><ele>88.0</ele><time>2026-04-11T10:35:05.799Z</time></trkpt><trkpt lat="45.3255013" lon="9.2564735"><ele>88.0</ele><time>2026-04-11T10:35:06.799Z</time></trkpt><trkpt lat="45.3253273" lon="9.2566223"><ele>88.0</ele><time>2026-04-11T10:35:07.799Z</time></trkpt><trkpt lat="45.3251555" lon="9.256764"><ele>88.0</ele><time>2026-04-11T10:35:08.799Z</time></trkpt><trkpt lat="45.3249971" lon="9.2569013"><ele>88.0</ele><time>2026-04-11T10:35:09.799Z</time></trkpt><trkpt lat="45.3248495" lon="9.2570351"><ele>88.0</ele><time>2026-04-11T10:35:10.799Z</time></trkpt><trkpt lat="45.3247057" lon="9.2571752"><ele>88.0</ele><time>2026-04-11T10:35:11.798Z</time></trkpt><trkpt lat="45.3245625" lon="9.2573198"><ele>88.33333333333333</ele><time>2026-04-11T10:35:12.799Z</time></trkpt><trkpt lat="45.3244194" lon="9.2574688"><ele>88.66666666666667</ele><time>2026-04-11T10:35:13.798Z</time></trkpt><trkpt lat="45.3242802" lon="9.2576277"><ele>89.0</ele><time>2026-04-11T10:35:14.799Z</time></trkpt><trkpt lat="45.3241394" lon="9.257789"><ele>89.0</ele><time>2026-04-11T10:35:15.8Z</time></trkpt><trkpt lat="45.3240012" lon="9.2579501"><ele>89.0</ele><time>2026-04-11T10:35:16.8Z</time></trkpt><trkpt lat="45.3238626" lon="9.2581137"><ele>89.0</ele><time>2026-04-11T10:35:17.8Z</time></trkpt><trkpt lat="45.3237282" lon="9.2582781"><ele>90.0</ele><time>2026-04-11T10:35:18.8Z</time></trkpt><trkpt lat="45.3236025" lon="9.2584509"><ele>91.0</ele><time>2026-04-11T10:35:19.8Z</time></trkpt><trkpt lat="45.3234774" lon="9.2586241"><ele>92.0</ele><time>2026-04-11T10:35:20.8Z</time></trkpt><trkpt lat="45.3233552" lon="9.2587959"><ele>92.0</ele><time>2026-04-11T10:35:21.8Z</time></trkpt><trkpt lat="45.3232376" lon="9.2589769"><ele>92.0</ele><time>2026-04-11T10:35:22.8Z</time></trkpt><trkpt lat="45.3231134" lon="9.2591696"><ele>92.0</ele><time>2026-04-11T10:35:23.8Z</time></trkpt><trkpt lat="45.3229911" lon="9.2593526"><ele>91.0</ele><time>2026-04-11T10:35:24.8Z</time></trkpt><trkpt lat="45.3228663" lon="9.2595363"><ele>90.0</ele><time>2026-04-11T10:35:25.8Z</time></trkpt><trkpt lat="45.3227384" lon="9.2597209"><ele>89.0</ele><time>2026-04-11T10:35:26.8Z</time></trkpt><trkpt lat="45.3226151" lon="9.2599075"><ele>89.0</ele><time>2026-04-11T10:35:27.8Z</time></trkpt><trkpt lat="45.3224922" lon="9.2600917"><ele>89.0</ele><time>2026-04-11T10:35:28.8Z</time></trkpt><trkpt lat="45.3223729" lon="9.2602854"><ele>89.0</ele><time>2026-04-11T10:35:29.8Z</time></trkpt><trkpt lat="45.3222484" lon="9.2604682"><ele>89.0</ele><time>2026-04-11T10:35:30.8Z</time></trkpt><trkpt lat="45.3221242" lon="9.2606484"><ele>89.0</ele><time>2026-04-11T10:35:31.8Z</time></trkpt><trkpt lat="45.3220029" lon="9.2608283"><ele>89.0</ele><time>2026-04-11T10:35:32.8Z</time></trkpt><trkpt lat="45.3218852" lon="9.2609974"><ele>89.0</ele><time>2026-04-11T10:35:33.8Z</time></trkpt><trkpt lat="45.3217645" lon="9.2611671"><ele>89.0</ele><time>2026-04-11T10:35:34.8Z</time></trkpt><trkpt lat="45.3216371" lon="9.2613268"><ele>89.0</ele><time>2026-04-11T10:35:35.8Z</time></trkpt><trkpt lat="45.3215077" lon="9.26148"><ele>89.33333333333334</ele><time>2026-04-11T10:35:36.8Z</time></trkpt><trkpt lat="45.3213757" lon="9.2616318"><ele>89.66666666666667</ele><time>2026-04-11T10:35:37.8Z</time></trkpt><trkpt lat="45.3212447" lon="9.2617842"><ele>90.0</ele><time>2026-04-11T10:35:38.8Z</time></trkpt><trkpt lat="45.3211059" lon="9.2619409"><ele>90.0</ele><time>2026-04-11T10:35:39.8Z</time></trkpt><trkpt lat="45.3209685" lon="9.2620898"><ele>90.0</ele><time>2026-04-11T10:35:40.8Z</time></trkpt><trkpt lat="45.3208272" lon="9.2622227"><ele>90.0</ele><time>2026-04-11T10:35:41.8Z</time></trkpt><trkpt lat="45.3206865" lon="9.2623578"><ele>89.0</ele><time>2026-04-11T10:35:42.799Z</time></trkpt><trkpt lat="45.3205489" lon="9.2624963"><ele>88.0</ele><time>2026-04-11T10:35:43.8Z</time></trkpt><trkpt lat="45.3204092" lon="9.262626"><ele>87.0</ele><time>2026-04-11T10:35:44.8Z</time></trkpt><trkpt lat="45.3202584" lon="9.262748"><ele>87.0</ele><time>2026-04-11T10:35:45.8Z</time></trkpt><trkpt lat="45.3201115" lon="9.262872"><ele>87.0</ele><time>2026-04-11T10:35:46.8Z</time></trkpt><trkpt lat="45.3199571" lon="9.2629959"><ele>87.0</ele><time>2026-04-11T10:35:47.799Z</time></trkpt><trkpt lat="45.3197968" lon="9.2631161"><ele>87.66666666666667</ele><time>2026-04-11T10:35:48.8Z</time></trkpt><trkpt lat="45.3196315" lon="9.2632427"><ele>88.33333333333334</ele><time>2026-04-11T10:35:49.8Z</time></trkpt><trkpt lat="45.3194472" lon="9.2633786"><ele>89.0</ele><time>2026-04-11T10:35:50.799Z</time></trkpt><trkpt lat="45.3192537" lon="9.2635194"><ele>89.0</ele><time>2026-04-11T10:35:51.8Z</time></trkpt><trkpt lat="45.3190525" lon="9.2636648"><ele>89.0</ele><time>2026-04-11T10:35:52.799Z</time></trkpt><trkpt lat="45.3188551" lon="9.2638065"><ele>89.0</ele><time>2026-04-11T10:35:53.8Z</time></trkpt><trkpt lat="45.3186689" lon="9.263951"><ele>89.0</ele><time>2026-04-11T10:35:54.799Z</time></trkpt><trkpt lat="45.3184917" lon="9.2640936"><ele>89.0</ele><time>2026-04-11T10:35:55.8Z</time></trkpt><trkpt lat="45.3183207" lon="9.2642327"><ele>89.0</ele><time>2026-04-11T10:35:56.8Z</time></trkpt><trkpt lat="45.3181553" lon="9.264367"><ele>88.66666666666667</ele><time>2026-04-11T10:35:57.8Z</time></trkpt><trkpt lat="45.3179958" lon="9.2645046"><ele>88.33333333333333</ele><time>2026-04-11T10:35:58.8Z</time></trkpt><trkpt lat="45.3178457" lon="9.2646412"><ele>88.0</ele><time>2026-04-11T10:35:59.8Z</time></trkpt><trkpt lat="45.3176972" lon="9.2647829"><ele>88.0</ele><time>2026-04-11T10:36:00.8Z</time></trkpt><trkpt lat="45.3175456" lon="9.2649275"><ele>88.0</ele><time>2026-04-11T10:36:01.8Z</time></trkpt><trkpt lat="45.3173982" lon="9.2650626"><ele>88.0</ele><time>2026-04-11T10:36:02.799Z</time></trkpt><trkpt lat="45.3172507" lon="9.2652009"><ele>88.0</ele><time>2026-04-11T10:36:03.801Z</time></trkpt><trkpt lat="45.3171035" lon="9.2653444"><ele>88.0</ele><time>2026-04-11T10:36:04.801Z</time></trkpt><trkpt lat="45.316957" lon="9.2654951"><ele>88.0</ele><time>2026-04-11T10:36:05.8Z</time></trkpt><trkpt lat="45.3168051" lon="9.2656433"><ele>88.33333333333333</ele><time>2026-04-11T10:36:06.801Z</time></trkpt><trkpt lat="45.3166519" lon="9.2657986"><ele>88.66666666666667</ele><time>2026-04-11T10:36:07.801Z</time></trkpt><trkpt lat="45.3164956" lon="9.2659528"><ele>89.0</ele><time>2026-04-11T10:36:08.801Z</time></trkpt><trkpt lat="45.3163371" lon="9.2661088"><ele>88.33333333333334</ele><time>2026-04-11T10:36:09.801Z</time></trkpt><trkpt lat="45.316178" lon="9.2662694"><ele>87.66666666666667</ele><time>2026-04-11T10:36:10.801Z</time></trkpt><trkpt lat="45.3160139" lon="9.2664337"><ele>87.0</ele><time>2026-04-11T10:36:11.801Z</time></trkpt><trkpt lat="45.3158507" lon="9.2665961"><ele>87.0</ele><time>2026-04-11T10:36:12.801Z</time></trkpt><trkpt lat="45.3156847" lon="9.2667578"><ele>87.0</ele><time>2026-04-11T10:36:13.801Z</time></trkpt><trkpt lat="45.3155219" lon="9.26692"><ele>87.0</ele><time>2026-04-11T10:36:14.801Z</time></trkpt><trkpt lat="45.3153582" lon="9.2670777"><ele>87.0</ele><time>2026-04-11T10:36:15.801Z</time></trkpt><trkpt lat="45.3151956" lon="9.2672254"><ele>87.0</ele><time>2026-04-11T10:36:16.801Z</time></trkpt><trkpt lat="45.3150353" lon="9.2673797"><ele>87.0</ele><time>2026-04-11T10:36:17.801Z</time></trkpt><trkpt lat="45.3148755" lon="9.267531"><ele>87.33333333333333</ele><time>2026-04-11T10:36:18.801Z</time></trkpt><trkpt lat="45.3147148" lon="9.2676882"><ele>87.66666666666666</ele><time>2026-04-11T10:36:19.801Z</time></trkpt><trkpt lat="45.3145512" lon="9.2678448"><ele>88.0</ele><time>2026-04-11T10:36:20.801Z</time></trkpt><trkpt lat="45.3143861" lon="9.2679934"><ele>87.66666666666666</ele><time>2026-04-11T10:36:21.801Z</time></trkpt><trkpt lat="45.3142202" lon="9.2681422"><ele>87.33333333333333</ele><time>2026-04-11T10:36:22.801Z</time></trkpt><trkpt lat="45.3140579" lon="9.2682825"><ele>87.0</ele><time>2026-04-11T10:36:23.8Z</time></trkpt><trkpt lat="45.3138959" lon="9.2684267"><ele>87.0</ele><time>2026-04-11T10:36:24.801Z</time></trkpt><trkpt lat="45.3137296" lon="9.2685652"><ele>87.0</ele><time>2026-04-11T10:36:25.801Z</time></trkpt><trkpt lat="45.3135606" lon="9.268697"><ele>87.0</ele><time>2026-04-11T10:36:26.801Z</time></trkpt><trkpt lat="45.3133928" lon="9.2688309"><ele>87.0</ele><time>2026-04-11T10:36:27.801Z</time></trkpt><trkpt lat="45.3132289" lon="9.26896"><ele>87.0</ele><time>2026-04-11T10:36:28.801Z</time></trkpt><trkpt lat="45.3130581" lon="9.2690864"><ele>87.0</ele><time>2026-04-11T10:36:29.801Z</time></trkpt><trkpt lat="45.3128929" lon="9.2692077"><ele>87.0</ele><time>2026-04-11T10:36:30.801Z</time></trkpt><trkpt lat="45.3127267" lon="9.2693249"><ele>87.0</ele><time>2026-04-11T10:36:31.801Z</time></trkpt><trkpt lat="45.3125603" lon="9.2694414"><ele>87.0</ele><time>2026-04-11T10:36:32.801Z</time></trkpt><trkpt lat="45.3123967" lon="9.2695447"><ele>87.0</ele><time>2026-04-11T10:36:33.8Z</time></trkpt><trkpt lat="45.3122341" lon="9.2696535"><ele>87.0</ele><time>2026-04-11T10:36:34.801Z</time></trkpt><trkpt lat="45.3120723" lon="9.2697678"><ele>87.0</ele><time>2026-04-11T10:36:35.8Z</time></trkpt><trkpt lat="45.3119094" lon="9.2698821"><ele>87.0</ele><time>2026-04-11T10:36:36.801Z</time></trkpt><trkpt lat="45.3117448" lon="9.2699903"><ele>87.0</ele><time>2026-04-11T10:36:37.801Z</time></trkpt><trkpt lat="45.3115815" lon="9.2700933"><ele>87.0</ele><time>2026-04-11T10:36:38.801Z</time></trkpt><trkpt lat="45.3114166" lon="9.2701843"><ele>86.66666666666667</ele><time>2026-04-11T10:36:39.801Z</time></trkpt><trkpt lat="45.3112542" lon="9.2702708"><ele>86.33333333333334</ele><time>2026-04-11T10:36:40.801Z</time></trkpt><trkpt lat="45.3111054" lon="9.2703499"><ele>86.0</ele><time>2026-04-11T10:36:41.801Z</time></trkpt><trkpt lat="45.310973" lon="9.2704297"><ele>86.0</ele><time>2026-04-11T10:36:42.801Z</time></trkpt><trkpt lat="45.3108503" lon="9.2705154"><ele>86.0</ele><time>2026-04-11T10:36:43.801Z</time></trkpt><trkpt lat="45.3107305" lon="9.2705939"><ele>86.0</ele><time>2026-04-11T10:36:44.8Z</time></trkpt><trkpt lat="45.3106051" lon="9.2706742"><ele>86.0</ele><time>2026-04-11T10:36:45.801Z</time></trkpt><trkpt lat="45.3104755" lon="9.2707505"><ele>86.5</ele><time>2026-04-11T10:36:46.801Z</time></trkpt><trkpt lat="45.3103534" lon="9.2708257"><ele>87.0</ele><time>2026-04-11T10:36:47.801Z</time></trkpt><trkpt lat="45.3102263" lon="9.2709007"><ele>87.5</ele><time>2026-04-11T10:36:48.801Z</time></trkpt><trkpt lat="45.3101099" lon="9.2709647"><ele>88.0</ele><time>2026-04-11T10:36:49.801Z</time></trkpt><trkpt lat="45.3100086" lon="9.2710252"><ele>88.0</ele><time>2026-04-11T10:36:50.801Z</time></trkpt><trkpt lat="45.3099149" lon="9.2710814"><ele>88.0</ele><time>2026-04-11T10:36:51.801Z</time></trkpt><trkpt lat="45.3098341" lon="9.2711316"><ele>88.0</ele><time>2026-04-11T10:36:52.802Z</time></trkpt><trkpt lat="45.3097513" lon="9.271168"><ele>88.0</ele><time>2026-04-11T10:36:53.802Z</time></trkpt><trkpt lat="45.3096762" lon="9.2711814"><ele>88.0</ele><time>2026-04-11T10:36:54.802Z</time></trkpt><trkpt lat="45.3096004" lon="9.2711876"><ele>88.0</ele><time>2026-04-11T10:36:55.802Z</time></trkpt><trkpt lat="45.3095071" lon="9.2711868"><ele>87.60000000000001</ele><time>2026-04-11T10:36:56.802Z</time></trkpt><trkpt lat="45.3094091" lon="9.271165"><ele>87.2</ele><time>2026-04-11T10:36:57.802Z</time></trkpt><trkpt lat="45.3093051" lon="9.2711234"><ele>86.8</ele><time>2026-04-11T10:36:58.802Z</time></trkpt><trkpt lat="45.3092098" lon="9.2710756"><ele>86.4</ele><time>2026-04-11T10:36:59.802Z</time></trkpt><trkpt lat="45.3091327" lon="9.2710162"><ele>86.0</ele><time>2026-04-11T10:37:00.801Z</time></trkpt><trkpt lat="45.309062" lon="9.2709252"><ele>86.0</ele><time>2026-04-11T10:37:01.802Z</time></trkpt><trkpt lat="45.3089875" lon="9.2708121"><ele>86.0</ele><time>2026-04-11T10:37:02.802Z</time></trkpt><trkpt lat="45.3089142" lon="9.2706849"><ele>86.0</ele><time>2026-04-11T10:37:03.802Z</time></trkpt><trkpt lat="45.308841" lon="9.2705451"><ele>86.0</ele><time>2026-04-11T10:37:04.802Z</time></trkpt><trkpt lat="45.3087614" lon="9.2703988"><ele>86.25</ele><time>2026-04-11T10:37:05.802Z</time></trkpt><trkpt lat="45.3086796" lon="9.2702515"><ele>86.5</ele><time>2026-04-11T10:37:06.802Z</time></trkpt><trkpt lat="45.3085912" lon="9.2700976"><ele>86.75</ele><time>2026-04-11T10:37:07.802Z</time></trkpt><trkpt lat="45.3085017" lon="9.2699361"><ele>87.0</ele><time>2026-04-11T10:37:08.802Z</time></trkpt><trkpt lat="45.3084107" lon="9.2697735"><ele>87.0</ele><time>2026-04-11T10:37:09.802Z</time></trkpt><trkpt lat="45.3083107" lon="9.2696046"><ele>87.0</ele><time>2026-04-11T10:37:10.802Z</time></trkpt><trkpt lat="45.3082123" lon="9.2694394"><ele>87.0</ele><time>2026-04-11T10:37:11.802Z</time></trkpt><trkpt lat="45.3081343" lon="9.2692885"><ele>87.0</ele><time>2026-04-11T10:37:12.802Z</time></trkpt><trkpt lat="45.3080554" lon="9.2691515"><ele>87.0</ele><time>2026-04-11T10:37:13.802Z</time></trkpt><trkpt lat="45.3079863" lon="9.2690166"><ele>87.0</ele><time>2026-04-11T10:37:14.802Z</time></trkpt><trkpt lat="45.307943" lon="9.2688761"><ele>87.0</ele><time>2026-04-11T10:37:15.802Z</time></trkpt><trkpt lat="45.3079334" lon="9.2687385"><ele>87.0</ele><time>2026-04-11T10:37:16.802Z</time></trkpt><trkpt lat="45.3079332" lon="9.2685987"><ele>87.0</ele><time>2026-04-11T10:37:17.802Z</time></trkpt><trkpt lat="45.3079141" lon="9.2684689"><ele>86.8</ele><time>2026-04-11T10:37:18.801Z</time></trkpt><trkpt lat="45.3078531" lon="9.2683669"><ele>86.6</ele><time>2026-04-11T10:37:19.801Z</time></trkpt><trkpt lat="45.307782" lon="9.2682888"><ele>86.39999999999999</ele><time>2026-04-11T10:37:20.802Z</time></trkpt><trkpt lat="45.307683" lon="9.2682365"><ele>86.19999999999999</ele><time>2026-04-11T10:37:21.802Z</time></trkpt><trkpt lat="45.3075803" lon="9.2681983"><ele>86.0</ele><time>2026-04-11T10:37:22.801Z</time></trkpt><trkpt lat="45.3074817" lon="9.2681303"><ele>86.0</ele><time>2026-04-11T10:37:23.802Z</time></trkpt><trkpt lat="45.3073826" lon="9.2680134"><ele>86.0</ele><time>2026-04-11T10:37:24.802Z</time></trkpt><trkpt lat="45.3072946" lon="9.2678717"><ele>86.0</ele><time>2026-04-11T10:37:25.801Z</time></trkpt><trkpt lat="45.3072029" lon="9.2677128"><ele>86.0</ele><time>2026-04-11T10:37:26.802Z</time></trkpt><trkpt lat="45.3071079" lon="9.2675482"><ele>86.0</ele><time>2026-04-11T10:37:27.801Z</time></trkpt><trkpt lat="45.307009" lon="9.2673819"><ele>86.0</ele><time>2026-04-11T10:37:28.802Z</time></trkpt><trkpt lat="45.3069109" lon="9.2672171"><ele>86.0</ele><time>2026-04-11T10:37:29.802Z</time></trkpt><trkpt lat="45.3068097" lon="9.2670437"><ele>86.33333333333334</ele><time>2026-04-11T10:37:30.802Z</time></trkpt><trkpt lat="45.306707" lon="9.2668671"><ele>86.66666666666667</ele><time>2026-04-11T10:37:31.802Z</time></trkpt><trkpt lat="45.3066009" lon="9.2666907"><ele>87.0</ele><time>2026-04-11T10:37:32.802Z</time></trkpt><trkpt lat="45.3064946" lon="9.2665136"><ele>86.33333333333333</ele><time>2026-04-11T10:37:33.802Z</time></trkpt><trkpt lat="45.3063897" lon="9.266324"><ele>85.66666666666666</ele><time>2026-04-11T10:37:34.802Z</time></trkpt><trkpt lat="45.3062783" lon="9.2661321"><ele>85.0</ele><time>2026-04-11T10:37:35.802Z</time></trkpt><trkpt lat="45.3061645" lon="9.2659433"><ele>85.0</ele><time>2026-04-11T10:37:36.802Z</time></trkpt><trkpt lat="45.3060512" lon="9.2657502"><ele>85.0</ele><time>2026-04-11T10:37:37.802Z</time></trkpt><trkpt lat="45.3059344" lon="9.2655568"><ele>85.0</ele><time>2026-04-11T10:37:38.802Z</time></trkpt><trkpt lat="45.3058177" lon="9.2653621"><ele>85.0</ele><time>2026-04-11T10:37:39.802Z</time></trkpt><trkpt lat="45.3057031" lon="9.2651601"><ele>85.0</ele><time>2026-04-11T10:37:40.803Z</time></trkpt><trkpt lat="45.3055887" lon="9.2649579"><ele>85.0</ele><time>2026-04-11T10:37:41.803Z</time></trkpt><trkpt lat="45.3054717" lon="9.2647526"><ele>84.66666666666666</ele><time>2026-04-11T10:37:42.803Z</time></trkpt><trkpt lat="45.3053513" lon="9.2645502"><ele>84.33333333333333</ele><time>2026-04-11T10:37:43.802Z</time></trkpt><trkpt lat="45.3052256" lon="9.2643522"><ele>84.0</ele><time>2026-04-11T10:37:44.803Z</time></trkpt><trkpt lat="45.305102" lon="9.2641434"><ele>83.33333333333333</ele><time>2026-04-11T10:37:45.803Z</time></trkpt><trkpt lat="45.3049777" lon="9.2639346"><ele>82.66666666666666</ele><time>2026-04-11T10:37:46.803Z</time></trkpt><trkpt lat="45.3048563" lon="9.2637222"><ele>82.0</ele><time>2026-04-11T10:37:47.802Z</time></trkpt><trkpt lat="45.3047299" lon="9.2635096"><ele>82.0</ele><time>2026-04-11T10:37:48.802Z</time></trkpt><trkpt lat="45.3046031" lon="9.2632978"><ele>82.0</ele><time>2026-04-11T10:37:49.803Z</time></trkpt><trkpt lat="45.3044782" lon="9.2630886"><ele>82.0</ele><time>2026-04-11T10:37:50.803Z</time></trkpt><trkpt lat="45.3043543" lon="9.2628788"><ele>82.33333333333333</ele><time>2026-04-11T10:37:51.802Z</time></trkpt><trkpt lat="45.3042281" lon="9.2626666"><ele>82.66666666666667</ele><time>2026-04-11T10:37:52.803Z</time></trkpt><trkpt lat="45.304099" lon="9.2624558"><ele>83.0</ele><time>2026-04-11T10:37:53.803Z</time></trkpt><trkpt lat="45.3039739" lon="9.262245"><ele>83.33333333333334</ele><time>2026-04-11T10:37:54.803Z</time></trkpt><trkpt lat="45.3038499" lon="9.2620338"><ele>83.66666666666667</ele><time>2026-04-11T10:37:55.803Z</time></trkpt><trkpt lat="45.3037249" lon="9.2618153"><ele>84.0</ele><time>2026-04-11T10:37:56.803Z</time></trkpt><trkpt lat="45.3035935" lon="9.2615973"><ele>84.33333333333333</ele><time>2026-04-11T10:37:57.802Z</time></trkpt><trkpt lat="45.3034646" lon="9.2613753"><ele>84.66666666666666</ele><time>2026-04-11T10:37:58.803Z</time></trkpt><trkpt lat="45.3033377" lon="9.2611559"><ele>85.0</ele><time>2026-04-11T10:37:59.803Z</time></trkpt><trkpt lat="45.303207" lon="9.2609353"><ele>85.0</ele><time>2026-04-11T10:38:00.803Z</time></trkpt><trkpt lat="45.3030741" lon="9.2607176"><ele>85.0</ele><time>2026-04-11T10:38:01.803Z</time></trkpt><trkpt lat="45.3029374" lon="9.2604876"><ele>85.0</ele><time>2026-04-11T10:38:02.803Z</time></trkpt><trkpt lat="45.3027954" lon="9.2602459"><ele>85.0</ele><time>2026-04-11T10:38:03.803Z</time></trkpt><trkpt lat="45.3026472" lon="9.2599991"><ele>85.0</ele><time>2026-04-11T10:38:04.803Z</time></trkpt><trkpt lat="45.3024974" lon="9.2597471"><ele>85.5</ele><time>2026-04-11T10:38:05.803Z</time></trkpt><trkpt lat="45.302342" lon="9.2594873"><ele>86.0</ele><time>2026-04-11T10:38:06.803Z</time></trkpt><trkpt lat="45.3021861" lon="9.259221"><ele>85.0</ele><time>2026-04-11T10:38:07.802Z</time></trkpt><trkpt lat="45.3020328" lon="9.2589537"><ele>84.0</ele><time>2026-04-11T10:38:08.803Z</time></trkpt><trkpt lat="45.3018774" lon="9.2586878"><ele>84.0</ele><time>2026-04-11T10:38:09.803Z</time></trkpt><trkpt lat="45.3017219" lon="9.2584241"><ele>84.0</ele><time>2026-04-11T10:38:10.803Z</time></trkpt><trkpt lat="45.3015668" lon="9.2581609"><ele>84.0</ele><time>2026-04-11T10:38:11.803Z</time></trkpt><trkpt lat="45.3014147" lon="9.2578978"><ele>84.0</ele><time>2026-04-11T10:38:12.803Z</time></trkpt><trkpt lat="45.3012612" lon="9.2576379"><ele>84.0</ele><time>2026-04-11T10:38:13.803Z</time></trkpt><trkpt lat="45.3011052" lon="9.2573778"><ele>84.0</ele><time>2026-04-11T10:38:14.802Z</time></trkpt><trkpt lat="45.3009549" lon="9.2571174"><ele>84.0</ele><time>2026-04-11T10:38:15.803Z</time></trkpt><trkpt lat="45.3008035" lon="9.2568604"><ele>84.0</ele><time>2026-04-11T10:38:16.803Z</time></trkpt><trkpt lat="45.3006582" lon="9.2566191"><ele>84.0</ele><time>2026-04-11T10:38:17.803Z</time></trkpt><trkpt lat="45.3005254" lon="9.2563957"><ele>84.0</ele><time>2026-04-11T10:38:18.803Z</time></trkpt><trkpt lat="45.3004011" lon="9.2561865"><ele>84.0</ele><time>2026-04-11T10:38:19.803Z</time></trkpt><trkpt lat="45.3002822" lon="9.2559907"><ele>84.0</ele><time>2026-04-11T10:38:20.803Z</time></trkpt><trkpt lat="45.3001692" lon="9.2558006"><ele>84.0</ele><time>2026-04-11T10:38:21.803Z</time></trkpt><trkpt lat="45.3000611" lon="9.2556176"><ele>84.0</ele><time>2026-04-11T10:38:22.803Z</time></trkpt><trkpt lat="45.2999571" lon="9.2554436"><ele>83.75</ele><time>2026-04-11T10:38:23.803Z</time></trkpt><trkpt lat="45.2998582" lon="9.2552835"><ele>83.5</ele><time>2026-04-11T10:38:24.803Z</time></trkpt><trkpt lat="45.2997658" lon="9.2551303"><ele>83.25</ele><time>2026-04-11T10:38:25.803Z</time></trkpt><trkpt lat="45.2996813" lon="9.254985"><ele>83.0</ele><time>2026-04-11T10:38:26.803Z</time></trkpt><trkpt lat="45.2996019" lon="9.2548497"><ele>82.80000000000001</ele><time>2026-04-11T10:38:27.803Z</time></trkpt><trkpt lat="45.2995373" lon="9.25472"><ele>82.6</ele><time>2026-04-11T10:38:28.804Z</time></trkpt><trkpt lat="45.2994945" lon="9.2545915"><ele>82.4</ele><time>2026-04-11T10:38:29.804Z</time></trkpt><trkpt lat="45.2994657" lon="9.2544668"><ele>82.19999999999999</ele><time>2026-04-11T10:38:30.804Z</time></trkpt><trkpt lat="45.299451" lon="9.2543421"><ele>82.0</ele><time>2026-04-11T10:38:31.804Z</time></trkpt><trkpt lat="45.2994243" lon="9.2542169"><ele>82.0</ele><time>2026-04-11T10:38:32.804Z</time></trkpt><trkpt lat="45.2993755" lon="9.2541192"><ele>82.0</ele><time>2026-04-11T10:38:33.804Z</time></trkpt><trkpt lat="45.2993163" lon="9.2540577"><ele>82.0</ele><time>2026-04-11T10:38:34.804Z</time></trkpt><trkpt lat="45.2992465" lon="9.2540188"><ele>82.0</ele><time>2026-04-11T10:38:35.804Z</time></trkpt><trkpt lat="45.299169" lon="9.2539849"><ele>82.0</ele><time>2026-04-11T10:38:36.804Z</time></trkpt><trkpt lat="45.2990924" lon="9.2539274"><ele>82.0</ele><time>2026-04-11T10:38:37.804Z</time></trkpt><trkpt lat="45.2990249" lon="9.2538184"><ele>82.0</ele><time>2026-04-11T10:38:38.804Z</time></trkpt><trkpt lat="45.2989451" lon="9.2536854"><ele>82.0</ele><time>2026-04-11T10:38:39.804Z</time></trkpt><trkpt lat="45.2988472" lon="9.2535374"><ele>82.0</ele><time>2026-04-11T10:38:40.803Z</time></trkpt><trkpt lat="45.2987444" lon="9.2533691"><ele>82.0</ele><time>2026-04-11T10:38:41.804Z</time></trkpt><trkpt lat="45.2986437" lon="9.2531969"><ele>82.33333333333333</ele><time>2026-04-11T10:38:42.804Z</time></trkpt><trkpt lat="45.2985395" lon="9.2530164"><ele>82.66666666666667</ele><time>2026-04-11T10:38:43.804Z</time></trkpt><trkpt lat="45.2984352" lon="9.252835"><ele>83.0</ele><time>2026-04-11T10:38:44.804Z</time></trkpt><trkpt lat="45.2983297" lon="9.2526523"><ele>83.0</ele><time>2026-04-11T10:38:45.804Z</time></trkpt><trkpt lat="45.2982198" lon="9.2524662"><ele>83.0</ele><time>2026-04-11T10:38:46.803Z</time></trkpt><trkpt lat="45.2981088" lon="9.2522792"><ele>83.0</ele><time>2026-04-11T10:38:47.804Z</time></trkpt><trkpt lat="45.2979941" lon="9.2520876"><ele>83.33333333333334</ele><time>2026-04-11T10:38:48.804Z</time></trkpt><trkpt lat="45.2978792" lon="9.2518939"><ele>83.66666666666667</ele><time>2026-04-11T10:38:49.804Z</time></trkpt><trkpt lat="45.2977599" lon="9.2516988"><ele>84.0</ele><time>2026-04-11T10:38:50.804Z</time></trkpt><trkpt lat="45.2976412" lon="9.2515013"><ele>84.0</ele><time>2026-04-11T10:38:51.803Z</time></trkpt><trkpt lat="45.2975233" lon="9.251298"><ele>84.0</ele><time>2026-04-11T10:38:52.804Z</time></trkpt><trkpt lat="45.2974033" lon="9.2510937"><ele>84.0</ele><time>2026-04-11T10:38:53.804Z</time></trkpt><trkpt lat="45.2972845" lon="9.2508921"><ele>83.66666666666667</ele><time>2026-04-11T10:38:54.804Z</time></trkpt><trkpt lat="45.2971633" lon="9.2506868"><ele>83.33333333333334</ele><time>2026-04-11T10:38:55.804Z</time></trkpt><trkpt lat="45.2970414" lon="9.2504771"><ele>83.0</ele><time>2026-04-11T10:38:56.804Z</time></trkpt><trkpt lat="45.2969165" lon="9.2502667"><ele>83.0</ele><time>2026-04-11T10:38:57.803Z</time></trkpt><trkpt lat="45.2967886" lon="9.2500586"><ele>83.0</ele><time>2026-04-11T10:38:58.803Z</time></trkpt><trkpt lat="45.2966593" lon="9.2498476"><ele>83.0</ele><time>2026-04-11T10:38:59.804Z</time></trkpt><trkpt lat="45.2965332" lon="9.24963"><ele>83.0</ele><time>2026-04-11T10:39:00.804Z</time></trkpt><trkpt lat="45.296407" lon="9.2494128"><ele>83.0</ele><time>2026-04-11T10:39:01.804Z</time></trkpt><trkpt lat="45.2962771" lon="9.2491965"><ele>83.0</ele><time>2026-04-11T10:39:02.804Z</time></trkpt><trkpt lat="45.296148" lon="9.2489801"><ele>82.66666666666667</ele><time>2026-04-11T10:39:03.803Z</time></trkpt><trkpt lat="45.296021" lon="9.2487633"><ele>82.33333333333333</ele><time>2026-04-11T10:39:04.804Z</time></trkpt><trkpt lat="45.295895" lon="9.2485452"><ele>82.0</ele><time>2026-04-11T10:39:05.804Z</time></trkpt><trkpt lat="45.2957717" lon="9.2483357"><ele>82.0</ele><time>2026-04-11T10:39:06.804Z</time></trkpt><trkpt lat="45.2956495" lon="9.2481327"><ele>82.0</ele><time>2026-04-11T10:39:07.804Z</time></trkpt><trkpt lat="45.2955331" lon="9.2479354"><ele>82.0</ele><time>2026-04-11T10:39:08.804Z</time></trkpt><trkpt lat="45.2954202" lon="9.2477424"><ele>82.66666666666666</ele><time>2026-04-11T10:39:09.804Z</time></trkpt><trkpt lat="45.2953079" lon="9.2475563"><ele>83.33333333333333</ele><time>2026-04-11T10:39:10.804Z</time></trkpt><trkpt lat="45.2952012" lon="9.2473761"><ele>84.0</ele><time>2026-04-11T10:39:11.804Z</time></trkpt><trkpt lat="45.2950934" lon="9.2471977"><ele>84.0</ele><time>2026-04-11T10:39:12.804Z</time></trkpt><trkpt lat="45.2949913" lon="9.2470228"><ele>84.0</ele><time>2026-04-11T10:39:13.804Z</time></trkpt><trkpt lat="45.294893" lon="9.246853"><ele>84.0</ele><time>2026-04-11T10:39:14.804Z</time></trkpt><trkpt lat="45.294801" lon="9.2466951"><ele>84.2</ele><time>2026-04-11T10:39:15.804Z</time></trkpt><trkpt lat="45.2947182" lon="9.2465483"><ele>84.4</ele><time>2026-04-11T10:39:16.804Z</time></trkpt><trkpt lat="45.2946437" lon="9.2464176"><ele>84.6</ele><time>2026-04-11T10:39:17.805Z</time></trkpt><trkpt lat="45.2945749" lon="9.2463093"><ele>84.8</ele><time>2026-04-11T10:39:18.804Z</time></trkpt><trkpt lat="45.2945151" lon="9.2462061"><ele>85.0</ele><time>2026-04-11T10:39:19.804Z</time></trkpt><trkpt lat="45.2944674" lon="9.2460889"><ele>85.0</ele><time>2026-04-11T10:39:20.805Z</time></trkpt><trkpt lat="45.2944365" lon="9.2459682"><ele>85.0</ele><time>2026-04-11T10:39:21.804Z</time></trkpt><trkpt lat="45.2944066" lon="9.2458303"><ele>85.0</ele><time>2026-04-11T10:39:22.805Z</time></trkpt><trkpt lat="45.2943594" lon="9.2457129"><ele>85.0</ele><time>2026-04-11T10:39:23.805Z</time></trkpt><trkpt lat="45.2942937" lon="9.2456352"><ele>85.0</ele><time>2026-04-11T10:39:24.805Z</time></trkpt><trkpt lat="45.2942024" lon="9.2455762"><ele>85.25</ele><time>2026-04-11T10:39:25.804Z</time></trkpt><trkpt lat="45.2941121" lon="9.2455012"><ele>85.5</ele><time>2026-04-11T10:39:26.805Z</time></trkpt><trkpt lat="45.2940287" lon="9.2453887"><ele>85.75</ele><time>2026-04-11T10:39:27.805Z</time></trkpt><trkpt lat="45.2939358" lon="9.2452406"><ele>86.0</ele><time>2026-04-11T10:39:28.805Z</time></trkpt><trkpt lat="45.2938428" lon="9.2450758"><ele>85.66666666666667</ele><time>2026-04-11T10:39:29.805Z</time></trkpt><trkpt lat="45.2937411" lon="9.2449055"><ele>85.33333333333333</ele><time>2026-04-11T10:39:30.805Z</time></trkpt><trkpt lat="45.2936368" lon="9.2447325"><ele>85.0</ele><time>2026-04-11T10:39:31.805Z</time></trkpt><trkpt lat="45.2935256" lon="9.2445531"><ele>85.0</ele><time>2026-04-11T10:39:32.805Z</time></trkpt><trkpt lat="45.293411" lon="9.2443635"><ele>85.0</ele><time>2026-04-11T10:39:33.805Z</time></trkpt><trkpt lat="45.2932964" lon="9.2441661"><ele>85.0</ele><time>2026-04-11T10:39:34.804Z</time></trkpt><trkpt lat="45.2931772" lon="9.2439639"><ele>85.33333333333333</ele><time>2026-04-11T10:39:35.805Z</time></trkpt><trkpt lat="45.2930585" lon="9.2437539"><ele>85.66666666666667</ele><time>2026-04-11T10:39:36.805Z</time></trkpt><trkpt lat="45.2929352" lon="9.243548"><ele>86.0</ele><time>2026-04-11T10:39:37.805Z</time></trkpt><trkpt lat="45.2928142" lon="9.2433439"><ele>86.0</ele><time>2026-04-11T10:39:38.805Z</time></trkpt><trkpt lat="45.2927006" lon="9.2431452"><ele>86.0</ele><time>2026-04-11T10:39:39.805Z</time></trkpt><trkpt lat="45.2925896" lon="9.2429529"><ele>86.0</ele><time>2026-04-11T10:39:40.805Z</time></trkpt><trkpt lat="45.2924779" lon="9.2427646"><ele>86.0</ele><time>2026-04-11T10:39:41.805Z</time></trkpt><trkpt lat="45.2923669" lon="9.2425862"><ele>86.0</ele><time>2026-04-11T10:39:42.805Z</time></trkpt><trkpt lat="45.2922565" lon="9.2424152"><ele>86.0</ele><time>2026-04-11T10:39:43.805Z</time></trkpt><trkpt lat="45.292146" lon="9.2422557"><ele>86.0</ele><time>2026-04-11T10:39:44.805Z</time></trkpt><trkpt lat="45.2920344" lon="9.2421016"><ele>86.0</ele><time>2026-04-11T10:39:45.805Z</time></trkpt><trkpt lat="45.2919214" lon="9.2419508"><ele>86.0</ele><time>2026-04-11T10:39:46.805Z</time></trkpt><trkpt lat="45.2918045" lon="9.2418119"><ele>86.0</ele><time>2026-04-11T10:39:47.805Z</time></trkpt><trkpt lat="45.2916827" lon="9.2416852"><ele>86.0</ele><time>2026-04-11T10:39:48.805Z</time></trkpt><trkpt lat="45.2915508" lon="9.2415776"><ele>86.0</ele><time>2026-04-11T10:39:49.805Z</time></trkpt><trkpt lat="45.291409" lon="9.241477"><ele>86.0</ele><time>2026-04-11T10:39:50.805Z</time></trkpt><trkpt lat="45.2912714" lon="9.2413891"><ele>86.0</ele><time>2026-04-11T10:39:51.805Z</time></trkpt><trkpt lat="45.2911244" lon="9.2413074"><ele>86.0</ele><time>2026-04-11T10:39:52.805Z</time></trkpt><trkpt lat="45.2909715" lon="9.2412314"><ele>86.0</ele><time>2026-04-11T10:39:53.804Z</time></trkpt><trkpt lat="45.2908147" lon="9.2411653"><ele>86.0</ele><time>2026-04-11T10:39:54.805Z</time></trkpt><trkpt lat="45.2906539" lon="9.2411057"><ele>86.0</ele><time>2026-04-11T10:39:55.805Z</time></trkpt><trkpt lat="45.2904845" lon="9.2410615"><ele>86.33333333333334</ele><time>2026-04-11T10:39:56.805Z</time></trkpt><trkpt lat="45.2903095" lon="9.2410223"><ele>86.66666666666667</ele><time>2026-04-11T10:39:57.805Z</time></trkpt><trkpt lat="45.2901373" lon="9.2410032"><ele>87.0</ele><time>2026-04-11T10:39:58.805Z</time></trkpt><trkpt lat="45.2899667" lon="9.2410019"><ele>87.0</ele><time>2026-04-11T10:39:59.805Z</time></trkpt><trkpt lat="45.2897904" lon="9.2410092"><ele>87.0</ele><time>2026-04-11T10:40:00.805Z</time></trkpt><trkpt lat="45.2896138" lon="9.2410339"><ele>87.0</ele><time>2026-04-11T10:40:01.805Z</time></trkpt><trkpt lat="45.2894391" lon="9.2410797"><ele>87.0</ele><time>2026-04-11T10:40:02.804Z</time></trkpt><trkpt lat="45.2892655" lon="9.2411422"><ele>87.0</ele><time>2026-04-11T10:40:03.805Z</time></trkpt><trkpt lat="45.2890946" lon="9.2412172"><ele>87.0</ele><time>2026-04-11T10:40:04.805Z</time></trkpt><trkpt lat="45.2889214" lon="9.2413001"><ele>86.0</ele><time>2026-04-11T10:40:05.806Z</time></trkpt><trkpt lat="45.2887463" lon="9.2413809"><ele>85.0</ele><time>2026-04-11T10:40:06.806Z</time></trkpt><trkpt lat="45.2885756" lon="9.2414611"><ele>84.0</ele><time>2026-04-11T10:40:07.806Z</time></trkpt><trkpt lat="45.2884036" lon="9.2415435"><ele>83.66666666666667</ele><time>2026-04-11T10:40:08.806Z</time></trkpt><trkpt lat="45.2882312" lon="9.2416269"><ele>83.33333333333334</ele><time>2026-04-11T10:40:09.806Z</time></trkpt><trkpt lat="45.2880586" lon="9.2417102"><ele>83.0</ele><time>2026-04-11T10:40:10.805Z</time></trkpt><trkpt lat="45.2878859" lon="9.2417962"><ele>83.66666666666667</ele><time>2026-04-11T10:40:11.806Z</time></trkpt><trkpt lat="45.2877185" lon="9.2418797"><ele>84.33333333333333</ele><time>2026-04-11T10:40:12.806Z</time></trkpt><trkpt lat="45.2875542" lon="9.2419529"><ele>85.0</ele><time>2026-04-11T10:40:13.805Z</time></trkpt><trkpt lat="45.2873914" lon="9.2420236"><ele>84.66666666666666</ele><time>2026-04-11T10:40:14.806Z</time></trkpt><trkpt lat="45.2872285" lon="9.2421013"><ele>84.33333333333333</ele><time>2026-04-11T10:40:15.806Z</time></trkpt><trkpt lat="45.2870687" lon="9.2421832"><ele>84.0</ele><time>2026-04-11T10:40:16.805Z</time></trkpt><trkpt lat="45.2869069" lon="9.2422613"><ele>84.0</ele><time>2026-04-11T10:40:17.806Z</time></trkpt><trkpt lat="45.2867467" lon="9.242337"><ele>84.0</ele><time>2026-04-11T10:40:18.806Z</time></trkpt><trkpt lat="45.2865888" lon="9.2424116"><ele>84.0</ele><time>2026-04-11T10:40:19.806Z</time></trkpt><trkpt lat="45.2864309" lon="9.2424883"><ele>84.0</ele><time>2026-04-11T10:40:20.805Z</time></trkpt><trkpt lat="45.2862726" lon="9.2425667"><ele>84.0</ele><time>2026-04-11T10:40:21.806Z</time></trkpt><trkpt lat="45.2861129" lon="9.242648"><ele>84.0</ele><time>2026-04-11T10:40:22.806Z</time></trkpt><trkpt lat="45.285956" lon="9.2427221"><ele>84.0</ele><time>2026-04-11T10:40:23.806Z</time></trkpt><trkpt lat="45.2857944" lon="9.2427956"><ele>84.0</ele><time>2026-04-11T10:40:24.806Z</time></trkpt><trkpt lat="45.2856296" lon="9.2428697"><ele>84.0</ele><time>2026-04-11T10:40:25.806Z</time></trkpt><trkpt lat="45.2854678" lon="9.2429468"><ele>84.33333333333333</ele><time>2026-04-11T10:40:26.806Z</time></trkpt><trkpt lat="45.2853077" lon="9.2430213"><ele>84.66666666666666</ele><time>2026-04-11T10:40:27.806Z</time></trkpt><trkpt lat="45.2851442" lon="9.2430969"><ele>85.0</ele><time>2026-04-11T10:40:28.806Z</time></trkpt><trkpt lat="45.2849828" lon="9.2431768"><ele>85.33333333333333</ele><time>2026-04-11T10:40:29.806Z</time></trkpt><trkpt lat="45.2848203" lon="9.2432591"><ele>85.66666666666667</ele><time>2026-04-11T10:40:30.806Z</time></trkpt><trkpt lat="45.2846552" lon="9.243339"><ele>86.0</ele><time>2026-04-11T10:40:31.805Z</time></trkpt><trkpt lat="45.2844902" lon="9.2434172"><ele>85.33333333333334</ele><time>2026-04-11T10:40:32.806Z</time></trkpt><trkpt lat="45.2843231" lon="9.2434977"><ele>84.66666666666667</ele><time>2026-04-11T10:40:33.805Z</time></trkpt><trkpt lat="45.2841599" lon="9.243573"><ele>84.0</ele><time>2026-04-11T10:40:34.806Z</time></trkpt><trkpt lat="45.2839937" lon="9.2436452"><ele>83.66666666666667</ele><time>2026-04-11T10:40:35.806Z</time></trkpt><trkpt lat="45.2838234" lon="9.2437067"><ele>83.33333333333334</ele><time>2026-04-11T10:40:36.806Z</time></trkpt><trkpt lat="45.2836522" lon="9.2437526"><ele>83.0</ele><time>2026-04-11T10:40:37.806Z</time></trkpt><trkpt lat="45.2834762" lon="9.2437818"><ele>83.0</ele><time>2026-04-11T10:40:38.805Z</time></trkpt><trkpt lat="45.2832999" lon="9.2438003"><ele>83.0</ele><time>2026-04-11T10:40:39.806Z</time></trkpt><trkpt lat="45.2831203" lon="9.2438025"><ele>83.0</ele><time>2026-04-11T10:40:40.806Z</time></trkpt><trkpt lat="45.2829421" lon="9.2437872"><ele>83.0</ele><time>2026-04-11T10:40:41.806Z</time></trkpt><trkpt lat="45.2827607" lon="9.2437631"><ele>83.0</ele><time>2026-04-11T10:40:42.806Z</time></trkpt><trkpt lat="45.2825786" lon="9.2437298"><ele>83.0</ele><time>2026-04-11T10:40:43.806Z</time></trkpt><trkpt lat="45.282394" lon="9.2436809"><ele>83.33333333333334</ele><time>2026-04-11T10:40:44.806Z</time></trkpt><trkpt lat="45.2822104" lon="9.2436132"><ele>83.66666666666667</ele><time>2026-04-11T10:40:45.806Z</time></trkpt><trkpt lat="45.2820317" lon="9.2435355"><ele>84.0</ele><time>2026-04-11T10:40:46.806Z</time></trkpt><trkpt lat="45.2818661" lon="9.2434606"><ele>84.0</ele><time>2026-04-11T10:40:47.805Z</time></trkpt><trkpt lat="45.281712" lon="9.2433853"><ele>84.0</ele><time>2026-04-11T10:40:48.806Z</time></trkpt><trkpt lat="45.2815703" lon="9.243313"><ele>84.0</ele><time>2026-04-11T10:40:49.805Z</time></trkpt><trkpt lat="45.2814392" lon="9.2432465"><ele>83.5</ele><time>2026-04-11T10:40:50.806Z</time></trkpt><trkpt lat="45.281315" lon="9.2431881"><ele>83.0</ele><time>2026-04-11T10:40:51.806Z</time></trkpt><trkpt lat="45.2812004" lon="9.2431328"><ele>82.5</ele><time>2026-04-11T10:40:52.806Z</time></trkpt><trkpt lat="45.2810921" lon="9.2430802"><ele>82.0</ele><time>2026-04-11T10:40:53.807Z</time></trkpt><trkpt lat="45.2809826" lon="9.2430256"><ele>82.0</ele><time>2026-04-11T10:40:54.807Z</time></trkpt><trkpt lat="45.2808769" lon="9.2429781"><ele>82.0</ele><time>2026-04-11T10:40:55.807Z</time></trkpt><trkpt lat="45.2807707" lon="9.2429243"><ele>82.0</ele><time>2026-04-11T10:40:56.806Z</time></trkpt><trkpt lat="45.2806693" lon="9.2428712"><ele>82.0</ele><time>2026-04-11T10:40:57.807Z</time></trkpt><trkpt lat="45.2805683" lon="9.2428229"><ele>82.0</ele><time>2026-04-11T10:40:58.807Z</time></trkpt><trkpt lat="45.2804673" lon="9.2427797"><ele>82.0</ele><time>2026-04-11T10:40:59.806Z</time></trkpt><trkpt lat="45.280371" lon="9.2427348"><ele>82.0</ele><time>2026-04-11T10:41:00.806Z</time></trkpt><trkpt lat="45.2802907" lon="9.2426882"><ele>82.0</ele><time>2026-04-11T10:41:01.807Z</time></trkpt><trkpt lat="45.280218" lon="9.2426453"><ele>82.0</ele><time>2026-04-11T10:41:02.807Z</time></trkpt><trkpt lat="45.2801564" lon="9.2426095"><ele>82.0</ele><time>2026-04-11T10:41:03.807Z</time></trkpt><trkpt lat="45.280069" lon="9.2425007"><ele>82.0</ele><time>2026-04-11T10:41:05.807Z</time></trkpt><trkpt lat="45.2800092" lon="9.2423379"><ele>82.0</ele><time>2026-04-11T10:41:07.806Z</time></trkpt><trkpt lat="45.2799549" lon="9.242267"><ele>82.0</ele><time>2026-04-11T10:41:08.806Z</time></trkpt><trkpt lat="45.2798814" lon="9.2422162"><ele>82.0</ele><time>2026-04-11T10:41:09.807Z</time></trkpt><trkpt lat="45.2797988" lon="9.2422096"><ele>82.0</ele><time>2026-04-11T10:41:10.807Z</time></trkpt><trkpt lat="45.2797023" lon="9.2422381"><ele>82.39999999999999</ele><time>2026-04-11T10:41:11.807Z</time></trkpt><trkpt lat="45.2796006" lon="9.2422692"><ele>82.8</ele><time>2026-04-11T10:41:12.807Z</time></trkpt><trkpt lat="45.2794964" lon="9.2422719"><ele>83.2</ele><time>2026-04-11T10:41:13.807Z</time></trkpt><trkpt lat="45.2793843" lon="9.2422365"><ele>83.6</ele><time>2026-04-11T10:41:14.807Z</time></trkpt><trkpt lat="45.2792704" lon="9.242191"><ele>84.0</ele><time>2026-04-11T10:41:15.807Z</time></trkpt><trkpt lat="45.2791437" lon="9.2421217"><ele>84.0</ele><time>2026-04-11T10:41:16.807Z</time></trkpt><trkpt lat="45.2790071" lon="9.2420579"><ele>84.0</ele><time>2026-04-11T10:41:17.806Z</time></trkpt><trkpt lat="45.2788621" lon="9.2419878"><ele>84.0</ele><time>2026-04-11T10:41:18.806Z</time></trkpt><trkpt lat="45.2787163" lon="9.2419174"><ele>84.33333333333333</ele><time>2026-04-11T10:41:19.807Z</time></trkpt><trkpt lat="45.2785625" lon="9.2418443"><ele>84.66666666666666</ele><time>2026-04-11T10:41:20.807Z</time></trkpt><trkpt lat="45.2784032" lon="9.2417665"><ele>85.0</ele><time>2026-04-11T10:41:21.807Z</time></trkpt><trkpt lat="45.2782404" lon="9.2416841"><ele>84.66666666666666</ele><time>2026-04-11T10:41:22.807Z</time></trkpt><trkpt lat="45.2780781" lon="9.2416063"><ele>84.33333333333333</ele><time>2026-04-11T10:41:23.807Z</time></trkpt><trkpt lat="45.2779173" lon="9.2415272"><ele>84.0</ele><time>2026-04-11T10:41:24.807Z</time></trkpt><trkpt lat="45.2777654" lon="9.2414571"><ele>84.0</ele><time>2026-04-11T10:41:25.807Z</time></trkpt><trkpt lat="45.2776181" lon="9.2413875"><ele>84.0</ele><time>2026-04-11T10:41:26.807Z</time></trkpt><trkpt lat="45.2774715" lon="9.2413123"><ele>84.0</ele><time>2026-04-11T10:41:27.806Z</time></trkpt><trkpt lat="45.2773188" lon="9.2412378"><ele>84.0</ele><time>2026-04-11T10:41:28.807Z</time></trkpt><trkpt lat="45.2771665" lon="9.2411658"><ele>84.0</ele><time>2026-04-11T10:41:29.806Z</time></trkpt><trkpt lat="45.277015" lon="9.241093"><ele>84.0</ele><time>2026-04-11T10:41:30.807Z</time></trkpt><trkpt lat="45.2768581" lon="9.2410129"><ele>84.0</ele><time>2026-04-11T10:41:31.807Z</time></trkpt><trkpt lat="45.2766989" lon="9.2409334"><ele>84.0</ele><time>2026-04-11T10:41:32.807Z</time></trkpt><trkpt lat="45.2765389" lon="9.2408549"><ele>84.0</ele><time>2026-04-11T10:41:33.807Z</time></trkpt><trkpt lat="45.2763752" lon="9.2407771"><ele>84.0</ele><time>2026-04-11T10:41:34.807Z</time></trkpt><trkpt lat="45.2762146" lon="9.2407012"><ele>84.0</ele><time>2026-04-11T10:41:35.807Z</time></trkpt><trkpt lat="45.2760509" lon="9.2406219"><ele>84.0</ele><time>2026-04-11T10:41:36.807Z</time></trkpt><trkpt lat="45.2758863" lon="9.2405405"><ele>83.66666666666667</ele><time>2026-04-11T10:41:37.807Z</time></trkpt><trkpt lat="45.275719" lon="9.2404607"><ele>83.33333333333334</ele><time>2026-04-11T10:41:38.807Z</time></trkpt><trkpt lat="45.2755472" lon="9.2403795"><ele>83.0</ele><time>2026-04-11T10:41:39.807Z</time></trkpt><trkpt lat="45.275372" lon="9.2402979"><ele>83.0</ele><time>2026-04-11T10:41:40.807Z</time></trkpt><trkpt lat="45.2752004" lon="9.2402149"><ele>83.0</ele><time>2026-04-11T10:41:41.807Z</time></trkpt><trkpt lat="45.2750364" lon="9.2401417"><ele>83.0</ele><time>2026-04-11T10:41:42.808Z</time></trkpt><trkpt lat="45.2748746" lon="9.2400693"><ele>82.66666666666667</ele><time>2026-04-11T10:41:43.808Z</time></trkpt><trkpt lat="45.2747142" lon="9.2399956"><ele>82.33333333333333</ele><time>2026-04-11T10:41:44.808Z</time></trkpt><trkpt lat="45.2745481" lon="9.2399231"><ele>82.0</ele><time>2026-04-11T10:41:45.807Z</time></trkpt><trkpt lat="45.2743782" lon="9.2398543"><ele>82.0</ele><time>2026-04-11T10:41:46.808Z</time></trkpt><trkpt lat="45.2742068" lon="9.2397827"><ele>82.0</ele><time>2026-04-11T10:41:47.808Z</time></trkpt><trkpt lat="45.2740332" lon="9.2397104"><ele>82.0</ele><time>2026-04-11T10:41:48.808Z</time></trkpt><trkpt lat="45.2738579" lon="9.2396348"><ele>82.0</ele><time>2026-04-11T10:41:49.808Z</time></trkpt><trkpt lat="45.2736776" lon="9.239559"><ele>82.0</ele><time>2026-04-11T10:41:50.808Z</time></trkpt><trkpt lat="45.2734947" lon="9.2394888"><ele>82.0</ele><time>2026-04-11T10:41:51.808Z</time></trkpt><trkpt lat="45.2733089" lon="9.2394134"><ele>82.0</ele><time>2026-04-11T10:41:52.808Z</time></trkpt><trkpt lat="45.2731141" lon="9.2393313"><ele>82.0</ele><time>2026-04-11T10:41:53.808Z</time></trkpt><trkpt lat="45.2729167" lon="9.2392465"><ele>82.0</ele><time>2026-04-11T10:41:54.808Z</time></trkpt><trkpt lat="45.2727116" lon="9.2391589"><ele>82.33333333333333</ele><time>2026-04-11T10:41:55.808Z</time></trkpt><trkpt lat="45.2725161" lon="9.2390706"><ele>82.66666666666667</ele><time>2026-04-11T10:41:56.808Z</time></trkpt><trkpt lat="45.2723282" lon="9.2389792"><ele>83.0</ele><time>2026-04-11T10:41:57.807Z</time></trkpt><trkpt lat="45.2721617" lon="9.2388975"><ele>82.33333333333334</ele><time>2026-04-11T10:41:58.807Z</time></trkpt><trkpt lat="45.2720029" lon="9.2388208"><ele>81.66666666666667</ele><time>2026-04-11T10:41:59.808Z</time></trkpt><trkpt lat="45.2718521" lon="9.2387571"><ele>81.0</ele><time>2026-04-11T10:42:00.808Z</time></trkpt><trkpt lat="45.2717163" lon="9.2386991"><ele>81.0</ele><time>2026-04-11T10:42:01.807Z</time></trkpt><trkpt lat="45.2715854" lon="9.2386412"><ele>81.0</ele><time>2026-04-11T10:42:02.808Z</time></trkpt><trkpt lat="45.2714597" lon="9.2385845"><ele>81.0</ele><time>2026-04-11T10:42:03.807Z</time></trkpt><trkpt lat="45.2713372" lon="9.23853"><ele>81.0</ele><time>2026-04-11T10:42:04.808Z</time></trkpt><trkpt lat="45.2712139" lon="9.2384737"><ele>81.5</ele><time>2026-04-11T10:42:05.808Z</time></trkpt><trkpt lat="45.271092" lon="9.2384142"><ele>82.0</ele><time>2026-04-11T10:42:06.808Z</time></trkpt><trkpt lat="45.2709652" lon="9.2383656"><ele>82.5</ele><time>2026-04-11T10:42:07.808Z</time></trkpt><trkpt lat="45.270835" lon="9.2383126"><ele>83.0</ele><time>2026-04-11T10:42:08.808Z</time></trkpt><trkpt lat="45.2707028" lon="9.2382545"><ele>83.0</ele><time>2026-04-11T10:42:09.808Z</time></trkpt><trkpt lat="45.2705662" lon="9.2381947"><ele>83.0</ele><time>2026-04-11T10:42:10.808Z</time></trkpt><trkpt lat="45.2704241" lon="9.2381327"><ele>83.0</ele><time>2026-04-11T10:42:11.807Z</time></trkpt><trkpt lat="45.27028" lon="9.2380702"><ele>83.0</ele><time>2026-04-11T10:42:12.808Z</time></trkpt><trkpt lat="45.2701358" lon="9.2380093"><ele>83.0</ele><time>2026-04-11T10:42:13.807Z</time></trkpt><trkpt lat="45.2699889" lon="9.2379459"><ele>83.0</ele><time>2026-04-11T10:42:14.808Z</time></trkpt><trkpt lat="45.2698389" lon="9.2378797"><ele>83.0</ele><time>2026-04-11T10:42:15.808Z</time></trkpt><trkpt lat="45.2696883" lon="9.2378174"><ele>83.0</ele><time>2026-04-11T10:42:16.808Z</time></trkpt><trkpt lat="45.2695347" lon="9.2377505"><ele>83.0</ele><time>2026-04-11T10:42:17.808Z</time></trkpt><trkpt lat="45.2693798" lon="9.2376855"><ele>83.0</ele><time>2026-04-11T10:42:18.808Z</time></trkpt><trkpt lat="45.2692161" lon="9.2376195"><ele>83.0</ele><time>2026-04-11T10:42:19.807Z</time></trkpt><trkpt lat="45.269045" lon="9.2375563"><ele>83.0</ele><time>2026-04-11T10:42:20.808Z</time></trkpt><trkpt lat="45.2688688" lon="9.2374841"><ele>83.0</ele><time>2026-04-11T10:42:21.808Z</time></trkpt><trkpt lat="45.2686936" lon="9.237404"><ele>83.0</ele><time>2026-04-11T10:42:22.808Z</time></trkpt><trkpt lat="45.26852" lon="9.2373188"><ele>83.0</ele><time>2026-04-11T10:42:23.808Z</time></trkpt><trkpt lat="45.2683562" lon="9.2372378"><ele>83.0</ele><time>2026-04-11T10:42:24.808Z</time></trkpt><trkpt lat="45.2681997" lon="9.2371727"><ele>82.66666666666667</ele><time>2026-04-11T10:42:25.808Z</time></trkpt><trkpt lat="45.2680488" lon="9.2371094"><ele>82.33333333333333</ele><time>2026-04-11T10:42:26.808Z</time></trkpt><trkpt lat="45.2678926" lon="9.2370448"><ele>82.0</ele><time>2026-04-11T10:42:27.807Z</time></trkpt><trkpt lat="45.2677415" lon="9.2369797"><ele>82.0</ele><time>2026-04-11T10:42:28.808Z</time></trkpt><trkpt lat="45.2675983" lon="9.2369232"><ele>82.0</ele><time>2026-04-11T10:42:29.808Z</time></trkpt><trkpt lat="45.2674571" lon="9.2368791"><ele>82.0</ele><time>2026-04-11T10:42:30.809Z</time></trkpt><trkpt lat="45.2673118" lon="9.2368454"><ele>82.0</ele><time>2026-04-11T10:42:31.809Z</time></trkpt><trkpt lat="45.2671643" lon="9.2368148"><ele>82.33333333333333</ele><time>2026-04-11T10:42:32.809Z</time></trkpt><trkpt lat="45.267008" lon="9.2367945"><ele>82.66666666666667</ele><time>2026-04-11T10:42:33.809Z</time></trkpt><trkpt lat="45.2668366" lon="9.2367905"><ele>83.0</ele><time>2026-04-11T10:42:34.809Z</time></trkpt><trkpt lat="45.2666541" lon="9.2367909"><ele>83.0</ele><time>2026-04-11T10:42:35.808Z</time></trkpt><trkpt lat="45.2664612" lon="9.2367798"><ele>83.0</ele><time>2026-04-11T10:42:36.808Z</time></trkpt><trkpt lat="45.2662669" lon="9.2367731"><ele>83.0</ele><time>2026-04-11T10:42:37.809Z</time></trkpt><trkpt lat="45.2660764" lon="9.2367717"><ele>83.0</ele><time>2026-04-11T10:42:38.809Z</time></trkpt><trkpt lat="45.2658923" lon="9.2367721"><ele>83.0</ele><time>2026-04-11T10:42:39.809Z</time></trkpt><trkpt lat="45.2657138" lon="9.2367781"><ele>83.0</ele><time>2026-04-11T10:42:40.808Z</time></trkpt><trkpt lat="45.2655373" lon="9.236786"><ele>83.0</ele><time>2026-04-11T10:42:41.809Z</time></trkpt><trkpt lat="45.2653641" lon="9.236789"><ele>83.0</ele><time>2026-04-11T10:42:42.809Z</time></trkpt><trkpt lat="45.2651874" lon="9.2367843"><ele>83.0</ele><time>2026-04-11T10:42:43.809Z</time></trkpt><trkpt lat="45.2650097" lon="9.2367755"><ele>83.0</ele><time>2026-04-11T10:42:44.808Z</time></trkpt><trkpt lat="45.26483" lon="9.2367625"><ele>83.0</ele><time>2026-04-11T10:42:45.809Z</time></trkpt><trkpt lat="45.2646514" lon="9.2367489"><ele>83.0</ele><time>2026-04-11T10:42:46.809Z</time></trkpt><trkpt lat="45.2644677" lon="9.2367292"><ele>83.0</ele><time>2026-04-11T10:42:47.809Z</time></trkpt><trkpt lat="45.2642859" lon="9.2367102"><ele>83.0</ele><time>2026-04-11T10:42:48.809Z</time></trkpt><trkpt lat="45.2640986" lon="9.2366898"><ele>83.0</ele><time>2026-04-11T10:42:49.809Z</time></trkpt><trkpt lat="45.2639137" lon="9.2366697"><ele>83.0</ele><time>2026-04-11T10:42:50.809Z</time></trkpt><trkpt lat="45.2637331" lon="9.2366547"><ele>83.0</ele><time>2026-04-11T10:42:51.809Z</time></trkpt><trkpt lat="45.2635587" lon="9.2366361"><ele>83.0</ele><time>2026-04-11T10:42:52.808Z</time></trkpt><trkpt lat="45.2633898" lon="9.2366121"><ele>83.0</ele><time>2026-04-11T10:42:53.809Z</time></trkpt><trkpt lat="45.2632265" lon="9.2365891"><ele>83.0</ele><time>2026-04-11T10:42:54.809Z</time></trkpt><trkpt lat="45.2630588" lon="9.2365694"><ele>83.0</ele><time>2026-04-11T10:42:55.809Z</time></trkpt><trkpt lat="45.2628977" lon="9.2365462"><ele>83.0</ele><time>2026-04-11T10:42:56.809Z</time></trkpt><trkpt lat="45.2627336" lon="9.2365109"><ele>83.0</ele><time>2026-04-11T10:42:57.808Z</time></trkpt><trkpt lat="45.2625644" lon="9.2364675"><ele>83.0</ele><time>2026-04-11T10:42:58.808Z</time></trkpt><trkpt lat="45.262396" lon="9.2364108"><ele>83.0</ele><time>2026-04-11T10:42:59.809Z</time></trkpt><trkpt lat="45.2622333" lon="9.2363512"><ele>83.0</ele><time>2026-04-11T10:43:00.809Z</time></trkpt><trkpt lat="45.2620732" lon="9.2362734"><ele>83.0</ele><time>2026-04-11T10:43:01.809Z</time></trkpt><trkpt lat="45.2619157" lon="9.2361821"><ele>83.0</ele><time>2026-04-11T10:43:02.809Z</time></trkpt><trkpt lat="45.2617439" lon="9.2360852"><ele>83.0</ele><time>2026-04-11T10:43:03.809Z</time></trkpt><trkpt lat="45.2615549" lon="9.2359768"><ele>83.0</ele><time>2026-04-11T10:43:04.809Z</time></trkpt><trkpt lat="45.2613663" lon="9.2358444"><ele>83.0</ele><time>2026-04-11T10:43:05.809Z</time></trkpt><trkpt lat="45.2611764" lon="9.2357044"><ele>83.0</ele><time>2026-04-11T10:43:06.809Z</time></trkpt><trkpt lat="45.2609762" lon="9.2355584"><ele>83.0</ele><time>2026-04-11T10:43:07.809Z</time></trkpt><trkpt lat="45.2607807" lon="9.2354139"><ele>83.0</ele><time>2026-04-11T10:43:08.809Z</time></trkpt><trkpt lat="45.2605886" lon="9.2352771"><ele>83.0</ele><time>2026-04-11T10:43:09.809Z</time></trkpt><trkpt lat="45.2604011" lon="9.2351419"><ele>83.0</ele><time>2026-04-11T10:43:10.809Z</time></trkpt><trkpt lat="45.26022" lon="9.2350124"><ele>83.0</ele><time>2026-04-11T10:43:11.809Z</time></trkpt><trkpt lat="45.2600443" lon="9.2348866"><ele>83.0</ele><time>2026-04-11T10:43:12.808Z</time></trkpt><trkpt lat="45.2598751" lon="9.2347695"><ele>83.0</ele><time>2026-04-11T10:43:13.809Z</time></trkpt><trkpt lat="45.2597187" lon="9.2346596"><ele>83.0</ele><time>2026-04-11T10:43:14.809Z</time></trkpt><trkpt lat="45.2595733" lon="9.234554"><ele>83.0</ele><time>2026-04-11T10:43:15.809Z</time></trkpt><trkpt lat="45.2594365" lon="9.234454"><ele>83.0</ele><time>2026-04-11T10:43:16.809Z</time></trkpt><trkpt lat="45.2593067" lon="9.234362"><ele>83.0</ele><time>2026-04-11T10:43:17.81Z</time></trkpt><trkpt lat="45.25918" lon="9.2342784"><ele>83.0</ele><time>2026-04-11T10:43:18.81Z</time></trkpt><trkpt lat="45.2590596" lon="9.2341995"><ele>83.0</ele><time>2026-04-11T10:43:19.81Z</time></trkpt><trkpt lat="45.2589578" lon="9.2341218"><ele>83.0</ele><time>2026-04-11T10:43:20.81Z</time></trkpt><trkpt lat="45.2588783" lon="9.234039"><ele>82.80000000000001</ele><time>2026-04-11T10:43:21.81Z</time></trkpt><trkpt lat="45.258817" lon="9.2339401"><ele>82.6</ele><time>2026-04-11T10:43:22.81Z</time></trkpt><trkpt lat="45.2587704" lon="9.2338219"><ele>82.4</ele><time>2026-04-11T10:43:23.81Z</time></trkpt><trkpt lat="45.2587086" lon="9.2337341"><ele>82.19999999999999</ele><time>2026-04-11T10:43:24.81Z</time></trkpt><trkpt lat="45.2586184" lon="9.2336973"><ele>82.0</ele><time>2026-04-11T10:43:25.81Z</time></trkpt><trkpt lat="45.2585118" lon="9.2336962"><ele>82.0</ele><time>2026-04-11T10:43:26.81Z</time></trkpt><trkpt lat="45.2583867" lon="9.233676"><ele>82.0</ele><time>2026-04-11T10:43:27.81Z</time></trkpt><trkpt lat="45.2582499" lon="9.2336138"><ele>82.0</ele><time>2026-04-11T10:43:28.81Z</time></trkpt><trkpt lat="45.2580969" lon="9.2335274"><ele>82.0</ele><time>2026-04-11T10:43:29.809Z</time></trkpt><trkpt lat="45.2579358" lon="9.2334319"><ele>82.0</ele><time>2026-04-11T10:43:30.81Z</time></trkpt><trkpt lat="45.2577597" lon="9.2333392"><ele>82.0</ele><time>2026-04-11T10:43:31.81Z</time></trkpt><trkpt lat="45.2575723" lon="9.2332444"><ele>82.0</ele><time>2026-04-11T10:43:32.81Z</time></trkpt><trkpt lat="45.2573797" lon="9.2331657"><ele>81.33333333333333</ele><time>2026-04-11T10:43:33.81Z</time></trkpt><trkpt lat="45.2571905" lon="9.2331018"><ele>80.66666666666667</ele><time>2026-04-11T10:43:34.81Z</time></trkpt><trkpt lat="45.2570049" lon="9.2330561"><ele>80.0</ele><time>2026-04-11T10:43:35.81Z</time></trkpt><trkpt lat="45.2568285" lon="9.2330325"><ele>80.0</ele><time>2026-04-11T10:43:36.81Z</time></trkpt><trkpt lat="45.2566601" lon="9.233008"><ele>80.0</ele><time>2026-04-11T10:43:37.809Z</time></trkpt><trkpt lat="45.2564945" lon="9.2329903"><ele>80.0</ele><time>2026-04-11T10:43:38.81Z</time></trkpt><trkpt lat="45.2563289" lon="9.2329813"><ele>79.66666666666667</ele><time>2026-04-11T10:43:39.81Z</time></trkpt><trkpt lat="45.2561688" lon="9.2329771"><ele>79.33333333333333</ele><time>2026-04-11T10:43:40.81Z</time></trkpt><trkpt lat="45.2560148" lon="9.2329638"><ele>79.0</ele><time>2026-04-11T10:43:41.809Z</time></trkpt><trkpt lat="45.2558532" lon="9.2329471"><ele>79.0</ele><time>2026-04-11T10:43:42.809Z</time></trkpt><trkpt lat="45.2556933" lon="9.2329372"><ele>79.0</ele><time>2026-04-11T10:43:43.81Z</time></trkpt><trkpt lat="45.2555286" lon="9.2329295"><ele>79.0</ele><time>2026-04-11T10:43:44.81Z</time></trkpt><trkpt lat="45.2553658" lon="9.2329186"><ele>79.66666666666666</ele><time>2026-04-11T10:43:45.809Z</time></trkpt><trkpt lat="45.2552116" lon="9.2329085"><ele>80.33333333333333</ele><time>2026-04-11T10:43:46.81Z</time></trkpt><trkpt lat="45.2550586" lon="9.2328963"><ele>81.0</ele><time>2026-04-11T10:43:47.809Z</time></trkpt><trkpt lat="45.2549044" lon="9.2328885"><ele>81.33333333333333</ele><time>2026-04-11T10:43:48.81Z</time></trkpt><trkpt lat="45.2547415" lon="9.2328838"><ele>81.66666666666666</ele><time>2026-04-11T10:43:49.81Z</time></trkpt><trkpt lat="45.2545573" lon="9.2328838"><ele>82.0</ele><time>2026-04-11T10:43:50.81Z</time></trkpt><trkpt lat="45.2543662" lon="9.2328864"><ele>82.0</ele><time>2026-04-11T10:43:51.809Z</time></trkpt><trkpt lat="45.254164" lon="9.2328683"><ele>82.0</ele><time>2026-04-11T10:43:52.81Z</time></trkpt><trkpt lat="45.2539497" lon="9.2328433"><ele>82.0</ele><time>2026-04-11T10:43:53.81Z</time></trkpt><trkpt lat="45.2537417" lon="9.2328206"><ele>81.33333333333333</ele><time>2026-04-11T10:43:54.81Z</time></trkpt><trkpt lat="45.2535457" lon="9.2328093"><ele>80.66666666666667</ele><time>2026-04-11T10:43:55.81Z</time></trkpt><trkpt lat="45.2533675" lon="9.232799"><ele>80.0</ele><time>2026-04-11T10:43:56.81Z</time></trkpt><trkpt lat="45.2531916" lon="9.2327847"><ele>79.66666666666667</ele><time>2026-04-11T10:43:57.81Z</time></trkpt><trkpt lat="45.2530182" lon="9.2327682"><ele>79.33333333333333</ele><time>2026-04-11T10:43:58.81Z</time></trkpt><trkpt lat="45.2528409" lon="9.2327533"><ele>79.0</ele><time>2026-04-11T10:43:59.81Z</time></trkpt><trkpt lat="45.2526644" lon="9.2327422"><ele>79.0</ele><time>2026-04-11T10:44:00.81Z</time></trkpt><trkpt lat="45.2524908" lon="9.2327348"><ele>79.0</ele><time>2026-04-11T10:44:01.81Z</time></trkpt><trkpt lat="45.2523158" lon="9.2327193"><ele>79.0</ele><time>2026-04-11T10:44:02.81Z</time></trkpt><trkpt lat="45.2521339" lon="9.23271"><ele>79.66666666666666</ele><time>2026-04-11T10:44:03.81Z</time></trkpt><trkpt lat="45.2519527" lon="9.2327073"><ele>80.33333333333333</ele><time>2026-04-11T10:44:04.809Z</time></trkpt><trkpt lat="45.2517587" lon="9.2327037"><ele>81.0</ele><time>2026-04-11T10:44:05.811Z</time></trkpt><trkpt lat="45.2515544" lon="9.2327036"><ele>80.66666666666667</ele><time>2026-04-11T10:44:06.811Z</time></trkpt><trkpt lat="45.2513512" lon="9.2326927"><ele>80.33333333333334</ele><time>2026-04-11T10:44:07.811Z</time></trkpt><trkpt lat="45.2511353" lon="9.2326684"><ele>80.0</ele><time>2026-04-11T10:44:08.811Z</time></trkpt><trkpt lat="45.2509183" lon="9.2326435"><ele>80.0</ele><time>2026-04-11T10:44:09.811Z</time></trkpt><trkpt lat="45.250713" lon="9.232624"><ele>80.0</ele><time>2026-04-11T10:44:10.811Z</time></trkpt><trkpt lat="45.2505122" lon="9.2326115"><ele>80.0</ele><time>2026-04-11T10:44:11.811Z</time></trkpt><trkpt lat="45.2503163" lon="9.2325984"><ele>79.66666666666667</ele><time>2026-04-11T10:44:12.811Z</time></trkpt><trkpt lat="45.2501252" lon="9.2325846"><ele>79.33333333333333</ele><time>2026-04-11T10:44:13.811Z</time></trkpt><trkpt lat="45.2499357" lon="9.232574"><ele>79.0</ele><time>2026-04-11T10:44:14.811Z</time></trkpt><trkpt lat="45.2497524" lon="9.2325627"><ele>78.66666666666666</ele><time>2026-04-11T10:44:15.811Z</time></trkpt><trkpt lat="45.2495681" lon="9.2325523"><ele>78.33333333333333</ele><time>2026-04-11T10:44:16.81Z</time></trkpt><trkpt lat="45.2493766" lon="9.2325342"><ele>78.0</ele><time>2026-04-11T10:44:17.811Z</time></trkpt><trkpt lat="45.249183" lon="9.2325235"><ele>78.0</ele><time>2026-04-11T10:44:18.811Z</time></trkpt><trkpt lat="45.2489878" lon="9.2325126"><ele>78.0</ele><time>2026-04-11T10:44:19.811Z</time></trkpt><trkpt lat="45.2487875" lon="9.2325027"><ele>78.0</ele><time>2026-04-11T10:44:20.811Z</time></trkpt><trkpt lat="45.2485729" lon="9.2324994"><ele>78.33333333333333</ele><time>2026-04-11T10:44:21.81Z</time></trkpt><trkpt lat="45.2483503" lon="9.2325032"><ele>78.66666666666666</ele><time>2026-04-11T10:44:22.811Z</time></trkpt><trkpt lat="45.2481238" lon="9.2324921"><ele>79.0</ele><time>2026-04-11T10:44:23.811Z</time></trkpt><trkpt lat="45.2478882" lon="9.2324644"><ele>79.0</ele><time>2026-04-11T10:44:24.81Z</time></trkpt><trkpt lat="45.2476503" lon="9.232431"><ele>79.0</ele><time>2026-04-11T10:44:25.811Z</time></trkpt><trkpt lat="45.2474198" lon="9.2324147"><ele>78.5</ele><time>2026-04-11T10:44:26.811Z</time></trkpt><trkpt lat="45.2471892" lon="9.2324065"><ele>78.0</ele><time>2026-04-11T10:44:27.811Z</time></trkpt><trkpt lat="45.2469623" lon="9.2324086"><ele>78.0</ele><time>2026-04-11T10:44:28.811Z</time></trkpt><trkpt lat="45.2467381" lon="9.2324234"><ele>78.0</ele><time>2026-04-11T10:44:29.811Z</time></trkpt><trkpt lat="45.2465154" lon="9.232453"><ele>78.0</ele><time>2026-04-11T10:44:30.811Z</time></trkpt><trkpt lat="45.2462954" lon="9.2324925"><ele>78.0</ele><time>2026-04-11T10:44:31.811Z</time></trkpt><trkpt lat="45.246076" lon="9.2325485"><ele>78.0</ele><time>2026-04-11T10:44:32.81Z</time></trkpt><trkpt lat="45.2458592" lon="9.2326153"><ele>78.0</ele><time>2026-04-11T10:44:33.811Z</time></trkpt><trkpt lat="45.2456481" lon="9.2326845"><ele>78.0</ele><time>2026-04-11T10:44:34.811Z</time></trkpt><trkpt lat="45.2454357" lon="9.2327523"><ele>78.0</ele><time>2026-04-11T10:44:35.81Z</time></trkpt><trkpt lat="45.2452169" lon="9.2328247"><ele>78.0</ele><time>2026-04-11T10:44:36.81Z</time></trkpt><trkpt lat="45.2449902" lon="9.2328988"><ele>78.5</ele><time>2026-04-11T10:44:37.811Z</time></trkpt><trkpt lat="45.2447589" lon="9.2329756"><ele>79.0</ele><time>2026-04-11T10:44:38.811Z</time></trkpt><trkpt lat="45.2445235" lon="9.2330546"><ele>79.0</ele><time>2026-04-11T10:44:39.811Z</time></trkpt><trkpt lat="45.2442878" lon="9.2331304"><ele>79.0</ele><time>2026-04-11T10:44:40.811Z</time></trkpt><trkpt lat="45.2440574" lon="9.2332071"><ele>78.0</ele><time>2026-04-11T10:44:41.811Z</time></trkpt><trkpt lat="45.2438309" lon="9.2332897"><ele>77.0</ele><time>2026-04-11T10:44:42.811Z</time></trkpt><trkpt lat="45.2436114" lon="9.2333642"><ele>77.0</ele><time>2026-04-11T10:44:43.811Z</time></trkpt><trkpt lat="45.2434016" lon="9.2334373"><ele>77.0</ele><time>2026-04-11T10:44:44.811Z</time></trkpt><trkpt lat="45.243192" lon="9.2334954"><ele>77.0</ele><time>2026-04-11T10:44:45.81Z</time></trkpt><trkpt lat="45.2429839" lon="9.2335396"><ele>76.66666666666667</ele><time>2026-04-11T10:44:46.811Z</time></trkpt><trkpt lat="45.2427751" lon="9.2335687"><ele>76.33333333333333</ele><time>2026-04-11T10:44:47.81Z</time></trkpt><trkpt lat="45.2425675" lon="9.2335804"><ele>76.0</ele><time>2026-04-11T10:44:48.811Z</time></trkpt><trkpt lat="45.2423633" lon="9.2335793"><ele>76.33333333333333</ele><time>2026-04-11T10:44:49.81Z</time></trkpt><trkpt lat="45.242171" lon="9.2335723"><ele>76.66666666666667</ele><time>2026-04-11T10:44:50.811Z</time></trkpt><trkpt lat="45.2419897" lon="9.2335663"><ele>77.0</ele><time>2026-04-11T10:44:51.811Z</time></trkpt><trkpt lat="45.2418242" lon="9.2335585"><ele>77.0</ele><time>2026-04-11T10:44:52.811Z</time></trkpt><trkpt lat="45.2416715" lon="9.233552"><ele>77.0</ele><time>2026-04-11T10:44:53.812Z</time></trkpt><trkpt lat="45.2415296" lon="9.2335487"><ele>77.0</ele><time>2026-04-11T10:44:54.812Z</time></trkpt><trkpt lat="45.2413958" lon="9.2335346"><ele>77.0</ele><time>2026-04-11T10:44:55.812Z</time></trkpt><trkpt lat="45.2412726" lon="9.2335191"><ele>77.2</ele><time>2026-04-11T10:44:56.812Z</time></trkpt><trkpt lat="45.2411616" lon="9.2334942"><ele>77.4</ele><time>2026-04-11T10:44:57.812Z</time></trkpt><trkpt lat="45.2410643" lon="9.2334601"><ele>77.6</ele><time>2026-04-11T10:44:58.812Z</time></trkpt><trkpt lat="45.2409821" lon="9.2334052"><ele>77.8</ele><time>2026-04-11T10:44:59.812Z</time></trkpt><trkpt lat="45.2409202" lon="9.2333307"><ele>78.0</ele><time>2026-04-11T10:45:00.812Z</time></trkpt><trkpt lat="45.2408637" lon="9.2332439"><ele>78.0</ele><time>2026-04-11T10:45:01.811Z</time></trkpt><trkpt lat="45.2407917" lon="9.2331851"><ele>78.0</ele><time>2026-04-11T10:45:02.812Z</time></trkpt><trkpt lat="45.2406951" lon="9.2331618"><ele>78.0</ele><time>2026-04-11T10:45:03.811Z</time></trkpt><trkpt lat="45.2406015" lon="9.2331671"><ele>78.0</ele><time>2026-04-11T10:45:04.811Z</time></trkpt><trkpt lat="45.2404962" lon="9.2331801"><ele>78.0</ele><time>2026-04-11T10:45:05.812Z</time></trkpt><trkpt lat="45.2403854" lon="9.2331711"><ele>78.5</ele><time>2026-04-11T10:45:06.812Z</time></trkpt><trkpt lat="45.2402604" lon="9.2331333"><ele>79.0</ele><time>2026-04-11T10:45:07.812Z</time></trkpt><trkpt lat="45.2401274" lon="9.233088"><ele>79.5</ele><time>2026-04-11T10:45:08.812Z</time></trkpt><trkpt lat="45.2400013" lon="9.2330227"><ele>80.0</ele><time>2026-04-11T10:45:09.812Z</time></trkpt><trkpt lat="45.2398618" lon="9.2329297"><ele>79.33333333333334</ele><time>2026-04-11T10:45:10.811Z</time></trkpt><trkpt lat="45.239715" lon="9.2328181"><ele>78.66666666666667</ele><time>2026-04-11T10:45:11.812Z</time></trkpt><trkpt lat="45.2395634" lon="9.2326953"><ele>78.0</ele><time>2026-04-11T10:45:12.812Z</time></trkpt><trkpt lat="45.2394084" lon="9.2325561"><ele>78.0</ele><time>2026-04-11T10:45:13.812Z</time></trkpt><trkpt lat="45.2392481" lon="9.2324091"><ele>78.0</ele><time>2026-04-11T10:45:14.812Z</time></trkpt><trkpt lat="45.2390848" lon="9.232259"><ele>78.0</ele><time>2026-04-11T10:45:15.812Z</time></trkpt><trkpt lat="45.2389154" lon="9.2321048"><ele>78.66666666666667</ele><time>2026-04-11T10:45:16.812Z</time></trkpt><trkpt lat="45.2387466" lon="9.2319532"><ele>79.33333333333334</ele><time>2026-04-11T10:45:17.812Z</time></trkpt><trkpt lat="45.2385841" lon="9.2318024"><ele>80.0</ele><time>2026-04-11T10:45:18.812Z</time></trkpt><trkpt lat="45.2384287" lon="9.2316615"><ele>80.0</ele><time>2026-04-11T10:45:19.812Z</time></trkpt><trkpt lat="45.2382765" lon="9.2315154"><ele>80.0</ele><time>2026-04-11T10:45:20.812Z</time></trkpt><trkpt lat="45.2381266" lon="9.2313751"><ele>80.0</ele><time>2026-04-11T10:45:21.811Z</time></trkpt><trkpt lat="45.2379787" lon="9.2312397"><ele>79.33333333333334</ele><time>2026-04-11T10:45:22.812Z</time></trkpt><trkpt lat="45.2378301" lon="9.2311006"><ele>78.66666666666667</ele><time>2026-04-11T10:45:23.812Z</time></trkpt><trkpt lat="45.2376783" lon="9.2309639"><ele>78.0</ele><time>2026-04-11T10:45:24.812Z</time></trkpt><trkpt lat="45.2375289" lon="9.2308229"><ele>78.0</ele><time>2026-04-11T10:45:25.812Z</time></trkpt><trkpt lat="45.2373855" lon="9.2306835"><ele>78.0</ele><time>2026-04-11T10:45:26.812Z</time></trkpt><trkpt lat="45.2372413" lon="9.2305459"><ele>78.0</ele><time>2026-04-11T10:45:27.812Z</time></trkpt><trkpt lat="45.2370925" lon="9.2304122"><ele>78.0</ele><time>2026-04-11T10:45:28.812Z</time></trkpt><trkpt lat="45.2369447" lon="9.2302738"><ele>78.0</ele><time>2026-04-11T10:45:29.811Z</time></trkpt><trkpt lat="45.2367957" lon="9.230132"><ele>78.0</ele><time>2026-04-11T10:45:30.812Z</time></trkpt><trkpt lat="45.2366463" lon="9.2299919"><ele>78.0</ele><time>2026-04-11T10:45:31.811Z</time></trkpt><trkpt lat="45.2364918" lon="9.2298553"><ele>78.0</ele><time>2026-04-11T10:45:32.812Z</time></trkpt><trkpt lat="45.2363373" lon="9.2297209"><ele>78.0</ele><time>2026-04-11T10:45:33.812Z</time></trkpt><trkpt lat="45.2361858" lon="9.2295804"><ele>78.0</ele><time>2026-04-11T10:45:34.812Z</time></trkpt><trkpt lat="45.2360325" lon="9.2294404"><ele>78.0</ele><time>2026-04-11T10:45:35.812Z</time></trkpt><trkpt lat="45.2358798" lon="9.2293024"><ele>78.0</ele><time>2026-04-11T10:45:36.812Z</time></trkpt><trkpt lat="45.2357356" lon="9.2291714"><ele>78.0</ele><time>2026-04-11T10:45:37.812Z</time></trkpt><trkpt lat="45.2356018" lon="9.2290474"><ele>78.0</ele><time>2026-04-11T10:45:38.811Z</time></trkpt><trkpt lat="45.2354758" lon="9.2289263"><ele>78.0</ele><time>2026-04-11T10:45:39.812Z</time></trkpt><trkpt lat="45.2353659" lon="9.228812"><ele>78.0</ele><time>2026-04-11T10:45:40.812Z</time></trkpt><trkpt lat="45.2352708" lon="9.2287108"><ele>77.8</ele><time>2026-04-11T10:45:41.812Z</time></trkpt><trkpt lat="45.2351884" lon="9.2286141"><ele>77.6</ele><time>2026-04-11T10:45:42.813Z</time></trkpt><trkpt lat="45.2351185" lon="9.2285026"><ele>77.4</ele><time>2026-04-11T10:45:43.813Z</time></trkpt><trkpt lat="45.2350504" lon="9.2283911"><ele>77.2</ele><time>2026-04-11T10:45:44.813Z</time></trkpt><trkpt lat="45.2349737" lon="9.2283139"><ele>77.0</ele><time>2026-04-11T10:45:45.813Z</time></trkpt><trkpt lat="45.234863" lon="9.228271"><ele>77.2</ele><time>2026-04-11T10:45:46.812Z</time></trkpt><trkpt lat="45.2347711" lon="9.2282427"><ele>77.4</ele><time>2026-04-11T10:45:47.813Z</time></trkpt><trkpt lat="45.234686" lon="9.2281852"><ele>77.6</ele><time>2026-04-11T10:45:48.813Z</time></trkpt><trkpt lat="45.2346" lon="9.2281109"><ele>77.8</ele><time>2026-04-11T10:45:49.813Z</time></trkpt><trkpt lat="45.2345128" lon="9.2280285"><ele>78.0</ele><time>2026-04-11T10:45:50.813Z</time></trkpt><trkpt lat="45.2344242" lon="9.227943"><ele>78.0</ele><time>2026-04-11T10:45:51.813Z</time></trkpt><trkpt lat="45.2343306" lon="9.2278587"><ele>78.0</ele><time>2026-04-11T10:45:52.813Z</time></trkpt><trkpt lat="45.2342331" lon="9.2277753"><ele>78.0</ele><time>2026-04-11T10:45:53.813Z</time></trkpt><trkpt lat="45.2341386" lon="9.2276854"><ele>78.0</ele><time>2026-04-11T10:45:54.813Z</time></trkpt><trkpt lat="45.2340351" lon="9.2275972"><ele>78.0</ele><time>2026-04-11T10:45:55.813Z</time></trkpt><trkpt lat="45.2339354" lon="9.2275064"><ele>78.0</ele><time>2026-04-11T10:45:56.813Z</time></trkpt><trkpt lat="45.2338359" lon="9.2274144"><ele>78.0</ele><time>2026-04-11T10:45:57.813Z</time></trkpt><trkpt lat="45.2337353" lon="9.227323"><ele>78.0</ele><time>2026-04-11T10:45:58.813Z</time></trkpt><trkpt lat="45.2336415" lon="9.2272342"><ele>78.25</ele><time>2026-04-11T10:45:59.813Z</time></trkpt><trkpt lat="45.2335487" lon="9.2271459"><ele>78.5</ele><time>2026-04-11T10:46:00.812Z</time></trkpt><trkpt lat="45.2334509" lon="9.2270567"><ele>78.75</ele><time>2026-04-11T10:46:01.813Z</time></trkpt><trkpt lat="45.2333458" lon="9.2269607"><ele>79.0</ele><time>2026-04-11T10:46:02.812Z</time></trkpt><trkpt lat="45.233235" lon="9.226854"><ele>79.0</ele><time>2026-04-11T10:46:03.813Z</time></trkpt><trkpt lat="45.2331192" lon="9.2267431"><ele>79.0</ele><time>2026-04-11T10:46:04.813Z</time></trkpt><trkpt lat="45.2329915" lon="9.2266318"><ele>79.0</ele><time>2026-04-11T10:46:05.813Z</time></trkpt><trkpt lat="45.2328599" lon="9.2265139"><ele>79.0</ele><time>2026-04-11T10:46:06.813Z</time></trkpt><trkpt lat="45.2327276" lon="9.2263899"><ele>79.0</ele><time>2026-04-11T10:46:07.812Z</time></trkpt><trkpt lat="45.2326026" lon="9.2262727"><ele>79.0</ele><time>2026-04-11T10:46:08.812Z</time></trkpt><trkpt lat="45.2324849" lon="9.2261634"><ele>79.0</ele><time>2026-04-11T10:46:09.812Z</time></trkpt><trkpt lat="45.2323822" lon="9.226067"><ele>79.0</ele><time>2026-04-11T10:46:10.813Z</time></trkpt><trkpt lat="45.2322922" lon="9.2259761"><ele>79.0</ele><time>2026-04-11T10:46:11.813Z</time></trkpt><trkpt lat="45.2322117" lon="9.2258958"><ele>79.0</ele><time>2026-04-11T10:46:12.813Z</time></trkpt><trkpt lat="45.2321377" lon="9.2258155"><ele>79.0</ele><time>2026-04-11T10:46:13.813Z</time></trkpt><trkpt lat="45.2320725" lon="9.2257424"><ele>79.0</ele><time>2026-04-11T10:46:14.813Z</time></trkpt><trkpt lat="45.2320096" lon="9.2256723"><ele>79.0</ele><time>2026-04-11T10:46:15.813Z</time></trkpt><trkpt lat="45.2319532" lon="9.2256053"><ele>79.0</ele><time>2026-04-11T10:46:16.813Z</time></trkpt><trkpt lat="45.2319001" lon="9.2255423"><ele>79.0</ele><time>2026-04-11T10:46:17.813Z</time></trkpt><trkpt lat="45.2318492" lon="9.2254732"><ele>79.0</ele><time>2026-04-11T10:46:18.813Z</time></trkpt><trkpt lat="45.2318027" lon="9.2254053"><ele>79.0</ele><time>2026-04-11T10:46:19.813Z</time></trkpt><trkpt lat="45.2317631" lon="9.2253357"><ele>79.0</ele><time>2026-04-11T10:46:20.812Z</time></trkpt><trkpt lat="45.2317324" lon="9.225256"><ele>79.0</ele><time>2026-04-11T10:46:21.813Z</time></trkpt><trkpt lat="45.2316977" lon="9.2250904"><ele>79.0</ele><time>2026-04-11T10:46:23.812Z</time></trkpt><trkpt lat="45.231643" lon="9.2250133"><ele>79.0</ele><time>2026-04-11T10:46:24.812Z</time></trkpt><trkpt lat="45.2315718" lon="9.2249534"><ele>79.0</ele><time>2026-04-11T10:46:25.813Z</time></trkpt><trkpt lat="45.2314945" lon="9.2248873"><ele>79.0</ele><time>2026-04-11T10:46:26.813Z</time></trkpt><trkpt lat="45.2314131" lon="9.2247641"><ele>79.0</ele><time>2026-04-11T10:46:27.813Z</time></trkpt><trkpt lat="45.2313422" lon="9.2245973"><ele>79.0</ele><time>2026-04-11T10:46:28.813Z</time></trkpt><trkpt lat="45.2312648" lon="9.2243951"><ele>79.0</ele><time>2026-04-11T10:46:29.814Z</time></trkpt><trkpt lat="45.2311819" lon="9.2241624"><ele>79.0</ele><time>2026-04-11T10:46:30.814Z</time></trkpt><trkpt lat="45.231093" lon="9.223912"><ele>79.0</ele><time>2026-04-11T10:46:31.814Z</time></trkpt><trkpt lat="45.2309949" lon="9.2236386"><ele>80.0</ele><time>2026-04-11T10:46:32.814Z</time></trkpt><trkpt lat="45.2308957" lon="9.2233471"><ele>81.0</ele><time>2026-04-11T10:46:33.814Z</time></trkpt><trkpt lat="45.2307966" lon="9.2230615"><ele>81.0</ele><time>2026-04-11T10:46:34.814Z</time></trkpt><trkpt lat="45.2307075" lon="9.2227844"><ele>81.0</ele><time>2026-04-11T10:46:35.813Z</time></trkpt><trkpt lat="45.230622" lon="9.2225272"><ele>81.0</ele><time>2026-04-11T10:46:36.814Z</time></trkpt><trkpt lat="45.2305409" lon="9.2222828"><ele>81.0</ele><time>2026-04-11T10:46:37.814Z</time></trkpt><trkpt lat="45.2304601" lon="9.2220436"><ele>81.0</ele><time>2026-04-11T10:46:38.813Z</time></trkpt><trkpt lat="45.2303783" lon="9.2218116"><ele>81.0</ele><time>2026-04-11T10:46:39.814Z</time></trkpt><trkpt lat="45.2302966" lon="9.2215765"><ele>81.0</ele><time>2026-04-11T10:46:40.814Z</time></trkpt><trkpt lat="45.2302168" lon="9.2213369"><ele>81.0</ele><time>2026-04-11T10:46:41.813Z</time></trkpt><trkpt lat="45.2301386" lon="9.2210992"><ele>81.0</ele><time>2026-04-11T10:46:42.814Z</time></trkpt><trkpt lat="45.2300638" lon="9.22087"><ele>81.33333333333333</ele><time>2026-04-11T10:46:43.814Z</time></trkpt><trkpt lat="45.2299883" lon="9.2206441"><ele>81.66666666666666</ele><time>2026-04-11T10:46:44.814Z</time></trkpt><trkpt lat="45.2299128" lon="9.2204176"><ele>82.0</ele><time>2026-04-11T10:46:45.814Z</time></trkpt><trkpt lat="45.2298366" lon="9.2201885"><ele>81.66666666666666</ele><time>2026-04-11T10:46:46.813Z</time></trkpt><trkpt lat="45.2297594" lon="9.2199559"><ele>81.33333333333333</ele><time>2026-04-11T10:46:47.814Z</time></trkpt><trkpt lat="45.2296836" lon="9.2197238"><ele>81.0</ele><time>2026-04-11T10:46:48.814Z</time></trkpt><trkpt lat="45.2296063" lon="9.2194914"><ele>81.0</ele><time>2026-04-11T10:46:49.814Z</time></trkpt><trkpt lat="45.2295257" lon="9.2192545"><ele>81.0</ele><time>2026-04-11T10:46:50.814Z</time></trkpt><trkpt lat="45.2294492" lon="9.219018"><ele>81.0</ele><time>2026-04-11T10:46:51.814Z</time></trkpt><trkpt lat="45.2293699" lon="9.2187782"><ele>81.33333333333333</ele><time>2026-04-11T10:46:52.814Z</time></trkpt><trkpt lat="45.2292875" lon="9.2185377"><ele>81.66666666666666</ele><time>2026-04-11T10:46:53.814Z</time></trkpt><trkpt lat="45.2292054" lon="9.2182999"><ele>82.0</ele><time>2026-04-11T10:46:54.814Z</time></trkpt><trkpt lat="45.2291267" lon="9.2180624"><ele>82.0</ele><time>2026-04-11T10:46:55.813Z</time></trkpt><trkpt lat="45.2290375" lon="9.2178066"><ele>82.0</ele><time>2026-04-11T10:46:56.814Z</time></trkpt><trkpt lat="45.2289427" lon="9.2175311"><ele>82.0</ele><time>2026-04-11T10:46:57.813Z</time></trkpt><trkpt lat="45.228837" lon="9.2172254"><ele>82.0</ele><time>2026-04-11T10:46:58.814Z</time></trkpt><trkpt lat="45.2287409" lon="9.2169089"><ele>82.0</ele><time>2026-04-11T10:46:59.813Z</time></trkpt><trkpt lat="45.2286528" lon="9.216614"><ele>82.0</ele><time>2026-04-11T10:47:00.814Z</time></trkpt><trkpt lat="45.2285619" lon="9.2163434"><ele>82.0</ele><time>2026-04-11T10:47:01.814Z</time></trkpt><trkpt lat="45.2284752" lon="9.2160928"><ele>82.0</ele><time>2026-04-11T10:47:02.814Z</time></trkpt><trkpt lat="45.2283953" lon="9.215856"><ele>83.0</ele><time>2026-04-11T10:47:03.813Z</time></trkpt><trkpt lat="45.2283193" lon="9.2156253"><ele>84.0</ele><time>2026-04-11T10:47:04.813Z</time></trkpt><trkpt lat="45.228247" lon="9.2153996"><ele>85.0</ele><time>2026-04-11T10:47:05.813Z</time></trkpt><trkpt lat="45.2281749" lon="9.2151736"><ele>84.66666666666666</ele><time>2026-04-11T10:47:06.814Z</time></trkpt><trkpt lat="45.2280973" lon="9.2149484"><ele>84.33333333333333</ele><time>2026-04-11T10:47:07.814Z</time></trkpt><trkpt lat="45.2280202" lon="9.2147273"><ele>84.0</ele><time>2026-04-11T10:47:08.813Z</time></trkpt><trkpt lat="45.2279445" lon="9.2145061"><ele>84.0</ele><time>2026-04-11T10:47:09.814Z</time></trkpt><trkpt lat="45.2278694" lon="9.2142832"><ele>84.0</ele><time>2026-04-11T10:47:10.814Z</time></trkpt><trkpt lat="45.2277937" lon="9.2140572"><ele>84.0</ele><time>2026-04-11T10:47:11.814Z</time></trkpt><trkpt lat="45.227717" lon="9.213833"><ele>83.66666666666667</ele><time>2026-04-11T10:47:12.814Z</time></trkpt><trkpt lat="45.2276304" lon="9.2136165"><ele>83.33333333333334</ele><time>2026-04-11T10:47:13.814Z</time></trkpt><trkpt lat="45.2275335" lon="9.2134108"><ele>83.0</ele><time>2026-04-11T10:47:14.813Z</time></trkpt><trkpt lat="45.2274301" lon="9.2132084"><ele>82.66666666666667</ele><time>2026-04-11T10:47:15.814Z</time></trkpt><trkpt lat="45.2273223" lon="9.213016"><ele>82.33333333333333</ele><time>2026-04-11T10:47:16.814Z</time></trkpt><trkpt lat="45.2272081" lon="9.2128406"><ele>82.0</ele><time>2026-04-11T10:47:17.814Z</time></trkpt><trkpt lat="45.2270912" lon="9.2126828"><ele>82.0</ele><time>2026-04-11T10:47:18.815Z</time></trkpt><trkpt lat="45.2269721" lon="9.2125259"><ele>82.0</ele><time>2026-04-11T10:47:19.815Z</time></trkpt><trkpt lat="45.2268581" lon="9.2123774"><ele>82.0</ele><time>2026-04-11T10:47:20.815Z</time></trkpt><trkpt lat="45.2267487" lon="9.2122339"><ele>82.25</ele><time>2026-04-11T10:47:21.815Z</time></trkpt><trkpt lat="45.2266392" lon="9.2120975"><ele>82.5</ele><time>2026-04-11T10:47:22.815Z</time></trkpt><trkpt lat="45.2265279" lon="9.2119604"><ele>82.75</ele><time>2026-04-11T10:47:23.815Z</time></trkpt><trkpt lat="45.2264138" lon="9.2118189"><ele>83.0</ele><time>2026-04-11T10:47:24.815Z</time></trkpt><trkpt lat="45.2262983" lon="9.2116706"><ele>82.33333333333334</ele><time>2026-04-11T10:47:25.815Z</time></trkpt><trkpt lat="45.2261793" lon="9.2115268"><ele>81.66666666666667</ele><time>2026-04-11T10:47:26.815Z</time></trkpt><trkpt lat="45.2260581" lon="9.211383"><ele>81.0</ele><time>2026-04-11T10:47:27.814Z</time></trkpt><trkpt lat="45.2259423" lon="9.2112379"><ele>81.0</ele><time>2026-04-11T10:47:28.815Z</time></trkpt><trkpt lat="45.2258279" lon="9.211087"><ele>81.0</ele><time>2026-04-11T10:47:29.815Z</time></trkpt><trkpt lat="45.22571" lon="9.2109413"><ele>81.0</ele><time>2026-04-11T10:47:30.815Z</time></trkpt><trkpt lat="45.2255897" lon="9.2108031"><ele>80.5</ele><time>2026-04-11T10:47:31.815Z</time></trkpt><trkpt lat="45.2254771" lon="9.2106647"><ele>80.0</ele><time>2026-04-11T10:47:32.815Z</time></trkpt><trkpt lat="45.2253689" lon="9.2105221"><ele>79.5</ele><time>2026-04-11T10:47:33.814Z</time></trkpt><trkpt lat="45.2252625" lon="9.2103888"><ele>79.0</ele><time>2026-04-11T10:47:34.815Z</time></trkpt><trkpt lat="45.2251564" lon="9.2102619"><ele>79.0</ele><time>2026-04-11T10:47:35.815Z</time></trkpt><trkpt lat="45.2250531" lon="9.2101353"><ele>79.0</ele><time>2026-04-11T10:47:36.815Z</time></trkpt><trkpt lat="45.2249531" lon="9.2100085"><ele>79.0</ele><time>2026-04-11T10:47:37.815Z</time></trkpt><trkpt lat="45.2248551" lon="9.209883"><ele>79.0</ele><time>2026-04-11T10:47:38.815Z</time></trkpt><trkpt lat="45.2247542" lon="9.2097528"><ele>79.5</ele><time>2026-04-11T10:47:39.815Z</time></trkpt><trkpt lat="45.224651" lon="9.2096171"><ele>80.0</ele><time>2026-04-11T10:47:40.815Z</time></trkpt><trkpt lat="45.22454" lon="9.2094802"><ele>80.5</ele><time>2026-04-11T10:47:41.814Z</time></trkpt><trkpt lat="45.2244286" lon="9.2093424"><ele>81.0</ele><time>2026-04-11T10:47:42.815Z</time></trkpt><trkpt lat="45.2243092" lon="9.2091992"><ele>81.0</ele><time>2026-04-11T10:47:43.815Z</time></trkpt><trkpt lat="45.2241921" lon="9.2090482"><ele>81.0</ele><time>2026-04-11T10:47:44.815Z</time></trkpt><trkpt lat="45.2240678" lon="9.208895"><ele>81.0</ele><time>2026-04-11T10:47:45.815Z</time></trkpt><trkpt lat="45.2239283" lon="9.2087381"><ele>80.66666666666667</ele><time>2026-04-11T10:47:46.815Z</time></trkpt><trkpt lat="45.2237821" lon="9.208575"><ele>80.33333333333334</ele><time>2026-04-11T10:47:47.815Z</time></trkpt><trkpt lat="45.2236322" lon="9.2084057"><ele>80.0</ele><time>2026-04-11T10:47:48.815Z</time></trkpt><trkpt lat="45.2234843" lon="9.2082418"><ele>80.66666666666667</ele><time>2026-04-11T10:47:49.815Z</time></trkpt><trkpt lat="45.2233486" lon="9.2080802"><ele>81.33333333333333</ele><time>2026-04-11T10:47:50.815Z</time></trkpt><trkpt lat="45.223225" lon="9.2079396"><ele>82.0</ele><time>2026-04-11T10:47:51.814Z</time></trkpt><trkpt lat="45.2231098" lon="9.2078065"><ele>82.5</ele><time>2026-04-11T10:47:52.815Z</time></trkpt><trkpt lat="45.2230093" lon="9.2076934"><ele>83.0</ele><time>2026-04-11T10:47:53.814Z</time></trkpt><trkpt lat="45.2229086" lon="9.207586"><ele>83.5</ele><time>2026-04-11T10:47:54.815Z</time></trkpt><trkpt lat="45.2228085" lon="9.2074745"><ele>84.0</ele><time>2026-04-11T10:47:55.815Z</time></trkpt><trkpt lat="45.2227098" lon="9.2073705"><ele>83.75</ele><time>2026-04-11T10:47:56.815Z</time></trkpt><trkpt lat="45.2226124" lon="9.207274"><ele>83.5</ele><time>2026-04-11T10:47:57.815Z</time></trkpt><trkpt lat="45.222508" lon="9.207184"><ele>83.25</ele><time>2026-04-11T10:47:58.815Z</time></trkpt><trkpt lat="45.2224014" lon="9.2070863"><ele>83.0</ele><time>2026-04-11T10:47:59.815Z</time></trkpt><trkpt lat="45.2222878" lon="9.2070084"><ele>83.0</ele><time>2026-04-11T10:48:00.815Z</time></trkpt><trkpt lat="45.2221869" lon="9.2069064"><ele>83.0</ele><time>2026-04-11T10:48:01.815Z</time></trkpt><trkpt lat="45.2220879" lon="9.2068043"><ele>83.0</ele><time>2026-04-11T10:48:02.815Z</time></trkpt><trkpt lat="45.2219921" lon="9.206705"><ele>83.0</ele><time>2026-04-11T10:48:03.815Z</time></trkpt><trkpt lat="45.2218958" lon="9.2066106"><ele>83.0</ele><time>2026-04-11T10:48:04.815Z</time></trkpt><trkpt lat="45.2217947" lon="9.2065148"><ele>83.0</ele><time>2026-04-11T10:48:05.815Z</time></trkpt><trkpt lat="45.2217031" lon="9.2064172"><ele>83.0</ele><time>2026-04-11T10:48:06.816Z</time></trkpt><trkpt lat="45.2216176" lon="9.2063204"><ele>83.0</ele><time>2026-04-11T10:48:07.815Z</time></trkpt><trkpt lat="45.2215434" lon="9.2062279"><ele>83.0</ele><time>2026-04-11T10:48:08.816Z</time></trkpt><trkpt lat="45.2214763" lon="9.2061488"><ele>83.66666666666667</ele><time>2026-04-11T10:48:09.816Z</time></trkpt><trkpt lat="45.2214171" lon="9.2060698"><ele>84.33333333333334</ele><time>2026-04-11T10:48:10.816Z</time></trkpt><trkpt lat="45.2213733" lon="9.2059831"><ele>85.0</ele><time>2026-04-11T10:48:11.816Z</time></trkpt><trkpt lat="45.2213431" lon="9.205879"><ele>85.66666666666667</ele><time>2026-04-11T10:48:12.816Z</time></trkpt><trkpt lat="45.2212986" lon="9.2057986"><ele>86.33333333333333</ele><time>2026-04-11T10:48:13.815Z</time></trkpt><trkpt lat="45.2212351" lon="9.20572"><ele>87.0</ele><time>2026-04-11T10:48:14.815Z</time></trkpt><trkpt lat="45.2211489" lon="9.2056775"><ele>87.0</ele><time>2026-04-11T10:48:15.816Z</time></trkpt><trkpt lat="45.2210488" lon="9.2056656"><ele>87.0</ele><time>2026-04-11T10:48:16.816Z</time></trkpt><trkpt lat="45.2209648" lon="9.2056437"><ele>87.0</ele><time>2026-04-11T10:48:17.816Z</time></trkpt><trkpt lat="45.2208828" lon="9.2055883"><ele>87.0</ele><time>2026-04-11T10:48:18.816Z</time></trkpt><trkpt lat="45.2207974" lon="9.2055121"><ele>87.0</ele><time>2026-04-11T10:48:19.816Z</time></trkpt><trkpt lat="45.2206759" lon="9.2054221"><ele>85.0</ele><time>2026-04-11T10:48:20.815Z</time></trkpt><trkpt lat="45.2205404" lon="9.2052714"><ele>83.0</ele><time>2026-04-11T10:48:21.815Z</time></trkpt><trkpt lat="45.2203889" lon="9.2050972"><ele>81.0</ele><time>2026-04-11T10:48:22.816Z</time></trkpt><trkpt lat="45.2202205" lon="9.2049285"><ele>81.0</ele><time>2026-04-11T10:48:23.816Z</time></trkpt><trkpt lat="45.2200473" lon="9.2047528"><ele>81.0</ele><time>2026-04-11T10:48:24.816Z</time></trkpt><trkpt lat="45.2198966" lon="9.2045871"><ele>81.0</ele><time>2026-04-11T10:48:25.816Z</time></trkpt><trkpt lat="45.2197583" lon="9.2044333"><ele>81.0</ele><time>2026-04-11T10:48:26.816Z</time></trkpt><trkpt lat="45.2196309" lon="9.2042976"><ele>81.0</ele><time>2026-04-11T10:48:27.816Z</time></trkpt><trkpt lat="45.2195068" lon="9.204169"><ele>81.0</ele><time>2026-04-11T10:48:28.816Z</time></trkpt><trkpt lat="45.2193883" lon="9.2040456"><ele>80.66666666666667</ele><time>2026-04-11T10:48:29.816Z</time></trkpt><trkpt lat="45.2192699" lon="9.2039164"><ele>80.33333333333334</ele><time>2026-04-11T10:48:30.816Z</time></trkpt><trkpt lat="45.2191485" lon="9.2037869"><ele>80.0</ele><time>2026-04-11T10:48:31.816Z</time></trkpt><trkpt lat="45.219024" lon="9.2036565"><ele>80.5</ele><time>2026-04-11T10:48:32.816Z</time></trkpt><trkpt lat="45.2188994" lon="9.2035292"><ele>81.0</ele><time>2026-04-11T10:48:33.816Z</time></trkpt><trkpt lat="45.2187804" lon="9.2034058"><ele>81.5</ele><time>2026-04-11T10:48:34.815Z</time></trkpt><trkpt lat="45.2186644" lon="9.2032906"><ele>82.0</ele><time>2026-04-11T10:48:35.816Z</time></trkpt><trkpt lat="45.2185476" lon="9.2031711"><ele>82.0</ele><time>2026-04-11T10:48:36.816Z</time></trkpt><trkpt lat="45.2184356" lon="9.2030513"><ele>82.0</ele><time>2026-04-11T10:48:37.816Z</time></trkpt><trkpt lat="45.2183275" lon="9.2029345"><ele>82.0</ele><time>2026-04-11T10:48:38.816Z</time></trkpt><trkpt lat="45.2182244" lon="9.2028227"><ele>82.0</ele><time>2026-04-11T10:48:39.816Z</time></trkpt><trkpt lat="45.2181189" lon="9.2027182"><ele>82.25</ele><time>2026-04-11T10:48:40.815Z</time></trkpt><trkpt lat="45.2180068" lon="9.2026136"><ele>82.5</ele><time>2026-04-11T10:48:41.816Z</time></trkpt><trkpt lat="45.2178909" lon="9.2024939"><ele>82.75</ele><time>2026-04-11T10:48:42.815Z</time></trkpt><trkpt lat="45.2177754" lon="9.2023665"><ele>83.0</ele><time>2026-04-11T10:48:43.816Z</time></trkpt><trkpt lat="45.2176709" lon="9.20225"><ele>83.0</ele><time>2026-04-11T10:48:44.816Z</time></trkpt><trkpt lat="45.2175789" lon="9.2021581"><ele>83.0</ele><time>2026-04-11T10:48:45.816Z</time></trkpt><trkpt lat="45.2175035" lon="9.2020771"><ele>83.0</ele><time>2026-04-11T10:48:46.816Z</time></trkpt><trkpt lat="45.2174364" lon="9.2020022"><ele>83.0</ele><time>2026-04-11T10:48:47.816Z</time></trkpt><trkpt lat="45.2173697" lon="9.2019287"><ele>83.0</ele><time>2026-04-11T10:48:48.815Z</time></trkpt><trkpt lat="45.2173106" lon="9.2018609"><ele>82.33333333333334</ele><time>2026-04-11T10:48:49.816Z</time></trkpt><trkpt lat="45.2172582" lon="9.2018089"><ele>81.66666666666667</ele><time>2026-04-11T10:48:50.816Z</time></trkpt><trkpt lat="45.2171993" lon="9.2017512"><ele>81.0</ele><time>2026-04-11T10:48:52.816Z</time></trkpt><trkpt lat="45.2171362" lon="9.2017001"><ele>80.33333333333333</ele><time>2026-04-11T10:49:42.817Z</time></trkpt><trkpt lat="45.2170381" lon="9.2016193"><ele>79.66666666666666</ele><time>2026-04-11T10:49:45.816Z</time></trkpt><trkpt lat="45.21694" lon="9.2015356"><ele>79.0</ele><time>2026-04-11T10:49:47.817Z</time></trkpt><trkpt lat="45.2168872" lon="9.2014791"><ele>79.00000000000001</ele><time>2026-04-11T10:49:48.816Z</time></trkpt><trkpt lat="45.2168301" lon="9.2014244"><ele>79.0</ele><time>2026-04-11T10:49:49.817Z</time></trkpt><trkpt lat="45.216771" lon="9.2013699"><ele>79.0</ele><time>2026-04-11T10:49:50.817Z</time></trkpt><trkpt lat="45.216711" lon="9.2013151"><ele>79.0</ele><time>2026-04-11T10:49:51.816Z</time></trkpt><trkpt lat="45.2166507" lon="9.2012607"><ele>79.0</ele><time>2026-04-11T10:49:52.817Z</time></trkpt><trkpt lat="45.216587" lon="9.2012157"><ele>79.00000000000001</ele><time>2026-04-11T10:49:53.817Z</time></trkpt><trkpt lat="45.2165216" lon="9.201166"><ele>79.0</ele><time>2026-04-11T10:49:54.816Z</time></trkpt><trkpt lat="45.216444" lon="9.2011159"><ele>78.8</ele><time>2026-04-11T10:49:55.817Z</time></trkpt><trkpt lat="45.2163518" lon="9.2010489"><ele>78.60000000000001</ele><time>2026-04-11T10:49:56.817Z</time></trkpt><trkpt lat="45.2162527" lon="9.2009738"><ele>78.4</ele><time>2026-04-11T10:49:57.817Z</time></trkpt><trkpt lat="45.2161552" lon="9.200895"><ele>78.2</ele><time>2026-04-11T10:49:58.817Z</time></trkpt><trkpt lat="45.216063" lon="9.2008171"><ele>78.0</ele><time>2026-04-11T10:49:59.817Z</time></trkpt><trkpt lat="45.2159658" lon="9.2007428"><ele>78.0</ele><time>2026-04-11T10:50:00.817Z</time></trkpt><trkpt lat="45.2158667" lon="9.2006699"><ele>78.0</ele><time>2026-04-11T10:50:01.816Z</time></trkpt><trkpt lat="45.2157625" lon="9.2005927"><ele>78.0</ele><time>2026-04-11T10:50:02.817Z</time></trkpt><trkpt lat="45.2156542" lon="9.2005134"><ele>78.0</ele><time>2026-04-11T10:50:03.817Z</time></trkpt><trkpt lat="45.2155434" lon="9.2004344"><ele>78.75</ele><time>2026-04-11T10:50:04.817Z</time></trkpt><trkpt lat="45.2154287" lon="9.2003518"><ele>79.5</ele><time>2026-04-11T10:50:05.818Z</time></trkpt><trkpt lat="45.2153034" lon="9.2002648"><ele>80.25</ele><time>2026-04-11T10:50:06.818Z</time></trkpt><trkpt lat="45.2151657" lon="9.2001683"><ele>81.0</ele><time>2026-04-11T10:50:07.818Z</time></trkpt><trkpt lat="45.2150174" lon="9.2000631"><ele>81.0</ele><time>2026-04-11T10:50:08.818Z</time></trkpt><trkpt lat="45.2148635" lon="9.1999521"><ele>81.0</ele><time>2026-04-11T10:50:09.818Z</time></trkpt><trkpt lat="45.2147119" lon="9.1998337"><ele>81.0</ele><time>2026-04-11T10:50:10.818Z</time></trkpt><trkpt lat="45.2145758" lon="9.1997189"><ele>80.5</ele><time>2026-04-11T10:50:11.818Z</time></trkpt><trkpt lat="45.2144511" lon="9.1996084"><ele>80.0</ele><time>2026-04-11T10:50:12.818Z</time></trkpt><trkpt lat="45.2143248" lon="9.199498"><ele>79.5</ele><time>2026-04-11T10:50:13.818Z</time></trkpt><trkpt lat="45.2142002" lon="9.1993739"><ele>79.0</ele><time>2026-04-11T10:50:14.818Z</time></trkpt><trkpt lat="45.2140784" lon="9.1992327"><ele>79.0</ele><time>2026-04-11T10:50:15.818Z</time></trkpt><trkpt lat="45.2139595" lon="9.1990856"><ele>79.0</ele><time>2026-04-11T10:50:16.818Z</time></trkpt><trkpt lat="45.2138442" lon="9.1989317"><ele>79.0</ele><time>2026-04-11T10:50:17.818Z</time></trkpt><trkpt lat="45.2137372" lon="9.1987668"><ele>79.0</ele><time>2026-04-11T10:50:18.817Z</time></trkpt><trkpt lat="45.2136383" lon="9.1985937"><ele>79.0</ele><time>2026-04-11T10:50:19.818Z</time></trkpt><trkpt lat="45.2135427" lon="9.1984165"><ele>79.0</ele><time>2026-04-11T10:50:20.818Z</time></trkpt><trkpt lat="45.2134437" lon="9.1982362"><ele>79.66666666666666</ele><time>2026-04-11T10:50:21.818Z</time></trkpt><trkpt lat="45.2133445" lon="9.1980488"><ele>80.33333333333333</ele><time>2026-04-11T10:50:22.817Z</time></trkpt><trkpt lat="45.2132451" lon="9.1978551"><ele>81.0</ele><time>2026-04-11T10:50:23.818Z</time></trkpt><trkpt lat="45.2131432" lon="9.1976594"><ele>81.0</ele><time>2026-04-11T10:50:24.818Z</time></trkpt><trkpt lat="45.2130369" lon="9.1974602"><ele>81.0</ele><time>2026-04-11T10:50:25.818Z</time></trkpt><trkpt lat="45.2129262" lon="9.1972528"><ele>81.0</ele><time>2026-04-11T10:50:26.818Z</time></trkpt><trkpt lat="45.2128096" lon="9.1970392"><ele>81.0</ele><time>2026-04-11T10:50:27.818Z</time></trkpt><trkpt lat="45.2126753" lon="9.1968011"><ele>81.0</ele><time>2026-04-11T10:50:28.818Z</time></trkpt><trkpt lat="45.212529" lon="9.1965233"><ele>80.5</ele><time>2026-04-11T10:50:29.818Z</time></trkpt><trkpt lat="45.2123853" lon="9.1962375"><ele>80.0</ele><time>2026-04-11T10:50:30.818Z</time></trkpt><trkpt lat="45.2122614" lon="9.1959705"><ele>80.0</ele><time>2026-04-11T10:50:31.818Z</time></trkpt><trkpt lat="45.2121358" lon="9.1957204"><ele>80.0</ele><time>2026-04-11T10:50:32.818Z</time></trkpt><trkpt lat="45.212007" lon="9.1954786"><ele>80.0</ele><time>2026-04-11T10:50:33.818Z</time></trkpt><trkpt lat="45.2118784" lon="9.1952433"><ele>79.33333333333334</ele><time>2026-04-11T10:50:34.818Z</time></trkpt><trkpt lat="45.2117535" lon="9.1950264"><ele>78.66666666666667</ele><time>2026-04-11T10:50:35.818Z</time></trkpt><trkpt lat="45.2116374" lon="9.1948295"><ele>78.0</ele><time>2026-04-11T10:50:36.818Z</time></trkpt><trkpt lat="45.2115303" lon="9.1946454"><ele>78.25</ele><time>2026-04-11T10:50:37.817Z</time></trkpt><trkpt lat="45.2114352" lon="9.1944811"><ele>78.5</ele><time>2026-04-11T10:50:38.818Z</time></trkpt><trkpt lat="45.2113441" lon="9.1943441"><ele>78.75</ele><time>2026-04-11T10:50:39.818Z</time></trkpt><trkpt lat="45.2112661" lon="9.1942183"><ele>79.0</ele><time>2026-04-11T10:50:40.818Z</time></trkpt><trkpt lat="45.2112015" lon="9.194101"><ele>79.0</ele><time>2026-04-11T10:50:41.818Z</time></trkpt><trkpt lat="45.2111459" lon="9.19399"><ele>79.0</ele><time>2026-04-11T10:50:42.818Z</time></trkpt><trkpt lat="45.2110958" lon="9.1938723"><ele>79.0</ele><time>2026-04-11T10:50:43.818Z</time></trkpt><trkpt lat="45.2110557" lon="9.1937508"><ele>79.0</ele><time>2026-04-11T10:50:44.818Z</time></trkpt><trkpt lat="45.2110278" lon="9.193617"><ele>79.0</ele><time>2026-04-11T10:50:45.817Z</time></trkpt><trkpt lat="45.2110204" lon="9.1934855"><ele>79.0</ele><time>2026-04-11T10:50:46.818Z</time></trkpt><trkpt lat="45.211041" lon="9.1933512"><ele>79.0</ele><time>2026-04-11T10:50:47.818Z</time></trkpt><trkpt lat="45.2110451" lon="9.1932121"><ele>79.0</ele><time>2026-04-11T10:50:48.818Z</time></trkpt><trkpt lat="45.2110137" lon="9.1930774"><ele>79.0</ele><time>2026-04-11T10:50:49.817Z</time></trkpt><trkpt lat="45.2109517" lon="9.1929471"><ele>79.0</ele><time>2026-04-11T10:50:50.818Z</time></trkpt><trkpt lat="45.2108634" lon="9.1928292"><ele>79.0</ele><time>2026-04-11T10:50:51.818Z</time></trkpt><trkpt lat="45.2107536" lon="9.192751"><ele>79.0</ele><time>2026-04-11T10:50:52.818Z</time></trkpt><trkpt lat="45.2106363" lon="9.1927186"><ele>79.0</ele><time>2026-04-11T10:50:53.819Z</time></trkpt><trkpt lat="45.2105169" lon="9.1926858"><ele>79.0</ele><time>2026-04-11T10:50:54.819Z</time></trkpt><trkpt lat="45.2104116" lon="9.1926214"><ele>79.0</ele><time>2026-04-11T10:50:55.819Z</time></trkpt><trkpt lat="45.2103123" lon="9.1925365"><ele>79.0</ele><time>2026-04-11T10:50:56.818Z</time></trkpt><trkpt lat="45.2102046" lon="9.19242"><ele>79.0</ele><time>2026-04-11T10:50:57.819Z</time></trkpt><trkpt lat="45.2101002" lon="9.1922814"><ele>79.0</ele><time>2026-04-11T10:50:58.819Z</time></trkpt><trkpt lat="45.2099891" lon="9.1921157"><ele>79.0</ele><time>2026-04-11T10:50:59.818Z</time></trkpt><trkpt lat="45.2098706" lon="9.1919388"><ele>79.0</ele><time>2026-04-11T10:51:00.819Z</time></trkpt><trkpt lat="45.2097536" lon="9.1917494"><ele>79.0</ele><time>2026-04-11T10:51:01.819Z</time></trkpt><trkpt lat="45.2096367" lon="9.1915436"><ele>79.0</ele><time>2026-04-11T10:51:02.819Z</time></trkpt><trkpt lat="45.209517" lon="9.1913334"><ele>79.0</ele><time>2026-04-11T10:51:03.819Z</time></trkpt><trkpt lat="45.2093941" lon="9.191121"><ele>79.0</ele><time>2026-04-11T10:51:04.819Z</time></trkpt><trkpt lat="45.2092618" lon="9.1909168"><ele>79.0</ele><time>2026-04-11T10:51:05.819Z</time></trkpt><trkpt lat="45.2091304" lon="9.1907204"><ele>79.0</ele><time>2026-04-11T10:51:06.819Z</time></trkpt><trkpt lat="45.208998" lon="9.1905279"><ele>79.0</ele><time>2026-04-11T10:51:07.818Z</time></trkpt><trkpt lat="45.2088666" lon="9.1903477"><ele>78.66666666666666</ele><time>2026-04-11T10:51:08.819Z</time></trkpt><trkpt lat="45.2087271" lon="9.1901781"><ele>78.33333333333333</ele><time>2026-04-11T10:51:09.819Z</time></trkpt><trkpt lat="45.2085852" lon="9.1900148"><ele>78.0</ele><time>2026-04-11T10:51:10.819Z</time></trkpt><trkpt lat="45.2084382" lon="9.1898694"><ele>78.66666666666667</ele><time>2026-04-11T10:51:11.819Z</time></trkpt><trkpt lat="45.2082884" lon="9.1897424"><ele>79.33333333333334</ele><time>2026-04-11T10:51:12.819Z</time></trkpt><trkpt lat="45.2081277" lon="9.1896313"><ele>80.0</ele><time>2026-04-11T10:51:13.818Z</time></trkpt><trkpt lat="45.2079636" lon="9.1895165"><ele>80.0</ele><time>2026-04-11T10:51:14.819Z</time></trkpt><trkpt lat="45.2078029" lon="9.1894079"><ele>80.0</ele><time>2026-04-11T10:51:15.819Z</time></trkpt><trkpt lat="45.2076398" lon="9.1893062"><ele>80.0</ele><time>2026-04-11T10:51:16.819Z</time></trkpt><trkpt lat="45.2074885" lon="9.189211"><ele>80.0</ele><time>2026-04-11T10:51:17.819Z</time></trkpt><trkpt lat="45.2073423" lon="9.1890996"><ele>80.0</ele><time>2026-04-11T10:51:18.819Z</time></trkpt><trkpt lat="45.207202" lon="9.1889719"><ele>80.0</ele><time>2026-04-11T10:51:19.818Z</time></trkpt><trkpt lat="45.2070706" lon="9.1888318"><ele>79.66666666666667</ele><time>2026-04-11T10:51:20.819Z</time></trkpt><trkpt lat="45.2069437" lon="9.1886756"><ele>79.33333333333333</ele><time>2026-04-11T10:51:21.819Z</time></trkpt><trkpt lat="45.2068332" lon="9.188491"><ele>79.0</ele><time>2026-04-11T10:51:22.819Z</time></trkpt><trkpt lat="45.2067241" lon="9.1883049"><ele>79.0</ele><time>2026-04-11T10:51:23.819Z</time></trkpt><trkpt lat="45.2066159" lon="9.1881234"><ele>79.0</ele><time>2026-04-11T10:51:24.819Z</time></trkpt><trkpt lat="45.2065063" lon="9.1879389"><ele>79.0</ele><time>2026-04-11T10:51:25.819Z</time></trkpt><trkpt lat="45.2063959" lon="9.1877595"><ele>79.0</ele><time>2026-04-11T10:51:26.819Z</time></trkpt><trkpt lat="45.2062902" lon="9.1875804"><ele>79.0</ele><time>2026-04-11T10:51:27.818Z</time></trkpt><trkpt lat="45.2061858" lon="9.1874044"><ele>79.0</ele><time>2026-04-11T10:51:28.818Z</time></trkpt><trkpt lat="45.2060835" lon="9.1872456"><ele>79.25</ele><time>2026-04-11T10:51:29.819Z</time></trkpt><trkpt lat="45.2059791" lon="9.1871076"><ele>79.5</ele><time>2026-04-11T10:51:30.819Z</time></trkpt><trkpt lat="45.2058585" lon="9.1869962"><ele>79.75</ele><time>2026-04-11T10:51:31.819Z</time></trkpt><trkpt lat="45.2057196" lon="9.1869162"><ele>80.0</ele><time>2026-04-11T10:51:32.819Z</time></trkpt><trkpt lat="45.2055641" lon="9.1868827"><ele>80.0</ele><time>2026-04-11T10:51:33.819Z</time></trkpt><trkpt lat="45.2054057" lon="9.186881"><ele>80.0</ele><time>2026-04-11T10:51:34.819Z</time></trkpt><trkpt lat="45.2052616" lon="9.1869311"><ele>80.0</ele><time>2026-04-11T10:51:35.819Z</time></trkpt><trkpt lat="45.2051258" lon="9.1870256"><ele>80.0</ele><time>2026-04-11T10:51:36.819Z</time></trkpt><trkpt lat="45.2050017" lon="9.1871469"><ele>80.0</ele><time>2026-04-11T10:51:37.819Z</time></trkpt><trkpt lat="45.2049014" lon="9.1872988"><ele>80.0</ele><time>2026-04-11T10:51:38.819Z</time></trkpt><trkpt lat="45.2048235" lon="9.1874746"><ele>80.0</ele><time>2026-04-11T10:51:39.819Z</time></trkpt><trkpt lat="45.2047704" lon="9.1876689"><ele>80.0</ele><time>2026-04-11T10:51:40.818Z</time></trkpt><trkpt lat="45.2047467" lon="9.1878567"><ele>80.0</ele><time>2026-04-11T10:51:41.819Z</time></trkpt><trkpt lat="45.2047577" lon="9.188058"><ele>80.0</ele><time>2026-04-11T10:51:42.82Z</time></trkpt><trkpt lat="45.2048024" lon="9.188265"><ele>80.0</ele><time>2026-04-11T10:51:43.82Z</time></trkpt><trkpt lat="45.2048664" lon="9.1884523"><ele>79.75</ele><time>2026-04-11T10:51:44.82Z</time></trkpt><trkpt lat="45.2049349" lon="9.1886279"><ele>79.5</ele><time>2026-04-11T10:51:45.819Z</time></trkpt><trkpt lat="45.2050009" lon="9.1888016"><ele>79.25</ele><time>2026-04-11T10:51:46.82Z</time></trkpt><trkpt lat="45.2050426" lon="9.1889847"><ele>79.0</ele><time>2026-04-11T10:51:47.82Z</time></trkpt><trkpt lat="45.2050653" lon="9.1891902"><ele>79.0</ele><time>2026-04-11T10:51:48.819Z</time></trkpt><trkpt lat="45.2050653" lon="9.1893902"><ele>79.0</ele><time>2026-04-11T10:51:49.82Z</time></trkpt><trkpt lat="45.2050356" lon="9.1895884"><ele>79.0</ele><time>2026-04-11T10:51:50.819Z</time></trkpt><trkpt lat="45.2049611" lon="9.1897839"><ele>79.0</ele><time>2026-04-11T10:51:51.82Z</time></trkpt><trkpt lat="45.2048616" lon="9.1899555"><ele>79.66666666666666</ele><time>2026-04-11T10:51:52.819Z</time></trkpt><trkpt lat="45.2047463" lon="9.1901325"><ele>80.33333333333333</ele><time>2026-04-11T10:51:53.82Z</time></trkpt><trkpt lat="45.2046079" lon="9.190304"><ele>81.0</ele><time>2026-04-11T10:51:54.82Z</time></trkpt><trkpt lat="45.2044724" lon="9.1904777"><ele>81.0</ele><time>2026-04-11T10:51:55.82Z</time></trkpt><trkpt lat="45.2043266" lon="9.1906675"><ele>81.0</ele><time>2026-04-11T10:51:56.82Z</time></trkpt><trkpt lat="45.2041734" lon="9.190864"><ele>81.0</ele><time>2026-04-11T10:51:57.82Z</time></trkpt><trkpt lat="45.2040148" lon="9.1910693"><ele>80.66666666666667</ele><time>2026-04-11T10:51:58.82Z</time></trkpt><trkpt lat="45.2038455" lon="9.191277"><ele>80.33333333333334</ele><time>2026-04-11T10:51:59.82Z</time></trkpt><trkpt lat="45.2036747" lon="9.1914832"><ele>80.0</ele><time>2026-04-11T10:52:00.82Z</time></trkpt><trkpt lat="45.2034985" lon="9.1916945"><ele>80.5</ele><time>2026-04-11T10:52:01.819Z</time></trkpt><trkpt lat="45.2033195" lon="9.1919113"><ele>81.0</ele><time>2026-04-11T10:52:02.82Z</time></trkpt><trkpt lat="45.2031406" lon="9.1921228"><ele>81.0</ele><time>2026-04-11T10:52:03.819Z</time></trkpt><trkpt lat="45.2029614" lon="9.1923337"><ele>81.0</ele><time>2026-04-11T10:52:04.82Z</time></trkpt><trkpt lat="45.2027889" lon="9.1925358"><ele>81.0</ele><time>2026-04-11T10:52:05.82Z</time></trkpt><trkpt lat="45.202626" lon="9.1927336"><ele>81.0</ele><time>2026-04-11T10:52:06.82Z</time></trkpt><trkpt lat="45.20247" lon="9.1929155"><ele>81.0</ele><time>2026-04-11T10:52:07.82Z</time></trkpt><trkpt lat="45.2023246" lon="9.1930986"><ele>81.33333333333333</ele><time>2026-04-11T10:52:08.82Z</time></trkpt><trkpt lat="45.2021821" lon="9.1932773"><ele>81.66666666666666</ele><time>2026-04-11T10:52:09.82Z</time></trkpt><trkpt lat="45.2020393" lon="9.1934501"><ele>82.0</ele><time>2026-04-11T10:52:10.82Z</time></trkpt><trkpt lat="45.2018942" lon="9.1936217"><ele>82.0</ele><time>2026-04-11T10:52:11.82Z</time></trkpt><trkpt lat="45.2017514" lon="9.1937945"><ele>82.0</ele><time>2026-04-11T10:52:12.82Z</time></trkpt><trkpt lat="45.201606" lon="9.1939693"><ele>82.0</ele><time>2026-04-11T10:52:13.82Z</time></trkpt><trkpt lat="45.2014587" lon="9.1941457"><ele>80.66666666666666</ele><time>2026-04-11T10:52:14.82Z</time></trkpt><trkpt lat="45.2013046" lon="9.194316"><ele>79.33333333333333</ele><time>2026-04-11T10:52:15.82Z</time></trkpt><trkpt lat="45.2011464" lon="9.1944969"><ele>78.0</ele><time>2026-04-11T10:52:16.82Z</time></trkpt><trkpt lat="45.2009881" lon="9.1946861"><ele>77.66666666666667</ele><time>2026-04-11T10:52:17.82Z</time></trkpt><trkpt lat="45.200832" lon="9.1948789"><ele>77.33333333333334</ele><time>2026-04-11T10:52:18.82Z</time></trkpt><trkpt lat="45.200667" lon="9.1950643"><ele>77.0</ele><time>2026-04-11T10:52:19.819Z</time></trkpt><trkpt lat="45.2005024" lon="9.1952643"><ele>77.66666666666667</ele><time>2026-04-11T10:52:20.82Z</time></trkpt><trkpt lat="45.2003361" lon="9.1954627"><ele>78.33333333333333</ele><time>2026-04-11T10:52:21.819Z</time></trkpt><trkpt lat="45.2001761" lon="9.1956606"><ele>79.0</ele><time>2026-04-11T10:52:22.82Z</time></trkpt><trkpt lat="45.2000285" lon="9.1958451"><ele>78.66666666666666</ele><time>2026-04-11T10:52:23.82Z</time></trkpt><trkpt lat="45.1998918" lon="9.1960187"><ele>78.33333333333333</ele><time>2026-04-11T10:52:24.82Z</time></trkpt><trkpt lat="45.1997566" lon="9.1961774"><ele>78.0</ele><time>2026-04-11T10:52:25.819Z</time></trkpt><trkpt lat="45.1996079" lon="9.1964214"><ele>78.33333333333333</ele><time>2026-04-11T10:52:26.82Z</time></trkpt><trkpt lat="45.1994782" lon="9.1965635"><ele>78.66666666666666</ele><time>2026-04-11T10:52:27.82Z</time></trkpt><trkpt lat="45.1993338" lon="9.1967258"><ele>79.0</ele><time>2026-04-11T10:52:28.82Z</time></trkpt><trkpt lat="45.1992008" lon="9.1968813"><ele>79.0</ele><time>2026-04-11T10:52:29.82Z</time></trkpt><trkpt lat="45.199082" lon="9.1970326"><ele>79.0</ele><time>2026-04-11T10:52:30.821Z</time></trkpt><trkpt lat="45.1989644" lon="9.1971757"><ele>79.0</ele><time>2026-04-11T10:52:31.821Z</time></trkpt><trkpt lat="45.1988685" lon="9.1972842"><ele>79.0</ele><time>2026-04-11T10:52:32.821Z</time></trkpt><trkpt lat="45.1987738" lon="9.1973948"><ele>79.2</ele><time>2026-04-11T10:52:33.821Z</time></trkpt><trkpt lat="45.1986856" lon="9.1974985"><ele>79.4</ele><time>2026-04-11T10:52:34.821Z</time></trkpt><trkpt lat="45.1985994" lon="9.1976053"><ele>79.6</ele><time>2026-04-11T10:52:35.82Z</time></trkpt><trkpt lat="45.1985242" lon="9.1977017"><ele>79.8</ele><time>2026-04-11T10:52:36.821Z</time></trkpt><trkpt lat="45.1984542" lon="9.1977981"><ele>80.0</ele><time>2026-04-11T10:52:37.821Z</time></trkpt><trkpt lat="45.1983951" lon="9.197894"><ele>80.0</ele><time>2026-04-11T10:52:38.821Z</time></trkpt><trkpt lat="45.1983486" lon="9.1979909"><ele>80.0</ele><time>2026-04-11T10:52:39.821Z</time></trkpt><trkpt lat="45.1983045" lon="9.198069"><ele>80.0</ele><time>2026-04-11T10:52:40.821Z</time></trkpt><trkpt lat="45.1982304" lon="9.1981621"><ele>80.0</ele><time>2026-04-11T10:52:42.821Z</time></trkpt><trkpt lat="45.198109" lon="9.1981712"><ele>80.0</ele><time>2026-04-11T10:52:44.821Z</time></trkpt><trkpt lat="45.1980178" lon="9.1981577"><ele>80.0</ele><time>2026-04-11T10:52:45.821Z</time></trkpt><trkpt lat="45.197932" lon="9.1981431"><ele>80.0</ele><time>2026-04-11T10:52:46.821Z</time></trkpt><trkpt lat="45.1978587" lon="9.1981596"><ele>80.0</ele><time>2026-04-11T10:52:47.821Z</time></trkpt><trkpt lat="45.1978073" lon="9.1982492"><ele>80.0</ele><time>2026-04-11T10:52:49.821Z</time></trkpt><trkpt lat="45.1977661" lon="9.1983805"><ele>80.0</ele><time>2026-04-11T10:52:52.821Z</time></trkpt><trkpt lat="45.1977104" lon="9.1984389"><ele>80.0</ele><time>2026-04-11T10:52:57.821Z</time></trkpt><trkpt lat="45.1976435" lon="9.1984883"><ele>80.0</ele><time>2026-04-11T10:52:59.821Z</time></trkpt><trkpt lat="45.1975973" lon="9.1985703"><ele>80.0</ele><time>2026-04-11T10:53:01.821Z</time></trkpt><trkpt lat="45.1975482" lon="9.198646"><ele>80.0</ele><time>2026-04-11T10:53:02.821Z</time></trkpt><trkpt lat="45.1974831" lon="9.1987662"><ele>80.0</ele><time>2026-04-11T10:53:03.82Z</time></trkpt><trkpt lat="45.1973894" lon="9.1989426"><ele>80.0</ele><time>2026-04-11T10:53:04.821Z</time></trkpt><trkpt lat="45.1950646" lon="9.201803"><ele>80.0</ele><time>2026-04-11T10:53:05.821Z</time></trkpt><trkpt lat="45.1948881" lon="9.2020174"><ele>80.0</ele><time>2026-04-11T10:53:06.821Z</time></trkpt><trkpt lat="45.1947108" lon="9.2022299"><ele>79.0</ele><time>2026-04-11T10:53:07.82Z</time></trkpt><trkpt lat="45.1945379" lon="9.2024386"><ele>78.0</ele><time>2026-04-11T10:53:08.821Z</time></trkpt><trkpt lat="45.1943629" lon="9.2026427"><ele>78.0</ele><time>2026-04-11T10:53:09.821Z</time></trkpt><trkpt lat="45.1941905" lon="9.2028486"><ele>78.0</ele><time>2026-04-11T10:53:10.821Z</time></trkpt><trkpt lat="45.1940196" lon="9.2030563"><ele>77.66666666666667</ele><time>2026-04-11T10:53:11.82Z</time></trkpt><trkpt lat="45.1938494" lon="9.2032619"><ele>77.33333333333334</ele><time>2026-04-11T10:53:12.821Z</time></trkpt><trkpt lat="45.1936792" lon="9.2034686"><ele>77.0</ele><time>2026-04-11T10:53:13.821Z</time></trkpt><trkpt lat="45.193506" lon="9.203678"><ele>77.0</ele><time>2026-04-11T10:53:14.821Z</time></trkpt><trkpt lat="45.1933312" lon="9.203884"><ele>77.0</ele><time>2026-04-11T10:53:15.821Z</time></trkpt><trkpt lat="45.1931603" lon="9.2040876"><ele>77.0</ele><time>2026-04-11T10:53:16.821Z</time></trkpt><trkpt lat="45.1929893" lon="9.2042785"><ele>77.0</ele><time>2026-04-11T10:53:17.821Z</time></trkpt><trkpt lat="45.1928263" lon="9.2044652"><ele>77.0</ele><time>2026-04-11T10:53:18.822Z</time></trkpt><trkpt lat="45.1926526" lon="9.2046463"><ele>77.0</ele><time>2026-04-11T10:53:19.821Z</time></trkpt><trkpt lat="45.1924834" lon="9.2048285"><ele>77.0</ele><time>2026-04-11T10:53:20.822Z</time></trkpt><trkpt lat="45.1923093" lon="9.2049921"><ele>77.0</ele><time>2026-04-11T10:53:21.822Z</time></trkpt><trkpt lat="45.1921366" lon="9.2051543"><ele>77.66666666666667</ele><time>2026-04-11T10:53:22.822Z</time></trkpt><trkpt lat="45.1919677" lon="9.2052963"><ele>78.33333333333333</ele><time>2026-04-11T10:53:23.822Z</time></trkpt><trkpt lat="45.1918015" lon="9.2054273"><ele>79.0</ele><time>2026-04-11T10:53:24.822Z</time></trkpt><trkpt lat="45.1916297" lon="9.2055542"><ele>78.66666666666666</ele><time>2026-04-11T10:53:25.822Z</time></trkpt><trkpt lat="45.191452" lon="9.2056609"><ele>78.33333333333333</ele><time>2026-04-11T10:53:26.822Z</time></trkpt><trkpt lat="45.1912774" lon="9.2057697"><ele>78.0</ele><time>2026-04-11T10:53:27.822Z</time></trkpt><trkpt lat="45.191104" lon="9.2058615"><ele>77.66666666666667</ele><time>2026-04-11T10:53:28.822Z</time></trkpt><trkpt lat="45.1909231" lon="9.2059609"><ele>77.33333333333334</ele><time>2026-04-11T10:53:29.822Z</time></trkpt><trkpt lat="45.1907502" lon="9.2060525"><ele>77.0</ele><time>2026-04-11T10:53:30.822Z</time></trkpt><trkpt lat="45.1905785" lon="9.2061412"><ele>77.66666666666667</ele><time>2026-04-11T10:53:31.822Z</time></trkpt><trkpt lat="45.190413" lon="9.2062266"><ele>78.33333333333333</ele><time>2026-04-11T10:53:32.822Z</time></trkpt><trkpt lat="45.1902481" lon="9.2063092"><ele>79.0</ele><time>2026-04-11T10:53:33.822Z</time></trkpt><trkpt lat="45.1900879" lon="9.2063877"><ele>79.0</ele><time>2026-04-11T10:53:34.822Z</time></trkpt><trkpt lat="45.1899286" lon="9.2064683"><ele>79.0</ele><time>2026-04-11T10:53:35.822Z</time></trkpt><trkpt lat="45.1897666" lon="9.2065462"><ele>79.0</ele><time>2026-04-11T10:53:36.822Z</time></trkpt><trkpt lat="45.1896069" lon="9.2066279"><ele>78.33333333333333</ele><time>2026-04-11T10:53:37.822Z</time></trkpt><trkpt lat="45.189442" lon="9.2067188"><ele>77.66666666666667</ele><time>2026-04-11T10:53:38.822Z</time></trkpt><trkpt lat="45.1892741" lon="9.2068071"><ele>77.0</ele><time>2026-04-11T10:53:39.822Z</time></trkpt><trkpt lat="45.1891074" lon="9.2068904"><ele>78.0</ele><time>2026-04-11T10:53:40.822Z</time></trkpt><trkpt lat="45.1889363" lon="9.2069775"><ele>79.0</ele><time>2026-04-11T10:53:41.822Z</time></trkpt><trkpt lat="45.1887549" lon="9.2070957"><ele>80.0</ele><time>2026-04-11T10:53:42.821Z</time></trkpt><trkpt lat="45.1885795" lon="9.2071864"><ele>80.0</ele><time>2026-04-11T10:53:43.821Z</time></trkpt><trkpt lat="45.1884015" lon="9.2072729"><ele>80.0</ele><time>2026-04-11T10:53:44.821Z</time></trkpt><trkpt lat="45.1882225" lon="9.2073684"><ele>80.0</ele><time>2026-04-11T10:53:45.822Z</time></trkpt><trkpt lat="45.1880391" lon="9.2074586"><ele>80.0</ele><time>2026-04-11T10:53:46.821Z</time></trkpt><trkpt lat="45.1878616" lon="9.2075542"><ele>80.0</ele><time>2026-04-11T10:53:47.821Z</time></trkpt><trkpt lat="45.1876854" lon="9.2076516"><ele>80.0</ele><time>2026-04-11T10:53:48.822Z</time></trkpt><trkpt lat="45.1875007" lon="9.2077547"><ele>79.66666666666667</ele><time>2026-04-11T10:53:49.822Z</time></trkpt><trkpt lat="45.1872896" lon="9.2078692"><ele>79.33333333333333</ele><time>2026-04-11T10:53:50.822Z</time></trkpt><trkpt lat="45.1870879" lon="9.2079709"><ele>79.0</ele><time>2026-04-11T10:53:51.821Z</time></trkpt><trkpt lat="45.1868835" lon="9.208073"><ele>79.0</ele><time>2026-04-11T10:53:52.822Z</time></trkpt><trkpt lat="45.1866831" lon="9.2081728"><ele>79.0</ele><time>2026-04-11T10:53:53.822Z</time></trkpt><trkpt lat="45.1864921" lon="9.2082708"><ele>79.0</ele><time>2026-04-11T10:53:54.822Z</time></trkpt><trkpt lat="45.1863184" lon="9.2083519"><ele>78.66666666666666</ele><time>2026-04-11T10:53:55.822Z</time></trkpt><trkpt lat="45.186149" lon="9.2084247"><ele>78.33333333333333</ele><time>2026-04-11T10:53:56.822Z</time></trkpt><trkpt lat="45.1859819" lon="9.2084965"><ele>78.0</ele><time>2026-04-11T10:53:57.822Z</time></trkpt><trkpt lat="45.1857952" lon="9.2086161"><ele>77.33333333333333</ele><time>2026-04-11T10:53:58.821Z</time></trkpt><trkpt lat="45.1856188" lon="9.2087276"><ele>76.66666666666666</ele><time>2026-04-11T10:53:59.822Z</time></trkpt><trkpt lat="45.1854468" lon="9.2088221"><ele>76.0</ele><time>2026-04-11T10:54:00.822Z</time></trkpt><trkpt lat="45.1852856" lon="9.2088824"><ele>76.0</ele><time>2026-04-11T10:54:01.822Z</time></trkpt><trkpt lat="45.1851278" lon="9.2089472"><ele>76.0</ele><time>2026-04-11T10:54:02.822Z</time></trkpt><trkpt lat="45.1849631" lon="9.2090261"><ele>76.0</ele><time>2026-04-11T10:54:03.822Z</time></trkpt><trkpt lat="45.1847932" lon="9.2090927"><ele>76.66666666666666</ele><time>2026-04-11T10:54:04.822Z</time></trkpt><trkpt lat="45.1846092" lon="9.2091556"><ele>77.33333333333333</ele><time>2026-04-11T10:54:05.822Z</time></trkpt><trkpt lat="45.1844098" lon="9.209231"><ele>78.0</ele><time>2026-04-11T10:54:06.823Z</time></trkpt><trkpt lat="45.1842108" lon="9.2092881"><ele>78.0</ele><time>2026-04-11T10:54:07.823Z</time></trkpt><trkpt lat="45.1840023" lon="9.2093123"><ele>78.0</ele><time>2026-04-11T10:54:08.822Z</time></trkpt><trkpt lat="45.1837958" lon="9.2093342"><ele>78.0</ele><time>2026-04-11T10:54:09.823Z</time></trkpt><trkpt lat="45.183593" lon="9.209342"><ele>78.0</ele><time>2026-04-11T10:54:10.823Z</time></trkpt><trkpt lat="45.1834208" lon="9.2093403"><ele>78.0</ele><time>2026-04-11T10:54:11.823Z</time></trkpt><trkpt lat="45.1832388" lon="9.209334"><ele>78.0</ele><time>2026-04-11T10:54:12.823Z</time></trkpt><trkpt lat="45.1830597" lon="9.2093215"><ele>77.66666666666667</ele><time>2026-04-11T10:54:13.823Z</time></trkpt><trkpt lat="45.1828769" lon="9.2092979"><ele>77.33333333333334</ele><time>2026-04-11T10:54:14.823Z</time></trkpt><trkpt lat="45.1827016" lon="9.20929"><ele>77.0</ele><time>2026-04-11T10:54:15.823Z</time></trkpt><trkpt lat="45.1825261" lon="9.2092749"><ele>77.33333333333334</ele><time>2026-04-11T10:54:16.823Z</time></trkpt><trkpt lat="45.1823442" lon="9.2092437"><ele>77.66666666666667</ele><time>2026-04-11T10:54:17.823Z</time></trkpt><trkpt lat="45.1821687" lon="9.2092122"><ele>78.0</ele><time>2026-04-11T10:54:18.822Z</time></trkpt><trkpt lat="45.1819871" lon="9.2091746"><ele>78.0</ele><time>2026-04-11T10:54:19.823Z</time></trkpt><trkpt lat="45.1817971" lon="9.2091399"><ele>78.0</ele><time>2026-04-11T10:54:20.823Z</time></trkpt><trkpt lat="45.1816056" lon="9.209101"><ele>78.0</ele><time>2026-04-11T10:54:21.823Z</time></trkpt><trkpt lat="45.1814061" lon="9.2090559"><ele>77.5</ele><time>2026-04-11T10:54:22.823Z</time></trkpt><trkpt lat="45.1811823" lon="9.2090044"><ele>77.0</ele><time>2026-04-11T10:54:23.823Z</time></trkpt><trkpt lat="45.180894" lon="9.2089243"><ele>77.0</ele><time>2026-04-11T10:54:24.822Z</time></trkpt><trkpt lat="45.180601" lon="9.2088623"><ele>77.0</ele><time>2026-04-11T10:54:25.822Z</time></trkpt><trkpt lat="45.1802774" lon="9.2088031"><ele>77.0</ele><time>2026-04-11T10:54:26.823Z</time></trkpt><trkpt lat="45.1799194" lon="9.208761"><ele>77.0</ele><time>2026-04-11T10:54:27.823Z</time></trkpt><trkpt lat="45.1795541" lon="9.2087328"><ele>77.5</ele><time>2026-04-11T10:54:28.823Z</time></trkpt><trkpt lat="45.1791509" lon="9.2087217"><ele>78.0</ele><time>2026-04-11T10:54:29.823Z</time></trkpt><trkpt lat="45.1787461" lon="9.2087249"><ele>78.5</ele><time>2026-04-11T10:54:30.823Z</time></trkpt><trkpt lat="45.178313" lon="9.2087456"><ele>79.0</ele><time>2026-04-11T10:54:31.823Z</time></trkpt><trkpt lat="45.1778827" lon="9.2087612"><ele>76.0</ele><time>2026-04-11T10:54:32.823Z</time></trkpt><trkpt lat="45.1774239" lon="9.2088046"><ele>78.0</ele><time>2026-04-11T10:54:33.823Z</time></trkpt><trkpt lat="45.1769673" lon="9.2088517"><ele>78.0</ele><time>2026-04-11T10:54:34.823Z</time></trkpt><trkpt lat="45.1765308" lon="9.2088906"><ele>78.0</ele><time>2026-04-11T10:54:35.823Z</time></trkpt><trkpt lat="45.1776034" lon="9.2081148"><ele>77.5</ele><time>2026-04-11T10:54:36.822Z</time></trkpt><trkpt lat="45.1773474" lon="9.2080608"><ele>77.0</ele><time>2026-04-11T10:54:37.823Z</time></trkpt><trkpt lat="45.1770969" lon="9.208007"><ele>77.0</ele><time>2026-04-11T10:54:38.823Z</time></trkpt><trkpt lat="45.176845" lon="9.2079538"><ele>77.0</ele><time>2026-04-11T10:54:39.823Z</time></trkpt><trkpt lat="45.1765992" lon="9.2078958"><ele>78.0</ele><time>2026-04-11T10:54:40.823Z</time></trkpt><trkpt lat="45.1763457" lon="9.2078383"><ele>79.0</ele><time>2026-04-11T10:54:41.823Z</time></trkpt><trkpt lat="45.1760927" lon="9.2078034"><ele>79.0</ele><time>2026-04-11T10:54:42.822Z</time></trkpt><trkpt lat="45.175867" lon="9.2077473"><ele>79.0</ele><time>2026-04-11T10:54:43.823Z</time></trkpt><trkpt lat="45.1756342" lon="9.2077256"><ele>77.0</ele><time>2026-04-11T10:54:44.823Z</time></trkpt><trkpt lat="45.175396" lon="9.2077177"><ele>75.0</ele><time>2026-04-11T10:54:45.823Z</time></trkpt><trkpt lat="45.1751661" lon="9.2077385"><ele>75.0</ele><time>2026-04-11T10:54:46.823Z</time></trkpt><trkpt lat="45.1749147" lon="9.2077812"><ele>75.0</ele><time>2026-04-11T10:54:47.823Z</time></trkpt><trkpt lat="45.1746725" lon="9.2078425"><ele>74.5</ele><time>2026-04-11T10:54:48.822Z</time></trkpt><trkpt lat="45.1744339" lon="9.2079471"><ele>74.0</ele><time>2026-04-11T10:54:49.822Z</time></trkpt><trkpt lat="45.1741981" lon="9.2080716"><ele>76.5</ele><time>2026-04-11T10:54:50.823Z</time></trkpt><trkpt lat="45.1739607" lon="9.2082214"><ele>79.0</ele><time>2026-04-11T10:54:51.823Z</time></trkpt><trkpt lat="45.1737295" lon="9.2084008"><ele>79.0</ele><time>2026-04-11T10:54:52.823Z</time></trkpt><trkpt lat="45.1734952" lon="9.208588"><ele>79.0</ele><time>2026-04-11T10:54:53.823Z</time></trkpt><trkpt lat="45.1732466" lon="9.2087741"><ele>77.0</ele><time>2026-04-11T10:54:54.824Z</time></trkpt><trkpt lat="45.1729951" lon="9.2089577"><ele>75.0</ele><time>2026-04-11T10:54:55.824Z</time></trkpt><trkpt lat="45.172741" lon="9.2091423"><ele>75.0</ele><time>2026-04-11T10:54:56.824Z</time></trkpt><trkpt lat="45.1724837" lon="9.2093341"><ele>75.0</ele><time>2026-04-11T10:54:57.824Z</time></trkpt><trkpt lat="45.1722218" lon="9.2095332"><ele>75.0</ele><time>2026-04-11T10:54:58.824Z</time></trkpt><trkpt lat="45.1719526" lon="9.209736"><ele>75.0</ele><time>2026-04-11T10:54:59.823Z</time></trkpt><trkpt lat="45.1716879" lon="9.2099318"><ele>73.5</ele><time>2026-04-11T10:55:00.824Z</time></trkpt><trkpt lat="45.171431" lon="9.2101134"><ele>72.0</ele><time>2026-04-11T10:55:01.824Z</time></trkpt><trkpt lat="45.1711859" lon="9.210293"><ele>72.0</ele><time>2026-04-11T10:55:02.824Z</time></trkpt><trkpt lat="45.1709485" lon="9.2104593"><ele>72.0</ele><time>2026-04-11T10:55:03.824Z</time></trkpt><trkpt lat="45.1707237" lon="9.2106287"><ele>69.5</ele><time>2026-04-11T10:55:04.824Z</time></trkpt><trkpt lat="45.1705128" lon="9.2107873"><ele>67.0</ele><time>2026-04-11T10:55:05.824Z</time></trkpt><trkpt lat="45.1703151" lon="9.2109357"><ele>67.0</ele><time>2026-04-11T10:55:06.824Z</time></trkpt><trkpt lat="45.1701211" lon="9.2110535"><ele>67.0</ele><time>2026-04-11T10:55:07.824Z</time></trkpt><trkpt lat="45.1699377" lon="9.2111668"><ele>67.0</ele><time>2026-04-11T10:55:08.824Z</time></trkpt><trkpt lat="45.169754" lon="9.2112772"><ele>65.66666666666666</ele><time>2026-04-11T10:55:09.823Z</time></trkpt><trkpt lat="45.1695641" lon="9.2113884"><ele>64.33333333333333</ele><time>2026-04-11T10:55:10.823Z</time></trkpt><trkpt lat="45.1693642" lon="9.211518"><ele>63.0</ele><time>2026-04-11T10:55:11.824Z</time></trkpt><trkpt lat="45.1691477" lon="9.2117042"><ele>61.5</ele><time>2026-04-11T10:55:12.824Z</time></trkpt><trkpt lat="45.1689518" lon="9.2118556"><ele>60.0</ele><time>2026-04-11T10:55:13.824Z</time></trkpt><trkpt lat="45.1687203" lon="9.2120589"><ele>60.0</ele><time>2026-04-11T10:55:14.823Z</time></trkpt><trkpt lat="45.1685684" lon="9.2122233"><ele>60.0</ele><time>2026-04-11T10:55:15.824Z</time></trkpt><trkpt lat="45.1683848" lon="9.212415"><ele>60.0</ele><time>2026-04-11T10:55:16.823Z</time></trkpt><trkpt lat="45.1682094" lon="9.2126236"><ele>60.0</ele><time>2026-04-11T10:55:17.824Z</time></trkpt><trkpt lat="45.168036" lon="9.2127686"><ele>60.0</ele><time>2026-04-11T10:55:18.824Z</time></trkpt><trkpt lat="45.1678779" lon="9.2128594"><ele>60.0</ele><time>2026-04-11T10:55:19.824Z</time></trkpt><trkpt lat="45.1677115" lon="9.2129499"><ele>60.0</ele><time>2026-04-11T10:55:20.823Z</time></trkpt><trkpt lat="45.1675679" lon="9.2130603"><ele>60.0</ele><time>2026-04-11T10:55:21.824Z</time></trkpt><trkpt lat="45.1674279" lon="9.2131539"><ele>60.0</ele><time>2026-04-11T10:55:22.824Z</time></trkpt><trkpt lat="45.1672962" lon="9.2132394"><ele>59.5</ele><time>2026-04-11T10:55:23.824Z</time></trkpt><trkpt lat="45.1671721" lon="9.213329"><ele>59.0</ele><time>2026-04-11T10:55:24.824Z</time></trkpt><trkpt lat="45.1670433" lon="9.2134334"><ele>58.5</ele><time>2026-04-11T10:55:25.824Z</time></trkpt><trkpt lat="45.1669225" lon="9.2135191"><ele>58.0</ele><time>2026-04-11T10:55:26.824Z</time></trkpt><trkpt lat="45.1668103" lon="9.2136026"><ele>58.0</ele><time>2026-04-11T10:55:27.824Z</time></trkpt><trkpt lat="45.1667052" lon="9.213688"><ele>58.0</ele><time>2026-04-11T10:55:28.824Z</time></trkpt><trkpt lat="45.1665743" lon="9.2137875"><ele>58.0</ele><time>2026-04-11T10:55:29.824Z</time></trkpt><trkpt lat="45.1664674" lon="9.2138849"><ele>58.0</ele><time>2026-04-11T10:55:30.824Z</time></trkpt><trkpt lat="45.1663636" lon="9.2139867"><ele>58.599999999999994</ele><time>2026-04-11T10:55:31.824Z</time></trkpt><trkpt lat="45.1662562" lon="9.2140929"><ele>59.199999999999996</ele><time>2026-04-11T10:55:32.824Z</time></trkpt><trkpt lat="45.1661564" lon="9.2141832"><ele>59.8</ele><time>2026-04-11T10:55:33.824Z</time></trkpt><trkpt lat="45.1660564" lon="9.2142377"><ele>60.4</ele><time>2026-04-11T10:55:34.824Z</time></trkpt><trkpt lat="45.1659733" lon="9.2142569"><ele>61.0</ele><time>2026-04-11T10:55:35.824Z</time></trkpt><trkpt lat="45.1658941" lon="9.2142853"><ele>60.99999999999999</ele><time>2026-04-11T10:55:36.824Z</time></trkpt><trkpt lat="45.1658219" lon="9.2143049"><ele>61.0</ele><time>2026-04-11T10:55:37.824Z</time></trkpt><trkpt lat="45.1657412" lon="9.2142884"><ele>61.0</ele><time>2026-04-11T10:55:38.823Z</time></trkpt><trkpt lat="45.1656632" lon="9.2142579"><ele>61.0</ele><time>2026-04-11T10:55:39.824Z</time></trkpt><trkpt lat="45.1655783" lon="9.2142315"><ele>60.99999999999999</ele><time>2026-04-11T10:55:40.824Z</time></trkpt><trkpt lat="45.1655108" lon="9.2142287"><ele>61.0</ele><time>2026-04-11T10:55:41.824Z</time></trkpt><trkpt lat="45.1653366" lon="9.2143138"><ele>60.75</ele><time>2026-04-11T10:55:42.825Z</time></trkpt><trkpt lat="45.1652144" lon="9.214374"><ele>60.5</ele><time>2026-04-11T10:55:43.825Z</time></trkpt><trkpt lat="45.1651183" lon="9.2144713"><ele>60.25</ele><time>2026-04-11T10:55:44.825Z</time></trkpt><trkpt lat="45.1650295" lon="9.2145439"><ele>60.0</ele><time>2026-04-11T10:55:45.824Z</time></trkpt><trkpt lat="45.1649485" lon="9.2146489"><ele>60.0</ele><time>2026-04-11T10:55:46.825Z</time></trkpt><trkpt lat="45.1648639" lon="9.2147547"><ele>60.0</ele><time>2026-04-11T10:55:47.825Z</time></trkpt><trkpt lat="45.1647805" lon="9.2148649"><ele>60.0</ele><time>2026-04-11T10:55:48.825Z</time></trkpt><trkpt lat="45.1647147" lon="9.2149473"><ele>60.0</ele><time>2026-04-11T10:55:49.825Z</time></trkpt><trkpt lat="45.1646264" lon="9.2150362"><ele>60.0</ele><time>2026-04-11T10:55:50.825Z</time></trkpt><trkpt lat="45.1645378" lon="9.2151164"><ele>60.25</ele><time>2026-04-11T10:55:51.825Z</time></trkpt><trkpt lat="45.164433" lon="9.2152135"><ele>60.5</ele><time>2026-04-11T10:55:52.825Z</time></trkpt><trkpt lat="45.1643349" lon="9.2153058"><ele>60.75</ele><time>2026-04-11T10:55:53.825Z</time></trkpt><trkpt lat="45.1642189" lon="9.2154068"><ele>61.0</ele><time>2026-04-11T10:55:54.825Z</time></trkpt><trkpt lat="45.1641154" lon="9.2155021"><ele>61.25</ele><time>2026-04-11T10:55:55.825Z</time></trkpt><trkpt lat="45.1640082" lon="9.2155991"><ele>61.5</ele><time>2026-04-11T10:55:56.824Z</time></trkpt><trkpt lat="45.1638944" lon="9.2156918"><ele>61.75</ele><time>2026-04-11T10:55:57.825Z</time></trkpt><trkpt lat="45.1637797" lon="9.2157886"><ele>62.0</ele><time>2026-04-11T10:55:58.825Z</time></trkpt><trkpt lat="45.1636245" lon="9.215904"><ele>62.0</ele><time>2026-04-11T10:55:59.825Z</time></trkpt><trkpt lat="45.1634918" lon="9.2160063"><ele>62.0</ele><time>2026-04-11T10:56:00.825Z</time></trkpt><trkpt lat="45.1633258" lon="9.2161371"><ele>62.0</ele><time>2026-04-11T10:56:01.824Z</time></trkpt><trkpt lat="45.1631592" lon="9.2162713"><ele>62.0</ele><time>2026-04-11T10:56:02.825Z</time></trkpt><trkpt lat="45.1629884" lon="9.2164107"><ele>62.0</ele><time>2026-04-11T10:56:03.825Z</time></trkpt><trkpt lat="45.1628331" lon="9.2165306"><ele>62.0</ele><time>2026-04-11T10:56:04.825Z</time></trkpt><trkpt lat="45.1626002" lon="9.2166229"><ele>62.333333333333336</ele><time>2026-04-11T10:56:05.824Z</time></trkpt><trkpt lat="45.16241" lon="9.2167239"><ele>62.66666666666667</ele><time>2026-04-11T10:56:06.825Z</time></trkpt><trkpt lat="45.162208" lon="9.2168287"><ele>63.0</ele><time>2026-04-11T10:56:07.825Z</time></trkpt><trkpt lat="45.1619986" lon="9.2169271"><ele>62.66666666666667</ele><time>2026-04-11T10:56:08.825Z</time></trkpt><trkpt lat="45.1618111" lon="9.2170128"><ele>62.333333333333336</ele><time>2026-04-11T10:56:09.825Z</time></trkpt><trkpt lat="45.1616002" lon="9.2171143"><ele>62.0</ele><time>2026-04-11T10:56:10.825Z</time></trkpt><trkpt lat="45.1613968" lon="9.2172033"><ele>62.0</ele><time>2026-04-11T10:56:11.825Z</time></trkpt><trkpt lat="45.1611819" lon="9.2172947"><ele>62.0</ele><time>2026-04-11T10:56:12.825Z</time></trkpt><trkpt lat="45.1609726" lon="9.2173814"><ele>62.0</ele><time>2026-04-11T10:56:13.824Z</time></trkpt><trkpt lat="45.1607652" lon="9.2174615"><ele>61.333333333333336</ele><time>2026-04-11T10:56:14.825Z</time></trkpt><trkpt lat="45.1605527" lon="9.2175399"><ele>60.66666666666667</ele><time>2026-04-11T10:56:15.824Z</time></trkpt><trkpt lat="45.1603339" lon="9.2176329"><ele>60.0</ele><time>2026-04-11T10:56:16.825Z</time></trkpt><trkpt lat="45.1600968" lon="9.2177289"><ele>60.0</ele><time>2026-04-11T10:56:17.825Z</time></trkpt><trkpt lat="45.1599061" lon="9.217802"><ele>60.0</ele><time>2026-04-11T10:56:18.825Z</time></trkpt><trkpt lat="45.1597075" lon="9.2178787"><ele>60.0</ele><time>2026-04-11T10:56:19.825Z</time></trkpt><trkpt lat="45.1595063" lon="9.2179575"><ele>60.0</ele><time>2026-04-11T10:56:20.824Z</time></trkpt><trkpt lat="45.1593037" lon="9.2180346"><ele>60.0</ele><time>2026-04-11T10:56:21.825Z</time></trkpt><trkpt lat="45.1591151" lon="9.2181058"><ele>60.0</ele><time>2026-04-11T10:56:22.825Z</time></trkpt><trkpt lat="45.1589259" lon="9.2181773"><ele>60.66666666666667</ele><time>2026-04-11T10:56:23.824Z</time></trkpt><trkpt lat="45.1587273" lon="9.218258"><ele>61.333333333333336</ele><time>2026-04-11T10:56:24.825Z</time></trkpt><trkpt lat="45.158561" lon="9.2183329"><ele>62.0</ele><time>2026-04-11T10:56:25.825Z</time></trkpt><trkpt lat="45.1584037" lon="9.2184098"><ele>62.0</ele><time>2026-04-11T10:56:26.825Z</time></trkpt><trkpt lat="45.1582611" lon="9.2184779"><ele>62.0</ele><time>2026-04-11T10:56:27.824Z</time></trkpt><trkpt lat="45.1581628" lon="9.2185257"><ele>62.0</ele><time>2026-04-11T10:56:28.825Z</time></trkpt><trkpt lat="45.1579715" lon="9.2185381"><ele>62.0</ele><time>2026-04-11T10:56:29.824Z</time></trkpt><trkpt lat="45.1578727" lon="9.2185869"><ele>62.0</ele><time>2026-04-11T10:56:30.825Z</time></trkpt><trkpt lat="45.1577577" lon="9.2186302"><ele>62.0</ele><time>2026-04-11T10:56:31.826Z</time></trkpt><trkpt lat="45.1576282" lon="9.2186846"><ele>62.0</ele><time>2026-04-11T10:56:32.826Z</time></trkpt><trkpt lat="45.1574876" lon="9.2187477"><ele>62.0</ele><time>2026-04-11T10:56:33.826Z</time></trkpt><trkpt lat="45.1573367" lon="9.2188259"><ele>61.66666666666667</ele><time>2026-04-11T10:56:34.826Z</time></trkpt><trkpt lat="45.157181" lon="9.2189441"><ele>61.33333333333333</ele><time>2026-04-11T10:56:35.826Z</time></trkpt><trkpt lat="45.157013" lon="9.2191084"><ele>61.0</ele><time>2026-04-11T10:56:36.826Z</time></trkpt><trkpt lat="45.1568501" lon="9.2192919"><ele>61.0</ele><time>2026-04-11T10:56:37.826Z</time></trkpt><trkpt lat="45.1566822" lon="9.2194917"><ele>61.0</ele><time>2026-04-11T10:56:38.825Z</time></trkpt><trkpt lat="45.156497" lon="9.2197041"><ele>60.5</ele><time>2026-04-11T10:56:39.826Z</time></trkpt><trkpt lat="45.1563056" lon="9.2199264"><ele>60.0</ele><time>2026-04-11T10:56:40.826Z</time></trkpt><trkpt lat="45.1561057" lon="9.22016"><ele>60.0</ele><time>2026-04-11T10:56:41.826Z</time></trkpt><trkpt lat="45.1559076" lon="9.220403"><ele>60.0</ele><time>2026-04-11T10:56:42.826Z</time></trkpt><trkpt lat="45.155726" lon="9.2206342"><ele>59.5</ele><time>2026-04-11T10:56:43.826Z</time></trkpt><trkpt lat="45.1555587" lon="9.2208533"><ele>59.0</ele><time>2026-04-11T10:56:44.825Z</time></trkpt><trkpt lat="45.1553925" lon="9.2210718"><ele>59.0</ele><time>2026-04-11T10:56:45.826Z</time></trkpt><trkpt lat="45.1552232" lon="9.2213051"><ele>59.0</ele><time>2026-04-11T10:56:46.826Z</time></trkpt><trkpt lat="45.1550554" lon="9.2215371"><ele>58.5</ele><time>2026-04-11T10:56:47.826Z</time></trkpt><trkpt lat="45.1548976" lon="9.2217676"><ele>58.0</ele><time>2026-04-11T10:56:48.826Z</time></trkpt><trkpt lat="45.1547379" lon="9.221997"><ele>58.0</ele><time>2026-04-11T10:56:49.826Z</time></trkpt><trkpt lat="45.1545747" lon="9.2222318"><ele>58.0</ele><time>2026-04-11T10:56:50.826Z</time></trkpt><trkpt lat="45.1544122" lon="9.2224627"><ele>58.33333333333333</ele><time>2026-04-11T10:56:51.826Z</time></trkpt><trkpt lat="45.1542549" lon="9.222678"><ele>58.66666666666667</ele><time>2026-04-11T10:56:52.826Z</time></trkpt><trkpt lat="45.1541021" lon="9.222892"><ele>59.0</ele><time>2026-04-11T10:56:53.826Z</time></trkpt><trkpt lat="45.1539408" lon="9.2231232"><ele>59.0</ele><time>2026-04-11T10:56:54.826Z</time></trkpt><trkpt lat="45.1537744" lon="9.2233604"><ele>59.0</ele><time>2026-04-11T10:56:55.826Z</time></trkpt><trkpt lat="45.1536047" lon="9.2235856"><ele>59.0</ele><time>2026-04-11T10:56:56.826Z</time></trkpt><trkpt lat="45.1534397" lon="9.2238089"><ele>59.0</ele><time>2026-04-11T10:56:57.825Z</time></trkpt><trkpt lat="45.1532828" lon="9.2240342"><ele>60.0</ele><time>2026-04-11T10:56:58.826Z</time></trkpt><trkpt lat="45.153119" lon="9.2242605"><ele>61.0</ele><time>2026-04-11T10:56:59.826Z</time></trkpt><trkpt lat="45.1529753" lon="9.2245342"><ele>61.0</ele><time>2026-04-11T10:57:00.826Z</time></trkpt><trkpt lat="45.1527892" lon="9.2247661"><ele>61.0</ele><time>2026-04-11T10:57:01.826Z</time></trkpt><trkpt lat="45.1526047" lon="9.2249925"><ele>61.0</ele><time>2026-04-11T10:57:02.826Z</time></trkpt><trkpt lat="45.1524158" lon="9.2252286"><ele>61.0</ele><time>2026-04-11T10:57:03.826Z</time></trkpt><trkpt lat="45.1522345" lon="9.2254736"><ele>61.0</ele><time>2026-04-11T10:57:04.826Z</time></trkpt><trkpt lat="45.1520939" lon="9.2256452"><ele>61.0</ele><time>2026-04-11T10:57:05.826Z</time></trkpt><trkpt lat="45.1519298" lon="9.2258641"><ele>61.0</ele><time>2026-04-11T10:57:06.826Z</time></trkpt><trkpt lat="45.1517776" lon="9.226057"><ele>60.666666666666664</ele><time>2026-04-11T10:57:07.826Z</time></trkpt><trkpt lat="45.1516285" lon="9.2262395"><ele>60.33333333333333</ele><time>2026-04-11T10:57:08.826Z</time></trkpt><trkpt lat="45.1514879" lon="9.2264119"><ele>60.0</ele><time>2026-04-11T10:57:09.825Z</time></trkpt><trkpt lat="45.1513587" lon="9.226571"><ele>60.0</ele><time>2026-04-11T10:57:10.826Z</time></trkpt><trkpt lat="45.1512422" lon="9.2267223"><ele>60.0</ele><time>2026-04-11T10:57:11.826Z</time></trkpt><trkpt lat="45.1511373" lon="9.2268604"><ele>60.0</ele><time>2026-04-11T10:57:12.826Z</time></trkpt><trkpt lat="45.151041" lon="9.2269804"><ele>60.0</ele><time>2026-04-11T10:57:13.826Z</time></trkpt><trkpt lat="45.1509517" lon="9.2270784"><ele>60.0</ele><time>2026-04-11T10:57:14.826Z</time></trkpt><trkpt lat="45.1508776" lon="9.2271875"><ele>60.0</ele><time>2026-04-11T10:57:15.826Z</time></trkpt><trkpt lat="45.1508085" lon="9.2272875"><ele>60.0</ele><time>2026-04-11T10:57:16.826Z</time></trkpt><trkpt lat="45.1507315" lon="9.2274124"><ele>60.0</ele><time>2026-04-11T10:57:17.826Z</time></trkpt><trkpt lat="45.1506627" lon="9.2275054"><ele>60.0</ele><time>2026-04-11T10:57:18.826Z</time></trkpt><trkpt lat="45.1505913" lon="9.2275897"><ele>59.6</ele><time>2026-04-11T10:57:19.827Z</time></trkpt><trkpt lat="45.1505158" lon="9.2276734"><ele>59.2</ele><time>2026-04-11T10:57:20.827Z</time></trkpt><trkpt lat="45.1504405" lon="9.2277644"><ele>58.8</ele><time>2026-04-11T10:57:21.827Z</time></trkpt><trkpt lat="45.1503679" lon="9.2278473"><ele>58.4</ele><time>2026-04-11T10:57:22.827Z</time></trkpt><trkpt lat="45.1502936" lon="9.2279341"><ele>58.0</ele><time>2026-04-11T10:57:23.827Z</time></trkpt><trkpt lat="45.1502235" lon="9.2280301"><ele>58.0</ele><time>2026-04-11T10:57:24.827Z</time></trkpt><trkpt lat="45.1501517" lon="9.2281251"><ele>58.0</ele><time>2026-04-11T10:57:25.827Z</time></trkpt><trkpt lat="45.150071" lon="9.2282221"><ele>58.0</ele><time>2026-04-11T10:57:26.827Z</time></trkpt><trkpt lat="45.1499809" lon="9.2283326"><ele>58.0</ele><time>2026-04-11T10:57:27.827Z</time></trkpt><trkpt lat="45.1498932" lon="9.2284402"><ele>58.0</ele><time>2026-04-11T10:57:28.827Z</time></trkpt><trkpt lat="45.149802" lon="9.2285528"><ele>58.0</ele><time>2026-04-11T10:57:29.827Z</time></trkpt><trkpt lat="45.149708" lon="9.2286647"><ele>58.0</ele><time>2026-04-11T10:57:30.827Z</time></trkpt><trkpt lat="45.1496117" lon="9.2287722"><ele>58.0</ele><time>2026-04-11T10:57:31.827Z</time></trkpt><trkpt lat="45.1495135" lon="9.2288709"><ele>58.0</ele><time>2026-04-11T10:57:32.827Z</time></trkpt><trkpt lat="45.1494042" lon="9.228963"><ele>58.0</ele><time>2026-04-11T10:57:33.827Z</time></trkpt><trkpt lat="45.1492864" lon="9.229042"><ele>58.0</ele><time>2026-04-11T10:57:34.827Z</time></trkpt><trkpt lat="45.1491563" lon="9.2290936"><ele>58.0</ele><time>2026-04-11T10:57:35.826Z</time></trkpt><trkpt lat="45.1490226" lon="9.2291482"><ele>58.0</ele><time>2026-04-11T10:57:36.826Z</time></trkpt><trkpt lat="45.14888" lon="9.2291982"><ele>58.0</ele><time>2026-04-11T10:57:37.826Z</time></trkpt><trkpt lat="45.1487312" lon="9.2292308"><ele>58.0</ele><time>2026-04-11T10:57:38.827Z</time></trkpt><trkpt lat="45.1485759" lon="9.2292492"><ele>58.0</ele><time>2026-04-11T10:57:39.827Z</time></trkpt><trkpt lat="45.1484096" lon="9.229253"><ele>58.0</ele><time>2026-04-11T10:57:40.827Z</time></trkpt><trkpt lat="45.1482352" lon="9.2292451"><ele>58.0</ele><time>2026-04-11T10:57:41.827Z</time></trkpt><trkpt lat="45.1480573" lon="9.2292231"><ele>58.0</ele><time>2026-04-11T10:57:42.827Z</time></trkpt><trkpt lat="45.147882" lon="9.2291955"><ele>57.666666666666664</ele><time>2026-04-11T10:57:43.827Z</time></trkpt><trkpt lat="45.1477171" lon="9.2291604"><ele>57.33333333333333</ele><time>2026-04-11T10:57:44.827Z</time></trkpt><trkpt lat="45.1475531" lon="9.2291291"><ele>57.0</ele><time>2026-04-11T10:57:45.827Z</time></trkpt><trkpt lat="45.1473862" lon="9.2291071"><ele>56.66666666666667</ele><time>2026-04-11T10:57:46.827Z</time></trkpt><trkpt lat="45.1472212" lon="9.2290836"><ele>56.333333333333336</ele><time>2026-04-11T10:57:47.826Z</time></trkpt><trkpt lat="45.1470655" lon="9.2290558"><ele>56.0</ele><time>2026-04-11T10:57:48.827Z</time></trkpt><trkpt lat="45.1469024" lon="9.2290318"><ele>56.0</ele><time>2026-04-11T10:57:49.827Z</time></trkpt><trkpt lat="45.1467486" lon="9.2290095"><ele>56.0</ele><time>2026-04-11T10:57:50.827Z</time></trkpt><trkpt lat="45.1465887" lon="9.2289884"><ele>56.0</ele><time>2026-04-11T10:57:51.827Z</time></trkpt><trkpt lat="45.1464378" lon="9.2289665"><ele>56.25</ele><time>2026-04-11T10:57:52.827Z</time></trkpt><trkpt lat="45.146284" lon="9.2289432"><ele>56.5</ele><time>2026-04-11T10:57:53.827Z</time></trkpt><trkpt lat="45.1461404" lon="9.2289248"><ele>56.75</ele><time>2026-04-11T10:57:54.827Z</time></trkpt><trkpt lat="45.1460105" lon="9.228907"><ele>57.0</ele><time>2026-04-11T10:57:55.826Z</time></trkpt><trkpt lat="45.1458811" lon="9.2288882"><ele>57.0</ele><time>2026-04-11T10:57:56.827Z</time></trkpt><trkpt lat="45.1457627" lon="9.228866"><ele>57.0</ele><time>2026-04-11T10:57:57.827Z</time></trkpt><trkpt lat="45.1456465" lon="9.2288387"><ele>57.0</ele><time>2026-04-11T10:57:58.827Z</time></trkpt><trkpt lat="45.145529" lon="9.2288117"><ele>57.0</ele><time>2026-04-11T10:57:59.827Z</time></trkpt><trkpt lat="45.1454235" lon="9.2287737"><ele>56.8</ele><time>2026-04-11T10:58:00.827Z</time></trkpt><trkpt lat="45.145319" lon="9.22874"><ele>56.6</ele><time>2026-04-11T10:58:01.827Z</time></trkpt><trkpt lat="45.1452166" lon="9.2287001"><ele>56.39999999999999</ele><time>2026-04-11T10:58:02.827Z</time></trkpt><trkpt lat="45.145116" lon="9.2286592"><ele>56.199999999999996</ele><time>2026-04-11T10:58:03.827Z</time></trkpt><trkpt lat="45.1450161" lon="9.2286166"><ele>56.0</ele><time>2026-04-11T10:58:04.826Z</time></trkpt><trkpt lat="45.1449133" lon="9.228574"><ele>55.0</ele><time>2026-04-11T10:58:05.827Z</time></trkpt><trkpt lat="45.1448128" lon="9.2285388"><ele>53.99999999999999</ele><time>2026-04-11T10:58:06.827Z</time></trkpt><trkpt lat="45.1447214" lon="9.2285074"><ele>53.0</ele><time>2026-04-11T10:58:07.828Z</time></trkpt><trkpt lat="45.1446326" lon="9.2284755"><ele>52.0</ele><time>2026-04-11T10:58:08.828Z</time></trkpt><trkpt lat="45.1445431" lon="9.2284442"><ele>51.0</ele><time>2026-04-11T10:58:09.828Z</time></trkpt><trkpt lat="45.1444587" lon="9.2284134"><ele>51.0</ele><time>2026-04-11T10:58:10.828Z</time></trkpt><trkpt lat="45.1443823" lon="9.2283804"><ele>51.0</ele><time>2026-04-11T10:58:11.828Z</time></trkpt><trkpt lat="45.1442821" lon="9.2283153"><ele>51.0</ele><time>2026-04-11T10:58:13.827Z</time></trkpt><trkpt lat="45.1441727" lon="9.2282594"><ele>51.0</ele><time>2026-04-11T10:58:15.828Z</time></trkpt><trkpt lat="45.1440505" lon="9.228202"><ele>51.0</ele><time>2026-04-11T10:58:17.828Z</time></trkpt><trkpt lat="45.1439802" lon="9.2281727"><ele>51.0</ele><time>2026-04-11T10:58:18.828Z</time></trkpt><trkpt lat="45.1439089" lon="9.2281413"><ele>51.0</ele><time>2026-04-11T10:58:19.828Z</time></trkpt><trkpt lat="45.1438397" lon="9.2281068"><ele>51.0</ele><time>2026-04-11T10:58:20.828Z</time></trkpt><trkpt lat="45.1437695" lon="9.2280715"><ele>51.0</ele><time>2026-04-11T10:58:21.828Z</time></trkpt><trkpt lat="45.1437053" lon="9.2280406"><ele>51.0</ele><time>2026-04-11T10:58:22.827Z</time></trkpt><trkpt lat="45.1436416" lon="9.2280071"><ele>51.0</ele><time>2026-04-11T10:58:23.828Z</time></trkpt><trkpt lat="45.1435729" lon="9.2279758"><ele>51.0</ele><time>2026-04-11T10:58:24.828Z</time></trkpt><trkpt lat="45.1434985" lon="9.2279454"><ele>51.0</ele><time>2026-04-11T10:58:25.828Z</time></trkpt><trkpt lat="45.1434231" lon="9.2279132"><ele>51.0</ele><time>2026-04-11T10:58:26.828Z</time></trkpt><trkpt lat="45.1433406" lon="9.2278773"><ele>51.0</ele><time>2026-04-11T10:58:27.828Z</time></trkpt><trkpt lat="45.1432578" lon="9.2278414"><ele>51.0</ele><time>2026-04-11T10:58:28.828Z</time></trkpt><trkpt lat="45.143172" lon="9.2278053"><ele>51.0</ele><time>2026-04-11T10:58:29.828Z</time></trkpt><trkpt lat="45.143082" lon="9.2277633"><ele>51.0</ele><time>2026-04-11T10:58:30.828Z</time></trkpt><trkpt lat="45.1429878" lon="9.2277271"><ele>51.0</ele><time>2026-04-11T10:58:31.828Z</time></trkpt><trkpt lat="45.1428933" lon="9.227691"><ele>51.0</ele><time>2026-04-11T10:58:32.828Z</time></trkpt><trkpt lat="45.1428021" lon="9.2276531"><ele>51.0</ele><time>2026-04-11T10:58:33.827Z</time></trkpt><trkpt lat="45.1427083" lon="9.2276164"><ele>51.0</ele><time>2026-04-11T10:58:34.828Z</time></trkpt><trkpt lat="45.1426111" lon="9.2275799"><ele>51.0</ele><time>2026-04-11T10:58:35.828Z</time></trkpt><trkpt lat="45.1425146" lon="9.2275429"><ele>51.0</ele><time>2026-04-11T10:58:36.828Z</time></trkpt><trkpt lat="45.1424339" lon="9.2275084"><ele>51.0</ele><time>2026-04-11T10:58:37.828Z</time></trkpt><trkpt lat="45.1423517" lon="9.2274646"><ele>51.0</ele><time>2026-04-11T10:58:38.828Z</time></trkpt><trkpt lat="45.1422709" lon="9.2274286"><ele>51.0</ele><time>2026-04-11T10:58:39.828Z</time></trkpt><trkpt lat="45.1421874" lon="9.2273951"><ele>51.0</ele><time>2026-04-11T10:58:40.828Z</time></trkpt><trkpt lat="45.1421041" lon="9.2273596"><ele>51.0</ele><time>2026-04-11T10:58:41.828Z</time></trkpt><trkpt lat="45.1420205" lon="9.2273207"><ele>51.0</ele><time>2026-04-11T10:58:42.828Z</time></trkpt><trkpt lat="45.1419378" lon="9.227281"><ele>51.0</ele><time>2026-04-11T10:58:43.828Z</time></trkpt><trkpt lat="45.1418517" lon="9.2272427"><ele>51.0</ele><time>2026-04-11T10:58:44.828Z</time></trkpt><trkpt lat="45.1417624" lon="9.2272086"><ele>51.0</ele><time>2026-04-11T10:58:45.828Z</time></trkpt><trkpt lat="45.141686" lon="9.227177"><ele>51.0</ele><time>2026-04-11T10:58:46.828Z</time></trkpt><trkpt lat="45.1415991" lon="9.2271384"><ele>51.0</ele><time>2026-04-11T10:58:47.828Z</time></trkpt><trkpt lat="45.1415109" lon="9.2271024"><ele>51.0</ele><time>2026-04-11T10:58:48.828Z</time></trkpt><trkpt lat="45.1414213" lon="9.2270653"><ele>51.0</ele><time>2026-04-11T10:58:49.827Z</time></trkpt><trkpt lat="45.1413413" lon="9.2270339"><ele>51.0</ele><time>2026-04-11T10:58:50.827Z</time></trkpt><trkpt lat="45.141257" lon="9.2269905"><ele>51.0</ele><time>2026-04-11T10:58:51.828Z</time></trkpt><trkpt lat="45.1411701" lon="9.2269532"><ele>51.0</ele><time>2026-04-11T10:58:52.828Z</time></trkpt><trkpt lat="45.1410852" lon="9.226909"><ele>51.0</ele><time>2026-04-11T10:58:53.828Z</time></trkpt><trkpt lat="45.1409939" lon="9.2268664"><ele>51.0</ele><time>2026-04-11T10:58:54.828Z</time></trkpt><trkpt lat="45.1409025" lon="9.2268294"><ele>51.0</ele><time>2026-04-11T10:58:55.829Z</time></trkpt><trkpt lat="45.1408176" lon="9.226801"><ele>51.0</ele><time>2026-04-11T10:58:56.829Z</time></trkpt><trkpt lat="45.1407278" lon="9.226764"><ele>51.0</ele><time>2026-04-11T10:58:57.828Z</time></trkpt><trkpt lat="45.1406366" lon="9.2267278"><ele>51.0</ele><time>2026-04-11T10:58:58.829Z</time></trkpt><trkpt lat="45.1405496" lon="9.2266912"><ele>51.0</ele><time>2026-04-11T10:58:59.828Z</time></trkpt><trkpt lat="45.1404626" lon="9.2266543"><ele>51.0</ele><time>2026-04-11T10:59:00.828Z</time></trkpt><trkpt lat="45.1403734" lon="9.2266193"><ele>51.0</ele><time>2026-04-11T10:59:01.829Z</time></trkpt><trkpt lat="45.1402861" lon="9.2265815"><ele>51.0</ele><time>2026-04-11T10:59:02.829Z</time></trkpt><trkpt lat="45.1401983" lon="9.2265422"><ele>51.0</ele><time>2026-04-11T10:59:03.829Z</time></trkpt><trkpt lat="45.1401087" lon="9.2265072"><ele>51.0</ele><time>2026-04-11T10:59:04.829Z</time></trkpt><trkpt lat="45.1400132" lon="9.2264688"><ele>51.0</ele><time>2026-04-11T10:59:05.829Z</time></trkpt><trkpt lat="45.13992" lon="9.2264283"><ele>51.0</ele><time>2026-04-11T10:59:06.829Z</time></trkpt><trkpt lat="45.1398253" lon="9.226389"><ele>51.0</ele><time>2026-04-11T10:59:07.829Z</time></trkpt><trkpt lat="45.1397289" lon="9.2263415"><ele>51.0</ele><time>2026-04-11T10:59:08.829Z</time></trkpt><trkpt lat="45.1396337" lon="9.2262948"><ele>51.0</ele><time>2026-04-11T10:59:09.829Z</time></trkpt><trkpt lat="45.1395354" lon="9.2262599"><ele>51.0</ele><time>2026-04-11T10:59:10.829Z</time></trkpt><trkpt lat="45.1394353" lon="9.2262212"><ele>51.0</ele><time>2026-04-11T10:59:11.828Z</time></trkpt><trkpt lat="45.1393382" lon="9.2261756"><ele>51.0</ele><time>2026-04-11T10:59:12.828Z</time></trkpt><trkpt lat="45.1392373" lon="9.2261344"><ele>51.0</ele><time>2026-04-11T10:59:13.829Z</time></trkpt><trkpt lat="45.1391383" lon="9.2260953"><ele>51.4</ele><time>2026-04-11T10:59:14.829Z</time></trkpt><trkpt lat="45.1390438" lon="9.2260653"><ele>51.8</ele><time>2026-04-11T10:59:15.829Z</time></trkpt><trkpt lat="45.1389466" lon="9.2260305"><ele>52.199999999999996</ele><time>2026-04-11T10:59:16.829Z</time></trkpt><trkpt lat="45.1388513" lon="9.2259945"><ele>52.599999999999994</ele><time>2026-04-11T10:59:17.829Z</time></trkpt><trkpt lat="45.1387563" lon="9.2259543"><ele>53.0</ele><time>2026-04-11T10:59:18.829Z</time></trkpt><trkpt lat="45.138661" lon="9.2259099"><ele>53.0</ele><time>2026-04-11T10:59:19.828Z</time></trkpt><trkpt lat="45.1385702" lon="9.2258663"><ele>53.0</ele><time>2026-04-11T10:59:20.829Z</time></trkpt><trkpt lat="45.1384772" lon="9.2258305"><ele>53.0</ele><time>2026-04-11T10:59:21.829Z</time></trkpt><trkpt lat="45.1383817" lon="9.2257871"><ele>53.0</ele><time>2026-04-11T10:59:22.829Z</time></trkpt><trkpt lat="45.138285" lon="9.2257507"><ele>53.0</ele><time>2026-04-11T10:59:23.829Z</time></trkpt><trkpt lat="45.1381848" lon="9.225711"><ele>54.2</ele><time>2026-04-11T10:59:24.829Z</time></trkpt><trkpt lat="45.1380921" lon="9.2256686"><ele>55.4</ele><time>2026-04-11T10:59:25.829Z</time></trkpt><trkpt lat="45.1379983" lon="9.2256268"><ele>56.60000000000001</ele><time>2026-04-11T10:59:26.829Z</time></trkpt><trkpt lat="45.1379022" lon="9.2255826"><ele>57.800000000000004</ele><time>2026-04-11T10:59:27.829Z</time></trkpt><trkpt lat="45.1378035" lon="9.2255385"><ele>59.0</ele><time>2026-04-11T10:59:28.829Z</time></trkpt><trkpt lat="45.1377047" lon="9.2254947"><ele>59.0</ele><time>2026-04-11T10:59:29.829Z</time></trkpt><trkpt lat="45.1375974" lon="9.2254462"><ele>59.0</ele><time>2026-04-11T10:59:30.829Z</time></trkpt><trkpt lat="45.1374925" lon="9.2254021"><ele>59.0</ele><time>2026-04-11T10:59:31.829Z</time></trkpt><trkpt lat="45.1373866" lon="9.2253578"><ele>59.0</ele><time>2026-04-11T10:59:32.828Z</time></trkpt><trkpt lat="45.1372749" lon="9.225308"><ele>59.0</ele><time>2026-04-11T10:59:33.829Z</time></trkpt><trkpt lat="45.1371619" lon="9.2252554"><ele>59.0</ele><time>2026-04-11T10:59:34.829Z</time></trkpt><trkpt lat="45.1370503" lon="9.2252086"><ele>59.0</ele><time>2026-04-11T10:59:35.829Z</time></trkpt><trkpt lat="45.1369422" lon="9.2251641"><ele>59.0</ele><time>2026-04-11T10:59:36.829Z</time></trkpt><trkpt lat="45.1368383" lon="9.2251185"><ele>59.0</ele><time>2026-04-11T10:59:37.828Z</time></trkpt><trkpt lat="45.1367345" lon="9.2250722"><ele>59.00000000000001</ele><time>2026-04-11T10:59:38.829Z</time></trkpt><trkpt lat="45.1366251" lon="9.2250348"><ele>59.00000000000001</ele><time>2026-04-11T10:59:39.829Z</time></trkpt><trkpt lat="45.1365184" lon="9.2249968"><ele>59.0</ele><time>2026-04-11T10:59:40.829Z</time></trkpt><trkpt lat="45.1364194" lon="9.2249506"><ele>59.0</ele><time>2026-04-11T10:59:41.829Z</time></trkpt><trkpt lat="45.136321" lon="9.2249065"><ele>59.0</ele><time>2026-04-11T10:59:42.828Z</time></trkpt><trkpt lat="45.1362219" lon="9.2248644"><ele>59.00000000000001</ele><time>2026-04-11T10:59:43.83Z</time></trkpt><trkpt lat="45.1361245" lon="9.2248253"><ele>59.00000000000001</ele><time>2026-04-11T10:59:44.829Z</time></trkpt><trkpt lat="45.1360276" lon="9.2247803"><ele>59.0</ele><time>2026-04-11T10:59:45.83Z</time></trkpt><trkpt lat="45.1359376" lon="9.2247359"><ele>59.0</ele><time>2026-04-11T10:59:46.83Z</time></trkpt><trkpt lat="45.1358495" lon="9.2246992"><ele>58.833333333333336</ele><time>2026-04-11T10:59:47.83Z</time></trkpt><trkpt lat="45.135772" lon="9.2246606"><ele>58.66666666666667</ele><time>2026-04-11T10:59:48.83Z</time></trkpt><trkpt lat="45.1357062" lon="9.2246284"><ele>58.5</ele><time>2026-04-11T10:59:49.83Z</time></trkpt><trkpt lat="45.1355995" lon="9.2246013"><ele>58.33333333333333</ele><time>2026-04-11T10:59:51.83Z</time></trkpt><trkpt lat="45.1355326" lon="9.2245761"><ele>58.166666666666664</ele><time>2026-04-11T10:59:53.83Z</time></trkpt><trkpt lat="45.1354535" lon="9.2245463"><ele>58.0</ele><time>2026-04-11T10:59:56.829Z</time></trkpt><trkpt lat="45.1353791" lon="9.2245196"><ele>58.0</ele><time>2026-04-11T10:59:58.83Z</time></trkpt><trkpt lat="45.1352639" lon="9.224459"><ele>58.0</ele><time>2026-04-11T11:00:00.83Z</time></trkpt><trkpt lat="45.1351763" lon="9.2244305"><ele>58.0</ele><time>2026-04-11T11:00:01.83Z</time></trkpt><trkpt lat="45.1350659" lon="9.2243932"><ele>58.0</ele><time>2026-04-11T11:00:02.83Z</time></trkpt><trkpt lat="45.134924" lon="9.2243486"><ele>58.25</ele><time>2026-04-11T11:00:03.83Z</time></trkpt><trkpt lat="45.1347848" lon="9.2242987"><ele>58.5</ele><time>2026-04-11T11:00:04.83Z</time></trkpt><trkpt lat="45.1346469" lon="9.2242429"><ele>58.75</ele><time>2026-04-11T11:00:05.83Z</time></trkpt><trkpt lat="45.1344925" lon="9.2241801"><ele>59.0</ele><time>2026-04-11T11:00:06.83Z</time></trkpt><trkpt lat="45.1343398" lon="9.2241184"><ele>59.0</ele><time>2026-04-11T11:00:07.829Z</time></trkpt><trkpt lat="45.1342025" lon="9.2240551"><ele>59.0</ele><time>2026-04-11T11:00:08.83Z</time></trkpt><trkpt lat="45.1340795" lon="9.2239953"><ele>59.0</ele><time>2026-04-11T11:00:09.83Z</time></trkpt><trkpt lat="45.1339541" lon="9.2239347"><ele>59.0</ele><time>2026-04-11T11:00:10.83Z</time></trkpt><trkpt lat="45.1338173" lon="9.2238714"><ele>58.66666666666667</ele><time>2026-04-11T11:00:11.83Z</time></trkpt><trkpt lat="45.1336693" lon="9.22381"><ele>58.33333333333333</ele><time>2026-04-11T11:00:12.83Z</time></trkpt><trkpt lat="45.1335199" lon="9.2237581"><ele>58.0</ele><time>2026-04-11T11:00:13.83Z</time></trkpt><trkpt lat="45.1333714" lon="9.2237135"><ele>58.0</ele><time>2026-04-11T11:00:14.829Z</time></trkpt><trkpt lat="45.133223" lon="9.2236653"><ele>58.0</ele><time>2026-04-11T11:00:15.83Z</time></trkpt><trkpt lat="45.1330852" lon="9.2236319"><ele>58.0</ele><time>2026-04-11T11:00:16.83Z</time></trkpt><trkpt lat="45.1329556" lon="9.2236063"><ele>58.0</ele><time>2026-04-11T11:00:17.83Z</time></trkpt><trkpt lat="45.1328354" lon="9.2235862"><ele>58.0</ele><time>2026-04-11T11:00:18.83Z</time></trkpt><trkpt lat="45.1327145" lon="9.2235666"><ele>58.0</ele><time>2026-04-11T11:00:19.83Z</time></trkpt><trkpt lat="45.1325996" lon="9.2235458"><ele>58.0</ele><time>2026-04-11T11:00:20.829Z</time></trkpt><trkpt lat="45.1324854" lon="9.2235277"><ele>58.0</ele><time>2026-04-11T11:00:21.83Z</time></trkpt><trkpt lat="45.1323704" lon="9.2235132"><ele>58.0</ele><time>2026-04-11T11:00:22.829Z</time></trkpt><trkpt lat="45.1322583" lon="9.2234974"><ele>58.0</ele><time>2026-04-11T11:00:23.83Z</time></trkpt><trkpt lat="45.1321523" lon="9.223483"><ele>58.0</ele><time>2026-04-11T11:00:24.829Z</time></trkpt><trkpt lat="45.1320496" lon="9.2234716"><ele>58.0</ele><time>2026-04-11T11:00:25.829Z</time></trkpt><trkpt lat="45.131947" lon="9.223476"><ele>58.0</ele><time>2026-04-11T11:00:26.83Z</time></trkpt><trkpt lat="45.1318444" lon="9.2235006"><ele>58.0</ele><time>2026-04-11T11:00:27.83Z</time></trkpt><trkpt lat="45.1317428" lon="9.2235438"><ele>58.0</ele><time>2026-04-11T11:00:28.83Z</time></trkpt><trkpt lat="45.1316442" lon="9.2236014"><ele>58.0</ele><time>2026-04-11T11:00:29.83Z</time></trkpt><trkpt lat="45.1315534" lon="9.2236787"><ele>58.0</ele><time>2026-04-11T11:00:30.83Z</time></trkpt><trkpt lat="45.1314728" lon="9.2237705"><ele>58.0</ele><time>2026-04-11T11:00:31.831Z</time></trkpt><trkpt lat="45.1314002" lon="9.2238752"><ele>57.75</ele><time>2026-04-11T11:00:32.831Z</time></trkpt><trkpt lat="45.1313277" lon="9.2239943"><ele>57.5</ele><time>2026-04-11T11:00:33.831Z</time></trkpt><trkpt lat="45.1312542" lon="9.2241275"><ele>57.25</ele><time>2026-04-11T11:00:34.83Z</time></trkpt><trkpt lat="45.1311804" lon="9.2242678"><ele>57.0</ele><time>2026-04-11T11:00:35.831Z</time></trkpt><trkpt lat="45.1311054" lon="9.2243984"><ele>57.0</ele><time>2026-04-11T11:00:36.831Z</time></trkpt><trkpt lat="45.1310376" lon="9.2245245"><ele>57.0</ele><time>2026-04-11T11:00:37.83Z</time></trkpt><trkpt lat="45.1309664" lon="9.2246545"><ele>57.0</ele><time>2026-04-11T11:00:38.831Z</time></trkpt><trkpt lat="45.1308886" lon="9.2247963"><ele>57.0</ele><time>2026-04-11T11:00:39.831Z</time></trkpt><trkpt lat="45.1308053" lon="9.2249526"><ele>56.33333333333333</ele><time>2026-04-11T11:00:40.831Z</time></trkpt><trkpt lat="45.1307064" lon="9.2251297"><ele>55.666666666666664</ele><time>2026-04-11T11:00:41.831Z</time></trkpt><trkpt lat="45.1305968" lon="9.2253265"><ele>55.0</ele><time>2026-04-11T11:00:42.831Z</time></trkpt><trkpt lat="45.1304842" lon="9.2255027"><ele>55.33333333333333</ele><time>2026-04-11T11:00:43.83Z</time></trkpt><trkpt lat="45.1303792" lon="9.2256733"><ele>55.66666666666667</ele><time>2026-04-11T11:00:44.831Z</time></trkpt><trkpt lat="45.1302849" lon="9.2258419"><ele>56.0</ele><time>2026-04-11T11:00:45.831Z</time></trkpt><trkpt lat="45.1301971" lon="9.2260031"><ele>56.0</ele><time>2026-04-11T11:00:46.831Z</time></trkpt><trkpt lat="45.1301078" lon="9.2261637"><ele>56.0</ele><time>2026-04-11T11:00:47.831Z</time></trkpt><trkpt lat="45.1300189" lon="9.2263245"><ele>56.0</ele><time>2026-04-11T11:00:48.83Z</time></trkpt><trkpt lat="45.1299335" lon="9.2264864"><ele>56.0</ele><time>2026-04-11T11:00:49.831Z</time></trkpt><trkpt lat="45.1298455" lon="9.2266481"><ele>56.25</ele><time>2026-04-11T11:00:50.831Z</time></trkpt><trkpt lat="45.1297544" lon="9.2268079"><ele>56.5</ele><time>2026-04-11T11:00:51.831Z</time></trkpt><trkpt lat="45.1296638" lon="9.2269704"><ele>56.75</ele><time>2026-04-11T11:00:52.831Z</time></trkpt><trkpt lat="45.129579" lon="9.2271391"><ele>57.0</ele><time>2026-04-11T11:00:53.831Z</time></trkpt><trkpt lat="45.129488" lon="9.2273049"><ele>57.33333333333333</ele><time>2026-04-11T11:00:54.831Z</time></trkpt><trkpt lat="45.1293945" lon="9.2274787"><ele>57.666666666666664</ele><time>2026-04-11T11:00:55.831Z</time></trkpt><trkpt lat="45.1292998" lon="9.2276525"><ele>58.0</ele><time>2026-04-11T11:00:56.83Z</time></trkpt><trkpt lat="45.1292052" lon="9.2278281"><ele>58.0</ele><time>2026-04-11T11:00:57.83Z</time></trkpt><trkpt lat="45.1291068" lon="9.2280032"><ele>58.0</ele><time>2026-04-11T11:00:58.831Z</time></trkpt><trkpt lat="45.1290093" lon="9.2281669"><ele>58.0</ele><time>2026-04-11T11:00:59.831Z</time></trkpt><trkpt lat="45.1289069" lon="9.228315"><ele>58.33333333333333</ele><time>2026-04-11T11:01:00.831Z</time></trkpt><trkpt lat="45.1287824" lon="9.2284523"><ele>58.66666666666667</ele><time>2026-04-11T11:01:01.831Z</time></trkpt><trkpt lat="45.1286535" lon="9.2285633"><ele>59.0</ele><time>2026-04-11T11:01:02.831Z</time></trkpt><trkpt lat="45.1285157" lon="9.2286545"><ele>59.0</ele><time>2026-04-11T11:01:03.831Z</time></trkpt><trkpt lat="45.1283706" lon="9.2287347"><ele>59.0</ele><time>2026-04-11T11:01:04.831Z</time></trkpt><trkpt lat="45.1282225" lon="9.2288155"><ele>59.0</ele><time>2026-04-11T11:01:05.831Z</time></trkpt><trkpt lat="45.1280722" lon="9.2288941"><ele>58.66666666666667</ele><time>2026-04-11T11:01:06.831Z</time></trkpt><trkpt lat="45.1279205" lon="9.2289775"><ele>58.33333333333333</ele><time>2026-04-11T11:01:07.831Z</time></trkpt><trkpt lat="45.1277701" lon="9.2290551"><ele>58.0</ele><time>2026-04-11T11:01:08.831Z</time></trkpt><trkpt lat="45.1276216" lon="9.2291426"><ele>58.0</ele><time>2026-04-11T11:01:09.83Z</time></trkpt><trkpt lat="45.1274848" lon="9.2292179"><ele>58.0</ele><time>2026-04-11T11:01:10.831Z</time></trkpt><trkpt lat="45.1273634" lon="9.2292816"><ele>58.0</ele><time>2026-04-11T11:01:11.831Z</time></trkpt><trkpt lat="45.1272434" lon="9.2293443"><ele>58.0</ele><time>2026-04-11T11:01:12.831Z</time></trkpt><trkpt lat="45.1271243" lon="9.2294142"><ele>57.75</ele><time>2026-04-11T11:01:13.831Z</time></trkpt><trkpt lat="45.1270019" lon="9.2294841"><ele>57.5</ele><time>2026-04-11T11:01:14.831Z</time></trkpt><trkpt lat="45.1268772" lon="9.2295532"><ele>57.25</ele><time>2026-04-11T11:01:15.83Z</time></trkpt><trkpt lat="45.1267503" lon="9.2296214"><ele>57.0</ele><time>2026-04-11T11:01:16.831Z</time></trkpt><trkpt lat="45.1266205" lon="9.2296901"><ele>56.75</ele><time>2026-04-11T11:01:17.831Z</time></trkpt><trkpt lat="45.1264873" lon="9.2297535"><ele>56.5</ele><time>2026-04-11T11:01:18.831Z</time></trkpt><trkpt lat="45.126353" lon="9.2298094"><ele>56.25</ele><time>2026-04-11T11:01:19.832Z</time></trkpt><trkpt lat="45.126223" lon="9.2298484"><ele>56.0</ele><time>2026-04-11T11:01:20.832Z</time></trkpt><trkpt lat="45.1260848" lon="9.2298972"><ele>55.75</ele><time>2026-04-11T11:01:21.832Z</time></trkpt><trkpt lat="45.1259425" lon="9.229938"><ele>55.5</ele><time>2026-04-11T11:01:22.832Z</time></trkpt><trkpt lat="45.1257967" lon="9.2299756"><ele>55.25</ele><time>2026-04-11T11:01:23.832Z</time></trkpt><trkpt lat="45.1256462" lon="9.2300122"><ele>55.0</ele><time>2026-04-11T11:01:24.832Z</time></trkpt><trkpt lat="45.1254925" lon="9.2300505"><ele>55.0</ele><time>2026-04-11T11:01:25.832Z</time></trkpt><trkpt lat="45.1253358" lon="9.2300871"><ele>55.0</ele><time>2026-04-11T11:01:26.832Z</time></trkpt><trkpt lat="45.125177" lon="9.2301169"><ele>55.0</ele><time>2026-04-11T11:01:27.832Z</time></trkpt><trkpt lat="45.1250134" lon="9.2301446"><ele>55.0</ele><time>2026-04-11T11:01:28.832Z</time></trkpt><trkpt lat="45.1248486" lon="9.2301706"><ele>55.0</ele><time>2026-04-11T11:01:29.831Z</time></trkpt><trkpt lat="45.1246812" lon="9.2302073"><ele>55.0</ele><time>2026-04-11T11:01:30.832Z</time></trkpt><trkpt lat="45.1245141" lon="9.230241"><ele>55.0</ele><time>2026-04-11T11:01:31.832Z</time></trkpt><trkpt lat="45.1243418" lon="9.2302932"><ele>55.0</ele><time>2026-04-11T11:01:32.832Z</time></trkpt><trkpt lat="45.1241698" lon="9.230336"><ele>55.0</ele><time>2026-04-11T11:01:33.832Z</time></trkpt><trkpt lat="45.1239937" lon="9.2303871"><ele>55.0</ele><time>2026-04-11T11:01:34.832Z</time></trkpt><trkpt lat="45.1238178" lon="9.2304279"><ele>55.0</ele><time>2026-04-11T11:01:35.832Z</time></trkpt><trkpt lat="45.1236411" lon="9.2304759"><ele>55.0</ele><time>2026-04-11T11:01:36.832Z</time></trkpt><trkpt lat="45.1234662" lon="9.2305156"><ele>55.0</ele><time>2026-04-11T11:01:37.831Z</time></trkpt><trkpt lat="45.1232894" lon="9.2305593"><ele>55.0</ele><time>2026-04-11T11:01:38.832Z</time></trkpt><trkpt lat="45.1231198" lon="9.2306015"><ele>55.0</ele><time>2026-04-11T11:01:39.832Z</time></trkpt><trkpt lat="45.1229502" lon="9.2306492"><ele>55.33333333333333</ele><time>2026-04-11T11:01:40.832Z</time></trkpt><trkpt lat="45.1227775" lon="9.2307058"><ele>55.66666666666667</ele><time>2026-04-11T11:01:41.832Z</time></trkpt><trkpt lat="45.122607" lon="9.2307752"><ele>56.0</ele><time>2026-04-11T11:01:42.832Z</time></trkpt><trkpt lat="45.1224416" lon="9.2308414"><ele>55.66666666666667</ele><time>2026-04-11T11:01:43.831Z</time></trkpt><trkpt lat="45.1222776" lon="9.2309257"><ele>55.33333333333333</ele><time>2026-04-11T11:01:44.832Z</time></trkpt><trkpt lat="45.1221169" lon="9.2310085"><ele>55.0</ele><time>2026-04-11T11:01:45.831Z</time></trkpt><trkpt lat="45.1219543" lon="9.2310963"><ele>55.0</ele><time>2026-04-11T11:01:46.832Z</time></trkpt><trkpt lat="45.1217925" lon="9.2311845"><ele>55.0</ele><time>2026-04-11T11:01:47.832Z</time></trkpt><trkpt lat="45.1216282" lon="9.2312717"><ele>55.0</ele><time>2026-04-11T11:01:48.832Z</time></trkpt><trkpt lat="45.1214661" lon="9.2313638"><ele>55.33333333333333</ele><time>2026-04-11T11:01:49.832Z</time></trkpt><trkpt lat="45.1213042" lon="9.2314632"><ele>55.66666666666667</ele><time>2026-04-11T11:01:50.832Z</time></trkpt><trkpt lat="45.1211432" lon="9.23156"><ele>56.0</ele><time>2026-04-11T11:01:51.832Z</time></trkpt><trkpt lat="45.1209798" lon="9.2316568"><ele>56.0</ele><time>2026-04-11T11:01:52.832Z</time></trkpt><trkpt lat="45.120819" lon="9.2317472"><ele>56.0</ele><time>2026-04-11T11:01:53.831Z</time></trkpt><trkpt lat="45.1206585" lon="9.2318396"><ele>56.0</ele><time>2026-04-11T11:01:54.832Z</time></trkpt><trkpt lat="45.1205008" lon="9.2319333"><ele>56.0</ele><time>2026-04-11T11:01:55.832Z</time></trkpt><trkpt lat="45.1203497" lon="9.2320312"><ele>56.0</ele><time>2026-04-11T11:01:56.832Z</time></trkpt><trkpt lat="45.1202002" lon="9.2321313"><ele>56.0</ele><time>2026-04-11T11:01:57.832Z</time></trkpt><trkpt lat="45.1200488" lon="9.2322361"><ele>56.0</ele><time>2026-04-11T11:01:58.832Z</time></trkpt><trkpt lat="45.1198998" lon="9.232336"><ele>56.0</ele><time>2026-04-11T11:01:59.832Z</time></trkpt><trkpt lat="45.1197456" lon="9.2324403"><ele>56.0</ele><time>2026-04-11T11:02:00.832Z</time></trkpt><trkpt lat="45.1195966" lon="9.2325379"><ele>56.0</ele><time>2026-04-11T11:02:01.831Z</time></trkpt><trkpt lat="45.1194464" lon="9.2326386"><ele>56.0</ele><time>2026-04-11T11:02:02.832Z</time></trkpt><trkpt lat="45.119294" lon="9.232738"><ele>56.0</ele><time>2026-04-11T11:02:03.832Z</time></trkpt><trkpt lat="45.1191451" lon="9.2328419"><ele>55.333333333333336</ele><time>2026-04-11T11:02:04.831Z</time></trkpt><trkpt lat="45.1189937" lon="9.2329441"><ele>54.66666666666667</ele><time>2026-04-11T11:02:05.832Z</time></trkpt><trkpt lat="45.1188391" lon="9.2330469"><ele>54.0</ele><time>2026-04-11T11:02:06.832Z</time></trkpt><trkpt lat="45.1186855" lon="9.2331543"><ele>53.66666666666667</ele><time>2026-04-11T11:02:07.832Z</time></trkpt><trkpt lat="45.118528" lon="9.2332594"><ele>53.333333333333336</ele><time>2026-04-11T11:02:08.833Z</time></trkpt><trkpt lat="45.1183689" lon="9.2333669"><ele>53.0</ele><time>2026-04-11T11:02:09.832Z</time></trkpt><trkpt lat="45.118209" lon="9.2334753"><ele>54.0</ele><time>2026-04-11T11:02:10.833Z</time></trkpt><trkpt lat="45.1180502" lon="9.2335914"><ele>55.0</ele><time>2026-04-11T11:02:11.833Z</time></trkpt><trkpt lat="45.1178889" lon="9.2336967"><ele>56.0</ele><time>2026-04-11T11:02:12.833Z</time></trkpt><trkpt lat="45.1177261" lon="9.2338036"><ele>56.0</ele><time>2026-04-11T11:02:13.833Z</time></trkpt><trkpt lat="45.1175588" lon="9.233915"><ele>56.0</ele><time>2026-04-11T11:02:14.833Z</time></trkpt><trkpt lat="45.1173939" lon="9.2340297"><ele>56.0</ele><time>2026-04-11T11:02:15.833Z</time></trkpt><trkpt lat="45.1172215" lon="9.2341429"><ele>55.66666666666667</ele><time>2026-04-11T11:02:16.833Z</time></trkpt><trkpt lat="45.1170477" lon="9.2342573"><ele>55.33333333333333</ele><time>2026-04-11T11:02:17.833Z</time></trkpt><trkpt lat="45.1168744" lon="9.2343684"><ele>55.0</ele><time>2026-04-11T11:02:18.832Z</time></trkpt><trkpt lat="45.1167076" lon="9.2344888"><ele>55.666666666666664</ele><time>2026-04-11T11:02:19.832Z</time></trkpt><trkpt lat="45.1165458" lon="9.2346195"><ele>56.33333333333333</ele><time>2026-04-11T11:02:20.833Z</time></trkpt><trkpt lat="45.1163907" lon="9.2347641"><ele>57.0</ele><time>2026-04-11T11:02:21.833Z</time></trkpt><trkpt lat="45.1162419" lon="9.2349341"><ele>57.33333333333333</ele><time>2026-04-11T11:02:22.832Z</time></trkpt><trkpt lat="45.1161049" lon="9.2351139"><ele>57.666666666666664</ele><time>2026-04-11T11:02:23.833Z</time></trkpt><trkpt lat="45.1159749" lon="9.2353066"><ele>58.0</ele><time>2026-04-11T11:02:24.833Z</time></trkpt><trkpt lat="45.1158527" lon="9.235506"><ele>57.666666666666664</ele><time>2026-04-11T11:02:25.832Z</time></trkpt><trkpt lat="45.1157326" lon="9.2357148"><ele>57.33333333333333</ele><time>2026-04-11T11:02:26.833Z</time></trkpt><trkpt lat="45.1156241" lon="9.235911"><ele>57.0</ele><time>2026-04-11T11:02:27.833Z</time></trkpt><trkpt lat="45.1155173" lon="9.2361031"><ele>57.0</ele><time>2026-04-11T11:02:28.833Z</time></trkpt><trkpt lat="45.1154206" lon="9.2362747"><ele>57.0</ele><time>2026-04-11T11:02:29.833Z</time></trkpt><trkpt lat="45.1153296" lon="9.2364435"><ele>57.0</ele><time>2026-04-11T11:02:30.832Z</time></trkpt><trkpt lat="45.1152447" lon="9.2366056"><ele>57.0</ele><time>2026-04-11T11:02:31.833Z</time></trkpt><trkpt lat="45.1151693" lon="9.2367521"><ele>57.0</ele><time>2026-04-11T11:02:32.833Z</time></trkpt><trkpt lat="45.1151055" lon="9.2368762"><ele>57.0</ele><time>2026-04-11T11:02:33.833Z</time></trkpt><trkpt lat="45.115041" lon="9.2369952"><ele>57.0</ele><time>2026-04-11T11:02:34.833Z</time></trkpt><trkpt lat="45.1149648" lon="9.2371096"><ele>57.0</ele><time>2026-04-11T11:02:35.832Z</time></trkpt><trkpt lat="45.1148866" lon="9.2372374"><ele>57.0</ele><time>2026-04-11T11:02:36.833Z</time></trkpt><trkpt lat="45.1148087" lon="9.2373802"><ele>56.75</ele><time>2026-04-11T11:02:37.833Z</time></trkpt><trkpt lat="45.1147254" lon="9.2375337"><ele>56.5</ele><time>2026-04-11T11:02:38.833Z</time></trkpt><trkpt lat="45.114641" lon="9.2376876"><ele>56.25</ele><time>2026-04-11T11:02:39.833Z</time></trkpt><trkpt lat="45.1145483" lon="9.237855"><ele>56.0</ele><time>2026-04-11T11:02:40.833Z</time></trkpt><trkpt lat="45.114448" lon="9.2380382"><ele>56.333333333333336</ele><time>2026-04-11T11:02:41.833Z</time></trkpt><trkpt lat="45.1143409" lon="9.2382327"><ele>56.66666666666667</ele><time>2026-04-11T11:02:42.833Z</time></trkpt><trkpt lat="45.1142257" lon="9.2384384"><ele>57.0</ele><time>2026-04-11T11:02:43.833Z</time></trkpt><trkpt lat="45.1141035" lon="9.2386478"><ele>56.66666666666667</ele><time>2026-04-11T11:02:44.833Z</time></trkpt><trkpt lat="45.1139786" lon="9.2388667"><ele>56.333333333333336</ele><time>2026-04-11T11:02:45.833Z</time></trkpt><trkpt lat="45.1138465" lon="9.2390888"><ele>56.0</ele><time>2026-04-11T11:02:46.833Z</time></trkpt><trkpt lat="45.1136981" lon="9.2392918"><ele>55.66666666666667</ele><time>2026-04-11T11:02:47.832Z</time></trkpt><trkpt lat="45.1135414" lon="9.2394994"><ele>55.33333333333333</ele><time>2026-04-11T11:02:48.833Z</time></trkpt><trkpt lat="45.113375" lon="9.2396916"><ele>55.0</ele><time>2026-04-11T11:02:49.833Z</time></trkpt><trkpt lat="45.113201" lon="9.2398861"><ele>55.0</ele><time>2026-04-11T11:02:50.833Z</time></trkpt><trkpt lat="45.1130231" lon="9.2400808"><ele>55.0</ele><time>2026-04-11T11:02:51.833Z</time></trkpt><trkpt lat="45.1128291" lon="9.2402542"><ele>55.0</ele><time>2026-04-11T11:02:52.833Z</time></trkpt><trkpt lat="45.1126385" lon="9.240438"><ele>55.0</ele><time>2026-04-11T11:02:53.832Z</time></trkpt><trkpt lat="45.1124426" lon="9.2406209"><ele>55.5</ele><time>2026-04-11T11:02:54.833Z</time></trkpt><trkpt lat="45.1122455" lon="9.2408087"><ele>56.0</ele><time>2026-04-11T11:02:55.833Z</time></trkpt><trkpt lat="45.1120456" lon="9.2409954"><ele>56.0</ele><time>2026-04-11T11:02:56.834Z</time></trkpt><trkpt lat="45.1118503" lon="9.2411737"><ele>56.0</ele><time>2026-04-11T11:02:57.834Z</time></trkpt><trkpt lat="45.111658" lon="9.2413452"><ele>55.66666666666667</ele><time>2026-04-11T11:02:58.834Z</time></trkpt><trkpt lat="45.1114696" lon="9.2415005"><ele>55.33333333333333</ele><time>2026-04-11T11:02:59.834Z</time></trkpt><trkpt lat="45.1112714" lon="9.241649"><ele>55.0</ele><time>2026-04-11T11:03:00.834Z</time></trkpt><trkpt lat="45.1110673" lon="9.2417838"><ele>55.0</ele><time>2026-04-11T11:03:01.834Z</time></trkpt><trkpt lat="45.1108656" lon="9.2418858"><ele>55.0</ele><time>2026-04-11T11:03:02.834Z</time></trkpt><trkpt lat="45.1106591" lon="9.2419848"><ele>55.0</ele><time>2026-04-11T11:03:03.833Z</time></trkpt><trkpt lat="45.1104423" lon="9.2420982"><ele>56.0</ele><time>2026-04-11T11:03:04.834Z</time></trkpt><trkpt lat="45.1102196" lon="9.2421904"><ele>57.0</ele><time>2026-04-11T11:03:05.834Z</time></trkpt><trkpt lat="45.1099958" lon="9.2422491"><ele>56.0</ele><time>2026-04-11T11:03:06.834Z</time></trkpt><trkpt lat="45.1097668" lon="9.2422999"><ele>55.0</ele><time>2026-04-11T11:03:07.834Z</time></trkpt><trkpt lat="45.1095369" lon="9.242343"><ele>55.0</ele><time>2026-04-11T11:03:08.834Z</time></trkpt><trkpt lat="45.1093019" lon="9.2423934"><ele>55.0</ele><time>2026-04-11T11:03:09.833Z</time></trkpt><trkpt lat="45.1090794" lon="9.2424419"><ele>55.33333333333333</ele><time>2026-04-11T11:03:10.834Z</time></trkpt><trkpt lat="45.1088658" lon="9.2424891"><ele>55.66666666666667</ele><time>2026-04-11T11:03:11.833Z</time></trkpt><trkpt lat="45.1086668" lon="9.2425319"><ele>56.0</ele><time>2026-04-11T11:03:12.834Z</time></trkpt><trkpt lat="45.1084716" lon="9.2425722"><ele>56.0</ele><time>2026-04-11T11:03:13.834Z</time></trkpt><trkpt lat="45.1082819" lon="9.2426112"><ele>56.0</ele><time>2026-04-11T11:03:14.834Z</time></trkpt><trkpt lat="45.1080862" lon="9.2426507"><ele>56.0</ele><time>2026-04-11T11:03:15.834Z</time></trkpt><trkpt lat="45.1078966" lon="9.242689"><ele>55.66666666666667</ele><time>2026-04-11T11:03:16.834Z</time></trkpt><trkpt lat="45.107709" lon="9.2427316"><ele>55.33333333333333</ele><time>2026-04-11T11:03:17.834Z</time></trkpt><trkpt lat="45.1075335" lon="9.2427679"><ele>55.0</ele><time>2026-04-11T11:03:18.834Z</time></trkpt><trkpt lat="45.1073596" lon="9.2428049"><ele>55.0</ele><time>2026-04-11T11:03:19.834Z</time></trkpt><trkpt lat="45.1071949" lon="9.2428365"><ele>55.0</ele><time>2026-04-11T11:03:20.834Z</time></trkpt><trkpt lat="45.1070316" lon="9.2428724"><ele>55.0</ele><time>2026-04-11T11:03:21.834Z</time></trkpt><trkpt lat="45.1068728" lon="9.242903"><ele>55.0</ele><time>2026-04-11T11:03:22.834Z</time></trkpt><trkpt lat="45.1067155" lon="9.2429369"><ele>55.0</ele><time>2026-04-11T11:03:23.834Z</time></trkpt><trkpt lat="45.1065722" lon="9.2429618"><ele>55.0</ele><time>2026-04-11T11:03:24.834Z</time></trkpt><trkpt lat="45.1064376" lon="9.2429832"><ele>55.0</ele><time>2026-04-11T11:03:25.834Z</time></trkpt><trkpt lat="45.1063013" lon="9.2430076"><ele>55.75</ele><time>2026-04-11T11:03:26.834Z</time></trkpt><trkpt lat="45.1061678" lon="9.2430359"><ele>56.5</ele><time>2026-04-11T11:03:27.834Z</time></trkpt><trkpt lat="45.1060343" lon="9.2430718"><ele>57.25</ele><time>2026-04-11T11:03:28.834Z</time></trkpt><trkpt lat="45.1059027" lon="9.2431137"><ele>58.0</ele><time>2026-04-11T11:03:29.834Z</time></trkpt><trkpt lat="45.1057682" lon="9.2431564"><ele>59.0</ele><time>2026-04-11T11:03:30.833Z</time></trkpt><trkpt lat="45.1056383" lon="9.2432192"><ele>60.0</ele><time>2026-04-11T11:03:31.834Z</time></trkpt><trkpt lat="45.10551" lon="9.2432913"><ele>61.0</ele><time>2026-04-11T11:03:32.834Z</time></trkpt><trkpt lat="45.1053837" lon="9.2433686"><ele>62.0</ele><time>2026-04-11T11:03:33.834Z</time></trkpt><trkpt lat="45.1052599" lon="9.2434512"><ele>62.0</ele><time>2026-04-11T11:03:34.834Z</time></trkpt><trkpt lat="45.1051382" lon="9.243535"><ele>62.0</ele><time>2026-04-11T11:03:35.834Z</time></trkpt><trkpt lat="45.105016" lon="9.2436209"><ele>62.0</ele><time>2026-04-11T11:03:36.834Z</time></trkpt><trkpt lat="45.1048985" lon="9.2437047"><ele>62.0</ele><time>2026-04-11T11:03:37.834Z</time></trkpt><trkpt lat="45.1047866" lon="9.2437828"><ele>62.0</ele><time>2026-04-11T11:03:38.834Z</time></trkpt><trkpt lat="45.1046813" lon="9.243857"><ele>62.0</ele><time>2026-04-11T11:03:39.834Z</time></trkpt><trkpt lat="45.1045852" lon="9.2439233"><ele>62.0</ele><time>2026-04-11T11:03:40.834Z</time></trkpt><trkpt lat="45.1044942" lon="9.2439885"><ele>62.0</ele><time>2026-04-11T11:03:41.834Z</time></trkpt><trkpt lat="45.1044094" lon="9.2440527"><ele>62.0</ele><time>2026-04-11T11:03:42.834Z</time></trkpt><trkpt lat="45.1043222" lon="9.2441114"><ele>62.00000000000001</ele><time>2026-04-11T11:03:43.834Z</time></trkpt><trkpt lat="45.104253" lon="9.2441591"><ele>62.0</ele><time>2026-04-11T11:03:44.835Z</time></trkpt><trkpt lat="45.1041954" lon="9.2441991"><ele>62.0</ele><time>2026-04-11T11:03:46.835Z</time></trkpt><trkpt lat="45.1041286" lon="9.2442542"><ele>62.0</ele><time>2026-04-11T11:04:28.835Z</time></trkpt><trkpt lat="45.1040457" lon="9.244333"><ele>62.00000000000001</ele><time>2026-04-11T11:04:29.835Z</time></trkpt><trkpt lat="45.1039557" lon="9.2444172"><ele>62.0</ele><time>2026-04-11T11:04:30.835Z</time></trkpt><trkpt lat="45.1038468" lon="9.2444969"><ele>62.0</ele><time>2026-04-11T11:04:31.835Z</time></trkpt><trkpt lat="45.103721" lon="9.2445933"><ele>62.0</ele><time>2026-04-11T11:04:32.836Z</time></trkpt><trkpt lat="45.1035807" lon="9.2447038"><ele>62.0</ele><time>2026-04-11T11:04:33.836Z</time></trkpt><trkpt lat="45.1034206" lon="9.2448272"><ele>62.333333333333336</ele><time>2026-04-11T11:04:34.836Z</time></trkpt><trkpt lat="45.1032534" lon="9.244954"><ele>62.66666666666667</ele><time>2026-04-11T11:04:35.836Z</time></trkpt><trkpt lat="45.1030858" lon="9.2450886"><ele>63.0</ele><time>2026-04-11T11:04:36.836Z</time></trkpt><trkpt lat="45.1029132" lon="9.2452253"><ele>63.33333333333333</ele><time>2026-04-11T11:04:37.836Z</time></trkpt><trkpt lat="45.1027428" lon="9.2453549"><ele>63.666666666666664</ele><time>2026-04-11T11:04:38.836Z</time></trkpt><trkpt lat="45.1025704" lon="9.2454813"><ele>64.0</ele><time>2026-04-11T11:04:39.836Z</time></trkpt><trkpt lat="45.1024015" lon="9.245606"><ele>63.666666666666664</ele><time>2026-04-11T11:04:40.836Z</time></trkpt><trkpt lat="45.1022324" lon="9.2457247"><ele>63.33333333333333</ele><time>2026-04-11T11:04:41.835Z</time></trkpt><trkpt lat="45.1020647" lon="9.2458508"><ele>63.0</ele><time>2026-04-11T11:04:42.836Z</time></trkpt><trkpt lat="45.1018976" lon="9.245975"><ele>63.0</ele><time>2026-04-11T11:04:43.836Z</time></trkpt><trkpt lat="45.1017281" lon="9.2460994"><ele>63.0</ele><time>2026-04-11T11:04:44.836Z</time></trkpt><trkpt lat="45.1015539" lon="9.2462247"><ele>63.0</ele><time>2026-04-11T11:04:45.836Z</time></trkpt><trkpt lat="45.1013737" lon="9.2463508"><ele>62.0</ele><time>2026-04-11T11:04:46.836Z</time></trkpt><trkpt lat="45.1011886" lon="9.2465008"><ele>61.0</ele><time>2026-04-11T11:04:47.836Z</time></trkpt><trkpt lat="45.1009948" lon="9.2466525"><ele>60.0</ele><time>2026-04-11T11:04:48.836Z</time></trkpt><trkpt lat="45.1008007" lon="9.2468054"><ele>60.33333333333333</ele><time>2026-04-11T11:04:49.836Z</time></trkpt><trkpt lat="45.1006087" lon="9.2469618"><ele>60.666666666666664</ele><time>2026-04-11T11:04:50.836Z</time></trkpt><trkpt lat="45.1004152" lon="9.2471167"><ele>61.0</ele><time>2026-04-11T11:04:51.835Z</time></trkpt><trkpt lat="45.100224" lon="9.2472729"><ele>61.33333333333333</ele><time>2026-04-11T11:04:52.836Z</time></trkpt><trkpt lat="45.1000344" lon="9.2474288"><ele>61.66666666666667</ele><time>2026-04-11T11:04:53.836Z</time></trkpt><trkpt lat="45.0998423" lon="9.2475859"><ele>62.0</ele><time>2026-04-11T11:04:54.836Z</time></trkpt><trkpt lat="45.099655" lon="9.2477331"><ele>62.333333333333336</ele><time>2026-04-11T11:04:55.836Z</time></trkpt><trkpt lat="45.0994787" lon="9.2478747"><ele>62.66666666666667</ele><time>2026-04-11T11:04:56.836Z</time></trkpt><trkpt lat="45.0993117" lon="9.2480077"><ele>63.0</ele><time>2026-04-11T11:04:57.836Z</time></trkpt><trkpt lat="45.0991515" lon="9.2481462"><ele>63.0</ele><time>2026-04-11T11:04:58.836Z</time></trkpt><trkpt lat="45.099006" lon="9.2483082"><ele>63.0</ele><time>2026-04-11T11:04:59.836Z</time></trkpt><trkpt lat="45.0988484" lon="9.2484391"><ele>63.0</ele><time>2026-04-11T11:05:00.836Z</time></trkpt><trkpt lat="45.0986959" lon="9.2485666"><ele>63.0</ele><time>2026-04-11T11:05:01.836Z</time></trkpt><trkpt lat="45.0985473" lon="9.2486851"><ele>63.0</ele><time>2026-04-11T11:05:02.836Z</time></trkpt><trkpt lat="45.0984118" lon="9.2487997"><ele>63.0</ele><time>2026-04-11T11:05:03.836Z</time></trkpt><trkpt lat="45.0982878" lon="9.248905"><ele>63.25</ele><time>2026-04-11T11:05:04.836Z</time></trkpt><trkpt lat="45.0981764" lon="9.2490017"><ele>63.5</ele><time>2026-04-11T11:05:05.835Z</time></trkpt><trkpt lat="45.0980709" lon="9.2490958"><ele>63.75</ele><time>2026-04-11T11:05:06.836Z</time></trkpt><trkpt lat="45.0979648" lon="9.2491864"><ele>64.0</ele><time>2026-04-11T11:05:07.836Z</time></trkpt><trkpt lat="45.0978563" lon="9.2492701"><ele>64.0</ele><time>2026-04-11T11:05:08.836Z</time></trkpt><trkpt lat="45.0977615" lon="9.2493464"><ele>64.0</ele><time>2026-04-11T11:05:09.836Z</time></trkpt><trkpt lat="45.0976694" lon="9.2494149"><ele>64.0</ele><time>2026-04-11T11:05:10.836Z</time></trkpt><trkpt lat="45.0975881" lon="9.2494733"><ele>64.0</ele><time>2026-04-11T11:05:11.836Z</time></trkpt><trkpt lat="45.0975098" lon="9.2495119"><ele>64.0</ele><time>2026-04-11T11:05:12.836Z</time></trkpt><trkpt lat="45.0974008" lon="9.249521"><ele>64.0</ele><time>2026-04-11T11:05:13.836Z</time></trkpt><trkpt lat="45.0972984" lon="9.249555"><ele>64.0</ele><time>2026-04-11T11:05:14.835Z</time></trkpt><trkpt lat="45.0972246" lon="9.2496382"><ele>64.0</ele><time>2026-04-11T11:05:15.835Z</time></trkpt><trkpt lat="45.0971511" lon="9.2497437"><ele>64.0</ele><time>2026-04-11T11:05:16.836Z</time></trkpt><trkpt lat="45.0970596" lon="9.2498466"><ele>64.0</ele><time>2026-04-11T11:05:17.836Z</time></trkpt><trkpt lat="45.0969455" lon="9.2499498"><ele>63.666666666666664</ele><time>2026-04-11T11:05:18.836Z</time></trkpt><trkpt lat="45.0968188" lon="9.2500549"><ele>63.33333333333333</ele><time>2026-04-11T11:05:19.836Z</time></trkpt><trkpt lat="45.0966845" lon="9.2501645"><ele>63.0</ele><time>2026-04-11T11:05:20.837Z</time></trkpt><trkpt lat="45.0965467" lon="9.2502831"><ele>63.0</ele><time>2026-04-11T11:05:21.837Z</time></trkpt><trkpt lat="45.096403" lon="9.2504038"><ele>63.0</ele><time>2026-04-11T11:05:22.837Z</time></trkpt><trkpt lat="45.0962449" lon="9.2505361"><ele>63.0</ele><time>2026-04-11T11:05:23.836Z</time></trkpt><trkpt lat="45.0960531" lon="9.2506873"><ele>63.0</ele><time>2026-04-11T11:05:24.836Z</time></trkpt><trkpt lat="45.0958443" lon="9.2508443"><ele>63.0</ele><time>2026-04-11T11:05:25.837Z</time></trkpt><trkpt lat="45.0956292" lon="9.2509988"><ele>64.5</ele><time>2026-04-11T11:05:26.836Z</time></trkpt><trkpt lat="45.0954233" lon="9.2511647"><ele>66.0</ele><time>2026-04-11T11:05:27.837Z</time></trkpt><trkpt lat="45.0952326" lon="9.2513245"><ele>66.0</ele><time>2026-04-11T11:05:28.836Z</time></trkpt><trkpt lat="45.0950508" lon="9.2515027"><ele>66.0</ele><time>2026-04-11T11:05:29.836Z</time></trkpt><trkpt lat="45.0948823" lon="9.2516813"><ele>66.0</ele><time>2026-04-11T11:05:30.837Z</time></trkpt><trkpt lat="45.0947264" lon="9.2518601"><ele>66.0</ele><time>2026-04-11T11:05:31.837Z</time></trkpt><trkpt lat="45.0945877" lon="9.2520427"><ele>66.0</ele><time>2026-04-11T11:05:32.837Z</time></trkpt><trkpt lat="45.0944537" lon="9.2522016"><ele>66.0</ele><time>2026-04-11T11:05:33.837Z</time></trkpt><trkpt lat="45.0943298" lon="9.2523572"><ele>66.0</ele><time>2026-04-11T11:05:34.837Z</time></trkpt><trkpt lat="45.0942042" lon="9.2525012"><ele>66.0</ele><time>2026-04-11T11:05:35.837Z</time></trkpt><trkpt lat="45.0940812" lon="9.2526387"><ele>66.0</ele><time>2026-04-11T11:05:36.836Z</time></trkpt><trkpt lat="45.0939574" lon="9.2527624"><ele>65.75</ele><time>2026-04-11T11:05:37.837Z</time></trkpt><trkpt lat="45.0938336" lon="9.2528751"><ele>65.5</ele><time>2026-04-11T11:05:38.837Z</time></trkpt><trkpt lat="45.0937074" lon="9.2529889"><ele>65.25</ele><time>2026-04-11T11:05:39.837Z</time></trkpt><trkpt lat="45.0935751" lon="9.2530925"><ele>65.0</ele><time>2026-04-11T11:05:40.836Z</time></trkpt><trkpt lat="45.0934375" lon="9.2531712"><ele>65.0</ele><time>2026-04-11T11:05:41.837Z</time></trkpt><trkpt lat="45.0933098" lon="9.2532394"><ele>65.0</ele><time>2026-04-11T11:05:42.837Z</time></trkpt><trkpt lat="45.0932011" lon="9.2532939"><ele>65.0</ele><time>2026-04-11T11:05:43.837Z</time></trkpt><trkpt lat="45.0931029" lon="9.2533339"><ele>65.0</ele><time>2026-04-11T11:05:44.837Z</time></trkpt><trkpt lat="45.0930109" lon="9.2533432"><ele>65.0</ele><time>2026-04-11T11:05:45.837Z</time></trkpt><trkpt lat="45.0929252" lon="9.253333"><ele>64.8</ele><time>2026-04-11T11:05:46.837Z</time></trkpt><trkpt lat="45.0928376" lon="9.2533241"><ele>64.6</ele><time>2026-04-11T11:05:47.836Z</time></trkpt><trkpt lat="45.0927631" lon="9.2533648"><ele>64.4</ele><time>2026-04-11T11:05:48.837Z</time></trkpt><trkpt lat="45.0927009" lon="9.2534414"><ele>64.2</ele><time>2026-04-11T11:05:49.837Z</time></trkpt><trkpt lat="45.0926419" lon="9.2535497"><ele>64.0</ele><time>2026-04-11T11:05:50.837Z</time></trkpt><trkpt lat="45.0925711" lon="9.253663"><ele>64.0</ele><time>2026-04-11T11:05:51.837Z</time></trkpt><trkpt lat="45.0924741" lon="9.2537714"><ele>64.0</ele><time>2026-04-11T11:05:52.837Z</time></trkpt><trkpt lat="45.0923531" lon="9.2538642"><ele>64.0</ele><time>2026-04-11T11:05:53.837Z</time></trkpt><trkpt lat="45.0922127" lon="9.2539542"><ele>64.0</ele><time>2026-04-11T11:05:54.837Z</time></trkpt><trkpt lat="45.0920631" lon="9.2540515"><ele>64.33333333333333</ele><time>2026-04-11T11:05:55.837Z</time></trkpt><trkpt lat="45.0919" lon="9.2541503"><ele>64.66666666666667</ele><time>2026-04-11T11:05:56.837Z</time></trkpt><trkpt lat="45.0917253" lon="9.2542596"><ele>65.0</ele><time>2026-04-11T11:05:57.837Z</time></trkpt><trkpt lat="45.091545" lon="9.2543872"><ele>65.0</ele><time>2026-04-11T11:05:58.837Z</time></trkpt><trkpt lat="45.0913568" lon="9.2545087"><ele>65.0</ele><time>2026-04-11T11:05:59.836Z</time></trkpt><trkpt lat="45.091162" lon="9.2546336"><ele>65.0</ele><time>2026-04-11T11:06:00.837Z</time></trkpt><trkpt lat="45.0909733" lon="9.2547565"><ele>65.0</ele><time>2026-04-11T11:06:01.837Z</time></trkpt><trkpt lat="45.090796" lon="9.2548715"><ele>65.0</ele><time>2026-04-11T11:06:02.837Z</time></trkpt><trkpt lat="45.0906227" lon="9.2549735"><ele>65.0</ele><time>2026-04-11T11:06:03.837Z</time></trkpt><trkpt lat="45.0904561" lon="9.2550709"><ele>65.0</ele><time>2026-04-11T11:06:04.837Z</time></trkpt><trkpt lat="45.0902947" lon="9.2551623"><ele>65.0</ele><time>2026-04-11T11:06:05.837Z</time></trkpt><trkpt lat="45.0901395" lon="9.2552496"><ele>65.0</ele><time>2026-04-11T11:06:06.837Z</time></trkpt><trkpt lat="45.0899944" lon="9.2553359"><ele>64.75</ele><time>2026-04-11T11:06:07.836Z</time></trkpt><trkpt lat="45.0898526" lon="9.2554131"><ele>64.5</ele><time>2026-04-11T11:06:08.837Z</time></trkpt><trkpt lat="45.0897228" lon="9.2555105"><ele>64.25</ele><time>2026-04-11T11:06:09.838Z</time></trkpt><trkpt lat="45.0895953" lon="9.2555987"><ele>64.0</ele><time>2026-04-11T11:06:10.838Z</time></trkpt><trkpt lat="45.0894654" lon="9.2556743"><ele>64.75</ele><time>2026-04-11T11:06:11.838Z</time></trkpt><trkpt lat="45.0893416" lon="9.2557486"><ele>65.5</ele><time>2026-04-11T11:06:12.838Z</time></trkpt><trkpt lat="45.0892249" lon="9.2558278"><ele>66.25</ele><time>2026-04-11T11:06:13.838Z</time></trkpt><trkpt lat="45.0891161" lon="9.2559009"><ele>67.0</ele><time>2026-04-11T11:06:14.838Z</time></trkpt><trkpt lat="45.0890188" lon="9.2559657"><ele>67.0</ele><time>2026-04-11T11:06:15.838Z</time></trkpt><trkpt lat="45.0889193" lon="9.2560296"><ele>67.0</ele><time>2026-04-11T11:06:16.838Z</time></trkpt><trkpt lat="45.0888214" lon="9.2561017"><ele>67.0</ele><time>2026-04-11T11:06:17.838Z</time></trkpt><trkpt lat="45.0887263" lon="9.2561783"><ele>67.0</ele><time>2026-04-11T11:06:18.838Z</time></trkpt><trkpt lat="45.0886346" lon="9.2562591"><ele>67.0</ele><time>2026-04-11T11:06:19.838Z</time></trkpt><trkpt lat="45.0885494" lon="9.256341"><ele>67.0</ele><time>2026-04-11T11:06:20.838Z</time></trkpt><trkpt lat="45.0884664" lon="9.2564186"><ele>67.0</ele><time>2026-04-11T11:06:21.838Z</time></trkpt><trkpt lat="45.0883772" lon="9.2564708"><ele>67.0</ele><time>2026-04-11T11:06:22.838Z</time></trkpt><trkpt lat="45.0882819" lon="9.2564973"><ele>67.0</ele><time>2026-04-11T11:06:23.838Z</time></trkpt><trkpt lat="45.0881921" lon="9.2565284"><ele>67.0</ele><time>2026-04-11T11:06:24.837Z</time></trkpt><trkpt lat="45.0881029" lon="9.2565967"><ele>67.25</ele><time>2026-04-11T11:06:25.838Z</time></trkpt><trkpt lat="45.0880027" lon="9.2566604"><ele>67.5</ele><time>2026-04-11T11:06:26.838Z</time></trkpt><trkpt lat="45.0878674" lon="9.256708"><ele>67.75</ele><time>2026-04-11T11:06:27.838Z</time></trkpt><trkpt lat="45.0877049" lon="9.2567812"><ele>68.0</ele><time>2026-04-11T11:06:28.838Z</time></trkpt><trkpt lat="45.0875554" lon="9.2568579"><ele>67.0</ele><time>2026-04-11T11:06:29.838Z</time></trkpt><trkpt lat="45.0874033" lon="9.2569353"><ele>66.0</ele><time>2026-04-11T11:06:30.838Z</time></trkpt><trkpt lat="45.0872463" lon="9.2570189"><ele>65.0</ele><time>2026-04-11T11:06:31.838Z</time></trkpt><trkpt lat="45.0870838" lon="9.2571118"><ele>65.0</ele><time>2026-04-11T11:06:32.838Z</time></trkpt><trkpt lat="45.0869153" lon="9.2572055"><ele>65.0</ele><time>2026-04-11T11:06:33.838Z</time></trkpt><trkpt lat="45.0867296" lon="9.2573065"><ele>65.0</ele><time>2026-04-11T11:06:34.838Z</time></trkpt><trkpt lat="45.0865302" lon="9.2573959"><ele>65.0</ele><time>2026-04-11T11:06:35.837Z</time></trkpt><trkpt lat="45.0863276" lon="9.2574865"><ele>65.0</ele><time>2026-04-11T11:06:36.838Z</time></trkpt><trkpt lat="45.0861396" lon="9.257565"><ele>65.0</ele><time>2026-04-11T11:06:37.837Z</time></trkpt><trkpt lat="45.0859565" lon="9.2576348"><ele>65.0</ele><time>2026-04-11T11:06:38.838Z</time></trkpt><trkpt lat="45.0857685" lon="9.2576946"><ele>65.0</ele><time>2026-04-11T11:06:39.837Z</time></trkpt><trkpt lat="45.0855745" lon="9.2577518"><ele>65.0</ele><time>2026-04-11T11:06:40.837Z</time></trkpt><trkpt lat="45.0853744" lon="9.2578091"><ele>65.0</ele><time>2026-04-11T11:06:41.837Z</time></trkpt><trkpt lat="45.085182" lon="9.257864"><ele>65.0</ele><time>2026-04-11T11:06:42.838Z</time></trkpt><trkpt lat="45.0849883" lon="9.257912"><ele>65.0</ele><time>2026-04-11T11:06:43.837Z</time></trkpt><trkpt lat="45.084783" lon="9.2579601"><ele>66.0</ele><time>2026-04-11T11:06:44.838Z</time></trkpt><trkpt lat="45.0845662" lon="9.2580089"><ele>67.0</ele><time>2026-04-11T11:06:45.837Z</time></trkpt><trkpt lat="45.0843367" lon="9.2580584"><ele>67.0</ele><time>2026-04-11T11:06:46.838Z</time></trkpt><trkpt lat="45.0841027" lon="9.2581052"><ele>67.0</ele><time>2026-04-11T11:06:47.838Z</time></trkpt><trkpt lat="45.0838641" lon="9.2581448"><ele>68.0</ele><time>2026-04-11T11:06:48.838Z</time></trkpt><trkpt lat="45.0836291" lon="9.2581877"><ele>69.0</ele><time>2026-04-11T11:06:49.838Z</time></trkpt><trkpt lat="45.0833949" lon="9.2582339"><ele>69.0</ele><time>2026-04-11T11:06:50.838Z</time></trkpt><trkpt lat="45.0831675" lon="9.2582898"><ele>69.0</ele><time>2026-04-11T11:06:51.837Z</time></trkpt><trkpt lat="45.082943" lon="9.2583459"><ele>69.0</ele><time>2026-04-11T11:06:52.838Z</time></trkpt><trkpt lat="45.0827239" lon="9.2584194"><ele>69.0</ele><time>2026-04-11T11:06:53.838Z</time></trkpt><trkpt lat="45.0824997" lon="9.2584856"><ele>68.5</ele><time>2026-04-11T11:06:54.838Z</time></trkpt><trkpt lat="45.0822736" lon="9.2585539"><ele>68.0</ele><time>2026-04-11T11:06:55.837Z</time></trkpt><trkpt lat="45.082045" lon="9.2586251"><ele>68.0</ele><time>2026-04-11T11:06:56.838Z</time></trkpt><trkpt lat="45.0818146" lon="9.258695"><ele>68.0</ele><time>2026-04-11T11:06:57.839Z</time></trkpt><trkpt lat="45.0815835" lon="9.2587678"><ele>68.0</ele><time>2026-04-11T11:06:58.839Z</time></trkpt><trkpt lat="45.0813463" lon="9.2588423"><ele>68.0</ele><time>2026-04-11T11:06:59.839Z</time></trkpt><trkpt lat="45.0811077" lon="9.2589114"><ele>68.0</ele><time>2026-04-11T11:07:00.839Z</time></trkpt><trkpt lat="45.0808668" lon="9.2589856"><ele>68.0</ele><time>2026-04-11T11:07:01.839Z</time></trkpt><trkpt lat="45.0806242" lon="9.2590579"><ele>68.0</ele><time>2026-04-11T11:07:02.838Z</time></trkpt><trkpt lat="45.080381" lon="9.2591303"><ele>68.0</ele><time>2026-04-11T11:07:03.839Z</time></trkpt><trkpt lat="45.0801406" lon="9.2592037"><ele>68.5</ele><time>2026-04-11T11:07:04.839Z</time></trkpt><trkpt lat="45.0799005" lon="9.2592835"><ele>69.0</ele><time>2026-04-11T11:07:05.838Z</time></trkpt><trkpt lat="45.079654" lon="9.2593618"><ele>69.0</ele><time>2026-04-11T11:07:06.838Z</time></trkpt><trkpt lat="45.0794048" lon="9.2594394"><ele>69.0</ele><time>2026-04-11T11:07:07.838Z</time></trkpt><trkpt lat="45.0791537" lon="9.2595185"><ele>70.0</ele><time>2026-04-11T11:07:08.839Z</time></trkpt><trkpt lat="45.0789006" lon="9.2595862"><ele>71.0</ele><time>2026-04-11T11:07:09.839Z</time></trkpt><trkpt lat="45.0786445" lon="9.2596523"><ele>71.0</ele><time>2026-04-11T11:07:10.839Z</time></trkpt><trkpt lat="45.078393" lon="9.2597133"><ele>71.0</ele><time>2026-04-11T11:07:11.839Z</time></trkpt><trkpt lat="45.078142" lon="9.2597791"><ele>71.0</ele><time>2026-04-11T11:07:12.839Z</time></trkpt><trkpt lat="45.0778927" lon="9.25985"><ele>71.0</ele><time>2026-04-11T11:07:13.839Z</time></trkpt><trkpt lat="45.0776464" lon="9.2599305"><ele>72.0</ele><time>2026-04-11T11:07:14.839Z</time></trkpt><trkpt lat="45.077395" lon="9.2600017"><ele>73.0</ele><time>2026-04-11T11:07:15.839Z</time></trkpt><trkpt lat="45.0771408" lon="9.2600755"><ele>73.0</ele><time>2026-04-11T11:07:16.838Z</time></trkpt><trkpt lat="45.0768969" lon="9.2601523"><ele>73.0</ele><time>2026-04-11T11:07:17.839Z</time></trkpt><trkpt lat="45.0766619" lon="9.2602299"><ele>72.66666666666666</ele><time>2026-04-11T11:07:18.839Z</time></trkpt><trkpt lat="45.0764434" lon="9.2603122"><ele>72.33333333333333</ele><time>2026-04-11T11:07:19.839Z</time></trkpt><trkpt lat="45.0762297" lon="9.2603872"><ele>72.0</ele><time>2026-04-11T11:07:20.838Z</time></trkpt><trkpt lat="45.0760346" lon="9.2604603"><ele>72.0</ele><time>2026-04-11T11:07:21.839Z</time></trkpt><trkpt lat="45.0758427" lon="9.2605358"><ele>72.0</ele><time>2026-04-11T11:07:22.839Z</time></trkpt><trkpt lat="45.0756539" lon="9.2606375"><ele>72.0</ele><time>2026-04-11T11:07:23.839Z</time></trkpt><trkpt lat="45.0754509" lon="9.2607523"><ele>72.66666666666667</ele><time>2026-04-11T11:07:24.839Z</time></trkpt><trkpt lat="45.0752526" lon="9.2608992"><ele>73.33333333333334</ele><time>2026-04-11T11:07:25.839Z</time></trkpt><trkpt lat="45.0750611" lon="9.2610647"><ele>74.0</ele><time>2026-04-11T11:07:26.839Z</time></trkpt><trkpt lat="45.0748641" lon="9.2612397"><ele>74.0</ele><time>2026-04-11T11:07:27.839Z</time></trkpt><trkpt lat="45.0746715" lon="9.2614067"><ele>74.0</ele><time>2026-04-11T11:07:28.838Z</time></trkpt><trkpt lat="45.0744885" lon="9.2615639"><ele>74.0</ele><time>2026-04-11T11:07:29.839Z</time></trkpt><trkpt lat="45.0743162" lon="9.2617134"><ele>74.0</ele><time>2026-04-11T11:07:30.839Z</time></trkpt><trkpt lat="45.0741548" lon="9.2618624"><ele>74.0</ele><time>2026-04-11T11:07:31.839Z</time></trkpt><trkpt lat="45.0739987" lon="9.262013"><ele>74.0</ele><time>2026-04-11T11:07:32.839Z</time></trkpt><trkpt lat="45.0738534" lon="9.2621595"><ele>74.0</ele><time>2026-04-11T11:07:33.838Z</time></trkpt><trkpt lat="45.0737125" lon="9.2622828"><ele>74.0</ele><time>2026-04-11T11:07:34.839Z</time></trkpt><trkpt lat="45.0735714" lon="9.2624038"><ele>74.0</ele><time>2026-04-11T11:07:35.839Z</time></trkpt><trkpt lat="45.0734264" lon="9.2625363"><ele>74.0</ele><time>2026-04-11T11:07:36.839Z</time></trkpt><trkpt lat="45.073283" lon="9.2626664"><ele>74.0</ele><time>2026-04-11T11:07:37.839Z</time></trkpt><trkpt lat="45.0731391" lon="9.2627902"><ele>74.0</ele><time>2026-04-11T11:07:38.839Z</time></trkpt><trkpt lat="45.0729968" lon="9.2629208"><ele>74.0</ele><time>2026-04-11T11:07:39.838Z</time></trkpt><trkpt lat="45.0728583" lon="9.2630521"><ele>74.0</ele><time>2026-04-11T11:07:40.839Z</time></trkpt><trkpt lat="45.0727278" lon="9.2631748"><ele>74.0</ele><time>2026-04-11T11:07:41.839Z</time></trkpt><trkpt lat="45.0726111" lon="9.2632823"><ele>74.0</ele><time>2026-04-11T11:07:42.839Z</time></trkpt><trkpt lat="45.0724969" lon="9.2633894"><ele>74.0</ele><time>2026-04-11T11:07:43.838Z</time></trkpt><trkpt lat="45.0723832" lon="9.2634929"><ele>74.0</ele><time>2026-04-11T11:07:44.839Z</time></trkpt><trkpt lat="45.0722686" lon="9.2635977"><ele>74.0</ele><time>2026-04-11T11:07:45.84Z</time></trkpt><trkpt lat="45.0721527" lon="9.2637109"><ele>74.33333333333334</ele><time>2026-04-11T11:07:46.84Z</time></trkpt><trkpt lat="45.07202" lon="9.2638259"><ele>74.66666666666667</ele><time>2026-04-11T11:07:47.84Z</time></trkpt><trkpt lat="45.0718738" lon="9.2639642"><ele>75.0</ele><time>2026-04-11T11:07:48.84Z</time></trkpt><trkpt lat="45.0717206" lon="9.2641056"><ele>75.66666666666667</ele><time>2026-04-11T11:07:49.839Z</time></trkpt><trkpt lat="45.0715718" lon="9.2642373"><ele>76.33333333333334</ele><time>2026-04-11T11:07:50.84Z</time></trkpt><trkpt lat="45.0714362" lon="9.2643595"><ele>77.0</ele><time>2026-04-11T11:07:51.84Z</time></trkpt><trkpt lat="45.0713108" lon="9.2644694"><ele>77.0</ele><time>2026-04-11T11:07:52.84Z</time></trkpt><trkpt lat="45.0711925" lon="9.2645732"><ele>77.0</ele><time>2026-04-11T11:07:53.84Z</time></trkpt><trkpt lat="45.0710855" lon="9.2646741"><ele>77.0</ele><time>2026-04-11T11:07:54.839Z</time></trkpt><trkpt lat="45.0709796" lon="9.2647723"><ele>77.0</ele><time>2026-04-11T11:07:55.84Z</time></trkpt><trkpt lat="45.0708743" lon="9.2648721"><ele>77.5</ele><time>2026-04-11T11:07:56.84Z</time></trkpt><trkpt lat="45.0707641" lon="9.2649699"><ele>78.0</ele><time>2026-04-11T11:07:57.84Z</time></trkpt><trkpt lat="45.0706498" lon="9.2650703"><ele>78.5</ele><time>2026-04-11T11:07:58.84Z</time></trkpt><trkpt lat="45.0705313" lon="9.265173"><ele>79.0</ele><time>2026-04-11T11:07:59.84Z</time></trkpt><trkpt lat="45.0704172" lon="9.2652812"><ele>79.0</ele><time>2026-04-11T11:08:00.84Z</time></trkpt><trkpt lat="45.0703066" lon="9.2653795"><ele>79.0</ele><time>2026-04-11T11:08:01.84Z</time></trkpt><trkpt lat="45.0702006" lon="9.2654714"><ele>79.0</ele><time>2026-04-11T11:08:02.839Z</time></trkpt><trkpt lat="45.0701046" lon="9.2655527"><ele>79.0</ele><time>2026-04-11T11:08:03.84Z</time></trkpt><trkpt lat="45.0700187" lon="9.2656417"><ele>79.4</ele><time>2026-04-11T11:08:04.839Z</time></trkpt><trkpt lat="45.0699258" lon="9.2657159"><ele>79.80000000000001</ele><time>2026-04-11T11:08:05.84Z</time></trkpt><trkpt lat="45.0698339" lon="9.2657918"><ele>80.19999999999999</ele><time>2026-04-11T11:08:06.839Z</time></trkpt><trkpt lat="45.069748" lon="9.2658746"><ele>80.6</ele><time>2026-04-11T11:08:07.84Z</time></trkpt><trkpt lat="45.0696679" lon="9.265944"><ele>81.0</ele><time>2026-04-11T11:08:08.84Z</time></trkpt><trkpt lat="45.0695968" lon="9.2660222"><ele>81.0</ele><time>2026-04-11T11:08:09.84Z</time></trkpt><trkpt lat="45.0695304" lon="9.2660749"><ele>81.0</ele><time>2026-04-11T11:08:10.84Z</time></trkpt><trkpt lat="45.0694776" lon="9.2661256"><ele>81.0</ele><time>2026-04-11T11:08:11.839Z</time></trkpt><trkpt lat="45.0693782" lon="9.2662033"><ele>81.0</ele><time>2026-04-11T11:08:13.84Z</time></trkpt><trkpt lat="45.0692638" lon="9.2662821"><ele>81.0</ele><time>2026-04-11T11:08:15.84Z</time></trkpt><trkpt lat="45.0691906" lon="9.2663043"><ele>81.0</ele><time>2026-04-11T11:08:16.84Z</time></trkpt><trkpt lat="45.0691118" lon="9.2663261"><ele>81.0</ele><time>2026-04-11T11:08:17.84Z</time></trkpt><trkpt lat="45.0690316" lon="9.2663673"><ele>81.0</ele><time>2026-04-11T11:08:18.84Z</time></trkpt><trkpt lat="45.0689775" lon="9.2664276"><ele>81.0</ele><time>2026-04-11T11:08:19.84Z</time></trkpt><trkpt lat="45.0689393" lon="9.2665041"><ele>81.0</ele><time>2026-04-11T11:08:20.84Z</time></trkpt><trkpt lat="45.0689625" lon="9.2666723"><ele>81.0</ele><time>2026-04-11T11:08:22.839Z</time></trkpt><trkpt lat="45.0690208" lon="9.2667377"><ele>81.6</ele><time>2026-04-11T11:08:23.84Z</time></trkpt><trkpt lat="45.0690933" lon="9.2667842"><ele>82.19999999999999</ele><time>2026-04-11T11:08:24.84Z</time></trkpt><trkpt lat="45.0691688" lon="9.266841"><ele>82.80000000000001</ele><time>2026-04-11T11:08:25.84Z</time></trkpt><trkpt lat="45.0692402" lon="9.2669545"><ele>83.4</ele><time>2026-04-11T11:08:26.84Z</time></trkpt><trkpt lat="45.069306" lon="9.2670787"><ele>84.0</ele><time>2026-04-11T11:08:27.839Z</time></trkpt><trkpt lat="45.0693709" lon="9.2672024"><ele>85.0</ele><time>2026-04-11T11:08:28.84Z</time></trkpt><trkpt lat="45.0694446" lon="9.2673377"><ele>86.0</ele><time>2026-04-11T11:08:29.84Z</time></trkpt><trkpt lat="45.0695325" lon="9.2674905"><ele>87.0</ele><time>2026-04-11T11:08:30.84Z</time></trkpt><trkpt lat="45.069623" lon="9.2676371"><ele>88.0</ele><time>2026-04-11T11:08:31.839Z</time></trkpt><trkpt lat="45.0697148" lon="9.2677813"><ele>88.0</ele><time>2026-04-11T11:08:32.84Z</time></trkpt><trkpt lat="45.0698169" lon="9.2679204"><ele>88.0</ele><time>2026-04-11T11:08:33.841Z</time></trkpt><trkpt lat="45.0699234" lon="9.2680619"><ele>88.0</ele><time>2026-04-11T11:08:34.841Z</time></trkpt><trkpt lat="45.0700271" lon="9.2682013"><ele>88.0</ele><time>2026-04-11T11:08:35.841Z</time></trkpt><trkpt lat="45.0701305" lon="9.2683434"><ele>87.75</ele><time>2026-04-11T11:08:36.841Z</time></trkpt><trkpt lat="45.0702366" lon="9.268472"><ele>87.5</ele><time>2026-04-11T11:08:37.841Z</time></trkpt><trkpt lat="45.0703458" lon="9.268588"><ele>87.25</ele><time>2026-04-11T11:08:38.841Z</time></trkpt><trkpt lat="45.0704603" lon="9.2686995"><ele>87.0</ele><time>2026-04-11T11:08:39.84Z</time></trkpt><trkpt lat="45.0705643" lon="9.2688008"><ele>87.0</ele><time>2026-04-11T11:08:40.841Z</time></trkpt><trkpt lat="45.0706821" lon="9.2688887"><ele>87.0</ele><time>2026-04-11T11:08:41.84Z</time></trkpt><trkpt lat="45.0707931" lon="9.2689854"><ele>87.0</ele><time>2026-04-11T11:08:42.841Z</time></trkpt><trkpt lat="45.0708862" lon="9.2690685"><ele>87.0</ele><time>2026-04-11T11:08:43.841Z</time></trkpt><trkpt lat="45.070972" lon="9.2691327"><ele>86.71428571428571</ele><time>2026-04-11T11:08:44.841Z</time></trkpt><trkpt lat="45.0710434" lon="9.2691833"><ele>86.42857142857143</ele><time>2026-04-11T11:08:45.841Z</time></trkpt><trkpt lat="45.0711035" lon="9.2692353"><ele>86.14285714285714</ele><time>2026-04-11T11:08:46.841Z</time></trkpt><trkpt lat="45.0711845" lon="9.2693067"><ele>85.85714285714286</ele><time>2026-04-11T11:08:48.841Z</time></trkpt><trkpt lat="45.0711798" lon="9.2694007"><ele>85.57142857142857</ele><time>2026-04-11T11:08:50.841Z</time></trkpt><trkpt lat="45.071121" lon="9.2694461"><ele>85.28571428571429</ele><time>2026-04-11T11:08:52.841Z</time></trkpt><trkpt lat="45.0710588" lon="9.2694053"><ele>85.0</ele><time>2026-04-11T11:08:54.84Z</time></trkpt><trkpt lat="45.0709629" lon="9.2693028"><ele>85.0</ele><time>2026-04-11T11:08:56.841Z</time></trkpt><trkpt lat="45.0708978" lon="9.2692481"><ele>85.0</ele><time>2026-04-11T11:08:57.84Z</time></trkpt><trkpt lat="45.0708282" lon="9.269184"><ele>85.0</ele><time>2026-04-11T11:08:58.841Z</time></trkpt><trkpt lat="45.0707646" lon="9.2691372"><ele>85.0</ele><time>2026-04-11T11:08:59.841Z</time></trkpt><trkpt lat="45.0706971" lon="9.2691605"><ele>85.0</ele><time>2026-04-11T11:09:02.841Z</time></trkpt><trkpt lat="45.070675" lon="9.2692547"><ele>85.0</ele><time>2026-04-11T11:09:06.841Z</time></trkpt><trkpt lat="45.0706771" lon="9.269366"><ele>85.0</ele><time>2026-04-11T11:09:08.841Z</time></trkpt><trkpt lat="45.0707697" lon="9.269474"><ele>85.0</ele><time>2026-04-11T11:09:10.841Z</time></trkpt><trkpt lat="45.0708301" lon="9.2695141"><ele>85.0</ele><time>2026-04-11T11:09:11.841Z</time></trkpt><trkpt lat="45.0708943" lon="9.2695644"><ele>85.0</ele><time>2026-04-11T11:09:12.841Z</time></trkpt><trkpt lat="45.0709547" lon="9.2696146"><ele>85.0</ele><time>2026-04-11T11:09:13.841Z</time></trkpt><trkpt lat="45.0710115" lon="9.2696646"><ele>85.0</ele><time>2026-04-11T11:09:14.841Z</time></trkpt><trkpt lat="45.0711188" lon="9.2696461"><ele>85.0</ele><time>2026-04-11T11:09:16.841Z</time></trkpt><trkpt lat="45.0711903" lon="9.2695183"><ele>85.0</ele><time>2026-04-11T11:09:18.841Z</time></trkpt><trkpt lat="45.0712339" lon="9.2694251"><ele>85.0</ele><time>2026-04-11T11:09:20.841Z</time></trkpt><trkpt lat="45.0712439" lon="9.2693138"><ele>85.0</ele><time>2026-04-11T11:09:40.842Z</time></trkpt><trkpt lat="45.0711489" lon="9.2691804"><ele>85.0</ele><time>2026-04-11T11:09:42.841Z</time></trkpt><trkpt lat="45.0710803" lon="9.2691402"><ele>85.0</ele><time>2026-04-11T11:09:43.841Z</time></trkpt><trkpt lat="45.0709922" lon="9.2690758"><ele>85.0</ele><time>2026-04-11T11:09:44.841Z</time></trkpt><trkpt lat="45.0708902" lon="9.2690093"><ele>85.0</ele><time>2026-04-11T11:09:45.842Z</time></trkpt><trkpt lat="45.0707954" lon="9.2689402"><ele>85.0</ele><time>2026-04-11T11:09:46.841Z</time></trkpt><trkpt lat="45.070697" lon="9.2688656"><ele>85.0</ele><time>2026-04-11T11:09:47.842Z</time></trkpt><trkpt lat="45.0705985" lon="9.2687768"><ele>85.0</ele><time>2026-04-11T11:09:48.841Z</time></trkpt><trkpt lat="45.0704914" lon="9.2686835"><ele>85.5</ele><time>2026-04-11T11:09:49.842Z</time></trkpt><trkpt lat="45.0703882" lon="9.2685798"><ele>86.0</ele><time>2026-04-11T11:09:50.842Z</time></trkpt><trkpt lat="45.0702973" lon="9.2684737"><ele>86.5</ele><time>2026-04-11T11:09:51.842Z</time></trkpt><trkpt lat="45.0702145" lon="9.2683812"><ele>87.0</ele><time>2026-04-11T11:09:52.842Z</time></trkpt><trkpt lat="45.0701327" lon="9.2682748"><ele>87.0</ele><time>2026-04-11T11:09:53.841Z</time></trkpt><trkpt lat="45.0700465" lon="9.2681687"><ele>87.0</ele><time>2026-04-11T11:09:54.842Z</time></trkpt><trkpt lat="45.069955" lon="9.2680474"><ele>87.0</ele><time>2026-04-11T11:09:55.842Z</time></trkpt><trkpt lat="45.0698603" lon="9.2679074"><ele>87.0</ele><time>2026-04-11T11:09:56.842Z</time></trkpt><trkpt lat="45.0697657" lon="9.2677607"><ele>87.25</ele><time>2026-04-11T11:09:57.842Z</time></trkpt><trkpt lat="45.0696704" lon="9.2676275"><ele>87.5</ele><time>2026-04-11T11:09:58.842Z</time></trkpt><trkpt lat="45.0695871" lon="9.2674983"><ele>87.75</ele><time>2026-04-11T11:09:59.841Z</time></trkpt><trkpt lat="45.0695193" lon="9.2673828"><ele>88.0</ele><time>2026-04-11T11:10:00.842Z</time></trkpt><trkpt lat="45.0694574" lon="9.2672654"><ele>87.33333333333333</ele><time>2026-04-11T11:10:01.842Z</time></trkpt><trkpt lat="45.0694043" lon="9.2671539"><ele>86.66666666666666</ele><time>2026-04-11T11:10:02.842Z</time></trkpt><trkpt lat="45.0693562" lon="9.2670438"><ele>86.0</ele><time>2026-04-11T11:10:03.842Z</time></trkpt><trkpt lat="45.0693111" lon="9.2669406"><ele>85.33333333333333</ele><time>2026-04-11T11:10:04.842Z</time></trkpt><trkpt lat="45.0692711" lon="9.2668407"><ele>84.66666666666667</ele><time>2026-04-11T11:10:05.842Z</time></trkpt><trkpt lat="45.0692486" lon="9.2667405"><ele>84.0</ele><time>2026-04-11T11:10:06.842Z</time></trkpt><trkpt lat="45.0692433" lon="9.2666297"><ele>84.0</ele><time>2026-04-11T11:10:07.842Z</time></trkpt><trkpt lat="45.0692329" lon="9.2665237"><ele>84.0</ele><time>2026-04-11T11:10:08.842Z</time></trkpt><trkpt lat="45.0692003" lon="9.2664356"><ele>84.0</ele><time>2026-04-11T11:10:09.842Z</time></trkpt><trkpt lat="45.069138" lon="9.2663732"><ele>84.0</ele><time>2026-04-11T11:10:10.842Z</time></trkpt><trkpt lat="45.0690584" lon="9.2663631"><ele>84.0</ele><time>2026-04-11T11:10:11.843Z</time></trkpt><trkpt lat="45.0690004" lon="9.2664024"><ele>84.0</ele><time>2026-04-11T11:10:12.842Z</time></trkpt><trkpt lat="45.0689531" lon="9.2664651"><ele>84.0</ele><time>2026-04-11T11:10:13.843Z</time></trkpt><trkpt lat="45.068901" lon="9.266571"><ele>84.0</ele><time>2026-04-11T11:10:14.843Z</time></trkpt><trkpt lat="45.0688393" lon="9.2666705"><ele>84.0</ele><time>2026-04-11T11:10:15.843Z</time></trkpt><trkpt lat="45.0687682" lon="9.26676"><ele>84.0</ele><time>2026-04-11T11:10:16.843Z</time></trkpt><trkpt lat="45.0687072" lon="9.2668254"><ele>84.0</ele><time>2026-04-11T11:10:17.843Z</time></trkpt><trkpt lat="45.0686478" lon="9.2668732"><ele>84.0</ele><time>2026-04-11T11:10:18.843Z</time></trkpt><trkpt lat="45.0685955" lon="9.2669252"><ele>84.0</ele><time>2026-04-11T11:10:19.843Z</time></trkpt><trkpt lat="45.0685201" lon="9.267018"><ele>84.0</ele><time>2026-04-11T11:10:21.843Z</time></trkpt><trkpt lat="45.0684536" lon="9.2670756"><ele>84.0</ele><time>2026-04-11T11:10:23.843Z</time></trkpt><trkpt lat="45.0683889" lon="9.2670729"><ele>84.0</ele><time>2026-04-11T11:10:25.843Z</time></trkpt><trkpt lat="45.0682793" lon="9.266966"><ele>84.0</ele><time>2026-04-11T11:10:27.843Z</time></trkpt><trkpt lat="45.068204" lon="9.2668961"><ele>84.0</ele><time>2026-04-11T11:10:28.843Z</time></trkpt><trkpt lat="45.0681284" lon="9.2668287"><ele>84.4</ele><time>2026-04-11T11:10:29.843Z</time></trkpt><trkpt lat="45.0680496" lon="9.2667685"><ele>84.80000000000001</ele><time>2026-04-11T11:10:30.843Z</time></trkpt><trkpt lat="45.0679564" lon="9.2667164"><ele>85.19999999999999</ele><time>2026-04-11T11:10:31.843Z</time></trkpt><trkpt lat="45.0678616" lon="9.2666478"><ele>85.6</ele><time>2026-04-11T11:10:32.843Z</time></trkpt><trkpt lat="45.0677697" lon="9.2665846"><ele>86.0</ele><time>2026-04-11T11:10:33.843Z</time></trkpt><trkpt lat="45.0676806" lon="9.266523"><ele>86.0</ele><time>2026-04-11T11:10:34.843Z</time></trkpt><trkpt lat="45.0675984" lon="9.2664509"><ele>86.0</ele><time>2026-04-11T11:10:35.843Z</time></trkpt><trkpt lat="45.0675187" lon="9.2663815"><ele>86.0</ele><time>2026-04-11T11:10:36.843Z</time></trkpt><trkpt lat="45.0674395" lon="9.2662986"><ele>86.0</ele><time>2026-04-11T11:10:37.843Z</time></trkpt><trkpt lat="45.0673565" lon="9.2662368"><ele>86.0</ele><time>2026-04-11T11:10:38.842Z</time></trkpt><trkpt lat="45.0672726" lon="9.2661997"><ele>86.19999999999999</ele><time>2026-04-11T11:10:39.842Z</time></trkpt><trkpt lat="45.0671803" lon="9.2661503"><ele>86.39999999999999</ele><time>2026-04-11T11:10:40.843Z</time></trkpt><trkpt lat="45.0671023" lon="9.2660886"><ele>86.6</ele><time>2026-04-11T11:10:41.843Z</time></trkpt><trkpt lat="45.0670165" lon="9.2660238"><ele>86.8</ele><time>2026-04-11T11:10:42.843Z</time></trkpt><trkpt lat="45.0669265" lon="9.2659664"><ele>87.0</ele><time>2026-04-11T11:10:43.843Z</time></trkpt><trkpt lat="45.0668398" lon="9.2658973"><ele>87.0</ele><time>2026-04-11T11:10:44.843Z</time></trkpt><trkpt lat="45.0667567" lon="9.2658205"><ele>87.0</ele><time>2026-04-11T11:10:45.843Z</time></trkpt><trkpt lat="45.0666751" lon="9.2657482"><ele>87.0</ele><time>2026-04-11T11:10:46.843Z</time></trkpt><trkpt lat="45.0665978" lon="9.2657051"><ele>87.0</ele><time>2026-04-11T11:10:47.843Z</time></trkpt><trkpt lat="45.0665282" lon="9.2656441"><ele>87.0</ele><time>2026-04-11T11:10:48.843Z</time></trkpt><trkpt lat="45.0664344" lon="9.2655917"><ele>86.8</ele><time>2026-04-11T11:10:50.842Z</time></trkpt><trkpt lat="45.0663544" lon="9.2655416"><ele>86.6</ele><time>2026-04-11T11:10:52.842Z</time></trkpt><trkpt lat="45.0662717" lon="9.2654528"><ele>86.39999999999999</ele><time>2026-04-11T11:10:54.843Z</time></trkpt><trkpt lat="45.0661608" lon="9.265358"><ele>86.19999999999999</ele><time>2026-04-11T11:10:56.842Z</time></trkpt><trkpt lat="45.0660968" lon="9.2653086"><ele>86.0</ele><time>2026-04-11T11:10:57.842Z</time></trkpt><trkpt lat="45.0660298" lon="9.2652587"><ele>86.0</ele><time>2026-04-11T11:10:58.843Z</time></trkpt><trkpt lat="45.0659572" lon="9.2652108"><ele>86.0</ele><time>2026-04-11T11:10:59.844Z</time></trkpt><trkpt lat="45.065882" lon="9.2651599"><ele>86.0</ele><time>2026-04-11T11:11:00.844Z</time></trkpt><trkpt lat="45.0658101" lon="9.2651"><ele>86.0</ele><time>2026-04-11T11:11:01.844Z</time></trkpt><trkpt lat="45.0657502" lon="9.2650388"><ele>86.0</ele><time>2026-04-11T11:11:02.844Z</time></trkpt><trkpt lat="45.0656348" lon="9.2649666"><ele>86.0</ele><time>2026-04-11T11:11:04.844Z</time></trkpt><trkpt lat="45.0655703" lon="9.2649297"><ele>86.42857142857143</ele><time>2026-04-11T11:11:05.843Z</time></trkpt><trkpt lat="45.0655018" lon="9.2648883"><ele>86.85714285714286</ele><time>2026-04-11T11:11:06.844Z</time></trkpt><trkpt lat="45.0654417" lon="9.2648259"><ele>87.28571428571428</ele><time>2026-04-11T11:11:07.844Z</time></trkpt><trkpt lat="45.0653832" lon="9.2647684"><ele>87.71428571428572</ele><time>2026-04-11T11:11:08.844Z</time></trkpt><trkpt lat="45.0653255" lon="9.2647166"><ele>88.14285714285714</ele><time>2026-04-11T11:11:09.844Z</time></trkpt><trkpt lat="45.0652599" lon="9.2646611"><ele>88.57142857142857</ele><time>2026-04-11T11:11:10.844Z</time></trkpt><trkpt lat="45.0651959" lon="9.2645925"><ele>89.0</ele><time>2026-04-11T11:11:11.844Z</time></trkpt><trkpt lat="45.0651403" lon="9.2645349"><ele>89.0</ele><time>2026-04-11T11:11:12.844Z</time></trkpt><trkpt lat="45.0650834" lon="9.2644865"><ele>89.0</ele><time>2026-04-11T11:11:13.844Z</time></trkpt><trkpt lat="45.0650264" lon="9.2644375"><ele>89.0</ele><time>2026-04-11T11:11:14.844Z</time></trkpt><trkpt lat="45.0649676" lon="9.2643908"><ele>89.0</ele><time>2026-04-11T11:11:15.844Z</time></trkpt><trkpt lat="45.0648716" lon="9.2643042"><ele>89.0</ele><time>2026-04-11T11:11:17.844Z</time></trkpt><trkpt lat="45.0647989" lon="9.2642555"><ele>89.0</ele><time>2026-04-11T11:11:19.844Z</time></trkpt><trkpt lat="45.0647039" lon="9.264195"><ele>89.33333333333334</ele><time>2026-04-11T11:11:21.844Z</time></trkpt><trkpt lat="45.0646184" lon="9.2640779"><ele>89.66666666666667</ele><time>2026-04-11T11:11:23.844Z</time></trkpt><trkpt lat="45.0645573" lon="9.2640164"><ele>90.0</ele><time>2026-04-11T11:11:24.844Z</time></trkpt><trkpt lat="45.0645004" lon="9.2639655"><ele>90.33333333333333</ele><time>2026-04-11T11:11:25.844Z</time></trkpt><trkpt lat="45.0644324" lon="9.2639225"><ele>90.66666666666666</ele><time>2026-04-11T11:11:26.844Z</time></trkpt><trkpt lat="45.0643646" lon="9.2638821"><ele>91.0</ele><time>2026-04-11T11:11:27.844Z</time></trkpt><trkpt lat="45.0643034" lon="9.2638272"><ele>91.16666666666666</ele><time>2026-04-11T11:11:28.844Z</time></trkpt><trkpt lat="45.0642281" lon="9.263774"><ele>91.33333333333333</ele><time>2026-04-11T11:11:29.844Z</time></trkpt><trkpt lat="45.0641594" lon="9.2637147"><ele>91.5</ele><time>2026-04-11T11:11:30.844Z</time></trkpt><trkpt lat="45.0640901" lon="9.2636458"><ele>91.66666666666667</ele><time>2026-04-11T11:11:31.844Z</time></trkpt><trkpt lat="45.064028" lon="9.263562"><ele>91.83333333333334</ele><time>2026-04-11T11:11:32.844Z</time></trkpt><trkpt lat="45.0639644" lon="9.2634925"><ele>92.0</ele><time>2026-04-11T11:11:33.844Z</time></trkpt><trkpt lat="45.0638832" lon="9.2634204"><ele>92.0</ele><time>2026-04-11T11:11:34.844Z</time></trkpt><trkpt lat="45.0638055" lon="9.2633425"><ele>92.0</ele><time>2026-04-11T11:11:35.844Z</time></trkpt><trkpt lat="45.0637318" lon="9.2632729"><ele>92.0</ele><time>2026-04-11T11:11:36.844Z</time></trkpt><trkpt lat="45.0636455" lon="9.2632035"><ele>92.0</ele><time>2026-04-11T11:11:37.843Z</time></trkpt><trkpt lat="45.0635616" lon="9.2631409"><ele>92.0</ele><time>2026-04-11T11:11:38.844Z</time></trkpt><trkpt lat="45.0634815" lon="9.2630719"><ele>92.0</ele><time>2026-04-11T11:11:39.844Z</time></trkpt><trkpt lat="45.0634135" lon="9.2630053"><ele>92.0</ele><time>2026-04-11T11:11:40.844Z</time></trkpt><trkpt lat="45.063351" lon="9.2629491"><ele>92.0</ele><time>2026-04-11T11:11:41.844Z</time></trkpt><trkpt lat="45.0632922" lon="9.2628745"><ele>92.0</ele><time>2026-04-11T11:11:42.844Z</time></trkpt><trkpt lat="45.0632336" lon="9.2628087"><ele>92.0</ele><time>2026-04-11T11:11:43.843Z</time></trkpt><trkpt lat="45.0631792" lon="9.2627503"><ele>92.0</ele><time>2026-04-11T11:11:44.844Z</time></trkpt><trkpt lat="45.0630928" lon="9.2626595"><ele>92.39999999999999</ele><time>2026-04-11T11:11:46.844Z</time></trkpt><trkpt lat="45.0630015" lon="9.2625894"><ele>92.8</ele><time>2026-04-11T11:11:48.844Z</time></trkpt><trkpt lat="45.0629226" lon="9.2626911"><ele>93.2</ele><time>2026-04-11T11:11:51.844Z</time></trkpt><trkpt lat="45.0628348" lon="9.262858"><ele>93.6</ele><time>2026-04-11T11:11:53.845Z</time></trkpt><trkpt lat="45.0627806" lon="9.2629377"><ele>94.0</ele><time>2026-04-11T11:11:54.845Z</time></trkpt><trkpt lat="45.0627375" lon="9.2630123"><ele>94.0</ele><time>2026-04-11T11:11:55.845Z</time></trkpt><trkpt lat="45.0626718" lon="9.2631127"><ele>94.0</ele><time>2026-04-11T11:11:57.845Z</time></trkpt><trkpt lat="45.0625861" lon="9.2631003"><ele>94.0</ele><time>2026-04-11T11:12:00.845Z</time></trkpt><trkpt lat="45.0624749" lon="9.2632097"><ele>94.0</ele><time>2026-04-11T11:12:02.844Z</time></trkpt><trkpt lat="45.0624229" lon="9.2632943"><ele>94.0</ele><time>2026-04-11T11:12:04.845Z</time></trkpt><trkpt lat="45.0624533" lon="9.2633913"><ele>94.0</ele><time>2026-04-11T11:12:16.845Z</time></trkpt><trkpt lat="45.0625263" lon="9.2634349"><ele>94.0</ele><time>2026-04-11T11:12:19.845Z</time></trkpt><trkpt lat="45.0625871" lon="9.2633732"><ele>94.0</ele><time>2026-04-11T11:12:21.845Z</time></trkpt><trkpt lat="45.0626512" lon="9.263251"><ele>94.0</ele><time>2026-04-11T11:12:23.845Z</time></trkpt><trkpt lat="45.0627209" lon="9.263101"><ele>94.0</ele><time>2026-04-11T11:12:25.845Z</time></trkpt><trkpt lat="45.0627709" lon="9.2630203"><ele>94.0</ele><time>2026-04-11T11:12:26.845Z</time></trkpt><trkpt lat="45.0628106" lon="9.2629429"><ele>94.0</ele><time>2026-04-11T11:12:27.845Z</time></trkpt><trkpt lat="45.0628464" lon="9.262869"><ele>94.0</ele><time>2026-04-11T11:12:28.845Z</time></trkpt><trkpt lat="45.0628947" lon="9.2627695"><ele>94.0</ele><time>2026-04-11T11:12:30.845Z</time></trkpt><trkpt lat="45.062906" lon="9.2626791"><ele>94.0</ele><time>2026-04-11T11:12:35.845Z</time></trkpt><trkpt lat="45.062938" lon="9.2625985"><ele>94.0</ele><time>2026-04-11T11:12:48.846Z</time></trkpt><trkpt lat="45.0629173" lon="9.2625074"><ele>94.0</ele><time>2026-04-11T11:12:52.845Z</time></trkpt><trkpt lat="45.0628232" lon="9.2624529"><ele>94.0</ele><time>2026-04-11T11:12:54.846Z</time></trkpt><trkpt lat="45.0627313" lon="9.262338"><ele>94.0</ele><time>2026-04-11T11:12:56.845Z</time></trkpt><trkpt lat="45.0626784" lon="9.2622648"><ele>94.0</ele><time>2026-04-11T11:12:57.846Z</time></trkpt><trkpt lat="45.0626266" lon="9.2622032"><ele>94.0</ele><time>2026-04-11T11:12:58.846Z</time></trkpt><trkpt lat="45.0625567" lon="9.2620972"><ele>94.0</ele><time>2026-04-11T11:13:00.846Z</time></trkpt><trkpt lat="45.0624728" lon="9.2620043"><ele>93.33333333333333</ele><time>2026-04-11T11:13:02.846Z</time></trkpt><trkpt lat="45.0624033" lon="9.261915"><ele>92.66666666666666</ele><time>2026-04-11T11:13:04.846Z</time></trkpt><trkpt lat="45.0623427" lon="9.2618459"><ele>92.0</ele><time>2026-04-11T11:13:05.846Z</time></trkpt><trkpt lat="45.0622852" lon="9.261763"><ele>91.33333333333333</ele><time>2026-04-11T11:13:06.846Z</time></trkpt><trkpt lat="45.0622414" lon="9.2616749"><ele>90.66666666666667</ele><time>2026-04-11T11:13:07.846Z</time></trkpt><trkpt lat="45.0621994" lon="9.2615951"><ele>90.0</ele><time>2026-04-11T11:13:08.846Z</time></trkpt><trkpt lat="45.0621604" lon="9.2615014"><ele>89.83333333333333</ele><time>2026-04-11T11:13:09.846Z</time></trkpt><trkpt lat="45.0621306" lon="9.2614102"><ele>89.66666666666667</ele><time>2026-04-11T11:13:10.846Z</time></trkpt><trkpt lat="45.0621006" lon="9.2613227"><ele>89.5</ele><time>2026-04-11T11:13:11.845Z</time></trkpt><trkpt lat="45.0620475" lon="9.2611751"><ele>89.33333333333334</ele><time>2026-04-11T11:13:13.846Z</time></trkpt><trkpt lat="45.0620411" lon="9.2610709"><ele>89.16666666666667</ele><time>2026-04-11T11:13:15.845Z</time></trkpt><trkpt lat="45.0620425" lon="9.2609504"><ele>89.0</ele><time>2026-04-11T11:13:17.846Z</time></trkpt><trkpt lat="45.0619864" lon="9.2608516"><ele>88.99999999999999</ele><time>2026-04-11T11:13:19.846Z</time></trkpt><trkpt lat="45.0619122" lon="9.2608989"><ele>89.0</ele><time>2026-04-11T11:13:22.846Z</time></trkpt><trkpt lat="45.0618625" lon="9.2609713"><ele>89.0</ele><time>2026-04-11T11:13:23.846Z</time></trkpt><trkpt lat="45.0618108" lon="9.261036"><ele>89.0</ele><time>2026-04-11T11:13:24.846Z</time></trkpt><trkpt lat="45.0617538" lon="9.2610816"><ele>89.0</ele><time>2026-04-11T11:13:25.847Z</time></trkpt><trkpt lat="45.0616965" lon="9.2611376"><ele>88.99999999999999</ele><time>2026-04-11T11:13:26.846Z</time></trkpt><trkpt lat="45.0616308" lon="9.2612076"><ele>89.0</ele><time>2026-04-11T11:13:27.847Z</time></trkpt><trkpt lat="45.0615585" lon="9.2612397"><ele>88.6</ele><time>2026-04-11T11:13:28.847Z</time></trkpt><trkpt lat="45.0614736" lon="9.2612294"><ele>88.2</ele><time>2026-04-11T11:13:29.846Z</time></trkpt><trkpt lat="45.0613868" lon="9.2612173"><ele>87.8</ele><time>2026-04-11T11:13:30.847Z</time></trkpt><trkpt lat="45.0612923" lon="9.2612263"><ele>87.39999999999999</ele><time>2026-04-11T11:13:31.847Z</time></trkpt><trkpt lat="45.0611962" lon="9.2612506"><ele>87.0</ele><time>2026-04-11T11:13:32.847Z</time></trkpt><trkpt lat="45.0611037" lon="9.2612525"><ele>87.0</ele><time>2026-04-11T11:13:33.847Z</time></trkpt><trkpt lat="45.0610045" lon="9.2612472"><ele>87.0</ele><time>2026-04-11T11:13:34.847Z</time></trkpt><trkpt lat="45.0609067" lon="9.2612328"><ele>87.0</ele><time>2026-04-11T11:13:35.847Z</time></trkpt><trkpt lat="45.0608201" lon="9.2612347"><ele>87.0</ele><time>2026-04-11T11:13:36.847Z</time></trkpt><trkpt lat="45.0607438" lon="9.2612137"><ele>87.0</ele><time>2026-04-11T11:13:37.847Z</time></trkpt><trkpt lat="45.0606651" lon="9.2612165"><ele>87.0</ele><time>2026-04-11T11:13:38.847Z</time></trkpt><trkpt lat="45.0605907" lon="9.2612215"><ele>87.0</ele><time>2026-04-11T11:13:39.846Z</time></trkpt><trkpt lat="45.0605196" lon="9.2612213"><ele>87.0</ele><time>2026-04-11T11:13:40.847Z</time></trkpt><trkpt lat="45.0603668" lon="9.2612144"><ele>87.0</ele><time>2026-04-11T11:13:42.846Z</time></trkpt><trkpt lat="45.0602707" lon="9.2612071"><ele>87.0</ele><time>2026-04-11T11:13:43.847Z</time></trkpt><trkpt lat="45.0601754" lon="9.2611896"><ele>87.0</ele><time>2026-04-11T11:13:44.847Z</time></trkpt><trkpt lat="45.0600735" lon="9.2611724"><ele>87.0</ele><time>2026-04-11T11:13:45.847Z</time></trkpt><trkpt lat="45.0599625" lon="9.2611465"><ele>87.0</ele><time>2026-04-11T11:13:46.847Z</time></trkpt><trkpt lat="45.0598604" lon="9.2610969"><ele>87.0</ele><time>2026-04-11T11:13:47.846Z</time></trkpt><trkpt lat="45.0597535" lon="9.2610748"><ele>87.0</ele><time>2026-04-11T11:13:48.847Z</time></trkpt><trkpt lat="45.059644" lon="9.2610737"><ele>87.0</ele><time>2026-04-11T11:13:49.847Z</time></trkpt><trkpt lat="45.0595488" lon="9.2610426"><ele>87.33333333333333</ele><time>2026-04-11T11:13:50.847Z</time></trkpt><trkpt lat="45.0594606" lon="9.261031"><ele>87.66666666666667</ele><time>2026-04-11T11:13:51.847Z</time></trkpt><trkpt lat="45.0593836" lon="9.2610036"><ele>88.0</ele><time>2026-04-11T11:13:52.847Z</time></trkpt><trkpt lat="45.0593093" lon="9.2609631"><ele>88.33333333333334</ele><time>2026-04-11T11:13:53.847Z</time></trkpt><trkpt lat="45.0592451" lon="9.2609361"><ele>88.66666666666667</ele><time>2026-04-11T11:13:54.847Z</time></trkpt><trkpt lat="45.0591819" lon="9.2609132"><ele>89.0</ele><time>2026-04-11T11:13:55.847Z</time></trkpt><trkpt lat="45.0590789" lon="9.2608534"><ele>89.16666666666667</ele><time>2026-04-11T11:13:57.847Z</time></trkpt><trkpt lat="45.0590017" lon="9.2607845"><ele>89.33333333333334</ele><time>2026-04-11T11:13:59.847Z</time></trkpt><trkpt lat="45.058963" lon="9.2606917"><ele>89.5</ele><time>2026-04-11T11:14:01.847Z</time></trkpt><trkpt lat="45.0589172" lon="9.2606072"><ele>89.66666666666667</ele><time>2026-04-11T11:14:03.847Z</time></trkpt><trkpt lat="45.0588263" lon="9.2605888"><ele>89.83333333333333</ele><time>2026-04-11T11:14:05.847Z</time></trkpt><trkpt lat="45.0587376" lon="9.260529"><ele>90.0</ele><time>2026-04-11T11:14:07.847Z</time></trkpt><trkpt lat="45.0586843" lon="9.2604378"><ele>90.0</ele><time>2026-04-11T11:14:08.847Z</time></trkpt><trkpt lat="45.0586246" lon="9.2603622"><ele>90.0</ele><time>2026-04-11T11:14:09.846Z</time></trkpt><trkpt lat="45.0585572" lon="9.2602785"><ele>90.0</ele><time>2026-04-11T11:14:10.847Z</time></trkpt><trkpt lat="45.0584813" lon="9.2601991"><ele>90.0</ele><time>2026-04-11T11:14:11.847Z</time></trkpt><trkpt lat="45.0584006" lon="9.2601111"><ele>90.0</ele><time>2026-04-11T11:14:12.847Z</time></trkpt><trkpt lat="45.0583236" lon="9.2600245"><ele>89.8</ele><time>2026-04-11T11:14:13.847Z</time></trkpt><trkpt lat="45.0582426" lon="9.2599162"><ele>89.6</ele><time>2026-04-11T11:14:14.847Z</time></trkpt><trkpt lat="45.0581715" lon="9.2597996"><ele>89.4</ele><time>2026-04-11T11:14:15.848Z</time></trkpt><trkpt lat="45.0580851" lon="9.2596892"><ele>89.2</ele><time>2026-04-11T11:14:16.847Z</time></trkpt><trkpt lat="45.0580236" lon="9.2595694"><ele>89.0</ele><time>2026-04-11T11:14:17.848Z</time></trkpt><trkpt lat="45.0579557" lon="9.2594511"><ele>89.0</ele><time>2026-04-11T11:14:18.848Z</time></trkpt><trkpt lat="45.0578999" lon="9.2593388"><ele>89.0</ele><time>2026-04-11T11:14:19.847Z</time></trkpt><trkpt lat="45.0578349" lon="9.2592353"><ele>89.0</ele><time>2026-04-11T11:14:20.848Z</time></trkpt><trkpt lat="45.0577687" lon="9.2591446"><ele>89.0</ele><time>2026-04-11T11:14:21.848Z</time></trkpt><trkpt lat="45.0577104" lon="9.2590445"><ele>89.0</ele><time>2026-04-11T11:14:22.848Z</time></trkpt><trkpt lat="45.0576533" lon="9.2589324"><ele>88.6</ele><time>2026-04-11T11:14:23.847Z</time></trkpt><trkpt lat="45.0575926" lon="9.258836"><ele>88.2</ele><time>2026-04-11T11:14:24.847Z</time></trkpt><trkpt lat="45.057533" lon="9.258739"><ele>87.8</ele><time>2026-04-11T11:14:25.848Z</time></trkpt><trkpt lat="45.0574623" lon="9.2586435"><ele>87.39999999999999</ele><time>2026-04-11T11:14:26.848Z</time></trkpt><trkpt lat="45.0573958" lon="9.2585416"><ele>87.0</ele><time>2026-04-11T11:14:27.848Z</time></trkpt><trkpt lat="45.0573213" lon="9.2584508"><ele>87.39999999999999</ele><time>2026-04-11T11:14:28.848Z</time></trkpt><trkpt lat="45.057246" lon="9.2583477"><ele>87.8</ele><time>2026-04-11T11:14:29.848Z</time></trkpt><trkpt lat="45.0571676" lon="9.2582513"><ele>88.2</ele><time>2026-04-11T11:14:30.848Z</time></trkpt><trkpt lat="45.0570787" lon="9.2581641"><ele>88.6</ele><time>2026-04-11T11:14:31.848Z</time></trkpt><trkpt lat="45.0569969" lon="9.2580805"><ele>89.0</ele><time>2026-04-11T11:14:32.848Z</time></trkpt><trkpt lat="45.0569196" lon="9.2580237"><ele>89.0</ele><time>2026-04-11T11:14:33.848Z</time></trkpt><trkpt lat="45.0568545" lon="9.2579678"><ele>89.0</ele><time>2026-04-11T11:14:34.848Z</time></trkpt><trkpt lat="45.0567861" lon="9.2579117"><ele>89.0</ele><time>2026-04-11T11:14:35.848Z</time></trkpt><trkpt lat="45.0567128" lon="9.2578566"><ele>89.0</ele><time>2026-04-11T11:14:36.848Z</time></trkpt><trkpt lat="45.0566358" lon="9.2577968"><ele>89.0</ele><time>2026-04-11T11:14:37.848Z</time></trkpt><trkpt lat="45.056557" lon="9.2577281"><ele>89.0</ele><time>2026-04-11T11:14:38.848Z</time></trkpt><trkpt lat="45.056481" lon="9.257632"><ele>88.80000000000001</ele><time>2026-04-11T11:14:39.848Z</time></trkpt><trkpt lat="45.0564178" lon="9.2575583"><ele>88.60000000000001</ele><time>2026-04-11T11:14:40.847Z</time></trkpt><trkpt lat="45.0563315" lon="9.257467"><ele>88.4</ele><time>2026-04-11T11:14:41.848Z</time></trkpt><trkpt lat="45.0562258" lon="9.2573858"><ele>88.2</ele><time>2026-04-11T11:14:42.847Z</time></trkpt><trkpt lat="45.056112" lon="9.2573055"><ele>88.0</ele><time>2026-04-11T11:14:43.848Z</time></trkpt><trkpt lat="45.0560041" lon="9.2572376"><ele>88.0</ele><time>2026-04-11T11:14:44.848Z</time></trkpt><trkpt lat="45.0559117" lon="9.2571599"><ele>88.0</ele><time>2026-04-11T11:14:45.848Z</time></trkpt><trkpt lat="45.0558309" lon="9.2570902"><ele>88.0</ele><time>2026-04-11T11:14:46.848Z</time></trkpt><trkpt lat="45.0557678" lon="9.2570444"><ele>88.0</ele><time>2026-04-11T11:14:47.848Z</time></trkpt><trkpt lat="45.0556833" lon="9.2569471"><ele>88.0</ele><time>2026-04-11T11:14:49.848Z</time></trkpt><trkpt lat="45.0556122" lon="9.256834"><ele>88.16666666666666</ele><time>2026-04-11T11:14:51.848Z</time></trkpt><trkpt lat="45.0555392" lon="9.2568248"><ele>88.33333333333333</ele><time>2026-04-11T11:14:52.847Z</time></trkpt><trkpt lat="45.0554613" lon="9.2568548"><ele>88.5</ele><time>2026-04-11T11:14:53.848Z</time></trkpt><trkpt lat="45.0553793" lon="9.2568791"><ele>88.66666666666667</ele><time>2026-04-11T11:14:54.848Z</time></trkpt><trkpt lat="45.0552805" lon="9.2568496"><ele>88.83333333333334</ele><time>2026-04-11T11:14:55.848Z</time></trkpt><trkpt lat="45.055177" lon="9.2568036"><ele>89.0</ele><time>2026-04-11T11:14:56.848Z</time></trkpt><trkpt lat="45.0550759" lon="9.2567579"><ele>89.0</ele><time>2026-04-11T11:14:57.848Z</time></trkpt><trkpt lat="45.0549647" lon="9.2567036"><ele>89.0</ele><time>2026-04-11T11:14:58.848Z</time></trkpt><trkpt lat="45.0548426" lon="9.2566585"><ele>89.0</ele><time>2026-04-11T11:14:59.848Z</time></trkpt><trkpt lat="45.054721" lon="9.2566212"><ele>89.0</ele><time>2026-04-11T11:15:00.848Z</time></trkpt><trkpt lat="45.0545955" lon="9.2565771"><ele>89.0</ele><time>2026-04-11T11:15:01.847Z</time></trkpt><trkpt lat="45.0544718" lon="9.2565314"><ele>89.0</ele><time>2026-04-11T11:15:02.849Z</time></trkpt><trkpt lat="45.0543507" lon="9.256474"><ele>89.0</ele><time>2026-04-11T11:15:03.849Z</time></trkpt><trkpt lat="45.0542271" lon="9.2564214"><ele>89.0</ele><time>2026-04-11T11:15:04.848Z</time></trkpt><trkpt lat="45.0541098" lon="9.2563518"><ele>89.25</ele><time>2026-04-11T11:15:05.849Z</time></trkpt><trkpt lat="45.054005" lon="9.256273"><ele>89.5</ele><time>2026-04-11T11:15:06.848Z</time></trkpt><trkpt lat="45.0539085" lon="9.2561922"><ele>89.75</ele><time>2026-04-11T11:15:07.849Z</time></trkpt><trkpt lat="45.0538073" lon="9.2561156"><ele>90.0</ele><time>2026-04-11T11:15:08.849Z</time></trkpt><trkpt lat="45.0537116" lon="9.2560389"><ele>90.0</ele><time>2026-04-11T11:15:09.849Z</time></trkpt><trkpt lat="45.0536159" lon="9.2559605"><ele>90.0</ele><time>2026-04-11T11:15:10.849Z</time></trkpt><trkpt lat="45.0535205" lon="9.2558922"><ele>90.0</ele><time>2026-04-11T11:15:11.849Z</time></trkpt><trkpt lat="45.0534231" lon="9.2558276"><ele>90.0</ele><time>2026-04-11T11:15:12.849Z</time></trkpt><trkpt lat="45.0533259" lon="9.2557651"><ele>90.0</ele><time>2026-04-11T11:15:13.849Z</time></trkpt><trkpt lat="45.0532209" lon="9.2557086"><ele>90.0</ele><time>2026-04-11T11:15:14.849Z</time></trkpt><trkpt lat="45.0531133" lon="9.2556504"><ele>90.0</ele><time>2026-04-11T11:15:15.849Z</time></trkpt><trkpt lat="45.0529997" lon="9.2555919"><ele>90.0</ele><time>2026-04-11T11:15:16.849Z</time></trkpt><trkpt lat="45.0528745" lon="9.255521"><ele>90.0</ele><time>2026-04-11T11:15:17.849Z</time></trkpt><trkpt lat="45.0527549" lon="9.2554626"><ele>90.0</ele><time>2026-04-11T11:15:18.849Z</time></trkpt><trkpt lat="45.0526278" lon="9.2554101"><ele>90.0</ele><time>2026-04-11T11:15:19.849Z</time></trkpt><trkpt lat="45.0524932" lon="9.255374"><ele>90.0</ele><time>2026-04-11T11:15:20.849Z</time></trkpt><trkpt lat="45.0523542" lon="9.2553432"><ele>90.0</ele><time>2026-04-11T11:15:21.849Z</time></trkpt><trkpt lat="45.0522136" lon="9.2553216"><ele>89.5</ele><time>2026-04-11T11:15:22.849Z</time></trkpt><trkpt lat="45.0520817" lon="9.2552955"><ele>89.0</ele><time>2026-04-11T11:15:23.849Z</time></trkpt><trkpt lat="45.0519593" lon="9.2552611"><ele>88.5</ele><time>2026-04-11T11:15:24.849Z</time></trkpt><trkpt lat="45.0518351" lon="9.2552489"><ele>88.0</ele><time>2026-04-11T11:15:25.849Z</time></trkpt><trkpt lat="45.0517202" lon="9.2552373"><ele>88.25</ele><time>2026-04-11T11:15:26.849Z</time></trkpt><trkpt lat="45.0516047" lon="9.2552224"><ele>88.5</ele><time>2026-04-11T11:15:27.849Z</time></trkpt><trkpt lat="45.051482" lon="9.2552073"><ele>88.75</ele><time>2026-04-11T11:15:28.849Z</time></trkpt><trkpt lat="45.0513464" lon="9.2551917"><ele>89.0</ele><time>2026-04-11T11:15:29.849Z</time></trkpt><trkpt lat="45.0512079" lon="9.2551623"><ele>89.0</ele><time>2026-04-11T11:15:30.849Z</time></trkpt><trkpt lat="45.0510617" lon="9.2551344"><ele>89.0</ele><time>2026-04-11T11:15:31.849Z</time></trkpt><trkpt lat="45.0509082" lon="9.2551096"><ele>89.0</ele><time>2026-04-11T11:15:32.849Z</time></trkpt><trkpt lat="45.0507549" lon="9.2550806"><ele>88.75</ele><time>2026-04-11T11:15:33.848Z</time></trkpt><trkpt lat="45.0506097" lon="9.2550471"><ele>88.5</ele><time>2026-04-11T11:15:34.848Z</time></trkpt><trkpt lat="45.050482" lon="9.255019"><ele>88.25</ele><time>2026-04-11T11:15:35.849Z</time></trkpt><trkpt lat="45.050363" lon="9.2549925"><ele>88.0</ele><time>2026-04-11T11:15:36.849Z</time></trkpt><trkpt lat="45.0502459" lon="9.2549724"><ele>88.0</ele><time>2026-04-11T11:15:37.849Z</time></trkpt><trkpt lat="45.0501429" lon="9.254958"><ele>88.0</ele><time>2026-04-11T11:15:38.849Z</time></trkpt><trkpt lat="45.050049" lon="9.2549428"><ele>88.0</ele><time>2026-04-11T11:15:39.849Z</time></trkpt><trkpt lat="45.0499547" lon="9.2549205"><ele>88.0</ele><time>2026-04-11T11:15:40.849Z</time></trkpt><trkpt lat="45.0498599" lon="9.2549049"><ele>88.0</ele><time>2026-04-11T11:15:41.849Z</time></trkpt><trkpt lat="45.0497619" lon="9.2548851"><ele>88.60000000000001</ele><time>2026-04-11T11:15:42.849Z</time></trkpt><trkpt lat="45.049656" lon="9.2548886"><ele>89.2</ele><time>2026-04-11T11:15:43.849Z</time></trkpt><trkpt lat="45.0495519" lon="9.2549044"><ele>89.8</ele><time>2026-04-11T11:15:44.849Z</time></trkpt><trkpt lat="45.0494464" lon="9.2549437"><ele>90.4</ele><time>2026-04-11T11:15:45.849Z</time></trkpt><trkpt lat="45.0493368" lon="9.2550123"><ele>91.0</ele><time>2026-04-11T11:15:46.849Z</time></trkpt><trkpt lat="45.0492256" lon="9.2550789"><ele>92.5</ele><time>2026-04-11T11:15:47.849Z</time></trkpt><trkpt lat="45.0490984" lon="9.2551505"><ele>94.0</ele><time>2026-04-11T11:15:48.849Z</time></trkpt><trkpt lat="45.0489768" lon="9.2552262"><ele>95.5</ele><time>2026-04-11T11:15:49.848Z</time></trkpt><trkpt lat="45.0488511" lon="9.2552978"><ele>97.0</ele><time>2026-04-11T11:15:50.849Z</time></trkpt><trkpt lat="45.0487151" lon="9.2553733"><ele>97.0</ele><time>2026-04-11T11:15:51.85Z</time></trkpt><trkpt lat="45.048578" lon="9.2554402"><ele>97.0</ele><time>2026-04-11T11:15:52.849Z</time></trkpt><trkpt lat="45.0484539" lon="9.2555061"><ele>97.0</ele><time>2026-04-11T11:15:53.849Z</time></trkpt><trkpt lat="45.0483391" lon="9.2555756"><ele>97.0</ele><time>2026-04-11T11:15:54.849Z</time></trkpt><trkpt lat="45.0482328" lon="9.2556295"><ele>96.8</ele><time>2026-04-11T11:15:55.85Z</time></trkpt><trkpt lat="45.0481313" lon="9.2556777"><ele>96.6</ele><time>2026-04-11T11:15:56.85Z</time></trkpt><trkpt lat="45.0480351" lon="9.2557276"><ele>96.39999999999999</ele><time>2026-04-11T11:15:57.85Z</time></trkpt><trkpt lat="45.0479424" lon="9.2557751"><ele>96.19999999999999</ele><time>2026-04-11T11:15:58.85Z</time></trkpt><trkpt lat="45.0478452" lon="9.2558291"><ele>96.0</ele><time>2026-04-11T11:15:59.849Z</time></trkpt><trkpt lat="45.0477373" lon="9.2558793"><ele>96.0</ele><time>2026-04-11T11:16:00.85Z</time></trkpt><trkpt lat="45.0476201" lon="9.255927"><ele>96.0</ele><time>2026-04-11T11:16:01.85Z</time></trkpt><trkpt lat="45.0475049" lon="9.2559907"><ele>96.0</ele><time>2026-04-11T11:16:02.85Z</time></trkpt><trkpt lat="45.0473892" lon="9.2560514"><ele>96.0</ele><time>2026-04-11T11:16:03.85Z</time></trkpt><trkpt lat="45.0472661" lon="9.2561178"><ele>97.75</ele><time>2026-04-11T11:16:04.85Z</time></trkpt><trkpt lat="45.0471341" lon="9.2561841"><ele>99.5</ele><time>2026-04-11T11:16:05.849Z</time></trkpt><trkpt lat="45.0470016" lon="9.2562384"><ele>101.25</ele><time>2026-04-11T11:16:06.85Z</time></trkpt><trkpt lat="45.04686" lon="9.2563155"><ele>103.0</ele><time>2026-04-11T11:16:07.85Z</time></trkpt><trkpt lat="45.0467114" lon="9.2563925"><ele>102.0</ele><time>2026-04-11T11:16:08.85Z</time></trkpt><trkpt lat="45.0465565" lon="9.2564653"><ele>101.0</ele><time>2026-04-11T11:16:09.849Z</time></trkpt><trkpt lat="45.0463989" lon="9.2565378"><ele>100.0</ele><time>2026-04-11T11:16:10.85Z</time></trkpt><trkpt lat="45.0462354" lon="9.2566174"><ele>100.0</ele><time>2026-04-11T11:16:11.85Z</time></trkpt><trkpt lat="45.046071" lon="9.2567013"><ele>100.0</ele><time>2026-04-11T11:16:12.85Z</time></trkpt><trkpt lat="45.0459075" lon="9.2567916"><ele>100.0</ele><time>2026-04-11T11:16:13.85Z</time></trkpt><trkpt lat="45.0457589" lon="9.2568708"><ele>101.25</ele><time>2026-04-11T11:16:14.85Z</time></trkpt><trkpt lat="45.0456136" lon="9.2569482"><ele>102.5</ele><time>2026-04-11T11:16:15.85Z</time></trkpt><trkpt lat="45.0454854" lon="9.2570165"><ele>103.75</ele><time>2026-04-11T11:16:16.85Z</time></trkpt><trkpt lat="45.045364" lon="9.2570777"><ele>105.0</ele><time>2026-04-11T11:16:17.85Z</time></trkpt><trkpt lat="45.0452512" lon="9.2571324"><ele>105.0</ele><time>2026-04-11T11:16:18.85Z</time></trkpt><trkpt lat="45.0451489" lon="9.2571956"><ele>105.0</ele><time>2026-04-11T11:16:19.85Z</time></trkpt><trkpt lat="45.0450456" lon="9.2572443"><ele>105.0</ele><time>2026-04-11T11:16:20.85Z</time></trkpt><trkpt lat="45.0449428" lon="9.2572966"><ele>105.0</ele><time>2026-04-11T11:16:21.85Z</time></trkpt><trkpt lat="45.0448359" lon="9.257345"><ele>105.0</ele><time>2026-04-11T11:16:22.85Z</time></trkpt><trkpt lat="45.0447262" lon="9.2574036"><ele>103.75</ele><time>2026-04-11T11:16:23.85Z</time></trkpt><trkpt lat="45.044622" lon="9.2574627"><ele>102.5</ele><time>2026-04-11T11:16:24.849Z</time></trkpt><trkpt lat="45.0445152" lon="9.2575286"><ele>101.25</ele><time>2026-04-11T11:16:25.85Z</time></trkpt><trkpt lat="45.0444015" lon="9.2576084"><ele>100.0</ele><time>2026-04-11T11:16:26.85Z</time></trkpt><trkpt lat="45.0442851" lon="9.2577005"><ele>100.0</ele><time>2026-04-11T11:16:27.85Z</time></trkpt><trkpt lat="45.0441629" lon="9.2577978"><ele>100.0</ele><time>2026-04-11T11:16:28.85Z</time></trkpt><trkpt lat="45.0440309" lon="9.2578934"><ele>100.0</ele><time>2026-04-11T11:16:29.849Z</time></trkpt><trkpt lat="45.0438928" lon="9.2579983"><ele>100.0</ele><time>2026-04-11T11:16:30.849Z</time></trkpt><trkpt lat="45.0437527" lon="9.2581099"><ele>99.0</ele><time>2026-04-11T11:16:31.85Z</time></trkpt><trkpt lat="45.0436139" lon="9.2582281"><ele>98.0</ele><time>2026-04-11T11:16:32.849Z</time></trkpt><trkpt lat="45.04347" lon="9.2583498"><ele>97.0</ele><time>2026-04-11T11:16:33.849Z</time></trkpt><trkpt lat="45.0433186" lon="9.258467"><ele>96.66666666666667</ele><time>2026-04-11T11:16:34.849Z</time></trkpt><trkpt lat="45.0431652" lon="9.2585913"><ele>96.33333333333334</ele><time>2026-04-11T11:16:35.85Z</time></trkpt><trkpt lat="45.0430114" lon="9.2587231"><ele>96.0</ele><time>2026-04-11T11:16:36.85Z</time></trkpt><trkpt lat="45.042856" lon="9.2588531"><ele>96.0</ele><time>2026-04-11T11:16:37.85Z</time></trkpt><trkpt lat="45.0426972" lon="9.2589786"><ele>96.0</ele><time>2026-04-11T11:16:38.85Z</time></trkpt><trkpt lat="45.0425397" lon="9.2591056"><ele>96.0</ele><time>2026-04-11T11:16:39.85Z</time></trkpt><trkpt lat="45.0423808" lon="9.2592279"><ele>96.66666666666666</ele><time>2026-04-11T11:16:40.851Z</time></trkpt><trkpt lat="45.0422074" lon="9.2593333"><ele>97.33333333333333</ele><time>2026-04-11T11:16:41.851Z</time></trkpt><trkpt lat="45.0420312" lon="9.2594083"><ele>98.0</ele><time>2026-04-11T11:16:42.851Z</time></trkpt><trkpt lat="45.041858" lon="9.2594562"><ele>98.0</ele><time>2026-04-11T11:16:43.851Z</time></trkpt><trkpt lat="45.041714" lon="9.2595176"><ele>98.0</ele><time>2026-04-11T11:16:44.851Z</time></trkpt><trkpt lat="45.0415612" lon="9.259519"><ele>98.0</ele><time>2026-04-11T11:16:45.851Z</time></trkpt><trkpt lat="45.0414361" lon="9.2595081"><ele>98.0</ele><time>2026-04-11T11:16:46.851Z</time></trkpt><trkpt lat="45.0413343" lon="9.2594945"><ele>97.99999999999999</ele><time>2026-04-11T11:16:47.851Z</time></trkpt><trkpt lat="45.0412628" lon="9.2594833"><ele>98.0</ele><time>2026-04-11T11:16:48.851Z</time></trkpt><trkpt lat="45.0411898" lon="9.2594775"><ele>98.0</ele><time>2026-04-11T11:16:50.851Z</time></trkpt><trkpt lat="45.0410979" lon="9.259492"><ele>98.0</ele><time>2026-04-11T11:16:54.851Z</time></trkpt><trkpt lat="45.04103" lon="9.2594899"><ele>97.99999999999999</ele><time>2026-04-11T11:16:55.85Z</time></trkpt><trkpt lat="45.040944" lon="9.2594738"><ele>98.0</ele><time>2026-04-11T11:16:56.851Z</time></trkpt><trkpt lat="45.0408496" lon="9.2594371"><ele>98.5</ele><time>2026-04-11T11:16:57.851Z</time></trkpt><trkpt lat="45.0407481" lon="9.259389"><ele>99.0</ele><time>2026-04-11T11:16:58.851Z</time></trkpt><trkpt lat="45.0406258" lon="9.2593502"><ele>99.5</ele><time>2026-04-11T11:16:59.851Z</time></trkpt><trkpt lat="45.0404974" lon="9.2592984"><ele>100.0</ele><time>2026-04-11T11:17:00.851Z</time></trkpt><trkpt lat="45.040362" lon="9.2592403"><ele>100.0</ele><time>2026-04-11T11:17:01.851Z</time></trkpt><trkpt lat="45.0402154" lon="9.2591833"><ele>100.0</ele><time>2026-04-11T11:17:02.851Z</time></trkpt><trkpt lat="45.0400623" lon="9.2591351"><ele>100.0</ele><time>2026-04-11T11:17:03.85Z</time></trkpt><trkpt lat="45.0399231" lon="9.2590999"><ele>100.5</ele><time>2026-04-11T11:17:04.85Z</time></trkpt><trkpt lat="45.0398014" lon="9.2590773"><ele>101.0</ele><time>2026-04-11T11:17:05.85Z</time></trkpt><trkpt lat="45.0396844" lon="9.2590568"><ele>101.5</ele><time>2026-04-11T11:17:06.851Z</time></trkpt><trkpt lat="45.0395697" lon="9.2590402"><ele>102.0</ele><time>2026-04-11T11:17:07.851Z</time></trkpt><trkpt lat="45.039456" lon="9.259023"><ele>102.0</ele><time>2026-04-11T11:17:08.851Z</time></trkpt><trkpt lat="45.039336" lon="9.2590016"><ele>102.0</ele><time>2026-04-11T11:17:09.851Z</time></trkpt><trkpt lat="45.0392078" lon="9.2589836"><ele>102.0</ele><time>2026-04-11T11:17:10.851Z</time></trkpt><trkpt lat="45.0390667" lon="9.2589716"><ele>102.0</ele><time>2026-04-11T11:17:11.851Z</time></trkpt><trkpt lat="45.0389121" lon="9.2589734"><ele>102.0</ele><time>2026-04-11T11:17:12.851Z</time></trkpt><trkpt lat="45.0387452" lon="9.2589809"><ele>102.0</ele><time>2026-04-11T11:17:13.851Z</time></trkpt><trkpt lat="45.0385752" lon="9.2589847"><ele>102.0</ele><time>2026-04-11T11:17:14.851Z</time></trkpt><trkpt lat="45.0384148" lon="9.2589901"><ele>102.33333333333334</ele><time>2026-04-11T11:17:15.851Z</time></trkpt><trkpt lat="45.038246" lon="9.2589901"><ele>102.66666666666667</ele><time>2026-04-11T11:17:16.851Z</time></trkpt><trkpt lat="45.0380759" lon="9.2589896"><ele>103.0</ele><time>2026-04-11T11:17:17.851Z</time></trkpt><trkpt lat="45.0379015" lon="9.2589743"><ele>104.33333333333334</ele><time>2026-04-11T11:17:18.85Z</time></trkpt><trkpt lat="45.0377142" lon="9.2589211"><ele>105.66666666666666</ele><time>2026-04-11T11:17:19.851Z</time></trkpt><trkpt lat="45.0375191" lon="9.2588719"><ele>107.0</ele><time>2026-04-11T11:17:20.85Z</time></trkpt><trkpt lat="45.037317" lon="9.2588184"><ele>107.66666666666666</ele><time>2026-04-11T11:17:21.851Z</time></trkpt><trkpt lat="45.0371096" lon="9.2587725"><ele>108.33333333333334</ele><time>2026-04-11T11:17:22.85Z</time></trkpt><trkpt lat="45.0369077" lon="9.2587341"><ele>109.0</ele><time>2026-04-11T11:17:23.851Z</time></trkpt><trkpt lat="45.0367102" lon="9.2586872"><ele>108.33333333333334</ele><time>2026-04-11T11:17:24.851Z</time></trkpt><trkpt lat="45.0365277" lon="9.2586585"><ele>107.66666666666666</ele><time>2026-04-11T11:17:25.851Z</time></trkpt><trkpt lat="45.0363511" lon="9.2586171"><ele>107.0</ele><time>2026-04-11T11:17:26.85Z</time></trkpt><trkpt lat="45.0361794" lon="9.25855"><ele>107.0</ele><time>2026-04-11T11:17:27.851Z</time></trkpt><trkpt lat="45.036012" lon="9.2584566"><ele>107.0</ele><time>2026-04-11T11:17:28.852Z</time></trkpt><trkpt lat="45.0358487" lon="9.2583498"><ele>107.0</ele><time>2026-04-11T11:17:29.852Z</time></trkpt><trkpt lat="45.0356795" lon="9.2582274"><ele>108.0</ele><time>2026-04-11T11:17:30.852Z</time></trkpt><trkpt lat="45.0355028" lon="9.2581062"><ele>109.0</ele><time>2026-04-11T11:17:31.852Z</time></trkpt><trkpt lat="45.0353249" lon="9.2579846"><ele>110.0</ele><time>2026-04-11T11:17:32.852Z</time></trkpt><trkpt lat="45.0351426" lon="9.2578619"><ele>109.33333333333333</ele><time>2026-04-11T11:17:33.851Z</time></trkpt><trkpt lat="45.0349559" lon="9.2577478"><ele>108.66666666666666</ele><time>2026-04-11T11:17:34.852Z</time></trkpt><trkpt lat="45.0347868" lon="9.2576587"><ele>108.0</ele><time>2026-04-11T11:17:35.852Z</time></trkpt><trkpt lat="45.0345951" lon="9.2575931"><ele>108.0</ele><time>2026-04-11T11:17:36.852Z</time></trkpt><trkpt lat="45.0344094" lon="9.2575489"><ele>108.0</ele><time>2026-04-11T11:17:37.851Z</time></trkpt><trkpt lat="45.0342199" lon="9.2575121"><ele>108.0</ele><time>2026-04-11T11:17:38.851Z</time></trkpt><trkpt lat="45.0340226" lon="9.2574583"><ele>107.66666666666666</ele><time>2026-04-11T11:17:39.852Z</time></trkpt><trkpt lat="45.0338225" lon="9.2574008"><ele>107.33333333333333</ele><time>2026-04-11T11:17:40.852Z</time></trkpt><trkpt lat="45.0336272" lon="9.2573655"><ele>107.0</ele><time>2026-04-11T11:17:41.851Z</time></trkpt><trkpt lat="45.0334261" lon="9.2572958"><ele>108.33333333333333</ele><time>2026-04-11T11:17:42.852Z</time></trkpt><trkpt lat="45.0332311" lon="9.2572205"><ele>109.66666666666666</ele><time>2026-04-11T11:17:43.852Z</time></trkpt><trkpt lat="45.0330298" lon="9.2571319"><ele>111.0</ele><time>2026-04-11T11:17:44.852Z</time></trkpt><trkpt lat="45.0328291" lon="9.2570428"><ele>111.0</ele><time>2026-04-11T11:17:45.852Z</time></trkpt><trkpt lat="45.0326302" lon="9.2569456"><ele>111.0</ele><time>2026-04-11T11:17:46.852Z</time></trkpt><trkpt lat="45.032432" lon="9.2568491"><ele>111.0</ele><time>2026-04-11T11:17:47.851Z</time></trkpt><trkpt lat="45.032234" lon="9.2567512"><ele>110.66666666666666</ele><time>2026-04-11T11:17:48.852Z</time></trkpt><trkpt lat="45.0320339" lon="9.2566549"><ele>110.33333333333333</ele><time>2026-04-11T11:17:49.852Z</time></trkpt><trkpt lat="45.0318317" lon="9.2565584"><ele>110.0</ele><time>2026-04-11T11:17:50.852Z</time></trkpt><trkpt lat="45.0316293" lon="9.2564687"><ele>111.0</ele><time>2026-04-11T11:17:51.852Z</time></trkpt><trkpt lat="45.0314225" lon="9.2563767"><ele>112.0</ele><time>2026-04-11T11:17:52.852Z</time></trkpt><trkpt lat="45.0312212" lon="9.2562843"><ele>113.0</ele><time>2026-04-11T11:17:53.852Z</time></trkpt><trkpt lat="45.0310167" lon="9.2561861"><ele>113.0</ele><time>2026-04-11T11:17:54.851Z</time></trkpt><trkpt lat="45.0308163" lon="9.2560907"><ele>113.0</ele><time>2026-04-11T11:17:55.852Z</time></trkpt><trkpt lat="45.0306095" lon="9.2559978"><ele>113.0</ele><time>2026-04-11T11:17:56.852Z</time></trkpt><trkpt lat="45.0304138" lon="9.2559062"><ele>112.66666666666666</ele><time>2026-04-11T11:17:57.852Z</time></trkpt><trkpt lat="45.0302231" lon="9.2558078"><ele>112.33333333333334</ele><time>2026-04-11T11:17:58.852Z</time></trkpt><trkpt lat="45.0300202" lon="9.2556834"><ele>112.0</ele><time>2026-04-11T11:17:59.852Z</time></trkpt><trkpt lat="45.0298341" lon="9.2555587"><ele>112.66666666666667</ele><time>2026-04-11T11:18:00.852Z</time></trkpt><trkpt lat="45.0296465" lon="9.2554233"><ele>113.33333333333334</ele><time>2026-04-11T11:18:01.852Z</time></trkpt><trkpt lat="45.0294523" lon="9.2552842"><ele>114.0</ele><time>2026-04-11T11:18:02.851Z</time></trkpt><trkpt lat="45.0292527" lon="9.2551414"><ele>113.0</ele><time>2026-04-11T11:18:03.851Z</time></trkpt><trkpt lat="45.0290488" lon="9.2550004"><ele>112.0</ele><time>2026-04-11T11:18:04.851Z</time></trkpt><trkpt lat="45.0288442" lon="9.254859"><ele>113.0</ele><time>2026-04-11T11:18:05.852Z</time></trkpt><trkpt lat="45.0286332" lon="9.2547182"><ele>114.0</ele><time>2026-04-11T11:18:06.852Z</time></trkpt><trkpt lat="45.0284148" lon="9.2546044"><ele>113.5</ele><time>2026-04-11T11:18:07.852Z</time></trkpt><trkpt lat="45.0281923" lon="9.2545122"><ele>113.0</ele><time>2026-04-11T11:18:08.851Z</time></trkpt><trkpt lat="45.0279699" lon="9.2544248"><ele>113.0</ele><time>2026-04-11T11:18:09.852Z</time></trkpt><trkpt lat="45.0277394" lon="9.2543278"><ele>113.0</ele><time>2026-04-11T11:18:10.852Z</time></trkpt><trkpt lat="45.0275009" lon="9.2542256"><ele>113.5</ele><time>2026-04-11T11:18:11.852Z</time></trkpt><trkpt lat="45.0272632" lon="9.2541211"><ele>114.0</ele><time>2026-04-11T11:18:12.852Z</time></trkpt><trkpt lat="45.0270324" lon="9.2540172"><ele>114.5</ele><time>2026-04-11T11:18:13.852Z</time></trkpt><trkpt lat="45.0268006" lon="9.2539124"><ele>115.0</ele><time>2026-04-11T11:18:14.852Z</time></trkpt><trkpt lat="45.026571" lon="9.2538054"><ele>115.5</ele><time>2026-04-11T11:18:15.852Z</time></trkpt><trkpt lat="45.0263495" lon="9.2537134"><ele>116.0</ele><time>2026-04-11T11:18:16.851Z</time></trkpt><trkpt lat="45.0261284" lon="9.2536413"><ele>116.0</ele><time>2026-04-11T11:18:17.853Z</time></trkpt><trkpt lat="45.025914" lon="9.2535951"><ele>116.0</ele><time>2026-04-11T11:18:18.852Z</time></trkpt><trkpt lat="45.0257046" lon="9.2535929"><ele>116.0</ele><time>2026-04-11T11:18:19.853Z</time></trkpt><trkpt lat="45.0255125" lon="9.2536314"><ele>116.33333333333333</ele><time>2026-04-11T11:18:20.853Z</time></trkpt><trkpt lat="45.0253257" lon="9.2537027"><ele>116.66666666666666</ele><time>2026-04-11T11:18:21.853Z</time></trkpt><trkpt lat="45.0251284" lon="9.2537804"><ele>117.0</ele><time>2026-04-11T11:18:22.853Z</time></trkpt><trkpt lat="45.0249399" lon="9.2538618"><ele>116.66666666666666</ele><time>2026-04-11T11:18:23.853Z</time></trkpt><trkpt lat="45.0247544" lon="9.2539234"><ele>116.33333333333333</ele><time>2026-04-11T11:18:24.853Z</time></trkpt><trkpt lat="45.0245658" lon="9.2539611"><ele>116.0</ele><time>2026-04-11T11:18:25.853Z</time></trkpt><trkpt lat="45.0243717" lon="9.2539572"><ele>117.0</ele><time>2026-04-11T11:18:26.853Z</time></trkpt><trkpt lat="45.0241719" lon="9.2539327"><ele>118.0</ele><time>2026-04-11T11:18:27.852Z</time></trkpt><trkpt lat="45.0239733" lon="9.2538836"><ele>119.0</ele><time>2026-04-11T11:18:28.853Z</time></trkpt><trkpt lat="45.0237859" lon="9.2538254"><ele>119.0</ele><time>2026-04-11T11:18:29.853Z</time></trkpt><trkpt lat="45.0236112" lon="9.2537651"><ele>119.0</ele><time>2026-04-11T11:18:30.853Z</time></trkpt><trkpt lat="45.0234483" lon="9.2537117"><ele>119.0</ele><time>2026-04-11T11:18:31.853Z</time></trkpt><trkpt lat="45.0232978" lon="9.2536627"><ele>119.75</ele><time>2026-04-11T11:18:32.853Z</time></trkpt><trkpt lat="45.0231599" lon="9.2536192"><ele>120.5</ele><time>2026-04-11T11:18:33.852Z</time></trkpt><trkpt lat="45.023029" lon="9.2535757"><ele>121.25</ele><time>2026-04-11T11:18:34.853Z</time></trkpt><trkpt lat="45.0228945" lon="9.25354"><ele>122.0</ele><time>2026-04-11T11:18:35.853Z</time></trkpt><trkpt lat="45.0227615" lon="9.2535174"><ele>122.0</ele><time>2026-04-11T11:18:36.853Z</time></trkpt><trkpt lat="45.0226273" lon="9.2535043"><ele>122.0</ele><time>2026-04-11T11:18:37.853Z</time></trkpt><trkpt lat="45.0224914" lon="9.253489"><ele>122.0</ele><time>2026-04-11T11:18:38.853Z</time></trkpt><trkpt lat="45.0223555" lon="9.2534686"><ele>122.0</ele><time>2026-04-11T11:18:39.853Z</time></trkpt><trkpt lat="45.0222183" lon="9.2534507"><ele>122.25</ele><time>2026-04-11T11:18:40.853Z</time></trkpt><trkpt lat="45.0220833" lon="9.2534269"><ele>122.5</ele><time>2026-04-11T11:18:41.853Z</time></trkpt><trkpt lat="45.0219509" lon="9.2533886"><ele>122.75</ele><time>2026-04-11T11:18:42.853Z</time></trkpt><trkpt lat="45.0218222" lon="9.253335"><ele>123.0</ele><time>2026-04-11T11:18:43.853Z</time></trkpt><trkpt lat="45.0217047" lon="9.2532759"><ele>123.0</ele><time>2026-04-11T11:18:44.853Z</time></trkpt><trkpt lat="45.0215904" lon="9.253223"><ele>123.00000000000001</ele><time>2026-04-11T11:18:45.853Z</time></trkpt><trkpt lat="45.021489" lon="9.2531712"><ele>123.00000000000001</ele><time>2026-04-11T11:18:46.853Z</time></trkpt><trkpt lat="45.0213961" lon="9.2531229"><ele>123.0</ele><time>2026-04-11T11:18:47.853Z</time></trkpt><trkpt lat="45.0213073" lon="9.25308"><ele>123.0</ele><time>2026-04-11T11:18:48.853Z</time></trkpt><trkpt lat="45.0212201" lon="9.2530467"><ele>123.60000000000001</ele><time>2026-04-11T11:18:49.853Z</time></trkpt><trkpt lat="45.0211295" lon="9.2530075"><ele>124.20000000000002</ele><time>2026-04-11T11:18:50.853Z</time></trkpt><trkpt lat="45.0210352" lon="9.2529677"><ele>124.8</ele><time>2026-04-11T11:18:51.853Z</time></trkpt><trkpt lat="45.0209347" lon="9.2529391"><ele>125.4</ele><time>2026-04-11T11:18:52.853Z</time></trkpt><trkpt lat="45.0208292" lon="9.2529167"><ele>126.0</ele><time>2026-04-11T11:18:53.852Z</time></trkpt><trkpt lat="45.0207226" lon="9.2528902"><ele>126.0</ele><time>2026-04-11T11:18:54.853Z</time></trkpt><trkpt lat="45.0206062" lon="9.2528684"><ele>126.0</ele><time>2026-04-11T11:18:55.853Z</time></trkpt><trkpt lat="45.0204798" lon="9.2528599"><ele>126.0</ele><time>2026-04-11T11:18:56.852Z</time></trkpt><trkpt lat="45.0203419" lon="9.2528501"><ele>126.0</ele><time>2026-04-11T11:18:57.852Z</time></trkpt><trkpt lat="45.0201978" lon="9.2528361"><ele>126.0</ele><time>2026-04-11T11:18:58.853Z</time></trkpt><trkpt lat="45.0200511" lon="9.2528238"><ele>126.0</ele><time>2026-04-11T11:18:59.853Z</time></trkpt><trkpt lat="45.0199062" lon="9.2528113"><ele>126.0</ele><time>2026-04-11T11:19:00.853Z</time></trkpt><trkpt lat="45.0197695" lon="9.2527938"><ele>126.0</ele><time>2026-04-11T11:19:01.853Z</time></trkpt><trkpt lat="45.019635" lon="9.2527718"><ele>126.0</ele><time>2026-04-11T11:19:02.853Z</time></trkpt><trkpt lat="45.0194971" lon="9.2527373"><ele>126.0</ele><time>2026-04-11T11:19:03.853Z</time></trkpt><trkpt lat="45.019357" lon="9.2526962"><ele>126.0</ele><time>2026-04-11T11:19:04.853Z</time></trkpt><trkpt lat="45.0192101" lon="9.2526625"><ele>126.0</ele><time>2026-04-11T11:19:05.854Z</time></trkpt><trkpt lat="45.0190615" lon="9.2526405"><ele>126.0</ele><time>2026-04-11T11:19:06.853Z</time></trkpt><trkpt lat="45.0189147" lon="9.2526371"><ele>126.0</ele><time>2026-04-11T11:19:07.854Z</time></trkpt><trkpt lat="45.0187786" lon="9.2526482"><ele>126.0</ele><time>2026-04-11T11:19:08.854Z</time></trkpt><trkpt lat="45.0186543" lon="9.2526599"><ele>126.0</ele><time>2026-04-11T11:19:09.854Z</time></trkpt><trkpt lat="45.0185433" lon="9.2526719"><ele>126.0</ele><time>2026-04-11T11:19:10.854Z</time></trkpt><trkpt lat="45.0184541" lon="9.2526855"><ele>126.0</ele><time>2026-04-11T11:19:11.854Z</time></trkpt><trkpt lat="45.0183727" lon="9.2527004"><ele>126.0</ele><time>2026-04-11T11:19:12.854Z</time></trkpt><trkpt lat="45.0182994" lon="9.2527123"><ele>126.0</ele><time>2026-04-11T11:19:13.854Z</time></trkpt><trkpt lat="45.0182153" lon="9.252709"><ele>126.0</ele><time>2026-04-11T11:19:14.854Z</time></trkpt><trkpt lat="45.0181324" lon="9.2527237"><ele>126.0</ele><time>2026-04-11T11:19:15.854Z</time></trkpt><trkpt lat="45.018027" lon="9.2527391"><ele>125.75</ele><time>2026-04-11T11:19:16.854Z</time></trkpt><trkpt lat="45.0179033" lon="9.25276"><ele>125.5</ele><time>2026-04-11T11:19:17.854Z</time></trkpt><trkpt lat="45.0177713" lon="9.2527793"><ele>125.25</ele><time>2026-04-11T11:19:18.854Z</time></trkpt><trkpt lat="45.0176451" lon="9.2528017"><ele>125.0</ele><time>2026-04-11T11:19:19.854Z</time></trkpt><trkpt lat="45.0175236" lon="9.2528153"><ele>125.5</ele><time>2026-04-11T11:19:20.854Z</time></trkpt><trkpt lat="45.0173981" lon="9.2528178"><ele>126.0</ele><time>2026-04-11T11:19:21.854Z</time></trkpt><trkpt lat="45.017266" lon="9.2528034"><ele>126.5</ele><time>2026-04-11T11:19:22.854Z</time></trkpt><trkpt lat="45.0171272" lon="9.2527788"><ele>127.0</ele><time>2026-04-11T11:19:23.854Z</time></trkpt><trkpt lat="45.0169884" lon="9.2527412"><ele>127.0</ele><time>2026-04-11T11:19:24.854Z</time></trkpt><trkpt lat="45.0168533" lon="9.2526987"><ele>127.0</ele><time>2026-04-11T11:19:25.854Z</time></trkpt><trkpt lat="45.0167201" lon="9.2526438"><ele>127.0</ele><time>2026-04-11T11:19:26.853Z</time></trkpt><trkpt lat="45.0165862" lon="9.2525775"><ele>127.0</ele><time>2026-04-11T11:19:27.854Z</time></trkpt><trkpt lat="45.0164554" lon="9.2525133"><ele>127.5</ele><time>2026-04-11T11:19:28.854Z</time></trkpt><trkpt lat="45.0163255" lon="9.2524503"><ele>128.0</ele><time>2026-04-11T11:19:29.854Z</time></trkpt><trkpt lat="45.0161938" lon="9.2523822"><ele>128.5</ele><time>2026-04-11T11:19:30.854Z</time></trkpt><trkpt lat="45.0160669" lon="9.2523136"><ele>129.0</ele><time>2026-04-11T11:19:31.853Z</time></trkpt><trkpt lat="45.0159514" lon="9.252247"><ele>129.0</ele><time>2026-04-11T11:19:32.854Z</time></trkpt><trkpt lat="45.0158473" lon="9.2521861"><ele>129.0</ele><time>2026-04-11T11:19:33.854Z</time></trkpt><trkpt lat="45.0157497" lon="9.2521383"><ele>129.0</ele><time>2026-04-11T11:19:34.854Z</time></trkpt><trkpt lat="45.015659" lon="9.2520973"><ele>129.0</ele><time>2026-04-11T11:19:35.854Z</time></trkpt><trkpt lat="45.0155738" lon="9.2520528"><ele>129.0</ele><time>2026-04-11T11:19:36.853Z</time></trkpt><trkpt lat="45.0154981" lon="9.2520184"><ele>129.0</ele><time>2026-04-11T11:19:37.853Z</time></trkpt><trkpt lat="45.0154305" lon="9.2519832"><ele>129.0</ele><time>2026-04-11T11:19:38.854Z</time></trkpt><trkpt lat="45.01536" lon="9.2519456"><ele>129.0</ele><time>2026-04-11T11:19:39.854Z</time></trkpt><trkpt lat="45.0152746" lon="9.2519081"><ele>129.0</ele><time>2026-04-11T11:19:40.854Z</time></trkpt><trkpt lat="45.015172" lon="9.2518736"><ele>129.0</ele><time>2026-04-11T11:19:41.854Z</time></trkpt><trkpt lat="45.0150609" lon="9.2518379"><ele>129.25</ele><time>2026-04-11T11:19:42.853Z</time></trkpt><trkpt lat="45.0149374" lon="9.2518076"><ele>129.5</ele><time>2026-04-11T11:19:43.854Z</time></trkpt><trkpt lat="45.0148005" lon="9.2517871"><ele>129.75</ele><time>2026-04-11T11:19:44.854Z</time></trkpt><trkpt lat="45.0146506" lon="9.2517725"><ele>130.0</ele><time>2026-04-11T11:19:45.854Z</time></trkpt><trkpt lat="45.014502" lon="9.2517681"><ele>130.0</ele><time>2026-04-11T11:19:46.854Z</time></trkpt><trkpt lat="45.0143572" lon="9.2517608"><ele>130.0</ele><time>2026-04-11T11:19:47.854Z</time></trkpt><trkpt lat="45.0142053" lon="9.2517501"><ele>130.0</ele><time>2026-04-11T11:19:48.854Z</time></trkpt><trkpt lat="45.0140464" lon="9.251738"><ele>131.0</ele><time>2026-04-11T11:19:49.853Z</time></trkpt><trkpt lat="45.0138792" lon="9.2517286"><ele>132.0</ele><time>2026-04-11T11:19:50.854Z</time></trkpt><trkpt lat="45.0137082" lon="9.2517224"><ele>133.0</ele><time>2026-04-11T11:19:51.853Z</time></trkpt><trkpt lat="45.0135312" lon="9.2517146"><ele>133.0</ele><time>2026-04-11T11:19:52.854Z</time></trkpt><trkpt lat="45.0133519" lon="9.2517093"><ele>133.0</ele><time>2026-04-11T11:19:53.854Z</time></trkpt><trkpt lat="45.0131793" lon="9.2517067"><ele>133.0</ele><time>2026-04-11T11:19:54.854Z</time></trkpt><trkpt lat="45.0130088" lon="9.2517013"><ele>133.33333333333334</ele><time>2026-04-11T11:19:55.855Z</time></trkpt><trkpt lat="45.0128395" lon="9.2517023"><ele>133.66666666666666</ele><time>2026-04-11T11:19:56.855Z</time></trkpt><trkpt lat="45.0126741" lon="9.2517244"><ele>134.0</ele><time>2026-04-11T11:19:57.855Z</time></trkpt><trkpt lat="45.012511" lon="9.2517552"><ele>134.66666666666666</ele><time>2026-04-11T11:19:58.854Z</time></trkpt><trkpt lat="45.0123442" lon="9.2517967"><ele>135.33333333333334</ele><time>2026-04-11T11:19:59.855Z</time></trkpt><trkpt lat="45.0121814" lon="9.2518502"><ele>136.0</ele><time>2026-04-11T11:20:00.854Z</time></trkpt><trkpt lat="45.012022" lon="9.2519218"><ele>136.0</ele><time>2026-04-11T11:20:01.855Z</time></trkpt><trkpt lat="45.011863" lon="9.2520031"><ele>136.0</ele><time>2026-04-11T11:20:02.855Z</time></trkpt><trkpt lat="45.0117051" lon="9.2520922"><ele>136.0</ele><time>2026-04-11T11:20:03.855Z</time></trkpt><trkpt lat="45.0115578" lon="9.2521994"><ele>136.33333333333334</ele><time>2026-04-11T11:20:04.854Z</time></trkpt><trkpt lat="45.0114131" lon="9.2523088"><ele>136.66666666666666</ele><time>2026-04-11T11:20:05.854Z</time></trkpt><trkpt lat="45.0112754" lon="9.2524273"><ele>137.0</ele><time>2026-04-11T11:20:06.855Z</time></trkpt><trkpt lat="45.0111415" lon="9.2525521"><ele>137.0</ele><time>2026-04-11T11:20:07.855Z</time></trkpt><trkpt lat="45.0110063" lon="9.2526807"><ele>137.0</ele><time>2026-04-11T11:20:08.855Z</time></trkpt><trkpt lat="45.0108746" lon="9.2528059"><ele>137.0</ele><time>2026-04-11T11:20:09.855Z</time></trkpt><trkpt lat="45.0107489" lon="9.2529246"><ele>137.25</ele><time>2026-04-11T11:20:10.855Z</time></trkpt><trkpt lat="45.0106271" lon="9.2530359"><ele>137.5</ele><time>2026-04-11T11:20:11.854Z</time></trkpt><trkpt lat="45.0105154" lon="9.2531372"><ele>137.75</ele><time>2026-04-11T11:20:12.855Z</time></trkpt><trkpt lat="45.010419" lon="9.2532323"><ele>138.0</ele><time>2026-04-11T11:20:13.855Z</time></trkpt><trkpt lat="45.0103298" lon="9.2533205"><ele>138.0</ele><time>2026-04-11T11:20:14.854Z</time></trkpt><trkpt lat="45.0102471" lon="9.2534096"><ele>138.0</ele><time>2026-04-11T11:20:15.855Z</time></trkpt><trkpt lat="45.0101673" lon="9.2534912"><ele>138.0</ele><time>2026-04-11T11:20:16.855Z</time></trkpt><trkpt lat="45.0100776" lon="9.2535784"><ele>138.0</ele><time>2026-04-11T11:20:17.855Z</time></trkpt><trkpt lat="45.0099828" lon="9.253677"><ele>138.0</ele><time>2026-04-11T11:20:18.855Z</time></trkpt><trkpt lat="45.0098839" lon="9.2537783"><ele>138.25</ele><time>2026-04-11T11:20:19.855Z</time></trkpt><trkpt lat="45.0097808" lon="9.2538795"><ele>138.5</ele><time>2026-04-11T11:20:20.855Z</time></trkpt><trkpt lat="45.0096667" lon="9.2539835"><ele>138.75</ele><time>2026-04-11T11:20:21.854Z</time></trkpt><trkpt lat="45.0095463" lon="9.2540955"><ele>139.0</ele><time>2026-04-11T11:20:22.855Z</time></trkpt><trkpt lat="45.0094223" lon="9.2542169"><ele>139.0</ele><time>2026-04-11T11:20:23.855Z</time></trkpt><trkpt lat="45.0093039" lon="9.2543375"><ele>139.0</ele><time>2026-04-11T11:20:24.855Z</time></trkpt><trkpt lat="45.0091866" lon="9.2544552"><ele>139.0</ele><time>2026-04-11T11:20:25.854Z</time></trkpt><trkpt lat="45.0090643" lon="9.2545735"><ele>139.0</ele><time>2026-04-11T11:20:26.855Z</time></trkpt><trkpt lat="45.008935" lon="9.2546992"><ele>139.33333333333334</ele><time>2026-04-11T11:20:27.855Z</time></trkpt><trkpt lat="45.0087986" lon="9.2548294"><ele>139.66666666666666</ele><time>2026-04-11T11:20:28.855Z</time></trkpt><trkpt lat="45.0086583" lon="9.2549619"><ele>140.0</ele><time>2026-04-11T11:20:29.854Z</time></trkpt><trkpt lat="45.0085171" lon="9.255097"><ele>140.0</ele><time>2026-04-11T11:20:30.855Z</time></trkpt><trkpt lat="45.0083728" lon="9.2552358"><ele>140.0</ele><time>2026-04-11T11:20:31.854Z</time></trkpt><trkpt lat="45.0082217" lon="9.2553879"><ele>140.0</ele><time>2026-04-11T11:20:32.855Z</time></trkpt><trkpt lat="45.008063" lon="9.2555356"><ele>139.66666666666666</ele><time>2026-04-11T11:20:33.854Z</time></trkpt><trkpt lat="45.0079021" lon="9.2556917"><ele>139.33333333333334</ele><time>2026-04-11T11:20:34.855Z</time></trkpt><trkpt lat="45.0077373" lon="9.2558504"><ele>139.0</ele><time>2026-04-11T11:20:35.855Z</time></trkpt><trkpt lat="45.0075722" lon="9.2560169"><ele>139.33333333333334</ele><time>2026-04-11T11:20:36.855Z</time></trkpt><trkpt lat="45.0074039" lon="9.2561823"><ele>139.66666666666666</ele><time>2026-04-11T11:20:37.855Z</time></trkpt><trkpt lat="45.0072361" lon="9.2563493"><ele>140.0</ele><time>2026-04-11T11:20:38.855Z</time></trkpt><trkpt lat="45.0070714" lon="9.256511"><ele>140.0</ele><time>2026-04-11T11:20:39.855Z</time></trkpt><trkpt lat="45.0069099" lon="9.2566735"><ele>140.0</ele><time>2026-04-11T11:20:40.855Z</time></trkpt><trkpt lat="45.0067551" lon="9.2568225"><ele>140.0</ele><time>2026-04-11T11:20:41.855Z</time></trkpt><trkpt lat="45.0066063" lon="9.2569747"><ele>140.33333333333331</ele><time>2026-04-11T11:20:42.855Z</time></trkpt><trkpt lat="45.0064628" lon="9.2571062"><ele>140.66666666666666</ele><time>2026-04-11T11:20:43.855Z</time></trkpt><trkpt lat="45.0063223" lon="9.2572371"><ele>141.0</ele><time>2026-04-11T11:20:44.856Z</time></trkpt><trkpt lat="45.0061801" lon="9.2573706"><ele>141.0</ele><time>2026-04-11T11:20:45.856Z</time></trkpt><trkpt lat="45.0060427" lon="9.2575059"><ele>141.0</ele><time>2026-04-11T11:20:46.855Z</time></trkpt><trkpt lat="45.005909" lon="9.2576503"><ele>141.0</ele><time>2026-04-11T11:20:47.856Z</time></trkpt><trkpt lat="45.0057926" lon="9.2578095"><ele>143.33333333333334</ele><time>2026-04-11T11:20:48.856Z</time></trkpt><trkpt lat="45.0056915" lon="9.2579998"><ele>145.66666666666669</ele><time>2026-04-11T11:20:49.856Z</time></trkpt><trkpt lat="45.0055916" lon="9.2581855"><ele>148.0</ele><time>2026-04-11T11:20:50.856Z</time></trkpt><trkpt lat="45.0054868" lon="9.2583658"><ele>148.0</ele><time>2026-04-11T11:20:51.856Z</time></trkpt><trkpt lat="45.0053847" lon="9.2585471"><ele>148.0</ele><time>2026-04-11T11:20:52.856Z</time></trkpt><trkpt lat="45.0052803" lon="9.2587255"><ele>148.0</ele><time>2026-04-11T11:20:53.856Z</time></trkpt><trkpt lat="45.0051666" lon="9.2588895"><ele>147.0</ele><time>2026-04-11T11:20:54.856Z</time></trkpt><trkpt lat="45.0050374" lon="9.2590332"><ele>146.0</ele><time>2026-04-11T11:20:55.856Z</time></trkpt><trkpt lat="45.004905" lon="9.2591658"><ele>145.0</ele><time>2026-04-11T11:20:56.855Z</time></trkpt><trkpt lat="45.0047675" lon="9.2592903"><ele>147.0</ele><time>2026-04-11T11:20:57.856Z</time></trkpt><trkpt lat="45.0046268" lon="9.2594054"><ele>149.0</ele><time>2026-04-11T11:20:58.856Z</time></trkpt><trkpt lat="45.0044805" lon="9.2595184"><ele>151.0</ele><time>2026-04-11T11:20:59.855Z</time></trkpt><trkpt lat="45.0043322" lon="9.2596251"><ele>151.0</ele><time>2026-04-11T11:21:00.856Z</time></trkpt><trkpt lat="45.0041823" lon="9.2597317"><ele>151.0</ele><time>2026-04-11T11:21:01.856Z</time></trkpt><trkpt lat="45.0040357" lon="9.2598434"><ele>151.0</ele><time>2026-04-11T11:21:02.856Z</time></trkpt><trkpt lat="45.0038855" lon="9.2599546"><ele>150.33333333333334</ele><time>2026-04-11T11:21:03.856Z</time></trkpt><trkpt lat="45.0037358" lon="9.2600609"><ele>149.66666666666666</ele><time>2026-04-11T11:21:04.855Z</time></trkpt><trkpt lat="45.0035831" lon="9.2601751"><ele>149.0</ele><time>2026-04-11T11:21:05.856Z</time></trkpt><trkpt lat="45.0034292" lon="9.2602954"><ele>148.66666666666666</ele><time>2026-04-11T11:21:06.855Z</time></trkpt><trkpt lat="45.0032677" lon="9.260413"><ele>148.33333333333334</ele><time>2026-04-11T11:21:07.855Z</time></trkpt><trkpt lat="45.0031059" lon="9.260528"><ele>148.0</ele><time>2026-04-11T11:21:08.856Z</time></trkpt><trkpt lat="45.0029454" lon="9.260643"><ele>148.0</ele><time>2026-04-11T11:21:09.856Z</time></trkpt><trkpt lat="45.0027807" lon="9.260762"><ele>148.0</ele><time>2026-04-11T11:21:10.856Z</time></trkpt><trkpt lat="45.002619" lon="9.260875"><ele>148.0</ele><time>2026-04-11T11:21:11.856Z</time></trkpt><trkpt lat="45.0024595" lon="9.260983"><ele>149.0</ele><time>2026-04-11T11:21:12.856Z</time></trkpt><trkpt lat="45.0022985" lon="9.2610946"><ele>150.0</ele><time>2026-04-11T11:21:13.856Z</time></trkpt><trkpt lat="45.0021234" lon="9.2612554"><ele>151.0</ele><time>2026-04-11T11:21:14.856Z</time></trkpt><trkpt lat="45.00195" lon="9.2613841"><ele>150.66666666666669</ele><time>2026-04-11T11:21:15.856Z</time></trkpt><trkpt lat="45.0017815" lon="9.2615091"><ele>150.33333333333334</ele><time>2026-04-11T11:21:16.856Z</time></trkpt><trkpt lat="45.0016076" lon="9.2616324"><ele>150.0</ele><time>2026-04-11T11:21:17.856Z</time></trkpt><trkpt lat="45.0014375" lon="9.2617553"><ele>152.0</ele><time>2026-04-11T11:21:18.856Z</time></trkpt><trkpt lat="45.0012662" lon="9.2618821"><ele>154.0</ele><time>2026-04-11T11:21:19.856Z</time></trkpt><trkpt lat="45.0010979" lon="9.2620074"><ele>156.0</ele><time>2026-04-11T11:21:20.856Z</time></trkpt><trkpt lat="45.0009332" lon="9.2621212"><ele>156.0</ele><time>2026-04-11T11:21:21.856Z</time></trkpt><trkpt lat="45.000772" lon="9.2622205"><ele>156.0</ele><time>2026-04-11T11:21:22.856Z</time></trkpt><trkpt lat="45.0006185" lon="9.2622969"><ele>156.0</ele><time>2026-04-11T11:21:23.856Z</time></trkpt><trkpt lat="45.000465" lon="9.2623551"><ele>156.0</ele><time>2026-04-11T11:21:24.856Z</time></trkpt><trkpt lat="45.0003091" lon="9.2623873"><ele>156.0</ele><time>2026-04-11T11:21:25.856Z</time></trkpt><trkpt lat="45.0001417" lon="9.2623902"><ele>156.0</ele><time>2026-04-11T11:21:26.856Z</time></trkpt><trkpt lat="44.9999657" lon="9.2623886"><ele>156.0</ele><time>2026-04-11T11:21:27.856Z</time></trkpt><trkpt lat="44.999782" lon="9.2623836"><ele>156.0</ele><time>2026-04-11T11:21:28.856Z</time></trkpt><trkpt lat="44.9995901" lon="9.2623804"><ele>156.0</ele><time>2026-04-11T11:21:29.856Z</time></trkpt><trkpt lat="44.9993924" lon="9.2623762"><ele>156.0</ele><time>2026-04-11T11:21:30.856Z</time></trkpt><trkpt lat="44.9991875" lon="9.2623711"><ele>156.0</ele><time>2026-04-11T11:21:31.856Z</time></trkpt><trkpt lat="44.9989787" lon="9.262366"><ele>156.0</ele><time>2026-04-11T11:21:32.856Z</time></trkpt><trkpt lat="44.9987653" lon="9.26236"><ele>156.33333333333334</ele><time>2026-04-11T11:21:33.856Z</time></trkpt><trkpt lat="44.9985612" lon="9.2623554"><ele>156.66666666666669</ele><time>2026-04-11T11:21:34.857Z</time></trkpt><trkpt lat="44.9983716" lon="9.2623542"><ele>157.0</ele><time>2026-04-11T11:21:35.857Z</time></trkpt><trkpt lat="44.9981921" lon="9.2623504"><ele>157.33333333333334</ele><time>2026-04-11T11:21:36.856Z</time></trkpt><trkpt lat="44.998021" lon="9.2623519"><ele>157.66666666666666</ele><time>2026-04-11T11:21:37.857Z</time></trkpt><trkpt lat="44.9978575" lon="9.2623666"><ele>158.0</ele><time>2026-04-11T11:21:38.857Z</time></trkpt><trkpt lat="44.9977022" lon="9.2624213"><ele>158.0</ele><time>2026-04-11T11:21:39.857Z</time></trkpt><trkpt lat="44.9975555" lon="9.2625109"><ele>158.0</ele><time>2026-04-11T11:21:40.857Z</time></trkpt><trkpt lat="44.9974196" lon="9.2626389"><ele>158.0</ele><time>2026-04-11T11:21:41.857Z</time></trkpt><trkpt lat="44.9972939" lon="9.2627965"><ele>158.0</ele><time>2026-04-11T11:21:42.857Z</time></trkpt><trkpt lat="44.997186" lon="9.2629493"><ele>158.0</ele><time>2026-04-11T11:21:43.857Z</time></trkpt><trkpt lat="44.9970836" lon="9.2630705"><ele>158.0</ele><time>2026-04-11T11:21:44.857Z</time></trkpt><trkpt lat="44.9969604" lon="9.2631393"><ele>158.0</ele><time>2026-04-11T11:21:45.857Z</time></trkpt><trkpt lat="44.9968295" lon="9.2631833"><ele>158.0</ele><time>2026-04-11T11:21:46.857Z</time></trkpt><trkpt lat="44.9966863" lon="9.2631766"><ele>158.0</ele><time>2026-04-11T11:21:47.857Z</time></trkpt><trkpt lat="44.9965342" lon="9.2631325"><ele>158.0</ele><time>2026-04-11T11:21:48.857Z</time></trkpt><trkpt lat="44.9963642" lon="9.2630867"><ele>164.66666666666666</ele><time>2026-04-11T11:21:49.857Z</time></trkpt><trkpt lat="44.9961932" lon="9.263058"><ele>171.33333333333334</ele><time>2026-04-11T11:21:50.856Z</time></trkpt><trkpt lat="44.9960294" lon="9.2630266"><ele>178.0</ele><time>2026-04-11T11:21:51.857Z</time></trkpt><trkpt lat="44.9958759" lon="9.2629897"><ele>177.0</ele><time>2026-04-11T11:21:52.857Z</time></trkpt><trkpt lat="44.9957256" lon="9.2629395"><ele>176.0</ele><time>2026-04-11T11:21:53.857Z</time></trkpt><trkpt lat="44.9955745" lon="9.2628552"><ele>175.0</ele><time>2026-04-11T11:21:54.856Z</time></trkpt><trkpt lat="44.9954218" lon="9.2627389"><ele>175.0</ele><time>2026-04-11T11:21:55.857Z</time></trkpt><trkpt lat="44.995277" lon="9.2625955"><ele>175.0</ele><time>2026-04-11T11:21:56.857Z</time></trkpt><trkpt lat="44.9951237" lon="9.2624426"><ele>175.0</ele><time>2026-04-11T11:21:57.857Z</time></trkpt><trkpt lat="44.9949719" lon="9.2622747"><ele>175.0</ele><time>2026-04-11T11:21:58.857Z</time></trkpt><trkpt lat="44.9948299" lon="9.2620873"><ele>175.0</ele><time>2026-04-11T11:21:59.857Z</time></trkpt><trkpt lat="44.9946821" lon="9.2618923"><ele>175.0</ele><time>2026-04-11T11:22:00.856Z</time></trkpt><trkpt lat="44.9945371" lon="9.2617136"><ele>175.0</ele><time>2026-04-11T11:22:01.857Z</time></trkpt><trkpt lat="44.9944045" lon="9.2615485"><ele>175.0</ele><time>2026-04-11T11:22:02.856Z</time></trkpt><trkpt lat="44.9942848" lon="9.2613953"><ele>175.0</ele><time>2026-04-11T11:22:03.857Z</time></trkpt><trkpt lat="44.9941787" lon="9.2612546"><ele>175.25</ele><time>2026-04-11T11:22:04.857Z</time></trkpt><trkpt lat="44.9940932" lon="9.2611015"><ele>175.5</ele><time>2026-04-11T11:22:05.857Z</time></trkpt><trkpt lat="44.9940259" lon="9.2609253"><ele>175.75</ele><time>2026-04-11T11:22:06.857Z</time></trkpt><trkpt lat="44.9939626" lon="9.2607367"><ele>176.0</ele><time>2026-04-11T11:22:07.856Z</time></trkpt><trkpt lat="44.9938825" lon="9.260564"><ele>178.5</ele><time>2026-04-11T11:22:08.857Z</time></trkpt><trkpt lat="44.9937924" lon="9.260425"><ele>181.0</ele><time>2026-04-11T11:22:09.856Z</time></trkpt><trkpt lat="44.9936857" lon="9.2603217"><ele>183.5</ele><time>2026-04-11T11:22:10.857Z</time></trkpt><trkpt lat="44.993561" lon="9.2602498"><ele>186.0</ele><time>2026-04-11T11:22:11.857Z</time></trkpt><trkpt lat="44.9934244" lon="9.2602002"><ele>184.33333333333334</ele><time>2026-04-11T11:22:12.857Z</time></trkpt><trkpt lat="44.9932756" lon="9.2601559"><ele>182.66666666666669</ele><time>2026-04-11T11:22:13.857Z</time></trkpt><trkpt lat="44.993118" lon="9.2601255"><ele>181.0</ele><time>2026-04-11T11:22:14.857Z</time></trkpt><trkpt lat="44.9929526" lon="9.2600966"><ele>181.0</ele><time>2026-04-11T11:22:15.857Z</time></trkpt><trkpt lat="44.9927846" lon="9.2600366"><ele>181.0</ele><time>2026-04-11T11:22:16.857Z</time></trkpt><trkpt lat="44.992623" lon="9.2599514"><ele>181.0</ele><time>2026-04-11T11:22:17.857Z</time></trkpt><trkpt lat="44.9924621" lon="9.2598577"><ele>186.33333333333334</ele><time>2026-04-11T11:22:18.857Z</time></trkpt><trkpt lat="44.992286" lon="9.2597622"><ele>191.66666666666669</ele><time>2026-04-11T11:22:19.857Z</time></trkpt><trkpt lat="44.9921057" lon="9.2596643"><ele>197.0</ele><time>2026-04-11T11:22:20.857Z</time></trkpt><trkpt lat="44.9919178" lon="9.2595788"><ele>197.0</ele><time>2026-04-11T11:22:21.857Z</time></trkpt><trkpt lat="44.9917263" lon="9.2595134"><ele>197.0</ele><time>2026-04-11T11:22:22.857Z</time></trkpt><trkpt lat="44.9915462" lon="9.2594751"><ele>197.0</ele><time>2026-04-11T11:22:23.858Z</time></trkpt><trkpt lat="44.9913785" lon="9.2594434"><ele>194.25</ele><time>2026-04-11T11:22:24.858Z</time></trkpt><trkpt lat="44.9912302" lon="9.2594178"><ele>191.5</ele><time>2026-04-11T11:22:25.858Z</time></trkpt><trkpt lat="44.9911022" lon="9.2593884"><ele>188.75</ele><time>2026-04-11T11:22:26.858Z</time></trkpt><trkpt lat="44.990991" lon="9.2593347"><ele>186.0</ele><time>2026-04-11T11:22:27.858Z</time></trkpt><trkpt lat="44.9908734" lon="9.2592333"><ele>185.33333333333334</ele><time>2026-04-11T11:22:28.858Z</time></trkpt><trkpt lat="44.9907595" lon="9.2590905"><ele>184.66666666666669</ele><time>2026-04-11T11:22:29.858Z</time></trkpt><trkpt lat="44.9906411" lon="9.258947"><ele>184.0</ele><time>2026-04-11T11:22:30.858Z</time></trkpt><trkpt lat="44.9905218" lon="9.2588083"><ele>184.0</ele><time>2026-04-11T11:22:31.857Z</time></trkpt><trkpt lat="44.9903976" lon="9.2586663"><ele>184.0</ele><time>2026-04-11T11:22:32.858Z</time></trkpt><trkpt lat="44.9902708" lon="9.2585185"><ele>184.0</ele><time>2026-04-11T11:22:33.858Z</time></trkpt><trkpt lat="44.9901376" lon="9.2583922"><ele>182.33333333333334</ele><time>2026-04-11T11:22:34.858Z</time></trkpt><trkpt lat="44.9899971" lon="9.2582877"><ele>180.66666666666666</ele><time>2026-04-11T11:22:35.858Z</time></trkpt><trkpt lat="44.9898424" lon="9.2582"><ele>179.0</ele><time>2026-04-11T11:22:36.858Z</time></trkpt><trkpt lat="44.9896825" lon="9.258121"><ele>180.66666666666666</ele><time>2026-04-11T11:22:37.857Z</time></trkpt><trkpt lat="44.9895217" lon="9.2580452"><ele>182.33333333333334</ele><time>2026-04-11T11:22:38.858Z</time></trkpt><trkpt lat="44.9893568" lon="9.2579825"><ele>184.0</ele><time>2026-04-11T11:22:39.858Z</time></trkpt><trkpt lat="44.9892085" lon="9.2579252"><ele>183.25</ele><time>2026-04-11T11:22:40.858Z</time></trkpt><trkpt lat="44.9890727" lon="9.257859"><ele>182.5</ele><time>2026-04-11T11:22:41.858Z</time></trkpt><trkpt lat="44.9889522" lon="9.2577637"><ele>181.75</ele><time>2026-04-11T11:22:42.857Z</time></trkpt><trkpt lat="44.9888314" lon="9.2576602"><ele>181.0</ele><time>2026-04-11T11:22:43.858Z</time></trkpt><trkpt lat="44.9887068" lon="9.2575259"><ele>181.0</ele><time>2026-04-11T11:22:44.858Z</time></trkpt><trkpt lat="44.9885855" lon="9.2573787"><ele>181.0</ele><time>2026-04-11T11:22:45.858Z</time></trkpt><trkpt lat="44.9884643" lon="9.2572199"><ele>181.0</ele><time>2026-04-11T11:22:46.858Z</time></trkpt><trkpt lat="44.9883401" lon="9.2570508"><ele>181.33333333333334</ele><time>2026-04-11T11:22:47.858Z</time></trkpt><trkpt lat="44.9882165" lon="9.2568808"><ele>181.66666666666666</ele><time>2026-04-11T11:22:48.858Z</time></trkpt><trkpt lat="44.988093" lon="9.2567085"><ele>182.0</ele><time>2026-04-11T11:22:49.858Z</time></trkpt><trkpt lat="44.9879759" lon="9.2565455"><ele>183.5</ele><time>2026-04-11T11:22:50.857Z</time></trkpt><trkpt lat="44.9878661" lon="9.2563981"><ele>185.0</ele><time>2026-04-11T11:22:51.858Z</time></trkpt><trkpt lat="44.9877865" lon="9.2562979"><ele>186.5</ele><time>2026-04-11T11:22:52.858Z</time></trkpt><trkpt lat="44.9877072" lon="9.256162"><ele>188.0</ele><time>2026-04-11T11:22:53.858Z</time></trkpt><trkpt lat="44.9876457" lon="9.2560017"><ele>188.0</ele><time>2026-04-11T11:22:54.858Z</time></trkpt><trkpt lat="44.9875937" lon="9.255819"><ele>188.0</ele><time>2026-04-11T11:22:55.858Z</time></trkpt><trkpt lat="44.9875382" lon="9.2556363"><ele>188.0</ele><time>2026-04-11T11:22:56.858Z</time></trkpt><trkpt lat="44.9874181" lon="9.2554"><ele>188.0</ele><time>2026-04-11T11:22:57.858Z</time></trkpt><trkpt lat="44.9872992" lon="9.255236"><ele>188.0</ele><time>2026-04-11T11:22:58.858Z</time></trkpt><trkpt lat="44.9871659" lon="9.2551013"><ele>188.0</ele><time>2026-04-11T11:22:59.858Z</time></trkpt><trkpt lat="44.9870177" lon="9.254962"><ele>188.0</ele><time>2026-04-11T11:23:00.858Z</time></trkpt><trkpt lat="44.9868699" lon="9.254828"><ele>188.0</ele><time>2026-04-11T11:23:01.858Z</time></trkpt><trkpt lat="44.9867331" lon="9.2547"><ele>188.0</ele><time>2026-04-11T11:23:02.858Z</time></trkpt><trkpt lat="44.9865968" lon="9.2545953"><ele>188.0</ele><time>2026-04-11T11:23:03.857Z</time></trkpt><trkpt lat="44.9864681" lon="9.2544896"><ele>188.0</ele><time>2026-04-11T11:23:04.858Z</time></trkpt><trkpt lat="44.9863579" lon="9.2543734"><ele>188.0</ele><time>2026-04-11T11:23:05.858Z</time></trkpt><trkpt lat="44.9862566" lon="9.2542332"><ele>188.0</ele><time>2026-04-11T11:23:06.858Z</time></trkpt><trkpt lat="44.9861659" lon="9.2540719"><ele>189.0</ele><time>2026-04-11T11:23:07.858Z</time></trkpt><trkpt lat="44.9860894" lon="9.2539042"><ele>190.0</ele><time>2026-04-11T11:23:08.858Z</time></trkpt><trkpt lat="44.9860325" lon="9.2537208"><ele>191.0</ele><time>2026-04-11T11:23:09.858Z</time></trkpt><trkpt lat="44.9859958" lon="9.2535259"><ele>192.0</ele><time>2026-04-11T11:23:10.858Z</time></trkpt><trkpt lat="44.9859764" lon="9.2533233"><ele>193.66666666666669</ele><time>2026-04-11T11:23:11.859Z</time></trkpt><trkpt lat="44.9859617" lon="9.2531123"><ele>195.33333333333334</ele><time>2026-04-11T11:23:12.859Z</time></trkpt><trkpt lat="44.9859436" lon="9.2528991"><ele>197.0</ele><time>2026-04-11T11:23:13.858Z</time></trkpt><trkpt lat="44.9859214" lon="9.2526834"><ele>197.0</ele><time>2026-04-11T11:23:14.859Z</time></trkpt><trkpt lat="44.9858802" lon="9.2524705"><ele>197.0</ele><time>2026-04-11T11:23:15.859Z</time></trkpt><trkpt lat="44.9858161" lon="9.2522687"><ele>197.0</ele><time>2026-04-11T11:23:16.858Z</time></trkpt><trkpt lat="44.9857236" lon="9.2520761"><ele>195.66666666666669</ele><time>2026-04-11T11:23:17.859Z</time></trkpt><trkpt lat="44.9856221" lon="9.2518929"><ele>194.33333333333331</ele><time>2026-04-11T11:23:18.859Z</time></trkpt><trkpt lat="44.9855203" lon="9.2516964"><ele>193.0</ele><time>2026-04-11T11:23:19.859Z</time></trkpt><trkpt lat="44.9854123" lon="9.2514977"><ele>196.66666666666666</ele><time>2026-04-11T11:23:20.858Z</time></trkpt><trkpt lat="44.9853038" lon="9.251284"><ele>200.33333333333331</ele><time>2026-04-11T11:23:21.858Z</time></trkpt><trkpt lat="44.9851944" lon="9.2510764"><ele>204.0</ele><time>2026-04-11T11:23:22.859Z</time></trkpt><trkpt lat="44.9850839" lon="9.250868"><ele>201.33333333333331</ele><time>2026-04-11T11:23:23.859Z</time></trkpt><trkpt lat="44.9849712" lon="9.250666"><ele>198.66666666666666</ele><time>2026-04-11T11:23:24.859Z</time></trkpt><trkpt lat="44.9848647" lon="9.2504584"><ele>196.0</ele><time>2026-04-11T11:23:25.859Z</time></trkpt><trkpt lat="44.9847599" lon="9.2502509"><ele>196.0</ele><time>2026-04-11T11:23:26.859Z</time></trkpt><trkpt lat="44.9846604" lon="9.250063"><ele>196.0</ele><time>2026-04-11T11:23:27.859Z</time></trkpt><trkpt lat="44.9845706" lon="9.2498891"><ele>196.0</ele><time>2026-04-11T11:23:28.859Z</time></trkpt><trkpt lat="44.9844871" lon="9.2497276"><ele>198.25</ele><time>2026-04-11T11:23:29.859Z</time></trkpt><trkpt lat="44.9844087" lon="9.2495641"><ele>200.5</ele><time>2026-04-11T11:23:30.858Z</time></trkpt><trkpt lat="44.9843403" lon="9.249389"><ele>202.75</ele><time>2026-04-11T11:23:31.858Z</time></trkpt><trkpt lat="44.9842768" lon="9.2492028"><ele>205.0</ele><time>2026-04-11T11:23:32.859Z</time></trkpt><trkpt lat="44.9842079" lon="9.2490131"><ele>202.5</ele><time>2026-04-11T11:23:33.858Z</time></trkpt><trkpt lat="44.9841394" lon="9.2488222"><ele>200.0</ele><time>2026-04-11T11:23:34.859Z</time></trkpt><trkpt lat="44.9840631" lon="9.2486524"><ele>197.5</ele><time>2026-04-11T11:23:35.859Z</time></trkpt><trkpt lat="44.9839663" lon="9.2485039"><ele>195.0</ele><time>2026-04-11T11:23:36.859Z</time></trkpt><trkpt lat="44.9838407" lon="9.2483752"><ele>195.0</ele><time>2026-04-11T11:23:37.859Z</time></trkpt><trkpt lat="44.9837062" lon="9.2482734"><ele>195.0</ele><time>2026-04-11T11:23:38.858Z</time></trkpt><trkpt lat="44.9835654" lon="9.2481621"><ele>195.0</ele><time>2026-04-11T11:23:39.859Z</time></trkpt><trkpt lat="44.983419" lon="9.2480491"><ele>194.66666666666669</ele><time>2026-04-11T11:23:40.859Z</time></trkpt><trkpt lat="44.9832772" lon="9.2479495"><ele>194.33333333333334</ele><time>2026-04-11T11:23:41.858Z</time></trkpt><trkpt lat="44.9831295" lon="9.2478435"><ele>194.0</ele><time>2026-04-11T11:23:42.859Z</time></trkpt><trkpt lat="44.9829789" lon="9.2477328"><ele>194.0</ele><time>2026-04-11T11:23:43.859Z</time></trkpt><trkpt lat="44.982822" lon="9.2476216"><ele>194.0</ele><time>2026-04-11T11:23:44.859Z</time></trkpt><trkpt lat="44.9826687" lon="9.2475073"><ele>194.0</ele><time>2026-04-11T11:23:45.858Z</time></trkpt><trkpt lat="44.9825197" lon="9.2474002"><ele>196.75</ele><time>2026-04-11T11:23:46.858Z</time></trkpt><trkpt lat="44.9823889" lon="9.247293"><ele>199.5</ele><time>2026-04-11T11:23:47.859Z</time></trkpt><trkpt lat="44.9822649" lon="9.2471881"><ele>202.25</ele><time>2026-04-11T11:23:48.859Z</time></trkpt><trkpt lat="44.9821366" lon="9.2470997"><ele>205.0</ele><time>2026-04-11T11:23:49.859Z</time></trkpt><trkpt lat="44.9819854" lon="9.2470413"><ele>205.0</ele><time>2026-04-11T11:23:50.859Z</time></trkpt><trkpt lat="44.9818401" lon="9.2470026"><ele>205.0</ele><time>2026-04-11T11:23:51.859Z</time></trkpt><trkpt lat="44.9816916" lon="9.2469871"><ele>205.0</ele><time>2026-04-11T11:23:52.858Z</time></trkpt><trkpt lat="44.9815469" lon="9.2469737"><ele>205.0</ele><time>2026-04-11T11:23:53.858Z</time></trkpt><trkpt lat="44.9814168" lon="9.2469678"><ele>205.25</ele><time>2026-04-11T11:23:54.859Z</time></trkpt><trkpt lat="44.9812974" lon="9.2469709"><ele>205.5</ele><time>2026-04-11T11:23:55.859Z</time></trkpt><trkpt lat="44.9811799" lon="9.2470057"><ele>205.75</ele><time>2026-04-11T11:23:56.859Z</time></trkpt><trkpt lat="44.9810704" lon="9.2470815"><ele>206.0</ele><time>2026-04-11T11:23:57.859Z</time></trkpt><trkpt lat="44.9809675" lon="9.2471843"><ele>206.0</ele><time>2026-04-11T11:23:58.858Z</time></trkpt><trkpt lat="44.9808691" lon="9.2472936"><ele>206.0</ele><time>2026-04-11T11:23:59.859Z</time></trkpt><trkpt lat="44.9807692" lon="9.2473897"><ele>206.0</ele><time>2026-04-11T11:24:00.86Z</time></trkpt><trkpt lat="44.9806349" lon="9.2474783"><ele>206.0</ele><time>2026-04-11T11:24:01.86Z</time></trkpt><trkpt lat="44.9805039" lon="9.2474748"><ele>203.0</ele><time>2026-04-11T11:24:02.859Z</time></trkpt><trkpt lat="44.9803616" lon="9.2474719"><ele>200.0</ele><time>2026-04-11T11:24:03.86Z</time></trkpt><trkpt lat="44.9802121" lon="9.2474698"><ele>197.0</ele><time>2026-04-11T11:24:04.86Z</time></trkpt><trkpt lat="44.9800502" lon="9.2474714"><ele>197.0</ele><time>2026-04-11T11:24:05.859Z</time></trkpt><trkpt lat="44.9798934" lon="9.2474771"><ele>197.0</ele><time>2026-04-11T11:24:06.859Z</time></trkpt><trkpt lat="44.979735" lon="9.247485"><ele>197.0</ele><time>2026-04-11T11:24:07.86Z</time></trkpt><trkpt lat="44.9795663" lon="9.2474819"><ele>197.0</ele><time>2026-04-11T11:24:08.859Z</time></trkpt><trkpt lat="44.9794003" lon="9.2474824"><ele>197.0</ele><time>2026-04-11T11:24:09.86Z</time></trkpt><trkpt lat="44.9792337" lon="9.2474904"><ele>197.0</ele><time>2026-04-11T11:24:10.86Z</time></trkpt><trkpt lat="44.9790645" lon="9.2475341"><ele>197.66666666666669</ele><time>2026-04-11T11:24:11.86Z</time></trkpt><trkpt lat="44.9789044" lon="9.2475972"><ele>198.33333333333331</ele><time>2026-04-11T11:24:12.859Z</time></trkpt><trkpt lat="44.978742" lon="9.2476565"><ele>199.0</ele><time>2026-04-11T11:24:13.86Z</time></trkpt><trkpt lat="44.9785748" lon="9.2477038"><ele>199.0</ele><time>2026-04-11T11:24:14.86Z</time></trkpt><trkpt lat="44.9784074" lon="9.2477421"><ele>199.0</ele><time>2026-04-11T11:24:15.86Z</time></trkpt><trkpt lat="44.9782659" lon="9.2478046"><ele>199.0</ele><time>2026-04-11T11:24:16.86Z</time></trkpt><trkpt lat="44.9781257" lon="9.2478406"><ele>199.75</ele><time>2026-04-11T11:24:17.86Z</time></trkpt><trkpt lat="44.9779837" lon="9.2478746"><ele>200.5</ele><time>2026-04-11T11:24:18.859Z</time></trkpt><trkpt lat="44.9778439" lon="9.247908"><ele>201.25</ele><time>2026-04-11T11:24:19.86Z</time></trkpt><trkpt lat="44.9777049" lon="9.2479422"><ele>202.0</ele><time>2026-04-11T11:24:20.86Z</time></trkpt><trkpt lat="44.9775612" lon="9.247969"><ele>201.5</ele><time>2026-04-11T11:24:21.86Z</time></trkpt><trkpt lat="44.9774181" lon="9.247973"><ele>201.0</ele><time>2026-04-11T11:24:22.86Z</time></trkpt><trkpt lat="44.9772697" lon="9.2479661"><ele>200.5</ele><time>2026-04-11T11:24:23.86Z</time></trkpt><trkpt lat="44.9771234" lon="9.2479766"><ele>200.0</ele><time>2026-04-11T11:24:24.86Z</time></trkpt><trkpt lat="44.9769752" lon="9.2480108"><ele>200.0</ele><time>2026-04-11T11:24:25.86Z</time></trkpt><trkpt lat="44.976824" lon="9.248059"><ele>200.0</ele><time>2026-04-11T11:24:26.86Z</time></trkpt><trkpt lat="44.9766775" lon="9.2481338"><ele>200.0</ele><time>2026-04-11T11:24:27.86Z</time></trkpt><trkpt lat="44.9765261" lon="9.2482019"><ele>204.0</ele><time>2026-04-11T11:24:28.86Z</time></trkpt><trkpt lat="44.9763724" lon="9.2482676"><ele>208.0</ele><time>2026-04-11T11:24:29.86Z</time></trkpt><trkpt lat="44.9762118" lon="9.2483247"><ele>212.0</ele><time>2026-04-11T11:24:30.86Z</time></trkpt><trkpt lat="44.9760497" lon="9.2483773"><ele>212.0</ele><time>2026-04-11T11:24:31.86Z</time></trkpt><trkpt lat="44.9758917" lon="9.2484419"><ele>212.0</ele><time>2026-04-11T11:24:32.86Z</time></trkpt><trkpt lat="44.9757289" lon="9.2484982"><ele>212.0</ele><time>2026-04-11T11:24:33.86Z</time></trkpt><trkpt lat="44.975567" lon="9.248559"><ele>210.0</ele><time>2026-04-11T11:24:34.86Z</time></trkpt><trkpt lat="44.9754061" lon="9.2486232"><ele>208.0</ele><time>2026-04-11T11:24:35.86Z</time></trkpt><trkpt lat="44.9752449" lon="9.2486863"><ele>206.0</ele><time>2026-04-11T11:24:36.86Z</time></trkpt><trkpt lat="44.9750867" lon="9.2487408"><ele>206.25</ele><time>2026-04-11T11:24:37.859Z</time></trkpt><trkpt lat="44.9749358" lon="9.2487921"><ele>206.5</ele><time>2026-04-11T11:24:38.86Z</time></trkpt><trkpt lat="44.9747924" lon="9.248837"><ele>206.75</ele><time>2026-04-11T11:24:39.86Z</time></trkpt><trkpt lat="44.9746518" lon="9.2488831"><ele>207.0</ele><time>2026-04-11T11:24:40.859Z</time></trkpt><trkpt lat="44.9745095" lon="9.2489459"><ele>208.66666666666669</ele><time>2026-04-11T11:24:41.859Z</time></trkpt><trkpt lat="44.9743728" lon="9.249033"><ele>210.33333333333334</ele><time>2026-04-11T11:24:42.86Z</time></trkpt><trkpt lat="44.9742407" lon="9.2491463"><ele>212.0</ele><time>2026-04-11T11:24:43.86Z</time></trkpt><trkpt lat="44.9741094" lon="9.2492777"><ele>212.0</ele><time>2026-04-11T11:24:44.86Z</time></trkpt><trkpt lat="44.973982" lon="9.2494205"><ele>212.0</ele><time>2026-04-11T11:24:45.86Z</time></trkpt><trkpt lat="44.9738657" lon="9.2495522"><ele>212.0</ele><time>2026-04-11T11:24:46.86Z</time></trkpt><trkpt lat="44.973759" lon="9.2496789"><ele>212.0</ele><time>2026-04-11T11:24:47.859Z</time></trkpt><trkpt lat="44.9736636" lon="9.2497875"><ele>212.0</ele><time>2026-04-11T11:24:48.861Z</time></trkpt><trkpt lat="44.9735784" lon="9.2498847"><ele>212.0</ele><time>2026-04-11T11:24:49.861Z</time></trkpt><trkpt lat="44.9734995" lon="9.2499765"><ele>212.0</ele><time>2026-04-11T11:24:50.861Z</time></trkpt><trkpt lat="44.973423" lon="9.2500633"><ele>212.0</ele><time>2026-04-11T11:24:51.86Z</time></trkpt><trkpt lat="44.9733441" lon="9.2501528"><ele>211.75</ele><time>2026-04-11T11:24:52.861Z</time></trkpt><trkpt lat="44.9732639" lon="9.2502455"><ele>211.5</ele><time>2026-04-11T11:24:53.861Z</time></trkpt><trkpt lat="44.9731784" lon="9.2503427"><ele>211.25</ele><time>2026-04-11T11:24:54.861Z</time></trkpt><trkpt lat="44.973086" lon="9.2504443"><ele>211.0</ele><time>2026-04-11T11:24:55.861Z</time></trkpt><trkpt lat="44.9729918" lon="9.2505537"><ele>211.75</ele><time>2026-04-11T11:24:56.861Z</time></trkpt><trkpt lat="44.9728837" lon="9.2506779"><ele>212.5</ele><time>2026-04-11T11:24:57.861Z</time></trkpt><trkpt lat="44.9727695" lon="9.2508075"><ele>213.25</ele><time>2026-04-11T11:24:58.861Z</time></trkpt><trkpt lat="44.9726516" lon="9.2509403"><ele>214.0</ele><time>2026-04-11T11:24:59.861Z</time></trkpt><trkpt lat="44.9725398" lon="9.2510717"><ele>214.0</ele><time>2026-04-11T11:25:00.86Z</time></trkpt><trkpt lat="44.9724221" lon="9.2512076"><ele>214.0</ele><time>2026-04-11T11:25:01.86Z</time></trkpt><trkpt lat="44.9722973" lon="9.251347"><ele>214.0</ele><time>2026-04-11T11:25:02.861Z</time></trkpt><trkpt lat="44.9721697" lon="9.2514972"><ele>214.0</ele><time>2026-04-11T11:25:03.861Z</time></trkpt><trkpt lat="44.9720376" lon="9.2516398"><ele>214.0</ele><time>2026-04-11T11:25:04.861Z</time></trkpt><trkpt lat="44.9719038" lon="9.2517922"><ele>214.0</ele><time>2026-04-11T11:25:05.86Z</time></trkpt><trkpt lat="44.9717658" lon="9.2519411"><ele>215.0</ele><time>2026-04-11T11:25:06.861Z</time></trkpt><trkpt lat="44.9716285" lon="9.2520974"><ele>216.0</ele><time>2026-04-11T11:25:07.861Z</time></trkpt><trkpt lat="44.9714935" lon="9.2522453"><ele>217.0</ele><time>2026-04-11T11:25:08.861Z</time></trkpt><trkpt lat="44.9713696" lon="9.2523881"><ele>217.5</ele><time>2026-04-11T11:25:09.861Z</time></trkpt><trkpt lat="44.9712574" lon="9.2525133"><ele>218.0</ele><time>2026-04-11T11:25:10.861Z</time></trkpt><trkpt lat="44.9711551" lon="9.2526333"><ele>218.5</ele><time>2026-04-11T11:25:11.861Z</time></trkpt><trkpt lat="44.9710488" lon="9.2527537"><ele>219.0</ele><time>2026-04-11T11:25:12.861Z</time></trkpt><trkpt lat="44.9709316" lon="9.2528621"><ele>218.0</ele><time>2026-04-11T11:25:13.861Z</time></trkpt><trkpt lat="44.9707985" lon="9.2529562"><ele>217.0</ele><time>2026-04-11T11:25:14.86Z</time></trkpt><trkpt lat="44.9706513" lon="9.2530171"><ele>216.0</ele><time>2026-04-11T11:25:15.861Z</time></trkpt><trkpt lat="44.9704952" lon="9.2530824"><ele>216.66666666666669</ele><time>2026-04-11T11:25:16.861Z</time></trkpt><trkpt lat="44.9703349" lon="9.2531582"><ele>217.33333333333334</ele><time>2026-04-11T11:25:17.861Z</time></trkpt><trkpt lat="44.9701748" lon="9.2532355"><ele>218.0</ele><time>2026-04-11T11:25:18.86Z</time></trkpt><trkpt lat="44.9700126" lon="9.2533147"><ele>218.0</ele><time>2026-04-11T11:25:19.861Z</time></trkpt><trkpt lat="44.9698504" lon="9.2533889"><ele>218.0</ele><time>2026-04-11T11:25:20.861Z</time></trkpt><trkpt lat="44.9696866" lon="9.2534653"><ele>218.0</ele><time>2026-04-11T11:25:21.861Z</time></trkpt><trkpt lat="44.9695213" lon="9.2535411"><ele>218.0</ele><time>2026-04-11T11:25:22.86Z</time></trkpt><trkpt lat="44.9693665" lon="9.2536107"><ele>218.0</ele><time>2026-04-11T11:25:23.861Z</time></trkpt><trkpt lat="44.9692285" lon="9.2536787"><ele>218.0</ele><time>2026-04-11T11:25:24.86Z</time></trkpt><trkpt lat="44.969104" lon="9.2537314"><ele>218.0</ele><time>2026-04-11T11:25:25.861Z</time></trkpt><trkpt lat="44.9689921" lon="9.2537779"><ele>219.0</ele><time>2026-04-11T11:25:26.861Z</time></trkpt><trkpt lat="44.9688806" lon="9.2538427"><ele>220.0</ele><time>2026-04-11T11:25:27.86Z</time></trkpt><trkpt lat="44.9687755" lon="9.2539381"><ele>221.0</ele><time>2026-04-11T11:25:28.861Z</time></trkpt><trkpt lat="44.9686787" lon="9.2540385"><ele>222.0</ele><time>2026-04-11T11:25:29.861Z</time></trkpt><trkpt lat="44.968575" lon="9.2541197"><ele>223.25</ele><time>2026-04-11T11:25:30.861Z</time></trkpt><trkpt lat="44.9684619" lon="9.2541661"><ele>224.5</ele><time>2026-04-11T11:25:31.861Z</time></trkpt><trkpt lat="44.968341" lon="9.2541671"><ele>225.75</ele><time>2026-04-11T11:25:32.861Z</time></trkpt><trkpt lat="44.9682135" lon="9.2541285"><ele>227.0</ele><time>2026-04-11T11:25:33.861Z</time></trkpt><trkpt lat="44.9680823" lon="9.254054"><ele>226.33333333333334</ele><time>2026-04-11T11:25:34.861Z</time></trkpt><trkpt lat="44.9679451" lon="9.2539855"><ele>225.66666666666669</ele><time>2026-04-11T11:25:35.861Z</time></trkpt><trkpt lat="44.9678015" lon="9.2539213"><ele>225.0</ele><time>2026-04-11T11:25:36.861Z</time></trkpt><trkpt lat="44.9676567" lon="9.2538388"><ele>226.25</ele><time>2026-04-11T11:25:37.862Z</time></trkpt><trkpt lat="44.9675183" lon="9.2537428"><ele>227.5</ele><time>2026-04-11T11:25:38.862Z</time></trkpt><trkpt lat="44.9673933" lon="9.2536556"><ele>228.75</ele><time>2026-04-11T11:25:39.862Z</time></trkpt><trkpt lat="44.9672744" lon="9.2535861"><ele>230.0</ele><time>2026-04-11T11:25:40.862Z</time></trkpt><trkpt lat="44.9671498" lon="9.2535413"><ele>230.0</ele><time>2026-04-11T11:25:41.862Z</time></trkpt><trkpt lat="44.9670166" lon="9.2535135"><ele>230.0</ele><time>2026-04-11T11:25:42.862Z</time></trkpt><trkpt lat="44.9668782" lon="9.2534918"><ele>230.0</ele><time>2026-04-11T11:25:43.861Z</time></trkpt><trkpt lat="44.9667386" lon="9.253475"><ele>230.0</ele><time>2026-04-11T11:25:44.861Z</time></trkpt><trkpt lat="44.9666036" lon="9.2534445"><ele>232.25</ele><time>2026-04-11T11:25:45.862Z</time></trkpt><trkpt lat="44.9664773" lon="9.2533877"><ele>234.5</ele><time>2026-04-11T11:25:46.862Z</time></trkpt><trkpt lat="44.9663577" lon="9.2533017"><ele>236.75</ele><time>2026-04-11T11:25:47.862Z</time></trkpt><trkpt lat="44.966253" lon="9.2532046"><ele>239.0</ele><time>2026-04-11T11:25:48.862Z</time></trkpt><trkpt lat="44.9661434" lon="9.2531302"><ele>239.25</ele><time>2026-04-11T11:25:49.862Z</time></trkpt><trkpt lat="44.9660108" lon="9.2530874"><ele>239.5</ele><time>2026-04-11T11:25:50.862Z</time></trkpt><trkpt lat="44.9658681" lon="9.253078"><ele>239.75</ele><time>2026-04-11T11:25:51.862Z</time></trkpt><trkpt lat="44.9657259" lon="9.253092"><ele>240.0</ele><time>2026-04-11T11:25:52.862Z</time></trkpt><trkpt lat="44.9655906" lon="9.2531222"><ele>240.0</ele><time>2026-04-11T11:25:53.862Z</time></trkpt><trkpt lat="44.965441" lon="9.2531333"><ele>240.0</ele><time>2026-04-11T11:25:54.862Z</time></trkpt><trkpt lat="44.9652957" lon="9.2531028"><ele>240.0</ele><time>2026-04-11T11:25:55.862Z</time></trkpt><trkpt lat="44.9651509" lon="9.2530393"><ele>240.0</ele><time>2026-04-11T11:25:56.862Z</time></trkpt><trkpt lat="44.9650102" lon="9.252963"><ele>241.0</ele><time>2026-04-11T11:25:57.862Z</time></trkpt><trkpt lat="44.9648687" lon="9.2528925"><ele>242.0</ele><time>2026-04-11T11:25:58.862Z</time></trkpt><trkpt lat="44.9647276" lon="9.2528446"><ele>243.0</ele><time>2026-04-11T11:25:59.861Z</time></trkpt><trkpt lat="44.9645867" lon="9.2528085"><ele>244.0</ele><time>2026-04-11T11:26:00.862Z</time></trkpt><trkpt lat="44.9644433" lon="9.2527812"><ele>244.0</ele><time>2026-04-11T11:26:01.862Z</time></trkpt><trkpt lat="44.9643043" lon="9.2527506"><ele>244.0</ele><time>2026-04-11T11:26:02.862Z</time></trkpt><trkpt lat="44.9641729" lon="9.2527111"><ele>244.0</ele><time>2026-04-11T11:26:03.862Z</time></trkpt><trkpt lat="44.9640475" lon="9.2526549"><ele>244.0</ele><time>2026-04-11T11:26:04.862Z</time></trkpt><trkpt lat="44.9639341" lon="9.2525789"><ele>245.0</ele><time>2026-04-11T11:26:05.862Z</time></trkpt><trkpt lat="44.9638324" lon="9.252521"><ele>246.0</ele><time>2026-04-11T11:26:06.862Z</time></trkpt><trkpt lat="44.9637223" lon="9.2524942"><ele>247.0</ele><time>2026-04-11T11:26:07.862Z</time></trkpt><trkpt lat="44.9635947" lon="9.2524924"><ele>248.0</ele><time>2026-04-11T11:26:08.862Z</time></trkpt><trkpt lat="44.9634707" lon="9.2525017"><ele>248.75</ele><time>2026-04-11T11:26:09.861Z</time></trkpt><trkpt lat="44.9633431" lon="9.2525163"><ele>249.5</ele><time>2026-04-11T11:26:10.862Z</time></trkpt><trkpt lat="44.9632105" lon="9.2525337"><ele>250.25</ele><time>2026-04-11T11:26:11.862Z</time></trkpt><trkpt lat="44.9630791" lon="9.2525364"><ele>251.0</ele><time>2026-04-11T11:26:12.861Z</time></trkpt><trkpt lat="44.9629576" lon="9.2525453"><ele>251.0</ele><time>2026-04-11T11:26:13.862Z</time></trkpt><trkpt lat="44.9628527" lon="9.252552"><ele>251.00000000000003</ele><time>2026-04-11T11:26:14.862Z</time></trkpt><trkpt lat="44.9627551" lon="9.2525439"><ele>251.00000000000003</ele><time>2026-04-11T11:26:15.862Z</time></trkpt><trkpt lat="44.962664" lon="9.2525218"><ele>251.0</ele><time>2026-04-11T11:26:16.862Z</time></trkpt><trkpt lat="44.9625806" lon="9.2524885"><ele>251.0</ele><time>2026-04-11T11:26:17.862Z</time></trkpt><trkpt lat="44.9624958" lon="9.2524381"><ele>251.4</ele><time>2026-04-11T11:26:18.862Z</time></trkpt><trkpt lat="44.9624031" lon="9.252365"><ele>251.8</ele><time>2026-04-11T11:26:19.862Z</time></trkpt><trkpt lat="44.9623041" lon="9.2522827"><ele>252.20000000000002</ele><time>2026-04-11T11:26:20.861Z</time></trkpt><trkpt lat="44.9622079" lon="9.2522013"><ele>252.60000000000002</ele><time>2026-04-11T11:26:21.862Z</time></trkpt><trkpt lat="44.9621003" lon="9.2521493"><ele>253.0</ele><time>2026-04-11T11:26:22.862Z</time></trkpt><trkpt lat="44.9619935" lon="9.2521365"><ele>253.25</ele><time>2026-04-11T11:26:23.861Z</time></trkpt><trkpt lat="44.9618874" lon="9.2521638"><ele>253.5</ele><time>2026-04-11T11:26:24.862Z</time></trkpt><trkpt lat="44.9617862" lon="9.2522265"><ele>253.75</ele><time>2026-04-11T11:26:25.862Z</time></trkpt><trkpt lat="44.9616897" lon="9.2523279"><ele>254.0</ele><time>2026-04-11T11:26:26.863Z</time></trkpt><trkpt lat="44.9615966" lon="9.2524547"><ele>254.0</ele><time>2026-04-11T11:26:27.863Z</time></trkpt><trkpt lat="44.9615075" lon="9.2525961"><ele>254.0</ele><time>2026-04-11T11:26:28.862Z</time></trkpt><trkpt lat="44.9614176" lon="9.252716"><ele>254.0</ele><time>2026-04-11T11:26:29.863Z</time></trkpt><trkpt lat="44.9613244" lon="9.2528288"><ele>254.0</ele><time>2026-04-11T11:26:30.863Z</time></trkpt><trkpt lat="44.9612246" lon="9.2529337"><ele>254.0</ele><time>2026-04-11T11:26:31.863Z</time></trkpt><trkpt lat="44.9611127" lon="9.2530203"><ele>254.0</ele><time>2026-04-11T11:26:32.863Z</time></trkpt><trkpt lat="44.9609854" lon="9.2530785"><ele>254.0</ele><time>2026-04-11T11:26:33.863Z</time></trkpt><trkpt lat="44.960847" lon="9.2531128"><ele>254.0</ele><time>2026-04-11T11:26:34.863Z</time></trkpt><trkpt lat="44.9607071" lon="9.2531403"><ele>255.25</ele><time>2026-04-11T11:26:35.863Z</time></trkpt><trkpt lat="44.9605644" lon="9.2531668"><ele>256.5</ele><time>2026-04-11T11:26:36.862Z</time></trkpt><trkpt lat="44.9604494" lon="9.2531956"><ele>257.75</ele><time>2026-04-11T11:26:37.863Z</time></trkpt><trkpt lat="44.9603352" lon="9.2532104"><ele>259.0</ele><time>2026-04-11T11:26:38.863Z</time></trkpt><trkpt lat="44.9602236" lon="9.2531955"><ele>259.0</ele><time>2026-04-11T11:26:39.863Z</time></trkpt><trkpt lat="44.9601207" lon="9.2531587"><ele>259.0</ele><time>2026-04-11T11:26:40.863Z</time></trkpt><trkpt lat="44.9600186" lon="9.2531227"><ele>259.0</ele><time>2026-04-11T11:26:41.863Z</time></trkpt><trkpt lat="44.9599102" lon="9.2531131"><ele>259.0</ele><time>2026-04-11T11:26:42.863Z</time></trkpt><trkpt lat="44.9597924" lon="9.253144"><ele>259.0</ele><time>2026-04-11T11:26:43.863Z</time></trkpt><trkpt lat="44.9596721" lon="9.2532052"><ele>258.5</ele><time>2026-04-11T11:26:44.863Z</time></trkpt><trkpt lat="44.9595471" lon="9.2532662"><ele>258.0</ele><time>2026-04-11T11:26:45.863Z</time></trkpt><trkpt lat="44.9594119" lon="9.2533065"><ele>257.5</ele><time>2026-04-11T11:26:46.863Z</time></trkpt><trkpt lat="44.9592792" lon="9.2533281"><ele>257.0</ele><time>2026-04-11T11:26:47.863Z</time></trkpt><trkpt lat="44.959155" lon="9.2533415"><ele>258.5</ele><time>2026-04-11T11:26:48.863Z</time></trkpt><trkpt lat="44.9590319" lon="9.2533508"><ele>260.0</ele><time>2026-04-11T11:26:49.863Z</time></trkpt><trkpt lat="44.9588993" lon="9.2533794"><ele>261.5</ele><time>2026-04-11T11:26:50.863Z</time></trkpt><trkpt lat="44.9587673" lon="9.2534296"><ele>263.0</ele><time>2026-04-11T11:26:51.862Z</time></trkpt><trkpt lat="44.9586397" lon="9.2534944"><ele>263.0</ele><time>2026-04-11T11:26:52.863Z</time></trkpt><trkpt lat="44.9585115" lon="9.2535479"><ele>263.0</ele><time>2026-04-11T11:26:53.863Z</time></trkpt><trkpt lat="44.9583847" lon="9.2536293"><ele>263.0</ele><time>2026-04-11T11:26:54.863Z</time></trkpt><trkpt lat="44.9582575" lon="9.2537193"><ele>263.0</ele><time>2026-04-11T11:26:55.863Z</time></trkpt><trkpt lat="44.9581314" lon="9.2538255"><ele>263.0</ele><time>2026-04-11T11:26:56.863Z</time></trkpt><trkpt lat="44.9580146" lon="9.2539208"><ele>263.0</ele><time>2026-04-11T11:26:57.863Z</time></trkpt><trkpt lat="44.9579041" lon="9.2539898"><ele>263.0</ele><time>2026-04-11T11:26:58.863Z</time></trkpt><trkpt lat="44.9577998" lon="9.2540405"><ele>263.0</ele><time>2026-04-11T11:26:59.863Z</time></trkpt><trkpt lat="44.957699" lon="9.2540693"><ele>263.0</ele><time>2026-04-11T11:27:00.863Z</time></trkpt><trkpt lat="44.9575885" lon="9.2540829"><ele>263.0</ele><time>2026-04-11T11:27:01.863Z</time></trkpt><trkpt lat="44.957482" lon="9.2541041"><ele>263.0</ele><time>2026-04-11T11:27:02.862Z</time></trkpt><trkpt lat="44.9573841" lon="9.254105"><ele>263.0</ele><time>2026-04-11T11:27:03.863Z</time></trkpt><trkpt lat="44.9572835" lon="9.2541035"><ele>263.0</ele><time>2026-04-11T11:27:04.862Z</time></trkpt><trkpt lat="44.9571925" lon="9.2540926"><ele>261.75</ele><time>2026-04-11T11:27:05.863Z</time></trkpt><trkpt lat="44.9570876" lon="9.2540775"><ele>260.5</ele><time>2026-04-11T11:27:06.863Z</time></trkpt><trkpt lat="44.9569751" lon="9.2540532"><ele>259.25</ele><time>2026-04-11T11:27:07.863Z</time></trkpt><trkpt lat="44.9568544" lon="9.2540171"><ele>258.0</ele><time>2026-04-11T11:27:08.863Z</time></trkpt><trkpt lat="44.9567276" lon="9.2539695"><ele>257.0</ele><time>2026-04-11T11:27:09.863Z</time></trkpt><trkpt lat="44.9566047" lon="9.253915"><ele>256.0</ele><time>2026-04-11T11:27:10.863Z</time></trkpt><trkpt lat="44.9564884" lon="9.253869"><ele>255.0</ele><time>2026-04-11T11:27:11.862Z</time></trkpt><trkpt lat="44.9563734" lon="9.2538343"><ele>254.0</ele><time>2026-04-11T11:27:12.863Z</time></trkpt><trkpt lat="44.9562528" lon="9.2538187"><ele>254.0</ele><time>2026-04-11T11:27:13.864Z</time></trkpt><trkpt lat="44.956129" lon="9.2538295"><ele>254.0</ele><time>2026-04-11T11:27:14.864Z</time></trkpt><trkpt lat="44.9560006" lon="9.2538545"><ele>254.0</ele><time>2026-04-11T11:27:15.864Z</time></trkpt><trkpt lat="44.9558753" lon="9.2539046"><ele>254.0</ele><time>2026-04-11T11:27:16.864Z</time></trkpt><trkpt lat="44.9557581" lon="9.2539779"><ele>254.79999999999998</ele><time>2026-04-11T11:27:17.864Z</time></trkpt><trkpt lat="44.9556581" lon="9.2540607"><ele>255.59999999999997</ele><time>2026-04-11T11:27:18.864Z</time></trkpt><trkpt lat="44.955572" lon="9.2541475"><ele>256.4</ele><time>2026-04-11T11:27:19.864Z</time></trkpt><trkpt lat="44.9554842" lon="9.2542068"><ele>257.2</ele><time>2026-04-11T11:27:20.864Z</time></trkpt><trkpt lat="44.9553922" lon="9.2542316"><ele>258.0</ele><time>2026-04-11T11:27:21.864Z</time></trkpt><trkpt lat="44.9552948" lon="9.2542131"><ele>258.0</ele><time>2026-04-11T11:27:22.864Z</time></trkpt><trkpt lat="44.9551903" lon="9.2541481"><ele>258.0</ele><time>2026-04-11T11:27:23.863Z</time></trkpt><trkpt lat="44.9550884" lon="9.2540784"><ele>258.0</ele><time>2026-04-11T11:27:24.863Z</time></trkpt><trkpt lat="44.9550038" lon="9.2540163"><ele>258.0</ele><time>2026-04-11T11:27:25.864Z</time></trkpt><trkpt lat="44.9549428" lon="9.2539288"><ele>258.0</ele><time>2026-04-11T11:27:26.864Z</time></trkpt><trkpt lat="44.9549054" lon="9.2538165"><ele>259.0</ele><time>2026-04-11T11:27:27.864Z</time></trkpt><trkpt lat="44.9549084" lon="9.2536901"><ele>260.0</ele><time>2026-04-11T11:27:28.864Z</time></trkpt><trkpt lat="44.9549326" lon="9.2535571"><ele>261.0</ele><time>2026-04-11T11:27:29.864Z</time></trkpt><trkpt lat="44.9549681" lon="9.2534169"><ele>262.0</ele><time>2026-04-11T11:27:30.863Z</time></trkpt><trkpt lat="44.9549901" lon="9.2532782"><ele>263.0</ele><time>2026-04-11T11:27:31.864Z</time></trkpt><trkpt lat="44.9549935" lon="9.2531554"><ele>263.0</ele><time>2026-04-11T11:27:32.864Z</time></trkpt><trkpt lat="44.9549571" lon="9.2530211"><ele>263.0</ele><time>2026-04-11T11:27:33.864Z</time></trkpt><trkpt lat="44.9548991" lon="9.252924"><ele>263.0</ele><time>2026-04-11T11:27:34.864Z</time></trkpt><trkpt lat="44.9548129" lon="9.2528565"><ele>263.0</ele><time>2026-04-11T11:27:35.864Z</time></trkpt><trkpt lat="44.954707" lon="9.2528153"><ele>263.0</ele><time>2026-04-11T11:27:36.863Z</time></trkpt><trkpt lat="44.9545857" lon="9.2527956"><ele>263.0</ele><time>2026-04-11T11:27:37.864Z</time></trkpt><trkpt lat="44.9544639" lon="9.2527945"><ele>263.0</ele><time>2026-04-11T11:27:38.864Z</time></trkpt><trkpt lat="44.9543509" lon="9.2527917"><ele>263.0</ele><time>2026-04-11T11:27:39.863Z</time></trkpt><trkpt lat="44.9542327" lon="9.2527911"><ele>263.0</ele><time>2026-04-11T11:27:40.864Z</time></trkpt><trkpt lat="44.9541367" lon="9.2527786"><ele>263.0</ele><time>2026-04-11T11:27:41.864Z</time></trkpt><trkpt lat="44.9540242" lon="9.2528008"><ele>264.5</ele><time>2026-04-11T11:27:42.864Z</time></trkpt><trkpt lat="44.9539101" lon="9.2528015"><ele>266.0</ele><time>2026-04-11T11:27:43.864Z</time></trkpt><trkpt lat="44.9537958" lon="9.2527798"><ele>267.5</ele><time>2026-04-11T11:27:44.864Z</time></trkpt><trkpt lat="44.9536824" lon="9.252721"><ele>269.0</ele><time>2026-04-11T11:27:45.864Z</time></trkpt><trkpt lat="44.9535773" lon="9.2526345"><ele>269.0</ele><time>2026-04-11T11:27:46.864Z</time></trkpt><trkpt lat="44.9534826" lon="9.2525385"><ele>269.0</ele><time>2026-04-11T11:27:47.864Z</time></trkpt><trkpt lat="44.9533861" lon="9.2524476"><ele>269.0</ele><time>2026-04-11T11:27:48.864Z</time></trkpt><trkpt lat="44.9532772" lon="9.2523727"><ele>269.0</ele><time>2026-04-11T11:27:49.864Z</time></trkpt><trkpt lat="44.9531653" lon="9.2523253"><ele>269.8</ele><time>2026-04-11T11:27:50.864Z</time></trkpt><trkpt lat="44.953055" lon="9.2523087"><ele>270.59999999999997</ele><time>2026-04-11T11:27:51.864Z</time></trkpt><trkpt lat="44.9529457" lon="9.2523033"><ele>271.4</ele><time>2026-04-11T11:27:52.864Z</time></trkpt><trkpt lat="44.9528427" lon="9.2522821"><ele>272.2</ele><time>2026-04-11T11:27:53.864Z</time></trkpt><trkpt lat="44.9527541" lon="9.2522241"><ele>273.0</ele><time>2026-04-11T11:27:54.864Z</time></trkpt><trkpt lat="44.9526847" lon="9.2521217"><ele>273.0</ele><time>2026-04-11T11:27:55.864Z</time></trkpt><trkpt lat="44.9526338" lon="9.2519971"><ele>273.0</ele><time>2026-04-11T11:27:56.864Z</time></trkpt><trkpt lat="44.9525961" lon="9.2518695"><ele>273.0</ele><time>2026-04-11T11:27:57.864Z</time></trkpt><trkpt lat="44.9525555" lon="9.2517782"><ele>273.0</ele><time>2026-04-11T11:27:58.864Z</time></trkpt><trkpt lat="44.9525048" lon="9.2517238"><ele>273.0</ele><time>2026-04-11T11:27:59.864Z</time></trkpt><trkpt lat="44.9523762" lon="9.2517083"><ele>273.6666666666667</ele><time>2026-04-11T11:28:01.863Z</time></trkpt><trkpt lat="44.9523074" lon="9.2517473"><ele>274.3333333333333</ele><time>2026-04-11T11:28:02.865Z</time></trkpt><trkpt lat="44.9522614" lon="9.2518216"><ele>275.0</ele><time>2026-04-11T11:28:03.865Z</time></trkpt><trkpt lat="44.9522089" lon="9.2519115"><ele>275.66666666666663</ele><time>2026-04-11T11:28:04.865Z</time></trkpt><trkpt lat="44.9521602" lon="9.2520049"><ele>276.3333333333333</ele><time>2026-04-11T11:28:05.864Z</time></trkpt><trkpt lat="44.9521093" lon="9.2521109"><ele>277.0</ele><time>2026-04-11T11:28:06.865Z</time></trkpt><trkpt lat="44.9520508" lon="9.2522175"><ele>279.6</ele><time>2026-04-11T11:28:07.865Z</time></trkpt><trkpt lat="44.9519796" lon="9.2523138"><ele>282.2</ele><time>2026-04-11T11:28:08.864Z</time></trkpt><trkpt lat="44.9518949" lon="9.2523938"><ele>284.8</ele><time>2026-04-11T11:28:09.865Z</time></trkpt><trkpt lat="44.9518039" lon="9.2524475"><ele>287.4</ele><time>2026-04-11T11:28:10.865Z</time></trkpt><trkpt lat="44.9517081" lon="9.2524664"><ele>290.0</ele><time>2026-04-11T11:28:11.865Z</time></trkpt><trkpt lat="44.9516153" lon="9.2524553"><ele>291.0</ele><time>2026-04-11T11:28:12.865Z</time></trkpt><trkpt lat="44.9515259" lon="9.2524175"><ele>292.0</ele><time>2026-04-11T11:28:13.865Z</time></trkpt><trkpt lat="44.9514399" lon="9.2523542"><ele>293.0</ele><time>2026-04-11T11:28:14.865Z</time></trkpt><trkpt lat="44.9513565" lon="9.252311"><ele>294.0</ele><time>2026-04-11T11:28:15.865Z</time></trkpt><trkpt lat="44.9512711" lon="9.2523139"><ele>295.0</ele><time>2026-04-11T11:28:16.865Z</time></trkpt><trkpt lat="44.9511978" lon="9.2523694"><ele>296.0</ele><time>2026-04-11T11:28:17.864Z</time></trkpt><trkpt lat="44.9511325" lon="9.2524568"><ele>296.0</ele><time>2026-04-11T11:28:18.865Z</time></trkpt><trkpt lat="44.9510555" lon="9.2525665"><ele>296.0</ele><time>2026-04-11T11:28:19.865Z</time></trkpt><trkpt lat="44.9509851" lon="9.2526185"><ele>296.0</ele><time>2026-04-11T11:28:20.864Z</time></trkpt><trkpt lat="44.9509161" lon="9.2526199"><ele>296.0</ele><time>2026-04-11T11:28:21.865Z</time></trkpt><trkpt lat="44.9508577" lon="9.25258"><ele>296.0</ele><time>2026-04-11T11:28:22.865Z</time></trkpt><trkpt lat="44.9508128" lon="9.2524996"><ele>296.0</ele><time>2026-04-11T11:28:23.865Z</time></trkpt><trkpt lat="44.9507637" lon="9.2523859"><ele>295.6</ele><time>2026-04-11T11:28:24.865Z</time></trkpt><trkpt lat="44.9506905" lon="9.2522668"><ele>295.20000000000005</ele><time>2026-04-11T11:28:25.865Z</time></trkpt><trkpt lat="44.9506229" lon="9.2522134"><ele>294.79999999999995</ele><time>2026-04-11T11:28:26.865Z</time></trkpt><trkpt lat="44.9505394" lon="9.2522038"><ele>294.4</ele><time>2026-04-11T11:28:27.865Z</time></trkpt><trkpt lat="44.9504526" lon="9.2522338"><ele>294.0</ele><time>2026-04-11T11:28:28.865Z</time></trkpt><trkpt lat="44.9503654" lon="9.2522901"><ele>295.0</ele><time>2026-04-11T11:28:29.865Z</time></trkpt><trkpt lat="44.9502791" lon="9.252372"><ele>296.0</ele><time>2026-04-11T11:28:30.865Z</time></trkpt><trkpt lat="44.9502262" lon="9.2524926"><ele>297.0</ele><time>2026-04-11T11:28:31.864Z</time></trkpt><trkpt lat="44.9502058" lon="9.2526417"><ele>298.0</ele><time>2026-04-11T11:28:32.865Z</time></trkpt><trkpt lat="44.95019" lon="9.2527988"><ele>299.0</ele><time>2026-04-11T11:28:33.865Z</time></trkpt><trkpt lat="44.950173" lon="9.2529431"><ele>299.0</ele><time>2026-04-11T11:28:34.865Z</time></trkpt><trkpt lat="44.950156" lon="9.2530626"><ele>299.0</ele><time>2026-04-11T11:28:35.865Z</time></trkpt><trkpt lat="44.9501656" lon="9.2531742"><ele>299.0</ele><time>2026-04-11T11:28:36.865Z</time></trkpt><trkpt lat="44.9502071" lon="9.2532642"><ele>299.0</ele><time>2026-04-11T11:28:37.865Z</time></trkpt><trkpt lat="44.9502913" lon="9.2533458"><ele>299.0</ele><time>2026-04-11T11:28:38.865Z</time></trkpt><trkpt lat="44.9503767" lon="9.2533765"><ele>299.0</ele><time>2026-04-11T11:28:39.865Z</time></trkpt><trkpt lat="44.9504707" lon="9.2534105"><ele>300.83333333333337</ele><time>2026-04-11T11:28:40.865Z</time></trkpt><trkpt lat="44.9505608" lon="9.2534573"><ele>302.6666666666667</ele><time>2026-04-11T11:28:41.865Z</time></trkpt><trkpt lat="44.9506271" lon="9.2535181"><ele>304.5</ele><time>2026-04-11T11:28:42.865Z</time></trkpt><trkpt lat="44.9506826" lon="9.2535739"><ele>306.3333333333333</ele><time>2026-04-11T11:28:43.864Z</time></trkpt><trkpt lat="44.9507338" lon="9.2536346"><ele>308.16666666666663</ele><time>2026-04-11T11:28:44.865Z</time></trkpt><trkpt lat="44.9507784" lon="9.2537074"><ele>310.0</ele><time>2026-04-11T11:28:45.864Z</time></trkpt><trkpt lat="44.9508135" lon="9.253798"><ele>310.0</ele><time>2026-04-11T11:28:46.865Z</time></trkpt><trkpt lat="44.9508174" lon="9.2538934"><ele>310.0</ele><time>2026-04-11T11:28:47.865Z</time></trkpt><trkpt lat="44.9507881" lon="9.2539844"><ele>310.0</ele><time>2026-04-11T11:28:48.865Z</time></trkpt><trkpt lat="44.9507267" lon="9.2540541"><ele>310.0</ele><time>2026-04-11T11:28:49.865Z</time></trkpt><trkpt lat="44.9506405" lon="9.2540881"><ele>310.0</ele><time>2026-04-11T11:28:50.866Z</time></trkpt><trkpt lat="44.9505407" lon="9.2540778"><ele>310.0</ele><time>2026-04-11T11:28:51.865Z</time></trkpt><trkpt lat="44.9504313" lon="9.2540367"><ele>310.0</ele><time>2026-04-11T11:28:52.866Z</time></trkpt><trkpt lat="44.9503264" lon="9.2539872"><ele>310.0</ele><time>2026-04-11T11:28:53.866Z</time></trkpt><trkpt lat="44.9502309" lon="9.2539449"><ele>310.0</ele><time>2026-04-11T11:28:54.865Z</time></trkpt><trkpt lat="44.9501096" lon="9.2539084"><ele>310.0</ele><time>2026-04-11T11:28:55.866Z</time></trkpt><trkpt lat="44.9499945" lon="9.2538951"><ele>310.4</ele><time>2026-04-11T11:28:56.866Z</time></trkpt><trkpt lat="44.9498841" lon="9.253902"><ele>310.8</ele><time>2026-04-11T11:28:57.865Z</time></trkpt><trkpt lat="44.949779" lon="9.2539263"><ele>311.2</ele><time>2026-04-11T11:28:58.866Z</time></trkpt><trkpt lat="44.9496773" lon="9.2539632"><ele>311.6</ele><time>2026-04-11T11:28:59.866Z</time></trkpt><trkpt lat="44.94958" lon="9.2540156"><ele>312.0</ele><time>2026-04-11T11:29:00.866Z</time></trkpt><trkpt lat="44.9494895" lon="9.2540896"><ele>312.8333333333333</ele><time>2026-04-11T11:29:01.866Z</time></trkpt><trkpt lat="44.9494173" lon="9.2541767"><ele>313.6666666666667</ele><time>2026-04-11T11:29:02.866Z</time></trkpt><trkpt lat="44.9493524" lon="9.2542614"><ele>314.5</ele><time>2026-04-11T11:29:03.866Z</time></trkpt><trkpt lat="44.9492875" lon="9.2543485"><ele>315.33333333333337</ele><time>2026-04-11T11:29:04.866Z</time></trkpt><trkpt lat="44.9492347" lon="9.2544117"><ele>316.1666666666667</ele><time>2026-04-11T11:29:05.866Z</time></trkpt><trkpt lat="44.9491757" lon="9.254505"><ele>317.0</ele><time>2026-04-11T11:29:06.866Z</time></trkpt><trkpt lat="44.949147" lon="9.2546279"><ele>317.83333333333337</ele><time>2026-04-11T11:29:07.866Z</time></trkpt><trkpt lat="44.9491394" lon="9.2547626"><ele>318.6666666666667</ele><time>2026-04-11T11:29:08.866Z</time></trkpt><trkpt lat="44.9491398" lon="9.2548861"><ele>319.5</ele><time>2026-04-11T11:29:09.866Z</time></trkpt><trkpt lat="44.9491142" lon="9.2549886"><ele>320.3333333333333</ele><time>2026-04-11T11:29:10.866Z</time></trkpt><trkpt lat="44.949046" lon="9.2550511"><ele>321.16666666666663</ele><time>2026-04-11T11:29:11.866Z</time></trkpt><trkpt lat="44.9489465" lon="9.2550673"><ele>322.0</ele><time>2026-04-11T11:29:12.866Z</time></trkpt><trkpt lat="44.9488436" lon="9.2550633"><ele>322.66666666666663</ele><time>2026-04-11T11:29:13.866Z</time></trkpt><trkpt lat="44.9487476" lon="9.2550617"><ele>323.3333333333333</ele><time>2026-04-11T11:29:14.866Z</time></trkpt><trkpt lat="44.9486659" lon="9.2550786"><ele>324.0</ele><time>2026-04-11T11:29:15.866Z</time></trkpt><trkpt lat="44.9486113" lon="9.2551324"><ele>324.6666666666667</ele><time>2026-04-11T11:29:16.865Z</time></trkpt><trkpt lat="44.9485843" lon="9.2552241"><ele>325.33333333333337</ele><time>2026-04-11T11:29:17.866Z</time></trkpt><trkpt lat="44.9485832" lon="9.2553395"><ele>326.0</ele><time>2026-04-11T11:29:18.866Z</time></trkpt><trkpt lat="44.9486156" lon="9.2554522"><ele>326.0</ele><time>2026-04-11T11:29:19.866Z</time></trkpt><trkpt lat="44.9486795" lon="9.255554"><ele>326.0</ele><time>2026-04-11T11:29:20.866Z</time></trkpt><trkpt lat="44.9487555" lon="9.2556574"><ele>326.0</ele><time>2026-04-11T11:29:21.866Z</time></trkpt><trkpt lat="44.9488158" lon="9.2557664"><ele>326.0</ele><time>2026-04-11T11:29:22.866Z</time></trkpt><trkpt lat="44.9488491" lon="9.2558758"><ele>326.0</ele><time>2026-04-11T11:29:23.866Z</time></trkpt><trkpt lat="44.9488538" lon="9.2559834"><ele>326.83333333333337</ele><time>2026-04-11T11:29:24.866Z</time></trkpt><trkpt lat="44.9488323" lon="9.256095"><ele>327.6666666666667</ele><time>2026-04-11T11:29:25.865Z</time></trkpt><trkpt lat="44.9487975" lon="9.2561792"><ele>328.5</ele><time>2026-04-11T11:29:26.866Z</time></trkpt><trkpt lat="44.9487556" lon="9.2562508"><ele>329.3333333333333</ele><time>2026-04-11T11:29:27.866Z</time></trkpt><trkpt lat="44.9486964" lon="9.2563114"><ele>330.16666666666663</ele><time>2026-04-11T11:29:28.865Z</time></trkpt><trkpt lat="44.9486213" lon="9.2563585"><ele>331.0</ele><time>2026-04-11T11:29:29.866Z</time></trkpt><trkpt lat="44.9485406" lon="9.2563955"><ele>331.0</ele><time>2026-04-11T11:29:30.865Z</time></trkpt><trkpt lat="44.9484544" lon="9.256416"><ele>331.0</ele><time>2026-04-11T11:29:31.866Z</time></trkpt><trkpt lat="44.9483736" lon="9.2564002"><ele>331.0</ele><time>2026-04-11T11:29:32.866Z</time></trkpt><trkpt lat="44.9482946" lon="9.25633"><ele>331.0</ele><time>2026-04-11T11:29:33.866Z</time></trkpt><trkpt lat="44.9482218" lon="9.256226"><ele>331.0</ele><time>2026-04-11T11:29:34.866Z</time></trkpt><trkpt lat="44.9481534" lon="9.2561153"><ele>333.20000000000005</ele><time>2026-04-11T11:29:35.866Z</time></trkpt><trkpt lat="44.9480846" lon="9.2559975"><ele>335.40000000000003</ele><time>2026-04-11T11:29:36.866Z</time></trkpt><trkpt lat="44.9480115" lon="9.2558866"><ele>337.6</ele><time>2026-04-11T11:29:37.866Z</time></trkpt><trkpt lat="44.947931" lon="9.2558002"><ele>339.8</ele><time>2026-04-11T11:29:38.867Z</time></trkpt><trkpt lat="44.9478491" lon="9.2557509"><ele>342.0</ele><time>2026-04-11T11:29:39.867Z</time></trkpt><trkpt lat="44.9477632" lon="9.2557263"><ele>342.0</ele><time>2026-04-11T11:29:40.867Z</time></trkpt><trkpt lat="44.9476786" lon="9.2556892"><ele>342.0</ele><time>2026-04-11T11:29:41.867Z</time></trkpt><trkpt lat="44.9475859" lon="9.2556623"><ele>342.0</ele><time>2026-04-11T11:29:42.867Z</time></trkpt><trkpt lat="44.9475016" lon="9.2556547"><ele>342.0</ele><time>2026-04-11T11:29:43.867Z</time></trkpt><trkpt lat="44.9474224" lon="9.2556806"><ele>342.0</ele><time>2026-04-11T11:29:44.866Z</time></trkpt><trkpt lat="44.9473679" lon="9.2557325"><ele>342.0</ele><time>2026-04-11T11:29:45.866Z</time></trkpt><trkpt lat="44.9473028" lon="9.255886"><ele>344.0</ele><time>2026-04-11T11:29:47.867Z</time></trkpt><trkpt lat="44.9472907" lon="9.2559854"><ele>346.0</ele><time>2026-04-11T11:29:48.867Z</time></trkpt><trkpt lat="44.9472988" lon="9.2560964"><ele>348.0</ele><time>2026-04-11T11:29:49.867Z</time></trkpt><trkpt lat="44.9473322" lon="9.2562183"><ele>350.0</ele><time>2026-04-11T11:29:50.867Z</time></trkpt><trkpt lat="44.9473852" lon="9.2563305"><ele>352.0</ele><time>2026-04-11T11:29:51.867Z</time></trkpt><trkpt lat="44.9474397" lon="9.256438"><ele>354.0</ele><time>2026-04-11T11:29:52.866Z</time></trkpt><trkpt lat="44.9474926" lon="9.2565444"><ele>355.0</ele><time>2026-04-11T11:29:53.866Z</time></trkpt><trkpt lat="44.9475217" lon="9.2566715"><ele>356.0</ele><time>2026-04-11T11:29:54.866Z</time></trkpt><trkpt lat="44.9475235" lon="9.2567921"><ele>357.0</ele><time>2026-04-11T11:29:55.866Z</time></trkpt><trkpt lat="44.9474895" lon="9.2569178"><ele>358.0</ele><time>2026-04-11T11:29:56.867Z</time></trkpt><trkpt lat="44.9474205" lon="9.2570386"><ele>359.0</ele><time>2026-04-11T11:29:57.867Z</time></trkpt><trkpt lat="44.9473316" lon="9.2571411"><ele>359.0</ele><time>2026-04-11T11:29:58.866Z</time></trkpt><trkpt lat="44.9472447" lon="9.2572471"><ele>359.0</ele><time>2026-04-11T11:29:59.867Z</time></trkpt><trkpt lat="44.9471614" lon="9.2573679"><ele>359.0</ele><time>2026-04-11T11:30:00.867Z</time></trkpt><trkpt lat="44.9470921" lon="9.2575013"><ele>359.0</ele><time>2026-04-11T11:30:01.867Z</time></trkpt><trkpt lat="44.9470271" lon="9.2576365"><ele>359.0</ele><time>2026-04-11T11:30:02.866Z</time></trkpt><trkpt lat="44.9469574" lon="9.2577484"><ele>359.0</ele><time>2026-04-11T11:30:03.867Z</time></trkpt><trkpt lat="44.9468793" lon="9.2578243"><ele>359.0</ele><time>2026-04-11T11:30:04.867Z</time></trkpt><trkpt lat="44.9467982" lon="9.2578572"><ele>359.0</ele><time>2026-04-11T11:30:05.867Z</time></trkpt><trkpt lat="44.9467118" lon="9.2578659"><ele>359.0</ele><time>2026-04-11T11:30:06.867Z</time></trkpt><trkpt lat="44.9466319" lon="9.2578417"><ele>361.1666666666667</ele><time>2026-04-11T11:30:07.867Z</time></trkpt><trkpt lat="44.9465557" lon="9.2577819"><ele>363.33333333333337</ele><time>2026-04-11T11:30:08.867Z</time></trkpt><trkpt lat="44.9464947" lon="9.2576905"><ele>365.5</ele><time>2026-04-11T11:30:09.867Z</time></trkpt><trkpt lat="44.946467" lon="9.2575873"><ele>367.6666666666667</ele><time>2026-04-11T11:30:10.867Z</time></trkpt><trkpt lat="44.9464541" lon="9.2574646"><ele>369.8333333333333</ele><time>2026-04-11T11:30:11.866Z</time></trkpt><trkpt lat="44.946445" lon="9.2573193"><ele>372.0</ele><time>2026-04-11T11:30:12.867Z</time></trkpt><trkpt lat="44.9464417" lon="9.2571604"><ele>372.25</ele><time>2026-04-11T11:30:13.867Z</time></trkpt><trkpt lat="44.9464414" lon="9.2569915"><ele>372.5</ele><time>2026-04-11T11:30:14.867Z</time></trkpt><trkpt lat="44.9464339" lon="9.25682"><ele>372.75</ele><time>2026-04-11T11:30:15.867Z</time></trkpt><trkpt lat="44.9464293" lon="9.2566457"><ele>373.0</ele><time>2026-04-11T11:30:16.866Z</time></trkpt><trkpt lat="44.9464297" lon="9.2564668"><ele>373.2</ele><time>2026-04-11T11:30:17.866Z</time></trkpt><trkpt lat="44.9464298" lon="9.2562964"><ele>373.4</ele><time>2026-04-11T11:30:18.867Z</time></trkpt><trkpt lat="44.9464264" lon="9.2561386"><ele>373.59999999999997</ele><time>2026-04-11T11:30:19.867Z</time></trkpt><trkpt lat="44.9464057" lon="9.2559966"><ele>373.79999999999995</ele><time>2026-04-11T11:30:20.867Z</time></trkpt><trkpt lat="44.9463621" lon="9.2558491"><ele>374.0</ele><time>2026-04-11T11:30:21.867Z</time></trkpt><trkpt lat="44.9462942" lon="9.2557167"><ele>372.5</ele><time>2026-04-11T11:30:22.867Z</time></trkpt><trkpt lat="44.9462052" lon="9.255601"><ele>371.0</ele><time>2026-04-11T11:30:23.867Z</time></trkpt><trkpt lat="44.9461114" lon="9.2554842"><ele>369.5</ele><time>2026-04-11T11:30:24.867Z</time></trkpt><trkpt lat="44.9460114" lon="9.2553771"><ele>368.0</ele><time>2026-04-11T11:30:25.867Z</time></trkpt><trkpt lat="44.9458997" lon="9.2552968"><ele>371.2</ele><time>2026-04-11T11:30:26.867Z</time></trkpt><trkpt lat="44.9457856" lon="9.2552365"><ele>374.4</ele><time>2026-04-11T11:30:27.867Z</time></trkpt><trkpt lat="44.9456742" lon="9.2551823"><ele>377.59999999999997</ele><time>2026-04-11T11:30:28.868Z</time></trkpt><trkpt lat="44.9455798" lon="9.255118"><ele>380.79999999999995</ele><time>2026-04-11T11:30:29.868Z</time></trkpt><trkpt lat="44.9454897" lon="9.2550443"><ele>384.0</ele><time>2026-04-11T11:30:30.868Z</time></trkpt><trkpt lat="44.9454012" lon="9.2549641"><ele>384.0</ele><time>2026-04-11T11:30:31.868Z</time></trkpt><trkpt lat="44.9453253" lon="9.2548658"><ele>384.0</ele><time>2026-04-11T11:30:32.868Z</time></trkpt><trkpt lat="44.9452546" lon="9.2547457"><ele>384.0</ele><time>2026-04-11T11:30:33.868Z</time></trkpt><trkpt lat="44.9451938" lon="9.2546263"><ele>384.0</ele><time>2026-04-11T11:30:34.868Z</time></trkpt><trkpt lat="44.9451143" lon="9.2545328"><ele>384.0</ele><time>2026-04-11T11:30:35.868Z</time></trkpt><trkpt lat="44.9450194" lon="9.2544736"><ele>385.5</ele><time>2026-04-11T11:30:36.868Z</time></trkpt><trkpt lat="44.9449158" lon="9.2544434"><ele>387.0</ele><time>2026-04-11T11:30:37.868Z</time></trkpt><trkpt lat="44.9448033" lon="9.2544424"><ele>388.5</ele><time>2026-04-11T11:30:38.868Z</time></trkpt><trkpt lat="44.9446855" lon="9.2544475"><ele>390.0</ele><time>2026-04-11T11:30:39.868Z</time></trkpt><trkpt lat="44.9445676" lon="9.2544594"><ele>390.0</ele><time>2026-04-11T11:30:40.868Z</time></trkpt><trkpt lat="44.9444579" lon="9.2544851"><ele>390.0</ele><time>2026-04-11T11:30:41.868Z</time></trkpt><trkpt lat="44.9443656" lon="9.2545527"><ele>390.0</ele><time>2026-04-11T11:30:42.867Z</time></trkpt><trkpt lat="44.9442883" lon="9.2546474"><ele>390.0</ele><time>2026-04-11T11:30:43.868Z</time></trkpt><trkpt lat="44.9442199" lon="9.2547709"><ele>390.0</ele><time>2026-04-11T11:30:44.868Z</time></trkpt><trkpt lat="44.9441563" lon="9.2549109"><ele>393.5</ele><time>2026-04-11T11:30:45.868Z</time></trkpt><trkpt lat="44.9440923" lon="9.255048"><ele>397.0</ele><time>2026-04-11T11:30:46.867Z</time></trkpt><trkpt lat="44.9440267" lon="9.2551914"><ele>400.5</ele><time>2026-04-11T11:30:47.868Z</time></trkpt><trkpt lat="44.9439735" lon="9.2553457"><ele>404.0</ele><time>2026-04-11T11:30:48.868Z</time></trkpt><trkpt lat="44.9439353" lon="9.2555092"><ele>404.66666666666663</ele><time>2026-04-11T11:30:49.868Z</time></trkpt><trkpt lat="44.9439065" lon="9.2556612"><ele>405.3333333333333</ele><time>2026-04-11T11:30:50.867Z</time></trkpt><trkpt lat="44.943879" lon="9.2557806"><ele>406.0</ele><time>2026-04-11T11:30:51.868Z</time></trkpt><trkpt lat="44.9438261" lon="9.2558569"><ele>406.66666666666663</ele><time>2026-04-11T11:30:52.868Z</time></trkpt><trkpt lat="44.9437549" lon="9.2558899"><ele>407.3333333333333</ele><time>2026-04-11T11:30:53.868Z</time></trkpt><trkpt lat="44.943681" lon="9.2558626"><ele>408.0</ele><time>2026-04-11T11:30:54.868Z</time></trkpt><trkpt lat="44.943616" lon="9.25579"><ele>408.0</ele><time>2026-04-11T11:30:55.868Z</time></trkpt><trkpt lat="44.9435705" lon="9.2556756"><ele>408.0</ele><time>2026-04-11T11:30:56.867Z</time></trkpt><trkpt lat="44.943553" lon="9.2555479"><ele>408.0</ele><time>2026-04-11T11:30:57.867Z</time></trkpt><trkpt lat="44.9435372" lon="9.2553944"><ele>408.0</ele><time>2026-04-11T11:30:58.868Z</time></trkpt><trkpt lat="44.9435052" lon="9.2552404"><ele>408.0</ele><time>2026-04-11T11:30:59.868Z</time></trkpt><trkpt lat="44.9434489" lon="9.2550988"><ele>408.75</ele><time>2026-04-11T11:31:00.867Z</time></trkpt><trkpt lat="44.9433683" lon="9.2549713"><ele>409.5</ele><time>2026-04-11T11:31:01.868Z</time></trkpt><trkpt lat="44.9432879" lon="9.2548407"><ele>410.25</ele><time>2026-04-11T11:31:02.868Z</time></trkpt><trkpt lat="44.9432183" lon="9.2546843"><ele>411.0</ele><time>2026-04-11T11:31:03.868Z</time></trkpt><trkpt lat="44.9431716" lon="9.2545196"><ele>411.0</ele><time>2026-04-11T11:31:04.868Z</time></trkpt><trkpt lat="44.9431336" lon="9.2543515"><ele>411.0</ele><time>2026-04-11T11:31:05.868Z</time></trkpt><trkpt lat="44.943106" lon="9.2542119"><ele>411.0</ele><time>2026-04-11T11:31:06.867Z</time></trkpt><trkpt lat="44.9430743" lon="9.2541041"><ele>411.0</ele><time>2026-04-11T11:31:07.868Z</time></trkpt><trkpt lat="44.9430265" lon="9.2540202"><ele>411.0</ele><time>2026-04-11T11:31:08.868Z</time></trkpt><trkpt lat="44.9429515" lon="9.2539787"><ele>411.0</ele><time>2026-04-11T11:31:09.867Z</time></trkpt><trkpt lat="44.9428704" lon="9.2539975"><ele>411.0</ele><time>2026-04-11T11:31:10.868Z</time></trkpt><trkpt lat="44.9428184" lon="9.2540694"><ele>411.0</ele><time>2026-04-11T11:31:11.867Z</time></trkpt><trkpt lat="44.9427836" lon="9.2541832"><ele>411.0</ele><time>2026-04-11T11:31:12.868Z</time></trkpt><trkpt lat="44.942779" lon="9.2543141"><ele>411.0</ele><time>2026-04-11T11:31:13.868Z</time></trkpt><trkpt lat="44.9427851" lon="9.2544573"><ele>411.0</ele><time>2026-04-11T11:31:14.868Z</time></trkpt><trkpt lat="44.9427871" lon="9.2546059"><ele>411.0</ele><time>2026-04-11T11:31:15.869Z</time></trkpt><trkpt lat="44.9427837" lon="9.2547216"><ele>411.0</ele><time>2026-04-11T11:31:16.868Z</time></trkpt><trkpt lat="44.9427712" lon="9.2548195"><ele>411.0</ele><time>2026-04-11T11:31:17.869Z</time></trkpt><trkpt lat="44.9427247" lon="9.2549178"><ele>411.0</ele><time>2026-04-11T11:31:18.869Z</time></trkpt><trkpt lat="44.942656" lon="9.2550047"><ele>411.0</ele><time>2026-04-11T11:31:19.868Z</time></trkpt><trkpt lat="44.9425744" lon="9.2550856"><ele>411.0</ele><time>2026-04-11T11:31:20.869Z</time></trkpt><trkpt lat="44.9424868" lon="9.2551635"><ele>414.5</ele><time>2026-04-11T11:31:21.868Z</time></trkpt><trkpt lat="44.9423815" lon="9.2552163"><ele>418.0</ele><time>2026-04-11T11:31:22.869Z</time></trkpt><trkpt lat="44.9422719" lon="9.2552519"><ele>421.5</ele><time>2026-04-11T11:31:23.869Z</time></trkpt><trkpt lat="44.9421549" lon="9.2552733"><ele>425.0</ele><time>2026-04-11T11:31:24.869Z</time></trkpt><trkpt lat="44.9420413" lon="9.2553039"><ele>424.99999999999994</ele><time>2026-04-11T11:31:25.869Z</time></trkpt><trkpt lat="44.9419497" lon="9.2553141"><ele>425.0</ele><time>2026-04-11T11:31:26.869Z</time></trkpt><trkpt lat="44.9418772" lon="9.2552806"><ele>425.0</ele><time>2026-04-11T11:31:27.868Z</time></trkpt><trkpt lat="44.9418296" lon="9.2552117"><ele>425.0</ele><time>2026-04-11T11:31:28.869Z</time></trkpt><trkpt lat="44.9417949" lon="9.2551199"><ele>424.99999999999994</ele><time>2026-04-11T11:31:29.869Z</time></trkpt><trkpt lat="44.9418029" lon="9.2550221"><ele>425.0</ele><time>2026-04-11T11:31:30.869Z</time></trkpt><trkpt lat="44.9418549" lon="9.2549182"><ele>425.0</ele><time>2026-04-11T11:31:31.869Z</time></trkpt><trkpt lat="44.9419303" lon="9.254821"><ele>425.0</ele><time>2026-04-11T11:31:32.869Z</time></trkpt><trkpt lat="44.9420088" lon="9.2547157"><ele>425.0</ele><time>2026-04-11T11:31:33.869Z</time></trkpt><trkpt lat="44.9420808" lon="9.2546077"><ele>425.0</ele><time>2026-04-11T11:31:34.869Z</time></trkpt><trkpt lat="44.9421405" lon="9.2544745"><ele>425.0</ele><time>2026-04-11T11:31:35.869Z</time></trkpt><trkpt lat="44.942171" lon="9.2543125"><ele>425.75</ele><time>2026-04-11T11:31:36.869Z</time></trkpt><trkpt lat="44.9421788" lon="9.254138"><ele>426.5</ele><time>2026-04-11T11:31:37.869Z</time></trkpt><trkpt lat="44.9421626" lon="9.2539627"><ele>427.25</ele><time>2026-04-11T11:31:38.868Z</time></trkpt><trkpt lat="44.9421308" lon="9.2538015"><ele>428.0</ele><time>2026-04-11T11:31:39.869Z</time></trkpt><trkpt lat="44.9420901" lon="9.253652"><ele>428.0</ele><time>2026-04-11T11:31:40.869Z</time></trkpt><trkpt lat="44.9420355" lon="9.2535055"><ele>428.0</ele><time>2026-04-11T11:31:41.869Z</time></trkpt><trkpt lat="44.9419749" lon="9.2533489"><ele>428.0</ele><time>2026-04-11T11:31:42.869Z</time></trkpt><trkpt lat="44.9419133" lon="9.2531955"><ele>428.0</ele><time>2026-04-11T11:31:43.869Z</time></trkpt><trkpt lat="44.9418513" lon="9.2530598"><ele>428.2</ele><time>2026-04-11T11:31:44.869Z</time></trkpt><trkpt lat="44.9418053" lon="9.2529289"><ele>428.4</ele><time>2026-04-11T11:31:45.869Z</time></trkpt><trkpt lat="44.9417716" lon="9.2527873"><ele>428.59999999999997</ele><time>2026-04-11T11:31:46.869Z</time></trkpt><trkpt lat="44.9417522" lon="9.2526472"><ele>428.79999999999995</ele><time>2026-04-11T11:31:47.869Z</time></trkpt><trkpt lat="44.9417379" lon="9.2525211"><ele>429.0</ele><time>2026-04-11T11:31:48.869Z</time></trkpt><trkpt lat="44.9417259" lon="9.252415"><ele>432.0</ele><time>2026-04-11T11:31:49.869Z</time></trkpt><trkpt lat="44.9416811" lon="9.2522542"><ele>435.0</ele><time>2026-04-11T11:31:51.868Z</time></trkpt><trkpt lat="44.941628" lon="9.2522062"><ele>438.0</ele><time>2026-04-11T11:31:52.869Z</time></trkpt><trkpt lat="44.9415252" lon="9.2522652"><ele>441.0</ele><time>2026-04-11T11:31:54.869Z</time></trkpt><trkpt lat="44.941517" lon="9.252361"><ele>444.0</ele><time>2026-04-11T11:31:55.869Z</time></trkpt><trkpt lat="44.9415278" lon="9.252474"><ele>447.0</ele><time>2026-04-11T11:31:56.868Z</time></trkpt><trkpt lat="44.9415378" lon="9.2525845"><ele>447.0</ele><time>2026-04-11T11:31:57.869Z</time></trkpt><trkpt lat="44.9415445" lon="9.2526915"><ele>447.0</ele><time>2026-04-11T11:31:58.869Z</time></trkpt><trkpt lat="44.9415541" lon="9.2528024"><ele>447.0</ele><time>2026-04-11T11:31:59.869Z</time></trkpt><trkpt lat="44.9415542" lon="9.2529164"><ele>447.0</ele><time>2026-04-11T11:32:00.869Z</time></trkpt><trkpt lat="44.9415388" lon="9.2530228"><ele>447.0</ele><time>2026-04-11T11:32:01.869Z</time></trkpt><trkpt lat="44.941502" lon="9.2531199"><ele>447.0</ele><time>2026-04-11T11:32:02.868Z</time></trkpt><trkpt lat="44.941446" lon="9.2531964"><ele>447.40000000000003</ele><time>2026-04-11T11:32:03.869Z</time></trkpt><trkpt lat="44.9413719" lon="9.2532505"><ele>447.80000000000007</ele><time>2026-04-11T11:32:04.87Z</time></trkpt><trkpt lat="44.9412864" lon="9.2532803"><ele>448.2</ele><time>2026-04-11T11:32:05.869Z</time></trkpt><trkpt lat="44.941193" lon="9.2533243"><ele>448.6</ele><time>2026-04-11T11:32:06.87Z</time></trkpt><trkpt lat="44.9411173" lon="9.25341"><ele>449.0</ele><time>2026-04-11T11:32:07.87Z</time></trkpt><trkpt lat="44.941053" lon="9.2535137"><ele>449.0</ele><time>2026-04-11T11:32:08.869Z</time></trkpt><trkpt lat="44.9409844" lon="9.2535869"><ele>449.0</ele><time>2026-04-11T11:32:09.87Z</time></trkpt><trkpt lat="44.9408857" lon="9.2536307"><ele>449.0</ele><time>2026-04-11T11:32:10.87Z</time></trkpt><trkpt lat="44.94078" lon="9.2536467"><ele>449.0</ele><time>2026-04-11T11:32:11.87Z</time></trkpt><trkpt lat="44.9406713" lon="9.2536611"><ele>449.0</ele><time>2026-04-11T11:32:12.87Z</time></trkpt><trkpt lat="44.9405593" lon="9.2536961"><ele>451.5</ele><time>2026-04-11T11:32:13.869Z</time></trkpt><trkpt lat="44.9404483" lon="9.2537432"><ele>454.0</ele><time>2026-04-11T11:32:14.87Z</time></trkpt><trkpt lat="44.9403316" lon="9.2537865"><ele>456.5</ele><time>2026-04-11T11:32:15.87Z</time></trkpt><trkpt lat="44.9402191" lon="9.2538262"><ele>459.0</ele><time>2026-04-11T11:32:16.87Z</time></trkpt><trkpt lat="44.9401126" lon="9.2538731"><ele>458.79999999999995</ele><time>2026-04-11T11:32:17.87Z</time></trkpt><trkpt lat="44.9400134" lon="9.2539161"><ele>458.59999999999997</ele><time>2026-04-11T11:32:18.87Z</time></trkpt><trkpt lat="44.939916" lon="9.2539431"><ele>458.4</ele><time>2026-04-11T11:32:19.87Z</time></trkpt><trkpt lat="44.9398221" lon="9.2539614"><ele>458.2</ele><time>2026-04-11T11:32:20.87Z</time></trkpt><trkpt lat="44.9397389" lon="9.2539926"><ele>458.0</ele><time>2026-04-11T11:32:21.87Z</time></trkpt><trkpt lat="44.9396526" lon="9.2540582"><ele>457.99999999999994</ele><time>2026-04-11T11:32:22.87Z</time></trkpt><trkpt lat="44.9395792" lon="9.2541561"><ele>458.0</ele><time>2026-04-11T11:32:23.87Z</time></trkpt><trkpt lat="44.9395089" lon="9.2542735"><ele>458.0</ele><time>2026-04-11T11:32:24.87Z</time></trkpt><trkpt lat="44.9394333" lon="9.2542984"><ele>458.0</ele><time>2026-04-11T11:32:25.87Z</time></trkpt><trkpt lat="44.9393821" lon="9.2543502"><ele>457.99999999999994</ele><time>2026-04-11T11:32:26.87Z</time></trkpt><trkpt lat="44.9393095" lon="9.2544313"><ele>458.0</ele><time>2026-04-11T11:32:28.87Z</time></trkpt><trkpt lat="44.9392305" lon="9.2545159"><ele>457.66666666666663</ele><time>2026-04-11T11:32:30.869Z</time></trkpt><trkpt lat="44.9391771" lon="9.2545786"><ele>457.3333333333333</ele><time>2026-04-11T11:32:31.87Z</time></trkpt><trkpt lat="44.9391156" lon="9.2546521"><ele>457.0</ele><time>2026-04-11T11:32:32.87Z</time></trkpt><trkpt lat="44.9390538" lon="9.2547362"><ele>456.66666666666663</ele><time>2026-04-11T11:32:33.869Z</time></trkpt><trkpt lat="44.9390049" lon="9.2548017"><ele>456.3333333333333</ele><time>2026-04-11T11:32:34.87Z</time></trkpt><trkpt lat="44.9389146" lon="9.2548557"><ele>456.0</ele><time>2026-04-11T11:32:36.87Z</time></trkpt><trkpt lat="44.9388135" lon="9.2548373"><ele>456.0</ele><time>2026-04-11T11:32:38.87Z</time></trkpt><trkpt lat="44.9387317" lon="9.2548356"><ele>456.0</ele><time>2026-04-11T11:32:39.87Z</time></trkpt><trkpt lat="44.9386292" lon="9.2548626"><ele>456.0</ele><time>2026-04-11T11:32:40.87Z</time></trkpt><trkpt lat="44.9385214" lon="9.254905"><ele>456.0</ele><time>2026-04-11T11:32:41.87Z</time></trkpt><trkpt lat="44.938403" lon="9.2549734"><ele>456.0</ele><time>2026-04-11T11:32:42.87Z</time></trkpt><trkpt lat="44.9382903" lon="9.255079"><ele>455.25</ele><time>2026-04-11T11:32:43.87Z</time></trkpt><trkpt lat="44.9381997" lon="9.2552158"><ele>454.5</ele><time>2026-04-11T11:32:44.87Z</time></trkpt><trkpt lat="44.9381547" lon="9.2553537"><ele>453.75</ele><time>2026-04-11T11:32:45.87Z</time></trkpt><trkpt lat="44.9380863" lon="9.2555059"><ele>453.0</ele><time>2026-04-11T11:32:46.87Z</time></trkpt><trkpt lat="44.9380333" lon="9.2556603"><ele>453.0</ele><time>2026-04-11T11:32:47.87Z</time></trkpt><trkpt lat="44.9379866" lon="9.2558165"><ele>452.99999999999994</ele><time>2026-04-11T11:32:48.87Z</time></trkpt><trkpt lat="44.9379518" lon="9.2559638"><ele>452.99999999999994</ele><time>2026-04-11T11:32:49.87Z</time></trkpt><trkpt lat="44.937934" lon="9.2560878"><ele>453.0</ele><time>2026-04-11T11:32:50.869Z</time></trkpt><trkpt lat="44.9379156" lon="9.2561859"><ele>453.0</ele><time>2026-04-11T11:32:51.869Z</time></trkpt><trkpt lat="44.937867" lon="9.2562812"><ele>453.0</ele><time>2026-04-11T11:32:53.871Z</time></trkpt><trkpt lat="44.9377277" lon="9.2563171"><ele>453.0</ele><time>2026-04-11T11:32:55.871Z</time></trkpt><trkpt lat="44.9375872" lon="9.256344"><ele>453.0</ele><time>2026-04-11T11:32:56.871Z</time></trkpt><trkpt lat="44.9374928" lon="9.2563379"><ele>453.0</ele><time>2026-04-11T11:32:57.871Z</time></trkpt><trkpt lat="44.9373943" lon="9.2563033"><ele>457.25</ele><time>2026-04-11T11:32:58.871Z</time></trkpt><trkpt lat="44.9373012" lon="9.2562053"><ele>461.5</ele><time>2026-04-11T11:32:59.871Z</time></trkpt><trkpt lat="44.9371902" lon="9.256088"><ele>465.75</ele><time>2026-04-11T11:33:00.871Z</time></trkpt><trkpt lat="44.9370694" lon="9.2559351"><ele>470.0</ele><time>2026-04-11T11:33:01.871Z</time></trkpt><trkpt lat="44.9369426" lon="9.2557611"><ele>472.3333333333333</ele><time>2026-04-11T11:33:02.87Z</time></trkpt><trkpt lat="44.9367982" lon="9.2555903"><ele>474.66666666666663</ele><time>2026-04-11T11:33:03.87Z</time></trkpt><trkpt lat="44.9366564" lon="9.2554395"><ele>477.0</ele><time>2026-04-11T11:33:04.871Z</time></trkpt><trkpt lat="44.9365006" lon="9.2553117"><ele>480.0</ele><time>2026-04-11T11:33:05.87Z</time></trkpt><trkpt lat="44.9363779" lon="9.2552743"><ele>483.00000000000006</ele><time>2026-04-11T11:33:06.87Z</time></trkpt><trkpt lat="44.9362566" lon="9.2552627"><ele>486.00000000000006</ele><time>2026-04-11T11:33:07.871Z</time></trkpt><trkpt lat="44.9361812" lon="9.2553332"><ele>489.0</ele><time>2026-04-11T11:33:08.871Z</time></trkpt><trkpt lat="44.9361006" lon="9.2553353"><ele>492.0</ele><time>2026-04-11T11:33:09.871Z</time></trkpt><trkpt lat="44.9360258" lon="9.2553171"><ele>492.0</ele><time>2026-04-11T11:33:11.871Z</time></trkpt><trkpt lat="44.9359325" lon="9.2553529"><ele>492.00000000000006</ele><time>2026-04-11T11:33:14.871Z</time></trkpt><trkpt lat="44.9357872" lon="9.2553623"><ele>492.00000000000006</ele><time>2026-04-11T11:33:15.871Z</time></trkpt><trkpt lat="44.9356921" lon="9.2553845"><ele>492.0</ele><time>2026-04-11T11:33:16.871Z</time></trkpt><trkpt lat="44.9356089" lon="9.2554308"><ele>492.0</ele><time>2026-04-11T11:33:17.871Z</time></trkpt><trkpt lat="44.9355097" lon="9.255508"><ele>489.0</ele><time>2026-04-11T11:33:18.871Z</time></trkpt><trkpt lat="44.9354252" lon="9.2556595"><ele>486.0</ele><time>2026-04-11T11:33:19.871Z</time></trkpt><trkpt lat="44.9353599" lon="9.25583"><ele>483.0</ele><time>2026-04-11T11:33:20.87Z</time></trkpt><trkpt lat="44.9353351" lon="9.2560223"><ele>480.0</ele><time>2026-04-11T11:33:21.87Z</time></trkpt><trkpt lat="44.9353142" lon="9.2561583"><ele>480.0</ele><time>2026-04-11T11:33:22.871Z</time></trkpt><trkpt lat="44.9352905" lon="9.2562677"><ele>480.0</ele><time>2026-04-11T11:33:23.871Z</time></trkpt><trkpt lat="44.9352589" lon="9.2563648"><ele>480.0</ele><time>2026-04-11T11:33:24.871Z</time></trkpt><trkpt lat="44.9351809" lon="9.2564675"><ele>480.0</ele><time>2026-04-11T11:33:26.871Z</time></trkpt><trkpt lat="44.9350835" lon="9.2565533"><ele>480.0</ele><time>2026-04-11T11:33:28.871Z</time></trkpt><trkpt lat="44.9350087" lon="9.2566255"><ele>479.5</ele><time>2026-04-11T11:33:29.871Z</time></trkpt><trkpt lat="44.9349241" lon="9.2566988"><ele>479.0</ele><time>2026-04-11T11:33:30.871Z</time></trkpt><trkpt lat="44.9348349" lon="9.2567864"><ele>478.5</ele><time>2026-04-11T11:33:31.871Z</time></trkpt><trkpt lat="44.9347287" lon="9.2568878"><ele>478.0</ele><time>2026-04-11T11:33:32.871Z</time></trkpt><trkpt lat="44.9346078" lon="9.2569833"><ele>478.0</ele><time>2026-04-11T11:33:33.871Z</time></trkpt><trkpt lat="44.934423" lon="9.2571356"><ele>478.0</ele><time>2026-04-11T11:33:34.871Z</time></trkpt><trkpt lat="44.9342882" lon="9.257258"><ele>478.0</ele><time>2026-04-11T11:33:35.871Z</time></trkpt><trkpt lat="44.9341286" lon="9.2573702"><ele>480.0</ele><time>2026-04-11T11:33:36.871Z</time></trkpt><trkpt lat="44.9339574" lon="9.2575013"><ele>482.0</ele><time>2026-04-11T11:33:37.87Z</time></trkpt><trkpt lat="44.9337955" lon="9.2576109"><ele>484.0</ele><time>2026-04-11T11:33:38.871Z</time></trkpt><trkpt lat="44.9336548" lon="9.2577377"><ele>484.0</ele><time>2026-04-11T11:33:39.87Z</time></trkpt><trkpt lat="44.9335149" lon="9.2578457"><ele>484.0</ele><time>2026-04-11T11:33:40.871Z</time></trkpt><trkpt lat="44.9333776" lon="9.2579596"><ele>484.0</ele><time>2026-04-11T11:33:41.872Z</time></trkpt><trkpt lat="44.9332256" lon="9.2580547"><ele>484.0</ele><time>2026-04-11T11:33:42.872Z</time></trkpt><trkpt lat="44.9330885" lon="9.2581447"><ele>484.0</ele><time>2026-04-11T11:33:43.871Z</time></trkpt><trkpt lat="44.9329459" lon="9.2582415"><ele>484.0</ele><time>2026-04-11T11:33:44.872Z</time></trkpt><trkpt lat="44.9328222" lon="9.2583074"><ele>484.0</ele><time>2026-04-11T11:33:45.872Z</time></trkpt><trkpt lat="44.9326751" lon="9.2583966"><ele>485.33333333333337</ele><time>2026-04-11T11:33:46.871Z</time></trkpt><trkpt lat="44.9325089" lon="9.2584527"><ele>486.66666666666663</ele><time>2026-04-11T11:33:47.872Z</time></trkpt><trkpt lat="44.9323523" lon="9.2584778"><ele>488.0</ele><time>2026-04-11T11:33:48.871Z</time></trkpt><trkpt lat="44.9321871" lon="9.258511"><ele>488.0</ele><time>2026-04-11T11:33:49.872Z</time></trkpt><trkpt lat="44.9320296" lon="9.2585335"><ele>488.0</ele><time>2026-04-11T11:33:50.872Z</time></trkpt><trkpt lat="44.9318766" lon="9.2585513"><ele>488.0</ele><time>2026-04-11T11:33:51.872Z</time></trkpt><trkpt lat="44.9317018" lon="9.258587"><ele>488.0</ele><time>2026-04-11T11:33:52.872Z</time></trkpt><trkpt lat="44.9315254" lon="9.2586362"><ele>488.0</ele><time>2026-04-11T11:33:53.872Z</time></trkpt><trkpt lat="44.9313569" lon="9.2586906"><ele>488.0</ele><time>2026-04-11T11:33:54.872Z</time></trkpt><trkpt lat="44.9311823" lon="9.2587697"><ele>488.0</ele><time>2026-04-11T11:33:55.872Z</time></trkpt><trkpt lat="44.9310248" lon="9.2588945"><ele>488.0</ele><time>2026-04-11T11:33:56.871Z</time></trkpt><trkpt lat="44.9308776" lon="9.259031"><ele>488.0</ele><time>2026-04-11T11:33:57.872Z</time></trkpt><trkpt lat="44.9307397" lon="9.2591513"><ele>487.75</ele><time>2026-04-11T11:33:58.871Z</time></trkpt><trkpt lat="44.9306144" lon="9.2592394"><ele>487.5</ele><time>2026-04-11T11:33:59.872Z</time></trkpt><trkpt lat="44.9304765" lon="9.2593253"><ele>487.25</ele><time>2026-04-11T11:34:00.872Z</time></trkpt><trkpt lat="44.9303382" lon="9.2593781"><ele>487.0</ele><time>2026-04-11T11:34:01.872Z</time></trkpt><trkpt lat="44.9302139" lon="9.2594165"><ele>487.0</ele><time>2026-04-11T11:34:02.872Z</time></trkpt><trkpt lat="44.9300855" lon="9.2594828"><ele>487.0</ele><time>2026-04-11T11:34:03.872Z</time></trkpt><trkpt lat="44.9299652" lon="9.2595765"><ele>487.0</ele><time>2026-04-11T11:34:04.872Z</time></trkpt><trkpt lat="44.9298524" lon="9.2596889"><ele>487.0</ele><time>2026-04-11T11:34:05.872Z</time></trkpt><trkpt lat="44.9297422" lon="9.2598249"><ele>485.5</ele><time>2026-04-11T11:34:06.872Z</time></trkpt><trkpt lat="44.9296471" lon="9.2599716"><ele>484.0</ele><time>2026-04-11T11:34:07.872Z</time></trkpt><trkpt lat="44.9295662" lon="9.2601281"><ele>482.5</ele><time>2026-04-11T11:34:08.871Z</time></trkpt><trkpt lat="44.9295019" lon="9.2602891"><ele>481.0</ele><time>2026-04-11T11:34:09.872Z</time></trkpt><trkpt lat="44.9294535" lon="9.2604502"><ele>481.0</ele><time>2026-04-11T11:34:10.872Z</time></trkpt><trkpt lat="44.9294031" lon="9.2605996"><ele>481.0</ele><time>2026-04-11T11:34:11.872Z</time></trkpt><trkpt lat="44.9293414" lon="9.260745"><ele>481.0</ele><time>2026-04-11T11:34:12.871Z</time></trkpt><trkpt lat="44.9292622" lon="9.2608857"><ele>481.0</ele><time>2026-04-11T11:34:13.872Z</time></trkpt><trkpt lat="44.929173" lon="9.2610247"><ele>483.25</ele><time>2026-04-11T11:34:14.872Z</time></trkpt><trkpt lat="44.9290826" lon="9.2611511"><ele>485.5</ele><time>2026-04-11T11:34:15.872Z</time></trkpt><trkpt lat="44.928995" lon="9.2612572"><ele>487.75</ele><time>2026-04-11T11:34:16.872Z</time></trkpt><trkpt lat="44.9289101" lon="9.2613492"><ele>490.0</ele><time>2026-04-11T11:34:17.872Z</time></trkpt><trkpt lat="44.9288309" lon="9.2614412"><ele>488.4</ele><time>2026-04-11T11:34:18.872Z</time></trkpt><trkpt lat="44.9287595" lon="9.2615496"><ele>486.8</ele><time>2026-04-11T11:34:19.872Z</time></trkpt><trkpt lat="44.9287028" lon="9.2616786"><ele>485.20000000000005</ele><time>2026-04-11T11:34:20.871Z</time></trkpt><trkpt lat="44.9286643" lon="9.2618248"><ele>483.6</ele><time>2026-04-11T11:34:21.872Z</time></trkpt><trkpt lat="44.9286199" lon="9.2619557"><ele>482.0</ele><time>2026-04-11T11:34:22.872Z</time></trkpt><trkpt lat="44.928583" lon="9.2620942"><ele>481.99999999999994</ele><time>2026-04-11T11:34:23.872Z</time></trkpt><trkpt lat="44.9285387" lon="9.2622186"><ele>482.0</ele><time>2026-04-11T11:34:24.871Z</time></trkpt><trkpt lat="44.9284903" lon="9.2623223"><ele>482.0</ele><time>2026-04-11T11:34:25.871Z</time></trkpt><trkpt lat="44.928438" lon="9.2624055"><ele>482.0</ele><time>2026-04-11T11:34:26.872Z</time></trkpt><trkpt lat="44.9283949" lon="9.2624788"><ele>481.99999999999994</ele><time>2026-04-11T11:34:27.871Z</time></trkpt><trkpt lat="44.9283246" lon="9.2626006"><ele>482.0</ele><time>2026-04-11T11:34:29.872Z</time></trkpt><trkpt lat="44.9282814" lon="9.2626708"><ele>483.3333333333333</ele><time>2026-04-11T11:34:31.872Z</time></trkpt><trkpt lat="44.9281862" lon="9.2626488"><ele>484.66666666666663</ele><time>2026-04-11T11:34:36.873Z</time></trkpt><trkpt lat="44.9281378" lon="9.2625794"><ele>486.0</ele><time>2026-04-11T11:34:37.873Z</time></trkpt><trkpt lat="44.9281019" lon="9.262479"><ele>487.33333333333337</ele><time>2026-04-11T11:34:38.873Z</time></trkpt><trkpt lat="44.9280516" lon="9.2623624"><ele>488.6666666666667</ele><time>2026-04-11T11:34:39.873Z</time></trkpt><trkpt lat="44.9279956" lon="9.2622356"><ele>490.0</ele><time>2026-04-11T11:34:40.873Z</time></trkpt><trkpt lat="44.9279334" lon="9.26211"><ele>491.0</ele><time>2026-04-11T11:34:41.873Z</time></trkpt><trkpt lat="44.9278695" lon="9.2619686"><ele>492.0</ele><time>2026-04-11T11:34:42.873Z</time></trkpt><trkpt lat="44.9278077" lon="9.2618296"><ele>493.0</ele><time>2026-04-11T11:34:43.872Z</time></trkpt><trkpt lat="44.9277448" lon="9.261691"><ele>494.0</ele><time>2026-04-11T11:34:44.873Z</time></trkpt><trkpt lat="44.9276771" lon="9.2615454"><ele>495.25</ele><time>2026-04-11T11:34:45.873Z</time></trkpt><trkpt lat="44.9276065" lon="9.2613926"><ele>496.5</ele><time>2026-04-11T11:34:46.872Z</time></trkpt><trkpt lat="44.9275376" lon="9.2612418"><ele>497.75</ele><time>2026-04-11T11:34:47.873Z</time></trkpt><trkpt lat="44.927471" lon="9.2611061"><ele>499.0</ele><time>2026-04-11T11:34:48.873Z</time></trkpt><trkpt lat="44.9273886" lon="9.2609917"><ele>499.5</ele><time>2026-04-11T11:34:49.873Z</time></trkpt><trkpt lat="44.9272846" lon="9.2609007"><ele>500.0</ele><time>2026-04-11T11:34:50.871Z</time></trkpt><trkpt lat="44.9271697" lon="9.2608279"><ele>500.5</ele><time>2026-04-11T11:34:51.873Z</time></trkpt><trkpt lat="44.9270616" lon="9.2607568"><ele>501.0</ele><time>2026-04-11T11:34:52.873Z</time></trkpt><trkpt lat="44.9269479" lon="9.260702"><ele>501.0</ele><time>2026-04-11T11:34:53.873Z</time></trkpt><trkpt lat="44.9268372" lon="9.2606444"><ele>501.0</ele><time>2026-04-11T11:34:54.873Z</time></trkpt><trkpt lat="44.926726" lon="9.2605746"><ele>501.0</ele><time>2026-04-11T11:34:55.873Z</time></trkpt><trkpt lat="44.9266159" lon="9.2604826"><ele>501.0</ele><time>2026-04-11T11:34:56.873Z</time></trkpt><trkpt lat="44.9265051" lon="9.2603902"><ele>503.5</ele><time>2026-04-11T11:34:57.872Z</time></trkpt><trkpt lat="44.9263977" lon="9.2602964"><ele>506.0</ele><time>2026-04-11T11:34:58.873Z</time></trkpt><trkpt lat="44.9262917" lon="9.2601928"><ele>508.5</ele><time>2026-04-11T11:34:59.872Z</time></trkpt><trkpt lat="44.9261844" lon="9.2600931"><ele>511.0</ele><time>2026-04-11T11:35:00.873Z</time></trkpt><trkpt lat="44.9260794" lon="9.259998"><ele>511.0</ele><time>2026-04-11T11:35:01.873Z</time></trkpt><trkpt lat="44.9259745" lon="9.2599015"><ele>511.0</ele><time>2026-04-11T11:35:02.873Z</time></trkpt><trkpt lat="44.9258699" lon="9.2598062"><ele>511.0</ele><time>2026-04-11T11:35:03.873Z</time></trkpt><trkpt lat="44.9257661" lon="9.2597142"><ele>511.0</ele><time>2026-04-11T11:35:04.873Z</time></trkpt><trkpt lat="44.9256663" lon="9.2596166"><ele>510.25</ele><time>2026-04-11T11:35:05.873Z</time></trkpt><trkpt lat="44.9255702" lon="9.2595179"><ele>509.5</ele><time>2026-04-11T11:35:06.873Z</time></trkpt><trkpt lat="44.9254682" lon="9.2594358"><ele>508.75</ele><time>2026-04-11T11:35:07.873Z</time></trkpt><trkpt lat="44.925354" lon="9.2593833"><ele>508.0</ele><time>2026-04-11T11:35:08.873Z</time></trkpt><trkpt lat="44.9252262" lon="9.2593635"><ele>508.0</ele><time>2026-04-11T11:35:09.873Z</time></trkpt><trkpt lat="44.9250878" lon="9.2593706"><ele>508.0</ele><time>2026-04-11T11:35:10.873Z</time></trkpt><trkpt lat="44.9249466" lon="9.2593945"><ele>508.0</ele><time>2026-04-11T11:35:11.873Z</time></trkpt><trkpt lat="44.9248038" lon="9.2594319"><ele>508.0</ele><time>2026-04-11T11:35:12.873Z</time></trkpt><trkpt lat="44.924665" lon="9.2594891"><ele>508.33333333333337</ele><time>2026-04-11T11:35:13.873Z</time></trkpt><trkpt lat="44.9245302" lon="9.2595821"><ele>508.66666666666663</ele><time>2026-04-11T11:35:14.872Z</time></trkpt><trkpt lat="44.9243996" lon="9.259709"><ele>509.0</ele><time>2026-04-11T11:35:15.873Z</time></trkpt><trkpt lat="44.9242702" lon="9.2598676"><ele>511.3333333333333</ele><time>2026-04-11T11:35:16.872Z</time></trkpt><trkpt lat="44.924132" lon="9.2600331"><ele>513.6666666666666</ele><time>2026-04-11T11:35:17.873Z</time></trkpt><trkpt lat="44.9239731" lon="9.2601845"><ele>516.0</ele><time>2026-04-11T11:35:18.874Z</time></trkpt><trkpt lat="44.9238018" lon="9.2603416"><ele>516.0</ele><time>2026-04-11T11:35:19.874Z</time></trkpt><trkpt lat="44.9236085" lon="9.2604772"><ele>516.0</ele><time>2026-04-11T11:35:20.873Z</time></trkpt><trkpt lat="44.9234047" lon="9.2606123"><ele>516.0</ele><time>2026-04-11T11:35:21.874Z</time></trkpt><trkpt lat="44.9232045" lon="9.2607409"><ele>517.6666666666666</ele><time>2026-04-11T11:35:22.874Z</time></trkpt><trkpt lat="44.923028" lon="9.2608607"><ele>519.3333333333333</ele><time>2026-04-11T11:35:23.874Z</time></trkpt><trkpt lat="44.922867" lon="9.2609699"><ele>521.0</ele><time>2026-04-11T11:35:24.873Z</time></trkpt><trkpt lat="44.9227265" lon="9.2610622"><ele>521.0</ele><time>2026-04-11T11:35:25.874Z</time></trkpt><trkpt lat="44.9226" lon="9.2611403"><ele>521.0</ele><time>2026-04-11T11:35:26.874Z</time></trkpt><trkpt lat="44.9224886" lon="9.2612223"><ele>521.0</ele><time>2026-04-11T11:35:27.874Z</time></trkpt><trkpt lat="44.9223948" lon="9.261309"><ele>521.0</ele><time>2026-04-11T11:35:28.874Z</time></trkpt><trkpt lat="44.9223241" lon="9.261424"><ele>523.2</ele><time>2026-04-11T11:35:29.874Z</time></trkpt><trkpt lat="44.9222834" lon="9.2615631"><ele>525.4000000000001</ele><time>2026-04-11T11:35:30.874Z</time></trkpt><trkpt lat="44.9222738" lon="9.2617127"><ele>527.6</ele><time>2026-04-11T11:35:31.874Z</time></trkpt><trkpt lat="44.9222816" lon="9.2618562"><ele>529.8000000000001</ele><time>2026-04-11T11:35:32.874Z</time></trkpt><trkpt lat="44.9222767" lon="9.2619671"><ele>532.0</ele><time>2026-04-11T11:35:33.874Z</time></trkpt><trkpt lat="44.9222489" lon="9.2620536"><ele>532.0</ele><time>2026-04-11T11:35:34.873Z</time></trkpt><trkpt lat="44.9221989" lon="9.2621282"><ele>532.0</ele><time>2026-04-11T11:35:35.874Z</time></trkpt><trkpt lat="44.9221112" lon="9.262176"><ele>532.0</ele><time>2026-04-11T11:35:36.874Z</time></trkpt><trkpt lat="44.922018" lon="9.2622042"><ele>532.0</ele><time>2026-04-11T11:35:37.874Z</time></trkpt><trkpt lat="44.9218981" lon="9.2622198"><ele>532.0</ele><time>2026-04-11T11:35:38.874Z</time></trkpt><trkpt lat="44.9217546" lon="9.2622222"><ele>535.0</ele><time>2026-04-11T11:35:39.874Z</time></trkpt><trkpt lat="44.9215789" lon="9.2622013"><ele>538.0</ele><time>2026-04-11T11:35:40.874Z</time></trkpt><trkpt lat="44.9213972" lon="9.2621812"><ele>541.0</ele><time>2026-04-11T11:35:41.874Z</time></trkpt><trkpt lat="44.9211954" lon="9.262159"><ele>541.0</ele><time>2026-04-11T11:35:42.874Z</time></trkpt><trkpt lat="44.92099" lon="9.2621435"><ele>541.0</ele><time>2026-04-11T11:35:43.874Z</time></trkpt><trkpt lat="44.9207771" lon="9.2621218"><ele>541.0</ele><time>2026-04-11T11:35:44.873Z</time></trkpt><trkpt lat="44.9205575" lon="9.2620991"><ele>542.6666666666667</ele><time>2026-04-11T11:35:45.874Z</time></trkpt><trkpt lat="44.9203526" lon="9.2620884"><ele>544.3333333333334</ele><time>2026-04-11T11:35:46.874Z</time></trkpt><trkpt lat="44.9201708" lon="9.2620791"><ele>546.0</ele><time>2026-04-11T11:35:47.873Z</time></trkpt><trkpt lat="44.9200092" lon="9.26207"><ele>547.25</ele><time>2026-04-11T11:35:48.874Z</time></trkpt><trkpt lat="44.9198622" lon="9.2620823"><ele>548.5</ele><time>2026-04-11T11:35:49.873Z</time></trkpt><trkpt lat="44.9197426" lon="9.2620791"><ele>549.75</ele><time>2026-04-11T11:35:50.874Z</time></trkpt><trkpt lat="44.9196433" lon="9.2620355"><ele>551.0</ele><time>2026-04-11T11:35:51.874Z</time></trkpt><trkpt lat="44.9195727" lon="9.261963"><ele>551.0</ele><time>2026-04-11T11:35:52.874Z</time></trkpt><trkpt lat="44.9195239" lon="9.2618295"><ele>551.0</ele><time>2026-04-11T11:35:53.874Z</time></trkpt><trkpt lat="44.9194831" lon="9.2616754"><ele>551.0</ele><time>2026-04-11T11:35:54.874Z</time></trkpt><trkpt lat="44.9194332" lon="9.2615045"><ele>551.0</ele><time>2026-04-11T11:35:55.874Z</time></trkpt><trkpt lat="44.9193698" lon="9.261344"><ele>550.0</ele><time>2026-04-11T11:35:56.874Z</time></trkpt><trkpt lat="44.9192997" lon="9.2612099"><ele>549.0</ele><time>2026-04-11T11:35:57.874Z</time></trkpt><trkpt lat="44.9192157" lon="9.2611145"><ele>548.0</ele><time>2026-04-11T11:35:58.873Z</time></trkpt><trkpt lat="44.9191115" lon="9.2610643"><ele>547.0</ele><time>2026-04-11T11:35:59.874Z</time></trkpt><trkpt lat="44.918991" lon="9.2610698"><ele>549.75</ele><time>2026-04-11T11:36:00.874Z</time></trkpt><trkpt lat="44.9188656" lon="9.2611234"><ele>552.5</ele><time>2026-04-11T11:36:01.874Z</time></trkpt><trkpt lat="44.9187386" lon="9.2611978"><ele>555.25</ele><time>2026-04-11T11:36:02.873Z</time></trkpt><trkpt lat="44.9185923" lon="9.2612152"><ele>558.0</ele><time>2026-04-11T11:36:03.874Z</time></trkpt><trkpt lat="44.9184406" lon="9.2612164"><ele>561.3333333333334</ele><time>2026-04-11T11:36:04.874Z</time></trkpt><trkpt lat="44.9182839" lon="9.2612408"><ele>564.6666666666667</ele><time>2026-04-11T11:36:05.874Z</time></trkpt><trkpt lat="44.9181386" lon="9.2612825"><ele>568.0</ele><time>2026-04-11T11:36:06.874Z</time></trkpt><trkpt lat="44.9179977" lon="9.2613235"><ele>568.0</ele><time>2026-04-11T11:36:07.875Z</time></trkpt><trkpt lat="44.9178634" lon="9.261337"><ele>568.0</ele><time>2026-04-11T11:36:08.875Z</time></trkpt><trkpt lat="44.9177222" lon="9.2613209"><ele>568.0</ele><time>2026-04-11T11:36:09.875Z</time></trkpt><trkpt lat="44.9175786" lon="9.2612749"><ele>568.0</ele><time>2026-04-11T11:36:10.875Z</time></trkpt><trkpt lat="44.9174416" lon="9.261217"><ele>568.25</ele><time>2026-04-11T11:36:11.874Z</time></trkpt><trkpt lat="44.917322" lon="9.2611482"><ele>568.5</ele><time>2026-04-11T11:36:12.874Z</time></trkpt><trkpt lat="44.9172207" lon="9.2610859"><ele>568.75</ele><time>2026-04-11T11:36:13.875Z</time></trkpt><trkpt lat="44.9171213" lon="9.2610421"><ele>569.0</ele><time>2026-04-11T11:36:14.875Z</time></trkpt><trkpt lat="44.9170097" lon="9.2610421"><ele>569.0</ele><time>2026-04-11T11:36:15.875Z</time></trkpt><trkpt lat="44.9168891" lon="9.2610809"><ele>569.0</ele><time>2026-04-11T11:36:16.874Z</time></trkpt><trkpt lat="44.916766" lon="9.2611668"><ele>569.0</ele><time>2026-04-11T11:36:17.875Z</time></trkpt><trkpt lat="44.9166427" lon="9.2612905"><ele>569.0</ele><time>2026-04-11T11:36:18.875Z</time></trkpt><trkpt lat="44.9165139" lon="9.2614345"><ele>571.0</ele><time>2026-04-11T11:36:19.875Z</time></trkpt><trkpt lat="44.9163746" lon="9.2615891"><ele>573.0</ele><time>2026-04-11T11:36:20.875Z</time></trkpt><trkpt lat="44.9162272" lon="9.261748"><ele>575.0</ele><time>2026-04-11T11:36:21.875Z</time></trkpt><trkpt lat="44.9160751" lon="9.2619129"><ele>575.0</ele><time>2026-04-11T11:36:22.875Z</time></trkpt><trkpt lat="44.915921" lon="9.2620864"><ele>575.0</ele><time>2026-04-11T11:36:23.875Z</time></trkpt><trkpt lat="44.9157698" lon="9.2622538"><ele>575.0</ele><time>2026-04-11T11:36:24.875Z</time></trkpt><trkpt lat="44.9156245" lon="9.2624136"><ele>578.3333333333333</ele><time>2026-04-11T11:36:25.875Z</time></trkpt><trkpt lat="44.915482" lon="9.2625684"><ele>581.6666666666666</ele><time>2026-04-11T11:36:26.875Z</time></trkpt><trkpt lat="44.9153441" lon="9.2627256"><ele>585.0</ele><time>2026-04-11T11:36:27.875Z</time></trkpt><trkpt lat="44.9152063" lon="9.2628764"><ele>585.0</ele><time>2026-04-11T11:36:28.874Z</time></trkpt><trkpt lat="44.9150799" lon="9.2630155"><ele>585.0</ele><time>2026-04-11T11:36:29.875Z</time></trkpt><trkpt lat="44.9149643" lon="9.2631373"><ele>585.0</ele><time>2026-04-11T11:36:30.874Z</time></trkpt><trkpt lat="44.9148545" lon="9.263259"><ele>585.0</ele><time>2026-04-11T11:36:31.875Z</time></trkpt><trkpt lat="44.9147371" lon="9.2633775"><ele>586.5</ele><time>2026-04-11T11:36:32.875Z</time></trkpt><trkpt lat="44.9146138" lon="9.2634843"><ele>588.0</ele><time>2026-04-11T11:36:33.875Z</time></trkpt><trkpt lat="44.914483" lon="9.2635809"><ele>589.5</ele><time>2026-04-11T11:36:34.875Z</time></trkpt><trkpt lat="44.9143478" lon="9.2636491"><ele>591.0</ele><time>2026-04-11T11:36:35.875Z</time></trkpt><trkpt lat="44.9141971" lon="9.2636976"><ele>591.25</ele><time>2026-04-11T11:36:36.875Z</time></trkpt><trkpt lat="44.9140479" lon="9.2637456"><ele>591.5</ele><time>2026-04-11T11:36:37.875Z</time></trkpt><trkpt lat="44.9138997" lon="9.2637904"><ele>591.75</ele><time>2026-04-11T11:36:38.875Z</time></trkpt><trkpt lat="44.9137585" lon="9.2638323"><ele>592.0</ele><time>2026-04-11T11:36:39.874Z</time></trkpt><trkpt lat="44.9136301" lon="9.2638661"><ele>592.0</ele><time>2026-04-11T11:36:40.875Z</time></trkpt><trkpt lat="44.913489" lon="9.2638491"><ele>592.0</ele><time>2026-04-11T11:36:41.875Z</time></trkpt><trkpt lat="44.9133622" lon="9.2637863"><ele>592.0</ele><time>2026-04-11T11:36:42.875Z</time></trkpt><trkpt lat="44.9132245" lon="9.2636742"><ele>592.0</ele><time>2026-04-11T11:36:43.875Z</time></trkpt><trkpt lat="44.9130833" lon="9.2635423"><ele>593.0</ele><time>2026-04-11T11:36:44.874Z</time></trkpt><trkpt lat="44.9129452" lon="9.2634179"><ele>594.0</ele><time>2026-04-11T11:36:45.875Z</time></trkpt><trkpt lat="44.9128257" lon="9.2633234"><ele>595.0</ele><time>2026-04-11T11:36:46.875Z</time></trkpt><trkpt lat="44.9127201" lon="9.2632289"><ele>596.0</ele><time>2026-04-11T11:36:47.874Z</time></trkpt><trkpt lat="44.9126247" lon="9.2631623"><ele>598.0</ele><time>2026-04-11T11:36:48.875Z</time></trkpt><trkpt lat="44.9125322" lon="9.2631283"><ele>600.0</ele><time>2026-04-11T11:36:49.875Z</time></trkpt><trkpt lat="44.9124366" lon="9.2631367"><ele>602.0</ele><time>2026-04-11T11:36:50.875Z</time></trkpt><trkpt lat="44.9123449" lon="9.2631951"><ele>604.0</ele><time>2026-04-11T11:36:51.875Z</time></trkpt><trkpt lat="44.9122527" lon="9.2632908"><ele>606.0</ele><time>2026-04-11T11:36:52.875Z</time></trkpt><trkpt lat="44.9121638" lon="9.2634152"><ele>606.0</ele><time>2026-04-11T11:36:53.875Z</time></trkpt><trkpt lat="44.9120586" lon="9.2635395"><ele>606.0</ele><time>2026-04-11T11:36:54.875Z</time></trkpt><trkpt lat="44.9119411" lon="9.2636656"><ele>606.0</ele><time>2026-04-11T11:36:55.876Z</time></trkpt><trkpt lat="44.9118249" lon="9.2637986"><ele>606.0</ele><time>2026-04-11T11:36:56.876Z</time></trkpt><trkpt lat="44.9117082" lon="9.2639175"><ele>606.5</ele><time>2026-04-11T11:36:57.876Z</time></trkpt><trkpt lat="44.9115879" lon="9.2640408"><ele>607.0</ele><time>2026-04-11T11:36:58.875Z</time></trkpt><trkpt lat="44.9114612" lon="9.2641459"><ele>607.5</ele><time>2026-04-11T11:36:59.876Z</time></trkpt><trkpt lat="44.9113272" lon="9.2642196"><ele>608.0</ele><time>2026-04-11T11:37:00.876Z</time></trkpt><trkpt lat="44.9111849" lon="9.2642727"><ele>608.0</ele><time>2026-04-11T11:37:01.876Z</time></trkpt><trkpt lat="44.9110332" lon="9.2643307"><ele>608.0</ele><time>2026-04-11T11:37:02.876Z</time></trkpt><trkpt lat="44.9108768" lon="9.2643894"><ele>608.0</ele><time>2026-04-11T11:37:03.876Z</time></trkpt><trkpt lat="44.9107231" lon="9.2644444"><ele>607.25</ele><time>2026-04-11T11:37:04.876Z</time></trkpt><trkpt lat="44.9105762" lon="9.2644815"><ele>606.5</ele><time>2026-04-11T11:37:05.876Z</time></trkpt><trkpt lat="44.9104341" lon="9.2644954"><ele>605.75</ele><time>2026-04-11T11:37:06.876Z</time></trkpt><trkpt lat="44.910284" lon="9.2644794"><ele>605.0</ele><time>2026-04-11T11:37:07.876Z</time></trkpt><trkpt lat="44.9101418" lon="9.2644293"><ele>605.0</ele><time>2026-04-11T11:37:08.876Z</time></trkpt><trkpt lat="44.9100061" lon="9.2643551"><ele>605.0</ele><time>2026-04-11T11:37:09.876Z</time></trkpt><trkpt lat="44.9098687" lon="9.2642777"><ele>605.0</ele><time>2026-04-11T11:37:10.876Z</time></trkpt><trkpt lat="44.9097158" lon="9.2641993"><ele>605.0</ele><time>2026-04-11T11:37:11.876Z</time></trkpt><trkpt lat="44.9095716" lon="9.264117"><ele>605.0</ele><time>2026-04-11T11:37:12.876Z</time></trkpt><trkpt lat="44.9094357" lon="9.2640354"><ele>605.0</ele><time>2026-04-11T11:37:13.876Z</time></trkpt><trkpt lat="44.9093091" lon="9.2639597"><ele>605.0</ele><time>2026-04-11T11:37:14.876Z</time></trkpt><trkpt lat="44.9091798" lon="9.2638918"><ele>602.5</ele><time>2026-04-11T11:37:15.876Z</time></trkpt><trkpt lat="44.9090544" lon="9.2638246"><ele>600.0</ele><time>2026-04-11T11:37:16.875Z</time></trkpt><trkpt lat="44.9089263" lon="9.2637486"><ele>597.5</ele><time>2026-04-11T11:37:17.875Z</time></trkpt><trkpt lat="44.908797" lon="9.2636704"><ele>595.0</ele><time>2026-04-11T11:37:18.876Z</time></trkpt><trkpt lat="44.9086633" lon="9.2635875"><ele>595.0</ele><time>2026-04-11T11:37:19.876Z</time></trkpt><trkpt lat="44.9085342" lon="9.2635044"><ele>595.0</ele><time>2026-04-11T11:37:20.876Z</time></trkpt><trkpt lat="44.9084024" lon="9.2634145"><ele>595.0</ele><time>2026-04-11T11:37:21.875Z</time></trkpt><trkpt lat="44.9082708" lon="9.2633189"><ele>595.0</ele><time>2026-04-11T11:37:22.876Z</time></trkpt><trkpt lat="44.9081402" lon="9.2632182"><ele>596.0</ele><time>2026-04-11T11:37:23.876Z</time></trkpt><trkpt lat="44.9080075" lon="9.2631182"><ele>597.0</ele><time>2026-04-11T11:37:24.876Z</time></trkpt><trkpt lat="44.9078755" lon="9.2630264"><ele>598.0</ele><time>2026-04-11T11:37:25.876Z</time></trkpt><trkpt lat="44.9077616" lon="9.2629363"><ele>599.0</ele><time>2026-04-11T11:37:26.876Z</time></trkpt><trkpt lat="44.9076606" lon="9.2628554"><ele>597.75</ele><time>2026-04-11T11:37:27.876Z</time></trkpt><trkpt lat="44.9075697" lon="9.2627606"><ele>596.5</ele><time>2026-04-11T11:37:28.876Z</time></trkpt><trkpt lat="44.9074855" lon="9.2626467"><ele>595.25</ele><time>2026-04-11T11:37:29.876Z</time></trkpt><trkpt lat="44.907413" lon="9.2624975"><ele>594.0</ele><time>2026-04-11T11:37:30.876Z</time></trkpt><trkpt lat="44.9073557" lon="9.2623327"><ele>592.25</ele><time>2026-04-11T11:37:31.876Z</time></trkpt><trkpt lat="44.9073024" lon="9.2621686"><ele>590.5</ele><time>2026-04-11T11:37:32.876Z</time></trkpt><trkpt lat="44.9072436" lon="9.2620119"><ele>588.75</ele><time>2026-04-11T11:37:33.875Z</time></trkpt><trkpt lat="44.9071673" lon="9.261867"><ele>587.0</ele><time>2026-04-11T11:37:34.876Z</time></trkpt><trkpt lat="44.9070689" lon="9.2617318"><ele>587.0</ele><time>2026-04-11T11:37:35.876Z</time></trkpt><trkpt lat="44.9069575" lon="9.2616013"><ele>587.0</ele><time>2026-04-11T11:37:36.876Z</time></trkpt><trkpt lat="44.906835" lon="9.2614634"><ele>587.0</ele><time>2026-04-11T11:37:37.876Z</time></trkpt><trkpt lat="44.9067069" lon="9.2613159"><ele>585.6666666666666</ele><time>2026-04-11T11:37:38.876Z</time></trkpt><trkpt lat="44.9065707" lon="9.2611735"><ele>584.3333333333334</ele><time>2026-04-11T11:37:39.875Z</time></trkpt><trkpt lat="44.9064375" lon="9.2610314"><ele>583.0</ele><time>2026-04-11T11:37:40.876Z</time></trkpt><trkpt lat="44.9063197" lon="9.2608955"><ele>583.0</ele><time>2026-04-11T11:37:41.876Z</time></trkpt><trkpt lat="44.9062135" lon="9.2607743"><ele>583.0</ele><time>2026-04-11T11:37:42.876Z</time></trkpt><trkpt lat="44.9060994" lon="9.2606656"><ele>583.0</ele><time>2026-04-11T11:37:43.875Z</time></trkpt><trkpt lat="44.9059745" lon="9.2605766"><ele>583.0</ele><time>2026-04-11T11:37:44.877Z</time></trkpt><trkpt lat="44.9058388" lon="9.2605106"><ele>581.3333333333334</ele><time>2026-04-11T11:37:45.877Z</time></trkpt><trkpt lat="44.9056905" lon="9.2604496"><ele>579.6666666666666</ele><time>2026-04-11T11:37:46.877Z</time></trkpt><trkpt lat="44.9055498" lon="9.2603819"><ele>578.0</ele><time>2026-04-11T11:37:47.877Z</time></trkpt><trkpt lat="44.9054095" lon="9.2603142"><ele>578.0</ele><time>2026-04-11T11:37:48.877Z</time></trkpt><trkpt lat="44.9052799" lon="9.2602447"><ele>578.0</ele><time>2026-04-11T11:37:49.877Z</time></trkpt><trkpt lat="44.9051686" lon="9.2601856"><ele>578.0</ele><time>2026-04-11T11:37:50.876Z</time></trkpt><trkpt lat="44.9050509" lon="9.2601401"><ele>578.0</ele><time>2026-04-11T11:37:51.877Z</time></trkpt><trkpt lat="44.9049363" lon="9.2601152"><ele>578.25</ele><time>2026-04-11T11:37:52.877Z</time></trkpt><trkpt lat="44.9048146" lon="9.2601265"><ele>578.5</ele><time>2026-04-11T11:37:53.877Z</time></trkpt><trkpt lat="44.9046891" lon="9.2601509"><ele>578.75</ele><time>2026-04-11T11:37:54.877Z</time></trkpt><trkpt lat="44.9045466" lon="9.2601851"><ele>579.0</ele><time>2026-04-11T11:37:55.877Z</time></trkpt><trkpt lat="44.904402" lon="9.2602309"><ele>579.0</ele><time>2026-04-11T11:37:56.877Z</time></trkpt><trkpt lat="44.9042503" lon="9.2602915"><ele>579.0</ele><time>2026-04-11T11:37:57.877Z</time></trkpt><trkpt lat="44.904095" lon="9.2603468"><ele>579.0</ele><time>2026-04-11T11:37:58.877Z</time></trkpt><trkpt lat="44.9039461" lon="9.2604068"><ele>577.0</ele><time>2026-04-11T11:37:59.877Z</time></trkpt><trkpt lat="44.9038022" lon="9.2604633"><ele>575.0</ele><time>2026-04-11T11:38:00.877Z</time></trkpt><trkpt lat="44.903669" lon="9.2605083"><ele>573.0</ele><time>2026-04-11T11:38:01.877Z</time></trkpt><trkpt lat="44.9035532" lon="9.2605553"><ele>571.0</ele><time>2026-04-11T11:38:02.877Z</time></trkpt><trkpt lat="44.9034358" lon="9.2605792"><ele>570.0</ele><time>2026-04-11T11:38:03.877Z</time></trkpt><trkpt lat="44.903318" lon="9.2605834"><ele>569.0</ele><time>2026-04-11T11:38:04.876Z</time></trkpt><trkpt lat="44.9032051" lon="9.2605565"><ele>568.0</ele><time>2026-04-11T11:38:05.877Z</time></trkpt><trkpt lat="44.9031149" lon="9.2604901"><ele>567.0</ele><time>2026-04-11T11:38:06.876Z</time></trkpt><trkpt lat="44.9030229" lon="9.2604262"><ele>566.0</ele><time>2026-04-11T11:38:07.877Z</time></trkpt><trkpt lat="44.9029402" lon="9.2603832"><ele>566.0</ele><time>2026-04-11T11:38:08.876Z</time></trkpt><trkpt lat="44.90286" lon="9.2603725"><ele>566.0</ele><time>2026-04-11T11:38:09.877Z</time></trkpt><trkpt lat="44.9027832" lon="9.2604031"><ele>566.0</ele><time>2026-04-11T11:38:10.877Z</time></trkpt><trkpt lat="44.9027139" lon="9.2604739"><ele>566.0</ele><time>2026-04-11T11:38:11.876Z</time></trkpt><trkpt lat="44.9026468" lon="9.2605613"><ele>566.0</ele><time>2026-04-11T11:38:12.877Z</time></trkpt><trkpt lat="44.9025625" lon="9.2606713"><ele>566.25</ele><time>2026-04-11T11:38:13.877Z</time></trkpt><trkpt lat="44.9024707" lon="9.2607919"><ele>566.5</ele><time>2026-04-11T11:38:14.877Z</time></trkpt><trkpt lat="44.902376" lon="9.2609072"><ele>566.75</ele><time>2026-04-11T11:38:15.876Z</time></trkpt><trkpt lat="44.9022783" lon="9.2610213"><ele>567.0</ele><time>2026-04-11T11:38:16.877Z</time></trkpt><trkpt lat="44.9021717" lon="9.2611351"><ele>567.0</ele><time>2026-04-11T11:38:17.877Z</time></trkpt><trkpt lat="44.9020655" lon="9.2612529"><ele>567.0</ele><time>2026-04-11T11:38:18.876Z</time></trkpt><trkpt lat="44.9019635" lon="9.2613607"><ele>567.0</ele><time>2026-04-11T11:38:19.877Z</time></trkpt><trkpt lat="44.9018637" lon="9.2614637"><ele>567.0</ele><time>2026-04-11T11:38:20.877Z</time></trkpt><trkpt lat="44.90176" lon="9.2615515"><ele>565.5</ele><time>2026-04-11T11:38:21.877Z</time></trkpt><trkpt lat="44.9016555" lon="9.2616333"><ele>564.0</ele><time>2026-04-11T11:38:22.877Z</time></trkpt><trkpt lat="44.9015488" lon="9.261722"><ele>562.5</ele><time>2026-04-11T11:38:23.877Z</time></trkpt><trkpt lat="44.9014356" lon="9.2618133"><ele>561.0</ele><time>2026-04-11T11:38:24.877Z</time></trkpt><trkpt lat="44.9013222" lon="9.2618926"><ele>561.0</ele><time>2026-04-11T11:38:25.877Z</time></trkpt><trkpt lat="44.9012051" lon="9.2619765"><ele>561.0</ele><time>2026-04-11T11:38:26.876Z</time></trkpt><trkpt lat="44.9010941" lon="9.2620639"><ele>561.0</ele><time>2026-04-11T11:38:27.876Z</time></trkpt><trkpt lat="44.9009911" lon="9.2621717"><ele>561.0</ele><time>2026-04-11T11:38:28.877Z</time></trkpt><trkpt lat="44.9009018" lon="9.2623079"><ele>558.75</ele><time>2026-04-11T11:38:29.877Z</time></trkpt><trkpt lat="44.9008211" lon="9.2624667"><ele>556.5</ele><time>2026-04-11T11:38:30.876Z</time></trkpt><trkpt lat="44.9007518" lon="9.2626454"><ele>554.25</ele><time>2026-04-11T11:38:31.877Z</time></trkpt><trkpt lat="44.900684" lon="9.2628352"><ele>552.0</ele><time>2026-04-11T11:38:32.877Z</time></trkpt><trkpt lat="44.9006101" lon="9.2630372"><ele>552.3333333333334</ele><time>2026-04-11T11:38:33.878Z</time></trkpt><trkpt lat="44.9005328" lon="9.2632455"><ele>552.6666666666667</ele><time>2026-04-11T11:38:34.878Z</time></trkpt><trkpt lat="44.9004588" lon="9.263453"><ele>553.0</ele><time>2026-04-11T11:38:35.878Z</time></trkpt><trkpt lat="44.9003882" lon="9.2636571"><ele>553.0</ele><time>2026-04-11T11:38:36.878Z</time></trkpt><trkpt lat="44.9003131" lon="9.2638539"><ele>553.0</ele><time>2026-04-11T11:38:37.878Z</time></trkpt><trkpt lat="44.9002365" lon="9.2640385"><ele>553.0</ele><time>2026-04-11T11:38:38.878Z</time></trkpt><trkpt lat="44.9001617" lon="9.2642272"><ele>553.0</ele><time>2026-04-11T11:38:39.878Z</time></trkpt><trkpt lat="44.9000913" lon="9.2644118"><ele>553.0</ele><time>2026-04-11T11:38:40.878Z</time></trkpt><trkpt lat="44.9000207" lon="9.2645854"><ele>553.0</ele><time>2026-04-11T11:38:41.877Z</time></trkpt><trkpt lat="44.8999567" lon="9.2647531"><ele>553.0</ele><time>2026-04-11T11:38:42.878Z</time></trkpt><trkpt lat="44.8998982" lon="9.2649094"><ele>551.0</ele><time>2026-04-11T11:38:43.878Z</time></trkpt><trkpt lat="44.8998372" lon="9.26505"><ele>549.0</ele><time>2026-04-11T11:38:44.878Z</time></trkpt><trkpt lat="44.8997729" lon="9.2651631"><ele>547.0</ele><time>2026-04-11T11:38:45.878Z</time></trkpt><trkpt lat="44.899692" lon="9.2652432"><ele>545.0</ele><time>2026-04-11T11:38:46.878Z</time></trkpt><trkpt lat="44.8995985" lon="9.2652918"><ele>543.0</ele><time>2026-04-11T11:38:47.877Z</time></trkpt><trkpt lat="44.8994949" lon="9.265294"><ele>543.0</ele><time>2026-04-11T11:38:48.877Z</time></trkpt><trkpt lat="44.8993922" lon="9.2652605"><ele>543.0</ele><time>2026-04-11T11:38:49.878Z</time></trkpt><trkpt lat="44.899289" lon="9.2651909"><ele>543.0</ele><time>2026-04-11T11:38:50.878Z</time></trkpt><trkpt lat="44.8991861" lon="9.2651091"><ele>543.0</ele><time>2026-04-11T11:38:51.878Z</time></trkpt><trkpt lat="44.8990813" lon="9.2650638"><ele>543.0</ele><time>2026-04-11T11:38:52.878Z</time></trkpt><trkpt lat="44.8989679" lon="9.2650532"><ele>539.0</ele><time>2026-04-11T11:38:53.878Z</time></trkpt><trkpt lat="44.8988491" lon="9.2650703"><ele>535.0</ele><time>2026-04-11T11:38:54.877Z</time></trkpt><trkpt lat="44.8987247" lon="9.2651268"><ele>531.0</ele><time>2026-04-11T11:38:55.877Z</time></trkpt><trkpt lat="44.8986064" lon="9.2652111"><ele>527.0</ele><time>2026-04-11T11:38:56.878Z</time></trkpt><trkpt lat="44.8984937" lon="9.2653238"><ele>526.0</ele><time>2026-04-11T11:38:57.878Z</time></trkpt><trkpt lat="44.8983865" lon="9.2654532"><ele>525.0</ele><time>2026-04-11T11:38:58.878Z</time></trkpt><trkpt lat="44.8982903" lon="9.2655864"><ele>524.0</ele><time>2026-04-11T11:38:59.878Z</time></trkpt><trkpt lat="44.8982043" lon="9.2657165"><ele>523.0</ele><time>2026-04-11T11:39:00.877Z</time></trkpt><trkpt lat="44.8981263" lon="9.2658422"><ele>523.0</ele><time>2026-04-11T11:39:01.878Z</time></trkpt><trkpt lat="44.8980535" lon="9.2659661"><ele>523.0</ele><time>2026-04-11T11:39:02.878Z</time></trkpt><trkpt lat="44.8979997" lon="9.2661069"><ele>523.0</ele><time>2026-04-11T11:39:03.878Z</time></trkpt><trkpt lat="44.8979649" lon="9.2662647"><ele>523.0</ele><time>2026-04-11T11:39:04.878Z</time></trkpt><trkpt lat="44.8979496" lon="9.266439"><ele>523.1999999999999</ele><time>2026-04-11T11:39:05.877Z</time></trkpt><trkpt lat="44.897949" lon="9.2665969"><ele>523.4</ele><time>2026-04-11T11:39:06.878Z</time></trkpt><trkpt lat="44.8979372" lon="9.2667537"><ele>523.5999999999999</ele><time>2026-04-11T11:39:07.878Z</time></trkpt><trkpt lat="44.8979101" lon="9.2668976"><ele>523.8</ele><time>2026-04-11T11:39:08.878Z</time></trkpt><trkpt lat="44.8978602" lon="9.2670362"><ele>524.0</ele><time>2026-04-11T11:39:09.878Z</time></trkpt><trkpt lat="44.8977806" lon="9.2671496"><ele>524.0</ele><time>2026-04-11T11:39:10.878Z</time></trkpt><trkpt lat="44.8976769" lon="9.2672372"><ele>524.0</ele><time>2026-04-11T11:39:11.878Z</time></trkpt><trkpt lat="44.8975598" lon="9.2672867"><ele>524.0</ele><time>2026-04-11T11:39:12.878Z</time></trkpt><trkpt lat="44.8974382" lon="9.2673029"><ele>524.0</ele><time>2026-04-11T11:39:13.877Z</time></trkpt><trkpt lat="44.8973249" lon="9.2673059"><ele>521.4</ele><time>2026-04-11T11:39:14.877Z</time></trkpt><trkpt lat="44.8972234" lon="9.2673062"><ele>518.8</ele><time>2026-04-11T11:39:15.877Z</time></trkpt><trkpt lat="44.89713" lon="9.2672796"><ele>516.2</ele><time>2026-04-11T11:39:16.877Z</time></trkpt><trkpt lat="44.8970532" lon="9.2672222"><ele>513.6</ele><time>2026-04-11T11:39:17.877Z</time></trkpt><trkpt lat="44.8969921" lon="9.2671145"><ele>511.0</ele><time>2026-04-11T11:39:18.878Z</time></trkpt><trkpt lat="44.8969546" lon="9.2669787"><ele>511.0</ele><time>2026-04-11T11:39:19.878Z</time></trkpt><trkpt lat="44.8969607" lon="9.2668351"><ele>511.0</ele><time>2026-04-11T11:39:20.878Z</time></trkpt><trkpt lat="44.8970094" lon="9.2666919"><ele>511.0</ele><time>2026-04-11T11:39:21.879Z</time></trkpt><trkpt lat="44.8970783" lon="9.2665651"><ele>511.0</ele><time>2026-04-11T11:39:22.879Z</time></trkpt><trkpt lat="44.8971619" lon="9.2664435"><ele>511.0</ele><time>2026-04-11T11:39:23.879Z</time></trkpt><trkpt lat="44.8972389" lon="9.2663189"><ele>510.0</ele><time>2026-04-11T11:39:24.879Z</time></trkpt><trkpt lat="44.8973023" lon="9.2661826"><ele>509.0</ele><time>2026-04-11T11:39:25.879Z</time></trkpt><trkpt lat="44.897341" lon="9.2660274"><ele>508.0</ele><time>2026-04-11T11:39:26.878Z</time></trkpt><trkpt lat="44.8973617" lon="9.2658588"><ele>507.0</ele><time>2026-04-11T11:39:27.879Z</time></trkpt><trkpt lat="44.897351" lon="9.2656941"><ele>505.8333333333333</ele><time>2026-04-11T11:39:28.878Z</time></trkpt><trkpt lat="44.8973173" lon="9.2655562"><ele>504.66666666666663</ele><time>2026-04-11T11:39:29.879Z</time></trkpt><trkpt lat="44.8972574" lon="9.2654506"><ele>503.5</ele><time>2026-04-11T11:39:30.879Z</time></trkpt><trkpt lat="44.8971766" lon="9.2654104"><ele>502.3333333333333</ele><time>2026-04-11T11:39:31.879Z</time></trkpt><trkpt lat="44.8971013" lon="9.2653947"><ele>501.16666666666663</ele><time>2026-04-11T11:39:32.879Z</time></trkpt><trkpt lat="44.8970402" lon="9.265418"><ele>500.0</ele><time>2026-04-11T11:39:33.879Z</time></trkpt><trkpt lat="44.8969778" lon="9.2654578"><ele>500.0</ele><time>2026-04-11T11:39:34.878Z</time></trkpt><trkpt lat="44.8969101" lon="9.2655175"><ele>500.0</ele><time>2026-04-11T11:39:35.878Z</time></trkpt><trkpt lat="44.8968443" lon="9.2655967"><ele>500.0</ele><time>2026-04-11T11:39:36.879Z</time></trkpt><trkpt lat="44.8967709" lon="9.265696"><ele>500.0</ele><time>2026-04-11T11:39:37.879Z</time></trkpt><trkpt lat="44.8966969" lon="9.2658153"><ele>500.0</ele><time>2026-04-11T11:39:38.879Z</time></trkpt><trkpt lat="44.8966346" lon="9.2659572"><ele>499.8</ele><time>2026-04-11T11:39:39.879Z</time></trkpt><trkpt lat="44.896584" lon="9.266103"><ele>499.6</ele><time>2026-04-11T11:39:40.879Z</time></trkpt><trkpt lat="44.8965309" lon="9.2662405"><ele>499.4</ele><time>2026-04-11T11:39:41.879Z</time></trkpt><trkpt lat="44.8964741" lon="9.2663587"><ele>499.2</ele><time>2026-04-11T11:39:42.879Z</time></trkpt><trkpt lat="44.8964108" lon="9.2664697"><ele>499.0</ele><time>2026-04-11T11:39:43.879Z</time></trkpt><trkpt lat="44.8963456" lon="9.2665758"><ele>499.0</ele><time>2026-04-11T11:39:44.879Z</time></trkpt><trkpt lat="44.8962747" lon="9.26668"><ele>499.0</ele><time>2026-04-11T11:39:45.879Z</time></trkpt><trkpt lat="44.8962097" lon="9.2667887"><ele>499.0</ele><time>2026-04-11T11:39:46.879Z</time></trkpt><trkpt lat="44.8961631" lon="9.2669095"><ele>499.0</ele><time>2026-04-11T11:39:47.879Z</time></trkpt><trkpt lat="44.8961286" lon="9.2670433"><ele>499.0</ele><time>2026-04-11T11:39:48.879Z</time></trkpt><trkpt lat="44.8961064" lon="9.2671816"><ele>499.2</ele><time>2026-04-11T11:39:49.878Z</time></trkpt><trkpt lat="44.8960981" lon="9.2673279"><ele>499.4</ele><time>2026-04-11T11:39:50.879Z</time></trkpt><trkpt lat="44.8960944" lon="9.2674854"><ele>499.6</ele><time>2026-04-11T11:39:51.879Z</time></trkpt><trkpt lat="44.896088" lon="9.2676393"><ele>499.8</ele><time>2026-04-11T11:39:52.879Z</time></trkpt><trkpt lat="44.8960829" lon="9.2677877"><ele>500.0</ele><time>2026-04-11T11:39:53.879Z</time></trkpt><trkpt lat="44.8960873" lon="9.2679218"><ele>500.0</ele><time>2026-04-11T11:39:54.878Z</time></trkpt><trkpt lat="44.8961077" lon="9.2680478"><ele>500.0</ele><time>2026-04-11T11:39:55.879Z</time></trkpt><trkpt lat="44.896149" lon="9.2681621"><ele>500.0</ele><time>2026-04-11T11:39:56.878Z</time></trkpt><trkpt lat="44.8962115" lon="9.268261"><ele>500.0</ele><time>2026-04-11T11:39:57.878Z</time></trkpt><trkpt lat="44.8962848" lon="9.2683426"><ele>500.0</ele><time>2026-04-11T11:39:58.879Z</time></trkpt><trkpt lat="44.8963771" lon="9.2684105"><ele>499.4</ele><time>2026-04-11T11:39:59.879Z</time></trkpt><trkpt lat="44.8964742" lon="9.2684728"><ele>498.8</ele><time>2026-04-11T11:40:00.879Z</time></trkpt><trkpt lat="44.8965715" lon="9.268533"><ele>498.20000000000005</ele><time>2026-04-11T11:40:01.879Z</time></trkpt><trkpt lat="44.8966606" lon="9.2685937"><ele>497.6</ele><time>2026-04-11T11:40:02.879Z</time></trkpt><trkpt lat="44.8967458" lon="9.2686571"><ele>497.0</ele><time>2026-04-11T11:40:03.879Z</time></trkpt><trkpt lat="44.8968264" lon="9.268721"><ele>496.99999999999994</ele><time>2026-04-11T11:40:04.879Z</time></trkpt><trkpt lat="44.8968922" lon="9.2688091"><ele>497.0</ele><time>2026-04-11T11:40:05.879Z</time></trkpt><trkpt lat="44.8969323" lon="9.2689079"><ele>497.0</ele><time>2026-04-11T11:40:06.879Z</time></trkpt><trkpt lat="44.8969521" lon="9.2690125"><ele>497.0</ele><time>2026-04-11T11:40:07.878Z</time></trkpt><trkpt lat="44.8969614" lon="9.2691213"><ele>496.99999999999994</ele><time>2026-04-11T11:40:08.879Z</time></trkpt><trkpt lat="44.8969597" lon="9.2692366"><ele>497.0</ele><time>2026-04-11T11:40:09.88Z</time></trkpt><trkpt lat="44.8969432" lon="9.2693674"><ele>495.99999999999994</ele><time>2026-04-11T11:40:10.879Z</time></trkpt><trkpt lat="44.8969054" lon="9.2694838"><ele>495.0</ele><time>2026-04-11T11:40:11.88Z</time></trkpt><trkpt lat="44.8968523" lon="9.2695784"><ele>494.0</ele><time>2026-04-11T11:40:12.879Z</time></trkpt><trkpt lat="44.8967848" lon="9.2696427"><ele>493.0</ele><time>2026-04-11T11:40:13.88Z</time></trkpt><trkpt lat="44.8966994" lon="9.2696787"><ele>491.99999999999994</ele><time>2026-04-11T11:40:14.88Z</time></trkpt><trkpt lat="44.8966039" lon="9.2696632"><ele>491.0</ele><time>2026-04-11T11:40:15.88Z</time></trkpt><trkpt lat="44.8965029" lon="9.2696087"><ele>488.20000000000005</ele><time>2026-04-11T11:40:16.88Z</time></trkpt><trkpt lat="44.8964146" lon="9.2695175"><ele>485.40000000000003</ele><time>2026-04-11T11:40:17.88Z</time></trkpt><trkpt lat="44.8963409" lon="9.2694025"><ele>482.6</ele><time>2026-04-11T11:40:18.88Z</time></trkpt><trkpt lat="44.8962753" lon="9.2692875"><ele>479.8</ele><time>2026-04-11T11:40:19.88Z</time></trkpt><trkpt lat="44.896209" lon="9.2691788"><ele>477.0</ele><time>2026-04-11T11:40:20.879Z</time></trkpt><trkpt lat="44.8961286" lon="9.2690808"><ele>477.0</ele><time>2026-04-11T11:40:21.88Z</time></trkpt><trkpt lat="44.896024" lon="9.2690078"><ele>477.0</ele><time>2026-04-11T11:40:22.88Z</time></trkpt><trkpt lat="44.895903" lon="9.2689509"><ele>477.0</ele><time>2026-04-11T11:40:23.88Z</time></trkpt><trkpt lat="44.8957761" lon="9.2688964"><ele>477.0</ele><time>2026-04-11T11:40:24.88Z</time></trkpt><trkpt lat="44.8956588" lon="9.2688462"><ele>477.0</ele><time>2026-04-11T11:40:25.88Z</time></trkpt><trkpt lat="44.8955508" lon="9.2687958"><ele>477.00000000000006</ele><time>2026-04-11T11:40:26.88Z</time></trkpt><trkpt lat="44.8954545" lon="9.268744"><ele>477.00000000000006</ele><time>2026-04-11T11:40:27.88Z</time></trkpt><trkpt lat="44.8953837" lon="9.2686763"><ele>477.0</ele><time>2026-04-11T11:40:28.879Z</time></trkpt><trkpt lat="44.8953151" lon="9.2685713"><ele>477.0</ele><time>2026-04-11T11:40:29.879Z</time></trkpt><trkpt lat="44.8952669" lon="9.2684567"><ele>477.0</ele><time>2026-04-11T11:40:30.88Z</time></trkpt><trkpt lat="44.8952386" lon="9.2683329"><ele>477.00000000000006</ele><time>2026-04-11T11:40:31.88Z</time></trkpt><trkpt lat="44.8952291" lon="9.268197"><ele>477.00000000000006</ele><time>2026-04-11T11:40:32.88Z</time></trkpt><trkpt lat="44.8952131" lon="9.2680519"><ele>477.0</ele><time>2026-04-11T11:40:33.88Z</time></trkpt><trkpt lat="44.8951741" lon="9.2679046"><ele>477.0</ele><time>2026-04-11T11:40:34.88Z</time></trkpt><trkpt lat="44.8951153" lon="9.2677775"><ele>474.6666666666667</ele><time>2026-04-11T11:40:35.879Z</time></trkpt><trkpt lat="44.8950491" lon="9.267674"><ele>472.33333333333337</ele><time>2026-04-11T11:40:36.88Z</time></trkpt><trkpt lat="44.8949897" lon="9.2675838"><ele>470.0</ele><time>2026-04-11T11:40:37.88Z</time></trkpt><trkpt lat="44.8949377" lon="9.2675012"><ele>467.6666666666667</ele><time>2026-04-11T11:40:38.88Z</time></trkpt><trkpt lat="44.8948875" lon="9.2674115"><ele>465.33333333333337</ele><time>2026-04-11T11:40:39.88Z</time></trkpt><trkpt lat="44.8948509" lon="9.2673022"><ele>463.0</ele><time>2026-04-11T11:40:40.88Z</time></trkpt><trkpt lat="44.8947471" lon="9.2671357"><ele>463.00000000000006</ele><time>2026-04-11T11:40:41.88Z</time></trkpt><trkpt lat="44.8947353" lon="9.2670054"><ele>463.0</ele><time>2026-04-11T11:40:42.88Z</time></trkpt><trkpt lat="44.8947319" lon="9.2668838"><ele>463.0</ele><time>2026-04-11T11:40:43.88Z</time></trkpt><trkpt lat="44.894709" lon="9.2667635"><ele>463.0</ele><time>2026-04-11T11:40:44.88Z</time></trkpt><trkpt lat="44.8946713" lon="9.2666567"><ele>463.00000000000006</ele><time>2026-04-11T11:40:45.88Z</time></trkpt><trkpt lat="44.8946208" lon="9.2665587"><ele>463.0</ele><time>2026-04-11T11:40:46.88Z</time></trkpt><trkpt lat="44.8945688" lon="9.2664598"><ele>463.0</ele><time>2026-04-11T11:40:47.879Z</time></trkpt><trkpt lat="44.8945018" lon="9.2663478"><ele>462.99999999999994</ele><time>2026-04-11T11:40:48.88Z</time></trkpt><trkpt lat="44.8944393" lon="9.2662321"><ele>462.99999999999994</ele><time>2026-04-11T11:40:49.88Z</time></trkpt><trkpt lat="44.8943927" lon="9.2661053"><ele>463.0</ele><time>2026-04-11T11:40:50.88Z</time></trkpt><trkpt lat="44.8943686" lon="9.2659601"><ele>463.0</ele><time>2026-04-11T11:40:51.88Z</time></trkpt><trkpt lat="44.8943654" lon="9.2658049"><ele>463.0</ele><time>2026-04-11T11:40:52.88Z</time></trkpt><trkpt lat="44.8943704" lon="9.2656425"><ele>462.99999999999994</ele><time>2026-04-11T11:40:53.88Z</time></trkpt><trkpt lat="44.894395" lon="9.265487"><ele>462.99999999999994</ele><time>2026-04-11T11:40:54.88Z</time></trkpt><trkpt lat="44.894404" lon="9.2653409"><ele>463.0</ele><time>2026-04-11T11:40:55.88Z</time></trkpt><trkpt lat="44.8944003" lon="9.265207"><ele>463.0</ele><time>2026-04-11T11:40:56.88Z</time></trkpt><trkpt lat="44.8943761" lon="9.2650995"><ele>461.50000000000006</ele><time>2026-04-11T11:40:57.881Z</time></trkpt><trkpt lat="44.8943334" lon="9.2650133"><ele>460.0</ele><time>2026-04-11T11:40:58.881Z</time></trkpt><trkpt lat="44.8942587" lon="9.2649554"><ele>458.5</ele><time>2026-04-11T11:40:59.881Z</time></trkpt><trkpt lat="44.894169" lon="9.2649359"><ele>457.0</ele><time>2026-04-11T11:41:00.881Z</time></trkpt><trkpt lat="44.8940952" lon="9.2649554"><ele>455.50000000000006</ele><time>2026-04-11T11:41:01.881Z</time></trkpt><trkpt lat="44.8940309" lon="9.2650093"><ele>454.0</ele><time>2026-04-11T11:41:02.881Z</time></trkpt><trkpt lat="44.8939763" lon="9.2650861"><ele>452.79999999999995</ele><time>2026-04-11T11:41:03.881Z</time></trkpt><trkpt lat="44.8939486" lon="9.2651847"><ele>451.59999999999997</ele><time>2026-04-11T11:41:04.881Z</time></trkpt><trkpt lat="44.8939407" lon="9.2653199"><ele>450.4</ele><time>2026-04-11T11:41:05.881Z</time></trkpt><trkpt lat="44.8939395" lon="9.2654626"><ele>449.2</ele><time>2026-04-11T11:41:06.881Z</time></trkpt><trkpt lat="44.8939486" lon="9.2656106"><ele>448.0</ele><time>2026-04-11T11:41:07.881Z</time></trkpt><trkpt lat="44.8939538" lon="9.2657435"><ele>448.00000000000006</ele><time>2026-04-11T11:41:08.881Z</time></trkpt><trkpt lat="44.893961" lon="9.2658537"><ele>448.0</ele><time>2026-04-11T11:41:09.88Z</time></trkpt><trkpt lat="44.8939745" lon="9.2659676"><ele>448.0</ele><time>2026-04-11T11:41:10.881Z</time></trkpt><trkpt lat="44.8939822" lon="9.2660832"><ele>448.0</ele><time>2026-04-11T11:41:11.881Z</time></trkpt><trkpt lat="44.8939973" lon="9.2662012"><ele>448.00000000000006</ele><time>2026-04-11T11:41:12.881Z</time></trkpt><trkpt lat="44.8940198" lon="9.2663263"><ele>448.0</ele><time>2026-04-11T11:41:13.881Z</time></trkpt><trkpt lat="44.8940306" lon="9.2664587"><ele>448.0</ele><time>2026-04-11T11:41:14.881Z</time></trkpt><trkpt lat="44.8940341" lon="9.2666032"><ele>447.99999999999994</ele><time>2026-04-11T11:41:15.88Z</time></trkpt><trkpt lat="44.8940267" lon="9.266756"><ele>447.99999999999994</ele><time>2026-04-11T11:41:16.881Z</time></trkpt><trkpt lat="44.8940116" lon="9.2669055"><ele>448.0</ele><time>2026-04-11T11:41:17.881Z</time></trkpt><trkpt lat="44.8939945" lon="9.267049"><ele>448.0</ele><time>2026-04-11T11:41:18.881Z</time></trkpt><trkpt lat="44.8939726" lon="9.2671735"><ele>448.0</ele><time>2026-04-11T11:41:19.881Z</time></trkpt><trkpt lat="44.8939348" lon="9.2672753"><ele>448.0</ele><time>2026-04-11T11:41:20.881Z</time></trkpt><trkpt lat="44.8938805" lon="9.2673564"><ele>448.0</ele><time>2026-04-11T11:41:21.881Z</time></trkpt><trkpt lat="44.8938224" lon="9.2674028"><ele>448.0</ele><time>2026-04-11T11:41:22.88Z</time></trkpt><trkpt lat="44.8937598" lon="9.2674206"><ele>448.0</ele><time>2026-04-11T11:41:23.881Z</time></trkpt><trkpt lat="44.893697" lon="9.2674082"><ele>448.0</ele><time>2026-04-11T11:41:24.881Z</time></trkpt><trkpt lat="44.893635" lon="9.2673638"><ele>448.0</ele><time>2026-04-11T11:41:25.881Z</time></trkpt><trkpt lat="44.8935917" lon="9.2672834"><ele>448.00000000000006</ele><time>2026-04-11T11:41:26.88Z</time></trkpt><trkpt lat="44.8935628" lon="9.2671811"><ele>448.0</ele><time>2026-04-11T11:41:27.881Z</time></trkpt><trkpt lat="44.8935685" lon="9.2670676"><ele>448.0</ele><time>2026-04-11T11:41:28.881Z</time></trkpt><trkpt lat="44.8935754" lon="9.2669473"><ele>448.0</ele><time>2026-04-11T11:41:29.881Z</time></trkpt><trkpt lat="44.8935888" lon="9.2668307"><ele>448.00000000000006</ele><time>2026-04-11T11:41:30.881Z</time></trkpt><trkpt lat="44.8935972" lon="9.2667134"><ele>448.0</ele><time>2026-04-11T11:41:31.881Z</time></trkpt><trkpt lat="44.8936048" lon="9.2666058"><ele>448.00000000000006</ele><time>2026-04-11T11:41:32.881Z</time></trkpt><trkpt lat="44.8936141" lon="9.2665081"><ele>448.0</ele><time>2026-04-11T11:41:33.881Z</time></trkpt><trkpt lat="44.8936116" lon="9.2663344"><ele>448.0</ele><time>2026-04-11T11:41:35.881Z</time></trkpt><trkpt lat="44.893602" lon="9.2662375"><ele>448.0</ele><time>2026-04-11T11:41:36.881Z</time></trkpt><trkpt lat="44.8935807" lon="9.2661347"><ele>448.00000000000006</ele><time>2026-04-11T11:41:37.881Z</time></trkpt><trkpt lat="44.8935392" lon="9.266026"><ele>448.0</ele><time>2026-04-11T11:41:38.881Z</time></trkpt><trkpt lat="44.8934837" lon="9.2659251"><ele>448.00000000000006</ele><time>2026-04-11T11:41:39.881Z</time></trkpt><trkpt lat="44.893428" lon="9.2658379"><ele>448.0</ele><time>2026-04-11T11:41:40.881Z</time></trkpt><trkpt lat="44.8933789" lon="9.2657547"><ele>448.0</ele><time>2026-04-11T11:41:41.88Z</time></trkpt><trkpt lat="44.893341" lon="9.2656687"><ele>448.0</ele><time>2026-04-11T11:41:42.881Z</time></trkpt><trkpt lat="44.8933111" lon="9.2655791"><ele>448.00000000000006</ele><time>2026-04-11T11:41:43.881Z</time></trkpt><trkpt lat="44.893295" lon="9.2654759"><ele>448.0</ele><time>2026-04-11T11:41:44.881Z</time></trkpt><trkpt lat="44.8932984" lon="9.2653702"><ele>444.83333333333337</ele><time>2026-04-11T11:41:45.882Z</time></trkpt><trkpt lat="44.8933169" lon="9.2652579"><ele>441.6666666666667</ele><time>2026-04-11T11:41:46.882Z</time></trkpt><trkpt lat="44.8933359" lon="9.2651471"><ele>438.5</ele><time>2026-04-11T11:41:47.882Z</time></trkpt><trkpt lat="44.8933491" lon="9.2650466"><ele>435.33333333333337</ele><time>2026-04-11T11:41:48.882Z</time></trkpt><trkpt lat="44.8933536" lon="9.264944"><ele>432.1666666666667</ele><time>2026-04-11T11:41:49.882Z</time></trkpt><trkpt lat="44.8933356" lon="9.2648427"><ele>429.0</ele><time>2026-04-11T11:41:50.882Z</time></trkpt><trkpt lat="44.8932956" lon="9.264752"><ele>429.0</ele><time>2026-04-11T11:41:51.882Z</time></trkpt><trkpt lat="44.8932369" lon="9.2646837"><ele>429.0</ele><time>2026-04-11T11:41:52.881Z</time></trkpt><trkpt lat="44.8931679" lon="9.2646535"><ele>429.0</ele><time>2026-04-11T11:41:53.882Z</time></trkpt><trkpt lat="44.8930892" lon="9.2646533"><ele>429.0</ele><time>2026-04-11T11:41:54.882Z</time></trkpt><trkpt lat="44.8930169" lon="9.2646907"><ele>429.0</ele><time>2026-04-11T11:41:55.882Z</time></trkpt><trkpt lat="44.8929561" lon="9.264763"><ele>429.0</ele><time>2026-04-11T11:41:56.881Z</time></trkpt><trkpt lat="44.8929089" lon="9.2648622"><ele>429.0</ele><time>2026-04-11T11:41:57.882Z</time></trkpt><trkpt lat="44.8928798" lon="9.264984"><ele>429.0</ele><time>2026-04-11T11:41:58.882Z</time></trkpt><trkpt lat="44.8928648" lon="9.2651165"><ele>429.0</ele><time>2026-04-11T11:41:59.882Z</time></trkpt><trkpt lat="44.892867" lon="9.2652419"><ele>429.0</ele><time>2026-04-11T11:42:00.882Z</time></trkpt><trkpt lat="44.8928819" lon="9.2653538"><ele>429.0</ele><time>2026-04-11T11:42:01.882Z</time></trkpt><trkpt lat="44.8928994" lon="9.2654538"><ele>429.0</ele><time>2026-04-11T11:42:02.882Z</time></trkpt><trkpt lat="44.8929118" lon="9.2655511"><ele>429.6666666666667</ele><time>2026-04-11T11:42:03.882Z</time></trkpt><trkpt lat="44.8929219" lon="9.265651"><ele>430.33333333333337</ele><time>2026-04-11T11:42:04.882Z</time></trkpt><trkpt lat="44.8929339" lon="9.2657546"><ele>431.0</ele><time>2026-04-11T11:42:05.882Z</time></trkpt><trkpt lat="44.8929475" lon="9.2658648"><ele>431.6666666666667</ele><time>2026-04-11T11:42:06.882Z</time></trkpt><trkpt lat="44.8929585" lon="9.2659861"><ele>432.33333333333337</ele><time>2026-04-11T11:42:07.882Z</time></trkpt><trkpt lat="44.8929684" lon="9.2661116"><ele>433.0</ele><time>2026-04-11T11:42:08.882Z</time></trkpt><trkpt lat="44.892973" lon="9.2662313"><ele>433.0</ele><time>2026-04-11T11:42:09.882Z</time></trkpt><trkpt lat="44.8929769" lon="9.2663594"><ele>432.99999999999994</ele><time>2026-04-11T11:42:10.882Z</time></trkpt><trkpt lat="44.8929636" lon="9.2664885"><ele>432.99999999999994</ele><time>2026-04-11T11:42:11.882Z</time></trkpt><trkpt lat="44.8929333" lon="9.2666151"><ele>433.0</ele><time>2026-04-11T11:42:12.881Z</time></trkpt><trkpt lat="44.8928828" lon="9.2667377"><ele>433.0</ele><time>2026-04-11T11:42:13.882Z</time></trkpt><trkpt lat="44.892821" lon="9.2668505"><ele>432.4</ele><time>2026-04-11T11:42:14.882Z</time></trkpt><trkpt lat="44.8927548" lon="9.2669585"><ele>431.79999999999995</ele><time>2026-04-11T11:42:15.882Z</time></trkpt><trkpt lat="44.8926979" lon="9.2670679"><ele>431.2</ele><time>2026-04-11T11:42:16.881Z</time></trkpt><trkpt lat="44.8926536" lon="9.2671903"><ele>430.6</ele><time>2026-04-11T11:42:17.882Z</time></trkpt><trkpt lat="44.8926261" lon="9.2673312"><ele>430.0</ele><time>2026-04-11T11:42:18.882Z</time></trkpt><trkpt lat="44.8926121" lon="9.2674768"><ele>430.0</ele><time>2026-04-11T11:42:19.882Z</time></trkpt><trkpt lat="44.8926149" lon="9.2676228"><ele>430.0</ele><time>2026-04-11T11:42:20.882Z</time></trkpt><trkpt lat="44.8926271" lon="9.2677608"><ele>430.0</ele><time>2026-04-11T11:42:21.882Z</time></trkpt><trkpt lat="44.8926534" lon="9.267896"><ele>430.0</ele><time>2026-04-11T11:42:22.882Z</time></trkpt><trkpt lat="44.8926934" lon="9.2680298"><ele>430.0</ele><time>2026-04-11T11:42:23.881Z</time></trkpt><trkpt lat="44.8927398" lon="9.2681492"><ele>429.0</ele><time>2026-04-11T11:42:24.882Z</time></trkpt><trkpt lat="44.8927851" lon="9.2682551"><ele>428.0</ele><time>2026-04-11T11:42:25.882Z</time></trkpt><trkpt lat="44.8928245" lon="9.2683655"><ele>427.0</ele><time>2026-04-11T11:42:26.882Z</time></trkpt><trkpt lat="44.892847" lon="9.2684879"><ele>426.0</ele><time>2026-04-11T11:42:27.881Z</time></trkpt><trkpt lat="44.8928472" lon="9.2686305"><ele>425.0</ele><time>2026-04-11T11:42:28.882Z</time></trkpt><trkpt lat="44.8928229" lon="9.2687561"><ele>425.0</ele><time>2026-04-11T11:42:29.882Z</time></trkpt><trkpt lat="44.8927792" lon="9.2688426"><ele>425.0</ele><time>2026-04-11T11:42:30.882Z</time></trkpt><trkpt lat="44.892715" lon="9.2689029"><ele>425.0</ele><time>2026-04-11T11:42:31.882Z</time></trkpt><trkpt lat="44.8925735" lon="9.2689041"><ele>425.0</ele><time>2026-04-11T11:42:33.883Z</time></trkpt><trkpt lat="44.8924898" lon="9.2688545"><ele>425.0</ele><time>2026-04-11T11:42:34.882Z</time></trkpt><trkpt lat="44.8924314" lon="9.2687669"><ele>421.0</ele><time>2026-04-11T11:42:35.883Z</time></trkpt><trkpt lat="44.8923915" lon="9.2686485"><ele>417.0</ele><time>2026-04-11T11:42:36.882Z</time></trkpt><trkpt lat="44.8923683" lon="9.2685167"><ele>413.0</ele><time>2026-04-11T11:42:37.882Z</time></trkpt><trkpt lat="44.8923469" lon="9.2683743"><ele>409.0</ele><time>2026-04-11T11:42:38.883Z</time></trkpt><trkpt lat="44.8923174" lon="9.2682458"><ele>405.0</ele><time>2026-04-11T11:42:39.883Z</time></trkpt><trkpt lat="44.8922565" lon="9.268118"><ele>405.8</ele><time>2026-04-11T11:42:40.883Z</time></trkpt><trkpt lat="44.8921994" lon="9.2680103"><ele>406.6</ele><time>2026-04-11T11:42:41.882Z</time></trkpt><trkpt lat="44.8921373" lon="9.2679128"><ele>407.4</ele><time>2026-04-11T11:42:42.883Z</time></trkpt><trkpt lat="44.892068" lon="9.2678234"><ele>408.2</ele><time>2026-04-11T11:42:43.883Z</time></trkpt><trkpt lat="44.8920006" lon="9.2677335"><ele>409.0</ele><time>2026-04-11T11:42:44.883Z</time></trkpt><trkpt lat="44.8919416" lon="9.2676412"><ele>409.0</ele><time>2026-04-11T11:42:45.883Z</time></trkpt><trkpt lat="44.8919002" lon="9.2675284"><ele>409.0</ele><time>2026-04-11T11:42:46.883Z</time></trkpt><trkpt lat="44.8918734" lon="9.2673991"><ele>409.0</ele><time>2026-04-11T11:42:47.883Z</time></trkpt><trkpt lat="44.891856" lon="9.2672622"><ele>409.0</ele><time>2026-04-11T11:42:48.882Z</time></trkpt><trkpt lat="44.8918382" lon="9.2671206"><ele>409.0</ele><time>2026-04-11T11:42:49.882Z</time></trkpt><trkpt lat="44.8918275" lon="9.2669656"><ele>409.5</ele><time>2026-04-11T11:42:50.883Z</time></trkpt><trkpt lat="44.8918051" lon="9.2668019"><ele>410.0</ele><time>2026-04-11T11:42:51.883Z</time></trkpt><trkpt lat="44.8917701" lon="9.2666348"><ele>410.5</ele><time>2026-04-11T11:42:52.882Z</time></trkpt><trkpt lat="44.8917227" lon="9.2664762"><ele>411.0</ele><time>2026-04-11T11:42:53.883Z</time></trkpt><trkpt lat="44.8916699" lon="9.2663285"><ele>407.4</ele><time>2026-04-11T11:42:54.882Z</time></trkpt><trkpt lat="44.8916104" lon="9.2661951"><ele>403.8</ele><time>2026-04-11T11:42:55.883Z</time></trkpt><trkpt lat="44.8915538" lon="9.2660635"><ele>400.2</ele><time>2026-04-11T11:42:56.883Z</time></trkpt><trkpt lat="44.8914961" lon="9.2659319"><ele>396.59999999999997</ele><time>2026-04-11T11:42:57.882Z</time></trkpt><trkpt lat="44.8914237" lon="9.2658101"><ele>393.0</ele><time>2026-04-11T11:42:58.883Z</time></trkpt><trkpt lat="44.8913447" lon="9.2656885"><ele>392.79999999999995</ele><time>2026-04-11T11:42:59.883Z</time></trkpt><trkpt lat="44.8912715" lon="9.2655656"><ele>392.6</ele><time>2026-04-11T11:43:00.882Z</time></trkpt><trkpt lat="44.8911994" lon="9.2654543"><ele>392.4</ele><time>2026-04-11T11:43:01.883Z</time></trkpt><trkpt lat="44.8911366" lon="9.2653641"><ele>392.20000000000005</ele><time>2026-04-11T11:43:02.883Z</time></trkpt><trkpt lat="44.8910923" lon="9.2652549"><ele>392.0</ele><time>2026-04-11T11:43:03.883Z</time></trkpt><trkpt lat="44.8910651" lon="9.2651325"><ele>392.0</ele><time>2026-04-11T11:43:04.882Z</time></trkpt><trkpt lat="44.8910629" lon="9.2649979"><ele>392.0</ele><time>2026-04-11T11:43:05.882Z</time></trkpt><trkpt lat="44.8910817" lon="9.2648576"><ele>392.0</ele><time>2026-04-11T11:43:06.882Z</time></trkpt><trkpt lat="44.8911158" lon="9.2647196"><ele>392.0</ele><time>2026-04-11T11:43:07.883Z</time></trkpt><trkpt lat="44.8911579" lon="9.2645975"><ele>392.0</ele><time>2026-04-11T11:43:08.883Z</time></trkpt><trkpt lat="44.8911954" lon="9.264483"><ele>391.49999999999994</ele><time>2026-04-11T11:43:09.882Z</time></trkpt><trkpt lat="44.8912163" lon="9.2643748"><ele>391.0</ele><time>2026-04-11T11:43:10.883Z</time></trkpt><trkpt lat="44.8912024" lon="9.2642774"><ele>390.5</ele><time>2026-04-11T11:43:11.883Z</time></trkpt><trkpt lat="44.8911541" lon="9.2642074"><ele>390.0</ele><time>2026-04-11T11:43:12.883Z</time></trkpt><trkpt lat="44.8910764" lon="9.2641665"><ele>389.49999999999994</ele><time>2026-04-11T11:43:13.883Z</time></trkpt><trkpt lat="44.8909849" lon="9.2641686"><ele>389.0</ele><time>2026-04-11T11:43:14.883Z</time></trkpt><trkpt lat="44.8909169" lon="9.2642372"><ele>387.6</ele><time>2026-04-11T11:43:15.883Z</time></trkpt><trkpt lat="44.89085" lon="9.2643159"><ele>386.2</ele><time>2026-04-11T11:43:16.882Z</time></trkpt><trkpt lat="44.8907846" lon="9.2644137"><ele>384.8</ele><time>2026-04-11T11:43:17.883Z</time></trkpt><trkpt lat="44.8907282" lon="9.2645263"><ele>383.40000000000003</ele><time>2026-04-11T11:43:18.883Z</time></trkpt><trkpt lat="44.8906744" lon="9.264636"><ele>382.0</ele><time>2026-04-11T11:43:19.882Z</time></trkpt><trkpt lat="44.8906256" lon="9.2647439"><ele>382.0</ele><time>2026-04-11T11:43:20.883Z</time></trkpt><trkpt lat="44.8905793" lon="9.26485"><ele>382.0</ele><time>2026-04-11T11:43:21.884Z</time></trkpt><trkpt lat="44.8905372" lon="9.2649554"><ele>382.0</ele><time>2026-04-11T11:43:22.884Z</time></trkpt><trkpt lat="44.8904941" lon="9.265058"><ele>382.0</ele><time>2026-04-11T11:43:23.884Z</time></trkpt><trkpt lat="44.8904463" lon="9.2651501"><ele>382.0</ele><time>2026-04-11T11:43:24.884Z</time></trkpt><trkpt lat="44.890396" lon="9.265238"><ele>382.0</ele><time>2026-04-11T11:43:25.884Z</time></trkpt><trkpt lat="44.890349" lon="9.2653124"><ele>382.0</ele><time>2026-04-11T11:43:26.884Z</time></trkpt><trkpt lat="44.8902741" lon="9.2654336"><ele>382.0</ele><time>2026-04-11T11:43:28.884Z</time></trkpt><trkpt lat="44.8901892" lon="9.2655262"><ele>382.0</ele><time>2026-04-11T11:43:30.884Z</time></trkpt><trkpt lat="44.890132" lon="9.265571"><ele>382.0</ele><time>2026-04-11T11:43:31.884Z</time></trkpt><trkpt lat="44.8900692" lon="9.2656273"><ele>382.0</ele><time>2026-04-11T11:43:32.884Z</time></trkpt><trkpt lat="44.8899945" lon="9.2656875"><ele>382.0</ele><time>2026-04-11T11:43:33.884Z</time></trkpt><trkpt lat="44.8899193" lon="9.2657469"><ele>380.20000000000005</ele><time>2026-04-11T11:43:34.883Z</time></trkpt><trkpt lat="44.889845" lon="9.2658184"><ele>378.4</ele><time>2026-04-11T11:43:35.884Z</time></trkpt><trkpt lat="44.8897767" lon="9.2659125"><ele>376.6</ele><time>2026-04-11T11:43:36.884Z</time></trkpt><trkpt lat="44.8897188" lon="9.2660347"><ele>374.79999999999995</ele><time>2026-04-11T11:43:37.884Z</time></trkpt><trkpt lat="44.8896714" lon="9.2661707"><ele>373.0</ele><time>2026-04-11T11:43:38.884Z</time></trkpt><trkpt lat="44.8896248" lon="9.2663051"><ele>373.0</ele><time>2026-04-11T11:43:39.884Z</time></trkpt><trkpt lat="44.8895616" lon="9.2664136"><ele>373.0</ele><time>2026-04-11T11:43:40.884Z</time></trkpt><trkpt lat="44.8894883" lon="9.2664982"><ele>373.0</ele><time>2026-04-11T11:43:41.884Z</time></trkpt><trkpt lat="44.8894" lon="9.2665479"><ele>373.0</ele><time>2026-04-11T11:43:42.884Z</time></trkpt><trkpt lat="44.8892979" lon="9.2665586"><ele>373.0</ele><time>2026-04-11T11:43:43.883Z</time></trkpt><trkpt lat="44.889202" lon="9.2665318"><ele>373.0</ele><time>2026-04-11T11:43:44.884Z</time></trkpt><trkpt lat="44.8890997" lon="9.2664738"><ele>373.0</ele><time>2026-04-11T11:43:45.884Z</time></trkpt><trkpt lat="44.8889896" lon="9.2664074"><ele>373.0</ele><time>2026-04-11T11:43:46.884Z</time></trkpt><trkpt lat="44.8888725" lon="9.2663296"><ele>373.0</ele><time>2026-04-11T11:43:47.884Z</time></trkpt><trkpt lat="44.8887491" lon="9.2662478"><ele>373.5</ele><time>2026-04-11T11:43:48.883Z</time></trkpt><trkpt lat="44.8886231" lon="9.2661602"><ele>374.0</ele><time>2026-04-11T11:43:49.884Z</time></trkpt><trkpt lat="44.8885001" lon="9.2660733"><ele>374.5</ele><time>2026-04-11T11:43:50.884Z</time></trkpt><trkpt lat="44.8883706" lon="9.265979"><ele>375.0</ele><time>2026-04-11T11:43:51.884Z</time></trkpt><trkpt lat="44.8882371" lon="9.2658837"><ele>375.0</ele><time>2026-04-11T11:43:52.884Z</time></trkpt><trkpt lat="44.8881" lon="9.2657848"><ele>375.0</ele><time>2026-04-11T11:43:53.884Z</time></trkpt><trkpt lat="44.8879564" lon="9.2656895"><ele>375.0</ele><time>2026-04-11T11:43:54.884Z</time></trkpt><trkpt lat="44.8878081" lon="9.265602"><ele>377.6666666666667</ele><time>2026-04-11T11:43:55.884Z</time></trkpt><trkpt lat="44.8876534" lon="9.2655214"><ele>380.33333333333337</ele><time>2026-04-11T11:43:56.883Z</time></trkpt><trkpt lat="44.8874947" lon="9.2654339"><ele>383.0</ele><time>2026-04-11T11:43:57.884Z</time></trkpt><trkpt lat="44.8873321" lon="9.2653453"><ele>383.0</ele><time>2026-04-11T11:43:58.884Z</time></trkpt><trkpt lat="44.8871643" lon="9.265254"><ele>383.0</ele><time>2026-04-11T11:43:59.884Z</time></trkpt><trkpt lat="44.8869912" lon="9.2651664"><ele>383.0</ele><time>2026-04-11T11:44:00.884Z</time></trkpt><trkpt lat="44.8868226" lon="9.2650809"><ele>380.6666666666667</ele><time>2026-04-11T11:44:01.884Z</time></trkpt><trkpt lat="44.8866587" lon="9.2649983"><ele>378.3333333333333</ele><time>2026-04-11T11:44:02.884Z</time></trkpt><trkpt lat="44.8864967" lon="9.2649151"><ele>376.0</ele><time>2026-04-11T11:44:03.884Z</time></trkpt><trkpt lat="44.8863305" lon="9.2648529"><ele>376.0</ele><time>2026-04-11T11:44:04.884Z</time></trkpt><trkpt lat="44.8861546" lon="9.2648084"><ele>376.0</ele><time>2026-04-11T11:44:05.884Z</time></trkpt><trkpt lat="44.8859797" lon="9.2647776"><ele>376.0</ele><time>2026-04-11T11:44:06.884Z</time></trkpt><trkpt lat="44.8857999" lon="9.2647493"><ele>379.66666666666663</ele><time>2026-04-11T11:44:07.884Z</time></trkpt><trkpt lat="44.8856236" lon="9.2647276"><ele>383.3333333333333</ele><time>2026-04-11T11:44:08.884Z</time></trkpt><trkpt lat="44.8854395" lon="9.2647092"><ele>387.0</ele><time>2026-04-11T11:44:09.884Z</time></trkpt><trkpt lat="44.8852611" lon="9.2646905"><ele>385.6666666666667</ele><time>2026-04-11T11:44:10.884Z</time></trkpt><trkpt lat="44.8850774" lon="9.2646622"><ele>384.33333333333337</ele><time>2026-04-11T11:44:11.885Z</time></trkpt><trkpt lat="44.8848982" lon="9.2646436"><ele>383.0</ele><time>2026-04-11T11:44:12.884Z</time></trkpt><trkpt lat="44.8847185" lon="9.2646226"><ele>383.0</ele><time>2026-04-11T11:44:13.884Z</time></trkpt><trkpt lat="44.8845397" lon="9.2646058"><ele>383.0</ele><time>2026-04-11T11:44:14.884Z</time></trkpt><trkpt lat="44.8843575" lon="9.2645716"><ele>383.0</ele><time>2026-04-11T11:44:15.885Z</time></trkpt><trkpt lat="44.8841715" lon="9.2645426"><ele>382.0</ele><time>2026-04-11T11:44:16.885Z</time></trkpt><trkpt lat="44.883993" lon="9.2645332"><ele>381.0</ele><time>2026-04-11T11:44:17.885Z</time></trkpt><trkpt lat="44.8838113" lon="9.2645291"><ele>380.0</ele><time>2026-04-11T11:44:18.884Z</time></trkpt><trkpt lat="44.8836299" lon="9.264535"><ele>380.0</ele><time>2026-04-11T11:44:19.885Z</time></trkpt><trkpt lat="44.8834416" lon="9.2645565"><ele>380.0</ele><time>2026-04-11T11:44:20.884Z</time></trkpt><trkpt lat="44.8832588" lon="9.2645958"><ele>380.0</ele><time>2026-04-11T11:44:21.885Z</time></trkpt><trkpt lat="44.8830705" lon="9.2646327"><ele>381.0</ele><time>2026-04-11T11:44:22.885Z</time></trkpt><trkpt lat="44.8828852" lon="9.2646762"><ele>382.0</ele><time>2026-04-11T11:44:23.885Z</time></trkpt><trkpt lat="44.8826987" lon="9.2647202"><ele>383.0</ele><time>2026-04-11T11:44:24.885Z</time></trkpt><trkpt lat="44.8825102" lon="9.2647564"><ele>382.33333333333337</ele><time>2026-04-11T11:44:25.885Z</time></trkpt><trkpt lat="44.8823219" lon="9.2647938"><ele>381.6666666666667</ele><time>2026-04-11T11:44:26.885Z</time></trkpt><trkpt lat="44.8821419" lon="9.2648348"><ele>381.0</ele><time>2026-04-11T11:44:27.885Z</time></trkpt><trkpt lat="44.8819785" lon="9.2648662"><ele>381.0</ele><time>2026-04-11T11:44:28.884Z</time></trkpt><trkpt lat="44.8818193" lon="9.2648966"><ele>381.0</ele><time>2026-04-11T11:44:29.885Z</time></trkpt><trkpt lat="44.8816583" lon="9.2649238"><ele>381.0</ele><time>2026-04-11T11:44:30.885Z</time></trkpt><trkpt lat="44.8814935" lon="9.2649477"><ele>381.6666666666667</ele><time>2026-04-11T11:44:31.885Z</time></trkpt><trkpt lat="44.8813245" lon="9.2649594"><ele>382.33333333333337</ele><time>2026-04-11T11:44:32.885Z</time></trkpt><trkpt lat="44.8811521" lon="9.2649737"><ele>383.0</ele><time>2026-04-11T11:44:33.884Z</time></trkpt><trkpt lat="44.8809799" lon="9.2649827"><ele>384.0</ele><time>2026-04-11T11:44:34.885Z</time></trkpt><trkpt lat="44.880822" lon="9.2649839"><ele>385.0</ele><time>2026-04-11T11:44:35.885Z</time></trkpt><trkpt lat="44.8806906" lon="9.2649937"><ele>386.0</ele><time>2026-04-11T11:44:36.885Z</time></trkpt><trkpt lat="44.8805752" lon="9.2649873"><ele>387.0</ele><time>2026-04-11T11:44:37.885Z</time></trkpt><trkpt lat="44.8804697" lon="9.2649948"><ele>387.0</ele><time>2026-04-11T11:44:38.885Z</time></trkpt><trkpt lat="44.8803646" lon="9.265036"><ele>387.0</ele><time>2026-04-11T11:44:39.885Z</time></trkpt><trkpt lat="44.8802681" lon="9.2651317"><ele>387.0</ele><time>2026-04-11T11:44:40.885Z</time></trkpt><trkpt lat="44.880196" lon="9.2652669"><ele>387.0</ele><time>2026-04-11T11:44:41.885Z</time></trkpt><trkpt lat="44.8801409" lon="9.265431"><ele>386.5</ele><time>2026-04-11T11:44:42.885Z</time></trkpt><trkpt lat="44.8800934" lon="9.2656149"><ele>386.0</ele><time>2026-04-11T11:44:43.884Z</time></trkpt><trkpt lat="44.8800436" lon="9.2658093"><ele>385.5</ele><time>2026-04-11T11:44:44.885Z</time></trkpt><trkpt lat="44.8799929" lon="9.2659986"><ele>385.0</ele><time>2026-04-11T11:44:45.885Z</time></trkpt><trkpt lat="44.8799344" lon="9.2661878"><ele>385.0</ele><time>2026-04-11T11:44:46.885Z</time></trkpt><trkpt lat="44.879851" lon="9.2663744"><ele>385.0</ele><time>2026-04-11T11:44:47.884Z</time></trkpt><trkpt lat="44.8797538" lon="9.2665435"><ele>385.0</ele><time>2026-04-11T11:44:48.885Z</time></trkpt><trkpt lat="44.8796516" lon="9.2667036"><ele>384.6666666666667</ele><time>2026-04-11T11:44:49.885Z</time></trkpt><trkpt lat="44.8795409" lon="9.2668622"><ele>384.33333333333337</ele><time>2026-04-11T11:44:50.885Z</time></trkpt><trkpt lat="44.8794334" lon="9.267021"><ele>384.0</ele><time>2026-04-11T11:44:51.885Z</time></trkpt><trkpt lat="44.8793223" lon="9.2671835"><ele>385.0</ele><time>2026-04-11T11:44:52.884Z</time></trkpt><trkpt lat="44.8792153" lon="9.2673391"><ele>386.0</ele><time>2026-04-11T11:44:53.885Z</time></trkpt><trkpt lat="44.8791029" lon="9.2674854"><ele>387.0</ele><time>2026-04-11T11:44:54.885Z</time></trkpt><trkpt lat="44.8790012" lon="9.2676246"><ele>388.0</ele><time>2026-04-11T11:44:55.885Z</time></trkpt><trkpt lat="44.8789071" lon="9.2677691"><ele>388.0</ele><time>2026-04-11T11:44:56.885Z</time></trkpt><trkpt lat="44.8788108" lon="9.2679102"><ele>388.0</ele><time>2026-04-11T11:44:57.886Z</time></trkpt><trkpt lat="44.8787103" lon="9.2680242"><ele>388.0</ele><time>2026-04-11T11:44:58.885Z</time></trkpt><trkpt lat="44.878606" lon="9.2681122"><ele>388.0</ele><time>2026-04-11T11:44:59.886Z</time></trkpt><trkpt lat="44.8784865" lon="9.2681734"><ele>389.0</ele><time>2026-04-11T11:45:00.886Z</time></trkpt><trkpt lat="44.8783472" lon="9.2681977"><ele>390.0</ele><time>2026-04-11T11:45:01.885Z</time></trkpt><trkpt lat="44.8782004" lon="9.2682159"><ele>391.0</ele><time>2026-04-11T11:45:02.886Z</time></trkpt><trkpt lat="44.8780555" lon="9.268266"><ele>392.0</ele><time>2026-04-11T11:45:03.886Z</time></trkpt><trkpt lat="44.8779071" lon="9.2683182"><ele>392.0</ele><time>2026-04-11T11:45:04.886Z</time></trkpt><trkpt lat="44.8777569" lon="9.2683948"><ele>392.0</ele><time>2026-04-11T11:45:05.886Z</time></trkpt><trkpt lat="44.8776144" lon="9.2685021"><ele>392.0</ele><time>2026-04-11T11:45:06.885Z</time></trkpt><trkpt lat="44.8774759" lon="9.2686373"><ele>393.0</ele><time>2026-04-11T11:45:07.886Z</time></trkpt><trkpt lat="44.8773396" lon="9.2687855"><ele>394.0</ele><time>2026-04-11T11:45:08.886Z</time></trkpt><trkpt lat="44.8772034" lon="9.2689546"><ele>395.0</ele><time>2026-04-11T11:45:09.886Z</time></trkpt><trkpt lat="44.877074" lon="9.2691286"><ele>395.0</ele><time>2026-04-11T11:45:10.886Z</time></trkpt><trkpt lat="44.876949" lon="9.2692964"><ele>395.0</ele><time>2026-04-11T11:45:11.886Z</time></trkpt><trkpt lat="44.8768171" lon="9.2694559"><ele>395.0</ele><time>2026-04-11T11:45:12.885Z</time></trkpt><trkpt lat="44.8766996" lon="9.2695961"><ele>397.0</ele><time>2026-04-11T11:45:13.886Z</time></trkpt><trkpt lat="44.8766119" lon="9.269725"><ele>399.0</ele><time>2026-04-11T11:45:14.886Z</time></trkpt><trkpt lat="44.876518" lon="9.2698366"><ele>401.0</ele><time>2026-04-11T11:45:15.886Z</time></trkpt><trkpt lat="44.8764013" lon="9.2699226"><ele>403.0</ele><time>2026-04-11T11:45:16.885Z</time></trkpt><trkpt lat="44.8762459" lon="9.2699752"><ele>403.0</ele><time>2026-04-11T11:45:17.886Z</time></trkpt><trkpt lat="44.8760985" lon="9.2700296"><ele>403.0</ele><time>2026-04-11T11:45:18.885Z</time></trkpt><trkpt lat="44.8759772" lon="9.2701239"><ele>403.0</ele><time>2026-04-11T11:45:19.886Z</time></trkpt><trkpt lat="44.8758421" lon="9.2702351"><ele>403.0</ele><time>2026-04-11T11:45:20.886Z</time></trkpt><trkpt lat="44.8756916" lon="9.2703609"><ele>404.33333333333337</ele><time>2026-04-11T11:45:21.886Z</time></trkpt><trkpt lat="44.875554" lon="9.270508"><ele>405.66666666666663</ele><time>2026-04-11T11:45:22.886Z</time></trkpt><trkpt lat="44.8754555" lon="9.2706883"><ele>407.0</ele><time>2026-04-11T11:45:23.886Z</time></trkpt><trkpt lat="44.8753676" lon="9.270858"><ele>407.0</ele><time>2026-04-11T11:45:24.886Z</time></trkpt><trkpt lat="44.8752878" lon="9.2710027"><ele>407.0</ele><time>2026-04-11T11:45:25.886Z</time></trkpt><trkpt lat="44.8751921" lon="9.2711147"><ele>407.0</ele><time>2026-04-11T11:45:26.885Z</time></trkpt><trkpt lat="44.8750764" lon="9.2712108"><ele>407.0</ele><time>2026-04-11T11:45:27.886Z</time></trkpt><trkpt lat="44.8749491" lon="9.2712939"><ele>409.75</ele><time>2026-04-11T11:45:28.885Z</time></trkpt><trkpt lat="44.8748301" lon="9.2713717"><ele>412.5</ele><time>2026-04-11T11:45:29.885Z</time></trkpt><trkpt lat="44.8747424" lon="9.2714722"><ele>415.25</ele><time>2026-04-11T11:45:30.886Z</time></trkpt><trkpt lat="44.8746776" lon="9.2716259"><ele>418.0</ele><time>2026-04-11T11:45:31.886Z</time></trkpt><trkpt lat="44.8746453" lon="9.2717975"><ele>418.0</ele><time>2026-04-11T11:45:32.885Z</time></trkpt><trkpt lat="44.8746341" lon="9.2719818"><ele>418.0</ele><time>2026-04-11T11:45:33.885Z</time></trkpt><trkpt lat="44.8746219" lon="9.272144"><ele>418.0</ele><time>2026-04-11T11:45:34.886Z</time></trkpt><trkpt lat="44.8745904" lon="9.2722773"><ele>418.0</ele><time>2026-04-11T11:45:35.886Z</time></trkpt><trkpt lat="44.8745277" lon="9.272393"><ele>418.0</ele><time>2026-04-11T11:45:36.886Z</time></trkpt><trkpt lat="44.8744364" lon="9.2724783"><ele>417.25</ele><time>2026-04-11T11:45:37.886Z</time></trkpt><trkpt lat="44.8743205" lon="9.2725388"><ele>416.5</ele><time>2026-04-11T11:45:38.886Z</time></trkpt><trkpt lat="44.8741879" lon="9.2725864"><ele>415.75</ele><time>2026-04-11T11:45:39.886Z</time></trkpt><trkpt lat="44.8740545" lon="9.2726546"><ele>415.0</ele><time>2026-04-11T11:45:40.886Z</time></trkpt><trkpt lat="44.8739095" lon="9.2727283"><ele>420.6666666666667</ele><time>2026-04-11T11:45:41.886Z</time></trkpt><trkpt lat="44.8737601" lon="9.2727837"><ele>426.33333333333337</ele><time>2026-04-11T11:45:42.886Z</time></trkpt><trkpt lat="44.8736101" lon="9.2728043"><ele>432.0</ele><time>2026-04-11T11:45:43.886Z</time></trkpt><trkpt lat="44.8734548" lon="9.2728024"><ele>435.33333333333337</ele><time>2026-04-11T11:45:44.886Z</time></trkpt><trkpt lat="44.8733147" lon="9.2728489"><ele>438.6666666666667</ele><time>2026-04-11T11:45:45.887Z</time></trkpt><trkpt lat="44.8731653" lon="9.2729203"><ele>442.0</ele><time>2026-04-11T11:45:46.887Z</time></trkpt><trkpt lat="44.873036" lon="9.273033"><ele>437.6666666666667</ele><time>2026-04-11T11:45:47.887Z</time></trkpt><trkpt lat="44.8728968" lon="9.2731623"><ele>433.33333333333337</ele><time>2026-04-11T11:45:48.887Z</time></trkpt><trkpt lat="44.8727584" lon="9.2733051"><ele>429.0</ele><time>2026-04-11T11:45:49.886Z</time></trkpt><trkpt lat="44.8726328" lon="9.273442"><ele>433.75</ele><time>2026-04-11T11:45:50.887Z</time></trkpt><trkpt lat="44.872523" lon="9.273546"><ele>438.5</ele><time>2026-04-11T11:45:51.886Z</time></trkpt><trkpt lat="44.8724196" lon="9.2736304"><ele>443.25</ele><time>2026-04-11T11:45:52.887Z</time></trkpt><trkpt lat="44.8723349" lon="9.2737336"><ele>448.0</ele><time>2026-04-11T11:45:53.887Z</time></trkpt><trkpt lat="44.8722722" lon="9.273877"><ele>446.0</ele><time>2026-04-11T11:45:54.887Z</time></trkpt><trkpt lat="44.8722385" lon="9.2740803"><ele>444.0</ele><time>2026-04-11T11:45:55.887Z</time></trkpt><trkpt lat="44.8722085" lon="9.27428"><ele>442.0</ele><time>2026-04-11T11:45:56.887Z</time></trkpt><trkpt lat="44.8721718" lon="9.2744744"><ele>440.0</ele><time>2026-04-11T11:45:57.887Z</time></trkpt><trkpt lat="44.8721261" lon="9.2746562"><ele>439.0</ele><time>2026-04-11T11:45:58.887Z</time></trkpt><trkpt lat="44.8720655" lon="9.2748183"><ele>438.0</ele><time>2026-04-11T11:45:59.886Z</time></trkpt><trkpt lat="44.8719732" lon="9.2749346"><ele>437.0</ele><time>2026-04-11T11:46:00.887Z</time></trkpt><trkpt lat="44.8718676" lon="9.2750508"><ele>436.0</ele><time>2026-04-11T11:46:01.887Z</time></trkpt><trkpt lat="44.8717519" lon="9.2751782"><ele>439.0</ele><time>2026-04-11T11:46:02.887Z</time></trkpt><trkpt lat="44.8716239" lon="9.2753136"><ele>442.0</ele><time>2026-04-11T11:46:03.887Z</time></trkpt><trkpt lat="44.8714903" lon="9.2754623"><ele>445.0</ele><time>2026-04-11T11:46:04.887Z</time></trkpt><trkpt lat="44.8713493" lon="9.2756047"><ele>445.0</ele><time>2026-04-11T11:46:05.886Z</time></trkpt><trkpt lat="44.8712122" lon="9.2757455"><ele>445.0</ele><time>2026-04-11T11:46:06.887Z</time></trkpt><trkpt lat="44.8710858" lon="9.2758819"><ele>445.0</ele><time>2026-04-11T11:46:07.887Z</time></trkpt><trkpt lat="44.8709725" lon="9.2760391"><ele>448.0</ele><time>2026-04-11T11:46:08.886Z</time></trkpt><trkpt lat="44.8708806" lon="9.2761989"><ele>451.0</ele><time>2026-04-11T11:46:09.887Z</time></trkpt><trkpt lat="44.8708142" lon="9.276356"><ele>454.0</ele><time>2026-04-11T11:46:10.887Z</time></trkpt><trkpt lat="44.8707704" lon="9.2765243"><ele>457.0</ele><time>2026-04-11T11:46:11.887Z</time></trkpt><trkpt lat="44.870743" lon="9.2767142"><ele>457.0</ele><time>2026-04-11T11:46:12.887Z</time></trkpt><trkpt lat="44.870738" lon="9.2769152"><ele>457.0</ele><time>2026-04-11T11:46:13.886Z</time></trkpt><trkpt lat="44.8707384" lon="9.2771279"><ele>457.0</ele><time>2026-04-11T11:46:14.886Z</time></trkpt><trkpt lat="44.8707301" lon="9.2773381"><ele>457.0</ele><time>2026-04-11T11:46:15.887Z</time></trkpt><trkpt lat="44.8707149" lon="9.2775487"><ele>457.00000000000006</ele><time>2026-04-11T11:46:16.887Z</time></trkpt><trkpt lat="44.8706919" lon="9.277728"><ele>457.0</ele><time>2026-04-11T11:46:17.887Z</time></trkpt><trkpt lat="44.8706742" lon="9.2778601"><ele>457.0</ele><time>2026-04-11T11:46:18.887Z</time></trkpt><trkpt lat="44.8706448" lon="9.2779695"><ele>457.0</ele><time>2026-04-11T11:46:19.887Z</time></trkpt><trkpt lat="44.870607" lon="9.27805"><ele>457.00000000000006</ele><time>2026-04-11T11:46:20.887Z</time></trkpt><trkpt lat="44.8705553" lon="9.2781053"><ele>457.0</ele><time>2026-04-11T11:46:21.886Z</time></trkpt><trkpt lat="44.8704566" lon="9.278107"><ele>456.83333333333337</ele><time>2026-04-11T11:46:23.886Z</time></trkpt><trkpt lat="44.8703912" lon="9.2781397"><ele>456.6666666666667</ele><time>2026-04-11T11:46:25.887Z</time></trkpt><trkpt lat="44.8703526" lon="9.2782437"><ele>456.5</ele><time>2026-04-11T11:46:28.886Z</time></trkpt><trkpt lat="44.8702937" lon="9.2783847"><ele>456.33333333333337</ele><time>2026-04-11T11:48:33.89Z</time></trkpt><trkpt lat="44.8702512" lon="9.2784549"><ele>456.1666666666667</ele><time>2026-04-11T11:48:34.89Z</time></trkpt><trkpt lat="44.8702027" lon="9.2785304"><ele>456.0</ele><time>2026-04-11T11:48:35.89Z</time></trkpt><trkpt lat="44.8701592" lon="9.2786202"><ele>456.0</ele><time>2026-04-11T11:48:36.89Z</time></trkpt><trkpt lat="44.8701256" lon="9.2787412"><ele>456.0</ele><time>2026-04-11T11:48:37.89Z</time></trkpt><trkpt lat="44.8701163" lon="9.2788829"><ele>456.0</ele><time>2026-04-11T11:48:38.89Z</time></trkpt><trkpt lat="44.8701266" lon="9.2790428"><ele>456.0</ele><time>2026-04-11T11:48:39.89Z</time></trkpt><trkpt lat="44.8701369" lon="9.2792032"><ele>456.0</ele><time>2026-04-11T11:48:40.89Z</time></trkpt><trkpt lat="44.8701434" lon="9.2793616"><ele>455.6</ele><time>2026-04-11T11:48:41.89Z</time></trkpt><trkpt lat="44.8701402" lon="9.2795208"><ele>455.20000000000005</ele><time>2026-04-11T11:48:42.889Z</time></trkpt><trkpt lat="44.8701243" lon="9.2796617"><ele>454.79999999999995</ele><time>2026-04-11T11:48:43.89Z</time></trkpt><trkpt lat="44.8700973" lon="9.2797868"><ele>454.4</ele><time>2026-04-11T11:48:44.89Z</time></trkpt><trkpt lat="44.8700536" lon="9.2798954"><ele>454.0</ele><time>2026-04-11T11:48:45.89Z</time></trkpt><trkpt lat="44.8699858" lon="9.2799967"><ele>456.75</ele><time>2026-04-11T11:48:46.89Z</time></trkpt><trkpt lat="44.8698969" lon="9.2800905"><ele>459.5</ele><time>2026-04-11T11:48:47.89Z</time></trkpt><trkpt lat="44.8697951" lon="9.2801717"><ele>462.25</ele><time>2026-04-11T11:48:48.89Z</time></trkpt><trkpt lat="44.8696931" lon="9.2802689"><ele>465.0</ele><time>2026-04-11T11:48:49.89Z</time></trkpt><trkpt lat="44.8695846" lon="9.280387"><ele>465.0</ele><time>2026-04-11T11:48:50.89Z</time></trkpt><trkpt lat="44.8694866" lon="9.2805372"><ele>465.0</ele><time>2026-04-11T11:48:51.89Z</time></trkpt><trkpt lat="44.8693992" lon="9.2807054"><ele>465.0</ele><time>2026-04-11T11:48:52.89Z</time></trkpt><trkpt lat="44.8693162" lon="9.2808929"><ele>465.0</ele><time>2026-04-11T11:48:53.89Z</time></trkpt><trkpt lat="44.8692304" lon="9.2810822"><ele>466.66666666666663</ele><time>2026-04-11T11:48:54.889Z</time></trkpt><trkpt lat="44.8691453" lon="9.2812742"><ele>468.3333333333333</ele><time>2026-04-11T11:48:55.89Z</time></trkpt><trkpt lat="44.8690619" lon="9.2814593"><ele>470.0</ele><time>2026-04-11T11:48:56.89Z</time></trkpt><trkpt lat="44.8689873" lon="9.2816525"><ele>470.0</ele><time>2026-04-11T11:48:57.889Z</time></trkpt><trkpt lat="44.8689287" lon="9.2818668"><ele>470.0</ele><time>2026-04-11T11:48:58.89Z</time></trkpt><trkpt lat="44.8688762" lon="9.2820969"><ele>470.0</ele><time>2026-04-11T11:48:59.89Z</time></trkpt><trkpt lat="44.8688345" lon="9.2823402"><ele>468.66666666666663</ele><time>2026-04-11T11:49:00.89Z</time></trkpt><trkpt lat="44.8688041" lon="9.2825817"><ele>467.33333333333337</ele><time>2026-04-11T11:49:01.89Z</time></trkpt><trkpt lat="44.8687666" lon="9.2828267"><ele>466.0</ele><time>2026-04-11T11:49:02.89Z</time></trkpt><trkpt lat="44.8687305" lon="9.2830451"><ele>465.75</ele><time>2026-04-11T11:49:03.89Z</time></trkpt><trkpt lat="44.8686986" lon="9.2832433"><ele>465.5</ele><time>2026-04-11T11:49:04.89Z</time></trkpt><trkpt lat="44.8686681" lon="9.2834276"><ele>465.25</ele><time>2026-04-11T11:49:05.89Z</time></trkpt><trkpt lat="44.8686474" lon="9.2836099"><ele>465.0</ele><time>2026-04-11T11:49:06.891Z</time></trkpt><trkpt lat="44.8686463" lon="9.2837965"><ele>466.5</ele><time>2026-04-11T11:49:07.891Z</time></trkpt><trkpt lat="44.8686758" lon="9.283984"><ele>468.0</ele><time>2026-04-11T11:49:08.891Z</time></trkpt><trkpt lat="44.8687369" lon="9.2841702"><ele>469.5</ele><time>2026-04-11T11:49:09.891Z</time></trkpt><trkpt lat="44.8688144" lon="9.2843442"><ele>471.0</ele><time>2026-04-11T11:49:10.891Z</time></trkpt><trkpt lat="44.8688856" lon="9.2845103"><ele>471.0</ele><time>2026-04-11T11:49:11.889Z</time></trkpt><trkpt lat="44.868945" lon="9.2846601"><ele>471.0</ele><time>2026-04-11T11:49:12.89Z</time></trkpt><trkpt lat="44.8689888" lon="9.2847922"><ele>471.0</ele><time>2026-04-11T11:49:13.89Z</time></trkpt><trkpt lat="44.869012" lon="9.2849297"><ele>471.0</ele><time>2026-04-11T11:49:14.89Z</time></trkpt><trkpt lat="44.8690002" lon="9.2850719"><ele>471.0</ele><time>2026-04-11T11:49:15.89Z</time></trkpt><trkpt lat="44.8689531" lon="9.2851945"><ele>471.75</ele><time>2026-04-11T11:49:16.89Z</time></trkpt><trkpt lat="44.8688681" lon="9.2852972"><ele>472.5</ele><time>2026-04-11T11:49:17.89Z</time></trkpt><trkpt lat="44.8687631" lon="9.2853857"><ele>473.25</ele><time>2026-04-11T11:49:18.89Z</time></trkpt><trkpt lat="44.868652" lon="9.285477"><ele>474.0</ele><time>2026-04-11T11:49:19.89Z</time></trkpt><trkpt lat="44.8685423" lon="9.285591"><ele>471.25</ele><time>2026-04-11T11:49:20.89Z</time></trkpt><trkpt lat="44.8684525" lon="9.2857283"><ele>468.5</ele><time>2026-04-11T11:49:21.89Z</time></trkpt><trkpt lat="44.8683854" lon="9.2859043"><ele>465.75</ele><time>2026-04-11T11:49:22.89Z</time></trkpt><trkpt lat="44.8683299" lon="9.2860901"><ele>463.0</ele><time>2026-04-11T11:49:23.89Z</time></trkpt><trkpt lat="44.8682831" lon="9.2862831"><ele>469.0</ele><time>2026-04-11T11:49:24.89Z</time></trkpt><trkpt lat="44.8682165" lon="9.2864691"><ele>475.0</ele><time>2026-04-11T11:49:25.89Z</time></trkpt><trkpt lat="44.8681567" lon="9.2866219"><ele>481.0</ele><time>2026-04-11T11:49:26.889Z</time></trkpt><trkpt lat="44.8681115" lon="9.2867654"><ele>487.0</ele><time>2026-04-11T11:49:27.89Z</time></trkpt><trkpt lat="44.8680851" lon="9.2869361"><ele>487.0</ele><time>2026-04-11T11:49:28.891Z</time></trkpt><trkpt lat="44.8681061" lon="9.2870978"><ele>487.00000000000006</ele><time>2026-04-11T11:49:29.891Z</time></trkpt><trkpt lat="44.8681688" lon="9.2872343"><ele>487.00000000000006</ele><time>2026-04-11T11:49:30.891Z</time></trkpt><trkpt lat="44.8682475" lon="9.2873316"><ele>487.0</ele><time>2026-04-11T11:49:31.891Z</time></trkpt><trkpt lat="44.8683212" lon="9.2874122"><ele>487.0</ele><time>2026-04-11T11:49:32.891Z</time></trkpt><trkpt lat="44.8683739" lon="9.2875013"><ele>487.0</ele><time>2026-04-11T11:49:33.891Z</time></trkpt><trkpt lat="44.8683874" lon="9.2876003"><ele>487.00000000000006</ele><time>2026-04-11T11:49:34.891Z</time></trkpt><trkpt lat="44.8683592" lon="9.2877398"><ele>487.00000000000006</ele><time>2026-04-11T11:49:35.891Z</time></trkpt><trkpt lat="44.8683146" lon="9.2878784"><ele>487.0</ele><time>2026-04-11T11:49:36.891Z</time></trkpt><trkpt lat="44.868264" lon="9.2880097"><ele>487.0</ele><time>2026-04-11T11:49:37.891Z</time></trkpt><trkpt lat="44.8682095" lon="9.2881231"><ele>484.8</ele><time>2026-04-11T11:49:38.891Z</time></trkpt><trkpt lat="44.8681363" lon="9.2881991"><ele>482.6</ele><time>2026-04-11T11:49:39.891Z</time></trkpt><trkpt lat="44.8680355" lon="9.28822"><ele>480.40000000000003</ele><time>2026-04-11T11:49:40.89Z</time></trkpt><trkpt lat="44.8679301" lon="9.2882205"><ele>478.20000000000005</ele><time>2026-04-11T11:49:41.891Z</time></trkpt><trkpt lat="44.8678101" lon="9.2882302"><ele>476.0</ele><time>2026-04-11T11:49:42.891Z</time></trkpt><trkpt lat="44.8676793" lon="9.2882497"><ele>480.5</ele><time>2026-04-11T11:49:43.89Z</time></trkpt><trkpt lat="44.8675511" lon="9.288256"><ele>485.0</ele><time>2026-04-11T11:49:44.891Z</time></trkpt><trkpt lat="44.8674188" lon="9.2882591"><ele>489.5</ele><time>2026-04-11T11:49:45.89Z</time></trkpt><trkpt lat="44.8673026" lon="9.2882669"><ele>494.0</ele><time>2026-04-11T11:49:46.891Z</time></trkpt><trkpt lat="44.8671943" lon="9.2883043"><ele>494.0</ele><time>2026-04-11T11:49:47.89Z</time></trkpt><trkpt lat="44.867092" lon="9.2883842"><ele>494.0</ele><time>2026-04-11T11:49:48.891Z</time></trkpt><trkpt lat="44.8669996" lon="9.2885148"><ele>494.0</ele><time>2026-04-11T11:49:49.891Z</time></trkpt><trkpt lat="44.8669167" lon="9.2886684"><ele>494.0</ele><time>2026-04-11T11:49:50.891Z</time></trkpt><trkpt lat="44.8668399" lon="9.2888473"><ele>493.0</ele><time>2026-04-11T11:49:51.891Z</time></trkpt><trkpt lat="44.8667559" lon="9.28903"><ele>492.0</ele><time>2026-04-11T11:49:52.891Z</time></trkpt><trkpt lat="44.8666549" lon="9.2892085"><ele>491.0</ele><time>2026-04-11T11:49:53.891Z</time></trkpt><trkpt lat="44.8665465" lon="9.2893692"><ele>491.0</ele><time>2026-04-11T11:49:54.891Z</time></trkpt><trkpt lat="44.8664192" lon="9.2895105"><ele>491.0</ele><time>2026-04-11T11:49:55.891Z</time></trkpt><trkpt lat="44.8662791" lon="9.2896403"><ele>491.0</ele><time>2026-04-11T11:49:56.891Z</time></trkpt><trkpt lat="44.8661361" lon="9.2897546"><ele>490.5</ele><time>2026-04-11T11:49:57.891Z</time></trkpt><trkpt lat="44.8660067" lon="9.2898562"><ele>490.0</ele><time>2026-04-11T11:49:58.891Z</time></trkpt><trkpt lat="44.8658804" lon="9.2899492"><ele>489.5</ele><time>2026-04-11T11:49:59.891Z</time></trkpt><trkpt lat="44.8657529" lon="9.2900388"><ele>489.0</ele><time>2026-04-11T11:50:00.891Z</time></trkpt><trkpt lat="44.8656415" lon="9.2901292"><ele>489.0</ele><time>2026-04-11T11:50:01.89Z</time></trkpt><trkpt lat="44.8655393" lon="9.2901954"><ele>489.0</ele><time>2026-04-11T11:50:02.891Z</time></trkpt><trkpt lat="44.8654524" lon="9.2902499"><ele>489.0</ele><time>2026-04-11T11:50:03.891Z</time></trkpt><trkpt lat="44.8653765" lon="9.2903173"><ele>489.0</ele><time>2026-04-11T11:50:04.891Z</time></trkpt><trkpt lat="44.8653321" lon="9.2904191"><ele>489.0</ele><time>2026-04-11T11:50:05.891Z</time></trkpt><trkpt lat="44.8653198" lon="9.290555"><ele>487.5</ele><time>2026-04-11T11:50:06.891Z</time></trkpt><trkpt lat="44.8653523" lon="9.2907019"><ele>486.0</ele><time>2026-04-11T11:50:07.891Z</time></trkpt><trkpt lat="44.8654241" lon="9.2908225"><ele>484.5</ele><time>2026-04-11T11:50:08.891Z</time></trkpt><trkpt lat="44.8655121" lon="9.2909311"><ele>483.0</ele><time>2026-04-11T11:50:09.887Z</time></trkpt><trkpt lat="44.8655982" lon="9.2910432"><ele>483.0</ele><time>2026-04-11T11:50:10.891Z</time></trkpt><trkpt lat="44.865679" lon="9.2911995"><ele>483.0</ele><time>2026-04-11T11:50:11.891Z</time></trkpt><trkpt lat="44.8657354" lon="9.2913848"><ele>483.0</ele><time>2026-04-11T11:50:12.891Z</time></trkpt><trkpt lat="44.8657651" lon="9.2915693"><ele>483.0</ele><time>2026-04-11T11:50:13.891Z</time></trkpt><trkpt lat="44.8657954" lon="9.2917278"><ele>482.3333333333333</ele><time>2026-04-11T11:50:14.891Z</time></trkpt><trkpt lat="44.8658192" lon="9.2918724"><ele>481.66666666666663</ele><time>2026-04-11T11:50:15.891Z</time></trkpt><trkpt lat="44.8658211" lon="9.2920012"><ele>481.0</ele><time>2026-04-11T11:50:16.891Z</time></trkpt><trkpt lat="44.8657852" lon="9.2921046"><ele>480.3333333333333</ele><time>2026-04-11T11:50:17.892Z</time></trkpt><trkpt lat="44.8657235" lon="9.2921761"><ele>479.66666666666663</ele><time>2026-04-11T11:50:18.892Z</time></trkpt><trkpt lat="44.865639" lon="9.2922009"><ele>479.0</ele><time>2026-04-11T11:50:19.892Z</time></trkpt><trkpt lat="44.8655349" lon="9.292181"><ele>479.0</ele><time>2026-04-11T11:50:20.892Z</time></trkpt><trkpt lat="44.8654165" lon="9.2921235"><ele>479.0</ele><time>2026-04-11T11:50:21.892Z</time></trkpt><trkpt lat="44.8652894" lon="9.2920609"><ele>479.0</ele><time>2026-04-11T11:50:22.892Z</time></trkpt><trkpt lat="44.8651516" lon="9.2919987"><ele>479.0</ele><time>2026-04-11T11:50:23.892Z</time></trkpt><trkpt lat="44.8650205" lon="9.2919466"><ele>479.2</ele><time>2026-04-11T11:50:24.892Z</time></trkpt><trkpt lat="44.8649057" lon="9.291897"><ele>479.4</ele><time>2026-04-11T11:50:25.892Z</time></trkpt><trkpt lat="44.8647983" lon="9.2918714"><ele>479.6</ele><time>2026-04-11T11:50:26.892Z</time></trkpt><trkpt lat="44.8646882" lon="9.2918708"><ele>479.8</ele><time>2026-04-11T11:50:27.892Z</time></trkpt><trkpt lat="44.8645905" lon="9.2919312"><ele>480.0</ele><time>2026-04-11T11:50:28.892Z</time></trkpt><trkpt lat="44.8645149" lon="9.2920328"><ele>480.0</ele><time>2026-04-11T11:50:29.892Z</time></trkpt><trkpt lat="44.8644679" lon="9.2921732"><ele>480.0</ele><time>2026-04-11T11:50:30.892Z</time></trkpt><trkpt lat="44.8644585" lon="9.2923357"><ele>480.0</ele><time>2026-04-11T11:50:31.892Z</time></trkpt><trkpt lat="44.8644871" lon="9.2925061"><ele>480.0</ele><time>2026-04-11T11:50:32.892Z</time></trkpt><trkpt lat="44.8645271" lon="9.292686"><ele>477.0</ele><time>2026-04-11T11:50:33.892Z</time></trkpt><trkpt lat="44.8645628" lon="9.2928865"><ele>474.0</ele><time>2026-04-11T11:50:34.891Z</time></trkpt><trkpt lat="44.8645985" lon="9.2931039"><ele>471.0</ele><time>2026-04-11T11:50:35.892Z</time></trkpt><trkpt lat="44.8646306" lon="9.293311"><ele>471.0</ele><time>2026-04-11T11:50:36.892Z</time></trkpt><trkpt lat="44.8646624" lon="9.2934884"><ele>471.0</ele><time>2026-04-11T11:50:37.892Z</time></trkpt><trkpt lat="44.8646841" lon="9.2936483"><ele>471.0</ele><time>2026-04-11T11:50:38.891Z</time></trkpt><trkpt lat="44.864677" lon="9.2938038"><ele>471.0</ele><time>2026-04-11T11:50:39.891Z</time></trkpt><trkpt lat="44.8646466" lon="9.2939578"><ele>471.0</ele><time>2026-04-11T11:50:40.892Z</time></trkpt><trkpt lat="44.864593" lon="9.2941079"><ele>471.0</ele><time>2026-04-11T11:50:41.891Z</time></trkpt><trkpt lat="44.8645299" lon="9.2942595"><ele>471.0</ele><time>2026-04-11T11:50:42.892Z</time></trkpt><trkpt lat="44.864498" lon="9.2944329"><ele>471.0</ele><time>2026-04-11T11:50:43.892Z</time></trkpt><trkpt lat="44.8644794" lon="9.2946141"><ele>471.0</ele><time>2026-04-11T11:50:44.892Z</time></trkpt><trkpt lat="44.8644774" lon="9.2947799"><ele>471.0</ele><time>2026-04-11T11:50:45.892Z</time></trkpt><trkpt lat="44.8644943" lon="9.2949228"><ele>471.0</ele><time>2026-04-11T11:50:46.891Z</time></trkpt><trkpt lat="44.864498" lon="9.295052"><ele>471.0</ele><time>2026-04-11T11:50:47.892Z</time></trkpt><trkpt lat="44.8644764" lon="9.2951658"><ele>471.0</ele><time>2026-04-11T11:50:48.891Z</time></trkpt><trkpt lat="44.8644203" lon="9.2952677"><ele>471.0</ele><time>2026-04-11T11:50:49.892Z</time></trkpt><trkpt lat="44.8643362" lon="9.2953647"><ele>471.0</ele><time>2026-04-11T11:50:50.892Z</time></trkpt><trkpt lat="44.8642435" lon="9.2954601"><ele>471.0</ele><time>2026-04-11T11:50:51.892Z</time></trkpt><trkpt lat="44.8641495" lon="9.2955665"><ele>471.0</ele><time>2026-04-11T11:50:52.892Z</time></trkpt><trkpt lat="44.8640618" lon="9.2956885"><ele>477.25</ele><time>2026-04-11T11:50:53.892Z</time></trkpt><trkpt lat="44.8639969" lon="9.2958394"><ele>483.5</ele><time>2026-04-11T11:50:54.892Z</time></trkpt><trkpt lat="44.8639759" lon="9.2960332"><ele>489.75</ele><time>2026-04-11T11:50:55.892Z</time></trkpt><trkpt lat="44.8639589" lon="9.2962174"><ele>496.0</ele><time>2026-04-11T11:50:56.891Z</time></trkpt><trkpt lat="44.8639187" lon="9.2963985"><ele>494.25</ele><time>2026-04-11T11:50:57.892Z</time></trkpt><trkpt lat="44.8638683" lon="9.2965755"><ele>492.5</ele><time>2026-04-11T11:50:58.892Z</time></trkpt><trkpt lat="44.8638157" lon="9.296761"><ele>490.75</ele><time>2026-04-11T11:50:59.891Z</time></trkpt><trkpt lat="44.8637713" lon="9.2969498"><ele>489.0</ele><time>2026-04-11T11:51:00.892Z</time></trkpt><trkpt lat="44.863723" lon="9.2971389"><ele>488.25</ele><time>2026-04-11T11:51:01.892Z</time></trkpt><trkpt lat="44.8636683" lon="9.2973268"><ele>487.5</ele><time>2026-04-11T11:51:02.892Z</time></trkpt><trkpt lat="44.8636131" lon="9.297509"><ele>486.75</ele><time>2026-04-11T11:51:03.892Z</time></trkpt><trkpt lat="44.8635645" lon="9.2977061"><ele>486.0</ele><time>2026-04-11T11:51:04.891Z</time></trkpt><trkpt lat="44.8635331" lon="9.297915"><ele>485.75</ele><time>2026-04-11T11:51:05.892Z</time></trkpt><trkpt lat="44.8635223" lon="9.2981253"><ele>485.5</ele><time>2026-04-11T11:51:06.893Z</time></trkpt><trkpt lat="44.8635332" lon="9.2983335"><ele>485.25</ele><time>2026-04-11T11:51:07.893Z</time></trkpt><trkpt lat="44.8635538" lon="9.2985368"><ele>485.0</ele><time>2026-04-11T11:51:08.893Z</time></trkpt><trkpt lat="44.8635868" lon="9.2987328"><ele>486.75</ele><time>2026-04-11T11:51:09.893Z</time></trkpt><trkpt lat="44.8636248" lon="9.2989193"><ele>488.5</ele><time>2026-04-11T11:51:10.892Z</time></trkpt><trkpt lat="44.8636758" lon="9.2990869"><ele>490.25</ele><time>2026-04-11T11:51:11.893Z</time></trkpt><trkpt lat="44.8637193" lon="9.2992392"><ele>492.0</ele><time>2026-04-11T11:51:12.893Z</time></trkpt><trkpt lat="44.8637472" lon="9.2993828"><ele>492.0</ele><time>2026-04-11T11:51:13.893Z</time></trkpt><trkpt lat="44.8637587" lon="9.2995174"><ele>492.00000000000006</ele><time>2026-04-11T11:51:14.892Z</time></trkpt><trkpt lat="44.8637379" lon="9.2996609"><ele>492.00000000000006</ele><time>2026-04-11T11:51:15.893Z</time></trkpt><trkpt lat="44.8636883" lon="9.299801"><ele>492.0</ele><time>2026-04-11T11:51:16.893Z</time></trkpt><trkpt lat="44.8636323" lon="9.299947"><ele>492.0</ele><time>2026-04-11T11:51:17.893Z</time></trkpt><trkpt lat="44.8635652" lon="9.3000975"><ele>492.0</ele><time>2026-04-11T11:51:18.892Z</time></trkpt><trkpt lat="44.8635199" lon="9.300252"><ele>492.0</ele><time>2026-04-11T11:51:19.893Z</time></trkpt><trkpt lat="44.8634826" lon="9.3004386"><ele>492.0</ele><time>2026-04-11T11:51:20.893Z</time></trkpt><trkpt lat="44.863462" lon="9.3006229"><ele>492.0</ele><time>2026-04-11T11:51:21.893Z</time></trkpt><trkpt lat="44.863424" lon="9.3007857"><ele>499.75</ele><time>2026-04-11T11:51:22.893Z</time></trkpt><trkpt lat="44.8633675" lon="9.300942"><ele>507.5</ele><time>2026-04-11T11:51:23.893Z</time></trkpt><trkpt lat="44.8632927" lon="9.3010923"><ele>515.25</ele><time>2026-04-11T11:51:24.893Z</time></trkpt><trkpt lat="44.863207" lon="9.3012428"><ele>523.0</ele><time>2026-04-11T11:51:25.892Z</time></trkpt><trkpt lat="44.863118" lon="9.3013835"><ele>519.5</ele><time>2026-04-11T11:51:26.893Z</time></trkpt><trkpt lat="44.8630147" lon="9.3015331"><ele>516.0</ele><time>2026-04-11T11:51:27.893Z</time></trkpt><trkpt lat="44.8629147" lon="9.3016844"><ele>512.5</ele><time>2026-04-11T11:51:28.893Z</time></trkpt><trkpt lat="44.8628394" lon="9.3018493"><ele>509.0</ele><time>2026-04-11T11:51:29.893Z</time></trkpt><trkpt lat="44.8627852" lon="9.3020175"><ele>509.0</ele><time>2026-04-11T11:51:30.892Z</time></trkpt><trkpt lat="44.8627441" lon="9.3022039"><ele>509.0</ele><time>2026-04-11T11:51:31.893Z</time></trkpt><trkpt lat="44.8627115" lon="9.302392"><ele>509.0</ele><time>2026-04-11T11:51:32.893Z</time></trkpt><trkpt lat="44.8627021" lon="9.3025841"><ele>509.0</ele><time>2026-04-11T11:51:33.892Z</time></trkpt><trkpt lat="44.8627255" lon="9.3027703"><ele>508.25</ele><time>2026-04-11T11:51:34.893Z</time></trkpt><trkpt lat="44.8627636" lon="9.3029484"><ele>507.5</ele><time>2026-04-11T11:51:35.893Z</time></trkpt><trkpt lat="44.8628078" lon="9.3031154"><ele>506.75</ele><time>2026-04-11T11:51:36.892Z</time></trkpt><trkpt lat="44.8628348" lon="9.3032836"><ele>506.0</ele><time>2026-04-11T11:51:37.892Z</time></trkpt><trkpt lat="44.8628396" lon="9.3034531"><ele>506.0</ele><time>2026-04-11T11:51:38.892Z</time></trkpt><trkpt lat="44.8628335" lon="9.3036305"><ele>506.0</ele><time>2026-04-11T11:51:39.893Z</time></trkpt><trkpt lat="44.8628259" lon="9.3038119"><ele>506.0</ele><time>2026-04-11T11:51:40.893Z</time></trkpt><trkpt lat="44.8628293" lon="9.303996"><ele>506.0</ele><time>2026-04-11T11:51:41.892Z</time></trkpt><trkpt lat="44.8628232" lon="9.3041748"><ele>506.0</ele><time>2026-04-11T11:51:42.893Z</time></trkpt><trkpt lat="44.8628041" lon="9.3043541"><ele>506.0</ele><time>2026-04-11T11:51:43.893Z</time></trkpt><trkpt lat="44.8627729" lon="9.3045403"><ele>506.0</ele><time>2026-04-11T11:51:44.892Z</time></trkpt><trkpt lat="44.8627315" lon="9.3047376"><ele>506.0</ele><time>2026-04-11T11:51:45.893Z</time></trkpt><trkpt lat="44.8626819" lon="9.3049395"><ele>505.75</ele><time>2026-04-11T11:51:46.892Z</time></trkpt><trkpt lat="44.8626293" lon="9.3051541"><ele>505.5</ele><time>2026-04-11T11:51:47.893Z</time></trkpt><trkpt lat="44.8625619" lon="9.3053358"><ele>505.25</ele><time>2026-04-11T11:51:48.893Z</time></trkpt><trkpt lat="44.8624951" lon="9.3054951"><ele>505.0</ele><time>2026-04-11T11:51:49.893Z</time></trkpt><trkpt lat="44.8624464" lon="9.3056394"><ele>510.0</ele><time>2026-04-11T11:51:50.893Z</time></trkpt><trkpt lat="44.862408" lon="9.3058001"><ele>515.0</ele><time>2026-04-11T11:51:51.893Z</time></trkpt><trkpt lat="44.8624064" lon="9.3059818"><ele>520.0</ele><time>2026-04-11T11:51:52.893Z</time></trkpt><trkpt lat="44.8624403" lon="9.3061558"><ele>525.0</ele><time>2026-04-11T11:51:53.893Z</time></trkpt><trkpt lat="44.8624991" lon="9.306319"><ele>526.0</ele><time>2026-04-11T11:51:54.893Z</time></trkpt><trkpt lat="44.8625571" lon="9.3064777"><ele>527.0</ele><time>2026-04-11T11:51:55.894Z</time></trkpt><trkpt lat="44.8625994" lon="9.3066214"><ele>528.0</ele><time>2026-04-11T11:51:56.893Z</time></trkpt><trkpt lat="44.8626106" lon="9.3067704"><ele>529.0</ele><time>2026-04-11T11:51:57.894Z</time></trkpt><trkpt lat="44.8625919" lon="9.3069298"><ele>529.0</ele><time>2026-04-11T11:51:58.894Z</time></trkpt><trkpt lat="44.8625303" lon="9.3070678"><ele>529.0</ele><time>2026-04-11T11:51:59.894Z</time></trkpt><trkpt lat="44.8625113" lon="9.3072344"><ele>529.0</ele><time>2026-04-11T11:52:00.894Z</time></trkpt><trkpt lat="44.8625256" lon="9.3074007"><ele>529.0</ele><time>2026-04-11T11:52:01.894Z</time></trkpt><trkpt lat="44.8625766" lon="9.3075695"><ele>523.75</ele><time>2026-04-11T11:52:02.894Z</time></trkpt><trkpt lat="44.862651" lon="9.307733"><ele>518.5</ele><time>2026-04-11T11:52:03.894Z</time></trkpt><trkpt lat="44.8627407" lon="9.3078783"><ele>513.25</ele><time>2026-04-11T11:52:04.894Z</time></trkpt><trkpt lat="44.8628257" lon="9.3080147"><ele>508.0</ele><time>2026-04-11T11:52:05.893Z</time></trkpt><trkpt lat="44.8628962" lon="9.3081429"><ele>508.0</ele><time>2026-04-11T11:52:06.894Z</time></trkpt><trkpt lat="44.8629604" lon="9.308258"><ele>507.99999999999994</ele><time>2026-04-11T11:52:07.894Z</time></trkpt><trkpt lat="44.8629948" lon="9.3083785"><ele>507.99999999999994</ele><time>2026-04-11T11:52:08.894Z</time></trkpt><trkpt lat="44.8629913" lon="9.3085037"><ele>508.0</ele><time>2026-04-11T11:52:09.894Z</time></trkpt><trkpt lat="44.8629439" lon="9.3086107"><ele>508.0</ele><time>2026-04-11T11:52:10.894Z</time></trkpt><trkpt lat="44.8628685" lon="9.3087033"><ele>508.0</ele><time>2026-04-11T11:52:11.894Z</time></trkpt><trkpt lat="44.8627664" lon="9.3087906"><ele>508.0</ele><time>2026-04-11T11:52:12.894Z</time></trkpt><trkpt lat="44.8626577" lon="9.3089215"><ele>508.0</ele><time>2026-04-11T11:52:13.894Z</time></trkpt><trkpt lat="44.8625698" lon="9.3090957"><ele>508.0</ele><time>2026-04-11T11:52:14.894Z</time></trkpt><trkpt lat="44.862495" lon="9.3093143"><ele>512.0</ele><time>2026-04-11T11:52:15.894Z</time></trkpt><trkpt lat="44.8624414" lon="9.3095248"><ele>516.0</ele><time>2026-04-11T11:52:16.894Z</time></trkpt><trkpt lat="44.8624483" lon="9.3098109"><ele>520.0</ele><time>2026-04-11T11:52:17.894Z</time></trkpt><trkpt lat="44.8623663" lon="9.3101179"><ele>520.0</ele><time>2026-04-11T11:52:18.894Z</time></trkpt><trkpt lat="44.862291" lon="9.3104458"><ele>520.0</ele><time>2026-04-11T11:52:19.894Z</time></trkpt><trkpt lat="44.8622375" lon="9.3107768"><ele>518.6666666666667</ele><time>2026-04-11T11:52:20.894Z</time></trkpt><trkpt lat="44.8621927" lon="9.311136"><ele>517.3333333333334</ele><time>2026-04-11T11:52:21.894Z</time></trkpt><trkpt lat="44.8622741" lon="9.3113624"><ele>516.0</ele><time>2026-04-11T11:52:22.894Z</time></trkpt><trkpt lat="44.8622881" lon="9.3108287"><ele>516.0</ele><time>2026-04-11T11:52:23.893Z</time></trkpt><trkpt lat="44.8623264" lon="9.3109974"><ele>516.0</ele><time>2026-04-11T11:52:24.894Z</time></trkpt><trkpt lat="44.86234" lon="9.3111664"><ele>516.0</ele><time>2026-04-11T11:52:25.894Z</time></trkpt><trkpt lat="44.8623208" lon="9.3113407"><ele>516.0</ele><time>2026-04-11T11:52:26.894Z</time></trkpt><trkpt lat="44.8622744" lon="9.3115084"><ele>516.0</ele><time>2026-04-11T11:52:27.894Z</time></trkpt><trkpt lat="44.8622164" lon="9.3116887"><ele>516.0</ele><time>2026-04-11T11:52:28.894Z</time></trkpt><trkpt lat="44.862169" lon="9.3118778"><ele>516.0</ele><time>2026-04-11T11:52:29.893Z</time></trkpt><trkpt lat="44.8621177" lon="9.3120871"><ele>516.0</ele><time>2026-04-11T11:52:30.894Z</time></trkpt><trkpt lat="44.8620608" lon="9.3123061"><ele>514.0</ele><time>2026-04-11T11:52:31.894Z</time></trkpt><trkpt lat="44.8620038" lon="9.3125266"><ele>512.0</ele><time>2026-04-11T11:52:32.894Z</time></trkpt><trkpt lat="44.8619462" lon="9.3127352"><ele>510.0</ele><time>2026-04-11T11:52:33.894Z</time></trkpt><trkpt lat="44.8619006" lon="9.312925"><ele>509.75</ele><time>2026-04-11T11:52:34.894Z</time></trkpt><trkpt lat="44.8618586" lon="9.3130959"><ele>509.5</ele><time>2026-04-11T11:52:35.894Z</time></trkpt><trkpt lat="44.8618201" lon="9.3132625"><ele>509.25</ele><time>2026-04-11T11:52:36.894Z</time></trkpt><trkpt lat="44.8617767" lon="9.3134307"><ele>509.0</ele><time>2026-04-11T11:52:37.893Z</time></trkpt><trkpt lat="44.8617299" lon="9.3135724"><ele>511.25</ele><time>2026-04-11T11:52:38.894Z</time></trkpt><trkpt lat="44.8616644" lon="9.3136975"><ele>513.5</ele><time>2026-04-11T11:52:39.893Z</time></trkpt><trkpt lat="44.861574" lon="9.3138045"><ele>515.75</ele><time>2026-04-11T11:52:40.894Z</time></trkpt><trkpt lat="44.8614606" lon="9.3138841"><ele>518.0</ele><time>2026-04-11T11:52:41.894Z</time></trkpt><trkpt lat="44.8613308" lon="9.3139426"><ele>518.0</ele><time>2026-04-11T11:52:42.894Z</time></trkpt><trkpt lat="44.8611938" lon="9.3140016"><ele>518.0</ele><time>2026-04-11T11:52:43.895Z</time></trkpt><trkpt lat="44.8610563" lon="9.3140964"><ele>518.0</ele><time>2026-04-11T11:52:44.895Z</time></trkpt><trkpt lat="44.8609248" lon="9.3142213"><ele>520.25</ele><time>2026-04-11T11:52:45.895Z</time></trkpt><trkpt lat="44.8608055" lon="9.3143473"><ele>522.5</ele><time>2026-04-11T11:52:46.895Z</time></trkpt><trkpt lat="44.860698" lon="9.3144718"><ele>524.75</ele><time>2026-04-11T11:52:47.895Z</time></trkpt><trkpt lat="44.8605963" lon="9.3145926"><ele>527.0</ele><time>2026-04-11T11:52:48.894Z</time></trkpt><trkpt lat="44.860497" lon="9.3147185"><ele>526.75</ele><time>2026-04-11T11:52:49.895Z</time></trkpt><trkpt lat="44.8603865" lon="9.3148331"><ele>526.5</ele><time>2026-04-11T11:52:50.894Z</time></trkpt><trkpt lat="44.8602598" lon="9.3149275"><ele>526.25</ele><time>2026-04-11T11:52:51.895Z</time></trkpt><trkpt lat="44.8601138" lon="9.3149952"><ele>526.0</ele><time>2026-04-11T11:52:52.895Z</time></trkpt><trkpt lat="44.8599574" lon="9.3150465"><ele>526.0</ele><time>2026-04-11T11:52:53.895Z</time></trkpt><trkpt lat="44.8598086" lon="9.3150693"><ele>526.0</ele><time>2026-04-11T11:52:54.895Z</time></trkpt><trkpt lat="44.8596778" lon="9.3151054"><ele>526.0</ele><time>2026-04-11T11:52:55.895Z</time></trkpt><trkpt lat="44.8595569" lon="9.3151682"><ele>526.0</ele><time>2026-04-11T11:52:56.895Z</time></trkpt><trkpt lat="44.8594476" lon="9.3152422"><ele>526.0</ele><time>2026-04-11T11:52:57.894Z</time></trkpt><trkpt lat="44.8593652" lon="9.3153463"><ele>526.0</ele><time>2026-04-11T11:52:58.895Z</time></trkpt><trkpt lat="44.8593069" lon="9.3154795"><ele>526.0</ele><time>2026-04-11T11:52:59.895Z</time></trkpt><trkpt lat="44.8592756" lon="9.3156247"><ele>526.0</ele><time>2026-04-11T11:53:00.895Z</time></trkpt><trkpt lat="44.8592748" lon="9.3157761"><ele>526.0</ele><time>2026-04-11T11:53:01.895Z</time></trkpt><trkpt lat="44.8593111" lon="9.3159252"><ele>524.25</ele><time>2026-04-11T11:53:02.894Z</time></trkpt><trkpt lat="44.8593813" lon="9.3160449"><ele>522.5</ele><time>2026-04-11T11:53:03.894Z</time></trkpt><trkpt lat="44.8594838" lon="9.316158"><ele>520.75</ele><time>2026-04-11T11:53:04.895Z</time></trkpt><trkpt lat="44.859591" lon="9.3162695"><ele>519.0</ele><time>2026-04-11T11:53:05.894Z</time></trkpt><trkpt lat="44.8596849" lon="9.3163752"><ele>519.6</ele><time>2026-04-11T11:53:06.894Z</time></trkpt><trkpt lat="44.8597619" lon="9.3164761"><ele>520.2</ele><time>2026-04-11T11:53:07.895Z</time></trkpt><trkpt lat="44.8597951" lon="9.3165825"><ele>520.8000000000001</ele><time>2026-04-11T11:53:08.895Z</time></trkpt><trkpt lat="44.8598051" lon="9.3166868"><ele>521.4</ele><time>2026-04-11T11:53:09.895Z</time></trkpt><trkpt lat="44.8597797" lon="9.3168067"><ele>522.0</ele><time>2026-04-11T11:53:10.895Z</time></trkpt><trkpt lat="44.859722" lon="9.3169275"><ele>522.0</ele><time>2026-04-11T11:53:11.895Z</time></trkpt><trkpt lat="44.8596501" lon="9.3170417"><ele>522.0</ele><time>2026-04-11T11:53:12.895Z</time></trkpt><trkpt lat="44.8595825" lon="9.3171685"><ele>522.0</ele><time>2026-04-11T11:53:13.895Z</time></trkpt><trkpt lat="44.8595233" lon="9.3172729"><ele>522.0</ele><time>2026-04-11T11:53:14.895Z</time></trkpt><trkpt lat="44.8594727" lon="9.3173748"><ele>522.0</ele><time>2026-04-11T11:53:15.895Z</time></trkpt><trkpt lat="44.8594162" lon="9.3174789"><ele>521.75</ele><time>2026-04-11T11:53:16.895Z</time></trkpt><trkpt lat="44.8593511" lon="9.3175979"><ele>521.5</ele><time>2026-04-11T11:53:17.894Z</time></trkpt><trkpt lat="44.8592794" lon="9.3177345"><ele>521.25</ele><time>2026-04-11T11:53:18.895Z</time></trkpt><trkpt lat="44.8591975" lon="9.3178919"><ele>521.0</ele><time>2026-04-11T11:53:19.895Z</time></trkpt><trkpt lat="44.8591375" lon="9.3180954"><ele>525.3333333333333</ele><time>2026-04-11T11:53:20.895Z</time></trkpt><trkpt lat="44.8590787" lon="9.3183086"><ele>529.6666666666666</ele><time>2026-04-11T11:53:21.895Z</time></trkpt><trkpt lat="44.859025" lon="9.3185172"><ele>534.0</ele><time>2026-04-11T11:53:22.895Z</time></trkpt><trkpt lat="44.8589611" lon="9.3187285"><ele>531.0</ele><time>2026-04-11T11:53:23.895Z</time></trkpt><trkpt lat="44.8588832" lon="9.3189462"><ele>528.0</ele><time>2026-04-11T11:53:24.894Z</time></trkpt><trkpt lat="44.858776" lon="9.3191595"><ele>525.0</ele><time>2026-04-11T11:53:25.895Z</time></trkpt><trkpt lat="44.8586713" lon="9.3193747"><ele>525.0</ele><time>2026-04-11T11:53:26.894Z</time></trkpt><trkpt lat="44.8585741" lon="9.3195987"><ele>525.0</ele><time>2026-04-11T11:53:27.895Z</time></trkpt><trkpt lat="44.8584849" lon="9.3198377"><ele>525.0</ele><time>2026-04-11T11:53:28.894Z</time></trkpt><trkpt lat="44.8584072" lon="9.3200909"><ele>529.6666666666666</ele><time>2026-04-11T11:53:29.895Z</time></trkpt><trkpt lat="44.8583344" lon="9.3203495"><ele>534.3333333333333</ele><time>2026-04-11T11:53:30.895Z</time></trkpt><trkpt lat="44.8582675" lon="9.3206072"><ele>539.0</ele><time>2026-04-11T11:53:31.895Z</time></trkpt><trkpt lat="44.8581991" lon="9.3208678"><ele>539.0</ele><time>2026-04-11T11:53:32.895Z</time></trkpt><trkpt lat="44.8581329" lon="9.3211219"><ele>539.0</ele><time>2026-04-11T11:53:33.896Z</time></trkpt><trkpt lat="44.8580767" lon="9.3213565"><ele>539.0</ele><time>2026-04-11T11:53:34.896Z</time></trkpt><trkpt lat="44.8580262" lon="9.3215745"><ele>536.6666666666666</ele><time>2026-04-11T11:53:35.896Z</time></trkpt><trkpt lat="44.8579666" lon="9.3217896"><ele>534.3333333333334</ele><time>2026-04-11T11:53:36.895Z</time></trkpt><trkpt lat="44.8578935" lon="9.3220092"><ele>532.0</ele><time>2026-04-11T11:53:37.895Z</time></trkpt><trkpt lat="44.8578028" lon="9.3222253"><ele>530.3333333333334</ele><time>2026-04-11T11:53:38.896Z</time></trkpt><trkpt lat="44.8577021" lon="9.3224406"><ele>528.6666666666666</ele><time>2026-04-11T11:53:39.896Z</time></trkpt><trkpt lat="44.8575951" lon="9.3226625"><ele>527.0</ele><time>2026-04-11T11:53:40.896Z</time></trkpt><trkpt lat="44.8574902" lon="9.3228931"><ele>531.6666666666666</ele><time>2026-04-11T11:53:41.896Z</time></trkpt><trkpt lat="44.8573887" lon="9.3231298"><ele>536.3333333333334</ele><time>2026-04-11T11:53:42.895Z</time></trkpt><trkpt lat="44.8572898" lon="9.3233668"><ele>541.0</ele><time>2026-04-11T11:53:43.896Z</time></trkpt><trkpt lat="44.857193" lon="9.3235828"><ele>541.0</ele><time>2026-04-11T11:53:44.896Z</time></trkpt><trkpt lat="44.8571015" lon="9.3237799"><ele>541.0</ele><time>2026-04-11T11:53:45.896Z</time></trkpt><trkpt lat="44.8570195" lon="9.3239618"><ele>541.0</ele><time>2026-04-11T11:53:46.896Z</time></trkpt><trkpt lat="44.856931" lon="9.3241039"><ele>539.75</ele><time>2026-04-11T11:53:47.896Z</time></trkpt><trkpt lat="44.8568187" lon="9.3242187"><ele>538.5</ele><time>2026-04-11T11:53:48.896Z</time></trkpt><trkpt lat="44.8567081" lon="9.3243414"><ele>537.25</ele><time>2026-04-11T11:53:49.896Z</time></trkpt><trkpt lat="44.8566128" lon="9.3245041"><ele>536.0</ele><time>2026-04-11T11:53:50.896Z</time></trkpt><trkpt lat="44.8565418" lon="9.3246986"><ele>539.3333333333333</ele><time>2026-04-11T11:53:51.896Z</time></trkpt><trkpt lat="44.8564762" lon="9.3249138"><ele>542.6666666666666</ele><time>2026-04-11T11:53:52.895Z</time></trkpt><trkpt lat="44.8564051" lon="9.325134"><ele>546.0</ele><time>2026-04-11T11:53:53.896Z</time></trkpt><trkpt lat="44.8563364" lon="9.3253399"><ele>546.0</ele><time>2026-04-11T11:53:54.896Z</time></trkpt><trkpt lat="44.8562675" lon="9.3255362"><ele>546.0</ele><time>2026-04-11T11:53:55.896Z</time></trkpt><trkpt lat="44.8561754" lon="9.3257113"><ele>546.0</ele><time>2026-04-11T11:53:56.896Z</time></trkpt><trkpt lat="44.8560526" lon="9.3258709"><ele>549.6666666666666</ele><time>2026-04-11T11:53:57.895Z</time></trkpt><trkpt lat="44.8559216" lon="9.3260151"><ele>553.3333333333333</ele><time>2026-04-11T11:53:58.896Z</time></trkpt><trkpt lat="44.8557987" lon="9.3261596"><ele>557.0</ele><time>2026-04-11T11:53:59.896Z</time></trkpt><trkpt lat="44.8556621" lon="9.3262875"><ele>552.3333333333333</ele><time>2026-04-11T11:54:00.896Z</time></trkpt><trkpt lat="44.8555147" lon="9.3264164"><ele>547.6666666666666</ele><time>2026-04-11T11:54:01.895Z</time></trkpt><trkpt lat="44.8553556" lon="9.3265337"><ele>543.0</ele><time>2026-04-11T11:54:02.896Z</time></trkpt><trkpt lat="44.8551901" lon="9.3266518"><ele>547.6666666666666</ele><time>2026-04-11T11:54:03.896Z</time></trkpt><trkpt lat="44.8550199" lon="9.3267691"><ele>552.3333333333333</ele><time>2026-04-11T11:54:04.896Z</time></trkpt><trkpt lat="44.8548546" lon="9.3268601"><ele>557.0</ele><time>2026-04-11T11:54:05.896Z</time></trkpt><trkpt lat="44.8546953" lon="9.3269406"><ele>557.0</ele><time>2026-04-11T11:54:06.896Z</time></trkpt><trkpt lat="44.8545466" lon="9.327033"><ele>557.0</ele><time>2026-04-11T11:54:07.896Z</time></trkpt><trkpt lat="44.85442" lon="9.3271633"><ele>557.0</ele><time>2026-04-11T11:54:08.896Z</time></trkpt><trkpt lat="44.8543007" lon="9.3273258"><ele>557.3333333333333</ele><time>2026-04-11T11:54:09.896Z</time></trkpt><trkpt lat="44.8541882" lon="9.3275095"><ele>557.6666666666666</ele><time>2026-04-11T11:54:10.896Z</time></trkpt><trkpt lat="44.8540663" lon="9.3277081"><ele>558.0</ele><time>2026-04-11T11:54:11.895Z</time></trkpt><trkpt lat="44.8539427" lon="9.3279073"><ele>554.0</ele><time>2026-04-11T11:54:12.896Z</time></trkpt><trkpt lat="44.8538252" lon="9.3281016"><ele>550.0</ele><time>2026-04-11T11:54:13.896Z</time></trkpt><trkpt lat="44.8537191" lon="9.3282764"><ele>546.0</ele><time>2026-04-11T11:54:14.895Z</time></trkpt><trkpt lat="44.8536119" lon="9.3284414"><ele>546.0</ele><time>2026-04-11T11:54:15.896Z</time></trkpt><trkpt lat="44.8534857" lon="9.3285806"><ele>546.0</ele><time>2026-04-11T11:54:16.896Z</time></trkpt><trkpt lat="44.8534244" lon="9.3286761"><ele>546.0</ele><time>2026-04-11T11:54:17.896Z</time></trkpt><trkpt lat="44.8532798" lon="9.328801"><ele>546.0</ele><time>2026-04-11T11:54:18.896Z</time></trkpt><trkpt lat="44.8531326" lon="9.3289179"><ele>547.6666666666666</ele><time>2026-04-11T11:54:19.896Z</time></trkpt><trkpt lat="44.852973" lon="9.3290068"><ele>549.3333333333333</ele><time>2026-04-11T11:54:20.897Z</time></trkpt><trkpt lat="44.8528008" lon="9.3290649"><ele>551.0</ele><time>2026-04-11T11:54:21.897Z</time></trkpt><trkpt lat="44.8526262" lon="9.3291027"><ele>553.0</ele><time>2026-04-11T11:54:22.897Z</time></trkpt><trkpt lat="44.8524583" lon="9.3291402"><ele>555.0</ele><time>2026-04-11T11:54:23.897Z</time></trkpt><trkpt lat="44.852308" lon="9.3291888"><ele>557.0</ele><time>2026-04-11T11:54:24.897Z</time></trkpt><trkpt lat="44.8521804" lon="9.3292498"><ele>557.0</ele><time>2026-04-11T11:54:25.897Z</time></trkpt><trkpt lat="44.8520724" lon="9.3293259"><ele>557.0</ele><time>2026-04-11T11:54:26.896Z</time></trkpt><trkpt lat="44.8519806" lon="9.3294275"><ele>557.0</ele><time>2026-04-11T11:54:27.896Z</time></trkpt><trkpt lat="44.8519054" lon="9.3295624"><ele>557.0</ele><time>2026-04-11T11:54:28.897Z</time></trkpt><trkpt lat="44.8518507" lon="9.3297219"><ele>558.25</ele><time>2026-04-11T11:54:29.897Z</time></trkpt><trkpt lat="44.8518223" lon="9.3298998"><ele>559.5</ele><time>2026-04-11T11:54:30.897Z</time></trkpt><trkpt lat="44.8518059" lon="9.3300704"><ele>560.75</ele><time>2026-04-11T11:54:31.897Z</time></trkpt><trkpt lat="44.8517724" lon="9.3302245"><ele>562.0</ele><time>2026-04-11T11:54:32.897Z</time></trkpt><trkpt lat="44.8517151" lon="9.3303603"><ele>562.0</ele><time>2026-04-11T11:54:33.896Z</time></trkpt><trkpt lat="44.8516427" lon="9.330465"><ele>562.0</ele><time>2026-04-11T11:54:34.897Z</time></trkpt><trkpt lat="44.8515561" lon="9.3305296"><ele>562.0</ele><time>2026-04-11T11:54:35.897Z</time></trkpt><trkpt lat="44.8514627" lon="9.3305655"><ele>562.0</ele><time>2026-04-11T11:54:36.897Z</time></trkpt><trkpt lat="44.8513519" lon="9.3305741"><ele>562.0</ele><time>2026-04-11T11:54:37.897Z</time></trkpt><trkpt lat="44.8512255" lon="9.3305805"><ele>561.75</ele><time>2026-04-11T11:54:38.896Z</time></trkpt><trkpt lat="44.851087" lon="9.3306028"><ele>561.5</ele><time>2026-04-11T11:54:39.897Z</time></trkpt><trkpt lat="44.8509396" lon="9.3306363"><ele>561.25</ele><time>2026-04-11T11:54:40.897Z</time></trkpt><trkpt lat="44.8507996" lon="9.3306646"><ele>561.0</ele><time>2026-04-11T11:54:41.897Z</time></trkpt><trkpt lat="44.8506624" lon="9.3307117"><ele>561.0</ele><time>2026-04-11T11:54:42.897Z</time></trkpt><trkpt lat="44.8505255" lon="9.3307684"><ele>561.0</ele><time>2026-04-11T11:54:43.897Z</time></trkpt><trkpt lat="44.8503789" lon="9.3308238"><ele>561.0</ele><time>2026-04-11T11:54:44.897Z</time></trkpt><trkpt lat="44.8502169" lon="9.3308749"><ele>562.3333333333334</ele><time>2026-04-11T11:54:45.897Z</time></trkpt><trkpt lat="44.8500467" lon="9.330933"><ele>563.6666666666667</ele><time>2026-04-11T11:54:46.897Z</time></trkpt><trkpt lat="44.8498687" lon="9.3309972"><ele>565.0</ele><time>2026-04-11T11:54:47.897Z</time></trkpt><trkpt lat="44.8496833" lon="9.3310609"><ele>565.0</ele><time>2026-04-11T11:54:48.897Z</time></trkpt><trkpt lat="44.8494971" lon="9.3311452"><ele>565.0</ele><time>2026-04-11T11:54:49.897Z</time></trkpt><trkpt lat="44.8493106" lon="9.3312327"><ele>565.0</ele><time>2026-04-11T11:54:50.897Z</time></trkpt><trkpt lat="44.8491182" lon="9.3313286"><ele>564.0</ele><time>2026-04-11T11:54:51.896Z</time></trkpt><trkpt lat="44.8489428" lon="9.331415"><ele>563.0</ele><time>2026-04-11T11:54:52.897Z</time></trkpt><trkpt lat="44.8487865" lon="9.3315066"><ele>562.0</ele><time>2026-04-11T11:54:53.897Z</time></trkpt><trkpt lat="44.8486537" lon="9.3315907"><ele>562.0</ele><time>2026-04-11T11:54:54.897Z</time></trkpt><trkpt lat="44.8485387" lon="9.3316793"><ele>562.0</ele><time>2026-04-11T11:54:55.897Z</time></trkpt><trkpt lat="44.8484296" lon="9.3317561"><ele>562.0</ele><time>2026-04-11T11:54:56.897Z</time></trkpt><trkpt lat="44.8483163" lon="9.3318108"><ele>562.0</ele><time>2026-04-11T11:54:57.897Z</time></trkpt><trkpt lat="44.848198" lon="9.3318365"><ele>562.0</ele><time>2026-04-11T11:54:58.897Z</time></trkpt><trkpt lat="44.8480716" lon="9.3318155"><ele>562.0</ele><time>2026-04-11T11:54:59.896Z</time></trkpt><trkpt lat="44.847946" lon="9.3318092"><ele>562.0</ele><time>2026-04-11T11:55:00.896Z</time></trkpt><trkpt lat="44.8478278" lon="9.3317782"><ele>562.0</ele><time>2026-04-11T11:55:01.897Z</time></trkpt><trkpt lat="44.8477219" lon="9.3317457"><ele>562.4</ele><time>2026-04-11T11:55:02.897Z</time></trkpt><trkpt lat="44.8476175" lon="9.3317121"><ele>562.8000000000001</ele><time>2026-04-11T11:55:03.897Z</time></trkpt><trkpt lat="44.8475139" lon="9.331674"><ele>563.2</ele><time>2026-04-11T11:55:04.896Z</time></trkpt><trkpt lat="44.8474075" lon="9.3316243"><ele>563.6</ele><time>2026-04-11T11:55:05.897Z</time></trkpt><trkpt lat="44.8472997" lon="9.3315728"><ele>564.0</ele><time>2026-04-11T11:55:06.897Z</time></trkpt><trkpt lat="44.8471893" lon="9.3315239"><ele>564.0</ele><time>2026-04-11T11:55:07.897Z</time></trkpt><trkpt lat="44.8470787" lon="9.3314575"><ele>564.0</ele><time>2026-04-11T11:55:08.897Z</time></trkpt><trkpt lat="44.846976" lon="9.3313631"><ele>564.0</ele><time>2026-04-11T11:55:09.898Z</time></trkpt><trkpt lat="44.8468711" lon="9.3312621"><ele>564.0</ele><time>2026-04-11T11:55:10.898Z</time></trkpt><trkpt lat="44.8467578" lon="9.3311738"><ele>565.0</ele><time>2026-04-11T11:55:11.898Z</time></trkpt><trkpt lat="44.8466294" lon="9.3311184"><ele>566.0</ele><time>2026-04-11T11:55:12.898Z</time></trkpt><trkpt lat="44.846486" lon="9.3311031"><ele>567.0</ele><time>2026-04-11T11:55:13.898Z</time></trkpt><trkpt lat="44.8463339" lon="9.3311115"><ele>568.0</ele><time>2026-04-11T11:55:14.898Z</time></trkpt><trkpt lat="44.8461707" lon="9.3311159"><ele>568.0</ele><time>2026-04-11T11:55:15.898Z</time></trkpt><trkpt lat="44.846007" lon="9.3311176"><ele>568.0</ele><time>2026-04-11T11:55:16.898Z</time></trkpt><trkpt lat="44.8458527" lon="9.3311105"><ele>568.0</ele><time>2026-04-11T11:55:17.898Z</time></trkpt><trkpt lat="44.8457144" lon="9.3311079"><ele>568.75</ele><time>2026-04-11T11:55:18.898Z</time></trkpt><trkpt lat="44.845578" lon="9.3311247"><ele>569.5</ele><time>2026-04-11T11:55:19.898Z</time></trkpt><trkpt lat="44.8454372" lon="9.331176"><ele>570.25</ele><time>2026-04-11T11:55:20.898Z</time></trkpt><trkpt lat="44.845286" lon="9.3312571"><ele>571.0</ele><time>2026-04-11T11:55:21.898Z</time></trkpt><trkpt lat="44.8451435" lon="9.3313512"><ele>570.3333333333334</ele><time>2026-04-11T11:55:22.897Z</time></trkpt><trkpt lat="44.8450025" lon="9.3314274"><ele>569.6666666666666</ele><time>2026-04-11T11:55:23.898Z</time></trkpt><trkpt lat="44.8448459" lon="9.3314679"><ele>569.0</ele><time>2026-04-11T11:55:24.898Z</time></trkpt><trkpt lat="44.8446778" lon="9.3314936"><ele>569.0</ele><time>2026-04-11T11:55:25.897Z</time></trkpt><trkpt lat="44.8444982" lon="9.3315281"><ele>569.0</ele><time>2026-04-11T11:55:26.898Z</time></trkpt><trkpt lat="44.8442945" lon="9.3315895"><ele>569.0</ele><time>2026-04-11T11:55:27.898Z</time></trkpt><trkpt lat="44.8440914" lon="9.3316394"><ele>570.6666666666666</ele><time>2026-04-11T11:55:28.897Z</time></trkpt><trkpt lat="44.8438974" lon="9.3316902"><ele>572.3333333333334</ele><time>2026-04-11T11:55:29.898Z</time></trkpt><trkpt lat="44.8437179" lon="9.3317265"><ele>574.0</ele><time>2026-04-11T11:55:30.897Z</time></trkpt><trkpt lat="44.8435435" lon="9.331743"><ele>574.6666666666667</ele><time>2026-04-11T11:55:31.898Z</time></trkpt><trkpt lat="44.8433646" lon="9.3317382"><ele>575.3333333333334</ele><time>2026-04-11T11:55:32.898Z</time></trkpt><trkpt lat="44.8431867" lon="9.3317114"><ele>576.0</ele><time>2026-04-11T11:55:33.897Z</time></trkpt><trkpt lat="44.843008" lon="9.331666"><ele>576.0</ele><time>2026-04-11T11:55:34.898Z</time></trkpt><trkpt lat="44.8428352" lon="9.3316089"><ele>576.0</ele><time>2026-04-11T11:55:35.898Z</time></trkpt><trkpt lat="44.8426779" lon="9.3315626"><ele>576.0</ele><time>2026-04-11T11:55:36.898Z</time></trkpt><trkpt lat="44.842533" lon="9.3315253"><ele>576.25</ele><time>2026-04-11T11:55:37.898Z</time></trkpt><trkpt lat="44.842399" lon="9.3315142"><ele>576.5</ele><time>2026-04-11T11:55:38.898Z</time></trkpt><trkpt lat="44.8422611" lon="9.3315341"><ele>576.75</ele><time>2026-04-11T11:55:39.898Z</time></trkpt><trkpt lat="44.8421335" lon="9.3315987"><ele>577.0</ele><time>2026-04-11T11:55:40.898Z</time></trkpt><trkpt lat="44.8420108" lon="9.3317038"><ele>577.0</ele><time>2026-04-11T11:55:41.898Z</time></trkpt><trkpt lat="44.8418992" lon="9.3318394"><ele>577.0</ele><time>2026-04-11T11:55:42.898Z</time></trkpt><trkpt lat="44.8418018" lon="9.3319704"><ele>577.0</ele><time>2026-04-11T11:55:43.897Z</time></trkpt><trkpt lat="44.8417113" lon="9.3320746"><ele>577.0</ele><time>2026-04-11T11:55:44.898Z</time></trkpt><trkpt lat="44.8416086" lon="9.3321449"><ele>578.25</ele><time>2026-04-11T11:55:45.897Z</time></trkpt><trkpt lat="44.8414899" lon="9.3321817"><ele>579.5</ele><time>2026-04-11T11:55:46.898Z</time></trkpt><trkpt lat="44.8413607" lon="9.3321704"><ele>580.75</ele><time>2026-04-11T11:55:47.898Z</time></trkpt><trkpt lat="44.8412308" lon="9.3321215"><ele>582.0</ele><time>2026-04-11T11:55:48.897Z</time></trkpt><trkpt lat="44.8411009" lon="9.3320303"><ele>582.0</ele><time>2026-04-11T11:55:49.897Z</time></trkpt><trkpt lat="44.8409779" lon="9.3319041"><ele>582.0</ele><time>2026-04-11T11:55:50.898Z</time></trkpt><trkpt lat="44.8408521" lon="9.3317447"><ele>582.0</ele><time>2026-04-11T11:55:51.897Z</time></trkpt><trkpt lat="44.8407328" lon="9.3315839"><ele>583.3333333333334</ele><time>2026-04-11T11:55:52.898Z</time></trkpt><trkpt lat="44.8406028" lon="9.3314096"><ele>584.6666666666667</ele><time>2026-04-11T11:55:53.897Z</time></trkpt><trkpt lat="44.8404775" lon="9.3312415"><ele>586.0</ele><time>2026-04-11T11:55:54.898Z</time></trkpt><trkpt lat="44.8403609" lon="9.3310882"><ele>586.2</ele><time>2026-04-11T11:55:55.898Z</time></trkpt><trkpt lat="44.8402635" lon="9.3309577"><ele>586.4000000000001</ele><time>2026-04-11T11:55:56.898Z</time></trkpt><trkpt lat="44.8401778" lon="9.3308453"><ele>586.6</ele><time>2026-04-11T11:55:57.899Z</time></trkpt><trkpt lat="44.840111" lon="9.3307508"><ele>586.8000000000001</ele><time>2026-04-11T11:55:58.899Z</time></trkpt><trkpt lat="44.8400556" lon="9.3306698"><ele>587.0</ele><time>2026-04-11T11:55:59.899Z</time></trkpt><trkpt lat="44.8400064" lon="9.3306039"><ele>587.0</ele><time>2026-04-11T11:56:00.899Z</time></trkpt><trkpt lat="44.8399514" lon="9.3305569"><ele>587.0</ele><time>2026-04-11T11:56:01.899Z</time></trkpt><trkpt lat="44.8398439" lon="9.3305188"><ele>587.0</ele><time>2026-04-11T11:56:03.899Z</time></trkpt><trkpt lat="44.8397637" lon="9.3304883"><ele>587.0</ele><time>2026-04-11T11:56:05.899Z</time></trkpt><trkpt lat="44.8396586" lon="9.3305521"><ele>587.0</ele><time>2026-04-11T11:57:34.9Z</time></trkpt><trkpt lat="44.8395797" lon="9.3306007"><ele>587.0</ele><time>2026-04-11T11:57:35.9Z</time></trkpt><trkpt lat="44.8394893" lon="9.3306486"><ele>587.0</ele><time>2026-04-11T11:57:36.9Z</time></trkpt><trkpt lat="44.8393881" lon="9.3307074"><ele>587.0</ele><time>2026-04-11T11:57:37.9Z</time></trkpt><trkpt lat="44.839283" lon="9.330762"><ele>587.0</ele><time>2026-04-11T11:57:38.901Z</time></trkpt><trkpt lat="44.8391793" lon="9.3308169"><ele>587.0</ele><time>2026-04-11T11:57:39.901Z</time></trkpt><trkpt lat="44.8390715" lon="9.3308657"><ele>587.0</ele><time>2026-04-11T11:57:40.901Z</time></trkpt><trkpt lat="44.8389643" lon="9.3309116"><ele>587.0</ele><time>2026-04-11T11:57:41.901Z</time></trkpt><trkpt lat="44.838858" lon="9.3309384"><ele>587.0</ele><time>2026-04-11T11:57:42.901Z</time></trkpt><trkpt lat="44.8387524" lon="9.3309416"><ele>587.0</ele><time>2026-04-11T11:57:43.901Z</time></trkpt><trkpt lat="44.8386341" lon="9.3308976"><ele>587.0</ele><time>2026-04-11T11:57:44.901Z</time></trkpt><trkpt lat="44.8385107" lon="9.3308342"><ele>588.5</ele><time>2026-04-11T11:57:45.901Z</time></trkpt><trkpt lat="44.838377" lon="9.3307689"><ele>590.0</ele><time>2026-04-11T11:57:46.901Z</time></trkpt><trkpt lat="44.8382384" lon="9.3306966"><ele>591.5</ele><time>2026-04-11T11:57:47.901Z</time></trkpt><trkpt lat="44.8381021" lon="9.3306137"><ele>593.0</ele><time>2026-04-11T11:57:48.901Z</time></trkpt><trkpt lat="44.8379685" lon="9.3305449"><ele>595.1999999999999</ele><time>2026-04-11T11:57:49.901Z</time></trkpt><trkpt lat="44.8378664" lon="9.3304963"><ele>597.4</ele><time>2026-04-11T11:57:50.901Z</time></trkpt><trkpt lat="44.8377676" lon="9.3304322"><ele>599.5999999999999</ele><time>2026-04-11T11:57:51.901Z</time></trkpt><trkpt lat="44.8376835" lon="9.3303403"><ele>601.8</ele><time>2026-04-11T11:57:52.901Z</time></trkpt><trkpt lat="44.8376037" lon="9.3302039"><ele>604.0</ele><time>2026-04-11T11:57:53.9Z</time></trkpt><trkpt lat="44.83753" lon="9.3300506"><ele>604.0</ele><time>2026-04-11T11:57:54.901Z</time></trkpt><trkpt lat="44.8374761" lon="9.3298755"><ele>604.0</ele><time>2026-04-11T11:57:55.901Z</time></trkpt><trkpt lat="44.8374181" lon="9.3296898"><ele>604.0</ele><time>2026-04-11T11:57:56.901Z</time></trkpt><trkpt lat="44.8373642" lon="9.3295026"><ele>604.0</ele><time>2026-04-11T11:57:57.901Z</time></trkpt><trkpt lat="44.8373186" lon="9.3293052"><ele>608.3333333333334</ele><time>2026-04-11T11:57:58.901Z</time></trkpt><trkpt lat="44.8372804" lon="9.3290997"><ele>612.6666666666666</ele><time>2026-04-11T11:57:59.901Z</time></trkpt><trkpt lat="44.8372364" lon="9.3288986"><ele>617.0</ele><time>2026-04-11T11:58:00.901Z</time></trkpt><trkpt lat="44.8371864" lon="9.3286934"><ele>617.6666666666666</ele><time>2026-04-11T11:58:01.901Z</time></trkpt><trkpt lat="44.8371111" lon="9.3284966"><ele>618.3333333333334</ele><time>2026-04-11T11:58:02.901Z</time></trkpt><trkpt lat="44.837051" lon="9.3283077"><ele>619.0</ele><time>2026-04-11T11:58:03.901Z</time></trkpt><trkpt lat="44.8369934" lon="9.3281015"><ele>620.3333333333334</ele><time>2026-04-11T11:58:04.9Z</time></trkpt><trkpt lat="44.8369366" lon="9.3278926"><ele>621.6666666666666</ele><time>2026-04-11T11:58:05.901Z</time></trkpt><trkpt lat="44.8368759" lon="9.3276766"><ele>623.0</ele><time>2026-04-11T11:58:06.901Z</time></trkpt><trkpt lat="44.8368087" lon="9.3274672"><ele>621.3333333333333</ele><time>2026-04-11T11:58:07.901Z</time></trkpt><trkpt lat="44.8367427" lon="9.3272564"><ele>619.6666666666666</ele><time>2026-04-11T11:58:08.901Z</time></trkpt><trkpt lat="44.8366773" lon="9.3270413"><ele>618.0</ele><time>2026-04-11T11:58:09.901Z</time></trkpt><trkpt lat="44.8366155" lon="9.3268193"><ele>618.0</ele><time>2026-04-11T11:58:10.901Z</time></trkpt><trkpt lat="44.8365463" lon="9.3266002"><ele>618.0</ele><time>2026-04-11T11:58:11.901Z</time></trkpt><trkpt lat="44.8364761" lon="9.3263862"><ele>618.0</ele><time>2026-04-11T11:58:12.901Z</time></trkpt><trkpt lat="44.8364077" lon="9.3261679"><ele>621.3333333333334</ele><time>2026-04-11T11:58:13.901Z</time></trkpt><trkpt lat="44.8363358" lon="9.3259557"><ele>624.6666666666667</ele><time>2026-04-11T11:58:14.901Z</time></trkpt><trkpt lat="44.8362475" lon="9.325752"><ele>628.0</ele><time>2026-04-11T11:58:15.9Z</time></trkpt><trkpt lat="44.8361491" lon="9.3255556"><ele>626.6666666666667</ele><time>2026-04-11T11:58:16.901Z</time></trkpt><trkpt lat="44.8360387" lon="9.3253656"><ele>625.3333333333334</ele><time>2026-04-11T11:58:17.901Z</time></trkpt><trkpt lat="44.8359222" lon="9.3251756"><ele>624.0</ele><time>2026-04-11T11:58:18.901Z</time></trkpt><trkpt lat="44.8357941" lon="9.3249991"><ele>624.0</ele><time>2026-04-11T11:58:19.901Z</time></trkpt><trkpt lat="44.8356655" lon="9.3248307"><ele>624.0</ele><time>2026-04-11T11:58:20.901Z</time></trkpt><trkpt lat="44.8355384" lon="9.3246637"><ele>624.0</ele><time>2026-04-11T11:58:21.9Z</time></trkpt><trkpt lat="44.835411" lon="9.3244956"><ele>627.0</ele><time>2026-04-11T11:58:22.9Z</time></trkpt><trkpt lat="44.8352862" lon="9.3243269"><ele>630.0</ele><time>2026-04-11T11:58:23.901Z</time></trkpt><trkpt lat="44.835157" lon="9.3241619"><ele>633.0</ele><time>2026-04-11T11:58:24.901Z</time></trkpt><trkpt lat="44.8350241" lon="9.3239935"><ele>636.6666666666666</ele><time>2026-04-11T11:58:25.9Z</time></trkpt><trkpt lat="44.834885" lon="9.3238273"><ele>640.3333333333333</ele><time>2026-04-11T11:58:26.901Z</time></trkpt><trkpt lat="44.8347458" lon="9.3236569"><ele>644.0</ele><time>2026-04-11T11:58:27.901Z</time></trkpt><trkpt lat="44.8346067" lon="9.3234852"><ele>644.0</ele><time>2026-04-11T11:58:28.902Z</time></trkpt><trkpt lat="44.8344771" lon="9.323313"><ele>644.0</ele><time>2026-04-11T11:58:29.901Z</time></trkpt><trkpt lat="44.8343517" lon="9.3231346"><ele>644.0</ele><time>2026-04-11T11:58:30.901Z</time></trkpt><trkpt lat="44.8342449" lon="9.3229468"><ele>644.6666666666666</ele><time>2026-04-11T11:58:31.902Z</time></trkpt><trkpt lat="44.8341576" lon="9.322755"><ele>645.3333333333334</ele><time>2026-04-11T11:58:32.902Z</time></trkpt><trkpt lat="44.8340674" lon="9.3225561"><ele>646.0</ele><time>2026-04-11T11:58:33.902Z</time></trkpt><trkpt lat="44.8339726" lon="9.3223853"><ele>646.0</ele><time>2026-04-11T11:58:34.902Z</time></trkpt><trkpt lat="44.8338773" lon="9.3222384"><ele>646.0</ele><time>2026-04-11T11:58:35.902Z</time></trkpt><trkpt lat="44.8337909" lon="9.3221163"><ele>646.0</ele><time>2026-04-11T11:58:36.902Z</time></trkpt><trkpt lat="44.8337153" lon="9.3220075"><ele>646.0</ele><time>2026-04-11T11:58:37.902Z</time></trkpt><trkpt lat="44.8336411" lon="9.3219284"><ele>647.1999999999999</ele><time>2026-04-11T11:58:38.902Z</time></trkpt><trkpt lat="44.8335619" lon="9.3218782"><ele>648.4</ele><time>2026-04-11T11:58:39.901Z</time></trkpt><trkpt lat="44.8334764" lon="9.3218734"><ele>649.6</ele><time>2026-04-11T11:58:40.902Z</time></trkpt><trkpt lat="44.8334011" lon="9.3219332"><ele>650.8</ele><time>2026-04-11T11:58:41.902Z</time></trkpt><trkpt lat="44.8333453" lon="9.3220274"><ele>652.0</ele><time>2026-04-11T11:58:42.902Z</time></trkpt><trkpt lat="44.8333203" lon="9.3221694"><ele>652.75</ele><time>2026-04-11T11:58:43.902Z</time></trkpt><trkpt lat="44.8333246" lon="9.3223276"><ele>653.5</ele><time>2026-04-11T11:58:44.901Z</time></trkpt><trkpt lat="44.8333543" lon="9.3225032"><ele>654.25</ele><time>2026-04-11T11:58:45.902Z</time></trkpt><trkpt lat="44.8333917" lon="9.32269"><ele>655.0</ele><time>2026-04-11T11:58:46.902Z</time></trkpt><trkpt lat="44.8334221" lon="9.3228932"><ele>657.6666666666667</ele><time>2026-04-11T11:58:47.902Z</time></trkpt><trkpt lat="44.8334639" lon="9.3231085"><ele>660.3333333333334</ele><time>2026-04-11T11:58:48.901Z</time></trkpt><trkpt lat="44.8335193" lon="9.3233206"><ele>663.0</ele><time>2026-04-11T11:58:49.902Z</time></trkpt><trkpt lat="44.8335719" lon="9.3235272"><ele>655.6666666666666</ele><time>2026-04-11T11:58:50.902Z</time></trkpt><trkpt lat="44.8336158" lon="9.3237364"><ele>648.3333333333333</ele><time>2026-04-11T11:58:51.902Z</time></trkpt><trkpt lat="44.8336514" lon="9.3239601"><ele>641.0</ele><time>2026-04-11T11:58:52.902Z</time></trkpt><trkpt lat="44.8336813" lon="9.3241883"><ele>641.0</ele><time>2026-04-11T11:58:53.902Z</time></trkpt><trkpt lat="44.8337114" lon="9.3244069"><ele>641.0</ele><time>2026-04-11T11:58:54.902Z</time></trkpt><trkpt lat="44.8337294" lon="9.3246"><ele>641.0</ele><time>2026-04-11T11:58:55.901Z</time></trkpt><trkpt lat="44.8337286" lon="9.324774"><ele>641.0</ele><time>2026-04-11T11:58:56.902Z</time></trkpt><trkpt lat="44.8337443" lon="9.3249475"><ele>643.75</ele><time>2026-04-11T11:58:57.902Z</time></trkpt><trkpt lat="44.8337964" lon="9.3251166"><ele>646.5</ele><time>2026-04-11T11:58:58.901Z</time></trkpt><trkpt lat="44.8338693" lon="9.3252915"><ele>649.25</ele><time>2026-04-11T11:58:59.902Z</time></trkpt><trkpt lat="44.8339457" lon="9.3254702"><ele>652.0</ele><time>2026-04-11T11:59:00.902Z</time></trkpt><trkpt lat="44.8340246" lon="9.3256404"><ele>655.0</ele><time>2026-04-11T11:59:01.902Z</time></trkpt><trkpt lat="44.8341117" lon="9.3257745"><ele>658.0</ele><time>2026-04-11T11:59:02.902Z</time></trkpt><trkpt lat="44.8341929" lon="9.3258976"><ele>661.0</ele><time>2026-04-11T11:59:03.902Z</time></trkpt><trkpt lat="44.8342566" lon="9.326036"><ele>664.0</ele><time>2026-04-11T11:59:04.902Z</time></trkpt><trkpt lat="44.8343041" lon="9.326192"><ele>660.6</ele><time>2026-04-11T11:59:05.902Z</time></trkpt><trkpt lat="44.8343454" lon="9.3263598"><ele>657.2</ele><time>2026-04-11T11:59:06.902Z</time></trkpt><trkpt lat="44.8343932" lon="9.3265083"><ele>653.8000000000001</ele><time>2026-04-11T11:59:07.902Z</time></trkpt><trkpt lat="44.8344205" lon="9.3266359"><ele>650.4000000000001</ele><time>2026-04-11T11:59:08.901Z</time></trkpt><trkpt lat="44.8344226" lon="9.3267515"><ele>647.0</ele><time>2026-04-11T11:59:09.902Z</time></trkpt><trkpt lat="44.8344023" lon="9.3268478"><ele>647.0</ele><time>2026-04-11T11:59:10.901Z</time></trkpt><trkpt lat="44.8343396" lon="9.3269033"><ele>647.0</ele><time>2026-04-11T11:59:11.902Z</time></trkpt><trkpt lat="44.8342492" lon="9.3269281"><ele>647.0</ele><time>2026-04-11T11:59:12.902Z</time></trkpt><trkpt lat="44.8341495" lon="9.3269347"><ele>647.0</ele><time>2026-04-11T11:59:13.902Z</time></trkpt><trkpt lat="44.8340371" lon="9.3269534"><ele>647.0</ele><time>2026-04-11T11:59:14.901Z</time></trkpt><trkpt lat="44.8339183" lon="9.3269799"><ele>651.5</ele><time>2026-04-11T11:59:15.902Z</time></trkpt><trkpt lat="44.8338063" lon="9.3269775"><ele>656.0</ele><time>2026-04-11T11:59:16.902Z</time></trkpt><trkpt lat="44.8336948" lon="9.3269198"><ele>660.5</ele><time>2026-04-11T11:59:17.902Z</time></trkpt><trkpt lat="44.8335937" lon="9.3268346"><ele>665.0</ele><time>2026-04-11T11:59:18.903Z</time></trkpt><trkpt lat="44.833483" lon="9.3267409"><ele>665.25</ele><time>2026-04-11T11:59:19.902Z</time></trkpt><trkpt lat="44.8333633" lon="9.3266457"><ele>665.5</ele><time>2026-04-11T11:59:20.903Z</time></trkpt><trkpt lat="44.8332441" lon="9.3265541"><ele>665.75</ele><time>2026-04-11T11:59:21.903Z</time></trkpt><trkpt lat="44.83312" lon="9.3264626"><ele>666.0</ele><time>2026-04-11T11:59:22.903Z</time></trkpt><trkpt lat="44.8329814" lon="9.3263796"><ele>670.3333333333334</ele><time>2026-04-11T11:59:23.903Z</time></trkpt><trkpt lat="44.8328353" lon="9.3263211"><ele>674.6666666666667</ele><time>2026-04-11T11:59:24.903Z</time></trkpt><trkpt lat="44.8326824" lon="9.3262975"><ele>679.0</ele><time>2026-04-11T11:59:25.903Z</time></trkpt><trkpt lat="44.8325243" lon="9.3263054"><ele>681.5</ele><time>2026-04-11T11:59:26.902Z</time></trkpt><trkpt lat="44.8323686" lon="9.3263265"><ele>684.0</ele><time>2026-04-11T11:59:27.902Z</time></trkpt><trkpt lat="44.8322258" lon="9.3263628"><ele>686.5</ele><time>2026-04-11T11:59:28.903Z</time></trkpt><trkpt lat="44.8320946" lon="9.3263937"><ele>689.0</ele><time>2026-04-11T11:59:29.903Z</time></trkpt><trkpt lat="44.831974" lon="9.3264076"><ele>689.0</ele><time>2026-04-11T11:59:30.902Z</time></trkpt><trkpt lat="44.8318686" lon="9.3263823"><ele>689.0</ele><time>2026-04-11T11:59:31.903Z</time></trkpt><trkpt lat="44.8317572" lon="9.3263321"><ele>689.0</ele><time>2026-04-11T11:59:32.903Z</time></trkpt><trkpt lat="44.8316335" lon="9.3262645"><ele>689.0</ele><time>2026-04-11T11:59:33.903Z</time></trkpt><trkpt lat="44.8315155" lon="9.3261685"><ele>689.25</ele><time>2026-04-11T11:59:34.902Z</time></trkpt><trkpt lat="44.831401" lon="9.3260675"><ele>689.5</ele><time>2026-04-11T11:59:35.903Z</time></trkpt><trkpt lat="44.8312858" lon="9.3259969"><ele>689.75</ele><time>2026-04-11T11:59:36.903Z</time></trkpt><trkpt lat="44.8311559" lon="9.3259407"><ele>690.0</ele><time>2026-04-11T11:59:37.903Z</time></trkpt><trkpt lat="44.8310155" lon="9.3259131"><ele>689.25</ele><time>2026-04-11T11:59:38.903Z</time></trkpt><trkpt lat="44.8308682" lon="9.325929"><ele>688.5</ele><time>2026-04-11T11:59:39.903Z</time></trkpt><trkpt lat="44.8307174" lon="9.3259516"><ele>687.75</ele><time>2026-04-11T11:59:40.903Z</time></trkpt><trkpt lat="44.8305692" lon="9.3259677"><ele>687.0</ele><time>2026-04-11T11:59:41.903Z</time></trkpt><trkpt lat="44.830429" lon="9.3259853"><ele>687.0</ele><time>2026-04-11T11:59:42.903Z</time></trkpt><trkpt lat="44.8302882" lon="9.326038"><ele>687.0</ele><time>2026-04-11T11:59:43.903Z</time></trkpt><trkpt lat="44.830151" lon="9.3261191"><ele>687.0</ele><time>2026-04-11T11:59:44.903Z</time></trkpt><trkpt lat="44.8300189" lon="9.3262096"><ele>687.0</ele><time>2026-04-11T11:59:45.903Z</time></trkpt><trkpt lat="44.8299016" lon="9.3262827"><ele>690.0</ele><time>2026-04-11T11:59:46.903Z</time></trkpt><trkpt lat="44.8297921" lon="9.3263505"><ele>693.0</ele><time>2026-04-11T11:59:47.903Z</time></trkpt><trkpt lat="44.8296873" lon="9.3264355"><ele>696.0</ele><time>2026-04-11T11:59:48.903Z</time></trkpt><trkpt lat="44.8295839" lon="9.3265398"><ele>699.0</ele><time>2026-04-11T11:59:49.902Z</time></trkpt><trkpt lat="44.8294975" lon="9.3266523"><ele>697.0</ele><time>2026-04-11T11:59:50.902Z</time></trkpt><trkpt lat="44.8294307" lon="9.3267625"><ele>695.0</ele><time>2026-04-11T11:59:51.903Z</time></trkpt><trkpt lat="44.8293564" lon="9.3268406"><ele>693.0</ele><time>2026-04-11T11:59:52.903Z</time></trkpt><trkpt lat="44.8292713" lon="9.3268758"><ele>691.0</ele><time>2026-04-11T11:59:53.903Z</time></trkpt><trkpt lat="44.8291849" lon="9.3268589"><ele>689.0</ele><time>2026-04-11T11:59:54.903Z</time></trkpt><trkpt lat="44.829112" lon="9.3267909"><ele>689.0</ele><time>2026-04-11T11:59:55.902Z</time></trkpt><trkpt lat="44.8290375" lon="9.3267007"><ele>689.0</ele><time>2026-04-11T11:59:56.903Z</time></trkpt><trkpt lat="44.8289663" lon="9.3265769"><ele>689.0</ele><time>2026-04-11T11:59:57.903Z</time></trkpt><trkpt lat="44.8288966" lon="9.3264395"><ele>689.0</ele><time>2026-04-11T11:59:58.903Z</time></trkpt><trkpt lat="44.8288118" lon="9.3263016"><ele>692.3333333333333</ele><time>2026-04-11T11:59:59.903Z</time></trkpt><trkpt lat="44.8286965" lon="9.3261796"><ele>695.6666666666666</ele><time>2026-04-11T12:00:00.903Z</time></trkpt><trkpt lat="44.8285654" lon="9.3260694"><ele>699.0</ele><time>2026-04-11T12:00:01.903Z</time></trkpt><trkpt lat="44.8284318" lon="9.325959"><ele>699.0</ele><time>2026-04-11T12:00:02.903Z</time></trkpt><trkpt lat="44.8282949" lon="9.3258395"><ele>699.0</ele><time>2026-04-11T12:00:03.903Z</time></trkpt><trkpt lat="44.8281569" lon="9.3257204"><ele>699.0</ele><time>2026-04-11T12:00:04.902Z</time></trkpt><trkpt lat="44.8280197" lon="9.3255946"><ele>698.6666666666666</ele><time>2026-04-11T12:00:05.904Z</time></trkpt><trkpt lat="44.8278885" lon="9.3254631"><ele>698.3333333333333</ele><time>2026-04-11T12:00:06.904Z</time></trkpt><trkpt lat="44.827759" lon="9.3253085"><ele>698.0</ele><time>2026-04-11T12:00:07.904Z</time></trkpt><trkpt lat="44.8276425" lon="9.3251273"><ele>698.0</ele><time>2026-04-11T12:00:08.904Z</time></trkpt><trkpt lat="44.8275334" lon="9.3249351"><ele>698.0</ele><time>2026-04-11T12:00:09.904Z</time></trkpt><trkpt lat="44.8274209" lon="9.3247415"><ele>698.0</ele><time>2026-04-11T12:00:10.904Z</time></trkpt><trkpt lat="44.8273134" lon="9.3245704"><ele>704.75</ele><time>2026-04-11T12:00:11.904Z</time></trkpt><trkpt lat="44.8272248" lon="9.3244003"><ele>711.5</ele><time>2026-04-11T12:00:12.903Z</time></trkpt><trkpt lat="44.827145" lon="9.3242363"><ele>718.25</ele><time>2026-04-11T12:00:13.904Z</time></trkpt><trkpt lat="44.8270511" lon="9.3240823"><ele>725.0</ele><time>2026-04-11T12:00:14.904Z</time></trkpt><trkpt lat="44.8269355" lon="9.3239464"><ele>725.0</ele><time>2026-04-11T12:00:15.904Z</time></trkpt><trkpt lat="44.826808" lon="9.3238224"><ele>725.0</ele><time>2026-04-11T12:00:16.904Z</time></trkpt><trkpt lat="44.8266734" lon="9.3237016"><ele>725.0</ele><time>2026-04-11T12:00:17.903Z</time></trkpt><trkpt lat="44.8265403" lon="9.3235844"><ele>725.0</ele><time>2026-04-11T12:00:18.904Z</time></trkpt><trkpt lat="44.8264132" lon="9.3234748"><ele>725.0</ele><time>2026-04-11T12:00:19.904Z</time></trkpt><trkpt lat="44.8263023" lon="9.3233801"><ele>725.0</ele><time>2026-04-11T12:00:20.904Z</time></trkpt><trkpt lat="44.8262108" lon="9.3232773"><ele>725.0</ele><time>2026-04-11T12:00:21.904Z</time></trkpt><trkpt lat="44.8261467" lon="9.3231673"><ele>726.5</ele><time>2026-04-11T12:00:22.903Z</time></trkpt><trkpt lat="44.8261143" lon="9.3230459"><ele>728.0</ele><time>2026-04-11T12:00:23.903Z</time></trkpt><trkpt lat="44.8260776" lon="9.3229427"><ele>729.5</ele><time>2026-04-11T12:00:24.904Z</time></trkpt><trkpt lat="44.8260212" lon="9.3228653"><ele>731.0</ele><time>2026-04-11T12:00:25.904Z</time></trkpt><trkpt lat="44.8259386" lon="9.3228303"><ele>732.5</ele><time>2026-04-11T12:00:26.904Z</time></trkpt><trkpt lat="44.8258447" lon="9.322853"><ele>734.0</ele><time>2026-04-11T12:00:27.903Z</time></trkpt><trkpt lat="44.825768" lon="9.3229363"><ele>734.0</ele><time>2026-04-11T12:00:28.904Z</time></trkpt><trkpt lat="44.8257085" lon="9.3230515"><ele>734.0</ele><time>2026-04-11T12:00:29.904Z</time></trkpt><trkpt lat="44.8256846" lon="9.3232051"><ele>734.0</ele><time>2026-04-11T12:00:30.904Z</time></trkpt><trkpt lat="44.8256773" lon="9.3233756"><ele>734.0</ele><time>2026-04-11T12:00:31.904Z</time></trkpt><trkpt lat="44.8256956" lon="9.3235635"><ele>729.75</ele><time>2026-04-11T12:00:32.904Z</time></trkpt><trkpt lat="44.8257209" lon="9.3237549"><ele>725.5</ele><time>2026-04-11T12:00:33.904Z</time></trkpt><trkpt lat="44.8257452" lon="9.323962"><ele>721.25</ele><time>2026-04-11T12:00:34.904Z</time></trkpt><trkpt lat="44.8257566" lon="9.3241717"><ele>717.0</ele><time>2026-04-11T12:00:35.904Z</time></trkpt><trkpt lat="44.8257536" lon="9.3243755"><ele>715.75</ele><time>2026-04-11T12:00:36.904Z</time></trkpt><trkpt lat="44.8257427" lon="9.3245667"><ele>714.5</ele><time>2026-04-11T12:00:37.904Z</time></trkpt><trkpt lat="44.8257212" lon="9.3247286"><ele>713.25</ele><time>2026-04-11T12:00:38.903Z</time></trkpt><trkpt lat="44.8256948" lon="9.3248747"><ele>712.0</ele><time>2026-04-11T12:00:39.904Z</time></trkpt><trkpt lat="44.8256658" lon="9.325005"><ele>711.6</ele><time>2026-04-11T12:00:40.904Z</time></trkpt><trkpt lat="44.8256232" lon="9.3251073"><ele>711.2</ele><time>2026-04-11T12:00:41.904Z</time></trkpt><trkpt lat="44.825565" lon="9.3251874"><ele>710.8</ele><time>2026-04-11T12:00:42.904Z</time></trkpt><trkpt lat="44.825486" lon="9.3252392"><ele>710.4</ele><time>2026-04-11T12:00:43.903Z</time></trkpt><trkpt lat="44.8253922" lon="9.3252539"><ele>710.0</ele><time>2026-04-11T12:00:44.903Z</time></trkpt><trkpt lat="44.8252884" lon="9.3252302"><ele>710.0</ele><time>2026-04-11T12:00:45.904Z</time></trkpt><trkpt lat="44.8251726" lon="9.3252165"><ele>710.0</ele><time>2026-04-11T12:00:46.904Z</time></trkpt><trkpt lat="44.8250527" lon="9.3251635"><ele>710.0</ele><time>2026-04-11T12:00:47.904Z</time></trkpt><trkpt lat="44.8249231" lon="9.3251238"><ele>710.0</ele><time>2026-04-11T12:00:48.904Z</time></trkpt><trkpt lat="44.8247874" lon="9.3251154"><ele>714.5</ele><time>2026-04-11T12:00:49.904Z</time></trkpt><trkpt lat="44.8246402" lon="9.325119"><ele>719.0</ele><time>2026-04-11T12:00:50.904Z</time></trkpt><trkpt lat="44.8244922" lon="9.3251343"><ele>723.5</ele><time>2026-04-11T12:00:51.904Z</time></trkpt><trkpt lat="44.8243468" lon="9.3251539"><ele>728.0</ele><time>2026-04-11T12:00:52.904Z</time></trkpt><trkpt lat="44.8242034" lon="9.32518"><ele>732.75</ele><time>2026-04-11T12:00:53.903Z</time></trkpt><trkpt lat="44.8240589" lon="9.3252185"><ele>737.5</ele><time>2026-04-11T12:00:54.905Z</time></trkpt><trkpt lat="44.8239204" lon="9.3252825"><ele>742.25</ele><time>2026-04-11T12:00:55.905Z</time></trkpt><trkpt lat="44.8237827" lon="9.3253502"><ele>747.0</ele><time>2026-04-11T12:00:56.904Z</time></trkpt><trkpt lat="44.8236481" lon="9.3253995"><ele>747.0</ele><time>2026-04-11T12:00:57.905Z</time></trkpt><trkpt lat="44.8234911" lon="9.3254126"><ele>747.0</ele><time>2026-04-11T12:00:58.904Z</time></trkpt><trkpt lat="44.8233383" lon="9.3254098"><ele>747.0</ele><time>2026-04-11T12:00:59.905Z</time></trkpt><trkpt lat="44.8231891" lon="9.3254272"><ele>749.75</ele><time>2026-04-11T12:01:00.905Z</time></trkpt><trkpt lat="44.8230675" lon="9.3254751"><ele>752.5</ele><time>2026-04-11T12:01:01.904Z</time></trkpt><trkpt lat="44.8229492" lon="9.3255438"><ele>755.25</ele><time>2026-04-11T12:01:02.905Z</time></trkpt><trkpt lat="44.8228502" lon="9.3255917"><ele>758.0</ele><time>2026-04-11T12:01:03.905Z</time></trkpt><trkpt lat="44.8227594" lon="9.3256299"><ele>759.4</ele><time>2026-04-11T12:01:04.905Z</time></trkpt><trkpt lat="44.8226733" lon="9.3256371"><ele>760.8</ele><time>2026-04-11T12:01:05.905Z</time></trkpt><trkpt lat="44.8225812" lon="9.325601"><ele>762.2</ele><time>2026-04-11T12:01:06.905Z</time></trkpt><trkpt lat="44.8224958" lon="9.3255189"><ele>763.6</ele><time>2026-04-11T12:01:07.905Z</time></trkpt><trkpt lat="44.8224112" lon="9.3254148"><ele>765.0</ele><time>2026-04-11T12:01:08.905Z</time></trkpt><trkpt lat="44.8223231" lon="9.3253145"><ele>765.0</ele><time>2026-04-11T12:01:09.905Z</time></trkpt><trkpt lat="44.8222251" lon="9.3252324"><ele>765.0</ele><time>2026-04-11T12:01:10.901Z</time></trkpt><trkpt lat="44.8221146" lon="9.3251958"><ele>765.0</ele><time>2026-04-11T12:01:11.905Z</time></trkpt><trkpt lat="44.8219935" lon="9.3252352"><ele>765.0</ele><time>2026-04-11T12:01:12.904Z</time></trkpt><trkpt lat="44.8218849" lon="9.3252937"><ele>764.0</ele><time>2026-04-11T12:01:13.905Z</time></trkpt><trkpt lat="44.821778" lon="9.3253428"><ele>763.0</ele><time>2026-04-11T12:01:14.904Z</time></trkpt><trkpt lat="44.8216552" lon="9.325371"><ele>762.0</ele><time>2026-04-11T12:01:15.905Z</time></trkpt><trkpt lat="44.8215347" lon="9.3253803"><ele>761.0</ele><time>2026-04-11T12:01:16.905Z</time></trkpt><trkpt lat="44.8214225" lon="9.325366"><ele>761.0</ele><time>2026-04-11T12:01:17.905Z</time></trkpt><trkpt lat="44.8213053" lon="9.3253684"><ele>761.0</ele><time>2026-04-11T12:01:18.905Z</time></trkpt><trkpt lat="44.8211993" lon="9.3254004"><ele>761.0</ele><time>2026-04-11T12:01:19.905Z</time></trkpt><trkpt lat="44.8210943" lon="9.3254603"><ele>761.0</ele><time>2026-04-11T12:01:20.905Z</time></trkpt><trkpt lat="44.8209947" lon="9.3255613"><ele>758.5</ele><time>2026-04-11T12:01:21.905Z</time></trkpt><trkpt lat="44.8209025" lon="9.3256882"><ele>756.0</ele><time>2026-04-11T12:01:22.905Z</time></trkpt><trkpt lat="44.8208075" lon="9.3257829"><ele>753.5</ele><time>2026-04-11T12:01:23.904Z</time></trkpt><trkpt lat="44.8207067" lon="9.3258439"><ele>751.0</ele><time>2026-04-11T12:01:24.904Z</time></trkpt><trkpt lat="44.8205931" lon="9.3259009"><ele>751.0</ele><time>2026-04-11T12:01:25.904Z</time></trkpt><trkpt lat="44.8205047" lon="9.3259905"><ele>751.0</ele><time>2026-04-11T12:01:26.905Z</time></trkpt><trkpt lat="44.8204319" lon="9.3260993"><ele>751.0</ele><time>2026-04-11T12:01:27.905Z</time></trkpt><trkpt lat="44.820362" lon="9.3262132"><ele>751.0</ele><time>2026-04-11T12:01:28.905Z</time></trkpt><trkpt lat="44.8202835" lon="9.326308"><ele>751.0</ele><time>2026-04-11T12:01:29.905Z</time></trkpt><trkpt lat="44.8201922" lon="9.3263858"><ele>753.4</ele><time>2026-04-11T12:01:30.904Z</time></trkpt><trkpt lat="44.8200936" lon="9.3264465"><ele>755.8</ele><time>2026-04-11T12:01:31.905Z</time></trkpt><trkpt lat="44.8199932" lon="9.3265049"><ele>758.1999999999999</ele><time>2026-04-11T12:01:32.905Z</time></trkpt><trkpt lat="44.8198889" lon="9.3265355"><ele>760.5999999999999</ele><time>2026-04-11T12:01:33.905Z</time></trkpt><trkpt lat="44.8197928" lon="9.326571"><ele>763.0</ele><time>2026-04-11T12:01:34.904Z</time></trkpt><trkpt lat="44.8197061" lon="9.3266069"><ele>763.0</ele><time>2026-04-11T12:01:35.904Z</time></trkpt><trkpt lat="44.8196202" lon="9.3266414"><ele>763.0</ele><time>2026-04-11T12:01:36.905Z</time></trkpt><trkpt lat="44.8195279" lon="9.3266768"><ele>763.0</ele><time>2026-04-11T12:01:37.905Z</time></trkpt><trkpt lat="44.8194329" lon="9.3266924"><ele>763.0</ele><time>2026-04-11T12:01:38.905Z</time></trkpt><trkpt lat="44.8193256" lon="9.3266732"><ele>763.0</ele><time>2026-04-11T12:01:39.905Z</time></trkpt><trkpt lat="44.8192126" lon="9.3266241"><ele>764.4</ele><time>2026-04-11T12:01:40.905Z</time></trkpt><trkpt lat="44.8191011" lon="9.3265733"><ele>765.8</ele><time>2026-04-11T12:01:41.905Z</time></trkpt><trkpt lat="44.8189849" lon="9.3265478"><ele>767.2</ele><time>2026-04-11T12:01:42.905Z</time></trkpt><trkpt lat="44.8188817" lon="9.326551"><ele>768.6</ele><time>2026-04-11T12:01:43.906Z</time></trkpt><trkpt lat="44.8187997" lon="9.32655"><ele>770.0</ele><time>2026-04-11T12:01:44.905Z</time></trkpt><trkpt lat="44.8187265" lon="9.3265335"><ele>770.0000000000001</ele><time>2026-04-11T12:01:45.905Z</time></trkpt><trkpt lat="44.8186539" lon="9.326468"><ele>770.0</ele><time>2026-04-11T12:01:46.906Z</time></trkpt><trkpt lat="44.8185958" lon="9.3263694"><ele>770.0</ele><time>2026-04-11T12:01:47.905Z</time></trkpt><trkpt lat="44.8185655" lon="9.3262479"><ele>770.0</ele><time>2026-04-11T12:01:48.905Z</time></trkpt><trkpt lat="44.818574" lon="9.326124"><ele>770.0000000000001</ele><time>2026-04-11T12:01:49.906Z</time></trkpt><trkpt lat="44.8186229" lon="9.3260217"><ele>770.0</ele><time>2026-04-11T12:01:50.906Z</time></trkpt><trkpt lat="44.818712" lon="9.325914"><ele>773.6666666666667</ele><time>2026-04-11T12:01:51.906Z</time></trkpt><trkpt lat="44.8188215" lon="9.3257943"><ele>777.3333333333333</ele><time>2026-04-11T12:01:52.905Z</time></trkpt><trkpt lat="44.8189744" lon="9.325648"><ele>781.0</ele><time>2026-04-11T12:01:53.906Z</time></trkpt><trkpt lat="44.8191488" lon="9.3254868"><ele>783.0</ele><time>2026-04-11T12:01:54.906Z</time></trkpt><trkpt lat="44.8193272" lon="9.3253305"><ele>785.0</ele><time>2026-04-11T12:01:55.906Z</time></trkpt><trkpt lat="44.8194705" lon="9.3251795"><ele>787.0</ele><time>2026-04-11T12:01:56.906Z</time></trkpt><trkpt lat="44.8196117" lon="9.3250462"><ele>787.0</ele><time>2026-04-11T12:01:57.906Z</time></trkpt><trkpt lat="44.819763" lon="9.324944"><ele>787.0</ele><time>2026-04-11T12:01:58.906Z</time></trkpt><trkpt lat="44.8199322" lon="9.3248717"><ele>787.0</ele><time>2026-04-11T12:01:59.906Z</time></trkpt><trkpt lat="44.8200979" lon="9.3247998"><ele>792.25</ele><time>2026-04-11T12:02:00.906Z</time></trkpt><trkpt lat="44.8202443" lon="9.3247007"><ele>797.5</ele><time>2026-04-11T12:02:01.906Z</time></trkpt><trkpt lat="44.8203742" lon="9.324604"><ele>802.75</ele><time>2026-04-11T12:02:02.906Z</time></trkpt><trkpt lat="44.8204971" lon="9.3245385"><ele>808.0</ele><time>2026-04-11T12:02:03.906Z</time></trkpt><trkpt lat="44.8206204" lon="9.3245145"><ele>808.0</ele><time>2026-04-11T12:02:04.906Z</time></trkpt><trkpt lat="44.8207392" lon="9.3244968"><ele>808.0</ele><time>2026-04-11T12:02:05.906Z</time></trkpt><trkpt lat="44.8208496" lon="9.3244426"><ele>808.0</ele><time>2026-04-11T12:02:06.906Z</time></trkpt><trkpt lat="44.8209612" lon="9.3243339"><ele>808.0</ele><time>2026-04-11T12:02:07.906Z</time></trkpt><trkpt lat="44.8210769" lon="9.3242087"><ele>810.25</ele><time>2026-04-11T12:02:08.906Z</time></trkpt><trkpt lat="44.8211956" lon="9.3240762"><ele>812.5</ele><time>2026-04-11T12:02:09.905Z</time></trkpt><trkpt lat="44.8213111" lon="9.3239417"><ele>814.75</ele><time>2026-04-11T12:02:10.906Z</time></trkpt><trkpt lat="44.8214173" lon="9.3238109"><ele>817.0</ele><time>2026-04-11T12:02:11.906Z</time></trkpt><trkpt lat="44.821516" lon="9.3236993"><ele>817.0</ele><time>2026-04-11T12:02:12.905Z</time></trkpt><trkpt lat="44.8216265" lon="9.3236172"><ele>817.0</ele><time>2026-04-11T12:02:13.906Z</time></trkpt><trkpt lat="44.8217566" lon="9.3235571"><ele>817.0</ele><time>2026-04-11T12:02:14.905Z</time></trkpt><trkpt lat="44.8219014" lon="9.3235211"><ele>817.0</ele><time>2026-04-11T12:02:15.906Z</time></trkpt><trkpt lat="44.8220542" lon="9.3235206"><ele>816.5</ele><time>2026-04-11T12:02:16.906Z</time></trkpt><trkpt lat="44.8222067" lon="9.3235471"><ele>816.0</ele><time>2026-04-11T12:02:17.906Z</time></trkpt><trkpt lat="44.8223373" lon="9.3235868"><ele>815.5</ele><time>2026-04-11T12:02:18.906Z</time></trkpt><trkpt lat="44.8224463" lon="9.3236477"><ele>815.0</ele><time>2026-04-11T12:02:19.906Z</time></trkpt><trkpt lat="44.8225429" lon="9.3237394"><ele>815.0</ele><time>2026-04-11T12:02:20.905Z</time></trkpt><trkpt lat="44.822628" lon="9.3238375"><ele>815.0</ele><time>2026-04-11T12:02:21.906Z</time></trkpt><trkpt lat="44.8227121" lon="9.3239252"><ele>815.0</ele><time>2026-04-11T12:02:22.906Z</time></trkpt><trkpt lat="44.822801" lon="9.3239758"><ele>815.0</ele><time>2026-04-11T12:02:23.906Z</time></trkpt><trkpt lat="44.8228968" lon="9.3239827"><ele>815.0</ele><time>2026-04-11T12:02:24.906Z</time></trkpt><trkpt lat="44.8229987" lon="9.323956"><ele>814.0</ele><time>2026-04-11T12:02:25.906Z</time></trkpt><trkpt lat="44.8230948" lon="9.3239103"><ele>813.0</ele><time>2026-04-11T12:02:26.905Z</time></trkpt><trkpt lat="44.82318" lon="9.3238392"><ele>812.0</ele><time>2026-04-11T12:02:27.906Z</time></trkpt><trkpt lat="44.8232362" lon="9.3237521"><ele>811.0</ele><time>2026-04-11T12:02:28.906Z</time></trkpt><trkpt lat="44.8232661" lon="9.3236371"><ele>810.0</ele><time>2026-04-11T12:02:29.905Z</time></trkpt><trkpt lat="44.8232633" lon="9.3235251"><ele>810.0</ele><time>2026-04-11T12:02:30.906Z</time></trkpt><trkpt lat="44.8232258" lon="9.3234106"><ele>810.0</ele><time>2026-04-11T12:02:31.906Z</time></trkpt><trkpt lat="44.8231586" lon="9.3233095"><ele>810.0</ele><time>2026-04-11T12:02:32.907Z</time></trkpt><trkpt lat="44.8230809" lon="9.3232082"><ele>810.0</ele><time>2026-04-11T12:02:33.907Z</time></trkpt><trkpt lat="44.8230005" lon="9.3231034"><ele>810.0</ele><time>2026-04-11T12:02:34.906Z</time></trkpt><trkpt lat="44.822914" lon="9.3230078"><ele>808.25</ele><time>2026-04-11T12:02:35.907Z</time></trkpt><trkpt lat="44.8228099" lon="9.3229542"><ele>806.5</ele><time>2026-04-11T12:02:36.907Z</time></trkpt><trkpt lat="44.8226872" lon="9.3229494"><ele>804.75</ele><time>2026-04-11T12:02:37.907Z</time></trkpt><trkpt lat="44.822555" lon="9.3229658"><ele>803.0</ele><time>2026-04-11T12:02:38.907Z</time></trkpt><trkpt lat="44.822428" lon="9.3229795"><ele>808.5</ele><time>2026-04-11T12:02:39.907Z</time></trkpt><trkpt lat="44.8222921" lon="9.3229782"><ele>814.0</ele><time>2026-04-11T12:02:40.907Z</time></trkpt><trkpt lat="44.8221496" lon="9.3229523"><ele>819.5</ele><time>2026-04-11T12:02:41.907Z</time></trkpt><trkpt lat="44.8220093" lon="9.3228974"><ele>825.0</ele><time>2026-04-11T12:02:42.907Z</time></trkpt><trkpt lat="44.8218906" lon="9.3228694"><ele>830.0</ele><time>2026-04-11T12:02:43.906Z</time></trkpt><trkpt lat="44.8217829" lon="9.3228495"><ele>835.0</ele><time>2026-04-11T12:02:44.907Z</time></trkpt><trkpt lat="44.8216784" lon="9.3228514"><ele>840.0</ele><time>2026-04-11T12:02:45.907Z</time></trkpt><trkpt lat="44.8215659" lon="9.3228905"><ele>845.0</ele><time>2026-04-11T12:02:46.907Z</time></trkpt><trkpt lat="44.8214554" lon="9.3229672"><ele>845.0</ele><time>2026-04-11T12:02:47.907Z</time></trkpt><trkpt lat="44.821338" lon="9.3230635"><ele>845.0</ele><time>2026-04-11T12:02:48.907Z</time></trkpt><trkpt lat="44.8212215" lon="9.3231646"><ele>845.0</ele><time>2026-04-11T12:02:49.907Z</time></trkpt><trkpt lat="44.821106" lon="9.3232667"><ele>845.0</ele><time>2026-04-11T12:02:50.907Z</time></trkpt><trkpt lat="44.8209814" lon="9.3233605"><ele>843.75</ele><time>2026-04-11T12:02:51.907Z</time></trkpt><trkpt lat="44.8208606" lon="9.323452"><ele>842.5</ele><time>2026-04-11T12:02:52.907Z</time></trkpt><trkpt lat="44.8207481" lon="9.3235393"><ele>841.25</ele><time>2026-04-11T12:02:53.907Z</time></trkpt><trkpt lat="44.8206375" lon="9.3236127"><ele>840.0</ele><time>2026-04-11T12:02:54.906Z</time></trkpt><trkpt lat="44.8205294" lon="9.3236687"><ele>840.0</ele><time>2026-04-11T12:02:55.906Z</time></trkpt><trkpt lat="44.8204054" lon="9.3236881"><ele>840.0</ele><time>2026-04-11T12:02:56.906Z</time></trkpt><trkpt lat="44.8202752" lon="9.323687"><ele>840.0</ele><time>2026-04-11T12:02:57.907Z</time></trkpt><trkpt lat="44.820143" lon="9.3236602"><ele>840.0</ele><time>2026-04-11T12:02:58.907Z</time></trkpt><trkpt lat="44.8200254" lon="9.3236398"><ele>841.2</ele><time>2026-04-11T12:02:59.907Z</time></trkpt><trkpt lat="44.8199131" lon="9.3235943"><ele>842.4</ele><time>2026-04-11T12:03:00.907Z</time></trkpt><trkpt lat="44.8198083" lon="9.3235175"><ele>843.5999999999999</ele><time>2026-04-11T12:03:01.907Z</time></trkpt><trkpt lat="44.8196954" lon="9.323425"><ele>844.8</ele><time>2026-04-11T12:03:02.906Z</time></trkpt><trkpt lat="44.8196401" lon="9.3233518"><ele>846.0</ele><time>2026-04-11T12:03:03.906Z</time></trkpt><trkpt lat="44.8196044" lon="9.3232001"><ele>845.75</ele><time>2026-04-11T12:03:04.906Z</time></trkpt><trkpt lat="44.8195925" lon="9.3230369"><ele>845.5</ele><time>2026-04-11T12:03:05.907Z</time></trkpt><trkpt lat="44.8196004" lon="9.3228579"><ele>845.25</ele><time>2026-04-11T12:03:06.907Z</time></trkpt><trkpt lat="44.8196492" lon="9.3226692"><ele>845.0</ele><time>2026-04-11T12:03:07.907Z</time></trkpt><trkpt lat="44.818826" lon="9.3233998"><ele>845.0</ele><time>2026-04-11T12:03:08.907Z</time></trkpt><trkpt lat="44.818674" lon="9.3234788"><ele>845.0</ele><time>2026-04-11T12:03:09.907Z</time></trkpt><trkpt lat="44.8185185" lon="9.3235724"><ele>845.0</ele><time>2026-04-11T12:03:10.906Z</time></trkpt><trkpt lat="44.818366" lon="9.3236685"><ele>842.6666666666667</ele><time>2026-04-11T12:03:11.906Z</time></trkpt><trkpt lat="44.8182039" lon="9.32377"><ele>840.3333333333333</ele><time>2026-04-11T12:03:12.907Z</time></trkpt><trkpt lat="44.8180393" lon="9.3238707"><ele>838.0</ele><time>2026-04-11T12:03:13.907Z</time></trkpt><trkpt lat="44.8178862" lon="9.3239698"><ele>838.0</ele><time>2026-04-11T12:03:14.907Z</time></trkpt><trkpt lat="44.817754" lon="9.32406"><ele>838.0</ele><time>2026-04-11T12:03:15.906Z</time></trkpt><trkpt lat="44.8176434" lon="9.3241643"><ele>838.0</ele><time>2026-04-11T12:03:16.906Z</time></trkpt><trkpt lat="44.8175558" lon="9.3242955"><ele>838.0</ele><time>2026-04-11T12:03:17.907Z</time></trkpt><trkpt lat="44.8174872" lon="9.32445"><ele>839.0</ele><time>2026-04-11T12:03:18.907Z</time></trkpt><trkpt lat="44.8174318" lon="9.3246219"><ele>840.0</ele><time>2026-04-11T12:03:19.907Z</time></trkpt><trkpt lat="44.8173637" lon="9.3247796"><ele>841.0</ele><time>2026-04-11T12:03:20.908Z</time></trkpt><trkpt lat="44.8172702" lon="9.3249267"><ele>842.0</ele><time>2026-04-11T12:03:21.908Z</time></trkpt><trkpt lat="44.8171576" lon="9.3250634"><ele>842.0</ele><time>2026-04-11T12:03:22.908Z</time></trkpt><trkpt lat="44.8170412" lon="9.3251879"><ele>842.0</ele><time>2026-04-11T12:03:23.908Z</time></trkpt><trkpt lat="44.8169151" lon="9.3252868"><ele>842.0</ele><time>2026-04-11T12:03:24.908Z</time></trkpt><trkpt lat="44.8168038" lon="9.3253502"><ele>842.0</ele><time>2026-04-11T12:03:25.908Z</time></trkpt><trkpt lat="44.8167008" lon="9.3253944"><ele>846.8</ele><time>2026-04-11T12:03:26.908Z</time></trkpt><trkpt lat="44.8166019" lon="9.3254206"><ele>851.6</ele><time>2026-04-11T12:03:27.907Z</time></trkpt><trkpt lat="44.8165058" lon="9.3254055"><ele>856.3999999999999</ele><time>2026-04-11T12:03:28.908Z</time></trkpt><trkpt lat="44.8164144" lon="9.3253358"><ele>861.1999999999999</ele><time>2026-04-11T12:03:29.908Z</time></trkpt><trkpt lat="44.8163115" lon="9.3252362"><ele>866.0</ele><time>2026-04-11T12:03:30.908Z</time></trkpt><trkpt lat="44.8161891" lon="9.325181"><ele>866.0</ele><time>2026-04-11T12:03:31.908Z</time></trkpt><trkpt lat="44.8160519" lon="9.3251499"><ele>866.0</ele><time>2026-04-11T12:03:32.908Z</time></trkpt><trkpt lat="44.8159159" lon="9.3251057"><ele>866.0</ele><time>2026-04-11T12:03:33.908Z</time></trkpt><trkpt lat="44.8157766" lon="9.3250156"><ele>866.0</ele><time>2026-04-11T12:03:34.908Z</time></trkpt><trkpt lat="44.8156289" lon="9.3249146"><ele>868.0</ele><time>2026-04-11T12:03:35.908Z</time></trkpt><trkpt lat="44.8154698" lon="9.3248101"><ele>870.0</ele><time>2026-04-11T12:03:36.908Z</time></trkpt><trkpt lat="44.8153162" lon="9.3246999"><ele>872.0</ele><time>2026-04-11T12:03:37.908Z</time></trkpt><trkpt lat="44.8151763" lon="9.3245839"><ele>879.0</ele><time>2026-04-11T12:03:38.908Z</time></trkpt><trkpt lat="44.815043" lon="9.3244791"><ele>886.0</ele><time>2026-04-11T12:03:39.908Z</time></trkpt><trkpt lat="44.8149034" lon="9.3244183"><ele>893.0</ele><time>2026-04-11T12:03:40.908Z</time></trkpt><trkpt lat="44.8147519" lon="9.3243663"><ele>893.0</ele><time>2026-04-11T12:03:41.908Z</time></trkpt><trkpt lat="44.814608" lon="9.3243383"><ele>893.0</ele><time>2026-04-11T12:03:42.908Z</time></trkpt><trkpt lat="44.8144891" lon="9.3243385"><ele>893.0</ele><time>2026-04-11T12:03:43.908Z</time></trkpt><trkpt lat="44.8143787" lon="9.3243689"><ele>893.0</ele><time>2026-04-11T12:03:44.908Z</time></trkpt><trkpt lat="44.814275" lon="9.3244375"><ele>894.75</ele><time>2026-04-11T12:03:45.908Z</time></trkpt><trkpt lat="44.8141696" lon="9.3245493"><ele>896.5</ele><time>2026-04-11T12:03:46.907Z</time></trkpt><trkpt lat="44.814063" lon="9.3246545"><ele>898.25</ele><time>2026-04-11T12:03:47.907Z</time></trkpt><trkpt lat="44.8139494" lon="9.3247054"><ele>900.0</ele><time>2026-04-11T12:03:48.908Z</time></trkpt><trkpt lat="44.8138409" lon="9.3247627"><ele>897.75</ele><time>2026-04-11T12:03:49.907Z</time></trkpt><trkpt lat="44.8137433" lon="9.3248367"><ele>895.5</ele><time>2026-04-11T12:03:50.908Z</time></trkpt><trkpt lat="44.8136537" lon="9.3249149"><ele>893.25</ele><time>2026-04-11T12:03:51.907Z</time></trkpt><trkpt lat="44.8135357" lon="9.3249568"><ele>891.0</ele><time>2026-04-11T12:03:52.908Z</time></trkpt><trkpt lat="44.8134056" lon="9.324976"><ele>891.0</ele><time>2026-04-11T12:03:53.908Z</time></trkpt><trkpt lat="44.8132965" lon="9.3250173"><ele>890.9999999999999</ele><time>2026-04-11T12:03:54.907Z</time></trkpt><trkpt lat="44.8131985" lon="9.3250939"><ele>890.9999999999999</ele><time>2026-04-11T12:03:55.908Z</time></trkpt><trkpt lat="44.8131183" lon="9.3252017"><ele>891.0</ele><time>2026-04-11T12:03:56.908Z</time></trkpt><trkpt lat="44.8130526" lon="9.3253113"><ele>891.0</ele><time>2026-04-11T12:03:57.908Z</time></trkpt><trkpt lat="44.8129933" lon="9.3253867"><ele>891.0</ele><time>2026-04-11T12:03:58.908Z</time></trkpt><trkpt lat="44.8129229" lon="9.3254442"><ele>890.9999999999999</ele><time>2026-04-11T12:03:59.908Z</time></trkpt><trkpt lat="44.81284" lon="9.325458"><ele>890.9999999999999</ele><time>2026-04-11T12:04:00.908Z</time></trkpt><trkpt lat="44.8127103" lon="9.3254353"><ele>891.0</ele><time>2026-04-11T12:04:01.907Z</time></trkpt><trkpt lat="44.8125649" lon="9.3254208"><ele>891.0</ele><time>2026-04-11T12:04:02.908Z</time></trkpt><trkpt lat="44.8124233" lon="9.32542"><ele>894.1999999999999</ele><time>2026-04-11T12:04:03.908Z</time></trkpt><trkpt lat="44.8123083" lon="9.3254387"><ele>897.3999999999999</ele><time>2026-04-11T12:04:04.908Z</time></trkpt><trkpt lat="44.8122163" lon="9.3254643"><ele>900.6</ele><time>2026-04-11T12:04:05.907Z</time></trkpt><trkpt lat="44.812143" lon="9.3254832"><ele>903.8</ele><time>2026-04-11T12:04:06.908Z</time></trkpt><trkpt lat="44.8120648" lon="9.3253698"><ele>907.0</ele><time>2026-04-11T12:04:08.908Z</time></trkpt><trkpt lat="44.8120698" lon="9.3252794"><ele>907.0</ele><time>2026-04-11T12:04:09.909Z</time></trkpt><trkpt lat="44.8122115" lon="9.3251839"><ele>907.0</ele><time>2026-04-11T12:04:11.908Z</time></trkpt><trkpt lat="44.8123281" lon="9.3251646"><ele>907.0</ele><time>2026-04-11T12:04:12.909Z</time></trkpt><trkpt lat="44.8124373" lon="9.3251313"><ele>907.0</ele><time>2026-04-11T12:04:13.909Z</time></trkpt><trkpt lat="44.812545" lon="9.325085"><ele>907.0</ele><time>2026-04-11T12:04:14.909Z</time></trkpt><trkpt lat="44.8126267" lon="9.3250032"><ele>907.0</ele><time>2026-04-11T12:04:15.909Z</time></trkpt><trkpt lat="44.8126789" lon="9.3248798"><ele>907.0</ele><time>2026-04-11T12:04:16.909Z</time></trkpt><trkpt lat="44.8127126" lon="9.324741"><ele>907.0</ele><time>2026-04-11T12:04:17.909Z</time></trkpt><trkpt lat="44.8127644" lon="9.3246235"><ele>907.0</ele><time>2026-04-11T12:04:18.909Z</time></trkpt><trkpt lat="44.8128386" lon="9.3245425"><ele>907.4999999999999</ele><time>2026-04-11T12:04:19.909Z</time></trkpt><trkpt lat="44.8129317" lon="9.3244995"><ele>908.0</ele><time>2026-04-11T12:04:20.909Z</time></trkpt><trkpt lat="44.8130147" lon="9.3244551"><ele>908.5</ele><time>2026-04-11T12:04:21.909Z</time></trkpt><trkpt lat="44.8130552" lon="9.3243801"><ele>909.0</ele><time>2026-04-11T12:04:22.909Z</time></trkpt><trkpt lat="44.8130632" lon="9.3242696"><ele>909.4999999999999</ele><time>2026-04-11T12:04:23.909Z</time></trkpt><trkpt lat="44.8130296" lon="9.3241852"><ele>910.0</ele><time>2026-04-11T12:04:24.909Z</time></trkpt><trkpt lat="44.8129671" lon="9.3241513"><ele>910.0</ele><time>2026-04-11T12:04:25.909Z</time></trkpt><trkpt lat="44.8128787" lon="9.3241775"><ele>910.0</ele><time>2026-04-11T12:04:26.909Z</time></trkpt><trkpt lat="44.8127827" lon="9.3242335"><ele>910.0</ele><time>2026-04-11T12:04:27.909Z</time></trkpt><trkpt lat="44.8126834" lon="9.3242916"><ele>910.0</ele><time>2026-04-11T12:04:28.908Z</time></trkpt><trkpt lat="44.8125575" lon="9.3243399"><ele>910.0</ele><time>2026-04-11T12:04:29.909Z</time></trkpt><trkpt lat="44.812432" lon="9.3243801"><ele>915.0</ele><time>2026-04-11T12:04:30.909Z</time></trkpt><trkpt lat="44.8123004" lon="9.324433"><ele>920.0</ele><time>2026-04-11T12:04:31.909Z</time></trkpt><trkpt lat="44.8121693" lon="9.3244919"><ele>925.0</ele><time>2026-04-11T12:04:32.909Z</time></trkpt><trkpt lat="44.8120495" lon="9.3245451"><ele>930.0</ele><time>2026-04-11T12:04:33.909Z</time></trkpt><trkpt lat="44.8119321" lon="9.3245628"><ele>932.5</ele><time>2026-04-11T12:04:34.908Z</time></trkpt><trkpt lat="44.8118104" lon="9.3245472"><ele>935.0</ele><time>2026-04-11T12:04:35.909Z</time></trkpt><trkpt lat="44.8116804" lon="9.3245174"><ele>937.5</ele><time>2026-04-11T12:04:36.909Z</time></trkpt><trkpt lat="44.8115622" lon="9.3244882"><ele>940.0</ele><time>2026-04-11T12:04:37.908Z</time></trkpt><trkpt lat="44.8114511" lon="9.3244831"><ele>940.0</ele><time>2026-04-11T12:04:38.909Z</time></trkpt><trkpt lat="44.8113568" lon="9.3245263"><ele>940.0</ele><time>2026-04-11T12:04:39.909Z</time></trkpt><trkpt lat="44.8112747" lon="9.3245614"><ele>940.0</ele><time>2026-04-11T12:04:40.908Z</time></trkpt><trkpt lat="44.8111876" lon="9.3245624"><ele>940.0</ele><time>2026-04-11T12:04:41.909Z</time></trkpt><trkpt lat="44.8111033" lon="9.3245291"><ele>940.0</ele><time>2026-04-11T12:04:42.909Z</time></trkpt><trkpt lat="44.8110052" lon="9.3244717"><ele>940.25</ele><time>2026-04-11T12:04:43.909Z</time></trkpt><trkpt lat="44.8108922" lon="9.324407"><ele>940.5</ele><time>2026-04-11T12:04:44.908Z</time></trkpt><trkpt lat="44.8107756" lon="9.3243409"><ele>940.75</ele><time>2026-04-11T12:04:45.909Z</time></trkpt><trkpt lat="44.8106554" lon="9.324279"><ele>941.0</ele><time>2026-04-11T12:04:46.909Z</time></trkpt><trkpt lat="44.8105327" lon="9.3242096"><ele>941.0</ele><time>2026-04-11T12:04:47.909Z</time></trkpt><trkpt lat="44.8104053" lon="9.3241427"><ele>941.0</ele><time>2026-04-11T12:04:48.909Z</time></trkpt><trkpt lat="44.8102744" lon="9.3240873"><ele>941.0</ele><time>2026-04-11T12:04:49.908Z</time></trkpt><trkpt lat="44.8101321" lon="9.3240434"><ele>941.0</ele><time>2026-04-11T12:04:50.909Z</time></trkpt><trkpt lat="44.8099814" lon="9.3240224"><ele>941.0</ele><time>2026-04-11T12:04:51.908Z</time></trkpt><trkpt lat="44.8098173" lon="9.3240199"><ele>941.0</ele><time>2026-04-11T12:04:52.909Z</time></trkpt><trkpt lat="44.8096529" lon="9.3240134"><ele>941.0</ele><time>2026-04-11T12:04:53.909Z</time></trkpt><trkpt lat="44.8094893" lon="9.3239997"><ele>941.0</ele><time>2026-04-11T12:04:54.909Z</time></trkpt><trkpt lat="44.8093402" lon="9.3239837"><ele>941.0</ele><time>2026-04-11T12:04:55.909Z</time></trkpt><trkpt lat="44.8092081" lon="9.3239702"><ele>941.0</ele><time>2026-04-11T12:04:56.909Z</time></trkpt><trkpt lat="44.8090926" lon="9.3239568"><ele>941.0</ele><time>2026-04-11T12:04:57.91Z</time></trkpt><trkpt lat="44.8089908" lon="9.3239444"><ele>942.0</ele><time>2026-04-11T12:04:58.909Z</time></trkpt><trkpt lat="44.8088903" lon="9.3239104"><ele>942.9999999999999</ele><time>2026-04-11T12:04:59.91Z</time></trkpt><trkpt lat="44.8088068" lon="9.3238428"><ele>943.9999999999999</ele><time>2026-04-11T12:05:00.909Z</time></trkpt><trkpt lat="44.8087242" lon="9.3237379"><ele>945.0</ele><time>2026-04-11T12:05:01.91Z</time></trkpt><trkpt lat="44.8086444" lon="9.3236329"><ele>946.0</ele><time>2026-04-11T12:05:02.91Z</time></trkpt><trkpt lat="44.8085456" lon="9.3235544"><ele>948.0</ele><time>2026-04-11T12:05:03.91Z</time></trkpt><trkpt lat="44.8084206" lon="9.3235182"><ele>950.0</ele><time>2026-04-11T12:05:04.91Z</time></trkpt><trkpt lat="44.8082828" lon="9.3235053"><ele>952.0</ele><time>2026-04-11T12:05:05.91Z</time></trkpt><trkpt lat="44.8081393" lon="9.3234911"><ele>954.0</ele><time>2026-04-11T12:05:06.91Z</time></trkpt><trkpt lat="44.8079996" lon="9.3234736"><ele>954.0</ele><time>2026-04-11T12:05:07.91Z</time></trkpt><trkpt lat="44.8078568" lon="9.3234509"><ele>954.0</ele><time>2026-04-11T12:05:08.91Z</time></trkpt><trkpt lat="44.8077052" lon="9.3234053"><ele>954.0</ele><time>2026-04-11T12:05:09.909Z</time></trkpt><trkpt lat="44.8075507" lon="9.3233352"><ele>954.5</ele><time>2026-04-11T12:05:10.91Z</time></trkpt><trkpt lat="44.8074026" lon="9.3232562"><ele>955.0</ele><time>2026-04-11T12:05:11.91Z</time></trkpt><trkpt lat="44.807263" lon="9.3231846"><ele>955.5</ele><time>2026-04-11T12:05:12.91Z</time></trkpt><trkpt lat="44.8071383" lon="9.3231247"><ele>956.0</ele><time>2026-04-11T12:05:13.91Z</time></trkpt><trkpt lat="44.8070234" lon="9.3230756"><ele>956.25</ele><time>2026-04-11T12:05:14.91Z</time></trkpt><trkpt lat="44.8069006" lon="9.3230592"><ele>956.5</ele><time>2026-04-11T12:05:15.91Z</time></trkpt><trkpt lat="44.8067816" lon="9.3230829"><ele>956.75</ele><time>2026-04-11T12:05:16.91Z</time></trkpt><trkpt lat="44.8066752" lon="9.3231352"><ele>957.0</ele><time>2026-04-11T12:05:17.91Z</time></trkpt><trkpt lat="44.8065882" lon="9.323202"><ele>957.0</ele><time>2026-04-11T12:05:18.91Z</time></trkpt><trkpt lat="44.8065189" lon="9.3232609"><ele>957.0</ele><time>2026-04-11T12:05:19.91Z</time></trkpt><trkpt lat="44.8064648" lon="9.3233128"><ele>957.0</ele><time>2026-04-11T12:05:20.91Z</time></trkpt><trkpt lat="44.8064033" lon="9.3233737"><ele>957.0</ele><time>2026-04-11T12:05:22.91Z</time></trkpt><trkpt lat="44.8063975" lon="9.3235175"><ele>957.0</ele><time>2026-04-11T12:07:31.913Z</time></trkpt><trkpt lat="44.8064177" lon="9.3236709"><ele>957.0</ele><time>2026-04-11T12:07:33.913Z</time></trkpt><trkpt lat="44.8063956" lon="9.323776"><ele>957.0</ele><time>2026-04-11T12:07:34.913Z</time></trkpt><trkpt lat="44.8063569" lon="9.3238967"><ele>957.0</ele><time>2026-04-11T12:07:35.913Z</time></trkpt><trkpt lat="44.8062958" lon="9.3240321"><ele>957.0</ele><time>2026-04-11T12:07:36.912Z</time></trkpt><trkpt lat="44.8062285" lon="9.3241625"><ele>957.0</ele><time>2026-04-11T12:07:37.913Z</time></trkpt><trkpt lat="44.80616" lon="9.3242815"><ele>957.0</ele><time>2026-04-11T12:07:38.913Z</time></trkpt><trkpt lat="44.8060924" lon="9.3243883"><ele>956.8333333333334</ele><time>2026-04-11T12:07:39.913Z</time></trkpt><trkpt lat="44.80602" lon="9.3244701"><ele>956.6666666666667</ele><time>2026-04-11T12:07:40.913Z</time></trkpt><trkpt lat="44.8059495" lon="9.3245204"><ele>956.5</ele><time>2026-04-11T12:07:41.913Z</time></trkpt><trkpt lat="44.80587" lon="9.3245228"><ele>956.3333333333334</ele><time>2026-04-11T12:07:42.912Z</time></trkpt><trkpt lat="44.8058071" lon="9.3244822"><ele>956.1666666666667</ele><time>2026-04-11T12:07:43.912Z</time></trkpt><trkpt lat="44.8057409" lon="9.32441"><ele>956.0</ele><time>2026-04-11T12:07:44.913Z</time></trkpt><trkpt lat="44.8056717" lon="9.3243459"><ele>956.0</ele><time>2026-04-11T12:07:45.913Z</time></trkpt><trkpt lat="44.8055982" lon="9.324323"><ele>955.9999999999999</ele><time>2026-04-11T12:07:46.913Z</time></trkpt><trkpt lat="44.8055248" lon="9.3243462"><ele>955.9999999999999</ele><time>2026-04-11T12:07:47.913Z</time></trkpt><trkpt lat="44.8054566" lon="9.3244394"><ele>956.0</ele><time>2026-04-11T12:07:48.913Z</time></trkpt><trkpt lat="44.8054101" lon="9.3245719"><ele>956.0</ele><time>2026-04-11T12:07:49.913Z</time></trkpt><trkpt lat="44.8053737" lon="9.3247167"><ele>956.75</ele><time>2026-04-11T12:07:50.913Z</time></trkpt><trkpt lat="44.8053422" lon="9.3248717"><ele>957.5</ele><time>2026-04-11T12:07:51.913Z</time></trkpt><trkpt lat="44.8052945" lon="9.3250293"><ele>958.25</ele><time>2026-04-11T12:07:52.913Z</time></trkpt><trkpt lat="44.8052298" lon="9.3251896"><ele>959.0</ele><time>2026-04-11T12:07:53.913Z</time></trkpt><trkpt lat="44.8051499" lon="9.3253595"><ele>959.0</ele><time>2026-04-11T12:07:54.913Z</time></trkpt><trkpt lat="44.8050601" lon="9.3255301"><ele>959.0</ele><time>2026-04-11T12:07:55.913Z</time></trkpt><trkpt lat="44.804965" lon="9.3256884"><ele>959.0</ele><time>2026-04-11T12:07:56.913Z</time></trkpt><trkpt lat="44.8048535" lon="9.3258427"><ele>957.75</ele><time>2026-04-11T12:07:57.913Z</time></trkpt><trkpt lat="44.8047378" lon="9.3259935"><ele>956.5</ele><time>2026-04-11T12:07:58.913Z</time></trkpt><trkpt lat="44.8046262" lon="9.3261298"><ele>955.25</ele><time>2026-04-11T12:07:59.913Z</time></trkpt><trkpt lat="44.8045284" lon="9.3262464"><ele>954.0</ele><time>2026-04-11T12:08:00.913Z</time></trkpt><trkpt lat="44.8044377" lon="9.3263592"><ele>953.25</ele><time>2026-04-11T12:08:01.913Z</time></trkpt><trkpt lat="44.8043589" lon="9.3264786"><ele>952.5</ele><time>2026-04-11T12:08:02.912Z</time></trkpt><trkpt lat="44.8043048" lon="9.3266166"><ele>951.75</ele><time>2026-04-11T12:08:03.913Z</time></trkpt><trkpt lat="44.804264" lon="9.3267871"><ele>951.0</ele><time>2026-04-11T12:08:04.913Z</time></trkpt><trkpt lat="44.8042486" lon="9.3269876"><ele>956.3333333333333</ele><time>2026-04-11T12:08:05.913Z</time></trkpt><trkpt lat="44.8042386" lon="9.3272005"><ele>961.6666666666666</ele><time>2026-04-11T12:08:06.912Z</time></trkpt><trkpt lat="44.8042236" lon="9.3274177"><ele>967.0</ele><time>2026-04-11T12:08:07.912Z</time></trkpt><trkpt lat="44.8042046" lon="9.3276485"><ele>966.6666666666666</ele><time>2026-04-11T12:08:08.913Z</time></trkpt><trkpt lat="44.8041839" lon="9.3278918"><ele>966.3333333333333</ele><time>2026-04-11T12:08:09.913Z</time></trkpt><trkpt lat="44.804167" lon="9.328123"><ele>966.0</ele><time>2026-04-11T12:08:10.913Z</time></trkpt><trkpt lat="44.8041578" lon="9.3283403"><ele>966.0</ele><time>2026-04-11T12:08:11.913Z</time></trkpt><trkpt lat="44.8041503" lon="9.3285579"><ele>966.0</ele><time>2026-04-11T12:08:12.913Z</time></trkpt><trkpt lat="44.8041619" lon="9.3287802"><ele>966.0</ele><time>2026-04-11T12:08:13.913Z</time></trkpt><trkpt lat="44.8041961" lon="9.3290148"><ele>965.3333333333333</ele><time>2026-04-11T12:08:14.914Z</time></trkpt><trkpt lat="44.8042462" lon="9.3292529"><ele>964.6666666666666</ele><time>2026-04-11T12:08:15.914Z</time></trkpt><trkpt lat="44.8042953" lon="9.329486"><ele>964.0</ele><time>2026-04-11T12:08:16.913Z</time></trkpt><trkpt lat="44.8043367" lon="9.3296995"><ele>961.25</ele><time>2026-04-11T12:08:17.914Z</time></trkpt><trkpt lat="44.8043751" lon="9.3298885"><ele>958.5</ele><time>2026-04-11T12:08:18.914Z</time></trkpt><trkpt lat="44.8044222" lon="9.3300503"><ele>955.75</ele><time>2026-04-11T12:08:19.914Z</time></trkpt><trkpt lat="44.8044925" lon="9.3302027"><ele>953.0</ele><time>2026-04-11T12:08:20.914Z</time></trkpt><trkpt lat="44.8045859" lon="9.3303454"><ele>953.0</ele><time>2026-04-11T12:08:21.914Z</time></trkpt><trkpt lat="44.8046841" lon="9.3305013"><ele>953.0</ele><time>2026-04-11T12:08:22.913Z</time></trkpt><trkpt lat="44.8047807" lon="9.330665"><ele>953.0</ele><time>2026-04-11T12:08:23.913Z</time></trkpt><trkpt lat="44.8048641" lon="9.3308151"><ele>953.0</ele><time>2026-04-11T12:08:24.914Z</time></trkpt><trkpt lat="44.8049488" lon="9.3309447"><ele>954.25</ele><time>2026-04-11T12:08:25.914Z</time></trkpt><trkpt lat="44.8050506" lon="9.3310323"><ele>955.5</ele><time>2026-04-11T12:08:26.913Z</time></trkpt><trkpt lat="44.8051553" lon="9.3310937"><ele>956.75</ele><time>2026-04-11T12:08:27.914Z</time></trkpt><trkpt lat="44.8052772" lon="9.3311567"><ele>958.0</ele><time>2026-04-11T12:08:28.913Z</time></trkpt><trkpt lat="44.8053792" lon="9.3311849"><ele>955.5999999999999</ele><time>2026-04-11T12:08:29.914Z</time></trkpt><trkpt lat="44.8054598" lon="9.3312286"><ele>953.1999999999999</ele><time>2026-04-11T12:08:30.914Z</time></trkpt><trkpt lat="44.8055258" lon="9.3313145"><ele>950.8</ele><time>2026-04-11T12:08:31.914Z</time></trkpt><trkpt lat="44.8055655" lon="9.3314319"><ele>948.4</ele><time>2026-04-11T12:08:32.914Z</time></trkpt><trkpt lat="44.8055847" lon="9.3315916"><ele>946.0</ele><time>2026-04-11T12:08:33.914Z</time></trkpt><trkpt lat="44.8055953" lon="9.3317688"><ele>946.0</ele><time>2026-04-11T12:08:34.913Z</time></trkpt><trkpt lat="44.8056096" lon="9.3319414"><ele>946.0</ele><time>2026-04-11T12:08:35.914Z</time></trkpt><trkpt lat="44.8056166" lon="9.332099"><ele>946.0</ele><time>2026-04-11T12:08:36.913Z</time></trkpt><trkpt lat="44.8056004" lon="9.3322464"><ele>946.0</ele><time>2026-04-11T12:08:37.914Z</time></trkpt><trkpt lat="44.8055583" lon="9.3323929"><ele>946.4</ele><time>2026-04-11T12:08:38.914Z</time></trkpt><trkpt lat="44.8054859" lon="9.3325311"><ele>946.8</ele><time>2026-04-11T12:08:39.913Z</time></trkpt><trkpt lat="44.8054181" lon="9.3326599"><ele>947.1999999999999</ele><time>2026-04-11T12:08:40.913Z</time></trkpt><trkpt lat="44.8053724" lon="9.3328034"><ele>947.5999999999999</ele><time>2026-04-11T12:08:41.914Z</time></trkpt><trkpt lat="44.8053667" lon="9.3329344"><ele>948.0</ele><time>2026-04-11T12:08:42.914Z</time></trkpt><trkpt lat="44.8054033" lon="9.3330748"><ele>948.5</ele><time>2026-04-11T12:08:43.914Z</time></trkpt><trkpt lat="44.8054797" lon="9.3331797"><ele>949.0</ele><time>2026-04-11T12:08:44.914Z</time></trkpt><trkpt lat="44.8055777" lon="9.3332715"><ele>949.5</ele><time>2026-04-11T12:08:45.914Z</time></trkpt><trkpt lat="44.8056822" lon="9.3333641"><ele>950.0</ele><time>2026-04-11T12:08:46.913Z</time></trkpt><trkpt lat="44.805791" lon="9.3334561"><ele>950.0</ele><time>2026-04-11T12:08:47.913Z</time></trkpt><trkpt lat="44.8058901" lon="9.3335562"><ele>950.0</ele><time>2026-04-11T12:08:48.914Z</time></trkpt><trkpt lat="44.8059668" lon="9.3336627"><ele>950.0</ele><time>2026-04-11T12:08:49.914Z</time></trkpt><trkpt lat="44.8060171" lon="9.3337858"><ele>950.0</ele><time>2026-04-11T12:08:50.914Z</time></trkpt><trkpt lat="44.8060355" lon="9.3339306"><ele>950.0</ele><time>2026-04-11T12:08:51.913Z</time></trkpt><trkpt lat="44.8060431" lon="9.3340971"><ele>949.5</ele><time>2026-04-11T12:08:52.914Z</time></trkpt><trkpt lat="44.8060768" lon="9.3342685"><ele>949.0</ele><time>2026-04-11T12:08:53.914Z</time></trkpt><trkpt lat="44.806135" lon="9.334419"><ele>948.5</ele><time>2026-04-11T12:08:54.913Z</time></trkpt><trkpt lat="44.8062147" lon="9.3345587"><ele>948.0</ele><time>2026-04-11T12:08:55.914Z</time></trkpt><trkpt lat="44.8063181" lon="9.3346726"><ele>950.0</ele><time>2026-04-11T12:08:56.913Z</time></trkpt><trkpt lat="44.8064269" lon="9.3347418"><ele>952.0</ele><time>2026-04-11T12:08:57.914Z</time></trkpt><trkpt lat="44.8065328" lon="9.3347915"><ele>954.0</ele><time>2026-04-11T12:08:58.913Z</time></trkpt><trkpt lat="44.8066226" lon="9.3348503"><ele>956.0</ele><time>2026-04-11T12:08:59.914Z</time></trkpt><trkpt lat="44.8066898" lon="9.334936"><ele>958.0</ele><time>2026-04-11T12:09:00.914Z</time></trkpt><trkpt lat="44.8067227" lon="9.3350566"><ele>958.0</ele><time>2026-04-11T12:09:01.914Z</time></trkpt><trkpt lat="44.806717" lon="9.335177"><ele>958.0</ele><time>2026-04-11T12:09:02.914Z</time></trkpt><trkpt lat="44.8066837" lon="9.3353061"><ele>958.0</ele><time>2026-04-11T12:09:03.915Z</time></trkpt><trkpt lat="44.8066312" lon="9.3354587"><ele>958.0</ele><time>2026-04-11T12:09:04.915Z</time></trkpt><trkpt lat="44.8065776" lon="9.3356414"><ele>958.0</ele><time>2026-04-11T12:09:05.915Z</time></trkpt><trkpt lat="44.806518" lon="9.3358345"><ele>958.5</ele><time>2026-04-11T12:09:06.915Z</time></trkpt><trkpt lat="44.8064582" lon="9.3360311"><ele>959.0</ele><time>2026-04-11T12:09:07.915Z</time></trkpt><trkpt lat="44.8064016" lon="9.3362144"><ele>959.5</ele><time>2026-04-11T12:09:08.915Z</time></trkpt><trkpt lat="44.8063536" lon="9.3363716"><ele>960.0</ele><time>2026-04-11T12:09:09.915Z</time></trkpt><trkpt lat="44.8063242" lon="9.3365092"><ele>960.0</ele><time>2026-04-11T12:09:10.915Z</time></trkpt><trkpt lat="44.8063155" lon="9.3366563"><ele>960.0</ele><time>2026-04-11T12:09:11.915Z</time></trkpt><trkpt lat="44.8063407" lon="9.3368039"><ele>960.0</ele><time>2026-04-11T12:09:12.915Z</time></trkpt><trkpt lat="44.8064135" lon="9.3369417"><ele>960.0</ele><time>2026-04-11T12:09:13.915Z</time></trkpt><trkpt lat="44.8065064" lon="9.3370538"><ele>960.0</ele><time>2026-04-11T12:09:14.915Z</time></trkpt><trkpt lat="44.8066069" lon="9.3371516"><ele>960.0</ele><time>2026-04-11T12:09:15.915Z</time></trkpt><trkpt lat="44.806697" lon="9.3372365"><ele>960.0</ele><time>2026-04-11T12:09:16.915Z</time></trkpt><trkpt lat="44.8067937" lon="9.3373002"><ele>960.0</ele><time>2026-04-11T12:09:17.915Z</time></trkpt><trkpt lat="44.8069005" lon="9.3373404"><ele>960.0</ele><time>2026-04-11T12:09:18.915Z</time></trkpt><trkpt lat="44.8070133" lon="9.337352"><ele>961.8</ele><time>2026-04-11T12:09:19.914Z</time></trkpt><trkpt lat="44.8071243" lon="9.3373592"><ele>963.6</ele><time>2026-04-11T12:09:20.914Z</time></trkpt><trkpt lat="44.8072354" lon="9.3373768"><ele>965.4000000000001</ele><time>2026-04-11T12:09:21.915Z</time></trkpt><trkpt lat="44.8073417" lon="9.3374052"><ele>967.2</ele><time>2026-04-11T12:09:22.914Z</time></trkpt><trkpt lat="44.8074425" lon="9.337467"><ele>969.0</ele><time>2026-04-11T12:09:23.915Z</time></trkpt><trkpt lat="44.8075378" lon="9.337549"><ele>969.0</ele><time>2026-04-11T12:09:24.915Z</time></trkpt><trkpt lat="44.8076244" lon="9.3376466"><ele>969.0</ele><time>2026-04-11T12:09:25.915Z</time></trkpt><trkpt lat="44.8077092" lon="9.3377685"><ele>969.0</ele><time>2026-04-11T12:09:26.914Z</time></trkpt><trkpt lat="44.807802" lon="9.3378792"><ele>969.0</ele><time>2026-04-11T12:09:27.914Z</time></trkpt><trkpt lat="44.8078939" lon="9.3379891"><ele>968.2</ele><time>2026-04-11T12:09:28.914Z</time></trkpt><trkpt lat="44.8079713" lon="9.3381007"><ele>967.4000000000001</ele><time>2026-04-11T12:09:29.915Z</time></trkpt><trkpt lat="44.8080347" lon="9.3382304"><ele>966.6</ele><time>2026-04-11T12:09:30.915Z</time></trkpt><trkpt lat="44.8080733" lon="9.3383742"><ele>965.8</ele><time>2026-04-11T12:09:31.915Z</time></trkpt><trkpt lat="44.808094" lon="9.3385344"><ele>965.0</ele><time>2026-04-11T12:09:32.914Z</time></trkpt><trkpt lat="44.808108" lon="9.3386954"><ele>965.0</ele><time>2026-04-11T12:09:33.915Z</time></trkpt><trkpt lat="44.80812" lon="9.3388554"><ele>965.0</ele><time>2026-04-11T12:09:34.915Z</time></trkpt><trkpt lat="44.8081216" lon="9.3390279"><ele>965.0</ele><time>2026-04-11T12:09:35.915Z</time></trkpt><trkpt lat="44.8081091" lon="9.33918"><ele>965.0</ele><time>2026-04-11T12:09:36.915Z</time></trkpt><trkpt lat="44.8080905" lon="9.339303"><ele>965.0</ele><time>2026-04-11T12:09:37.915Z</time></trkpt><trkpt lat="44.8080572" lon="9.3394106"><ele>966.4</ele><time>2026-04-11T12:09:38.915Z</time></trkpt><trkpt lat="44.808011" lon="9.3394791"><ele>967.8</ele><time>2026-04-11T12:09:39.915Z</time></trkpt><trkpt lat="44.8078891" lon="9.3394938"><ele>969.2</ele><time>2026-04-11T12:09:41.914Z</time></trkpt><trkpt lat="44.8078211" lon="9.339428"><ele>970.6</ele><time>2026-04-11T12:09:42.915Z</time></trkpt><trkpt lat="44.8077567" lon="9.3393375"><ele>972.0</ele><time>2026-04-11T12:09:43.914Z</time></trkpt><trkpt lat="44.8076964" lon="9.3392096"><ele>974.6</ele><time>2026-04-11T12:09:44.915Z</time></trkpt><trkpt lat="44.807632" lon="9.3390808"><ele>977.2</ele><time>2026-04-11T12:09:45.915Z</time></trkpt><trkpt lat="44.8075629" lon="9.3389966"><ele>979.8</ele><time>2026-04-11T12:09:46.915Z</time></trkpt><trkpt lat="44.8074856" lon="9.3389436"><ele>982.4</ele><time>2026-04-11T12:09:47.915Z</time></trkpt><trkpt lat="44.8073906" lon="9.3389262"><ele>985.0</ele><time>2026-04-11T12:09:48.914Z</time></trkpt><trkpt lat="44.8072875" lon="9.3389426"><ele>985.0</ele><time>2026-04-11T12:09:49.915Z</time></trkpt><trkpt lat="44.8071894" lon="9.3389689"><ele>985.0</ele><time>2026-04-11T12:09:50.914Z</time></trkpt><trkpt lat="44.8070895" lon="9.3389984"><ele>985.0</ele><time>2026-04-11T12:09:51.916Z</time></trkpt><trkpt lat="44.8069812" lon="9.339034"><ele>985.0</ele><time>2026-04-11T12:09:52.916Z</time></trkpt><trkpt lat="44.8068782" lon="9.3390669"><ele>985.0</ele><time>2026-04-11T12:09:53.916Z</time></trkpt><trkpt lat="44.8067927" lon="9.339104"><ele>985.6666666666666</ele><time>2026-04-11T12:09:54.916Z</time></trkpt><trkpt lat="44.8067219" lon="9.3391661"><ele>986.3333333333333</ele><time>2026-04-11T12:09:55.916Z</time></trkpt><trkpt lat="44.8066678" lon="9.339252"><ele>987.0</ele><time>2026-04-11T12:09:56.916Z</time></trkpt><trkpt lat="44.8066419" lon="9.3393584"><ele>987.6666666666667</ele><time>2026-04-11T12:09:57.916Z</time></trkpt><trkpt lat="44.8066417" lon="9.3394862"><ele>988.3333333333334</ele><time>2026-04-11T12:09:58.916Z</time></trkpt><trkpt lat="44.8066726" lon="9.3396171"><ele>989.0</ele><time>2026-04-11T12:09:59.915Z</time></trkpt><trkpt lat="44.8067419" lon="9.3397167"><ele>992.0</ele><time>2026-04-11T12:10:00.916Z</time></trkpt><trkpt lat="44.8068362" lon="9.339799"><ele>995.0</ele><time>2026-04-11T12:10:01.915Z</time></trkpt><trkpt lat="44.8069471" lon="9.3398587"><ele>998.0</ele><time>2026-04-11T12:10:02.916Z</time></trkpt><trkpt lat="44.8070551" lon="9.3399198"><ele>1001.0</ele><time>2026-04-11T12:10:03.916Z</time></trkpt><trkpt lat="44.8071641" lon="9.3399782"><ele>1001.0</ele><time>2026-04-11T12:10:04.916Z</time></trkpt><trkpt lat="44.8072687" lon="9.3400436"><ele>1001.0</ele><time>2026-04-11T12:10:05.916Z</time></trkpt><trkpt lat="44.8073655" lon="9.3401248"><ele>1001.0</ele><time>2026-04-11T12:10:06.916Z</time></trkpt><trkpt lat="44.8074521" lon="9.3402273"><ele>1001.0</ele><time>2026-04-11T12:10:07.916Z</time></trkpt><trkpt lat="44.8075337" lon="9.3403331"><ele>1001.0</ele><time>2026-04-11T12:10:08.916Z</time></trkpt><trkpt lat="44.8076116" lon="9.3404499"><ele>1001.0</ele><time>2026-04-11T12:10:09.916Z</time></trkpt><trkpt lat="44.8076752" lon="9.3405827"><ele>1001.0</ele><time>2026-04-11T12:10:10.916Z</time></trkpt><trkpt lat="44.8077204" lon="9.340726"><ele>1001.0</ele><time>2026-04-11T12:10:11.916Z</time></trkpt><trkpt lat="44.807744" lon="9.3408825"><ele>997.75</ele><time>2026-04-11T12:10:12.916Z</time></trkpt><trkpt lat="44.8077479" lon="9.3410449"><ele>994.5</ele><time>2026-04-11T12:10:13.916Z</time></trkpt><trkpt lat="44.8077323" lon="9.3412146"><ele>991.25</ele><time>2026-04-11T12:10:14.916Z</time></trkpt><trkpt lat="44.8077006" lon="9.3413794"><ele>988.0</ele><time>2026-04-11T12:10:15.916Z</time></trkpt><trkpt lat="44.807673" lon="9.3415399"><ele>993.2</ele><time>2026-04-11T12:10:16.916Z</time></trkpt><trkpt lat="44.8076368" lon="9.3416946"><ele>998.4</ele><time>2026-04-11T12:10:17.916Z</time></trkpt><trkpt lat="44.8075862" lon="9.3418321"><ele>1003.6000000000001</ele><time>2026-04-11T12:10:18.916Z</time></trkpt><trkpt lat="44.8075096" lon="9.3419433"><ele>1008.8000000000001</ele><time>2026-04-11T12:10:19.915Z</time></trkpt><trkpt lat="44.8074145" lon="9.3420291"><ele>1014.0</ele><time>2026-04-11T12:10:20.916Z</time></trkpt><trkpt lat="44.807306" lon="9.3421006"><ele>1014.0</ele><time>2026-04-11T12:10:21.916Z</time></trkpt><trkpt lat="44.8071922" lon="9.3421604"><ele>1014.0</ele><time>2026-04-11T12:10:22.916Z</time></trkpt><trkpt lat="44.8070797" lon="9.3421881"><ele>1014.0</ele><time>2026-04-11T12:10:23.916Z</time></trkpt><trkpt lat="44.8069602" lon="9.3421714"><ele>1014.0</ele><time>2026-04-11T12:10:24.916Z</time></trkpt><trkpt lat="44.8068472" lon="9.3421074"><ele>1016.0</ele><time>2026-04-11T12:10:25.916Z</time></trkpt><trkpt lat="44.8067433" lon="9.3420234"><ele>1018.0</ele><time>2026-04-11T12:10:26.916Z</time></trkpt><trkpt lat="44.8066364" lon="9.3419343"><ele>1020.0</ele><time>2026-04-11T12:10:27.915Z</time></trkpt><trkpt lat="44.8065243" lon="9.3418254"><ele>1022.0</ele><time>2026-04-11T12:10:28.915Z</time></trkpt><trkpt lat="44.8064256" lon="9.3416977"><ele>1022.0</ele><time>2026-04-11T12:10:29.916Z</time></trkpt><trkpt lat="44.8063435" lon="9.3415691"><ele>1022.0</ele><time>2026-04-11T12:10:30.916Z</time></trkpt><trkpt lat="44.8062635" lon="9.3414678"><ele>1022.0</ele><time>2026-04-11T12:10:31.916Z</time></trkpt><trkpt lat="44.8061684" lon="9.3413992"><ele>1022.0</ele><time>2026-04-11T12:10:32.916Z</time></trkpt><trkpt lat="44.8060594" lon="9.3413671"><ele>1022.0</ele><time>2026-04-11T12:10:33.916Z</time></trkpt><trkpt lat="44.8059353" lon="9.3413663"><ele>1026.25</ele><time>2026-04-11T12:10:34.916Z</time></trkpt><trkpt lat="44.8058096" lon="9.3413842"><ele>1030.5</ele><time>2026-04-11T12:10:35.915Z</time></trkpt><trkpt lat="44.8056808" lon="9.341405"><ele>1034.75</ele><time>2026-04-11T12:10:36.915Z</time></trkpt><trkpt lat="44.8055534" lon="9.3414323"><ele>1039.0</ele><time>2026-04-11T12:10:37.916Z</time></trkpt><trkpt lat="44.8054274" lon="9.341467"><ele>1039.0</ele><time>2026-04-11T12:10:38.916Z</time></trkpt><trkpt lat="44.8053124" lon="9.3415219"><ele>1039.0</ele><time>2026-04-11T12:10:39.916Z</time></trkpt><trkpt lat="44.8052112" lon="9.3415996"><ele>1039.0</ele><time>2026-04-11T12:10:40.917Z</time></trkpt><trkpt lat="44.8051112" lon="9.3416754"><ele>1039.0</ele><time>2026-04-11T12:10:41.917Z</time></trkpt><trkpt lat="44.8050086" lon="9.3417473"><ele>1038.0</ele><time>2026-04-11T12:10:42.917Z</time></trkpt><trkpt lat="44.8049152" lon="9.3418189"><ele>1037.0</ele><time>2026-04-11T12:10:43.917Z</time></trkpt><trkpt lat="44.8048234" lon="9.3418885"><ele>1036.0</ele><time>2026-04-11T12:10:44.917Z</time></trkpt><trkpt lat="44.8047299" lon="9.341937"><ele>1035.0</ele><time>2026-04-11T12:10:45.917Z</time></trkpt><trkpt lat="44.80463" lon="9.3419633"><ele>1034.0</ele><time>2026-04-11T12:10:46.916Z</time></trkpt><trkpt lat="44.8045271" lon="9.3419592"><ele>1034.0</ele><time>2026-04-11T12:10:47.917Z</time></trkpt><trkpt lat="44.8044353" lon="9.341926"><ele>1034.0</ele><time>2026-04-11T12:10:48.917Z</time></trkpt><trkpt lat="44.8043621" lon="9.3418402"><ele>1034.0</ele><time>2026-04-11T12:10:49.917Z</time></trkpt><trkpt lat="44.8043196" lon="9.3417416"><ele>1034.0</ele><time>2026-04-11T12:10:50.916Z</time></trkpt><trkpt lat="44.8043259" lon="9.3416436"><ele>1034.0</ele><time>2026-04-11T12:10:51.917Z</time></trkpt><trkpt lat="44.8043384" lon="9.3415491"><ele>1034.0</ele><time>2026-04-11T12:10:52.917Z</time></trkpt><trkpt lat="44.8043292" lon="9.3413907"><ele>1033.0</ele><time>2026-04-11T12:10:54.917Z</time></trkpt><trkpt lat="44.8042765" lon="9.3413032"><ele>1032.0</ele><time>2026-04-11T12:10:58.917Z</time></trkpt><trkpt lat="44.8042595" lon="9.3412049"><ele>1031.0</ele><time>2026-04-11T12:11:00.917Z</time></trkpt><trkpt lat="44.8042769" lon="9.3410034"><ele>1030.0</ele><time>2026-04-11T12:11:02.917Z</time></trkpt><trkpt lat="44.8042824" lon="9.340886"><ele>1029.0</ele><time>2026-04-11T12:11:03.917Z</time></trkpt><trkpt lat="44.8042759" lon="9.3407613"><ele>1029.0</ele><time>2026-04-11T12:11:04.917Z</time></trkpt><trkpt lat="44.8042493" lon="9.3406424"><ele>1029.0</ele><time>2026-04-11T12:11:05.917Z</time></trkpt><trkpt lat="44.804197" lon="9.340527"><ele>1029.0</ele><time>2026-04-11T12:11:06.916Z</time></trkpt><trkpt lat="44.8041076" lon="9.3404326"><ele>1029.0</ele><time>2026-04-11T12:11:07.917Z</time></trkpt><trkpt lat="44.8039897" lon="9.3403735"><ele>1029.0</ele><time>2026-04-11T12:11:08.916Z</time></trkpt><trkpt lat="44.8038699" lon="9.3403201"><ele>1028.4</ele><time>2026-04-11T12:11:09.916Z</time></trkpt><trkpt lat="44.8037598" lon="9.3402679"><ele>1027.8000000000002</ele><time>2026-04-11T12:11:10.917Z</time></trkpt><trkpt lat="44.803664" lon="9.3402118"><ele>1027.1999999999998</ele><time>2026-04-11T12:11:11.917Z</time></trkpt><trkpt lat="44.803582" lon="9.3401394"><ele>1026.6</ele><time>2026-04-11T12:11:12.917Z</time></trkpt><trkpt lat="44.8035179" lon="9.3400409"><ele>1026.0</ele><time>2026-04-11T12:11:13.917Z</time></trkpt><trkpt lat="44.8034886" lon="9.339928"><ele>1026.0</ele><time>2026-04-11T12:11:14.917Z</time></trkpt><trkpt lat="44.803483" lon="9.3397816"><ele>1026.0</ele><time>2026-04-11T12:11:15.916Z</time></trkpt><trkpt lat="44.8035081" lon="9.3396333"><ele>1026.0</ele><time>2026-04-11T12:11:16.916Z</time></trkpt><trkpt lat="44.8035527" lon="9.3394882"><ele>1026.0</ele><time>2026-04-11T12:11:17.916Z</time></trkpt><trkpt lat="44.8036097" lon="9.3393414"><ele>1026.0</ele><time>2026-04-11T12:11:18.916Z</time></trkpt><trkpt lat="44.8036673" lon="9.3391812"><ele>1027.5</ele><time>2026-04-11T12:11:19.917Z</time></trkpt><trkpt lat="44.8037192" lon="9.339019"><ele>1029.0</ele><time>2026-04-11T12:11:20.917Z</time></trkpt><trkpt lat="44.8037727" lon="9.3388562"><ele>1030.5</ele><time>2026-04-11T12:11:21.917Z</time></trkpt><trkpt lat="44.8038257" lon="9.3386988"><ele>1032.0</ele><time>2026-04-11T12:11:22.917Z</time></trkpt><trkpt lat="44.8038585" lon="9.3385487"><ele>1032.0</ele><time>2026-04-11T12:11:23.916Z</time></trkpt><trkpt lat="44.8038738" lon="9.3383842"><ele>1032.0</ele><time>2026-04-11T12:11:24.916Z</time></trkpt><trkpt lat="44.8038643" lon="9.3382202"><ele>1032.0</ele><time>2026-04-11T12:11:25.917Z</time></trkpt><trkpt lat="44.8038263" lon="9.3380524"><ele>1032.0</ele><time>2026-04-11T12:11:26.917Z</time></trkpt><trkpt lat="44.803759" lon="9.3378934"><ele>1035.5</ele><time>2026-04-11T12:11:27.917Z</time></trkpt><trkpt lat="44.803671" lon="9.3377557"><ele>1039.0</ele><time>2026-04-11T12:11:28.917Z</time></trkpt><trkpt lat="44.8035654" lon="9.337629"><ele>1042.5</ele><time>2026-04-11T12:11:29.918Z</time></trkpt><trkpt lat="44.8034601" lon="9.3375069"><ele>1046.0</ele><time>2026-04-11T12:11:30.918Z</time></trkpt><trkpt lat="44.8033561" lon="9.3373826"><ele>1046.0</ele><time>2026-04-11T12:11:31.918Z</time></trkpt><trkpt lat="44.8032496" lon="9.3372632"><ele>1046.0</ele><time>2026-04-11T12:11:32.918Z</time></trkpt><trkpt lat="44.8031427" lon="9.3371418"><ele>1046.0</ele><time>2026-04-11T12:11:33.917Z</time></trkpt><trkpt lat="44.8030387" lon="9.3370231"><ele>1046.0</ele><time>2026-04-11T12:11:34.918Z</time></trkpt><trkpt lat="44.8029348" lon="9.3369078"><ele>1046.25</ele><time>2026-04-11T12:11:35.918Z</time></trkpt><trkpt lat="44.8028305" lon="9.3367945"><ele>1046.5</ele><time>2026-04-11T12:11:36.917Z</time></trkpt><trkpt lat="44.8027305" lon="9.3366655"><ele>1046.75</ele><time>2026-04-11T12:11:37.918Z</time></trkpt><trkpt lat="44.8026351" lon="9.3365283"><ele>1047.0</ele><time>2026-04-11T12:11:38.918Z</time></trkpt><trkpt lat="44.8025493" lon="9.3363781"><ele>1054.0</ele><time>2026-04-11T12:11:39.918Z</time></trkpt><trkpt lat="44.802462" lon="9.3362165"><ele>1061.0</ele><time>2026-04-11T12:11:40.918Z</time></trkpt><trkpt lat="44.8023829" lon="9.3360571"><ele>1068.0</ele><time>2026-04-11T12:11:41.918Z</time></trkpt><trkpt lat="44.8023092" lon="9.3358988"><ele>1075.0</ele><time>2026-04-11T12:11:42.918Z</time></trkpt><trkpt lat="44.8022322" lon="9.3357414"><ele>1075.0</ele><time>2026-04-11T12:11:43.918Z</time></trkpt><trkpt lat="44.8021594" lon="9.3355798"><ele>1075.0</ele><time>2026-04-11T12:11:44.918Z</time></trkpt><trkpt lat="44.8020865" lon="9.3354215"><ele>1075.0</ele><time>2026-04-11T12:11:45.917Z</time></trkpt><trkpt lat="44.8020139" lon="9.3352718"><ele>1075.0</ele><time>2026-04-11T12:11:46.918Z</time></trkpt><trkpt lat="44.8019492" lon="9.3351281"><ele>1076.6</ele><time>2026-04-11T12:11:47.918Z</time></trkpt><trkpt lat="44.8018889" lon="9.3349954"><ele>1078.2</ele><time>2026-04-11T12:11:48.918Z</time></trkpt><trkpt lat="44.8018368" lon="9.3348645"><ele>1079.8</ele><time>2026-04-11T12:11:49.918Z</time></trkpt><trkpt lat="44.8018129" lon="9.3347249"><ele>1081.4</ele><time>2026-04-11T12:11:50.918Z</time></trkpt><trkpt lat="44.8018088" lon="9.3345776"><ele>1083.0</ele><time>2026-04-11T12:11:51.918Z</time></trkpt><trkpt lat="44.8018265" lon="9.3344311"><ele>1083.0</ele><time>2026-04-11T12:11:52.918Z</time></trkpt><trkpt lat="44.8018416" lon="9.334279"><ele>1083.0</ele><time>2026-04-11T12:11:53.918Z</time></trkpt><trkpt lat="44.8018188" lon="9.3341276"><ele>1083.0</ele><time>2026-04-11T12:11:54.918Z</time></trkpt><trkpt lat="44.8017552" lon="9.3339837"><ele>1083.0</ele><time>2026-04-11T12:11:55.918Z</time></trkpt><trkpt lat="44.8016618" lon="9.3338641"><ele>1088.0</ele><time>2026-04-11T12:11:56.918Z</time></trkpt><trkpt lat="44.8015523" lon="9.3337552"><ele>1093.0</ele><time>2026-04-11T12:11:57.918Z</time></trkpt><trkpt lat="44.8014488" lon="9.3336118"><ele>1098.0</ele><time>2026-04-11T12:11:58.918Z</time></trkpt><trkpt lat="44.8013636" lon="9.3334389"><ele>1103.0</ele><time>2026-04-11T12:11:59.917Z</time></trkpt><trkpt lat="44.8012816" lon="9.3332716"><ele>1103.0</ele><time>2026-04-11T12:12:00.918Z</time></trkpt><trkpt lat="44.8011895" lon="9.3331255"><ele>1103.0</ele><time>2026-04-11T12:12:01.918Z</time></trkpt><trkpt lat="44.8010918" lon="9.3330052"><ele>1103.0</ele><time>2026-04-11T12:12:02.917Z</time></trkpt><trkpt lat="44.8009676" lon="9.3329112"><ele>1103.0</ele><time>2026-04-11T12:12:03.918Z</time></trkpt><trkpt lat="44.8008463" lon="9.3328228"><ele>1102.75</ele><time>2026-04-11T12:12:04.918Z</time></trkpt><trkpt lat="44.8007127" lon="9.3327349"><ele>1102.5</ele><time>2026-04-11T12:12:05.918Z</time></trkpt><trkpt lat="44.8005733" lon="9.3326549"><ele>1102.25</ele><time>2026-04-11T12:12:06.918Z</time></trkpt><trkpt lat="44.800432" lon="9.3325901"><ele>1102.0</ele><time>2026-04-11T12:12:07.917Z</time></trkpt><trkpt lat="44.8002899" lon="9.3325241"><ele>1100.0</ele><time>2026-04-11T12:12:08.918Z</time></trkpt><trkpt lat="44.8001381" lon="9.3324667"><ele>1098.0</ele><time>2026-04-11T12:12:09.918Z</time></trkpt><trkpt lat="44.8000024" lon="9.33242"><ele>1096.0</ele><time>2026-04-11T12:12:10.918Z</time></trkpt><trkpt lat="44.7998813" lon="9.3323668"><ele>1094.0</ele><time>2026-04-11T12:12:11.918Z</time></trkpt><trkpt lat="44.7997733" lon="9.3322837"><ele>1096.75</ele><time>2026-04-11T12:12:12.918Z</time></trkpt><trkpt lat="44.7996683" lon="9.3321712"><ele>1099.5</ele><time>2026-04-11T12:12:13.918Z</time></trkpt><trkpt lat="44.7995584" lon="9.3320332"><ele>1102.25</ele><time>2026-04-11T12:12:14.918Z</time></trkpt><trkpt lat="44.7994409" lon="9.3319144"><ele>1105.0</ele><time>2026-04-11T12:12:15.917Z</time></trkpt><trkpt lat="44.7993323" lon="9.3317835"><ele>1105.0</ele><time>2026-04-11T12:12:16.918Z</time></trkpt><trkpt lat="44.7992341" lon="9.3316559"><ele>1105.0</ele><time>2026-04-11T12:12:17.918Z</time></trkpt><trkpt lat="44.7991578" lon="9.3315275"><ele>1105.0</ele><time>2026-04-11T12:12:18.919Z</time></trkpt><trkpt lat="44.7991015" lon="9.3313762"><ele>1105.0</ele><time>2026-04-11T12:12:19.918Z</time></trkpt><trkpt lat="44.7990583" lon="9.3312089"><ele>1111.0</ele><time>2026-04-11T12:12:20.919Z</time></trkpt><trkpt lat="44.7990025" lon="9.3310273"><ele>1117.0</ele><time>2026-04-11T12:12:21.918Z</time></trkpt><trkpt lat="44.7989347" lon="9.3308478"><ele>1123.0</ele><time>2026-04-11T12:12:22.919Z</time></trkpt><trkpt lat="44.798858" lon="9.3306629"><ele>1129.0</ele><time>2026-04-11T12:12:23.918Z</time></trkpt><trkpt lat="44.7987629" lon="9.3304868"><ele>1128.6666666666665</ele><time>2026-04-11T12:12:24.919Z</time></trkpt><trkpt lat="44.798665" lon="9.3303203"><ele>1128.3333333333333</ele><time>2026-04-11T12:12:25.919Z</time></trkpt><trkpt lat="44.7985563" lon="9.3301693"><ele>1128.0</ele><time>2026-04-11T12:12:26.919Z</time></trkpt><trkpt lat="44.7984291" lon="9.3300425"><ele>1128.0</ele><time>2026-04-11T12:12:27.919Z</time></trkpt><trkpt lat="44.7982908" lon="9.3299409"><ele>1128.0</ele><time>2026-04-11T12:12:28.919Z</time></trkpt><trkpt lat="44.7981446" lon="9.3298593"><ele>1128.0</ele><time>2026-04-11T12:12:29.919Z</time></trkpt><trkpt lat="44.7979955" lon="9.3297705"><ele>1129.3333333333333</ele><time>2026-04-11T12:12:30.919Z</time></trkpt><trkpt lat="44.7978487" lon="9.3296708"><ele>1130.6666666666665</ele><time>2026-04-11T12:12:31.918Z</time></trkpt><trkpt lat="44.7977017" lon="9.3295803"><ele>1132.0</ele><time>2026-04-11T12:12:32.919Z</time></trkpt><trkpt lat="44.7975653" lon="9.3295126"><ele>1133.25</ele><time>2026-04-11T12:12:33.919Z</time></trkpt><trkpt lat="44.7974407" lon="9.3294602"><ele>1134.5</ele><time>2026-04-11T12:12:34.919Z</time></trkpt><trkpt lat="44.7973395" lon="9.3293988"><ele>1135.75</ele><time>2026-04-11T12:12:35.919Z</time></trkpt><trkpt lat="44.7972439" lon="9.3293104"><ele>1137.0</ele><time>2026-04-11T12:12:36.919Z</time></trkpt><trkpt lat="44.797153" lon="9.3291985"><ele>1137.0</ele><time>2026-04-11T12:12:37.919Z</time></trkpt><trkpt lat="44.7970537" lon="9.3290772"><ele>1137.0</ele><time>2026-04-11T12:12:38.919Z</time></trkpt><trkpt lat="44.796959" lon="9.3289583"><ele>1137.0</ele><time>2026-04-11T12:12:39.919Z</time></trkpt><trkpt lat="44.79686" lon="9.3288557"><ele>1137.0</ele><time>2026-04-11T12:12:40.919Z</time></trkpt><trkpt lat="44.7967681" lon="9.3287791"><ele>1137.8</ele><time>2026-04-11T12:12:41.919Z</time></trkpt><trkpt lat="44.7966803" lon="9.3287224"><ele>1138.6</ele><time>2026-04-11T12:12:42.919Z</time></trkpt><trkpt lat="44.7965895" lon="9.3287288"><ele>1139.3999999999999</ele><time>2026-04-11T12:12:43.919Z</time></trkpt><trkpt lat="44.7964982" lon="9.3288008"><ele>1140.2</ele><time>2026-04-11T12:12:44.919Z</time></trkpt><trkpt lat="44.7964392" lon="9.3289312"><ele>1141.0</ele><time>2026-04-11T12:12:45.918Z</time></trkpt><trkpt lat="44.7963805" lon="9.3290534"><ele>1141.0</ele><time>2026-04-11T12:12:46.919Z</time></trkpt><trkpt lat="44.7963662" lon="9.3291498"><ele>1141.0</ele><time>2026-04-11T12:12:47.919Z</time></trkpt><trkpt lat="44.7962394" lon="9.3291624"><ele>1141.0</ele><time>2026-04-11T12:12:49.918Z</time></trkpt><trkpt lat="44.7961826" lon="9.3291006"><ele>1141.0</ele><time>2026-04-11T12:12:50.918Z</time></trkpt><trkpt lat="44.7961576" lon="9.3289932"><ele>1141.0</ele><time>2026-04-11T12:12:51.919Z</time></trkpt><trkpt lat="44.7961839" lon="9.3288564"><ele>1144.5</ele><time>2026-04-11T12:12:52.919Z</time></trkpt><trkpt lat="44.7962509" lon="9.3287266"><ele>1148.0</ele><time>2026-04-11T12:12:53.919Z</time></trkpt><trkpt lat="44.7963369" lon="9.3286058"><ele>1151.5</ele><time>2026-04-11T12:12:54.919Z</time></trkpt><trkpt lat="44.7964386" lon="9.3284958"><ele>1155.0</ele><time>2026-04-11T12:12:55.918Z</time></trkpt><trkpt lat="44.7965635" lon="9.3284149"><ele>1155.0</ele><time>2026-04-11T12:12:56.919Z</time></trkpt><trkpt lat="44.7966967" lon="9.3283596"><ele>1155.0</ele><time>2026-04-11T12:12:57.919Z</time></trkpt><trkpt lat="44.7968262" lon="9.3283272"><ele>1155.0</ele><time>2026-04-11T12:12:58.918Z</time></trkpt><trkpt lat="44.7969261" lon="9.3283282"><ele>1155.0</ele><time>2026-04-11T12:12:59.919Z</time></trkpt><trkpt lat="44.7970105" lon="9.3283422"><ele>1152.5</ele><time>2026-04-11T12:13:00.919Z</time></trkpt><trkpt lat="44.7970812" lon="9.3283625"><ele>1150.0</ele><time>2026-04-11T12:13:01.918Z</time></trkpt><trkpt lat="44.7971897" lon="9.3284091"><ele>1147.5</ele><time>2026-04-11T12:13:03.918Z</time></trkpt><trkpt lat="44.7972571" lon="9.3284635"><ele>1145.0</ele><time>2026-04-11T12:13:05.92Z</time></trkpt><trkpt lat="44.7973109" lon="9.3285252"><ele>1142.5</ele><time>2026-04-11T12:13:07.92Z</time></trkpt><trkpt lat="44.7973832" lon="9.3285513"><ele>1140.0</ele><time>2026-04-11T12:13:10.92Z</time></trkpt><trkpt lat="44.7974206" lon="9.3284732"><ele>1140.0</ele><time>2026-04-11T12:18:14.926Z</time></trkpt><trkpt lat="44.7974223" lon="9.3283831"><ele>1140.0</ele><time>2026-04-11T12:18:23.926Z</time></trkpt><trkpt lat="44.7974179" lon="9.3282904"><ele>1140.0</ele><time>2026-04-11T12:18:30.926Z</time></trkpt><trkpt lat="44.7974378" lon="9.3282057"><ele>1140.0</ele><time>2026-04-11T12:18:38.039Z</time></trkpt><trkpt lat="44.7974874" lon="9.3281389"><ele>1140.0</ele><time>2026-04-11T12:18:44.97Z</time></trkpt><trkpt lat="44.7975505" lon="9.3281073"><ele>1140.0</ele><time>2026-04-11T12:19:02.951Z</time></trkpt><trkpt lat="44.7974872" lon="9.3281188"><ele>1140.0</ele><time>2026-04-11T12:19:48.024Z</time></trkpt><trkpt lat="44.7973934" lon="9.328403"><ele>1140.0</ele><time>2026-04-11T12:28:29.938Z</time></trkpt><trkpt lat="44.7974516" lon="9.3284807"><ele>1140.0</ele><time>2026-04-11T12:28:31.938Z</time></trkpt><trkpt lat="44.7975114" lon="9.3286121"><ele>1140.0</ele><time>2026-04-11T12:28:34.938Z</time></trkpt><trkpt lat="44.7975599" lon="9.3287434"><ele>1140.0</ele><time>2026-04-11T12:28:37.938Z</time></trkpt><trkpt lat="44.7975974" lon="9.3283182"><ele>1140.0</ele><time>2026-04-11T12:28:41.302Z</time></trkpt><trkpt lat="44.7975367" lon="9.3282464"><ele>1140.0</ele><time>2026-04-11T12:28:53.938Z</time></trkpt><trkpt lat="44.797478" lon="9.3282077"><ele>1140.0</ele><time>2026-04-11T12:28:59.684Z</time></trkpt></trkseg><trkseg><trkpt lat="44.7973682" lon="9.3285397"><ele>1140.0</ele><time>2026-04-11T13:08:47.119Z</time></trkpt><trkpt lat="44.7974302" lon="9.3285953"><ele>1140.0</ele><time>2026-04-11T13:08:54.056Z</time></trkpt><trkpt lat="44.7974432" lon="9.3284636"><ele>1140.0</ele><time>2026-04-11T13:08:58.012Z</time></trkpt><trkpt lat="44.7974144" lon="9.3283733"><ele>1140.0</ele><time>2026-04-11T13:09:00.138Z</time></trkpt><trkpt lat="44.7973971" lon="9.3282517"><ele>1140.0</ele><time>2026-04-11T13:09:03.048Z</time></trkpt><trkpt lat="44.7973536" lon="9.3281625"><ele>1140.0</ele><time>2026-04-11T13:09:04.983Z</time></trkpt><trkpt lat="44.7972841" lon="9.3280023"><ele>1138.4</ele><time>2026-04-11T13:09:06.984Z</time></trkpt><trkpt lat="44.7972334" lon="9.327913"><ele>1136.8</ele><time>2026-04-11T13:09:07.984Z</time></trkpt><trkpt lat="44.7971776" lon="9.3278122"><ele>1135.2</ele><time>2026-04-11T13:09:08.983Z</time></trkpt><trkpt lat="44.7971131" lon="9.3276923"><ele>1133.6</ele><time>2026-04-11T13:09:09.984Z</time></trkpt><trkpt lat="44.7970525" lon="9.3275757"><ele>1132.0</ele><time>2026-04-11T13:09:10.984Z</time></trkpt><trkpt lat="44.7970001" lon="9.3274797"><ele>1132.0</ele><time>2026-04-11T13:09:11.984Z</time></trkpt><trkpt lat="44.7969505" lon="9.3273912"><ele>1132.0</ele><time>2026-04-11T13:09:12.984Z</time></trkpt><trkpt lat="44.796899" lon="9.3273072"><ele>1132.0</ele><time>2026-04-11T13:09:13.984Z</time></trkpt><trkpt lat="44.7968456" lon="9.3272203"><ele>1132.0</ele><time>2026-04-11T13:09:14.984Z</time></trkpt><trkpt lat="44.7968046" lon="9.3271215"><ele>1132.0</ele><time>2026-04-11T13:09:15.984Z</time></trkpt><trkpt lat="44.7967843" lon="9.3270139"><ele>1132.0</ele><time>2026-04-11T13:09:16.983Z</time></trkpt><trkpt lat="44.7968001" lon="9.3269065"><ele>1130.1666666666665</ele><time>2026-04-11T13:09:17.984Z</time></trkpt><trkpt lat="44.7968456" lon="9.3267996"><ele>1128.3333333333333</ele><time>2026-04-11T13:09:18.984Z</time></trkpt><trkpt lat="44.7968906" lon="9.3266933"><ele>1126.5</ele><time>2026-04-11T13:09:19.984Z</time></trkpt><trkpt lat="44.7969157" lon="9.3265764"><ele>1124.6666666666667</ele><time>2026-04-11T13:09:20.984Z</time></trkpt><trkpt lat="44.7969151" lon="9.3264521"><ele>1122.8333333333335</ele><time>2026-04-11T13:09:21.984Z</time></trkpt><trkpt lat="44.7968724" lon="9.3263385"><ele>1121.0</ele><time>2026-04-11T13:09:22.984Z</time></trkpt><trkpt lat="44.7968127" lon="9.3262249"><ele>1120.6666666666667</ele><time>2026-04-11T13:09:23.984Z</time></trkpt><trkpt lat="44.7967668" lon="9.326118"><ele>1120.3333333333335</ele><time>2026-04-11T13:09:24.984Z</time></trkpt><trkpt lat="44.7967375" lon="9.3260195"><ele>1120.0</ele><time>2026-04-11T13:09:25.984Z</time></trkpt><trkpt lat="44.796736" lon="9.3259159"><ele>1119.6666666666667</ele><time>2026-04-11T13:09:26.984Z</time></trkpt><trkpt lat="44.7967739" lon="9.3258178"><ele>1119.3333333333333</ele><time>2026-04-11T13:09:27.984Z</time></trkpt><trkpt lat="44.7968383" lon="9.3257431"><ele>1119.0</ele><time>2026-04-11T13:09:28.984Z</time></trkpt><trkpt lat="44.796909" lon="9.3256738"><ele>1119.0</ele><time>2026-04-11T13:09:29.984Z</time></trkpt><trkpt lat="44.7969758" lon="9.3255817"><ele>1119.0</ele><time>2026-04-11T13:09:30.983Z</time></trkpt><trkpt lat="44.7970365" lon="9.3254555"><ele>1119.0</ele><time>2026-04-11T13:09:31.984Z</time></trkpt><trkpt lat="44.7970655" lon="9.3253047"><ele>1119.0</ele><time>2026-04-11T13:09:32.983Z</time></trkpt><trkpt lat="44.7970712" lon="9.3251514"><ele>1119.0</ele><time>2026-04-11T13:09:33.984Z</time></trkpt><trkpt lat="44.7970471" lon="9.3250048"><ele>1119.8</ele><time>2026-04-11T13:09:34.984Z</time></trkpt><trkpt lat="44.7970067" lon="9.3248808"><ele>1120.6000000000001</ele><time>2026-04-11T13:09:35.984Z</time></trkpt><trkpt lat="44.7969722" lon="9.3247613"><ele>1121.4</ele><time>2026-04-11T13:09:36.984Z</time></trkpt><trkpt lat="44.7969706" lon="9.3246332"><ele>1122.2</ele><time>2026-04-11T13:09:37.984Z</time></trkpt><trkpt lat="44.7970104" lon="9.3245055"><ele>1123.0</ele><time>2026-04-11T13:09:38.984Z</time></trkpt><trkpt lat="44.7970698" lon="9.3243728"><ele>1124.0</ele><time>2026-04-11T13:09:39.984Z</time></trkpt><trkpt lat="44.7971369" lon="9.3242324"><ele>1125.0</ele><time>2026-04-11T13:09:40.984Z</time></trkpt><trkpt lat="44.7972001" lon="9.3240858"><ele>1126.0</ele><time>2026-04-11T13:09:41.983Z</time></trkpt><trkpt lat="44.7972537" lon="9.3239324"><ele>1127.0</ele><time>2026-04-11T13:09:42.985Z</time></trkpt><trkpt lat="44.7972871" lon="9.3237663"><ele>1128.5</ele><time>2026-04-11T13:09:43.985Z</time></trkpt><trkpt lat="44.7973017" lon="9.3235913"><ele>1130.0</ele><time>2026-04-11T13:09:44.985Z</time></trkpt><trkpt lat="44.7973097" lon="9.3234134"><ele>1131.5</ele><time>2026-04-11T13:09:45.985Z</time></trkpt><trkpt lat="44.7973235" lon="9.3232464"><ele>1133.0</ele><time>2026-04-11T13:09:46.985Z</time></trkpt><trkpt lat="44.7973339" lon="9.323096"><ele>1134.8333333333335</ele><time>2026-04-11T13:09:47.985Z</time></trkpt><trkpt lat="44.7973377" lon="9.322961"><ele>1136.6666666666667</ele><time>2026-04-11T13:09:48.985Z</time></trkpt><trkpt lat="44.7973387" lon="9.3228327"><ele>1138.5</ele><time>2026-04-11T13:09:49.985Z</time></trkpt><trkpt lat="44.797329" lon="9.3227079"><ele>1140.3333333333333</ele><time>2026-04-11T13:09:50.984Z</time></trkpt><trkpt lat="44.7973302" lon="9.3225897"><ele>1142.1666666666665</ele><time>2026-04-11T13:09:51.985Z</time></trkpt><trkpt lat="44.7973457" lon="9.3224792"><ele>1144.0</ele><time>2026-04-11T13:09:52.985Z</time></trkpt><trkpt lat="44.7973793" lon="9.322392"><ele>1144.0</ele><time>2026-04-11T13:09:53.985Z</time></trkpt><trkpt lat="44.7974492" lon="9.3223518"><ele>1144.0</ele><time>2026-04-11T13:09:54.984Z</time></trkpt><trkpt lat="44.7975345" lon="9.3223522"><ele>1144.0</ele><time>2026-04-11T13:09:55.985Z</time></trkpt><trkpt lat="44.7976509" lon="9.3223666"><ele>1144.0</ele><time>2026-04-11T13:09:56.984Z</time></trkpt><trkpt lat="44.7977687" lon="9.3223634"><ele>1144.0</ele><time>2026-04-11T13:09:57.984Z</time></trkpt><trkpt lat="44.7978854" lon="9.3223348"><ele>1143.5</ele><time>2026-04-11T13:09:58.985Z</time></trkpt><trkpt lat="44.7980093" lon="9.3222614"><ele>1143.0</ele><time>2026-04-11T13:09:59.985Z</time></trkpt><trkpt lat="44.7981285" lon="9.3221524"><ele>1142.5</ele><time>2026-04-11T13:10:00.985Z</time></trkpt><trkpt lat="44.7982341" lon="9.3220296"><ele>1142.0</ele><time>2026-04-11T13:10:01.985Z</time></trkpt><trkpt lat="44.798324" lon="9.3218931"><ele>1142.0</ele><time>2026-04-11T13:10:02.985Z</time></trkpt><trkpt lat="44.7984073" lon="9.321763"><ele>1142.0</ele><time>2026-04-11T13:10:03.985Z</time></trkpt><trkpt lat="44.7984942" lon="9.3216313"><ele>1142.0</ele><time>2026-04-11T13:10:04.985Z</time></trkpt><trkpt lat="44.7985744" lon="9.3215142"><ele>1142.0</ele><time>2026-04-11T13:10:05.985Z</time></trkpt><trkpt lat="44.798655" lon="9.3214113"><ele>1138.6</ele><time>2026-04-11T13:10:06.984Z</time></trkpt><trkpt lat="44.7987297" lon="9.3213222"><ele>1135.2</ele><time>2026-04-11T13:10:07.985Z</time></trkpt><trkpt lat="44.7988132" lon="9.3212481"><ele>1131.8</ele><time>2026-04-11T13:10:08.985Z</time></trkpt><trkpt lat="44.798908" lon="9.3212072"><ele>1128.4</ele><time>2026-04-11T13:10:09.985Z</time></trkpt><trkpt lat="44.7990023" lon="9.3211783"><ele>1125.0</ele><time>2026-04-11T13:10:10.985Z</time></trkpt><trkpt lat="44.7990884" lon="9.3211256"><ele>1125.0</ele><time>2026-04-11T13:10:11.984Z</time></trkpt><trkpt lat="44.7991477" lon="9.3210402"><ele>1125.0</ele><time>2026-04-11T13:10:12.985Z</time></trkpt><trkpt lat="44.7991501" lon="9.3209074"><ele>1125.0</ele><time>2026-04-11T13:10:13.985Z</time></trkpt><trkpt lat="44.7991308" lon="9.3207628"><ele>1125.0</ele><time>2026-04-11T13:10:14.985Z</time></trkpt><trkpt lat="44.799106" lon="9.3206184"><ele>1125.0</ele><time>2026-04-11T13:10:15.985Z</time></trkpt><trkpt lat="44.7990823" lon="9.3204947"><ele>1124.8</ele><time>2026-04-11T13:10:16.985Z</time></trkpt><trkpt lat="44.7990435" lon="9.3203868"><ele>1124.6</ele><time>2026-04-11T13:10:17.985Z</time></trkpt><trkpt lat="44.7989856" lon="9.32029"><ele>1124.4</ele><time>2026-04-11T13:10:18.984Z</time></trkpt><trkpt lat="44.798897" lon="9.3202162"><ele>1124.2</ele><time>2026-04-11T13:10:19.985Z</time></trkpt><trkpt lat="44.7987972" lon="9.320158"><ele>1124.0</ele><time>2026-04-11T13:10:20.985Z</time></trkpt><trkpt lat="44.7986969" lon="9.3201026"><ele>1124.0</ele><time>2026-04-11T13:10:21.985Z</time></trkpt><trkpt lat="44.7985957" lon="9.3200435"><ele>1124.0</ele><time>2026-04-11T13:10:22.984Z</time></trkpt><trkpt lat="44.7984939" lon="9.3199874"><ele>1124.0</ele><time>2026-04-11T13:10:23.985Z</time></trkpt><trkpt lat="44.7983994" lon="9.3199371"><ele>1124.0</ele><time>2026-04-11T13:10:24.984Z</time></trkpt><trkpt lat="44.7983172" lon="9.3198866"><ele>1124.0</ele><time>2026-04-11T13:10:25.984Z</time></trkpt><trkpt lat="44.7982595" lon="9.3198233"><ele>1124.6000000000001</ele><time>2026-04-11T13:10:26.985Z</time></trkpt><trkpt lat="44.7982657" lon="9.3196557"><ele>1125.2</ele><time>2026-04-11T13:10:28.985Z</time></trkpt><trkpt lat="44.7983193" lon="9.3195645"><ele>1125.8000000000002</ele><time>2026-04-11T13:10:29.985Z</time></trkpt><trkpt lat="44.7983848" lon="9.3194969"><ele>1126.4</ele><time>2026-04-11T13:10:30.985Z</time></trkpt><trkpt lat="44.7985154" lon="9.3194656"><ele>1127.0</ele><time>2026-04-11T13:10:31.984Z</time></trkpt><trkpt lat="44.7986517" lon="9.3194408"><ele>1127.0</ele><time>2026-04-11T13:10:32.985Z</time></trkpt><trkpt lat="44.7987784" lon="9.319418"><ele>1127.0</ele><time>2026-04-11T13:10:33.986Z</time></trkpt><trkpt lat="44.7988946" lon="9.3193681"><ele>1127.0</ele><time>2026-04-11T13:10:34.986Z</time></trkpt><trkpt lat="44.7990123" lon="9.3192711"><ele>1127.0</ele><time>2026-04-11T13:10:35.986Z</time></trkpt><trkpt lat="44.7991148" lon="9.3191474"><ele>1127.0</ele><time>2026-04-11T13:10:36.986Z</time></trkpt><trkpt lat="44.7992095" lon="9.3190146"><ele>1127.0</ele><time>2026-04-11T13:10:37.986Z</time></trkpt><trkpt lat="44.7993005" lon="9.3188866"><ele>1127.0</ele><time>2026-04-11T13:10:38.986Z</time></trkpt><trkpt lat="44.7993914" lon="9.318774"><ele>1127.0</ele><time>2026-04-11T13:10:39.986Z</time></trkpt><trkpt lat="44.7994859" lon="9.3186813"><ele>1123.8</ele><time>2026-04-11T13:10:40.986Z</time></trkpt><trkpt lat="44.799581" lon="9.3186048"><ele>1120.6</ele><time>2026-04-11T13:10:41.986Z</time></trkpt><trkpt lat="44.7996647" lon="9.3185199"><ele>1117.3999999999999</ele><time>2026-04-11T13:10:42.985Z</time></trkpt><trkpt lat="44.7997206" lon="9.3184088"><ele>1114.2</ele><time>2026-04-11T13:10:43.986Z</time></trkpt><trkpt lat="44.7997535" lon="9.3182745"><ele>1111.0</ele><time>2026-04-11T13:10:44.986Z</time></trkpt><trkpt lat="44.7997618" lon="9.3181167"><ele>1111.25</ele><time>2026-04-11T13:10:45.985Z</time></trkpt><trkpt lat="44.79976" lon="9.3179498"><ele>1111.5</ele><time>2026-04-11T13:10:46.986Z</time></trkpt><trkpt lat="44.7997617" lon="9.3177815"><ele>1111.75</ele><time>2026-04-11T13:10:47.986Z</time></trkpt><trkpt lat="44.7997661" lon="9.3176176"><ele>1112.0</ele><time>2026-04-11T13:10:48.985Z</time></trkpt><trkpt lat="44.7997658" lon="9.3174558"><ele>1112.0</ele><time>2026-04-11T13:10:49.986Z</time></trkpt><trkpt lat="44.7997408" lon="9.3172963"><ele>1112.0</ele><time>2026-04-11T13:10:50.986Z</time></trkpt><trkpt lat="44.7996875" lon="9.3171399"><ele>1112.0</ele><time>2026-04-11T13:10:51.986Z</time></trkpt><trkpt lat="44.7996372" lon="9.3169899"><ele>1112.0</ele><time>2026-04-11T13:10:52.986Z</time></trkpt><trkpt lat="44.7995952" lon="9.3168403"><ele>1111.75</ele><time>2026-04-11T13:10:53.985Z</time></trkpt><trkpt lat="44.799574" lon="9.3166837"><ele>1111.5</ele><time>2026-04-11T13:10:54.986Z</time></trkpt><trkpt lat="44.7996071" lon="9.3165121"><ele>1111.25</ele><time>2026-04-11T13:10:55.986Z</time></trkpt><trkpt lat="44.7996821" lon="9.3163294"><ele>1111.0</ele><time>2026-04-11T13:10:56.986Z</time></trkpt><trkpt lat="44.7997588" lon="9.3161488"><ele>1112.25</ele><time>2026-04-11T13:10:57.986Z</time></trkpt><trkpt lat="44.7998329" lon="9.3159647"><ele>1113.5</ele><time>2026-04-11T13:10:58.986Z</time></trkpt><trkpt lat="44.7998821" lon="9.3157718"><ele>1114.75</ele><time>2026-04-11T13:10:59.986Z</time></trkpt><trkpt lat="44.7998984" lon="9.3155937"><ele>1116.0</ele><time>2026-04-11T13:11:00.986Z</time></trkpt><trkpt lat="44.7999039" lon="9.3154346"><ele>1117.8</ele><time>2026-04-11T13:11:01.986Z</time></trkpt><trkpt lat="44.7999114" lon="9.3152842"><ele>1119.6</ele><time>2026-04-11T13:11:02.986Z</time></trkpt><trkpt lat="44.7999371" lon="9.3151451"><ele>1121.4</ele><time>2026-04-11T13:11:03.985Z</time></trkpt><trkpt lat="44.7999873" lon="9.3150136"><ele>1123.2</ele><time>2026-04-11T13:11:04.986Z</time></trkpt><trkpt lat="44.8000615" lon="9.3149011"><ele>1125.0</ele><time>2026-04-11T13:11:05.986Z</time></trkpt><trkpt lat="44.8001461" lon="9.3148055"><ele>1120.0</ele><time>2026-04-11T13:11:06.986Z</time></trkpt><trkpt lat="44.8002203" lon="9.3146934"><ele>1115.0</ele><time>2026-04-11T13:11:07.985Z</time></trkpt><trkpt lat="44.8002625" lon="9.3145533"><ele>1110.0</ele><time>2026-04-11T13:11:08.986Z</time></trkpt><trkpt lat="44.8002752" lon="9.3143895"><ele>1105.0</ele><time>2026-04-11T13:11:09.986Z</time></trkpt><trkpt lat="44.800277" lon="9.3142217"><ele>1105.0</ele><time>2026-04-11T13:11:10.986Z</time></trkpt><trkpt lat="44.8002958" lon="9.3140674"><ele>1105.0</ele><time>2026-04-11T13:11:11.986Z</time></trkpt><trkpt lat="44.8003446" lon="9.3139153"><ele>1105.0</ele><time>2026-04-11T13:11:12.986Z</time></trkpt><trkpt lat="44.8004118" lon="9.3137889"><ele>1105.0</ele><time>2026-04-11T13:11:13.986Z</time></trkpt><trkpt lat="44.8004947" lon="9.3136938"><ele>1105.0</ele><time>2026-04-11T13:11:14.986Z</time></trkpt><trkpt lat="44.8005863" lon="9.3136308"><ele>1105.4</ele><time>2026-04-11T13:11:15.985Z</time></trkpt><trkpt lat="44.8006873" lon="9.3135794"><ele>1105.8</ele><time>2026-04-11T13:11:16.986Z</time></trkpt><trkpt lat="44.8007921" lon="9.3135524"><ele>1106.2</ele><time>2026-04-11T13:11:17.986Z</time></trkpt><trkpt lat="44.800902" lon="9.3135441"><ele>1106.6</ele><time>2026-04-11T13:11:18.986Z</time></trkpt><trkpt lat="44.8010063" lon="9.313557"><ele>1107.0</ele><time>2026-04-11T13:11:19.986Z</time></trkpt><trkpt lat="44.8011117" lon="9.3136171"><ele>1105.8</ele><time>2026-04-11T13:11:20.986Z</time></trkpt><trkpt lat="44.8012134" lon="9.3136974"><ele>1104.6</ele><time>2026-04-11T13:11:21.986Z</time></trkpt><trkpt lat="44.8013108" lon="9.31376"><ele>1103.3999999999999</ele><time>2026-04-11T13:11:22.986Z</time></trkpt><trkpt lat="44.8014076" lon="9.3137767"><ele>1102.2</ele><time>2026-04-11T13:11:23.986Z</time></trkpt><trkpt lat="44.8015029" lon="9.3137497"><ele>1101.0</ele><time>2026-04-11T13:11:24.986Z</time></trkpt><trkpt lat="44.8015991" lon="9.3136873"><ele>1101.0</ele><time>2026-04-11T13:11:25.987Z</time></trkpt><trkpt lat="44.8016956" lon="9.313599"><ele>1101.0</ele><time>2026-04-11T13:11:26.987Z</time></trkpt><trkpt lat="44.8017943" lon="9.3135061"><ele>1101.0</ele><time>2026-04-11T13:11:27.987Z</time></trkpt><trkpt lat="44.8019009" lon="9.3134127"><ele>1101.0</ele><time>2026-04-11T13:11:28.987Z</time></trkpt><trkpt lat="44.8020034" lon="9.3133124"><ele>1100.25</ele><time>2026-04-11T13:11:29.987Z</time></trkpt><trkpt lat="44.8020937" lon="9.3131917"><ele>1099.5</ele><time>2026-04-11T13:11:30.986Z</time></trkpt><trkpt lat="44.8021685" lon="9.3130445"><ele>1098.75</ele><time>2026-04-11T13:11:31.987Z</time></trkpt><trkpt lat="44.8022236" lon="9.3128718"><ele>1098.0</ele><time>2026-04-11T13:11:32.987Z</time></trkpt><trkpt lat="44.8022736" lon="9.3126815"><ele>1098.0</ele><time>2026-04-11T13:11:33.987Z</time></trkpt><trkpt lat="44.8023296" lon="9.3124872"><ele>1098.0</ele><time>2026-04-11T13:11:34.986Z</time></trkpt><trkpt lat="44.8023845" lon="9.3122824"><ele>1098.0</ele><time>2026-04-11T13:11:35.987Z</time></trkpt><trkpt lat="44.8024379" lon="9.3120884"><ele>1096.5</ele><time>2026-04-11T13:11:36.986Z</time></trkpt><trkpt lat="44.8024952" lon="9.3119123"><ele>1095.0</ele><time>2026-04-11T13:11:37.986Z</time></trkpt><trkpt lat="44.8025562" lon="9.3117579"><ele>1093.5</ele><time>2026-04-11T13:11:38.987Z</time></trkpt><trkpt lat="44.8026258" lon="9.3116239"><ele>1092.0</ele><time>2026-04-11T13:11:39.987Z</time></trkpt><trkpt lat="44.8026975" lon="9.3115018"><ele>1092.25</ele><time>2026-04-11T13:11:40.987Z</time></trkpt><trkpt lat="44.8027816" lon="9.3114036"><ele>1092.5</ele><time>2026-04-11T13:11:41.986Z</time></trkpt><trkpt lat="44.8028912" lon="9.3113422"><ele>1092.75</ele><time>2026-04-11T13:11:42.987Z</time></trkpt><trkpt lat="44.8030074" lon="9.3112781"><ele>1093.0</ele><time>2026-04-11T13:11:43.987Z</time></trkpt><trkpt lat="44.8031222" lon="9.3111787"><ele>1093.0</ele><time>2026-04-11T13:11:44.987Z</time></trkpt><trkpt lat="44.8032226" lon="9.31104"><ele>1093.0</ele><time>2026-04-11T13:11:45.987Z</time></trkpt><trkpt lat="44.8033201" lon="9.3108756"><ele>1093.0</ele><time>2026-04-11T13:11:46.987Z</time></trkpt><trkpt lat="44.8034008" lon="9.3107057"><ele>1093.0</ele><time>2026-04-11T13:11:47.987Z</time></trkpt><trkpt lat="44.8034707" lon="9.3105364"><ele>1094.3333333333333</ele><time>2026-04-11T13:11:48.987Z</time></trkpt><trkpt lat="44.8035372" lon="9.3103529"><ele>1095.6666666666667</ele><time>2026-04-11T13:11:49.987Z</time></trkpt><trkpt lat="44.8036061" lon="9.3101658"><ele>1097.0</ele><time>2026-04-11T13:11:50.987Z</time></trkpt><trkpt lat="44.8036725" lon="9.3099703"><ele>1097.0</ele><time>2026-04-11T13:11:51.987Z</time></trkpt><trkpt lat="44.8037302" lon="9.3097668"><ele>1097.0</ele><time>2026-04-11T13:11:52.986Z</time></trkpt><trkpt lat="44.8037812" lon="9.3095673"><ele>1097.0</ele><time>2026-04-11T13:11:53.987Z</time></trkpt><trkpt lat="44.8038317" lon="9.3093751"><ele>1093.5</ele><time>2026-04-11T13:11:54.987Z</time></trkpt><trkpt lat="44.8038827" lon="9.3091907"><ele>1090.0</ele><time>2026-04-11T13:11:55.986Z</time></trkpt><trkpt lat="44.8039457" lon="9.3090239"><ele>1086.5</ele><time>2026-04-11T13:11:56.986Z</time></trkpt><trkpt lat="44.8040311" lon="9.3088576"><ele>1083.0</ele><time>2026-04-11T13:11:57.987Z</time></trkpt><trkpt lat="44.8041329" lon="9.3086971"><ele>1079.3333333333333</ele><time>2026-04-11T13:11:58.986Z</time></trkpt><trkpt lat="44.8042429" lon="9.3085409"><ele>1075.6666666666665</ele><time>2026-04-11T13:11:59.987Z</time></trkpt><trkpt lat="44.8043626" lon="9.308384"><ele>1072.0</ele><time>2026-04-11T13:12:00.987Z</time></trkpt><trkpt lat="44.8044829" lon="9.3082118"><ele>1075.0</ele><time>2026-04-11T13:12:01.987Z</time></trkpt><trkpt lat="44.8046017" lon="9.308019"><ele>1078.0</ele><time>2026-04-11T13:12:02.987Z</time></trkpt><trkpt lat="44.8047179" lon="9.3078114"><ele>1081.0</ele><time>2026-04-11T13:12:03.986Z</time></trkpt><trkpt lat="44.8048342" lon="9.3075941"><ele>1081.0</ele><time>2026-04-11T13:12:04.987Z</time></trkpt><trkpt lat="44.8049494" lon="9.3073813"><ele>1081.0</ele><time>2026-04-11T13:12:05.987Z</time></trkpt><trkpt lat="44.8050598" lon="9.3071806"><ele>1081.0</ele><time>2026-04-11T13:12:06.987Z</time></trkpt><trkpt lat="44.8051679" lon="9.3069932"><ele>1085.0</ele><time>2026-04-11T13:12:07.987Z</time></trkpt><trkpt lat="44.805275" lon="9.3068198"><ele>1089.0</ele><time>2026-04-11T13:12:08.987Z</time></trkpt><trkpt lat="44.8053809" lon="9.3066664"><ele>1093.0</ele><time>2026-04-11T13:12:09.987Z</time></trkpt><trkpt lat="44.8054817" lon="9.3065213"><ele>1090.75</ele><time>2026-04-11T13:12:10.987Z</time></trkpt><trkpt lat="44.8055639" lon="9.3063629"><ele>1088.5</ele><time>2026-04-11T13:12:11.986Z</time></trkpt><trkpt lat="44.8056103" lon="9.3061626"><ele>1086.25</ele><time>2026-04-11T13:12:12.987Z</time></trkpt><trkpt lat="44.8056416" lon="9.3059404"><ele>1084.0</ele><time>2026-04-11T13:12:13.987Z</time></trkpt><trkpt lat="44.8056796" lon="9.3057197"><ele>1078.0</ele><time>2026-04-11T13:12:14.987Z</time></trkpt><trkpt lat="44.8057369" lon="9.3055098"><ele>1072.0</ele><time>2026-04-11T13:12:15.986Z</time></trkpt><trkpt lat="44.8058121" lon="9.3052959"><ele>1066.0</ele><time>2026-04-11T13:12:16.988Z</time></trkpt><trkpt lat="44.8058997" lon="9.3050624"><ele>1066.0</ele><time>2026-04-11T13:12:17.987Z</time></trkpt><trkpt lat="44.8059936" lon="9.304815"><ele>1066.0</ele><time>2026-04-11T13:12:18.987Z</time></trkpt><trkpt lat="44.8060823" lon="9.3045696"><ele>1066.0</ele><time>2026-04-11T13:12:19.988Z</time></trkpt><trkpt lat="44.8061577" lon="9.3043419"><ele>1066.0</ele><time>2026-04-11T13:12:20.988Z</time></trkpt><trkpt lat="44.8062146" lon="9.3041276"><ele>1066.0</ele><time>2026-04-11T13:12:21.988Z</time></trkpt><trkpt lat="44.8062681" lon="9.3039331"><ele>1066.0</ele><time>2026-04-11T13:12:22.988Z</time></trkpt><trkpt lat="44.8063195" lon="9.3037703"><ele>1066.0</ele><time>2026-04-11T13:12:23.987Z</time></trkpt><trkpt lat="44.8063759" lon="9.303644"><ele>1066.0</ele><time>2026-04-11T13:12:24.988Z</time></trkpt><trkpt lat="44.8064439" lon="9.3035294"><ele>1066.0</ele><time>2026-04-11T13:12:25.988Z</time></trkpt><trkpt lat="44.8065303" lon="9.3034176"><ele>1066.0</ele><time>2026-04-11T13:12:26.988Z</time></trkpt><trkpt lat="44.8066051" lon="9.3032725"><ele>1066.0</ele><time>2026-04-11T13:12:27.987Z</time></trkpt><trkpt lat="44.8066591" lon="9.3030936"><ele>1062.25</ele><time>2026-04-11T13:12:28.987Z</time></trkpt><trkpt lat="44.8067141" lon="9.3029078"><ele>1058.5</ele><time>2026-04-11T13:12:29.987Z</time></trkpt><trkpt lat="44.8067788" lon="9.3027114"><ele>1054.75</ele><time>2026-04-11T13:12:30.988Z</time></trkpt><trkpt lat="44.8068448" lon="9.3025201"><ele>1051.0</ele><time>2026-04-11T13:12:31.987Z</time></trkpt><trkpt lat="44.8069085" lon="9.3023465"><ele>1055.5</ele><time>2026-04-11T13:12:32.988Z</time></trkpt><trkpt lat="44.8069881" lon="9.3021843"><ele>1060.0</ele><time>2026-04-11T13:12:33.988Z</time></trkpt><trkpt lat="44.8070764" lon="9.3020342"><ele>1064.5</ele><time>2026-04-11T13:12:34.988Z</time></trkpt><trkpt lat="44.8071466" lon="9.3018623"><ele>1069.0</ele><time>2026-04-11T13:12:35.988Z</time></trkpt><trkpt lat="44.8071918" lon="9.3016644"><ele>1069.0</ele><time>2026-04-11T13:12:36.988Z</time></trkpt><trkpt lat="44.8072268" lon="9.3014534"><ele>1069.0</ele><time>2026-04-11T13:12:37.988Z</time></trkpt><trkpt lat="44.8072593" lon="9.3012492"><ele>1069.0</ele><time>2026-04-11T13:12:38.988Z</time></trkpt><trkpt lat="44.8072852" lon="9.3010646"><ele>1069.0</ele><time>2026-04-11T13:12:39.987Z</time></trkpt><trkpt lat="44.8072959" lon="9.3008885"><ele>1066.4</ele><time>2026-04-11T13:12:40.988Z</time></trkpt><trkpt lat="44.807288" lon="9.3007327"><ele>1063.8000000000002</ele><time>2026-04-11T13:12:41.988Z</time></trkpt><trkpt lat="44.8072814" lon="9.3005954"><ele>1061.1999999999998</ele><time>2026-04-11T13:12:42.987Z</time></trkpt><trkpt lat="44.8072982" lon="9.3004695"><ele>1058.6</ele><time>2026-04-11T13:12:43.987Z</time></trkpt><trkpt lat="44.807354" lon="9.300356"><ele>1056.0</ele><time>2026-04-11T13:12:44.987Z</time></trkpt><trkpt lat="44.8074286" lon="9.3002678"><ele>1052.6</ele><time>2026-04-11T13:12:45.988Z</time></trkpt><trkpt lat="44.8075029" lon="9.3001745"><ele>1049.1999999999998</ele><time>2026-04-11T13:12:46.988Z</time></trkpt><trkpt lat="44.8075391" lon="9.3000445"><ele>1045.8000000000002</ele><time>2026-04-11T13:12:47.988Z</time></trkpt><trkpt lat="44.8075461" lon="9.2998938"><ele>1042.4</ele><time>2026-04-11T13:12:48.988Z</time></trkpt><trkpt lat="44.8075528" lon="9.2997397"><ele>1039.0</ele><time>2026-04-11T13:12:49.988Z</time></trkpt><trkpt lat="44.8075775" lon="9.2995867"><ele>1035.25</ele><time>2026-04-11T13:12:50.987Z</time></trkpt><trkpt lat="44.8076142" lon="9.2994466"><ele>1031.5</ele><time>2026-04-11T13:12:51.987Z</time></trkpt><trkpt lat="44.8076893" lon="9.2993194"><ele>1027.75</ele><time>2026-04-11T13:12:52.988Z</time></trkpt><trkpt lat="44.8077796" lon="9.2991925"><ele>1024.0</ele><time>2026-04-11T13:12:53.988Z</time></trkpt><trkpt lat="44.8078563" lon="9.299037"><ele>1027.5</ele><time>2026-04-11T13:12:54.988Z</time></trkpt><trkpt lat="44.8079203" lon="9.2988466"><ele>1031.0</ele><time>2026-04-11T13:12:55.988Z</time></trkpt><trkpt lat="44.8079794" lon="9.2986543"><ele>1034.5</ele><time>2026-04-11T13:12:56.988Z</time></trkpt><trkpt lat="44.8080325" lon="9.2984803"><ele>1038.0</ele><time>2026-04-11T13:12:57.988Z</time></trkpt><trkpt lat="44.8080863" lon="9.2983186"><ele>1038.0</ele><time>2026-04-11T13:12:58.988Z</time></trkpt><trkpt lat="44.8081333" lon="9.2981643"><ele>1038.0</ele><time>2026-04-11T13:12:59.988Z</time></trkpt><trkpt lat="44.8081662" lon="9.2980171"><ele>1038.0</ele><time>2026-04-11T13:13:00.988Z</time></trkpt><trkpt lat="44.8081785" lon="9.2978762"><ele>1038.0</ele><time>2026-04-11T13:13:01.988Z</time></trkpt><trkpt lat="44.8081894" lon="9.29776"><ele>1038.0</ele><time>2026-04-11T13:13:02.988Z</time></trkpt><trkpt lat="44.8082308" lon="9.2976786"><ele>1038.4</ele><time>2026-04-11T13:13:03.987Z</time></trkpt><trkpt lat="44.8083116" lon="9.2976379"><ele>1038.8</ele><time>2026-04-11T13:13:04.987Z</time></trkpt><trkpt lat="44.8084126" lon="9.2976205"><ele>1039.2</ele><time>2026-04-11T13:13:05.987Z</time></trkpt><trkpt lat="44.8085173" lon="9.2975934"><ele>1039.6</ele><time>2026-04-11T13:13:06.989Z</time></trkpt><trkpt lat="44.8086055" lon="9.2975099"><ele>1040.0</ele><time>2026-04-11T13:13:07.988Z</time></trkpt><trkpt lat="44.8086599" lon="9.297375"><ele>1038.5</ele><time>2026-04-11T13:13:08.989Z</time></trkpt><trkpt lat="44.8086818" lon="9.2972043"><ele>1037.0</ele><time>2026-04-11T13:13:09.989Z</time></trkpt><trkpt lat="44.8086859" lon="9.297025"><ele>1035.5</ele><time>2026-04-11T13:13:10.989Z</time></trkpt><trkpt lat="44.808689" lon="9.2968489"><ele>1034.0</ele><time>2026-04-11T13:13:11.989Z</time></trkpt><trkpt lat="44.8086918" lon="9.296684"><ele>1034.0</ele><time>2026-04-11T13:13:12.988Z</time></trkpt><trkpt lat="44.8086832" lon="9.2965113"><ele>1034.0</ele><time>2026-04-11T13:13:13.988Z</time></trkpt><trkpt lat="44.8086468" lon="9.2963326"><ele>1034.0</ele><time>2026-04-11T13:13:14.988Z</time></trkpt><trkpt lat="44.8085876" lon="9.296153"><ele>1034.0</ele><time>2026-04-11T13:13:15.989Z</time></trkpt><trkpt lat="44.8085318" lon="9.2959717"><ele>1027.0</ele><time>2026-04-11T13:13:16.988Z</time></trkpt><trkpt lat="44.8084884" lon="9.2957918"><ele>1020.0</ele><time>2026-04-11T13:13:17.989Z</time></trkpt><trkpt lat="44.8084638" lon="9.2956192"><ele>1013.0</ele><time>2026-04-11T13:13:18.989Z</time></trkpt><trkpt lat="44.8084416" lon="9.2954557"><ele>1006.0</ele><time>2026-04-11T13:13:19.989Z</time></trkpt><trkpt lat="44.8084167" lon="9.2953064"><ele>1007.4</ele><time>2026-04-11T13:13:20.989Z</time></trkpt><trkpt lat="44.8084146" lon="9.2951718"><ele>1008.8</ele><time>2026-04-11T13:13:21.989Z</time></trkpt><trkpt lat="44.808443" lon="9.2950494"><ele>1010.1999999999999</ele><time>2026-04-11T13:13:22.989Z</time></trkpt><trkpt lat="44.8085056" lon="9.2949568"><ele>1011.5999999999999</ele><time>2026-04-11T13:13:23.988Z</time></trkpt><trkpt lat="44.8086089" lon="9.2949114"><ele>1013.0</ele><time>2026-04-11T13:13:24.988Z</time></trkpt><trkpt lat="44.8087374" lon="9.2948951"><ele>1013.0</ele><time>2026-04-11T13:13:25.989Z</time></trkpt><trkpt lat="44.8088753" lon="9.294871"><ele>1013.0</ele><time>2026-04-11T13:13:26.989Z</time></trkpt><trkpt lat="44.8090075" lon="9.2948196"><ele>1013.0</ele><time>2026-04-11T13:13:27.989Z</time></trkpt><trkpt lat="44.809119" lon="9.2947239"><ele>1013.0</ele><time>2026-04-11T13:13:28.989Z</time></trkpt><trkpt lat="44.8092179" lon="9.2946119"><ele>1012.8</ele><time>2026-04-11T13:13:29.989Z</time></trkpt><trkpt lat="44.8093191" lon="9.2945231"><ele>1012.5999999999999</ele><time>2026-04-11T13:13:30.989Z</time></trkpt><trkpt lat="44.8094237" lon="9.2944612"><ele>1012.4000000000001</ele><time>2026-04-11T13:13:31.988Z</time></trkpt><trkpt lat="44.8095234" lon="9.2944203"><ele>1012.2</ele><time>2026-04-11T13:13:32.988Z</time></trkpt><trkpt lat="44.8096143" lon="9.2943752"><ele>1012.0</ele><time>2026-04-11T13:13:33.989Z</time></trkpt><trkpt lat="44.8096883" lon="9.2942752"><ele>1012.0</ele><time>2026-04-11T13:13:34.989Z</time></trkpt><trkpt lat="44.8097427" lon="9.2941431"><ele>1012.0</ele><time>2026-04-11T13:13:35.989Z</time></trkpt><trkpt lat="44.8097584" lon="9.2939813"><ele>1012.0</ele><time>2026-04-11T13:13:36.989Z</time></trkpt><trkpt lat="44.8097408" lon="9.2938027"><ele>1012.0</ele><time>2026-04-11T13:13:37.989Z</time></trkpt><trkpt lat="44.8097196" lon="9.2936137"><ele>1008.3333333333333</ele><time>2026-04-11T13:13:38.989Z</time></trkpt><trkpt lat="44.8097053" lon="9.2934097"><ele>1004.6666666666667</ele><time>2026-04-11T13:13:39.988Z</time></trkpt><trkpt lat="44.8097015" lon="9.2931818"><ele>1001.0</ele><time>2026-04-11T13:13:40.989Z</time></trkpt><trkpt lat="44.8097147" lon="9.2929337"><ele>997.0</ele><time>2026-04-11T13:13:41.989Z</time></trkpt><trkpt lat="44.8097387" lon="9.2926618"><ele>993.0</ele><time>2026-04-11T13:13:42.989Z</time></trkpt><trkpt lat="44.8097633" lon="9.2924052"><ele>989.0</ele><time>2026-04-11T13:13:43.989Z</time></trkpt><trkpt lat="44.8097861" lon="9.2921727"><ele>986.25</ele><time>2026-04-11T13:13:44.988Z</time></trkpt><trkpt lat="44.809802" lon="9.2919634"><ele>983.5</ele><time>2026-04-11T13:13:45.989Z</time></trkpt><trkpt lat="44.8098105" lon="9.2917798"><ele>980.75</ele><time>2026-04-11T13:13:46.989Z</time></trkpt><trkpt lat="44.8098225" lon="9.2916172"><ele>978.0</ele><time>2026-04-11T13:13:47.989Z</time></trkpt><trkpt lat="44.8098563" lon="9.2914804"><ele>976.8</ele><time>2026-04-11T13:13:48.989Z</time></trkpt><trkpt lat="44.8099158" lon="9.2913732"><ele>975.5999999999999</ele><time>2026-04-11T13:13:49.989Z</time></trkpt><trkpt lat="44.8099948" lon="9.2912995"><ele>974.4000000000001</ele><time>2026-04-11T13:13:50.989Z</time></trkpt><trkpt lat="44.8100782" lon="9.2912397"><ele>973.2</ele><time>2026-04-11T13:13:51.989Z</time></trkpt><trkpt lat="44.8101517" lon="9.2911662"><ele>972.0</ele><time>2026-04-11T13:13:52.989Z</time></trkpt><trkpt lat="44.8101932" lon="9.2910615"><ele>972.0</ele><time>2026-04-11T13:13:53.989Z</time></trkpt><trkpt lat="44.8101836" lon="9.2909352"><ele>972.0</ele><time>2026-04-11T13:13:54.989Z</time></trkpt><trkpt lat="44.8101294" lon="9.2908297"><ele>972.0</ele><time>2026-04-11T13:13:55.989Z</time></trkpt><trkpt lat="44.8100356" lon="9.290756"><ele>972.0</ele><time>2026-04-11T13:13:56.989Z</time></trkpt><trkpt lat="44.8099479" lon="9.2906974"><ele>972.0</ele><time>2026-04-11T13:13:57.989Z</time></trkpt><trkpt lat="44.809887" lon="9.2906177"><ele>970.0</ele><time>2026-04-11T13:13:58.99Z</time></trkpt><trkpt lat="44.8098607" lon="9.2905101"><ele>968.0</ele><time>2026-04-11T13:13:59.99Z</time></trkpt><trkpt lat="44.8098782" lon="9.29038"><ele>966.0</ele><time>2026-04-11T13:14:00.99Z</time></trkpt><trkpt lat="44.8099454" lon="9.2902378"><ele>964.0</ele><time>2026-04-11T13:14:01.989Z</time></trkpt><trkpt lat="44.8100113" lon="9.290074"><ele>962.0</ele><time>2026-04-11T13:14:02.99Z</time></trkpt><trkpt lat="44.8100513" lon="9.2898939"><ele>959.5</ele><time>2026-04-11T13:14:03.99Z</time></trkpt><trkpt lat="44.8100765" lon="9.2897174"><ele>957.0</ele><time>2026-04-11T13:14:04.99Z</time></trkpt><trkpt lat="44.8101093" lon="9.2895527"><ele>954.5</ele><time>2026-04-11T13:14:05.99Z</time></trkpt><trkpt lat="44.8101628" lon="9.2893919"><ele>952.0</ele><time>2026-04-11T13:14:06.99Z</time></trkpt><trkpt lat="44.8102283" lon="9.2892373"><ele>951.6</ele><time>2026-04-11T13:14:07.99Z</time></trkpt><trkpt lat="44.8102821" lon="9.2890872"><ele>951.2</ele><time>2026-04-11T13:14:08.99Z</time></trkpt><trkpt lat="44.8103447" lon="9.2889593"><ele>950.8</ele><time>2026-04-11T13:14:09.989Z</time></trkpt><trkpt lat="44.8104192" lon="9.2888566"><ele>950.4</ele><time>2026-04-11T13:14:10.989Z</time></trkpt><trkpt lat="44.8104971" lon="9.2887862"><ele>950.0</ele><time>2026-04-11T13:14:11.99Z</time></trkpt><trkpt lat="44.8105821" lon="9.2887729"><ele>950.0000000000001</ele><time>2026-04-11T13:14:12.99Z</time></trkpt><trkpt lat="44.810663" lon="9.2887942"><ele>950.0</ele><time>2026-04-11T13:14:13.99Z</time></trkpt><trkpt lat="44.810751" lon="9.2888316"><ele>950.0</ele><time>2026-04-11T13:14:14.99Z</time></trkpt><trkpt lat="44.8108363" lon="9.2888831"><ele>950.0</ele><time>2026-04-11T13:14:15.99Z</time></trkpt><trkpt lat="44.8109138" lon="9.2888857"><ele>950.0000000000001</ele><time>2026-04-11T13:14:16.99Z</time></trkpt><trkpt lat="44.8109836" lon="9.2888401"><ele>950.0</ele><time>2026-04-11T13:14:17.99Z</time></trkpt><trkpt lat="44.8110281" lon="9.2887285"><ele>950.0</ele><time>2026-04-11T13:14:18.99Z</time></trkpt><trkpt lat="44.81103" lon="9.2885946"><ele>950.0</ele><time>2026-04-11T13:14:19.99Z</time></trkpt><trkpt lat="44.8110056" lon="9.2884816"><ele>950.0</ele><time>2026-04-11T13:14:20.99Z</time></trkpt><trkpt lat="44.8109493" lon="9.2883701"><ele>950.0</ele><time>2026-04-11T13:14:21.989Z</time></trkpt><trkpt lat="44.8108765" lon="9.2882669"><ele>950.0</ele><time>2026-04-11T13:14:22.99Z</time></trkpt><trkpt lat="44.8107974" lon="9.2881842"><ele>950.0</ele><time>2026-04-11T13:14:23.99Z</time></trkpt><trkpt lat="44.8106994" lon="9.2881426"><ele>950.0</ele><time>2026-04-11T13:14:24.99Z</time></trkpt><trkpt lat="44.810593" lon="9.2881334"><ele>950.0</ele><time>2026-04-11T13:14:25.99Z</time></trkpt><trkpt lat="44.8104776" lon="9.2881641"><ele>950.0</ele><time>2026-04-11T13:14:26.989Z</time></trkpt><trkpt lat="44.8103622" lon="9.288234"><ele>950.0</ele><time>2026-04-11T13:14:27.99Z</time></trkpt><trkpt lat="44.8102468" lon="9.2883231"><ele>950.0</ele><time>2026-04-11T13:14:28.99Z</time></trkpt><trkpt lat="44.8101251" lon="9.2884258"><ele>950.0</ele><time>2026-04-11T13:14:29.99Z</time></trkpt><trkpt lat="44.810011" lon="9.2885359"><ele>950.0</ele><time>2026-04-11T13:14:30.99Z</time></trkpt><trkpt lat="44.8099075" lon="9.2886417"><ele>950.5</ele><time>2026-04-11T13:14:31.99Z</time></trkpt><trkpt lat="44.8098158" lon="9.2887461"><ele>951.0</ele><time>2026-04-11T13:14:32.99Z</time></trkpt><trkpt lat="44.8097277" lon="9.2888501"><ele>951.5</ele><time>2026-04-11T13:14:33.99Z</time></trkpt><trkpt lat="44.8096385" lon="9.2889547"><ele>952.0</ele><time>2026-04-11T13:14:34.99Z</time></trkpt><trkpt lat="44.8095601" lon="9.2890491"><ele>952.0</ele><time>2026-04-11T13:14:35.989Z</time></trkpt><trkpt lat="44.8094957" lon="9.2891443"><ele>952.0</ele><time>2026-04-11T13:14:36.99Z</time></trkpt><trkpt lat="44.8094552" lon="9.2892674"><ele>952.0</ele><time>2026-04-11T13:14:37.99Z</time></trkpt><trkpt lat="44.8094409" lon="9.2894176"><ele>952.0</ele><time>2026-04-11T13:14:38.99Z</time></trkpt><trkpt lat="44.8094503" lon="9.2895593"><ele>952.0</ele><time>2026-04-11T13:14:39.989Z</time></trkpt><trkpt lat="44.8094622" lon="9.2896748"><ele>953.6666666666666</ele><time>2026-04-11T13:14:40.989Z</time></trkpt><trkpt lat="44.8094605" lon="9.2897821"><ele>955.3333333333333</ele><time>2026-04-11T13:14:41.99Z</time></trkpt><trkpt lat="44.8094239" lon="9.2898695"><ele>957.0</ele><time>2026-04-11T13:14:42.989Z</time></trkpt><trkpt lat="44.8093569" lon="9.2899116"><ele>958.6666666666667</ele><time>2026-04-11T13:14:43.99Z</time></trkpt><trkpt lat="44.8092765" lon="9.289898"><ele>960.3333333333334</ele><time>2026-04-11T13:14:44.989Z</time></trkpt><trkpt lat="44.8092116" lon="9.2898357"><ele>962.0</ele><time>2026-04-11T13:14:45.99Z</time></trkpt><trkpt lat="44.8091691" lon="9.2897522"><ele>954.8</ele><time>2026-04-11T13:14:46.99Z</time></trkpt><trkpt lat="44.8091651" lon="9.2896275"><ele>947.6</ele><time>2026-04-11T13:14:47.991Z</time></trkpt><trkpt lat="44.8091799" lon="9.2894956"><ele>940.3999999999999</ele><time>2026-04-11T13:14:48.991Z</time></trkpt><trkpt lat="44.809203" lon="9.2893409"><ele>933.1999999999999</ele><time>2026-04-11T13:14:49.991Z</time></trkpt><trkpt lat="44.8092225" lon="9.2891718"><ele>926.0</ele><time>2026-04-11T13:14:50.991Z</time></trkpt><trkpt lat="44.809242" lon="9.2890067"><ele>928.5</ele><time>2026-04-11T13:14:51.991Z</time></trkpt><trkpt lat="44.8092818" lon="9.2888531"><ele>931.0</ele><time>2026-04-11T13:14:52.991Z</time></trkpt><trkpt lat="44.8093505" lon="9.2887123"><ele>933.5</ele><time>2026-04-11T13:14:53.991Z</time></trkpt><trkpt lat="44.8094345" lon="9.288584"><ele>936.0</ele><time>2026-04-11T13:14:54.99Z</time></trkpt><trkpt lat="44.8095281" lon="9.2884491"><ele>936.0</ele><time>2026-04-11T13:14:55.991Z</time></trkpt><trkpt lat="44.8096325" lon="9.288302"><ele>936.0</ele><time>2026-04-11T13:14:56.991Z</time></trkpt><trkpt lat="44.8097498" lon="9.2881528"><ele>936.0</ele><time>2026-04-11T13:14:57.99Z</time></trkpt><trkpt lat="44.8098779" lon="9.2880155"><ele>934.0</ele><time>2026-04-11T13:14:58.991Z</time></trkpt><trkpt lat="44.8100079" lon="9.287905"><ele>932.0</ele><time>2026-04-11T13:14:59.99Z</time></trkpt><trkpt lat="44.8101341" lon="9.2878013"><ele>930.0</ele><time>2026-04-11T13:15:00.991Z</time></trkpt><trkpt lat="44.8102596" lon="9.2876912"><ele>928.0</ele><time>2026-04-11T13:15:01.99Z</time></trkpt><trkpt lat="44.8103867" lon="9.2875808"><ele>928.0</ele><time>2026-04-11T13:15:02.991Z</time></trkpt><trkpt lat="44.8105113" lon="9.28748"><ele>928.0</ele><time>2026-04-11T13:15:03.991Z</time></trkpt><trkpt lat="44.8106337" lon="9.2873911"><ele>928.0</ele><time>2026-04-11T13:15:04.991Z</time></trkpt><trkpt lat="44.8107446" lon="9.2872918"><ele>928.0</ele><time>2026-04-11T13:15:05.991Z</time></trkpt><trkpt lat="44.8108449" lon="9.2871796"><ele>922.0</ele><time>2026-04-11T13:15:06.991Z</time></trkpt><trkpt lat="44.8109281" lon="9.287048"><ele>916.0</ele><time>2026-04-11T13:15:07.991Z</time></trkpt><trkpt lat="44.8109949" lon="9.2869039"><ele>910.0</ele><time>2026-04-11T13:15:08.991Z</time></trkpt><trkpt lat="44.8110549" lon="9.286765"><ele>904.0</ele><time>2026-04-11T13:15:09.991Z</time></trkpt><trkpt lat="44.8111186" lon="9.2866576"><ele>903.5</ele><time>2026-04-11T13:15:10.991Z</time></trkpt><trkpt lat="44.8112013" lon="9.2865912"><ele>903.0</ele><time>2026-04-11T13:15:11.99Z</time></trkpt><trkpt lat="44.8113055" lon="9.2865925"><ele>902.5</ele><time>2026-04-11T13:15:12.99Z</time></trkpt><trkpt lat="44.8114198" lon="9.2866641"><ele>902.0</ele><time>2026-04-11T13:15:13.99Z</time></trkpt><trkpt lat="44.811531" lon="9.2867755"><ele>902.0</ele><time>2026-04-11T13:15:14.991Z</time></trkpt><trkpt lat="44.8116306" lon="9.286883"><ele>902.0</ele><time>2026-04-11T13:15:15.99Z</time></trkpt><trkpt lat="44.8117186" lon="9.286987"><ele>902.0</ele><time>2026-04-11T13:15:16.991Z</time></trkpt><trkpt lat="44.8117891" lon="9.2871034"><ele>902.0</ele><time>2026-04-11T13:15:17.991Z</time></trkpt><trkpt lat="44.8118448" lon="9.2872518"><ele>906.0</ele><time>2026-04-11T13:15:18.991Z</time></trkpt><trkpt lat="44.8119072" lon="9.2873987"><ele>910.0</ele><time>2026-04-11T13:15:19.991Z</time></trkpt><trkpt lat="44.8119776" lon="9.2875267"><ele>914.0</ele><time>2026-04-11T13:15:20.991Z</time></trkpt><trkpt lat="44.8120514" lon="9.2876388"><ele>918.0</ele><time>2026-04-11T13:15:21.991Z</time></trkpt><trkpt lat="44.8121207" lon="9.28774"><ele>922.0</ele><time>2026-04-11T13:15:22.991Z</time></trkpt><trkpt lat="44.8121768" lon="9.2878462"><ele>921.9999999999999</ele><time>2026-04-11T13:15:23.991Z</time></trkpt><trkpt lat="44.8122291" lon="9.2879411"><ele>922.0</ele><time>2026-04-11T13:15:24.991Z</time></trkpt><trkpt lat="44.8122835" lon="9.288007"><ele>922.0</ele><time>2026-04-11T13:15:25.991Z</time></trkpt><trkpt lat="44.8123477" lon="9.2880318"><ele>922.0</ele><time>2026-04-11T13:15:26.991Z</time></trkpt><trkpt lat="44.812423" lon="9.2880058"><ele>921.9999999999999</ele><time>2026-04-11T13:15:27.991Z</time></trkpt><trkpt lat="44.812484" lon="9.2879096"><ele>922.0</ele><time>2026-04-11T13:15:28.991Z</time></trkpt><trkpt lat="44.8125045" lon="9.2877897"><ele>922.0</ele><time>2026-04-11T13:15:29.991Z</time></trkpt><trkpt lat="44.812491" lon="9.2876668"><ele>922.0</ele><time>2026-04-11T13:15:30.991Z</time></trkpt><trkpt lat="44.8124505" lon="9.2875568"><ele>922.0</ele><time>2026-04-11T13:15:31.991Z</time></trkpt><trkpt lat="44.8123845" lon="9.2874567"><ele>922.0</ele><time>2026-04-11T13:15:32.991Z</time></trkpt><trkpt lat="44.8122959" lon="9.2873418"><ele>922.0</ele><time>2026-04-11T13:15:33.991Z</time></trkpt><trkpt lat="44.8122199" lon="9.2872081"><ele>922.25</ele><time>2026-04-11T13:15:34.991Z</time></trkpt><trkpt lat="44.8121587" lon="9.2870363"><ele>922.5</ele><time>2026-04-11T13:15:35.991Z</time></trkpt><trkpt lat="44.8121059" lon="9.2868731"><ele>922.75</ele><time>2026-04-11T13:15:36.991Z</time></trkpt><trkpt lat="44.8120457" lon="9.2867257"><ele>923.0</ele><time>2026-04-11T13:15:37.992Z</time></trkpt><trkpt lat="44.8119796" lon="9.2866009"><ele>923.0</ele><time>2026-04-11T13:15:38.992Z</time></trkpt><trkpt lat="44.8119365" lon="9.2864738"><ele>923.0</ele><time>2026-04-11T13:15:39.992Z</time></trkpt><trkpt lat="44.8119069" lon="9.2863281"><ele>923.0</ele><time>2026-04-11T13:15:40.992Z</time></trkpt><trkpt lat="44.811901" lon="9.2861723"><ele>923.0</ele><time>2026-04-11T13:15:41.992Z</time></trkpt><trkpt lat="44.811916" lon="9.2860078"><ele>923.0</ele><time>2026-04-11T13:15:42.992Z</time></trkpt><trkpt lat="44.8119264" lon="9.2858404"><ele>921.4</ele><time>2026-04-11T13:15:43.991Z</time></trkpt><trkpt lat="44.8119233" lon="9.2856838"><ele>919.8</ele><time>2026-04-11T13:15:44.992Z</time></trkpt><trkpt lat="44.8119091" lon="9.2855434"><ele>918.2</ele><time>2026-04-11T13:15:45.992Z</time></trkpt><trkpt lat="44.8119015" lon="9.2854175"><ele>916.6</ele><time>2026-04-11T13:15:46.992Z</time></trkpt><trkpt lat="44.811901" lon="9.2852943"><ele>915.0</ele><time>2026-04-11T13:15:47.992Z</time></trkpt><trkpt lat="44.8119193" lon="9.2851838"><ele>910.0</ele><time>2026-04-11T13:15:48.992Z</time></trkpt><trkpt lat="44.8119955" lon="9.2851229"><ele>905.0</ele><time>2026-04-11T13:15:49.991Z</time></trkpt><trkpt lat="44.812108" lon="9.2850897"><ele>900.0</ele><time>2026-04-11T13:15:50.991Z</time></trkpt><trkpt lat="44.8122219" lon="9.2850056"><ele>895.0</ele><time>2026-04-11T13:15:51.991Z</time></trkpt><trkpt lat="44.8123087" lon="9.2848522"><ele>888.3333333333333</ele><time>2026-04-11T13:15:52.992Z</time></trkpt><trkpt lat="44.8123864" lon="9.2846725"><ele>881.6666666666667</ele><time>2026-04-11T13:15:53.992Z</time></trkpt><trkpt lat="44.8124628" lon="9.2844887"><ele>875.0</ele><time>2026-04-11T13:15:54.992Z</time></trkpt><trkpt lat="44.812552" lon="9.2843085"><ele>875.0</ele><time>2026-04-11T13:15:55.992Z</time></trkpt><trkpt lat="44.8126485" lon="9.2841321"><ele>875.0</ele><time>2026-04-11T13:15:56.992Z</time></trkpt><trkpt lat="44.8127337" lon="9.2839474"><ele>875.0</ele><time>2026-04-11T13:15:57.992Z</time></trkpt><trkpt lat="44.812818" lon="9.2837701"><ele>877.5</ele><time>2026-04-11T13:15:58.992Z</time></trkpt><trkpt lat="44.8129134" lon="9.2836081"><ele>880.0</ele><time>2026-04-11T13:15:59.992Z</time></trkpt><trkpt lat="44.8130218" lon="9.2834668"><ele>882.5</ele><time>2026-04-11T13:16:00.992Z</time></trkpt><trkpt lat="44.8131178" lon="9.283339"><ele>885.0</ele><time>2026-04-11T13:16:01.992Z</time></trkpt><trkpt lat="44.8131816" lon="9.2832167"><ele>882.0</ele><time>2026-04-11T13:16:02.992Z</time></trkpt><trkpt lat="44.8132351" lon="9.2830941"><ele>879.0</ele><time>2026-04-11T13:16:03.991Z</time></trkpt><trkpt lat="44.8132913" lon="9.2829922"><ele>876.0</ele><time>2026-04-11T13:16:04.991Z</time></trkpt><trkpt lat="44.8133641" lon="9.2829189"><ele>873.0</ele><time>2026-04-11T13:16:05.991Z</time></trkpt><trkpt lat="44.8134871" lon="9.2828727"><ele>870.0</ele><time>2026-04-11T13:16:06.992Z</time></trkpt><trkpt lat="44.8136359" lon="9.2828265"><ele>870.0</ele><time>2026-04-11T13:16:07.992Z</time></trkpt><trkpt lat="44.8137665" lon="9.2827781"><ele>870.0</ele><time>2026-04-11T13:16:08.991Z</time></trkpt><trkpt lat="44.8138818" lon="9.2827501"><ele>870.0</ele><time>2026-04-11T13:16:09.992Z</time></trkpt><trkpt lat="44.8139821" lon="9.2827533"><ele>870.0</ele><time>2026-04-11T13:16:10.991Z</time></trkpt><trkpt lat="44.814074" lon="9.2827482"><ele>870.0</ele><time>2026-04-11T13:16:11.992Z</time></trkpt><trkpt lat="44.8141586" lon="9.2826993"><ele>870.0</ele><time>2026-04-11T13:16:12.992Z</time></trkpt><trkpt lat="44.8142051" lon="9.2825972"><ele>870.0</ele><time>2026-04-11T13:16:13.992Z</time></trkpt><trkpt lat="44.8142183" lon="9.2824811"><ele>870.0</ele><time>2026-04-11T13:16:14.991Z</time></trkpt><trkpt lat="44.8141847" lon="9.2823719"><ele>870.0</ele><time>2026-04-11T13:16:15.992Z</time></trkpt><trkpt lat="44.8141005" lon="9.2823021"><ele>870.0</ele><time>2026-04-11T13:16:16.992Z</time></trkpt><trkpt lat="44.8139911" lon="9.2822728"><ele>870.0</ele><time>2026-04-11T13:16:17.992Z</time></trkpt><trkpt lat="44.8138729" lon="9.2822632"><ele>870.0</ele><time>2026-04-11T13:16:18.991Z</time></trkpt><trkpt lat="44.8137529" lon="9.2822545"><ele>870.0</ele><time>2026-04-11T13:16:19.992Z</time></trkpt><trkpt lat="44.8136326" lon="9.2822638"><ele>870.0</ele><time>2026-04-11T13:16:20.992Z</time></trkpt><trkpt lat="44.8135244" lon="9.2823014"><ele>871.4</ele><time>2026-04-11T13:16:21.991Z</time></trkpt><trkpt lat="44.813425" lon="9.2823464"><ele>872.8</ele><time>2026-04-11T13:16:22.992Z</time></trkpt><trkpt lat="44.8133275" lon="9.2823702"><ele>874.2</ele><time>2026-04-11T13:16:23.992Z</time></trkpt><trkpt lat="44.8132293" lon="9.2823476"><ele>875.6</ele><time>2026-04-11T13:16:24.992Z</time></trkpt><trkpt lat="44.8131252" lon="9.2822812"><ele>877.0</ele><time>2026-04-11T13:16:25.991Z</time></trkpt><trkpt lat="44.8130141" lon="9.2822142"><ele>877.0</ele><time>2026-04-11T13:16:26.991Z</time></trkpt><trkpt lat="44.8129036" lon="9.2821646"><ele>877.0</ele><time>2026-04-11T13:16:27.993Z</time></trkpt><trkpt lat="44.8127969" lon="9.2821134"><ele>877.0</ele><time>2026-04-11T13:16:28.993Z</time></trkpt><trkpt lat="44.8127064" lon="9.2820586"><ele>877.0</ele><time>2026-04-11T13:16:29.993Z</time></trkpt><trkpt lat="44.8126284" lon="9.2819938"><ele>877.0</ele><time>2026-04-11T13:16:30.992Z</time></trkpt><trkpt lat="44.8125763" lon="9.2818966"><ele>869.0</ele><time>2026-04-11T13:16:31.993Z</time></trkpt><trkpt lat="44.8125514" lon="9.2817629"><ele>861.0</ele><time>2026-04-11T13:16:32.992Z</time></trkpt><trkpt lat="44.8125402" lon="9.281595"><ele>853.0</ele><time>2026-04-11T13:16:33.993Z</time></trkpt><trkpt lat="44.8125199" lon="9.2814269"><ele>845.0</ele><time>2026-04-11T13:16:34.993Z</time></trkpt><trkpt lat="44.8124906" lon="9.2812609"><ele>845.0</ele><time>2026-04-11T13:16:35.992Z</time></trkpt><trkpt lat="44.8124521" lon="9.2810953"><ele>845.0</ele><time>2026-04-11T13:16:36.993Z</time></trkpt><trkpt lat="44.8124051" lon="9.2809361"><ele>845.0</ele><time>2026-04-11T13:16:37.993Z</time></trkpt><trkpt lat="44.8123559" lon="9.280787"><ele>845.0</ele><time>2026-04-11T13:16:38.993Z</time></trkpt><trkpt lat="44.8123141" lon="9.2806306"><ele>845.25</ele><time>2026-04-11T13:16:39.992Z</time></trkpt><trkpt lat="44.8122756" lon="9.28047"><ele>845.5</ele><time>2026-04-11T13:16:40.993Z</time></trkpt><trkpt lat="44.8122374" lon="9.2803178"><ele>845.75</ele><time>2026-04-11T13:16:41.993Z</time></trkpt><trkpt lat="44.812205" lon="9.2801704"><ele>846.0</ele><time>2026-04-11T13:16:42.993Z</time></trkpt><trkpt lat="44.8121754" lon="9.280028"><ele>846.0</ele><time>2026-04-11T13:16:43.993Z</time></trkpt><trkpt lat="44.8121549" lon="9.2798831"><ele>846.0</ele><time>2026-04-11T13:16:44.993Z</time></trkpt><trkpt lat="44.8121405" lon="9.2797375"><ele>846.0</ele><time>2026-04-11T13:16:45.992Z</time></trkpt><trkpt lat="44.8121367" lon="9.2795879"><ele>846.0</ele><time>2026-04-11T13:16:46.992Z</time></trkpt><trkpt lat="44.8121587" lon="9.2794394"><ele>846.0</ele><time>2026-04-11T13:16:47.993Z</time></trkpt><trkpt lat="44.8121991" lon="9.2792966"><ele>845.0</ele><time>2026-04-11T13:16:48.993Z</time></trkpt><trkpt lat="44.8122492" lon="9.2791682"><ele>844.0</ele><time>2026-04-11T13:16:49.993Z</time></trkpt><trkpt lat="44.8122851" lon="9.2790513"><ele>843.0</ele><time>2026-04-11T13:16:50.993Z</time></trkpt><trkpt lat="44.8122921" lon="9.2789285"><ele>842.0</ele><time>2026-04-11T13:16:51.993Z</time></trkpt><trkpt lat="44.8122681" lon="9.2787909"><ele>841.0</ele><time>2026-04-11T13:16:52.993Z</time></trkpt><trkpt lat="44.8122048" lon="9.2786379"><ele>840.0</ele><time>2026-04-11T13:16:53.993Z</time></trkpt><trkpt lat="44.8121372" lon="9.2784815"><ele>839.0</ele><time>2026-04-11T13:16:54.993Z</time></trkpt><trkpt lat="44.8120789" lon="9.2783334"><ele>838.0</ele><time>2026-04-11T13:16:55.993Z</time></trkpt><trkpt lat="44.8120402" lon="9.2781883"><ele>837.0</ele><time>2026-04-11T13:16:56.992Z</time></trkpt><trkpt lat="44.8120192" lon="9.2780499"><ele>835.8</ele><time>2026-04-11T13:16:57.992Z</time></trkpt><trkpt lat="44.812008" lon="9.2779214"><ele>834.6</ele><time>2026-04-11T13:16:58.993Z</time></trkpt><trkpt lat="44.8120006" lon="9.2777901"><ele>833.4</ele><time>2026-04-11T13:16:59.993Z</time></trkpt><trkpt lat="44.8119991" lon="9.2776532"><ele>832.1999999999999</ele><time>2026-04-11T13:17:00.993Z</time></trkpt><trkpt lat="44.811989" lon="9.2775077"><ele>831.0</ele><time>2026-04-11T13:17:01.993Z</time></trkpt><trkpt lat="44.8119813" lon="9.2773634"><ele>830.4</ele><time>2026-04-11T13:17:02.993Z</time></trkpt><trkpt lat="44.811975" lon="9.277215"><ele>829.8</ele><time>2026-04-11T13:17:03.992Z</time></trkpt><trkpt lat="44.8119608" lon="9.2770681"><ele>829.1999999999999</ele><time>2026-04-11T13:17:04.993Z</time></trkpt><trkpt lat="44.8119409" lon="9.2769232"><ele>828.5999999999999</ele><time>2026-04-11T13:17:05.993Z</time></trkpt><trkpt lat="44.8119128" lon="9.2767854"><ele>828.0</ele><time>2026-04-11T13:17:06.993Z</time></trkpt><trkpt lat="44.8118732" lon="9.2766497"><ele>828.0</ele><time>2026-04-11T13:17:07.993Z</time></trkpt><trkpt lat="44.8118375" lon="9.2765218"><ele>828.0</ele><time>2026-04-11T13:17:08.993Z</time></trkpt><trkpt lat="44.8117973" lon="9.2764009"><ele>828.0</ele><time>2026-04-11T13:17:09.993Z</time></trkpt><trkpt lat="44.8117599" lon="9.2762861"><ele>828.0</ele><time>2026-04-11T13:17:10.993Z</time></trkpt><trkpt lat="44.8117316" lon="9.276168"><ele>828.0</ele><time>2026-04-11T13:17:11.993Z</time></trkpt><trkpt lat="44.8117307" lon="9.2760417"><ele>828.0</ele><time>2026-04-11T13:17:12.993Z</time></trkpt><trkpt lat="44.8117703" lon="9.2759097"><ele>828.0</ele><time>2026-04-11T13:17:13.992Z</time></trkpt><trkpt lat="44.811823" lon="9.27577"><ele>828.0</ele><time>2026-04-11T13:17:14.993Z</time></trkpt><trkpt lat="44.8118639" lon="9.2756203"><ele>828.0</ele><time>2026-04-11T13:17:15.993Z</time></trkpt><trkpt lat="44.8118879" lon="9.2754698"><ele>828.0</ele><time>2026-04-11T13:17:16.993Z</time></trkpt><trkpt lat="44.8118928" lon="9.2753337"><ele>827.5999999999999</ele><time>2026-04-11T13:17:17.993Z</time></trkpt><trkpt lat="44.8118719" lon="9.2752033"><ele>827.1999999999999</ele><time>2026-04-11T13:17:18.994Z</time></trkpt><trkpt lat="44.8118102" lon="9.2750822"><ele>826.8</ele><time>2026-04-11T13:17:19.994Z</time></trkpt><trkpt lat="44.8117272" lon="9.2749776"><ele>826.4</ele><time>2026-04-11T13:17:20.994Z</time></trkpt><trkpt lat="44.8116617" lon="9.2748719"><ele>826.0</ele><time>2026-04-11T13:17:21.993Z</time></trkpt><trkpt lat="44.8116217" lon="9.2747459"><ele>817.5</ele><time>2026-04-11T13:17:22.994Z</time></trkpt><trkpt lat="44.8116017" lon="9.2745899"><ele>809.0</ele><time>2026-04-11T13:17:23.994Z</time></trkpt><trkpt lat="44.8116023" lon="9.2744212"><ele>800.5</ele><time>2026-04-11T13:17:24.994Z</time></trkpt><trkpt lat="44.8116048" lon="9.2742452"><ele>792.0</ele><time>2026-04-11T13:17:25.994Z</time></trkpt><trkpt lat="44.8116018" lon="9.2740643"><ele>790.25</ele><time>2026-04-11T13:17:26.993Z</time></trkpt><trkpt lat="44.8115942" lon="9.2738758"><ele>788.5</ele><time>2026-04-11T13:17:27.994Z</time></trkpt><trkpt lat="44.8115919" lon="9.2736811"><ele>786.75</ele><time>2026-04-11T13:17:28.994Z</time></trkpt><trkpt lat="44.8115926" lon="9.2734814"><ele>785.0</ele><time>2026-04-11T13:17:29.993Z</time></trkpt><trkpt lat="44.8116" lon="9.2732793"><ele>784.0</ele><time>2026-04-11T13:17:30.994Z</time></trkpt><trkpt lat="44.8116105" lon="9.273081"><ele>783.0</ele><time>2026-04-11T13:17:31.993Z</time></trkpt><trkpt lat="44.8116224" lon="9.272889"><ele>782.0</ele><time>2026-04-11T13:17:32.994Z</time></trkpt><trkpt lat="44.8116339" lon="9.2726946"><ele>781.0</ele><time>2026-04-11T13:17:33.994Z</time></trkpt><trkpt lat="44.8116457" lon="9.2725012"><ele>781.0</ele><time>2026-04-11T13:17:34.994Z</time></trkpt><trkpt lat="44.8116602" lon="9.2723146"><ele>781.0</ele><time>2026-04-11T13:17:35.994Z</time></trkpt><trkpt lat="44.81167" lon="9.2721349"><ele>781.0</ele><time>2026-04-11T13:17:36.994Z</time></trkpt><trkpt lat="44.8116772" lon="9.271955"><ele>781.0</ele><time>2026-04-11T13:17:37.993Z</time></trkpt><trkpt lat="44.8116864" lon="9.2717863"><ele>779.8</ele><time>2026-04-11T13:17:38.993Z</time></trkpt><trkpt lat="44.8116994" lon="9.2716213"><ele>778.5999999999999</ele><time>2026-04-11T13:17:39.994Z</time></trkpt><trkpt lat="44.8117143" lon="9.2714632"><ele>777.4</ele><time>2026-04-11T13:17:40.994Z</time></trkpt><trkpt lat="44.8117377" lon="9.2713143"><ele>776.2</ele><time>2026-04-11T13:17:41.993Z</time></trkpt><trkpt lat="44.8117726" lon="9.271183"><ele>775.0</ele><time>2026-04-11T13:17:42.994Z</time></trkpt><trkpt lat="44.8118175" lon="9.2710715"><ele>773.6666666666666</ele><time>2026-04-11T13:17:43.994Z</time></trkpt><trkpt lat="44.8118612" lon="9.2709735"><ele>772.3333333333333</ele><time>2026-04-11T13:17:44.993Z</time></trkpt><trkpt lat="44.8118895" lon="9.2708668"><ele>771.0</ele><time>2026-04-11T13:17:45.994Z</time></trkpt><trkpt lat="44.8118849" lon="9.2707576"><ele>769.6666666666666</ele><time>2026-04-11T13:17:46.994Z</time></trkpt><trkpt lat="44.8118466" lon="9.270672"><ele>768.3333333333333</ele><time>2026-04-11T13:17:47.993Z</time></trkpt><trkpt lat="44.8117696" lon="9.270629"><ele>767.0</ele><time>2026-04-11T13:17:48.994Z</time></trkpt><trkpt lat="44.8116818" lon="9.2706499"><ele>767.0</ele><time>2026-04-11T13:17:49.994Z</time></trkpt><trkpt lat="44.8116006" lon="9.2707179"><ele>767.0</ele><time>2026-04-11T13:17:50.993Z</time></trkpt><trkpt lat="44.8115274" lon="9.2708124"><ele>767.0</ele><time>2026-04-11T13:17:51.993Z</time></trkpt><trkpt lat="44.8114531" lon="9.2709035"><ele>767.0</ele><time>2026-04-11T13:17:52.994Z</time></trkpt><trkpt lat="44.8113724" lon="9.2709943"><ele>767.0</ele><time>2026-04-11T13:17:53.994Z</time></trkpt><trkpt lat="44.811288" lon="9.2710923"><ele>767.0</ele><time>2026-04-11T13:17:54.993Z</time></trkpt><trkpt lat="44.8112012" lon="9.271206"><ele>767.0</ele><time>2026-04-11T13:17:55.993Z</time></trkpt><trkpt lat="44.8111118" lon="9.2713237"><ele>767.0</ele><time>2026-04-11T13:17:56.994Z</time></trkpt><trkpt lat="44.8110282" lon="9.2714471"><ele>767.0</ele><time>2026-04-11T13:17:57.994Z</time></trkpt><trkpt lat="44.8109574" lon="9.2715717"><ele>765.25</ele><time>2026-04-11T13:17:58.994Z</time></trkpt><trkpt lat="44.8108938" lon="9.2717028"><ele>763.5</ele><time>2026-04-11T13:17:59.993Z</time></trkpt><trkpt lat="44.8108343" lon="9.2718395"><ele>761.75</ele><time>2026-04-11T13:18:00.993Z</time></trkpt><trkpt lat="44.8107872" lon="9.271993"><ele>760.0</ele><time>2026-04-11T13:18:01.994Z</time></trkpt><trkpt lat="44.810742" lon="9.272152"><ele>761.0</ele><time>2026-04-11T13:18:02.994Z</time></trkpt><trkpt lat="44.810693" lon="9.2723097"><ele>762.0</ele><time>2026-04-11T13:18:03.994Z</time></trkpt><trkpt lat="44.810637" lon="9.2724673"><ele>763.0</ele><time>2026-04-11T13:18:04.993Z</time></trkpt><trkpt lat="44.8105664" lon="9.2726043"><ele>764.0</ele><time>2026-04-11T13:18:05.994Z</time></trkpt><trkpt lat="44.8104788" lon="9.2727085"><ele>764.0</ele><time>2026-04-11T13:18:06.995Z</time></trkpt><trkpt lat="44.8103904" lon="9.2727989"><ele>764.0</ele><time>2026-04-11T13:18:07.995Z</time></trkpt><trkpt lat="44.8103134" lon="9.2728998"><ele>764.0</ele><time>2026-04-11T13:18:08.994Z</time></trkpt><trkpt lat="44.8102595" lon="9.2730105"><ele>764.0</ele><time>2026-04-11T13:18:09.994Z</time></trkpt><trkpt lat="44.81023" lon="9.2731327"><ele>764.0</ele><time>2026-04-11T13:18:10.995Z</time></trkpt><trkpt lat="44.8102195" lon="9.2732494"><ele>764.4000000000001</ele><time>2026-04-11T13:18:11.995Z</time></trkpt><trkpt lat="44.8102195" lon="9.2733493"><ele>764.8</ele><time>2026-04-11T13:18:12.995Z</time></trkpt><trkpt lat="44.8101598" lon="9.2734982"><ele>765.2</ele><time>2026-04-11T13:18:14.995Z</time></trkpt><trkpt lat="44.8100425" lon="9.2734837"><ele>765.5999999999999</ele><time>2026-04-11T13:18:16.995Z</time></trkpt><trkpt lat="44.8100003" lon="9.2733976"><ele>766.0</ele><time>2026-04-11T13:18:17.994Z</time></trkpt><trkpt lat="44.8099797" lon="9.2732747"><ele>761.8</ele><time>2026-04-11T13:18:18.995Z</time></trkpt><trkpt lat="44.8099824" lon="9.2731409"><ele>757.5999999999999</ele><time>2026-04-11T13:18:19.995Z</time></trkpt><trkpt lat="44.8099728" lon="9.2730113"><ele>753.4</ele><time>2026-04-11T13:18:20.994Z</time></trkpt><trkpt lat="44.8099598" lon="9.2728699"><ele>749.2</ele><time>2026-04-11T13:18:21.995Z</time></trkpt><trkpt lat="44.8099488" lon="9.2727149"><ele>745.0</ele><time>2026-04-11T13:18:22.995Z</time></trkpt><trkpt lat="44.8099426" lon="9.2725414"><ele>744.5</ele><time>2026-04-11T13:18:23.995Z</time></trkpt><trkpt lat="44.8099283" lon="9.2723645"><ele>744.0</ele><time>2026-04-11T13:18:24.995Z</time></trkpt><trkpt lat="44.8099047" lon="9.2721912"><ele>743.5</ele><time>2026-04-11T13:18:25.995Z</time></trkpt><trkpt lat="44.8098719" lon="9.2720292"><ele>743.0</ele><time>2026-04-11T13:18:26.995Z</time></trkpt><trkpt lat="44.8098476" lon="9.2718748"><ele>743.0</ele><time>2026-04-11T13:18:27.994Z</time></trkpt><trkpt lat="44.8098292" lon="9.2717214"><ele>743.0</ele><time>2026-04-11T13:18:28.995Z</time></trkpt><trkpt lat="44.8098087" lon="9.2715633"><ele>743.0</ele><time>2026-04-11T13:18:29.995Z</time></trkpt><trkpt lat="44.8098006" lon="9.2714026"><ele>743.0</ele><time>2026-04-11T13:18:30.994Z</time></trkpt><trkpt lat="44.8098063" lon="9.2712348"><ele>741.5999999999999</ele><time>2026-04-11T13:18:31.995Z</time></trkpt><trkpt lat="44.8098215" lon="9.2710732"><ele>740.1999999999999</ele><time>2026-04-11T13:18:32.995Z</time></trkpt><trkpt lat="44.8098532" lon="9.2709251"><ele>738.8</ele><time>2026-04-11T13:18:33.995Z</time></trkpt><trkpt lat="44.8099001" lon="9.2707962"><ele>737.4</ele><time>2026-04-11T13:18:34.995Z</time></trkpt><trkpt lat="44.809953" lon="9.2706856"><ele>736.0</ele><time>2026-04-11T13:18:35.995Z</time></trkpt><trkpt lat="44.8100113" lon="9.2705875"><ele>736.6666666666667</ele><time>2026-04-11T13:18:36.995Z</time></trkpt><trkpt lat="44.8100787" lon="9.2705112"><ele>737.3333333333334</ele><time>2026-04-11T13:18:37.995Z</time></trkpt><trkpt lat="44.810131" lon="9.2704306"><ele>738.0</ele><time>2026-04-11T13:18:38.995Z</time></trkpt><trkpt lat="44.8101615" lon="9.2703432"><ele>738.6666666666666</ele><time>2026-04-11T13:18:39.995Z</time></trkpt><trkpt lat="44.8101535" lon="9.2702424"><ele>739.3333333333333</ele><time>2026-04-11T13:18:40.995Z</time></trkpt><trkpt lat="44.8101124" lon="9.2701538"><ele>740.0</ele><time>2026-04-11T13:18:41.995Z</time></trkpt><trkpt lat="44.8100514" lon="9.2700967"><ele>737.2</ele><time>2026-04-11T13:18:42.994Z</time></trkpt><trkpt lat="44.8099736" lon="9.2700964"><ele>734.4</ele><time>2026-04-11T13:18:43.994Z</time></trkpt><trkpt lat="44.8099008" lon="9.2701538"><ele>731.5999999999999</ele><time>2026-04-11T13:18:44.995Z</time></trkpt><trkpt lat="44.8098446" lon="9.2702538"><ele>728.8</ele><time>2026-04-11T13:18:45.994Z</time></trkpt><trkpt lat="44.8097875" lon="9.2703679"><ele>726.0</ele><time>2026-04-11T13:18:46.995Z</time></trkpt><trkpt lat="44.8097219" lon="9.270476"><ele>726.0</ele><time>2026-04-11T13:18:47.995Z</time></trkpt><trkpt lat="44.8096515" lon="9.2705841"><ele>726.0</ele><time>2026-04-11T13:18:48.994Z</time></trkpt><trkpt lat="44.809576" lon="9.2706996"><ele>726.0</ele><time>2026-04-11T13:18:49.994Z</time></trkpt><trkpt lat="44.8094939" lon="9.2708236"><ele>726.0</ele><time>2026-04-11T13:18:50.995Z</time></trkpt><trkpt lat="44.8094085" lon="9.2709445"><ele>724.6666666666666</ele><time>2026-04-11T13:18:51.995Z</time></trkpt><trkpt lat="44.8093278" lon="9.2710585"><ele>723.3333333333334</ele><time>2026-04-11T13:18:52.995Z</time></trkpt><trkpt lat="44.8092535" lon="9.271164"><ele>722.0</ele><time>2026-04-11T13:18:53.995Z</time></trkpt><trkpt lat="44.8091885" lon="9.2712485"><ele>720.6666666666667</ele><time>2026-04-11T13:18:54.994Z</time></trkpt><trkpt lat="44.8091306" lon="9.2713157"><ele>719.3333333333334</ele><time>2026-04-11T13:18:55.996Z</time></trkpt><trkpt lat="44.8090715" lon="9.271353"><ele>718.0</ele><time>2026-04-11T13:18:56.996Z</time></trkpt><trkpt lat="44.8090046" lon="9.2713383"><ele>718.0</ele><time>2026-04-11T13:18:57.996Z</time></trkpt><trkpt lat="44.8089483" lon="9.2712805"><ele>718.0</ele><time>2026-04-11T13:18:58.996Z</time></trkpt><trkpt lat="44.8089086" lon="9.2711794"><ele>718.0</ele><time>2026-04-11T13:18:59.996Z</time></trkpt><trkpt lat="44.8088933" lon="9.2710644"><ele>718.0</ele><time>2026-04-11T13:19:00.996Z</time></trkpt><trkpt lat="44.8089119" lon="9.2709505"><ele>718.0</ele><time>2026-04-11T13:19:01.996Z</time></trkpt><trkpt lat="44.8089566" lon="9.2708416"><ele>718.0</ele><time>2026-04-11T13:19:02.996Z</time></trkpt><trkpt lat="44.8090147" lon="9.2707404"><ele>718.0</ele><time>2026-04-11T13:19:03.996Z</time></trkpt><trkpt lat="44.8090681" lon="9.2706287"><ele>718.0</ele><time>2026-04-11T13:19:04.996Z</time></trkpt><trkpt lat="44.8091216" lon="9.2705131"><ele>718.0</ele><time>2026-04-11T13:19:05.996Z</time></trkpt><trkpt lat="44.8091738" lon="9.2703855"><ele>718.0</ele><time>2026-04-11T13:19:06.996Z</time></trkpt><trkpt lat="44.8092186" lon="9.270251"><ele>718.0</ele><time>2026-04-11T13:19:07.996Z</time></trkpt><trkpt lat="44.8092599" lon="9.2701129"><ele>717.4</ele><time>2026-04-11T13:19:08.996Z</time></trkpt><trkpt lat="44.8092966" lon="9.2699764"><ele>716.8</ele><time>2026-04-11T13:19:09.996Z</time></trkpt><trkpt lat="44.8093301" lon="9.2698386"><ele>716.2</ele><time>2026-04-11T13:19:10.995Z</time></trkpt><trkpt lat="44.8093577" lon="9.2697032"><ele>715.6</ele><time>2026-04-11T13:19:11.996Z</time></trkpt><trkpt lat="44.8093829" lon="9.2695638"><ele>715.0</ele><time>2026-04-11T13:19:12.996Z</time></trkpt><trkpt lat="44.8094155" lon="9.2694196"><ele>715.0</ele><time>2026-04-11T13:19:13.995Z</time></trkpt><trkpt lat="44.8094551" lon="9.26928"><ele>715.0</ele><time>2026-04-11T13:19:14.996Z</time></trkpt><trkpt lat="44.8094991" lon="9.2691414"><ele>715.0</ele><time>2026-04-11T13:19:15.995Z</time></trkpt><trkpt lat="44.8095433" lon="9.269004"><ele>715.0</ele><time>2026-04-11T13:19:16.996Z</time></trkpt><trkpt lat="44.8095949" lon="9.2688688"><ele>715.0</ele><time>2026-04-11T13:19:17.996Z</time></trkpt><trkpt lat="44.8096569" lon="9.2687395"><ele>711.8</ele><time>2026-04-11T13:19:18.996Z</time></trkpt><trkpt lat="44.8097298" lon="9.268626"><ele>708.6</ele><time>2026-04-11T13:19:19.996Z</time></trkpt><trkpt lat="44.8098073" lon="9.2685148"><ele>705.4000000000001</ele><time>2026-04-11T13:19:20.996Z</time></trkpt><trkpt lat="44.8098837" lon="9.268395"><ele>702.2</ele><time>2026-04-11T13:19:21.995Z</time></trkpt><trkpt lat="44.8099531" lon="9.2682652"><ele>699.0</ele><time>2026-04-11T13:19:22.995Z</time></trkpt><trkpt lat="44.8100189" lon="9.2681309"><ele>699.2</ele><time>2026-04-11T13:19:23.996Z</time></trkpt><trkpt lat="44.8100844" lon="9.267994"><ele>699.4000000000001</ele><time>2026-04-11T13:19:24.996Z</time></trkpt><trkpt lat="44.8101495" lon="9.2678729"><ele>699.6</ele><time>2026-04-11T13:19:25.996Z</time></trkpt><trkpt lat="44.8102224" lon="9.2677559"><ele>699.8</ele><time>2026-04-11T13:19:26.996Z</time></trkpt><trkpt lat="44.810304" lon="9.2676476"><ele>700.0</ele><time>2026-04-11T13:19:27.995Z</time></trkpt><trkpt lat="44.8103852" lon="9.2675412"><ele>700.0</ele><time>2026-04-11T13:19:28.996Z</time></trkpt><trkpt lat="44.8104681" lon="9.2674388"><ele>700.0</ele><time>2026-04-11T13:19:29.996Z</time></trkpt><trkpt lat="44.8105498" lon="9.2673259"><ele>700.0</ele><time>2026-04-11T13:19:30.996Z</time></trkpt><trkpt lat="44.8106368" lon="9.2672071"><ele>700.0</ele><time>2026-04-11T13:19:31.996Z</time></trkpt><trkpt lat="44.8107196" lon="9.2670708"><ele>700.75</ele><time>2026-04-11T13:19:32.996Z</time></trkpt><trkpt lat="44.8107946" lon="9.266931"><ele>701.5</ele><time>2026-04-11T13:19:33.996Z</time></trkpt><trkpt lat="44.8108648" lon="9.2667889"><ele>702.25</ele><time>2026-04-11T13:19:34.996Z</time></trkpt><trkpt lat="44.8109285" lon="9.2666477"><ele>703.0</ele><time>2026-04-11T13:19:35.995Z</time></trkpt><trkpt lat="44.8109943" lon="9.266509"><ele>701.5</ele><time>2026-04-11T13:19:36.996Z</time></trkpt><trkpt lat="44.8110638" lon="9.2663699"><ele>700.0</ele><time>2026-04-11T13:19:37.996Z</time></trkpt><trkpt lat="44.8111262" lon="9.2662289"><ele>698.5</ele><time>2026-04-11T13:19:38.996Z</time></trkpt><trkpt lat="44.8111829" lon="9.266083"><ele>697.0</ele><time>2026-04-11T13:19:39.995Z</time></trkpt><trkpt lat="44.8112349" lon="9.2659523"><ele>697.0</ele><time>2026-04-11T13:19:40.995Z</time></trkpt><trkpt lat="44.8112845" lon="9.2658374"><ele>697.0</ele><time>2026-04-11T13:19:41.996Z</time></trkpt><trkpt lat="44.8113163" lon="9.2657211"><ele>697.0</ele><time>2026-04-11T13:19:42.996Z</time></trkpt><trkpt lat="44.8113199" lon="9.2655848"><ele>697.0</ele><time>2026-04-11T13:19:43.996Z</time></trkpt><trkpt lat="44.8112918" lon="9.2654475"><ele>697.0</ele><time>2026-04-11T13:19:44.997Z</time></trkpt><trkpt lat="44.8112301" lon="9.2653248"><ele>694.75</ele><time>2026-04-11T13:19:45.996Z</time></trkpt><trkpt lat="44.8111362" lon="9.2652274"><ele>692.5</ele><time>2026-04-11T13:19:46.997Z</time></trkpt><trkpt lat="44.8110325" lon="9.2651272"><ele>690.25</ele><time>2026-04-11T13:19:47.997Z</time></trkpt><trkpt lat="44.8109252" lon="9.2650097"><ele>688.0</ele><time>2026-04-11T13:19:48.997Z</time></trkpt><trkpt lat="44.8108232" lon="9.2648887"><ele>688.0</ele><time>2026-04-11T13:19:49.997Z</time></trkpt><trkpt lat="44.810735" lon="9.2647812"><ele>688.0</ele><time>2026-04-11T13:19:50.996Z</time></trkpt><trkpt lat="44.8106542" lon="9.2646804"><ele>688.0</ele><time>2026-04-11T13:19:51.996Z</time></trkpt><trkpt lat="44.8105756" lon="9.2645781"><ele>688.0</ele><time>2026-04-11T13:19:52.997Z</time></trkpt><trkpt lat="44.8104965" lon="9.2644733"><ele>688.0</ele><time>2026-04-11T13:19:53.997Z</time></trkpt><trkpt lat="44.8104195" lon="9.2643593"><ele>690.0</ele><time>2026-04-11T13:19:54.996Z</time></trkpt><trkpt lat="44.8103481" lon="9.2642378"><ele>692.0</ele><time>2026-04-11T13:19:55.997Z</time></trkpt><trkpt lat="44.8102871" lon="9.2641117"><ele>694.0</ele><time>2026-04-11T13:19:56.997Z</time></trkpt><trkpt lat="44.8102457" lon="9.2639795"><ele>696.0</ele><time>2026-04-11T13:19:57.997Z</time></trkpt><trkpt lat="44.810222" lon="9.2638369"><ele>698.0</ele><time>2026-04-11T13:19:58.997Z</time></trkpt><trkpt lat="44.8101928" lon="9.2636986"><ele>695.5</ele><time>2026-04-11T13:19:59.997Z</time></trkpt><trkpt lat="44.8101335" lon="9.2635728"><ele>693.0</ele><time>2026-04-11T13:20:00.997Z</time></trkpt><trkpt lat="44.8100509" lon="9.2634541"><ele>690.5</ele><time>2026-04-11T13:20:01.997Z</time></trkpt><trkpt lat="44.8099526" lon="9.2633484"><ele>688.0</ele><time>2026-04-11T13:20:02.996Z</time></trkpt><trkpt lat="44.8098457" lon="9.2632526"><ele>688.0</ele><time>2026-04-11T13:20:03.997Z</time></trkpt><trkpt lat="44.809743" lon="9.263154"><ele>688.0</ele><time>2026-04-11T13:20:04.997Z</time></trkpt><trkpt lat="44.8096469" lon="9.2630571"><ele>688.0</ele><time>2026-04-11T13:20:05.997Z</time></trkpt><trkpt lat="44.8095571" lon="9.2629692"><ele>688.0</ele><time>2026-04-11T13:20:06.997Z</time></trkpt><trkpt lat="44.809475" lon="9.2628824"><ele>687.0</ele><time>2026-04-11T13:20:07.996Z</time></trkpt><trkpt lat="44.8094004" lon="9.2627729"><ele>686.0</ele><time>2026-04-11T13:20:08.997Z</time></trkpt><trkpt lat="44.8093296" lon="9.2626481"><ele>685.0</ele><time>2026-04-11T13:20:09.996Z</time></trkpt><trkpt lat="44.8092589" lon="9.2625176"><ele>684.0</ele><time>2026-04-11T13:20:10.997Z</time></trkpt><trkpt lat="44.8091944" lon="9.2623893"><ele>683.0</ele><time>2026-04-11T13:20:11.997Z</time></trkpt><trkpt lat="44.809133" lon="9.2622521"><ele>683.0</ele><time>2026-04-11T13:20:12.997Z</time></trkpt><trkpt lat="44.8090808" lon="9.2621102"><ele>683.0</ele><time>2026-04-11T13:20:13.997Z</time></trkpt><trkpt lat="44.8090322" lon="9.261972"><ele>683.0</ele><time>2026-04-11T13:20:14.997Z</time></trkpt><trkpt lat="44.8089979" lon="9.2618398"><ele>683.0</ele><time>2026-04-11T13:20:15.997Z</time></trkpt><trkpt lat="44.8089727" lon="9.2617166"><ele>683.0</ele><time>2026-04-11T13:20:16.997Z</time></trkpt><trkpt lat="44.8089486" lon="9.2615974"><ele>683.0</ele><time>2026-04-11T13:20:17.996Z</time></trkpt><trkpt lat="44.8089325" lon="9.2614703"><ele>683.0</ele><time>2026-04-11T13:20:18.997Z</time></trkpt><trkpt lat="44.8089116" lon="9.2613414"><ele>683.0</ele><time>2026-04-11T13:20:19.997Z</time></trkpt><trkpt lat="44.8088906" lon="9.2612132"><ele>683.0</ele><time>2026-04-11T13:20:20.997Z</time></trkpt><trkpt lat="44.8088628" lon="9.2610862"><ele>683.0</ele><time>2026-04-11T13:20:21.997Z</time></trkpt><trkpt lat="44.8088388" lon="9.2609546"><ele>683.1666666666666</ele><time>2026-04-11T13:20:22.997Z</time></trkpt><trkpt lat="44.808816" lon="9.2608173"><ele>683.3333333333333</ele><time>2026-04-11T13:20:23.996Z</time></trkpt><trkpt lat="44.8087915" lon="9.2606902"><ele>683.5</ele><time>2026-04-11T13:20:24.996Z</time></trkpt><trkpt lat="44.8087754" lon="9.260579"><ele>683.6666666666666</ele><time>2026-04-11T13:20:25.997Z</time></trkpt><trkpt lat="44.8087882" lon="9.2604768"><ele>683.8333333333334</ele><time>2026-04-11T13:20:26.997Z</time></trkpt><trkpt lat="44.808837" lon="9.2603894"><ele>684.0</ele><time>2026-04-11T13:20:27.996Z</time></trkpt><trkpt lat="44.8089171" lon="9.2603241"><ele>683.0</ele><time>2026-04-11T13:20:28.997Z</time></trkpt><trkpt lat="44.8090053" lon="9.2602916"><ele>682.0</ele><time>2026-04-11T13:20:29.997Z</time></trkpt><trkpt lat="44.8090966" lon="9.2603165"><ele>681.0</ele><time>2026-04-11T13:20:30.997Z</time></trkpt><trkpt lat="44.8091884" lon="9.2603765"><ele>680.0</ele><time>2026-04-11T13:20:31.996Z</time></trkpt><trkpt lat="44.8092875" lon="9.2604179"><ele>679.0</ele><time>2026-04-11T13:20:32.997Z</time></trkpt><trkpt lat="44.8093944" lon="9.2604231"><ele>679.0</ele><time>2026-04-11T13:20:33.997Z</time></trkpt><trkpt lat="44.8095084" lon="9.2603851"><ele>679.0</ele><time>2026-04-11T13:20:34.998Z</time></trkpt><trkpt lat="44.8096203" lon="9.260316"><ele>679.0</ele><time>2026-04-11T13:20:35.997Z</time></trkpt><trkpt lat="44.8097314" lon="9.2602318"><ele>679.0</ele><time>2026-04-11T13:20:36.997Z</time></trkpt><trkpt lat="44.809845" lon="9.2601438"><ele>679.0</ele><time>2026-04-11T13:20:37.997Z</time></trkpt><trkpt lat="44.809966" lon="9.2600557"><ele>679.0</ele><time>2026-04-11T13:20:38.997Z</time></trkpt><trkpt lat="44.8100878" lon="9.259963"><ele>679.0</ele><time>2026-04-11T13:20:39.998Z</time></trkpt><trkpt lat="44.8102061" lon="9.2598697"><ele>679.0</ele><time>2026-04-11T13:20:40.998Z</time></trkpt><trkpt lat="44.8103148" lon="9.259778"><ele>677.75</ele><time>2026-04-11T13:20:41.998Z</time></trkpt><trkpt lat="44.8104155" lon="9.2596965"><ele>676.5</ele><time>2026-04-11T13:20:42.998Z</time></trkpt><trkpt lat="44.8105189" lon="9.2596419"><ele>675.25</ele><time>2026-04-11T13:20:43.998Z</time></trkpt><trkpt lat="44.8106307" lon="9.2596167"><ele>674.0</ele><time>2026-04-11T13:20:44.998Z</time></trkpt><trkpt lat="44.8107414" lon="9.2596013"><ele>674.0</ele><time>2026-04-11T13:20:45.998Z</time></trkpt><trkpt lat="44.8108514" lon="9.2595755"><ele>674.0</ele><time>2026-04-11T13:20:46.998Z</time></trkpt><trkpt lat="44.8109566" lon="9.2595242"><ele>674.0</ele><time>2026-04-11T13:20:47.998Z</time></trkpt><trkpt lat="44.8110563" lon="9.25945"><ele>674.0</ele><time>2026-04-11T13:20:48.998Z</time></trkpt><trkpt lat="44.8111421" lon="9.2593596"><ele>674.0</ele><time>2026-04-11T13:20:49.998Z</time></trkpt><trkpt lat="44.8112095" lon="9.2592602"><ele>676.2</ele><time>2026-04-11T13:20:50.998Z</time></trkpt><trkpt lat="44.8112631" lon="9.2591475"><ele>678.4000000000001</ele><time>2026-04-11T13:20:51.998Z</time></trkpt><trkpt lat="44.8112911" lon="9.2590151"><ele>680.6</ele><time>2026-04-11T13:20:52.997Z</time></trkpt><trkpt lat="44.8112912" lon="9.2588677"><ele>682.8</ele><time>2026-04-11T13:20:53.997Z</time></trkpt><trkpt lat="44.8112816" lon="9.2587151"><ele>685.0</ele><time>2026-04-11T13:20:54.997Z</time></trkpt><trkpt lat="44.8112738" lon="9.2585556"><ele>685.0</ele><time>2026-04-11T13:20:55.998Z</time></trkpt><trkpt lat="44.811264" lon="9.2583859"><ele>685.0</ele><time>2026-04-11T13:20:56.997Z</time></trkpt><trkpt lat="44.8112737" lon="9.2582191"><ele>685.0</ele><time>2026-04-11T13:20:57.997Z</time></trkpt><trkpt lat="44.8112991" lon="9.2580587"><ele>685.0</ele><time>2026-04-11T13:20:58.998Z</time></trkpt><trkpt lat="44.8113197" lon="9.2578954"><ele>684.4</ele><time>2026-04-11T13:20:59.998Z</time></trkpt><trkpt lat="44.8113189" lon="9.257735"><ele>683.8</ele><time>2026-04-11T13:21:00.998Z</time></trkpt><trkpt lat="44.8113134" lon="9.2575902"><ele>683.2</ele><time>2026-04-11T13:21:01.998Z</time></trkpt><trkpt lat="44.811323" lon="9.2574644"><ele>682.6</ele><time>2026-04-11T13:21:02.998Z</time></trkpt><trkpt lat="44.8113554" lon="9.2573491"><ele>682.0</ele><time>2026-04-11T13:21:03.997Z</time></trkpt><trkpt lat="44.8114158" lon="9.2572526"><ele>681.0</ele><time>2026-04-11T13:21:04.997Z</time></trkpt><trkpt lat="44.811501" lon="9.2571868"><ele>680.0</ele><time>2026-04-11T13:21:05.998Z</time></trkpt><trkpt lat="44.8115991" lon="9.2571407"><ele>679.0</ele><time>2026-04-11T13:21:06.998Z</time></trkpt><trkpt lat="44.8116971" lon="9.2570639"><ele>678.0</ele><time>2026-04-11T13:21:07.998Z</time></trkpt><trkpt lat="44.8117745" lon="9.2569458"><ele>677.0</ele><time>2026-04-11T13:21:08.998Z</time></trkpt><trkpt lat="44.8118242" lon="9.2567962"><ele>680.75</ele><time>2026-04-11T13:21:09.998Z</time></trkpt><trkpt lat="44.8118476" lon="9.2566253"><ele>684.5</ele><time>2026-04-11T13:21:10.997Z</time></trkpt><trkpt lat="44.8118568" lon="9.2564459"><ele>688.25</ele><time>2026-04-11T13:21:11.998Z</time></trkpt><trkpt lat="44.8118579" lon="9.2562635"><ele>692.0</ele><time>2026-04-11T13:21:12.998Z</time></trkpt><trkpt lat="44.811861" lon="9.2560727"><ele>692.25</ele><time>2026-04-11T13:21:13.998Z</time></trkpt><trkpt lat="44.8118639" lon="9.255882"><ele>692.5</ele><time>2026-04-11T13:21:14.997Z</time></trkpt><trkpt lat="44.8118593" lon="9.2556829"><ele>692.75</ele><time>2026-04-11T13:21:15.998Z</time></trkpt><trkpt lat="44.8118463" lon="9.2554886"><ele>693.0</ele><time>2026-04-11T13:21:16.998Z</time></trkpt><trkpt lat="44.811815" lon="9.2552994"><ele>689.0</ele><time>2026-04-11T13:21:17.998Z</time></trkpt><trkpt lat="44.8117686" lon="9.2551157"><ele>685.0</ele><time>2026-04-11T13:21:18.998Z</time></trkpt><trkpt lat="44.8117158" lon="9.2549348"><ele>681.0</ele><time>2026-04-11T13:21:19.998Z</time></trkpt><trkpt lat="44.8116657" lon="9.2547519"><ele>677.0</ele><time>2026-04-11T13:21:20.997Z</time></trkpt><trkpt lat="44.8116194" lon="9.2545656"><ele>677.0</ele><time>2026-04-11T13:21:21.998Z</time></trkpt><trkpt lat="44.8115757" lon="9.2543794"><ele>677.0</ele><time>2026-04-11T13:21:22.998Z</time></trkpt><trkpt lat="44.8115217" lon="9.2541991"><ele>677.0</ele><time>2026-04-11T13:21:23.999Z</time></trkpt><trkpt lat="44.8114427" lon="9.2540364"><ele>677.0</ele><time>2026-04-11T13:21:24.999Z</time></trkpt><trkpt lat="44.811353" lon="9.2538847"><ele>679.75</ele><time>2026-04-11T13:21:25.999Z</time></trkpt><trkpt lat="44.8112647" lon="9.2537371"><ele>682.5</ele><time>2026-04-11T13:21:26.999Z</time></trkpt><trkpt lat="44.8111777" lon="9.2535883"><ele>685.25</ele><time>2026-04-11T13:21:27.999Z</time></trkpt><trkpt lat="44.8110932" lon="9.2534418"><ele>688.0</ele><time>2026-04-11T13:21:28.999Z</time></trkpt><trkpt lat="44.811014" lon="9.2532887"><ele>684.5</ele><time>2026-04-11T13:21:29.998Z</time></trkpt><trkpt lat="44.8109408" lon="9.2531317"><ele>681.0</ele><time>2026-04-11T13:21:30.999Z</time></trkpt><trkpt lat="44.8108768" lon="9.252967"><ele>677.5</ele><time>2026-04-11T13:21:31.998Z</time></trkpt><trkpt lat="44.8108254" lon="9.2527862"><ele>674.0</ele><time>2026-04-11T13:21:32.999Z</time></trkpt><trkpt lat="44.8107828" lon="9.2526011"><ele>674.0</ele><time>2026-04-11T13:21:33.999Z</time></trkpt><trkpt lat="44.8107421" lon="9.2524186"><ele>674.0</ele><time>2026-04-11T13:21:34.999Z</time></trkpt><trkpt lat="44.8107012" lon="9.2522443"><ele>674.0</ele><time>2026-04-11T13:21:35.999Z</time></trkpt><trkpt lat="44.8106571" lon="9.2520816"><ele>674.0</ele><time>2026-04-11T13:21:36.999Z</time></trkpt><trkpt lat="44.8106181" lon="9.2519245"><ele>674.2</ele><time>2026-04-11T13:21:37.998Z</time></trkpt><trkpt lat="44.81059" lon="9.2517663"><ele>674.4000000000001</ele><time>2026-04-11T13:21:38.999Z</time></trkpt><trkpt lat="44.8105859" lon="9.2516174"><ele>674.6</ele><time>2026-04-11T13:21:39.999Z</time></trkpt><trkpt lat="44.8106206" lon="9.2514915"><ele>674.8</ele><time>2026-04-11T13:21:40.999Z</time></trkpt><trkpt lat="44.8106887" lon="9.2513748"><ele>675.0</ele><time>2026-04-11T13:21:41.999Z</time></trkpt><trkpt lat="44.8107683" lon="9.251249"><ele>673.25</ele><time>2026-04-11T13:21:42.999Z</time></trkpt><trkpt lat="44.8108478" lon="9.2511061"><ele>671.5</ele><time>2026-04-11T13:21:43.999Z</time></trkpt><trkpt lat="44.8109251" lon="9.2509656"><ele>669.75</ele><time>2026-04-11T13:21:44.999Z</time></trkpt><trkpt lat="44.8109977" lon="9.2508444"><ele>668.0</ele><time>2026-04-11T13:21:45.998Z</time></trkpt><trkpt lat="44.8110638" lon="9.2507416"><ele>667.0</ele><time>2026-04-11T13:21:46.999Z</time></trkpt><trkpt lat="44.8111381" lon="9.2506573"><ele>666.0</ele><time>2026-04-11T13:21:47.998Z</time></trkpt><trkpt lat="44.8112258" lon="9.250594"><ele>665.0</ele><time>2026-04-11T13:21:48.998Z</time></trkpt><trkpt lat="44.8113209" lon="9.2505398"><ele>664.0</ele><time>2026-04-11T13:21:49.999Z</time></trkpt><trkpt lat="44.8114187" lon="9.2504752"><ele>663.0</ele><time>2026-04-11T13:21:50.999Z</time></trkpt><trkpt lat="44.8115177" lon="9.2504067"><ele>663.0</ele><time>2026-04-11T13:21:51.999Z</time></trkpt><trkpt lat="44.8116208" lon="9.250336"><ele>663.0</ele><time>2026-04-11T13:21:52.999Z</time></trkpt><trkpt lat="44.8117242" lon="9.2502773"><ele>663.0</ele><time>2026-04-11T13:21:53.999Z</time></trkpt><trkpt lat="44.8118217" lon="9.2502469"><ele>663.0</ele><time>2026-04-11T13:21:54.999Z</time></trkpt><trkpt lat="44.8119168" lon="9.2502537"><ele>663.0</ele><time>2026-04-11T13:21:55.999Z</time></trkpt><trkpt lat="44.8120183" lon="9.2502728"><ele>664.6666666666666</ele><time>2026-04-11T13:21:56.999Z</time></trkpt><trkpt lat="44.812117" lon="9.2503073"><ele>666.3333333333334</ele><time>2026-04-11T13:21:57.998Z</time></trkpt><trkpt lat="44.8122115" lon="9.2503718"><ele>668.0</ele><time>2026-04-11T13:21:58.999Z</time></trkpt><trkpt lat="44.8122964" lon="9.2504295"><ele>669.6666666666667</ele><time>2026-04-11T13:21:59.999Z</time></trkpt><trkpt lat="44.8123617" lon="9.2504527"><ele>671.3333333333334</ele><time>2026-04-11T13:22:00.999Z</time></trkpt><trkpt lat="44.8124323" lon="9.2504275"><ele>673.0</ele><time>2026-04-11T13:22:01.999Z</time></trkpt><trkpt lat="44.8124879" lon="9.2503457"><ele>673.0</ele><time>2026-04-11T13:22:02.999Z</time></trkpt><trkpt lat="44.8125204" lon="9.2502334"><ele>673.0</ele><time>2026-04-11T13:22:03.999Z</time></trkpt><trkpt lat="44.8125174" lon="9.250093"><ele>673.0</ele><time>2026-04-11T13:22:04.998Z</time></trkpt><trkpt lat="44.8124915" lon="9.2499563"><ele>673.0</ele><time>2026-04-11T13:22:05.998Z</time></trkpt><trkpt lat="44.812457" lon="9.249831"><ele>673.0</ele><time>2026-04-11T13:22:06.999Z</time></trkpt><trkpt lat="44.8124248" lon="9.2496993"><ele>673.75</ele><time>2026-04-11T13:22:07.999Z</time></trkpt><trkpt lat="44.8123957" lon="9.2495536"><ele>674.5</ele><time>2026-04-11T13:22:08.998Z</time></trkpt><trkpt lat="44.8123626" lon="9.2493994"><ele>675.25</ele><time>2026-04-11T13:22:09.998Z</time></trkpt><trkpt lat="44.8123226" lon="9.2492429"><ele>676.0</ele><time>2026-04-11T13:22:10.999Z</time></trkpt><trkpt lat="44.8122863" lon="9.2490807"><ele>676.0</ele><time>2026-04-11T13:22:12Z</time></trkpt><trkpt lat="44.8122571" lon="9.2489187"><ele>676.0</ele><time>2026-04-11T13:22:13Z</time></trkpt><trkpt lat="44.8122393" lon="9.2487552"><ele>676.0</ele><time>2026-04-11T13:22:13.999Z</time></trkpt><trkpt lat="44.812232" lon="9.2485944"><ele>676.0</ele><time>2026-04-11T13:22:15Z</time></trkpt><trkpt lat="44.8122188" lon="9.248428"><ele>676.0</ele><time>2026-04-11T13:22:16Z</time></trkpt><trkpt lat="44.8122009" lon="9.2482646"><ele>676.0</ele><time>2026-04-11T13:22:16.999Z</time></trkpt><trkpt lat="44.8121755" lon="9.2480983"><ele>676.0</ele><time>2026-04-11T13:22:17.999Z</time></trkpt><trkpt lat="44.8121589" lon="9.2479397"><ele>676.0</ele><time>2026-04-11T13:22:19Z</time></trkpt><trkpt lat="44.8121438" lon="9.2477878"><ele>675.4</ele><time>2026-04-11T13:22:19.999Z</time></trkpt><trkpt lat="44.8121351" lon="9.2476409"><ele>674.8</ele><time>2026-04-11T13:22:21Z</time></trkpt><trkpt lat="44.812133" lon="9.2474876"><ele>674.1999999999999</ele><time>2026-04-11T13:22:22Z</time></trkpt><trkpt lat="44.8121565" lon="9.2473233"><ele>673.5999999999999</ele><time>2026-04-11T13:22:23Z</time></trkpt><trkpt lat="44.8121925" lon="9.247167"><ele>673.0</ele><time>2026-04-11T13:22:23.999Z</time></trkpt><trkpt lat="44.8122327" lon="9.2470272"><ele>672.8</ele><time>2026-04-11T13:22:24.999Z</time></trkpt><trkpt lat="44.8122665" lon="9.2469125"><ele>672.5999999999999</ele><time>2026-04-11T13:22:26Z</time></trkpt><trkpt lat="44.8122748" lon="9.246808"><ele>672.4000000000001</ele><time>2026-04-11T13:22:27Z</time></trkpt><trkpt lat="44.8122377" lon="9.246719"><ele>672.2</ele><time>2026-04-11T13:22:28Z</time></trkpt><trkpt lat="44.8121555" lon="9.2466312"><ele>672.0</ele><time>2026-04-11T13:22:29Z</time></trkpt><trkpt lat="44.8120488" lon="9.2465587"><ele>672.0</ele><time>2026-04-11T13:22:30Z</time></trkpt><trkpt lat="44.8119419" lon="9.2464733"><ele>672.0</ele><time>2026-04-11T13:22:31Z</time></trkpt><trkpt lat="44.8118414" lon="9.2463559"><ele>672.0</ele><time>2026-04-11T13:22:32Z</time></trkpt><trkpt lat="44.8117538" lon="9.2462106"><ele>672.0</ele><time>2026-04-11T13:22:33Z</time></trkpt><trkpt lat="44.8116702" lon="9.2460564"><ele>670.3333333333334</ele><time>2026-04-11T13:22:34Z</time></trkpt><trkpt lat="44.8116077" lon="9.2458655"><ele>668.6666666666667</ele><time>2026-04-11T13:22:35Z</time></trkpt><trkpt lat="44.8115608" lon="9.245658"><ele>667.0</ele><time>2026-04-11T13:22:36Z</time></trkpt><trkpt lat="44.8114985" lon="9.2454577"><ele>667.0</ele><time>2026-04-11T13:22:37Z</time></trkpt><trkpt lat="44.8114162" lon="9.2452745"><ele>667.0</ele><time>2026-04-11T13:22:38Z</time></trkpt><trkpt lat="44.8113339" lon="9.2451252"><ele>667.0</ele><time>2026-04-11T13:22:38.999Z</time></trkpt><trkpt lat="44.8112572" lon="9.2450028"><ele>667.0</ele><time>2026-04-11T13:22:40Z</time></trkpt><trkpt lat="44.8111952" lon="9.2448743"><ele>668.25</ele><time>2026-04-11T13:22:40.999Z</time></trkpt><trkpt lat="44.8111553" lon="9.2447109"><ele>669.5</ele><time>2026-04-11T13:22:42Z</time></trkpt><trkpt lat="44.811136" lon="9.2445124"><ele>670.75</ele><time>2026-04-11T13:22:43Z</time></trkpt><trkpt lat="44.8111235" lon="9.2443027"><ele>672.0</ele><time>2026-04-11T13:22:44Z</time></trkpt><trkpt lat="44.8111171" lon="9.2440867"><ele>672.6666666666666</ele><time>2026-04-11T13:22:45Z</time></trkpt><trkpt lat="44.8111001" lon="9.24386"><ele>673.3333333333333</ele><time>2026-04-11T13:22:46Z</time></trkpt><trkpt lat="44.8110825" lon="9.24363"><ele>674.0</ele><time>2026-04-11T13:22:47Z</time></trkpt><trkpt lat="44.8110687" lon="9.2434056"><ele>674.0</ele><time>2026-04-11T13:22:48Z</time></trkpt><trkpt lat="44.8110562" lon="9.243206"><ele>674.0</ele><time>2026-04-11T13:22:49Z</time></trkpt><trkpt lat="44.8110348" lon="9.2430292"><ele>674.0</ele><time>2026-04-11T13:22:50Z</time></trkpt><trkpt lat="44.8110042" lon="9.2428755"><ele>674.0</ele><time>2026-04-11T13:22:51Z</time></trkpt><trkpt lat="44.8109638" lon="9.2427409"><ele>669.5</ele><time>2026-04-11T13:22:51.999Z</time></trkpt><trkpt lat="44.8109117" lon="9.2426145"><ele>665.0</ele><time>2026-04-11T13:22:53Z</time></trkpt><trkpt lat="44.8108349" lon="9.242489"><ele>660.5</ele><time>2026-04-11T13:22:54Z</time></trkpt><trkpt lat="44.8107465" lon="9.2423693"><ele>656.0</ele><time>2026-04-11T13:22:54.999Z</time></trkpt><trkpt lat="44.8106518" lon="9.2422642"><ele>656.0</ele><time>2026-04-11T13:22:56Z</time></trkpt><trkpt lat="44.8105612" lon="9.242173"><ele>656.0</ele><time>2026-04-11T13:22:57Z</time></trkpt><trkpt lat="44.8104914" lon="9.2420616"><ele>656.0</ele><time>2026-04-11T13:22:58Z</time></trkpt><trkpt lat="44.8104524" lon="9.241917"><ele>656.0</ele><time>2026-04-11T13:22:59Z</time></trkpt><trkpt lat="44.8104167" lon="9.2417542"><ele>656.0</ele><time>2026-04-11T13:23:00Z</time></trkpt><trkpt lat="44.8103521" lon="9.2416098"><ele>656.0</ele><time>2026-04-11T13:23:01.001Z</time></trkpt><trkpt lat="44.81026" lon="9.2414956"><ele>656.0</ele><time>2026-04-11T13:23:02Z</time></trkpt><trkpt lat="44.8101806" lon="9.2413834"><ele>656.0</ele><time>2026-04-11T13:23:03.001Z</time></trkpt><trkpt lat="44.8101273" lon="9.2412432"><ele>656.0</ele><time>2026-04-11T13:23:04.001Z</time></trkpt><trkpt lat="44.8101018" lon="9.2410701"><ele>654.25</ele><time>2026-04-11T13:23:05.001Z</time></trkpt><trkpt lat="44.8100885" lon="9.2408936"><ele>652.5</ele><time>2026-04-11T13:23:06Z</time></trkpt><trkpt lat="44.8100952" lon="9.2407038"><ele>650.75</ele><time>2026-04-11T13:23:07.001Z</time></trkpt><trkpt lat="44.8101169" lon="9.240513"><ele>649.0</ele><time>2026-04-11T13:23:08.001Z</time></trkpt><trkpt lat="44.8101463" lon="9.2403204"><ele>651.25</ele><time>2026-04-11T13:23:09.001Z</time></trkpt><trkpt lat="44.8101786" lon="9.2401305"><ele>653.5</ele><time>2026-04-11T13:23:10.001Z</time></trkpt><trkpt lat="44.8102059" lon="9.23996"><ele>655.75</ele><time>2026-04-11T13:23:11.001Z</time></trkpt><trkpt lat="44.8102221" lon="9.2398004"><ele>658.0</ele><time>2026-04-11T13:23:12.001Z</time></trkpt><trkpt lat="44.8102124" lon="9.239637"><ele>658.0</ele><time>2026-04-11T13:23:13.001Z</time></trkpt><trkpt lat="44.81018" lon="9.239471"><ele>658.0</ele><time>2026-04-11T13:23:14.001Z</time></trkpt><trkpt lat="44.810119" lon="9.2393138"><ele>658.0</ele><time>2026-04-11T13:23:15Z</time></trkpt><trkpt lat="44.8100362" lon="9.2391771"><ele>658.0</ele><time>2026-04-11T13:23:16Z</time></trkpt><trkpt lat="44.809942" lon="9.2390605"><ele>656.2</ele><time>2026-04-11T13:23:17.001Z</time></trkpt><trkpt lat="44.8098631" lon="9.2389805"><ele>654.4</ele><time>2026-04-11T13:23:18.001Z</time></trkpt><trkpt lat="44.8098052" lon="9.2389021"><ele>652.6</ele><time>2026-04-11T13:23:19.001Z</time></trkpt><trkpt lat="44.8097659" lon="9.2388118"><ele>650.8000000000001</ele><time>2026-04-11T13:23:20.001Z</time></trkpt><trkpt lat="44.8097547" lon="9.2386788"><ele>649.0</ele><time>2026-04-11T13:23:21.001Z</time></trkpt><trkpt lat="44.8097854" lon="9.2385148"><ele>648.5</ele><time>2026-04-11T13:23:22.001Z</time></trkpt><trkpt lat="44.8098113" lon="9.2383442"><ele>648.0</ele><time>2026-04-11T13:23:23.001Z</time></trkpt><trkpt lat="44.8098116" lon="9.2381581"><ele>647.5</ele><time>2026-04-11T13:23:24.001Z</time></trkpt><trkpt lat="44.8097864" lon="9.2379513"><ele>647.0</ele><time>2026-04-11T13:23:25.001Z</time></trkpt><trkpt lat="44.8097524" lon="9.2377192"><ele>647.0</ele><time>2026-04-11T13:23:26Z</time></trkpt><trkpt lat="44.8097239" lon="9.2374901"><ele>647.0</ele><time>2026-04-11T13:23:27Z</time></trkpt><trkpt lat="44.8096992" lon="9.2372869"><ele>647.0</ele><time>2026-04-11T13:23:28Z</time></trkpt><trkpt lat="44.8096707" lon="9.2371012"><ele>647.0</ele><time>2026-04-11T13:23:29.001Z</time></trkpt><trkpt lat="44.8096515" lon="9.2369262"><ele>646.75</ele><time>2026-04-11T13:23:30.001Z</time></trkpt><trkpt lat="44.8096462" lon="9.2367435"><ele>646.5</ele><time>2026-04-11T13:23:31Z</time></trkpt><trkpt lat="44.8096646" lon="9.2365546"><ele>646.25</ele><time>2026-04-11T13:23:32.001Z</time></trkpt><trkpt lat="44.8096901" lon="9.2363626"><ele>646.0</ele><time>2026-04-11T13:23:33.001Z</time></trkpt><trkpt lat="44.8096906" lon="9.2361772"><ele>644.4</ele><time>2026-04-11T13:23:34Z</time></trkpt><trkpt lat="44.8096744" lon="9.2360086"><ele>642.8</ele><time>2026-04-11T13:23:35.001Z</time></trkpt><trkpt lat="44.8096564" lon="9.235856"><ele>641.1999999999999</ele><time>2026-04-11T13:23:36Z</time></trkpt><trkpt lat="44.8096443" lon="9.2357112"><ele>639.5999999999999</ele><time>2026-04-11T13:23:37.001Z</time></trkpt><trkpt lat="44.8096608" lon="9.2355658"><ele>638.0</ele><time>2026-04-11T13:23:38.001Z</time></trkpt><trkpt lat="44.8097022" lon="9.2354364"><ele>636.0</ele><time>2026-04-11T13:23:39Z</time></trkpt><trkpt lat="44.8097683" lon="9.235335"><ele>634.0</ele><time>2026-04-11T13:23:40.001Z</time></trkpt><trkpt lat="44.8098554" lon="9.2352604"><ele>632.0</ele><time>2026-04-11T13:23:41.001Z</time></trkpt><trkpt lat="44.8099561" lon="9.235198"><ele>630.0</ele><time>2026-04-11T13:23:42Z</time></trkpt><trkpt lat="44.8100579" lon="9.2351048"><ele>628.0</ele><time>2026-04-11T13:23:43.001Z</time></trkpt><trkpt lat="44.8101434" lon="9.2349681"><ele>628.0</ele><time>2026-04-11T13:23:44.001Z</time></trkpt><trkpt lat="44.8102041" lon="9.2347912"><ele>628.0</ele><time>2026-04-11T13:23:45.001Z</time></trkpt><trkpt lat="44.8102564" lon="9.2346092"><ele>628.0</ele><time>2026-04-11T13:23:46Z</time></trkpt><trkpt lat="44.8103281" lon="9.2344411"><ele>628.0</ele><time>2026-04-11T13:23:47Z</time></trkpt><trkpt lat="44.8104256" lon="9.2342847"><ele>628.0</ele><time>2026-04-11T13:23:48.001Z</time></trkpt><trkpt lat="44.8105367" lon="9.2341366"><ele>628.0</ele><time>2026-04-11T13:23:49.001Z</time></trkpt><trkpt lat="44.8106525" lon="9.2339837"><ele>628.0</ele><time>2026-04-11T13:23:50.001Z</time></trkpt><trkpt lat="44.8107772" lon="9.2338344"><ele>627.6666666666667</ele><time>2026-04-11T13:23:51.002Z</time></trkpt><trkpt lat="44.8109021" lon="9.2336871"><ele>627.3333333333334</ele><time>2026-04-11T13:23:52.002Z</time></trkpt><trkpt lat="44.811025" lon="9.2335519"><ele>627.0</ele><time>2026-04-11T13:23:53.002Z</time></trkpt><trkpt lat="44.8111361" lon="9.2334411"><ele>627.0</ele><time>2026-04-11T13:23:54.002Z</time></trkpt><trkpt lat="44.8112438" lon="9.2333563"><ele>627.0</ele><time>2026-04-11T13:23:55.002Z</time></trkpt><trkpt lat="44.8113483" lon="9.2332785"><ele>627.0</ele><time>2026-04-11T13:23:56.001Z</time></trkpt><trkpt lat="44.8114405" lon="9.2332005"><ele>627.0</ele><time>2026-04-11T13:23:57.002Z</time></trkpt><trkpt lat="44.8115186" lon="9.2330994"><ele>624.5</ele><time>2026-04-11T13:23:58.002Z</time></trkpt><trkpt lat="44.8115711" lon="9.2329536"><ele>622.0</ele><time>2026-04-11T13:23:59.002Z</time></trkpt><trkpt lat="44.8115956" lon="9.232783"><ele>619.5</ele><time>2026-04-11T13:24:00.001Z</time></trkpt><trkpt lat="44.8115842" lon="9.2326087"><ele>617.0</ele><time>2026-04-11T13:24:01.002Z</time></trkpt><trkpt lat="44.8115672" lon="9.2324352"><ele>616.0</ele><time>2026-04-11T13:24:02.002Z</time></trkpt><trkpt lat="44.8115618" lon="9.232288"><ele>615.0</ele><time>2026-04-11T13:24:03.002Z</time></trkpt><trkpt lat="44.8115905" lon="9.2321473"><ele>614.0</ele><time>2026-04-11T13:24:04.002Z</time></trkpt><trkpt lat="44.8116515" lon="9.2320146"><ele>613.0</ele><time>2026-04-11T13:24:05.001Z</time></trkpt><trkpt lat="44.8117293" lon="9.2319062"><ele>612.0</ele><time>2026-04-11T13:24:06.002Z</time></trkpt><trkpt lat="44.8118126" lon="9.2318052"><ele>610.5</ele><time>2026-04-11T13:24:07.002Z</time></trkpt><trkpt lat="44.8118502" lon="9.2316694"><ele>609.0</ele><time>2026-04-11T13:24:08.002Z</time></trkpt><trkpt lat="44.8118386" lon="9.231502"><ele>607.5</ele><time>2026-04-11T13:24:09.002Z</time></trkpt><trkpt lat="44.8118063" lon="9.2313225"><ele>606.0</ele><time>2026-04-11T13:24:10.002Z</time></trkpt><trkpt lat="44.8117711" lon="9.2311366"><ele>606.0</ele><time>2026-04-11T13:24:11.002Z</time></trkpt><trkpt lat="44.811761" lon="9.2309517"><ele>606.0</ele><time>2026-04-11T13:24:12.002Z</time></trkpt><trkpt lat="44.8117806" lon="9.2307649"><ele>606.0</ele><time>2026-04-11T13:24:13.002Z</time></trkpt><trkpt lat="44.8118094" lon="9.2305879"><ele>606.0</ele><time>2026-04-11T13:24:14.002Z</time></trkpt><trkpt lat="44.811852" lon="9.2304233"><ele>607.25</ele><time>2026-04-11T13:24:15.002Z</time></trkpt><trkpt lat="44.8119039" lon="9.2302815"><ele>608.5</ele><time>2026-04-11T13:24:16.002Z</time></trkpt><trkpt lat="44.811957" lon="9.2301439"><ele>609.75</ele><time>2026-04-11T13:24:17.001Z</time></trkpt><trkpt lat="44.812005" lon="9.2299936"><ele>611.0</ele><time>2026-04-11T13:24:18.002Z</time></trkpt><trkpt lat="44.8120502" lon="9.2298312"><ele>609.75</ele><time>2026-04-11T13:24:19.002Z</time></trkpt><trkpt lat="44.8121011" lon="9.2296625"><ele>608.5</ele><time>2026-04-11T13:24:20.002Z</time></trkpt><trkpt lat="44.8121427" lon="9.2294879"><ele>607.25</ele><time>2026-04-11T13:24:21.001Z</time></trkpt><trkpt lat="44.8121674" lon="9.2292977"><ele>606.0</ele><time>2026-04-11T13:24:22.002Z</time></trkpt><trkpt lat="44.8121741" lon="9.229102"><ele>604.5</ele><time>2026-04-11T13:24:23.002Z</time></trkpt><trkpt lat="44.812164" lon="9.2288953"><ele>603.0</ele><time>2026-04-11T13:24:24.001Z</time></trkpt><trkpt lat="44.8121443" lon="9.2286913"><ele>601.5</ele><time>2026-04-11T13:24:25.002Z</time></trkpt><trkpt lat="44.8121178" lon="9.2284994"><ele>600.0</ele><time>2026-04-11T13:24:26.001Z</time></trkpt><trkpt lat="44.812096" lon="9.2283219"><ele>600.0</ele><time>2026-04-11T13:24:27.002Z</time></trkpt><trkpt lat="44.8120969" lon="9.2281574"><ele>600.0</ele><time>2026-04-11T13:24:28.002Z</time></trkpt><trkpt lat="44.8121275" lon="9.2279977"><ele>600.0</ele><time>2026-04-11T13:24:29.001Z</time></trkpt><trkpt lat="44.812188" lon="9.2278295"><ele>600.0</ele><time>2026-04-11T13:24:30.002Z</time></trkpt><trkpt lat="44.8122699" lon="9.227676"><ele>598.3333333333334</ele><time>2026-04-11T13:24:31.001Z</time></trkpt><trkpt lat="44.8123671" lon="9.2275178"><ele>596.6666666666667</ele><time>2026-04-11T13:24:32.001Z</time></trkpt><trkpt lat="44.8124817" lon="9.2273522"><ele>595.0</ele><time>2026-04-11T13:24:33.002Z</time></trkpt><trkpt lat="44.8125983" lon="9.2271768"><ele>595.6666666666667</ele><time>2026-04-11T13:24:34.002Z</time></trkpt><trkpt lat="44.8127083" lon="9.2269909"><ele>596.3333333333334</ele><time>2026-04-11T13:24:35.002Z</time></trkpt><trkpt lat="44.8128076" lon="9.226799"><ele>597.0</ele><time>2026-04-11T13:24:36.002Z</time></trkpt><trkpt lat="44.8128917" lon="9.2266198"><ele>593.75</ele><time>2026-04-11T13:24:37.001Z</time></trkpt><trkpt lat="44.8129626" lon="9.226455"><ele>590.5</ele><time>2026-04-11T13:24:38.003Z</time></trkpt><trkpt lat="44.8130155" lon="9.2263113"><ele>587.25</ele><time>2026-04-11T13:24:39.004Z</time></trkpt><trkpt lat="44.8130651" lon="9.2261855"><ele>584.0</ele><time>2026-04-11T13:24:40.003Z</time></trkpt><trkpt lat="44.8131361" lon="9.2260872"><ele>584.0</ele><time>2026-04-11T13:24:41.003Z</time></trkpt><trkpt lat="44.8132506" lon="9.226022"><ele>584.0</ele><time>2026-04-11T13:24:42.002Z</time></trkpt><trkpt lat="44.8133808" lon="9.225964"><ele>584.0</ele><time>2026-04-11T13:24:43.003Z</time></trkpt><trkpt lat="44.8135166" lon="9.2258899"><ele>584.0</ele><time>2026-04-11T13:24:44.002Z</time></trkpt><trkpt lat="44.8136453" lon="9.2258004"><ele>583.0</ele><time>2026-04-11T13:24:45.003Z</time></trkpt><trkpt lat="44.8137619" lon="9.2257131"><ele>582.0</ele><time>2026-04-11T13:24:46.002Z</time></trkpt><trkpt lat="44.8138722" lon="9.2256178"><ele>581.0</ele><time>2026-04-11T13:24:47.003Z</time></trkpt><trkpt lat="44.8139739" lon="9.2254874"><ele>580.0</ele><time>2026-04-11T13:24:48.003Z</time></trkpt><trkpt lat="44.8140612" lon="9.2253268"><ele>580.0</ele><time>2026-04-11T13:24:49.003Z</time></trkpt><trkpt lat="44.8141338" lon="9.2251624"><ele>580.0</ele><time>2026-04-11T13:24:50.002Z</time></trkpt><trkpt lat="44.8141976" lon="9.2249979"><ele>580.0</ele><time>2026-04-11T13:24:51.003Z</time></trkpt><trkpt lat="44.8142395" lon="9.2248066"><ele>580.0</ele><time>2026-04-11T13:24:52.003Z</time></trkpt><trkpt lat="44.8142656" lon="9.2245982"><ele>581.0</ele><time>2026-04-11T13:24:53.003Z</time></trkpt><trkpt lat="44.8143152" lon="9.2243858"><ele>582.0</ele><time>2026-04-11T13:24:54.003Z</time></trkpt><trkpt lat="44.8143891" lon="9.2241887"><ele>583.0</ele><time>2026-04-11T13:24:55.003Z</time></trkpt><trkpt lat="44.8144548" lon="9.2240028"><ele>579.75</ele><time>2026-04-11T13:24:56.003Z</time></trkpt><trkpt lat="44.8145025" lon="9.2238249"><ele>576.5</ele><time>2026-04-11T13:24:57.003Z</time></trkpt><trkpt lat="44.8145394" lon="9.2236643"><ele>573.25</ele><time>2026-04-11T13:24:58.003Z</time></trkpt><trkpt lat="44.8145953" lon="9.2235234"><ele>570.0</ele><time>2026-04-11T13:24:59.003Z</time></trkpt><trkpt lat="44.8146816" lon="9.2234178"><ele>570.0</ele><time>2026-04-11T13:25:00.003Z</time></trkpt><trkpt lat="44.8147864" lon="9.2233354"><ele>570.0</ele><time>2026-04-11T13:25:01.003Z</time></trkpt><trkpt lat="44.8148804" lon="9.2232483"><ele>570.0</ele><time>2026-04-11T13:25:02.003Z</time></trkpt><trkpt lat="44.8149476" lon="9.223128"><ele>570.0</ele><time>2026-04-11T13:25:03.002Z</time></trkpt><trkpt lat="44.8149892" lon="9.2229791"><ele>569.4</ele><time>2026-04-11T13:25:04.003Z</time></trkpt><trkpt lat="44.8150236" lon="9.222843"><ele>568.8</ele><time>2026-04-11T13:25:05.003Z</time></trkpt><trkpt lat="44.8150842" lon="9.2227497"><ele>568.2</ele><time>2026-04-11T13:25:06.003Z</time></trkpt><trkpt lat="44.8151868" lon="9.2226967"><ele>567.6</ele><time>2026-04-11T13:25:07.003Z</time></trkpt><trkpt lat="44.8152987" lon="9.2226373"><ele>567.0</ele><time>2026-04-11T13:25:08.003Z</time></trkpt><trkpt lat="44.8153848" lon="9.2225251"><ele>567.0</ele><time>2026-04-11T13:25:09.003Z</time></trkpt><trkpt lat="44.815441" lon="9.2223588"><ele>567.0</ele><time>2026-04-11T13:25:10.002Z</time></trkpt><trkpt lat="44.8154743" lon="9.2221746"><ele>567.0</ele><time>2026-04-11T13:25:11.003Z</time></trkpt><trkpt lat="44.8154977" lon="9.2219815"><ele>567.0</ele><time>2026-04-11T13:25:12.003Z</time></trkpt><trkpt lat="44.8155334" lon="9.2217974"><ele>564.25</ele><time>2026-04-11T13:25:13.003Z</time></trkpt><trkpt lat="44.8155927" lon="9.221625"><ele>561.5</ele><time>2026-04-11T13:25:14.003Z</time></trkpt><trkpt lat="44.815666" lon="9.2214571"><ele>558.75</ele><time>2026-04-11T13:25:15.003Z</time></trkpt><trkpt lat="44.8157372" lon="9.2212941"><ele>556.0</ele><time>2026-04-11T13:25:16.003Z</time></trkpt><trkpt lat="44.8157949" lon="9.2211413"><ele>554.25</ele><time>2026-04-11T13:25:17.003Z</time></trkpt><trkpt lat="44.8158582" lon="9.2210104"><ele>552.5</ele><time>2026-04-11T13:25:18.003Z</time></trkpt><trkpt lat="44.8159487" lon="9.2208895"><ele>550.75</ele><time>2026-04-11T13:25:19.003Z</time></trkpt><trkpt lat="44.8160596" lon="9.2207783"><ele>549.0</ele><time>2026-04-11T13:25:20.003Z</time></trkpt><trkpt lat="44.8161748" lon="9.2206537"><ele>546.5</ele><time>2026-04-11T13:25:21.003Z</time></trkpt><trkpt lat="44.8162839" lon="9.2205028"><ele>544.0</ele><time>2026-04-11T13:25:22.003Z</time></trkpt><trkpt lat="44.8163821" lon="9.220338"><ele>541.5</ele><time>2026-04-11T13:25:23.003Z</time></trkpt><trkpt lat="44.8164628" lon="9.2201783"><ele>539.0</ele><time>2026-04-11T13:25:24.003Z</time></trkpt><trkpt lat="44.8165373" lon="9.2200309"><ele>539.0</ele><time>2026-04-11T13:25:25.003Z</time></trkpt><trkpt lat="44.8166267" lon="9.2198956"><ele>539.0</ele><time>2026-04-11T13:25:26.003Z</time></trkpt><trkpt lat="44.8167406" lon="9.2197879"><ele>539.0</ele><time>2026-04-11T13:25:27.004Z</time></trkpt><trkpt lat="44.8168678" lon="9.2196977"><ele>539.0</ele><time>2026-04-11T13:25:28.004Z</time></trkpt><trkpt lat="44.8169764" lon="9.2195962"><ele>536.4</ele><time>2026-04-11T13:25:29.003Z</time></trkpt><trkpt lat="44.8170658" lon="9.2194777"><ele>533.8</ele><time>2026-04-11T13:25:30.003Z</time></trkpt><trkpt lat="44.8171436" lon="9.2193568"><ele>531.2</ele><time>2026-04-11T13:25:31.004Z</time></trkpt><trkpt lat="44.8172108" lon="9.2192444"><ele>528.6</ele><time>2026-04-11T13:25:32.004Z</time></trkpt><trkpt lat="44.817274" lon="9.2191452"><ele>526.0</ele><time>2026-04-11T13:25:33.004Z</time></trkpt><trkpt lat="44.8173243" lon="9.2190506"><ele>524.8333333333334</ele><time>2026-04-11T13:25:34.004Z</time></trkpt><trkpt lat="44.8173484" lon="9.2189404"><ele>523.6666666666667</ele><time>2026-04-11T13:25:35.004Z</time></trkpt><trkpt lat="44.817335" lon="9.2188254"><ele>522.5</ele><time>2026-04-11T13:25:36.004Z</time></trkpt><trkpt lat="44.8172814" lon="9.2187275"><ele>521.3333333333334</ele><time>2026-04-11T13:25:37.003Z</time></trkpt><trkpt lat="44.8172009" lon="9.2186664"><ele>520.1666666666666</ele><time>2026-04-11T13:25:38.003Z</time></trkpt><trkpt lat="44.8170986" lon="9.21866"><ele>519.0</ele><time>2026-04-11T13:25:39.003Z</time></trkpt><trkpt lat="44.8169957" lon="9.2187097"><ele>519.0</ele><time>2026-04-11T13:25:40.004Z</time></trkpt><trkpt lat="44.8168971" lon="9.218787"><ele>519.0</ele><time>2026-04-11T13:25:41.004Z</time></trkpt><trkpt lat="44.8167965" lon="9.218868"><ele>519.0</ele><time>2026-04-11T13:25:42.004Z</time></trkpt><trkpt lat="44.8166911" lon="9.218938"><ele>519.0</ele><time>2026-04-11T13:25:43.003Z</time></trkpt><trkpt lat="44.816593" lon="9.2190025"><ele>518.6666666666666</ele><time>2026-04-11T13:25:44.004Z</time></trkpt><trkpt lat="44.8165056" lon="9.2190599"><ele>518.3333333333334</ele><time>2026-04-11T13:25:45.004Z</time></trkpt><trkpt lat="44.8164351" lon="9.2190968"><ele>518.0</ele><time>2026-04-11T13:25:46.004Z</time></trkpt><trkpt lat="44.8163564" lon="9.219078"><ele>517.6666666666667</ele><time>2026-04-11T13:25:47.004Z</time></trkpt><trkpt lat="44.8162993" lon="9.2189998"><ele>517.3333333333334</ele><time>2026-04-11T13:25:48.004Z</time></trkpt><trkpt lat="44.8162793" lon="9.2188797"><ele>517.0</ele><time>2026-04-11T13:25:49.004Z</time></trkpt><trkpt lat="44.8162935" lon="9.2187372"><ele>517.0</ele><time>2026-04-11T13:25:50.003Z</time></trkpt><trkpt lat="44.8163384" lon="9.2185943"><ele>517.0</ele><time>2026-04-11T13:25:51.004Z</time></trkpt><trkpt lat="44.8164059" lon="9.218457"><ele>517.0</ele><time>2026-04-11T13:25:52.004Z</time></trkpt><trkpt lat="44.8164794" lon="9.2183166"><ele>517.0</ele><time>2026-04-11T13:25:53.004Z</time></trkpt><trkpt lat="44.8165671" lon="9.2181745"><ele>514.5</ele><time>2026-04-11T13:25:54.004Z</time></trkpt><trkpt lat="44.8166559" lon="9.2180304"><ele>512.0</ele><time>2026-04-11T13:25:55.004Z</time></trkpt><trkpt lat="44.8167406" lon="9.2178895"><ele>509.5</ele><time>2026-04-11T13:25:56.004Z</time></trkpt><trkpt lat="44.8168172" lon="9.2177612"><ele>507.0</ele><time>2026-04-11T13:25:57.003Z</time></trkpt><trkpt lat="44.8168933" lon="9.2176444"><ele>507.0</ele><time>2026-04-11T13:25:58.004Z</time></trkpt><trkpt lat="44.8169705" lon="9.217539"><ele>507.0</ele><time>2026-04-11T13:25:59.004Z</time></trkpt><trkpt lat="44.8170608" lon="9.2174441"><ele>507.0</ele><time>2026-04-11T13:26:00.003Z</time></trkpt><trkpt lat="44.8171735" lon="9.2173646"><ele>507.0</ele><time>2026-04-11T13:26:01.004Z</time></trkpt><trkpt lat="44.8172927" lon="9.2172969"><ele>505.8</ele><time>2026-04-11T13:26:02.004Z</time></trkpt><trkpt lat="44.8174084" lon="9.217245"><ele>504.6</ele><time>2026-04-11T13:26:03.004Z</time></trkpt><trkpt lat="44.8175059" lon="9.2172098"><ele>503.40000000000003</ele><time>2026-04-11T13:26:04.004Z</time></trkpt><trkpt lat="44.8175904" lon="9.2172247"><ele>502.20000000000005</ele><time>2026-04-11T13:26:05.004Z</time></trkpt><trkpt lat="44.8176703" lon="9.2172813"><ele>501.0</ele><time>2026-04-11T13:26:06.004Z</time></trkpt><trkpt lat="44.817751" lon="9.2173732"><ele>501.0</ele><time>2026-04-11T13:26:07.004Z</time></trkpt><trkpt lat="44.8178331" lon="9.2174981"><ele>501.0</ele><time>2026-04-11T13:26:08.004Z</time></trkpt><trkpt lat="44.8179198" lon="9.2176234"><ele>501.0</ele><time>2026-04-11T13:26:09.004Z</time></trkpt><trkpt lat="44.8180005" lon="9.217741"><ele>501.0</ele><time>2026-04-11T13:26:10.004Z</time></trkpt><trkpt lat="44.8180716" lon="9.2178459"><ele>501.0</ele><time>2026-04-11T13:26:11.004Z</time></trkpt><trkpt lat="44.8181428" lon="9.2179258"><ele>501.0</ele><time>2026-04-11T13:26:12.004Z</time></trkpt><trkpt lat="44.8182337" lon="9.2179592"><ele>501.0</ele><time>2026-04-11T13:26:13.004Z</time></trkpt><trkpt lat="44.8183281" lon="9.2179409"><ele>501.0</ele><time>2026-04-11T13:26:14.004Z</time></trkpt><trkpt lat="44.8184147" lon="9.2178697"><ele>501.0</ele><time>2026-04-11T13:26:15.005Z</time></trkpt><trkpt lat="44.8184791" lon="9.2177595"><ele>501.0</ele><time>2026-04-11T13:26:16.005Z</time></trkpt><trkpt lat="44.8185026" lon="9.2176289"><ele>501.0</ele><time>2026-04-11T13:26:17.005Z</time></trkpt><trkpt lat="44.8184833" lon="9.2174978"><ele>501.0</ele><time>2026-04-11T13:26:18.004Z</time></trkpt><trkpt lat="44.8184249" lon="9.2173847"><ele>501.0</ele><time>2026-04-11T13:26:19.005Z</time></trkpt><trkpt lat="44.8183384" lon="9.2173008"><ele>501.0</ele><time>2026-04-11T13:26:20.005Z</time></trkpt><trkpt lat="44.8182347" lon="9.2172185"><ele>498.0</ele><time>2026-04-11T13:26:21.005Z</time></trkpt><trkpt lat="44.8181305" lon="9.2171094"><ele>495.0</ele><time>2026-04-11T13:26:22.004Z</time></trkpt><trkpt lat="44.8180583" lon="9.2169687"><ele>492.0</ele><time>2026-04-11T13:26:23.005Z</time></trkpt><trkpt lat="44.8180091" lon="9.2168116"><ele>489.0</ele><time>2026-04-11T13:26:24.005Z</time></trkpt><trkpt lat="44.8179658" lon="9.2166552"><ele>489.0</ele><time>2026-04-11T13:26:25.004Z</time></trkpt><trkpt lat="44.8179297" lon="9.2165134"><ele>489.0</ele><time>2026-04-11T13:26:26.004Z</time></trkpt><trkpt lat="44.8179127" lon="9.2163691"><ele>489.0</ele><time>2026-04-11T13:26:27.005Z</time></trkpt><trkpt lat="44.817925" lon="9.2162234"><ele>489.0</ele><time>2026-04-11T13:26:28.005Z</time></trkpt><trkpt lat="44.8179254" lon="9.2160712"><ele>489.0</ele><time>2026-04-11T13:26:29.005Z</time></trkpt><trkpt lat="44.817895" lon="9.2159198"><ele>486.25</ele><time>2026-04-11T13:26:30.005Z</time></trkpt><trkpt lat="44.8178209" lon="9.2157712"><ele>483.5</ele><time>2026-04-11T13:26:31.005Z</time></trkpt><trkpt lat="44.8177342" lon="9.2156274"><ele>480.75</ele><time>2026-04-11T13:26:32.005Z</time></trkpt><trkpt lat="44.81765" lon="9.2154833"><ele>478.0</ele><time>2026-04-11T13:26:33.005Z</time></trkpt><trkpt lat="44.8175679" lon="9.2153406"><ele>477.4</ele><time>2026-04-11T13:26:34.005Z</time></trkpt><trkpt lat="44.817497" lon="9.215224"><ele>476.79999999999995</ele><time>2026-04-11T13:26:35.005Z</time></trkpt><trkpt lat="44.817429" lon="9.2151301"><ele>476.2</ele><time>2026-04-11T13:26:36.005Z</time></trkpt><trkpt lat="44.8173439" lon="9.2150714"><ele>475.6</ele><time>2026-04-11T13:26:37.004Z</time></trkpt><trkpt lat="44.8172396" lon="9.2150609"><ele>475.0</ele><time>2026-04-11T13:26:38.005Z</time></trkpt><trkpt lat="44.8171321" lon="9.2150852"><ele>475.00000000000006</ele><time>2026-04-11T13:26:39.005Z</time></trkpt><trkpt lat="44.8170406" lon="9.215119"><ele>475.0</ele><time>2026-04-11T13:26:40.004Z</time></trkpt><trkpt lat="44.8169621" lon="9.2151177"><ele>475.0</ele><time>2026-04-11T13:26:41.005Z</time></trkpt><trkpt lat="44.8168957" lon="9.2150619"><ele>475.0</ele><time>2026-04-11T13:26:42.004Z</time></trkpt><trkpt lat="44.8168506" lon="9.2149694"><ele>475.00000000000006</ele><time>2026-04-11T13:26:43.005Z</time></trkpt><trkpt lat="44.8168592" lon="9.2148532"><ele>475.0</ele><time>2026-04-11T13:26:44.004Z</time></trkpt><trkpt lat="44.8169141" lon="9.2147513"><ele>472.6</ele><time>2026-04-11T13:26:45.005Z</time></trkpt><trkpt lat="44.8170045" lon="9.2146794"><ele>470.2</ele><time>2026-04-11T13:26:46.005Z</time></trkpt><trkpt lat="44.8171132" lon="9.2146346"><ele>467.79999999999995</ele><time>2026-04-11T13:26:47.005Z</time></trkpt><trkpt lat="44.8172177" lon="9.2145849"><ele>465.4</ele><time>2026-04-11T13:26:48.005Z</time></trkpt><trkpt lat="44.8173152" lon="9.2145273"><ele>463.0</ele><time>2026-04-11T13:26:49.005Z</time></trkpt><trkpt lat="44.8174115" lon="9.2144819"><ele>463.0</ele><time>2026-04-11T13:26:50.005Z</time></trkpt><trkpt lat="44.8175262" lon="9.2144624"><ele>463.0</ele><time>2026-04-11T13:26:51.005Z</time></trkpt><trkpt lat="44.8176488" lon="9.2144747"><ele>463.0</ele><time>2026-04-11T13:26:52.004Z</time></trkpt><trkpt lat="44.8177785" lon="9.2145442"><ele>463.0</ele><time>2026-04-11T13:26:53.005Z</time></trkpt><trkpt lat="44.8179063" lon="9.2146322"><ele>461.75</ele><time>2026-04-11T13:26:54.005Z</time></trkpt><trkpt lat="44.8180263" lon="9.2147287"><ele>460.5</ele><time>2026-04-11T13:26:55.005Z</time></trkpt><trkpt lat="44.8181344" lon="9.2148176"><ele>459.25</ele><time>2026-04-11T13:26:56.005Z</time></trkpt><trkpt lat="44.8182351" lon="9.2148947"><ele>458.0</ele><time>2026-04-11T13:26:57.005Z</time></trkpt><trkpt lat="44.8183303" lon="9.2149483"><ele>458.79999999999995</ele><time>2026-04-11T13:26:58.005Z</time></trkpt><trkpt lat="44.8184248" lon="9.2149631"><ele>459.59999999999997</ele><time>2026-04-11T13:26:59.004Z</time></trkpt><trkpt lat="44.8185285" lon="9.2149321"><ele>460.40000000000003</ele><time>2026-04-11T13:27:00.004Z</time></trkpt><trkpt lat="44.8186373" lon="9.214874"><ele>461.20000000000005</ele><time>2026-04-11T13:27:01.005Z</time></trkpt><trkpt lat="44.8187371" lon="9.2147998"><ele>462.0</ele><time>2026-04-11T13:27:02.005Z</time></trkpt><trkpt lat="44.8188257" lon="9.2147008"><ele>460.20000000000005</ele><time>2026-04-11T13:27:03.005Z</time></trkpt><trkpt lat="44.8188862" lon="9.2145809"><ele>458.40000000000003</ele><time>2026-04-11T13:27:04.006Z</time></trkpt><trkpt lat="44.8189191" lon="9.2144401"><ele>456.59999999999997</ele><time>2026-04-11T13:27:05.005Z</time></trkpt><trkpt lat="44.8189123" lon="9.2142811"><ele>454.79999999999995</ele><time>2026-04-11T13:27:06.005Z</time></trkpt><trkpt lat="44.8188926" lon="9.2141184"><ele>453.0</ele><time>2026-04-11T13:27:07.006Z</time></trkpt><trkpt lat="44.8188877" lon="9.2139722"><ele>451.59999999999997</ele><time>2026-04-11T13:27:08.006Z</time></trkpt><trkpt lat="44.8189203" lon="9.2138492"><ele>450.19999999999993</ele><time>2026-04-11T13:27:09.006Z</time></trkpt><trkpt lat="44.818984" lon="9.2137331"><ele>448.8</ele><time>2026-04-11T13:27:10.005Z</time></trkpt><trkpt lat="44.8190655" lon="9.2136238"><ele>447.4</ele><time>2026-04-11T13:27:11.005Z</time></trkpt><trkpt lat="44.8191704" lon="9.213518"><ele>446.0</ele><time>2026-04-11T13:27:12.006Z</time></trkpt><trkpt lat="44.8192906" lon="9.2134103"><ele>446.75</ele><time>2026-04-11T13:27:13.006Z</time></trkpt><trkpt lat="44.8194047" lon="9.2133094"><ele>447.5</ele><time>2026-04-11T13:27:14.006Z</time></trkpt><trkpt lat="44.8195054" lon="9.213225"><ele>448.25</ele><time>2026-04-11T13:27:15.006Z</time></trkpt><trkpt lat="44.8195977" lon="9.2131258"><ele>449.0</ele><time>2026-04-11T13:27:16.006Z</time></trkpt><trkpt lat="44.8196666" lon="9.2129953"><ele>451.25</ele><time>2026-04-11T13:27:17.006Z</time></trkpt><trkpt lat="44.8196964" lon="9.2128248"><ele>453.5</ele><time>2026-04-11T13:27:18.006Z</time></trkpt><trkpt lat="44.8196925" lon="9.2126308"><ele>455.75</ele><time>2026-04-11T13:27:19.006Z</time></trkpt><trkpt lat="44.8196625" lon="9.2124342"><ele>458.0</ele><time>2026-04-11T13:27:20.006Z</time></trkpt><trkpt lat="44.819627" lon="9.2122494"><ele>459.5</ele><time>2026-04-11T13:27:21.005Z</time></trkpt><trkpt lat="44.8195833" lon="9.2120846"><ele>461.0</ele><time>2026-04-11T13:27:22.006Z</time></trkpt><trkpt lat="44.8195413" lon="9.2119251"><ele>462.5</ele><time>2026-04-11T13:27:23.006Z</time></trkpt><trkpt lat="44.8195052" lon="9.2117596"><ele>464.0</ele><time>2026-04-11T13:27:24.006Z</time></trkpt><trkpt lat="44.8194725" lon="9.2115943"><ele>465.0</ele><time>2026-04-11T13:27:25.006Z</time></trkpt><trkpt lat="44.8194337" lon="9.211426"><ele>466.0</ele><time>2026-04-11T13:27:26.005Z</time></trkpt><trkpt lat="44.8193937" lon="9.2112582"><ele>467.0</ele><time>2026-04-11T13:27:27.005Z</time></trkpt><trkpt lat="44.8193516" lon="9.2110896"><ele>468.0</ele><time>2026-04-11T13:27:28.006Z</time></trkpt><trkpt lat="44.8193118" lon="9.2109186"><ele>461.75</ele><time>2026-04-11T13:27:29.006Z</time></trkpt><trkpt lat="44.8192727" lon="9.2107483"><ele>455.5</ele><time>2026-04-11T13:27:30.006Z</time></trkpt><trkpt lat="44.8192273" lon="9.2105792"><ele>449.25</ele><time>2026-04-11T13:27:31.006Z</time></trkpt><trkpt lat="44.8191806" lon="9.2104085"><ele>443.0</ele><time>2026-04-11T13:27:32.006Z</time></trkpt><trkpt lat="44.8191379" lon="9.2102345"><ele>443.0</ele><time>2026-04-11T13:27:33.006Z</time></trkpt><trkpt lat="44.8190954" lon="9.2100565"><ele>443.0</ele><time>2026-04-11T13:27:34.006Z</time></trkpt><trkpt lat="44.8190533" lon="9.2098827"><ele>443.0</ele><time>2026-04-11T13:27:35.006Z</time></trkpt><trkpt lat="44.8190249" lon="9.2097181"><ele>443.0</ele><time>2026-04-11T13:27:36.006Z</time></trkpt><trkpt lat="44.8190155" lon="9.2095509"><ele>442.0</ele><time>2026-04-11T13:27:37.006Z</time></trkpt><trkpt lat="44.8190225" lon="9.2093851"><ele>441.0</ele><time>2026-04-11T13:27:38.006Z</time></trkpt><trkpt lat="44.819053" lon="9.2092273"><ele>440.0</ele><time>2026-04-11T13:27:39.005Z</time></trkpt><trkpt lat="44.8191018" lon="9.2090751"><ele>439.0</ele><time>2026-04-11T13:27:40.006Z</time></trkpt><trkpt lat="44.8191635" lon="9.2089338"><ele>439.2</ele><time>2026-04-11T13:27:41.006Z</time></trkpt><trkpt lat="44.8192461" lon="9.2088147"><ele>439.4</ele><time>2026-04-11T13:27:42.006Z</time></trkpt><trkpt lat="44.8193293" lon="9.2087085"><ele>439.6</ele><time>2026-04-11T13:27:43.006Z</time></trkpt><trkpt lat="44.8193959" lon="9.2086093"><ele>439.8</ele><time>2026-04-11T13:27:44.006Z</time></trkpt><trkpt lat="44.8194576" lon="9.2085195"><ele>440.0</ele><time>2026-04-11T13:27:45.006Z</time></trkpt><trkpt lat="44.8195169" lon="9.2084291"><ele>440.0</ele><time>2026-04-11T13:27:46.006Z</time></trkpt><trkpt lat="44.8195761" lon="9.208334"><ele>440.0</ele><time>2026-04-11T13:27:47.006Z</time></trkpt><trkpt lat="44.8196435" lon="9.2082416"><ele>440.0</ele><time>2026-04-11T13:27:48.006Z</time></trkpt><trkpt lat="44.8197077" lon="9.2081537"><ele>440.0</ele><time>2026-04-11T13:27:49.006Z</time></trkpt><trkpt lat="44.8197723" lon="9.2080603"><ele>440.0</ele><time>2026-04-11T13:27:50.006Z</time></trkpt><trkpt lat="44.8198388" lon="9.2079685"><ele>440.6</ele><time>2026-04-11T13:27:51.006Z</time></trkpt><trkpt lat="44.8199064" lon="9.2078706"><ele>441.2</ele><time>2026-04-11T13:27:52.007Z</time></trkpt><trkpt lat="44.8199786" lon="9.2077701"><ele>441.79999999999995</ele><time>2026-04-11T13:27:53.007Z</time></trkpt><trkpt lat="44.8200511" lon="9.2076711"><ele>442.4</ele><time>2026-04-11T13:27:54.006Z</time></trkpt><trkpt lat="44.8201245" lon="9.2075646"><ele>443.0</ele><time>2026-04-11T13:27:55.006Z</time></trkpt><trkpt lat="44.8202056" lon="9.2074551"><ele>443.0</ele><time>2026-04-11T13:27:56.007Z</time></trkpt><trkpt lat="44.8202878" lon="9.2073441"><ele>443.0</ele><time>2026-04-11T13:27:57.006Z</time></trkpt><trkpt lat="44.8203721" lon="9.2072265"><ele>443.0</ele><time>2026-04-11T13:27:58.007Z</time></trkpt><trkpt lat="44.8204597" lon="9.2070986"><ele>443.0</ele><time>2026-04-11T13:27:59.006Z</time></trkpt><trkpt lat="44.8205525" lon="9.2069658"><ele>440.25</ele><time>2026-04-11T13:28:00.007Z</time></trkpt><trkpt lat="44.8206486" lon="9.2068232"><ele>437.5</ele><time>2026-04-11T13:28:01.007Z</time></trkpt><trkpt lat="44.8207401" lon="9.2066819"><ele>434.75</ele><time>2026-04-11T13:28:02.006Z</time></trkpt><trkpt lat="44.8208354" lon="9.206544"><ele>432.0</ele><time>2026-04-11T13:28:03.007Z</time></trkpt><trkpt lat="44.8209328" lon="9.206404"><ele>432.0</ele><time>2026-04-11T13:28:04.006Z</time></trkpt><trkpt lat="44.8210352" lon="9.2062521"><ele>432.0</ele><time>2026-04-11T13:28:05.006Z</time></trkpt><trkpt lat="44.8211368" lon="9.2061007"><ele>432.0</ele><time>2026-04-11T13:28:06.007Z</time></trkpt><trkpt lat="44.8212364" lon="9.2059553"><ele>432.0</ele><time>2026-04-11T13:28:07.007Z</time></trkpt><trkpt lat="44.8213408" lon="9.2058151"><ele>432.0</ele><time>2026-04-11T13:28:08.007Z</time></trkpt><trkpt lat="44.8214371" lon="9.205682"><ele>432.0</ele><time>2026-04-11T13:28:09.007Z</time></trkpt><trkpt lat="44.8215263" lon="9.2055278"><ele>432.0</ele><time>2026-04-11T13:28:10.006Z</time></trkpt><trkpt lat="44.821608" lon="9.2053644"><ele>432.0</ele><time>2026-04-11T13:28:11.007Z</time></trkpt><trkpt lat="44.8216882" lon="9.2051981"><ele>431.75</ele><time>2026-04-11T13:28:12.003Z</time></trkpt><trkpt lat="44.8217605" lon="9.2050275"><ele>431.5</ele><time>2026-04-11T13:28:13.007Z</time></trkpt><trkpt lat="44.8218237" lon="9.2048498"><ele>431.25</ele><time>2026-04-11T13:28:14.007Z</time></trkpt><trkpt lat="44.8218827" lon="9.2046698"><ele>431.0</ele><time>2026-04-11T13:28:15.006Z</time></trkpt><trkpt lat="44.8219386" lon="9.2044843"><ele>431.0</ele><time>2026-04-11T13:28:16.007Z</time></trkpt><trkpt lat="44.8219848" lon="9.2042997"><ele>431.0</ele><time>2026-04-11T13:28:17.007Z</time></trkpt><trkpt lat="44.8220267" lon="9.2041166"><ele>431.0</ele><time>2026-04-11T13:28:18.007Z</time></trkpt><trkpt lat="44.8220649" lon="9.2039457"><ele>431.0</ele><time>2026-04-11T13:28:19.006Z</time></trkpt><trkpt lat="44.8220993" lon="9.2037875"><ele>429.0</ele><time>2026-04-11T13:28:20.007Z</time></trkpt><trkpt lat="44.8221365" lon="9.2036296"><ele>427.0</ele><time>2026-04-11T13:28:21.006Z</time></trkpt><trkpt lat="44.8221709" lon="9.2034703"><ele>425.0</ele><time>2026-04-11T13:28:22.007Z</time></trkpt><trkpt lat="44.8222016" lon="9.2033076"><ele>423.0</ele><time>2026-04-11T13:28:23.006Z</time></trkpt><trkpt lat="44.8222385" lon="9.2031434"><ele>423.0</ele><time>2026-04-11T13:28:24.007Z</time></trkpt><trkpt lat="44.8222802" lon="9.2029829"><ele>423.0</ele><time>2026-04-11T13:28:25.007Z</time></trkpt><trkpt lat="44.8223234" lon="9.2028235"><ele>423.0</ele><time>2026-04-11T13:28:26.007Z</time></trkpt><trkpt lat="44.8223612" lon="9.2026607"><ele>423.0</ele><time>2026-04-11T13:28:27.007Z</time></trkpt><trkpt lat="44.8224057" lon="9.2024967"><ele>423.0</ele><time>2026-04-11T13:28:28.007Z</time></trkpt><trkpt lat="44.8224528" lon="9.2023332"><ele>423.0</ele><time>2026-04-11T13:28:29.007Z</time></trkpt><trkpt lat="44.8224945" lon="9.2021639"><ele>423.0</ele><time>2026-04-11T13:28:30.007Z</time></trkpt><trkpt lat="44.8225401" lon="9.2019969"><ele>423.0</ele><time>2026-04-11T13:28:31.007Z</time></trkpt><trkpt lat="44.8225795" lon="9.2018318"><ele>422.79999999999995</ele><time>2026-04-11T13:28:32.007Z</time></trkpt><trkpt lat="44.8226219" lon="9.2016774"><ele>422.6</ele><time>2026-04-11T13:28:33.007Z</time></trkpt><trkpt lat="44.8226661" lon="9.2015337"><ele>422.4</ele><time>2026-04-11T13:28:34.007Z</time></trkpt><trkpt lat="44.8227126" lon="9.2013971"><ele>422.20000000000005</ele><time>2026-04-11T13:28:35.007Z</time></trkpt><trkpt lat="44.8227538" lon="9.2012636"><ele>422.0</ele><time>2026-04-11T13:28:36.007Z</time></trkpt><trkpt lat="44.8227882" lon="9.2011355"><ele>421.49999999999994</ele><time>2026-04-11T13:28:37.007Z</time></trkpt><trkpt lat="44.8228202" lon="9.2010114"><ele>421.0</ele><time>2026-04-11T13:28:38.007Z</time></trkpt><trkpt lat="44.8228458" lon="9.200896"><ele>420.5</ele><time>2026-04-11T13:28:39.007Z</time></trkpt><trkpt lat="44.8228643" lon="9.2007999"><ele>420.0</ele><time>2026-04-11T13:28:40.007Z</time></trkpt><trkpt lat="44.8228669" lon="9.2006467"><ele>419.49999999999994</ele><time>2026-04-11T13:28:42.007Z</time></trkpt><trkpt lat="44.8228076" lon="9.2005643"><ele>419.0</ele><time>2026-04-11T13:28:43.008Z</time></trkpt><trkpt lat="44.8227378" lon="9.2004865"><ele>418.79999999999995</ele><time>2026-04-11T13:28:44.008Z</time></trkpt><trkpt lat="44.8226499" lon="9.2004307"><ele>418.59999999999997</ele><time>2026-04-11T13:28:45.008Z</time></trkpt><trkpt lat="44.8225472" lon="9.2003771"><ele>418.4</ele><time>2026-04-11T13:28:46.007Z</time></trkpt><trkpt lat="44.8224407" lon="9.2003222"><ele>418.2</ele><time>2026-04-11T13:28:47.008Z</time></trkpt><trkpt lat="44.8223355" lon="9.2002658"><ele>418.0</ele><time>2026-04-11T13:28:48.008Z</time></trkpt><trkpt lat="44.8222413" lon="9.2002149"><ele>417.2</ele><time>2026-04-11T13:28:49.008Z</time></trkpt><trkpt lat="44.8221529" lon="9.2001464"><ele>416.4</ele><time>2026-04-11T13:28:50.008Z</time></trkpt><trkpt lat="44.8220621" lon="9.2000891"><ele>415.59999999999997</ele><time>2026-04-11T13:28:51.008Z</time></trkpt><trkpt lat="44.8219648" lon="9.2000454"><ele>414.79999999999995</ele><time>2026-04-11T13:28:52.007Z</time></trkpt><trkpt lat="44.8218676" lon="9.2000052"><ele>414.0</ele><time>2026-04-11T13:28:53.007Z</time></trkpt><trkpt lat="44.8217833" lon="9.1999338"><ele>413.0</ele><time>2026-04-11T13:28:54.008Z</time></trkpt><trkpt lat="44.8217128" lon="9.1998451"><ele>412.0</ele><time>2026-04-11T13:28:55.007Z</time></trkpt><trkpt lat="44.821667" lon="9.199734"><ele>411.0</ele><time>2026-04-11T13:28:56.008Z</time></trkpt><trkpt lat="44.8216474" lon="9.1996103"><ele>410.0</ele><time>2026-04-11T13:28:57.008Z</time></trkpt><trkpt lat="44.8216659" lon="9.1994725"><ele>409.0</ele><time>2026-04-11T13:28:58.008Z</time></trkpt><trkpt lat="44.821696" lon="9.1993236"><ele>408.25</ele><time>2026-04-11T13:28:59.007Z</time></trkpt><trkpt lat="44.8217211" lon="9.1991624"><ele>407.5</ele><time>2026-04-11T13:29:00.008Z</time></trkpt><trkpt lat="44.8217449" lon="9.1989984"><ele>406.75</ele><time>2026-04-11T13:29:01.008Z</time></trkpt><trkpt lat="44.8217715" lon="9.1988267"><ele>406.0</ele><time>2026-04-11T13:29:02.007Z</time></trkpt><trkpt lat="44.8217929" lon="9.1986419"><ele>406.5</ele><time>2026-04-11T13:29:03.008Z</time></trkpt><trkpt lat="44.8218157" lon="9.1984485"><ele>407.0</ele><time>2026-04-11T13:29:04.008Z</time></trkpt><trkpt lat="44.8218352" lon="9.1982604"><ele>407.5</ele><time>2026-04-11T13:29:05.008Z</time></trkpt><trkpt lat="44.8218562" lon="9.1980797"><ele>408.0</ele><time>2026-04-11T13:29:06.007Z</time></trkpt><trkpt lat="44.8218753" lon="9.1979"><ele>408.0</ele><time>2026-04-11T13:29:07.008Z</time></trkpt><trkpt lat="44.8218931" lon="9.1977245"><ele>408.0</ele><time>2026-04-11T13:29:08.008Z</time></trkpt><trkpt lat="44.8219092" lon="9.1975448"><ele>408.0</ele><time>2026-04-11T13:29:09.008Z</time></trkpt><trkpt lat="44.8219275" lon="9.1973624"><ele>408.0</ele><time>2026-04-11T13:29:10.008Z</time></trkpt><trkpt lat="44.8219472" lon="9.19718"><ele>407.75</ele><time>2026-04-11T13:29:11.008Z</time></trkpt><trkpt lat="44.8219685" lon="9.1969957"><ele>407.5</ele><time>2026-04-11T13:29:12.008Z</time></trkpt><trkpt lat="44.8219912" lon="9.1968037"><ele>407.25</ele><time>2026-04-11T13:29:13.008Z</time></trkpt><trkpt lat="44.8220141" lon="9.1966022"><ele>407.0</ele><time>2026-04-11T13:29:14.008Z</time></trkpt><trkpt lat="44.8220367" lon="9.1964046"><ele>406.8</ele><time>2026-04-11T13:29:15.007Z</time></trkpt><trkpt lat="44.8220602" lon="9.1962289"><ele>406.6</ele><time>2026-04-11T13:29:16.008Z</time></trkpt><trkpt lat="44.8220829" lon="9.1960732"><ele>406.40000000000003</ele><time>2026-04-11T13:29:17.008Z</time></trkpt><trkpt lat="44.8221029" lon="9.1959287"><ele>406.20000000000005</ele><time>2026-04-11T13:29:18.008Z</time></trkpt><trkpt lat="44.822118" lon="9.195785"><ele>406.0</ele><time>2026-04-11T13:29:19.007Z</time></trkpt><trkpt lat="44.8221331" lon="9.1956433"><ele>405.50000000000006</ele><time>2026-04-11T13:29:20.008Z</time></trkpt><trkpt lat="44.8221518" lon="9.1955007"><ele>405.0</ele><time>2026-04-11T13:29:21.008Z</time></trkpt><trkpt lat="44.8221685" lon="9.1953632"><ele>404.5</ele><time>2026-04-11T13:29:22.008Z</time></trkpt><trkpt lat="44.822188" lon="9.1952365"><ele>404.0</ele><time>2026-04-11T13:29:23.008Z</time></trkpt><trkpt lat="44.8222119" lon="9.195126"><ele>403.50000000000006</ele><time>2026-04-11T13:29:24.008Z</time></trkpt><trkpt lat="44.8222368" lon="9.1950442"><ele>403.0</ele><time>2026-04-11T13:29:25.008Z</time></trkpt><trkpt lat="44.822268" lon="9.194926"><ele>403.00000000000006</ele><time>2026-04-11T13:29:27.008Z</time></trkpt><trkpt lat="44.8221762" lon="9.1949699"><ele>403.0</ele><time>2026-04-11T13:29:43.009Z</time></trkpt><trkpt lat="44.8221495" lon="9.1951327"><ele>403.0</ele><time>2026-04-11T13:29:45.009Z</time></trkpt><trkpt lat="44.8221407" lon="9.1952253"><ele>403.0</ele><time>2026-04-11T13:29:46.009Z</time></trkpt><trkpt lat="44.82213" lon="9.1953271"><ele>403.00000000000006</ele><time>2026-04-11T13:29:47.009Z</time></trkpt><trkpt lat="44.8221147" lon="9.1954434"><ele>403.0</ele><time>2026-04-11T13:29:48.009Z</time></trkpt><trkpt lat="44.8221036" lon="9.1955653"><ele>403.59999999999997</ele><time>2026-04-11T13:29:49.009Z</time></trkpt><trkpt lat="44.8220929" lon="9.1956806"><ele>404.2</ele><time>2026-04-11T13:29:50.008Z</time></trkpt><trkpt lat="44.8220813" lon="9.1958482"><ele>404.8</ele><time>2026-04-11T13:29:52.009Z</time></trkpt><trkpt lat="44.8220198" lon="9.1959389"><ele>405.4</ele><time>2026-04-11T13:29:54.009Z</time></trkpt><trkpt lat="44.8218893" lon="9.1959029"><ele>406.0</ele><time>2026-04-11T13:29:56.008Z</time></trkpt><trkpt lat="44.8218095" lon="9.1958725"><ele>404.8</ele><time>2026-04-11T13:29:57.008Z</time></trkpt><trkpt lat="44.8217235" lon="9.1958432"><ele>403.6</ele><time>2026-04-11T13:29:58.009Z</time></trkpt><trkpt lat="44.8216295" lon="9.1958109"><ele>402.4</ele><time>2026-04-11T13:29:59.009Z</time></trkpt><trkpt lat="44.8215271" lon="9.1957772"><ele>401.2</ele><time>2026-04-11T13:30:00.009Z</time></trkpt><trkpt lat="44.8214194" lon="9.1957428"><ele>400.0</ele><time>2026-04-11T13:30:01.009Z</time></trkpt><trkpt lat="44.8213093" lon="9.1957069"><ele>400.0</ele><time>2026-04-11T13:30:02.009Z</time></trkpt><trkpt lat="44.8211935" lon="9.1956725"><ele>400.0</ele><time>2026-04-11T13:30:03.009Z</time></trkpt><trkpt lat="44.8210822" lon="9.1956364"><ele>400.0</ele><time>2026-04-11T13:30:04.009Z</time></trkpt><trkpt lat="44.8209724" lon="9.1956037"><ele>400.0</ele><time>2026-04-11T13:30:05.008Z</time></trkpt><trkpt lat="44.8208687" lon="9.1955704"><ele>400.2</ele><time>2026-04-11T13:30:06.008Z</time></trkpt><trkpt lat="44.8207585" lon="9.195534"><ele>400.4</ele><time>2026-04-11T13:30:07.009Z</time></trkpt><trkpt lat="44.8206597" lon="9.1954996"><ele>400.6</ele><time>2026-04-11T13:30:08.009Z</time></trkpt><trkpt lat="44.8205535" lon="9.1954743"><ele>400.8</ele><time>2026-04-11T13:30:09.009Z</time></trkpt><trkpt lat="44.8204598" lon="9.1954473"><ele>401.0</ele><time>2026-04-11T13:30:10.008Z</time></trkpt><trkpt lat="44.8203568" lon="9.1954138"><ele>401.0</ele><time>2026-04-11T13:30:11.009Z</time></trkpt><trkpt lat="44.8202627" lon="9.1953713"><ele>401.0</ele><time>2026-04-11T13:30:12.009Z</time></trkpt><trkpt lat="44.8201699" lon="9.195316"><ele>401.0</ele><time>2026-04-11T13:30:13.009Z</time></trkpt><trkpt lat="44.8200879" lon="9.1952261"><ele>401.0</ele><time>2026-04-11T13:30:14.009Z</time></trkpt><trkpt lat="44.8200387" lon="9.1950976"><ele>401.0</ele><time>2026-04-11T13:30:15.009Z</time></trkpt><trkpt lat="44.8200235" lon="9.1949254"><ele>402.5</ele><time>2026-04-11T13:30:16.008Z</time></trkpt><trkpt lat="44.8200242" lon="9.1947456"><ele>404.0</ele><time>2026-04-11T13:30:17.01Z</time></trkpt><trkpt lat="44.8200294" lon="9.1945561"><ele>405.5</ele><time>2026-04-11T13:30:18.01Z</time></trkpt><trkpt lat="44.820036" lon="9.194359"><ele>407.0</ele><time>2026-04-11T13:30:19.01Z</time></trkpt><trkpt lat="44.8200374" lon="9.1941551"><ele>405.75</ele><time>2026-04-11T13:30:20.01Z</time></trkpt><trkpt lat="44.820026" lon="9.1939492"><ele>404.5</ele><time>2026-04-11T13:30:21.009Z</time></trkpt><trkpt lat="44.8199955" lon="9.1937506"><ele>403.25</ele><time>2026-04-11T13:30:22.01Z</time></trkpt><trkpt lat="44.8199485" lon="9.1935553"><ele>402.0</ele><time>2026-04-11T13:30:23.01Z</time></trkpt><trkpt lat="44.8198993" lon="9.1933513"><ele>401.33333333333337</ele><time>2026-04-11T13:30:24.01Z</time></trkpt><trkpt lat="44.8198692" lon="9.1931418"><ele>400.6666666666667</ele><time>2026-04-11T13:30:25.01Z</time></trkpt><trkpt lat="44.8198492" lon="9.1929249"><ele>400.0</ele><time>2026-04-11T13:30:26.01Z</time></trkpt><trkpt lat="44.8198307" lon="9.192715"><ele>400.0</ele><time>2026-04-11T13:30:27.01Z</time></trkpt><trkpt lat="44.8198133" lon="9.1925173"><ele>400.0</ele><time>2026-04-11T13:30:28.01Z</time></trkpt><trkpt lat="44.8197955" lon="9.1923327"><ele>400.0</ele><time>2026-04-11T13:30:29.01Z</time></trkpt><trkpt lat="44.81977" lon="9.1921662"><ele>400.0</ele><time>2026-04-11T13:30:30.01Z</time></trkpt><trkpt lat="44.8197393" lon="9.1920012"><ele>399.5</ele><time>2026-04-11T13:30:31.01Z</time></trkpt><trkpt lat="44.8196921" lon="9.1918514"><ele>399.0</ele><time>2026-04-11T13:30:32.01Z</time></trkpt><trkpt lat="44.8196323" lon="9.191709"><ele>398.5</ele><time>2026-04-11T13:30:33.01Z</time></trkpt><trkpt lat="44.8195719" lon="9.1915652"><ele>398.0</ele><time>2026-04-11T13:30:34.01Z</time></trkpt><trkpt lat="44.8195186" lon="9.1914029"><ele>397.25</ele><time>2026-04-11T13:30:35.009Z</time></trkpt><trkpt lat="44.8194771" lon="9.1912282"><ele>396.5</ele><time>2026-04-11T13:30:36.009Z</time></trkpt><trkpt lat="44.8194443" lon="9.191037"><ele>395.75</ele><time>2026-04-11T13:30:37.01Z</time></trkpt><trkpt lat="44.8194181" lon="9.1908369"><ele>395.0</ele><time>2026-04-11T13:30:38.01Z</time></trkpt><trkpt lat="44.8193968" lon="9.1906337"><ele>394.3333333333333</ele><time>2026-04-11T13:30:39.01Z</time></trkpt><trkpt lat="44.8193853" lon="9.190419"><ele>393.66666666666663</ele><time>2026-04-11T13:30:40.01Z</time></trkpt><trkpt lat="44.8193799" lon="9.1901936"><ele>393.0</ele><time>2026-04-11T13:30:41.01Z</time></trkpt><trkpt lat="44.8193662" lon="9.1899704"><ele>392.66666666666663</ele><time>2026-04-11T13:30:42.01Z</time></trkpt><trkpt lat="44.8193448" lon="9.1897457"><ele>392.3333333333333</ele><time>2026-04-11T13:30:43.01Z</time></trkpt><trkpt lat="44.819334" lon="9.1895171"><ele>392.0</ele><time>2026-04-11T13:30:44.01Z</time></trkpt><trkpt lat="44.8193282" lon="9.189286"><ele>392.0</ele><time>2026-04-11T13:30:45.01Z</time></trkpt><trkpt lat="44.8193199" lon="9.1890562"><ele>392.0</ele><time>2026-04-11T13:30:46.009Z</time></trkpt><trkpt lat="44.8193124" lon="9.1888397"><ele>392.0</ele><time>2026-04-11T13:30:47.009Z</time></trkpt><trkpt lat="44.8193092" lon="9.1886408"><ele>393.0</ele><time>2026-04-11T13:30:48.009Z</time></trkpt><trkpt lat="44.8193036" lon="9.1884517"><ele>394.0</ele><time>2026-04-11T13:30:49.01Z</time></trkpt><trkpt lat="44.8192965" lon="9.1882801"><ele>395.0</ele><time>2026-04-11T13:30:50.009Z</time></trkpt><trkpt lat="44.8192844" lon="9.1881209"><ele>396.0</ele><time>2026-04-11T13:30:51.01Z</time></trkpt><trkpt lat="44.8192676" lon="9.1879792"><ele>396.0</ele><time>2026-04-11T13:30:52.009Z</time></trkpt><trkpt lat="44.8192269" lon="9.1878576"><ele>396.0</ele><time>2026-04-11T13:30:53.01Z</time></trkpt><trkpt lat="44.8191658" lon="9.1877491"><ele>396.0</ele><time>2026-04-11T13:30:54.01Z</time></trkpt><trkpt lat="44.8190824" lon="9.1876543"><ele>396.0</ele><time>2026-04-11T13:30:55.01Z</time></trkpt><trkpt lat="44.818977" lon="9.187583"><ele>396.0</ele><time>2026-04-11T13:30:56.01Z</time></trkpt><trkpt lat="44.8188689" lon="9.1875302"><ele>396.0</ele><time>2026-04-11T13:30:57.009Z</time></trkpt><trkpt lat="44.8187621" lon="9.1874804"><ele>396.0</ele><time>2026-04-11T13:30:58.01Z</time></trkpt><trkpt lat="44.8186605" lon="9.1874395"><ele>396.0</ele><time>2026-04-11T13:30:59.01Z</time></trkpt><trkpt lat="44.8185605" lon="9.1873991"><ele>396.0</ele><time>2026-04-11T13:31:00.01Z</time></trkpt><trkpt lat="44.8184683" lon="9.1873869"><ele>396.0</ele><time>2026-04-11T13:31:01.01Z</time></trkpt><trkpt lat="44.8183768" lon="9.1873986"><ele>397.5</ele><time>2026-04-11T13:31:02.009Z</time></trkpt><trkpt lat="44.8182854" lon="9.1874528"><ele>399.0</ele><time>2026-04-11T13:31:03.01Z</time></trkpt><trkpt lat="44.8181951" lon="9.1875348"><ele>400.5</ele><time>2026-04-11T13:31:04.01Z</time></trkpt><trkpt lat="44.8181013" lon="9.1876422"><ele>402.0</ele><time>2026-04-11T13:31:05.011Z</time></trkpt><trkpt lat="44.8180055" lon="9.1877656"><ele>402.0</ele><time>2026-04-11T13:31:06.011Z</time></trkpt><trkpt lat="44.817906" lon="9.1878766"><ele>402.0</ele><time>2026-04-11T13:31:07.01Z</time></trkpt><trkpt lat="44.817809" lon="9.1879709"><ele>402.0</ele><time>2026-04-11T13:31:08.011Z</time></trkpt><trkpt lat="44.8177094" lon="9.1880286"><ele>402.0</ele><time>2026-04-11T13:31:09.011Z</time></trkpt><trkpt lat="44.817599" lon="9.1880466"><ele>400.75</ele><time>2026-04-11T13:31:10.011Z</time></trkpt><trkpt lat="44.81748" lon="9.1880445"><ele>399.5</ele><time>2026-04-11T13:31:11.011Z</time></trkpt><trkpt lat="44.8173587" lon="9.1880308"><ele>398.25</ele><time>2026-04-11T13:31:12.011Z</time></trkpt><trkpt lat="44.8172267" lon="9.1880079"><ele>397.0</ele><time>2026-04-11T13:31:13.011Z</time></trkpt><trkpt lat="44.8170926" lon="9.1879921"><ele>397.0</ele><time>2026-04-11T13:31:14.011Z</time></trkpt><trkpt lat="44.8169572" lon="9.1879906"><ele>397.0</ele><time>2026-04-11T13:31:15.011Z</time></trkpt><trkpt lat="44.8168195" lon="9.1880157"><ele>397.0</ele><time>2026-04-11T13:31:16.011Z</time></trkpt><trkpt lat="44.8166909" lon="9.1880614"><ele>397.0</ele><time>2026-04-11T13:31:17.011Z</time></trkpt><trkpt lat="44.816567" lon="9.1881222"><ele>400.0</ele><time>2026-04-11T13:31:18.011Z</time></trkpt><trkpt lat="44.8164481" lon="9.1881783"><ele>403.0</ele><time>2026-04-11T13:31:19.011Z</time></trkpt><trkpt lat="44.8163386" lon="9.1882274"><ele>406.0</ele><time>2026-04-11T13:31:20.011Z</time></trkpt><trkpt lat="44.8162355" lon="9.1882503"><ele>409.0</ele><time>2026-04-11T13:31:21.011Z</time></trkpt><trkpt lat="44.816122" lon="9.1882515"><ele>409.0</ele><time>2026-04-11T13:31:22.01Z</time></trkpt><trkpt lat="44.8159993" lon="9.1882615"><ele>409.0</ele><time>2026-04-11T13:31:23.011Z</time></trkpt><trkpt lat="44.8158735" lon="9.1882534"><ele>409.0</ele><time>2026-04-11T13:31:24.011Z</time></trkpt><trkpt lat="44.8157455" lon="9.1882627"><ele>409.0</ele><time>2026-04-11T13:31:25.011Z</time></trkpt><trkpt lat="44.8156125" lon="9.1883102"><ele>408.33333333333337</ele><time>2026-04-11T13:31:26.011Z</time></trkpt><trkpt lat="44.8154761" lon="9.1883772"><ele>407.66666666666663</ele><time>2026-04-11T13:31:27.011Z</time></trkpt><trkpt lat="44.8153375" lon="9.1884692"><ele>407.0</ele><time>2026-04-11T13:31:28.011Z</time></trkpt><trkpt lat="44.8152063" lon="9.188595"><ele>410.66666666666663</ele><time>2026-04-11T13:31:29.011Z</time></trkpt><trkpt lat="44.8150788" lon="9.1887321"><ele>414.33333333333337</ele><time>2026-04-11T13:31:30.011Z</time></trkpt><trkpt lat="44.8149485" lon="9.1888748"><ele>418.0</ele><time>2026-04-11T13:31:31.011Z</time></trkpt><trkpt lat="44.8148288" lon="9.1890086"><ele>418.25</ele><time>2026-04-11T13:31:32.01Z</time></trkpt><trkpt lat="44.8147291" lon="9.1891399"><ele>418.5</ele><time>2026-04-11T13:31:33.011Z</time></trkpt><trkpt lat="44.8146383" lon="9.1892685"><ele>418.75</ele><time>2026-04-11T13:31:34.01Z</time></trkpt><trkpt lat="44.8145393" lon="9.1893824"><ele>419.0</ele><time>2026-04-11T13:31:35.011Z</time></trkpt><trkpt lat="44.8144214" lon="9.1894685"><ele>419.25</ele><time>2026-04-11T13:31:36.011Z</time></trkpt><trkpt lat="44.8142922" lon="9.189539"><ele>419.5</ele><time>2026-04-11T13:31:37.011Z</time></trkpt><trkpt lat="44.8141566" lon="9.1896217"><ele>419.75</ele><time>2026-04-11T13:31:38.011Z</time></trkpt><trkpt lat="44.8140223" lon="9.189701"><ele>420.0</ele><time>2026-04-11T13:31:39.011Z</time></trkpt><trkpt lat="44.8138705" lon="9.1897577"><ele>420.0</ele><time>2026-04-11T13:31:40.011Z</time></trkpt><trkpt lat="44.8137207" lon="9.1897921"><ele>420.0</ele><time>2026-04-11T13:31:41.011Z</time></trkpt><trkpt lat="44.8135683" lon="9.1898228"><ele>420.0</ele><time>2026-04-11T13:31:42.011Z</time></trkpt><trkpt lat="44.8134283" lon="9.1898466"><ele>420.0</ele><time>2026-04-11T13:31:43.011Z</time></trkpt><trkpt lat="44.8133099" lon="9.189865"><ele>420.0</ele><time>2026-04-11T13:31:44.01Z</time></trkpt><trkpt lat="44.8131939" lon="9.1898816"><ele>420.0</ele><time>2026-04-11T13:31:45.01Z</time></trkpt><trkpt lat="44.8130753" lon="9.1898806"><ele>420.0</ele><time>2026-04-11T13:31:46.011Z</time></trkpt><trkpt lat="44.8129534" lon="9.1898282"><ele>420.0</ele><time>2026-04-11T13:31:47.011Z</time></trkpt><trkpt lat="44.81283" lon="9.1897313"><ele>421.0</ele><time>2026-04-11T13:31:48.011Z</time></trkpt><trkpt lat="44.8126969" lon="9.1896282"><ele>422.0</ele><time>2026-04-11T13:31:49.01Z</time></trkpt><trkpt lat="44.81255" lon="9.1895197"><ele>423.0</ele><time>2026-04-11T13:31:50.011Z</time></trkpt><trkpt lat="44.8123872" lon="9.1893975"><ele>423.0</ele><time>2026-04-11T13:31:51.011Z</time></trkpt><trkpt lat="44.8122152" lon="9.189269"><ele>423.0</ele><time>2026-04-11T13:31:52.011Z</time></trkpt><trkpt lat="44.8120395" lon="9.189141"><ele>423.0</ele><time>2026-04-11T13:31:53.012Z</time></trkpt><trkpt lat="44.8118584" lon="9.1890177"><ele>427.66666666666663</ele><time>2026-04-11T13:31:54.012Z</time></trkpt><trkpt lat="44.8116972" lon="9.1889059"><ele>432.3333333333333</ele><time>2026-04-11T13:31:55.012Z</time></trkpt><trkpt lat="44.8115627" lon="9.188808"><ele>437.0</ele><time>2026-04-11T13:31:56.012Z</time></trkpt><trkpt lat="44.8114402" lon="9.1887174"><ele>437.0</ele><time>2026-04-11T13:31:57.012Z</time></trkpt><trkpt lat="44.8113271" lon="9.1886417"><ele>437.0</ele><time>2026-04-11T13:31:58.012Z</time></trkpt><trkpt lat="44.8112013" lon="9.1886125"><ele>437.0</ele><time>2026-04-11T13:31:59.012Z</time></trkpt><trkpt lat="44.8110656" lon="9.1886106"><ele>437.0</ele><time>2026-04-11T13:32:00.012Z</time></trkpt><trkpt lat="44.8109176" lon="9.1886179"><ele>435.0</ele><time>2026-04-11T13:32:01.012Z</time></trkpt><trkpt lat="44.8107655" lon="9.1886133"><ele>433.0</ele><time>2026-04-11T13:32:02.012Z</time></trkpt><trkpt lat="44.8106112" lon="9.1885962"><ele>431.0</ele><time>2026-04-11T13:32:03.012Z</time></trkpt><trkpt lat="44.8104547" lon="9.1885799"><ele>431.0</ele><time>2026-04-11T13:32:04.012Z</time></trkpt><trkpt lat="44.8103192" lon="9.1885747"><ele>431.0</ele><time>2026-04-11T13:32:05.012Z</time></trkpt><trkpt lat="44.8101935" lon="9.1885629"><ele>431.0</ele><time>2026-04-11T13:32:06.012Z</time></trkpt><trkpt lat="44.8100837" lon="9.1885356"><ele>431.0</ele><time>2026-04-11T13:32:07.012Z</time></trkpt><trkpt lat="44.8099714" lon="9.1884759"><ele>430.5</ele><time>2026-04-11T13:32:08.012Z</time></trkpt><trkpt lat="44.8098662" lon="9.1883874"><ele>430.0</ele><time>2026-04-11T13:32:09.012Z</time></trkpt><trkpt lat="44.8097631" lon="9.1882537"><ele>429.5</ele><time>2026-04-11T13:32:10.012Z</time></trkpt><trkpt lat="44.8096633" lon="9.1881105"><ele>429.0</ele><time>2026-04-11T13:32:11.011Z</time></trkpt><trkpt lat="44.8095527" lon="9.1879667"><ele>432.33333333333337</ele><time>2026-04-11T13:32:12.011Z</time></trkpt><trkpt lat="44.8094337" lon="9.1878039"><ele>435.6666666666667</ele><time>2026-04-11T13:32:13.011Z</time></trkpt><trkpt lat="44.8093112" lon="9.1876405"><ele>439.0</ele><time>2026-04-11T13:32:14.012Z</time></trkpt><trkpt lat="44.8091957" lon="9.1874918"><ele>439.0</ele><time>2026-04-11T13:32:15.012Z</time></trkpt><trkpt lat="44.8090791" lon="9.1873701"><ele>439.0</ele><time>2026-04-11T13:32:16.012Z</time></trkpt><trkpt lat="44.8089637" lon="9.1872762"><ele>439.0</ele><time>2026-04-11T13:32:17.012Z</time></trkpt><trkpt lat="44.8088507" lon="9.1871979"><ele>439.0</ele><time>2026-04-11T13:32:18.012Z</time></trkpt><trkpt lat="44.8087256" lon="9.187125"><ele>440.25</ele><time>2026-04-11T13:32:19.012Z</time></trkpt><trkpt lat="44.8086068" lon="9.1870487"><ele>441.5</ele><time>2026-04-11T13:32:20.012Z</time></trkpt><trkpt lat="44.8084875" lon="9.1869783"><ele>442.75</ele><time>2026-04-11T13:32:21.012Z</time></trkpt><trkpt lat="44.8083614" lon="9.1869117"><ele>444.0</ele><time>2026-04-11T13:32:22.012Z</time></trkpt><trkpt lat="44.8082408" lon="9.1868419"><ele>444.0</ele><time>2026-04-11T13:32:23.012Z</time></trkpt><trkpt lat="44.8081117" lon="9.1867555"><ele>444.0</ele><time>2026-04-11T13:32:24.012Z</time></trkpt><trkpt lat="44.8079846" lon="9.1866388"><ele>444.0</ele><time>2026-04-11T13:32:25.012Z</time></trkpt><trkpt lat="44.8078495" lon="9.1865023"><ele>445.0</ele><time>2026-04-11T13:32:26.012Z</time></trkpt><trkpt lat="44.8077011" lon="9.1863652"><ele>446.0</ele><time>2026-04-11T13:32:27.012Z</time></trkpt><trkpt lat="44.8075456" lon="9.1862209"><ele>447.0</ele><time>2026-04-11T13:32:28.012Z</time></trkpt><trkpt lat="44.8073665" lon="9.186061"><ele>447.0</ele><time>2026-04-11T13:32:29.012Z</time></trkpt><trkpt lat="44.807184" lon="9.1858967"><ele>447.0</ele><time>2026-04-11T13:32:30.012Z</time></trkpt><trkpt lat="44.8070051" lon="9.1857252"><ele>447.0</ele><time>2026-04-11T13:32:31.012Z</time></trkpt><trkpt lat="44.8068395" lon="9.1855707"><ele>449.66666666666663</ele><time>2026-04-11T13:32:32.012Z</time></trkpt><trkpt lat="44.8066876" lon="9.1854227"><ele>452.3333333333333</ele><time>2026-04-11T13:32:33.012Z</time></trkpt><trkpt lat="44.8065527" lon="9.1852845"><ele>455.0</ele><time>2026-04-11T13:32:34.012Z</time></trkpt><trkpt lat="44.806427" lon="9.1851615"><ele>455.0</ele><time>2026-04-11T13:32:35.012Z</time></trkpt><trkpt lat="44.8063157" lon="9.1850739"><ele>455.0</ele><time>2026-04-11T13:32:36.011Z</time></trkpt><trkpt lat="44.8061876" lon="9.1850115"><ele>455.0</ele><time>2026-04-11T13:32:37.012Z</time></trkpt><trkpt lat="44.8060491" lon="9.1849743"><ele>455.0</ele><time>2026-04-11T13:32:38.012Z</time></trkpt><trkpt lat="44.805918" lon="9.1849396"><ele>455.75</ele><time>2026-04-11T13:32:39.012Z</time></trkpt><trkpt lat="44.8058057" lon="9.1849296"><ele>456.5</ele><time>2026-04-11T13:32:40.012Z</time></trkpt><trkpt lat="44.8057006" lon="9.184966"><ele>457.25</ele><time>2026-04-11T13:32:41.012Z</time></trkpt><trkpt lat="44.8055849" lon="9.1850384"><ele>458.0</ele><time>2026-04-11T13:32:42.012Z</time></trkpt><trkpt lat="44.8054708" lon="9.1851255"><ele>458.0</ele><time>2026-04-11T13:32:43.013Z</time></trkpt><trkpt lat="44.8053482" lon="9.1851964"><ele>458.0</ele><time>2026-04-11T13:32:44.013Z</time></trkpt><trkpt lat="44.8052237" lon="9.1852485"><ele>458.0</ele><time>2026-04-11T13:32:45.013Z</time></trkpt><trkpt lat="44.8050929" lon="9.1852781"><ele>458.0</ele><time>2026-04-11T13:32:46.012Z</time></trkpt><trkpt lat="44.8049514" lon="9.1852877"><ele>460.66666666666663</ele><time>2026-04-11T13:32:47.012Z</time></trkpt><trkpt lat="44.8048018" lon="9.1852624"><ele>463.33333333333337</ele><time>2026-04-11T13:32:48.012Z</time></trkpt><trkpt lat="44.8046502" lon="9.1852229"><ele>466.0</ele><time>2026-04-11T13:32:49.013Z</time></trkpt><trkpt lat="44.8044977" lon="9.1851846"><ele>466.0</ele><time>2026-04-11T13:32:50.013Z</time></trkpt><trkpt lat="44.8043378" lon="9.1851501"><ele>466.0</ele><time>2026-04-11T13:32:51.013Z</time></trkpt><trkpt lat="44.8041792" lon="9.1851153"><ele>466.0</ele><time>2026-04-11T13:32:52.013Z</time></trkpt><trkpt lat="44.8040299" lon="9.1850806"><ele>465.75</ele><time>2026-04-11T13:32:53.013Z</time></trkpt><trkpt lat="44.8038861" lon="9.1850357"><ele>465.5</ele><time>2026-04-11T13:32:54.013Z</time></trkpt><trkpt lat="44.8037476" lon="9.1849643"><ele>465.25</ele><time>2026-04-11T13:32:55.013Z</time></trkpt><trkpt lat="44.8036084" lon="9.1848802"><ele>465.0</ele><time>2026-04-11T13:32:56.013Z</time></trkpt><trkpt lat="44.8034693" lon="9.1848006"><ele>473.66666666666663</ele><time>2026-04-11T13:32:57.013Z</time></trkpt><trkpt lat="44.8033242" lon="9.1847469"><ele>482.3333333333333</ele><time>2026-04-11T13:32:58.013Z</time></trkpt><trkpt lat="44.8031735" lon="9.1847312"><ele>491.0</ele><time>2026-04-11T13:32:59.013Z</time></trkpt><trkpt lat="44.8030247" lon="9.1847556"><ele>491.0</ele><time>2026-04-11T13:33:00.012Z</time></trkpt><trkpt lat="44.8028851" lon="9.1847878"><ele>491.0</ele><time>2026-04-11T13:33:01.013Z</time></trkpt><trkpt lat="44.8027623" lon="9.1848278"><ele>491.0</ele><time>2026-04-11T13:33:02.013Z</time></trkpt><trkpt lat="44.8026575" lon="9.1848597"><ele>491.0</ele><time>2026-04-11T13:33:03.013Z</time></trkpt><trkpt lat="44.8025589" lon="9.1848495"><ele>490.25</ele><time>2026-04-11T13:33:04.013Z</time></trkpt><trkpt lat="44.8024468" lon="9.1847905"><ele>489.5</ele><time>2026-04-11T13:33:05.013Z</time></trkpt><trkpt lat="44.8023207" lon="9.1847066"><ele>488.75</ele><time>2026-04-11T13:33:06.013Z</time></trkpt><trkpt lat="44.8021977" lon="9.1846584"><ele>488.0</ele><time>2026-04-11T13:33:07.013Z</time></trkpt><trkpt lat="44.8020651" lon="9.1846443"><ele>488.0</ele><time>2026-04-11T13:33:08.013Z</time></trkpt><trkpt lat="44.801925" lon="9.1846645"><ele>488.0</ele><time>2026-04-11T13:33:09.013Z</time></trkpt><trkpt lat="44.8017819" lon="9.1847111"><ele>488.0</ele><time>2026-04-11T13:33:10.013Z</time></trkpt><trkpt lat="44.8016292" lon="9.184773"><ele>488.0</ele><time>2026-04-11T13:33:11.013Z</time></trkpt><trkpt lat="44.8014858" lon="9.1848307"><ele>482.25</ele><time>2026-04-11T13:33:12.013Z</time></trkpt><trkpt lat="44.8013545" lon="9.1848818"><ele>476.5</ele><time>2026-04-11T13:33:13.013Z</time></trkpt><trkpt lat="44.8012339" lon="9.1849212"><ele>470.75</ele><time>2026-04-11T13:33:14.013Z</time></trkpt><trkpt lat="44.801116" lon="9.1849395"><ele>465.0</ele><time>2026-04-11T13:33:15.013Z</time></trkpt><trkpt lat="44.8009993" lon="9.184911"><ele>465.2</ele><time>2026-04-11T13:33:16.013Z</time></trkpt><trkpt lat="44.8008785" lon="9.1848604"><ele>465.4</ele><time>2026-04-11T13:33:17.013Z</time></trkpt><trkpt lat="44.800781" lon="9.1847939"><ele>465.6</ele><time>2026-04-11T13:33:18.013Z</time></trkpt><trkpt lat="44.8007046" lon="9.1847125"><ele>465.8</ele><time>2026-04-11T13:33:19.013Z</time></trkpt><trkpt lat="44.8006414" lon="9.184599"><ele>466.0</ele><time>2026-04-11T13:33:20.013Z</time></trkpt><trkpt lat="44.8005834" lon="9.1844707"><ele>467.5</ele><time>2026-04-11T13:33:21.013Z</time></trkpt><trkpt lat="44.8005411" lon="9.1843277"><ele>469.0</ele><time>2026-04-11T13:33:22.013Z</time></trkpt><trkpt lat="44.8005296" lon="9.1841695"><ele>470.5</ele><time>2026-04-11T13:33:23.012Z</time></trkpt><trkpt lat="44.8005382" lon="9.1839991"><ele>472.0</ele><time>2026-04-11T13:33:24.013Z</time></trkpt><trkpt lat="44.8005353" lon="9.1838209"><ele>474.0</ele><time>2026-04-11T13:33:25.013Z</time></trkpt><trkpt lat="44.800498" lon="9.1836436"><ele>476.0</ele><time>2026-04-11T13:33:26.013Z</time></trkpt><trkpt lat="44.8004304" lon="9.1834729"><ele>478.0</ele><time>2026-04-11T13:33:27.013Z</time></trkpt><trkpt lat="44.8003454" lon="9.1833066"><ele>480.0</ele><time>2026-04-11T13:33:28.013Z</time></trkpt><trkpt lat="44.8002452" lon="9.1831421"><ele>479.0</ele><time>2026-04-11T13:33:29.013Z</time></trkpt><trkpt lat="44.8001372" lon="9.1829746"><ele>478.0</ele><time>2026-04-11T13:33:30.014Z</time></trkpt><trkpt lat="44.8000205" lon="9.1828021"><ele>477.0</ele><time>2026-04-11T13:33:31.013Z</time></trkpt><trkpt lat="44.7998995" lon="9.1826193"><ele>477.0</ele><time>2026-04-11T13:33:32.014Z</time></trkpt><trkpt lat="44.7997777" lon="9.1824339"><ele>477.0</ele><time>2026-04-11T13:33:33.014Z</time></trkpt><trkpt lat="44.799666" lon="9.1822664"><ele>477.0</ele><time>2026-04-11T13:33:34.014Z</time></trkpt><trkpt lat="44.7995514" lon="9.1821004"><ele>477.0</ele><time>2026-04-11T13:33:35.014Z</time></trkpt><trkpt lat="44.7994326" lon="9.1819296"><ele>477.0</ele><time>2026-04-11T13:33:36.013Z</time></trkpt><trkpt lat="44.7993103" lon="9.181758"><ele>477.0</ele><time>2026-04-11T13:33:37.014Z</time></trkpt><trkpt lat="44.7991946" lon="9.1816055"><ele>479.25</ele><time>2026-04-11T13:33:38.014Z</time></trkpt><trkpt lat="44.7990916" lon="9.181461"><ele>481.5</ele><time>2026-04-11T13:33:39.013Z</time></trkpt><trkpt lat="44.798999" lon="9.1813093"><ele>483.75</ele><time>2026-04-11T13:33:40.014Z</time></trkpt><trkpt lat="44.7989154" lon="9.1811395"><ele>486.0</ele><time>2026-04-11T13:33:41.014Z</time></trkpt><trkpt lat="44.7988395" lon="9.1809745"><ele>486.0</ele><time>2026-04-11T13:33:42.014Z</time></trkpt><trkpt lat="44.7987664" lon="9.1808382"><ele>486.0</ele><time>2026-04-11T13:33:43.014Z</time></trkpt><trkpt lat="44.7987079" lon="9.1807157"><ele>486.0</ele><time>2026-04-11T13:33:44.014Z</time></trkpt><trkpt lat="44.79866" lon="9.1805897"><ele>486.0</ele><time>2026-04-11T13:33:45.014Z</time></trkpt><trkpt lat="44.7986501" lon="9.1804399"><ele>486.0</ele><time>2026-04-11T13:33:46.014Z</time></trkpt><trkpt lat="44.7986819" lon="9.1802866"><ele>489.25</ele><time>2026-04-11T13:33:47.014Z</time></trkpt><trkpt lat="44.7987281" lon="9.1801126"><ele>492.5</ele><time>2026-04-11T13:33:48.014Z</time></trkpt><trkpt lat="44.7987775" lon="9.1799286"><ele>495.75</ele><time>2026-04-11T13:33:49.014Z</time></trkpt><trkpt lat="44.798824" lon="9.1797543"><ele>499.0</ele><time>2026-04-11T13:33:50.014Z</time></trkpt><trkpt lat="44.798858" lon="9.1796129"><ele>499.83333333333337</ele><time>2026-04-11T13:33:51.014Z</time></trkpt><trkpt lat="44.7988842" lon="9.1794948"><ele>500.6666666666667</ele><time>2026-04-11T13:33:52.014Z</time></trkpt><trkpt lat="44.7988925" lon="9.1793771"><ele>501.5</ele><time>2026-04-11T13:33:53.014Z</time></trkpt><trkpt lat="44.7988587" lon="9.179269"><ele>502.33333333333337</ele><time>2026-04-11T13:33:54.013Z</time></trkpt><trkpt lat="44.7987896" lon="9.1791856"><ele>503.1666666666667</ele><time>2026-04-11T13:33:55.014Z</time></trkpt><trkpt lat="44.7987014" lon="9.179138"><ele>504.0</ele><time>2026-04-11T13:33:56.013Z</time></trkpt><trkpt lat="44.7986095" lon="9.1791208"><ele>504.0</ele><time>2026-04-11T13:33:57.013Z</time></trkpt><trkpt lat="44.7985287" lon="9.1791657"><ele>504.0</ele><time>2026-04-11T13:33:58.014Z</time></trkpt><trkpt lat="44.7984453" lon="9.1792571"><ele>504.0</ele><time>2026-04-11T13:33:59.014Z</time></trkpt><trkpt lat="44.7983649" lon="9.1793351"><ele>504.0</ele><time>2026-04-11T13:34:00.014Z</time></trkpt><trkpt lat="44.7982649" lon="9.1793511"><ele>504.0</ele><time>2026-04-11T13:34:01.014Z</time></trkpt><trkpt lat="44.7981517" lon="9.1793346"><ele>501.75</ele><time>2026-04-11T13:34:02.014Z</time></trkpt><trkpt lat="44.7980462" lon="9.1792965"><ele>499.5</ele><time>2026-04-11T13:34:03.013Z</time></trkpt><trkpt lat="44.7979492" lon="9.1792411"><ele>497.25</ele><time>2026-04-11T13:34:04.014Z</time></trkpt><trkpt lat="44.7978573" lon="9.1791287"><ele>495.0</ele><time>2026-04-11T13:34:05.014Z</time></trkpt><trkpt lat="44.7977729" lon="9.179012"><ele>497.0</ele><time>2026-04-11T13:34:06.014Z</time></trkpt><trkpt lat="44.7976681" lon="9.1788901"><ele>499.0</ele><time>2026-04-11T13:34:07.013Z</time></trkpt><trkpt lat="44.7975899" lon="9.1787961"><ele>501.0</ele><time>2026-04-11T13:34:08.014Z</time></trkpt><trkpt lat="44.7975311" lon="9.1786851"><ele>503.0</ele><time>2026-04-11T13:34:09.014Z</time></trkpt><trkpt lat="44.7974888" lon="9.1785503"><ele>505.0</ele><time>2026-04-11T13:34:10.014Z</time></trkpt><trkpt lat="44.797466" lon="9.1783783"><ele>506.0</ele><time>2026-04-11T13:34:11.014Z</time></trkpt><trkpt lat="44.7974546" lon="9.1781791"><ele>507.0</ele><time>2026-04-11T13:34:12.013Z</time></trkpt><trkpt lat="44.7974431" lon="9.1779614"><ele>508.0</ele><time>2026-04-11T13:34:13.014Z</time></trkpt><trkpt lat="44.7974361" lon="9.1777283"><ele>508.0</ele><time>2026-04-11T13:34:14.014Z</time></trkpt><trkpt lat="44.79743" lon="9.1774941"><ele>508.0</ele><time>2026-04-11T13:34:15.014Z</time></trkpt><trkpt lat="44.797421" lon="9.1772744"><ele>508.0</ele><time>2026-04-11T13:34:16.014Z</time></trkpt><trkpt lat="44.7974091" lon="9.1770825"><ele>508.75</ele><time>2026-04-11T13:34:17.014Z</time></trkpt><trkpt lat="44.7973993" lon="9.1769085"><ele>509.5</ele><time>2026-04-11T13:34:18.014Z</time></trkpt><trkpt lat="44.7974061" lon="9.1767425"><ele>510.25</ele><time>2026-04-11T13:34:19.014Z</time></trkpt><trkpt lat="44.79744" lon="9.1765824"><ele>511.0</ele><time>2026-04-11T13:34:20.015Z</time></trkpt><trkpt lat="44.7975068" lon="9.1764239"><ele>512.0</ele><time>2026-04-11T13:34:21.015Z</time></trkpt><trkpt lat="44.7975937" lon="9.1762747"><ele>513.0</ele><time>2026-04-11T13:34:22.015Z</time></trkpt><trkpt lat="44.7977001" lon="9.1761391"><ele>514.0</ele><time>2026-04-11T13:34:23.014Z</time></trkpt><trkpt lat="44.7978253" lon="9.1760005"><ele>515.0</ele><time>2026-04-11T13:34:24.014Z</time></trkpt><trkpt lat="44.7979587" lon="9.1758589"><ele>519.0</ele><time>2026-04-11T13:34:25.014Z</time></trkpt><trkpt lat="44.7980913" lon="9.1757108"><ele>523.0</ele><time>2026-04-11T13:34:26.015Z</time></trkpt><trkpt lat="44.7982208" lon="9.1755627"><ele>527.0</ele><time>2026-04-11T13:34:27.014Z</time></trkpt><trkpt lat="44.7983493" lon="9.1754159"><ele>527.0</ele><time>2026-04-11T13:34:28.015Z</time></trkpt><trkpt lat="44.7984701" lon="9.1752718"><ele>527.0</ele><time>2026-04-11T13:34:29.015Z</time></trkpt><trkpt lat="44.7985806" lon="9.1751139"><ele>527.0</ele><time>2026-04-11T13:34:30.015Z</time></trkpt><trkpt lat="44.7986662" lon="9.1749429"><ele>529.6</ele><time>2026-04-11T13:34:31.015Z</time></trkpt><trkpt lat="44.7987333" lon="9.1747759"><ele>532.2</ele><time>2026-04-11T13:34:32.015Z</time></trkpt><trkpt lat="44.7987846" lon="9.1746342"><ele>534.8</ele><time>2026-04-11T13:34:33.014Z</time></trkpt><trkpt lat="44.7988189" lon="9.1745026"><ele>537.4</ele><time>2026-04-11T13:34:34.014Z</time></trkpt><trkpt lat="44.7988279" lon="9.1743729"><ele>540.0</ele><time>2026-04-11T13:34:35.015Z</time></trkpt><trkpt lat="44.7988265" lon="9.1742429"><ele>540.0</ele><time>2026-04-11T13:34:36.015Z</time></trkpt><trkpt lat="44.7988032" lon="9.1741032"><ele>540.0</ele><time>2026-04-11T13:34:37.015Z</time></trkpt><trkpt lat="44.7987603" lon="9.1739804"><ele>540.0</ele><time>2026-04-11T13:34:38.015Z</time></trkpt><trkpt lat="44.7986767" lon="9.1738601"><ele>540.0</ele><time>2026-04-11T13:34:39.015Z</time></trkpt><trkpt lat="44.7985807" lon="9.1737621"><ele>540.0</ele><time>2026-04-11T13:34:40.015Z</time></trkpt><trkpt lat="44.7984685" lon="9.1736669"><ele>540.0</ele><time>2026-04-11T13:34:41.015Z</time></trkpt><trkpt lat="44.7983489" lon="9.1735617"><ele>540.0</ele><time>2026-04-11T13:34:42.015Z</time></trkpt><trkpt lat="44.7982236" lon="9.1734373"><ele>540.0</ele><time>2026-04-11T13:34:43.015Z</time></trkpt><trkpt lat="44.7980875" lon="9.1732979"><ele>541.75</ele><time>2026-04-11T13:34:44.015Z</time></trkpt><trkpt lat="44.7979518" lon="9.1731696"><ele>543.5</ele><time>2026-04-11T13:34:45.015Z</time></trkpt><trkpt lat="44.7978369" lon="9.1730609"><ele>545.25</ele><time>2026-04-11T13:34:46.015Z</time></trkpt><trkpt lat="44.7977322" lon="9.1729548"><ele>547.0</ele><time>2026-04-11T13:34:47.015Z</time></trkpt><trkpt lat="44.7976379" lon="9.172818"><ele>547.0</ele><time>2026-04-11T13:34:48.015Z</time></trkpt><trkpt lat="44.7975442" lon="9.1726441"><ele>547.0</ele><time>2026-04-11T13:34:49.015Z</time></trkpt><trkpt lat="44.7974418" lon="9.1724566"><ele>547.0</ele><time>2026-04-11T13:34:50.014Z</time></trkpt><trkpt lat="44.7973364" lon="9.1722539"><ele>548.6666666666667</ele><time>2026-04-11T13:34:51.015Z</time></trkpt><trkpt lat="44.7972243" lon="9.1720384"><ele>550.3333333333334</ele><time>2026-04-11T13:34:52.015Z</time></trkpt><trkpt lat="44.7971051" lon="9.1718046"><ele>552.0</ele><time>2026-04-11T13:34:53.015Z</time></trkpt><trkpt lat="44.7969806" lon="9.1715544"><ele>554.0</ele><time>2026-04-11T13:34:54.015Z</time></trkpt><trkpt lat="44.7968603" lon="9.1713087"><ele>556.0</ele><time>2026-04-11T13:34:55.015Z</time></trkpt><trkpt lat="44.7967504" lon="9.1710907"><ele>558.0</ele><time>2026-04-11T13:34:56.015Z</time></trkpt><trkpt lat="44.7966472" lon="9.1708906"><ele>558.0</ele><time>2026-04-11T13:34:57.015Z</time></trkpt><trkpt lat="44.7965174" lon="9.1707174"><ele>558.0</ele><time>2026-04-11T13:34:58.014Z</time></trkpt><trkpt lat="44.7963646" lon="9.1705679"><ele>558.0</ele><time>2026-04-11T13:34:59.015Z</time></trkpt><trkpt lat="44.7961916" lon="9.1704303"><ele>559.0</ele><time>2026-04-11T13:35:00.015Z</time></trkpt><trkpt lat="44.7960087" lon="9.1702862"><ele>560.0</ele><time>2026-04-11T13:35:01.015Z</time></trkpt><trkpt lat="44.7958217" lon="9.1701223"><ele>561.0</ele><time>2026-04-11T13:35:02.015Z</time></trkpt><trkpt lat="44.7956283" lon="9.1699573"><ele>567.5</ele><time>2026-04-11T13:35:03.015Z</time></trkpt><trkpt lat="44.7954284" lon="9.1697858"><ele>574.0</ele><time>2026-04-11T13:35:04.015Z</time></trkpt><trkpt lat="44.7952266" lon="9.1696111"><ele>572.3333333333334</ele><time>2026-04-11T13:35:05.015Z</time></trkpt><trkpt lat="44.7950365" lon="9.1694573"><ele>570.6666666666666</ele><time>2026-04-11T13:35:06.014Z</time></trkpt><trkpt lat="44.794867" lon="9.1693086"><ele>569.0</ele><time>2026-04-11T13:35:07.015Z</time></trkpt><trkpt lat="44.794708" lon="9.1691792"><ele>569.0</ele><time>2026-04-11T13:35:08.016Z</time></trkpt><trkpt lat="44.7945573" lon="9.1690575"><ele>569.0</ele><time>2026-04-11T13:35:09.016Z</time></trkpt><trkpt lat="44.7944141" lon="9.1689417"><ele>569.0</ele><time>2026-04-11T13:35:10.015Z</time></trkpt><trkpt lat="44.7942785" lon="9.1688076"><ele>571.3333333333333</ele><time>2026-04-11T13:35:11.015Z</time></trkpt><trkpt lat="44.7941524" lon="9.1686583"><ele>573.6666666666666</ele><time>2026-04-11T13:35:12.016Z</time></trkpt><trkpt lat="44.794044" lon="9.1684932"><ele>576.0</ele><time>2026-04-11T13:35:13.016Z</time></trkpt><trkpt lat="44.7939446" lon="9.1683222"><ele>578.0</ele><time>2026-04-11T13:35:14.016Z</time></trkpt><trkpt lat="44.7938634" lon="9.1681321"><ele>580.0</ele><time>2026-04-11T13:35:15.016Z</time></trkpt><trkpt lat="44.7937976" lon="9.1679195"><ele>582.0</ele><time>2026-04-11T13:35:16.016Z</time></trkpt><trkpt lat="44.7937365" lon="9.1676934"><ele>582.0</ele><time>2026-04-11T13:35:17.016Z</time></trkpt><trkpt lat="44.7936666" lon="9.1674665"><ele>582.0</ele><time>2026-04-11T13:35:18.016Z</time></trkpt><trkpt lat="44.7935984" lon="9.1672496"><ele>582.0</ele><time>2026-04-11T13:35:19.016Z</time></trkpt><trkpt lat="44.7935341" lon="9.1670386"><ele>580.6666666666666</ele><time>2026-04-11T13:35:20.016Z</time></trkpt><trkpt lat="44.7934724" lon="9.1668274"><ele>579.3333333333333</ele><time>2026-04-11T13:35:21.016Z</time></trkpt><trkpt lat="44.793413" lon="9.1666089"><ele>578.0</ele><time>2026-04-11T13:35:22.015Z</time></trkpt><trkpt lat="44.7933559" lon="9.1663869"><ele>578.0</ele><time>2026-04-11T13:35:23.016Z</time></trkpt><trkpt lat="44.7933108" lon="9.1661578"><ele>578.0</ele><time>2026-04-11T13:35:24.016Z</time></trkpt><trkpt lat="44.7932791" lon="9.1659156"><ele>578.0</ele><time>2026-04-11T13:35:25.016Z</time></trkpt><trkpt lat="44.7932491" lon="9.165685"><ele>577.3333333333333</ele><time>2026-04-11T13:35:26.015Z</time></trkpt><trkpt lat="44.7932224" lon="9.1654584"><ele>576.6666666666666</ele><time>2026-04-11T13:35:27.016Z</time></trkpt><trkpt lat="44.7932022" lon="9.1652289"><ele>576.0</ele><time>2026-04-11T13:35:28.015Z</time></trkpt><trkpt lat="44.7931945" lon="9.1649816"><ele>574.3333333333334</ele><time>2026-04-11T13:35:29.016Z</time></trkpt><trkpt lat="44.7931938" lon="9.164712"><ele>572.6666666666667</ele><time>2026-04-11T13:35:30.015Z</time></trkpt><trkpt lat="44.793197" lon="9.1644393"><ele>571.0</ele><time>2026-04-11T13:35:31.016Z</time></trkpt><trkpt lat="44.7931923" lon="9.1641607"><ele>570.0</ele><time>2026-04-11T13:35:32.016Z</time></trkpt><trkpt lat="44.7931889" lon="9.1638772"><ele>569.0</ele><time>2026-04-11T13:35:33.016Z</time></trkpt><trkpt lat="44.7931854" lon="9.1635871"><ele>568.0</ele><time>2026-04-11T13:35:34.016Z</time></trkpt><trkpt lat="44.7931813" lon="9.1632944"><ele>567.0</ele><time>2026-04-11T13:35:35.015Z</time></trkpt><trkpt lat="44.7931795" lon="9.1629972"><ele>566.0</ele><time>2026-04-11T13:35:36.016Z</time></trkpt><trkpt lat="44.7931783" lon="9.1626987"><ele>565.0</ele><time>2026-04-11T13:35:37.016Z</time></trkpt><trkpt lat="44.7931775" lon="9.1623978"><ele>563.3333333333334</ele><time>2026-04-11T13:35:38.016Z</time></trkpt><trkpt lat="44.7931795" lon="9.1620937"><ele>561.6666666666666</ele><time>2026-04-11T13:35:39.015Z</time></trkpt><trkpt lat="44.7931804" lon="9.1617928"><ele>560.0</ele><time>2026-04-11T13:35:40.016Z</time></trkpt><trkpt lat="44.7931793" lon="9.1614903"><ele>559.6666666666666</ele><time>2026-04-11T13:35:41.016Z</time></trkpt><trkpt lat="44.7931792" lon="9.1611926"><ele>559.3333333333334</ele><time>2026-04-11T13:35:42.016Z</time></trkpt><trkpt lat="44.7931821" lon="9.1608943"><ele>559.0</ele><time>2026-04-11T13:35:43.016Z</time></trkpt><trkpt lat="44.7931824" lon="9.1606026"><ele>555.6666666666667</ele><time>2026-04-11T13:35:44.016Z</time></trkpt><trkpt lat="44.7931766" lon="9.1603208"><ele>552.3333333333334</ele><time>2026-04-11T13:35:45.016Z</time></trkpt><trkpt lat="44.7931606" lon="9.1600555"><ele>549.0</ele><time>2026-04-11T13:35:46.016Z</time></trkpt><trkpt lat="44.7931332" lon="9.1597984"><ele>547.0</ele><time>2026-04-11T13:35:47.016Z</time></trkpt><trkpt lat="44.7930889" lon="9.1595497"><ele>545.0</ele><time>2026-04-11T13:35:48.016Z</time></trkpt><trkpt lat="44.7930425" lon="9.1593013"><ele>543.0</ele><time>2026-04-11T13:35:49.016Z</time></trkpt><trkpt lat="44.7929956" lon="9.1590518"><ele>548.6666666666666</ele><time>2026-04-11T13:35:50.016Z</time></trkpt><trkpt lat="44.7929449" lon="9.1587996"><ele>554.3333333333333</ele><time>2026-04-11T13:35:51.016Z</time></trkpt><trkpt lat="44.7928921" lon="9.1585593"><ele>560.0</ele><time>2026-04-11T13:35:52.016Z</time></trkpt><trkpt lat="44.7928468" lon="9.158336"><ele>558.75</ele><time>2026-04-11T13:35:53.016Z</time></trkpt><trkpt lat="44.7928105" lon="9.1581413"><ele>557.5</ele><time>2026-04-11T13:35:54.016Z</time></trkpt><trkpt lat="44.7927724" lon="9.1579705"><ele>556.25</ele><time>2026-04-11T13:35:55.016Z</time></trkpt><trkpt lat="44.7927105" lon="9.1578295"><ele>555.0</ele><time>2026-04-11T13:35:56.017Z</time></trkpt><trkpt lat="44.7926144" lon="9.1577135"><ele>555.0</ele><time>2026-04-11T13:35:57.017Z</time></trkpt><trkpt lat="44.7924981" lon="9.1576194"><ele>555.0</ele><time>2026-04-11T13:35:58.016Z</time></trkpt><trkpt lat="44.7923707" lon="9.1575277"><ele>555.0</ele><time>2026-04-11T13:35:59.017Z</time></trkpt><trkpt lat="44.7922534" lon="9.15743"><ele>555.0</ele><time>2026-04-11T13:36:00.017Z</time></trkpt><trkpt lat="44.7921553" lon="9.1573246"><ele>557.0</ele><time>2026-04-11T13:36:01.017Z</time></trkpt><trkpt lat="44.7920794" lon="9.1572019"><ele>559.0</ele><time>2026-04-11T13:36:02.017Z</time></trkpt><trkpt lat="44.7920215" lon="9.157042"><ele>561.0</ele><time>2026-04-11T13:36:03.017Z</time></trkpt><trkpt lat="44.7919849" lon="9.1568594"><ele>563.0</ele><time>2026-04-11T13:36:04.017Z</time></trkpt><trkpt lat="44.7919557" lon="9.1566842"><ele>564.75</ele><time>2026-04-11T13:36:05.017Z</time></trkpt><trkpt lat="44.7919195" lon="9.1565293"><ele>566.5</ele><time>2026-04-11T13:36:06.016Z</time></trkpt><trkpt lat="44.7918682" lon="9.1563966"><ele>568.25</ele><time>2026-04-11T13:36:07.017Z</time></trkpt><trkpt lat="44.7917776" lon="9.1562739"><ele>570.0</ele><time>2026-04-11T13:36:08.017Z</time></trkpt><trkpt lat="44.7916601" lon="9.1561673"><ele>563.0</ele><time>2026-04-11T13:36:09.017Z</time></trkpt><trkpt lat="44.7915331" lon="9.1560457"><ele>556.0</ele><time>2026-04-11T13:36:10.017Z</time></trkpt><trkpt lat="44.7914098" lon="9.1558928"><ele>549.0</ele><time>2026-04-11T13:36:11.017Z</time></trkpt><trkpt lat="44.7912918" lon="9.1557228"><ele>554.0</ele><time>2026-04-11T13:36:12.016Z</time></trkpt><trkpt lat="44.7911733" lon="9.1555656"><ele>559.0</ele><time>2026-04-11T13:36:13.017Z</time></trkpt><trkpt lat="44.7910596" lon="9.1554167"><ele>564.0</ele><time>2026-04-11T13:36:14.017Z</time></trkpt><trkpt lat="44.7909622" lon="9.1552803"><ele>555.5</ele><time>2026-04-11T13:36:15.017Z</time></trkpt><trkpt lat="44.7908737" lon="9.15515"><ele>547.0</ele><time>2026-04-11T13:36:16.017Z</time></trkpt><trkpt lat="44.7907937" lon="9.1550043"><ele>538.5</ele><time>2026-04-11T13:36:17.017Z</time></trkpt><trkpt lat="44.7907382" lon="9.1548479"><ele>530.0</ele><time>2026-04-11T13:36:18.017Z</time></trkpt><trkpt lat="44.7906929" lon="9.1546724"><ele>529.5</ele><time>2026-04-11T13:36:19.017Z</time></trkpt><trkpt lat="44.7906711" lon="9.1544784"><ele>529.0</ele><time>2026-04-11T13:36:20.017Z</time></trkpt><trkpt lat="44.7906743" lon="9.1542724"><ele>528.5</ele><time>2026-04-11T13:36:21.017Z</time></trkpt><trkpt lat="44.7906974" lon="9.1540449"><ele>528.0</ele><time>2026-04-11T13:36:22.017Z</time></trkpt><trkpt lat="44.7907294" lon="9.1538104"><ele>525.6666666666666</ele><time>2026-04-11T13:36:23.017Z</time></trkpt><trkpt lat="44.7907633" lon="9.1535802"><ele>523.3333333333333</ele><time>2026-04-11T13:36:24.016Z</time></trkpt><trkpt lat="44.7907944" lon="9.1533657"><ele>521.0</ele><time>2026-04-11T13:36:25.017Z</time></trkpt><trkpt lat="44.7908117" lon="9.1531631"><ele>518.75</ele><time>2026-04-11T13:36:26.017Z</time></trkpt><trkpt lat="44.7908062" lon="9.1529641"><ele>516.5</ele><time>2026-04-11T13:36:27.017Z</time></trkpt><trkpt lat="44.7907818" lon="9.1527836"><ele>514.25</ele><time>2026-04-11T13:36:28.017Z</time></trkpt><trkpt lat="44.7907551" lon="9.1526121"><ele>512.0</ele><time>2026-04-11T13:36:29.016Z</time></trkpt><trkpt lat="44.7907314" lon="9.152462"><ele>516.4</ele><time>2026-04-11T13:36:30.017Z</time></trkpt><trkpt lat="44.7907022" lon="9.1523355"><ele>520.8000000000001</ele><time>2026-04-11T13:36:31.017Z</time></trkpt><trkpt lat="44.7906455" lon="9.1522338"><ele>525.2</ele><time>2026-04-11T13:36:32.017Z</time></trkpt><trkpt lat="44.7905529" lon="9.1521757"><ele>529.6</ele><time>2026-04-11T13:36:33.017Z</time></trkpt><trkpt lat="44.7904356" lon="9.1521552"><ele>534.0</ele><time>2026-04-11T13:36:34.017Z</time></trkpt><trkpt lat="44.7903145" lon="9.1521681"><ele>534.0</ele><time>2026-04-11T13:36:35.017Z</time></trkpt><trkpt lat="44.7901823" lon="9.1521803"><ele>534.0</ele><time>2026-04-11T13:36:36.017Z</time></trkpt><trkpt lat="44.7900514" lon="9.1521703"><ele>534.0</ele><time>2026-04-11T13:36:37.017Z</time></trkpt><trkpt lat="44.7899363" lon="9.1521331"><ele>534.0</ele><time>2026-04-11T13:36:38.017Z</time></trkpt><trkpt lat="44.7898358" lon="9.1520449"><ele>531.0</ele><time>2026-04-11T13:36:39.016Z</time></trkpt><trkpt lat="44.7897431" lon="9.1519237"><ele>528.0</ele><time>2026-04-11T13:36:40.017Z</time></trkpt><trkpt lat="44.789649" lon="9.1517674"><ele>525.0</ele><time>2026-04-11T13:36:41.017Z</time></trkpt><trkpt lat="44.7895701" lon="9.151575"><ele>522.0</ele><time>2026-04-11T13:36:42.017Z</time></trkpt><trkpt lat="44.7895023" lon="9.1513773"><ele>522.0</ele><time>2026-04-11T13:36:43.017Z</time></trkpt><trkpt lat="44.7894272" lon="9.1511587"><ele>522.0</ele><time>2026-04-11T13:36:44.018Z</time></trkpt><trkpt lat="44.7893419" lon="9.1509263"><ele>522.0</ele><time>2026-04-11T13:36:45.018Z</time></trkpt><trkpt lat="44.7892433" lon="9.150684"><ele>516.6666666666666</ele><time>2026-04-11T13:36:46.018Z</time></trkpt><trkpt lat="44.7891294" lon="9.1504472"><ele>511.3333333333333</ele><time>2026-04-11T13:36:47.017Z</time></trkpt><trkpt lat="44.7890047" lon="9.1502201"><ele>506.0</ele><time>2026-04-11T13:36:48.018Z</time></trkpt><trkpt lat="44.7888771" lon="9.1500097"><ele>508.0</ele><time>2026-04-11T13:36:49.017Z</time></trkpt><trkpt lat="44.7887505" lon="9.1498165"><ele>510.0</ele><time>2026-04-11T13:36:50.017Z</time></trkpt><trkpt lat="44.7886291" lon="9.1496333"><ele>512.0</ele><time>2026-04-11T13:36:51.018Z</time></trkpt><trkpt lat="44.7885172" lon="9.1494537"><ele>505.3333333333333</ele><time>2026-04-11T13:36:52.018Z</time></trkpt><trkpt lat="44.7884098" lon="9.149291"><ele>498.66666666666663</ele><time>2026-04-11T13:36:53.018Z</time></trkpt><trkpt lat="44.7883027" lon="9.1491375"><ele>492.0</ele><time>2026-04-11T13:36:54.018Z</time></trkpt><trkpt lat="44.7881886" lon="9.1489943"><ele>491.66666666666663</ele><time>2026-04-11T13:36:55.018Z</time></trkpt><trkpt lat="44.7880575" lon="9.1488696"><ele>491.3333333333333</ele><time>2026-04-11T13:36:56.018Z</time></trkpt><trkpt lat="44.7879101" lon="9.1487659"><ele>491.0</ele><time>2026-04-11T13:36:57.018Z</time></trkpt><trkpt lat="44.7877571" lon="9.1486711"><ele>490.3333333333333</ele><time>2026-04-11T13:36:58.018Z</time></trkpt><trkpt lat="44.7876073" lon="9.1485843"><ele>489.66666666666663</ele><time>2026-04-11T13:36:59.018Z</time></trkpt><trkpt lat="44.7874623" lon="9.1485043"><ele>489.0</ele><time>2026-04-11T13:37:00.018Z</time></trkpt><trkpt lat="44.7873247" lon="9.1484308"><ele>489.0</ele><time>2026-04-11T13:37:01.018Z</time></trkpt><trkpt lat="44.7871906" lon="9.1483623"><ele>489.0</ele><time>2026-04-11T13:37:02.018Z</time></trkpt><trkpt lat="44.7870605" lon="9.1482978"><ele>489.0</ele><time>2026-04-11T13:37:03.018Z</time></trkpt><trkpt lat="44.7869314" lon="9.1482347"><ele>489.0</ele><time>2026-04-11T13:37:04.018Z</time></trkpt><trkpt lat="44.7868104" lon="9.1481707"><ele>488.25</ele><time>2026-04-11T13:37:05.018Z</time></trkpt><trkpt lat="44.7866949" lon="9.1481088"><ele>487.5</ele><time>2026-04-11T13:37:06.018Z</time></trkpt><trkpt lat="44.7865844" lon="9.148052"><ele>486.75</ele><time>2026-04-11T13:37:07.018Z</time></trkpt><trkpt lat="44.7864843" lon="9.1479823"><ele>486.0</ele><time>2026-04-11T13:37:08.017Z</time></trkpt><trkpt lat="44.7863872" lon="9.1478874"><ele>486.0</ele><time>2026-04-11T13:37:09.017Z</time></trkpt><trkpt lat="44.7863013" lon="9.147765"><ele>486.0</ele><time>2026-04-11T13:37:10.018Z</time></trkpt><trkpt lat="44.7862226" lon="9.1476326"><ele>486.0</ele><time>2026-04-11T13:37:11.017Z</time></trkpt><trkpt lat="44.7861583" lon="9.1475077"><ele>486.0</ele><time>2026-04-11T13:37:12.018Z</time></trkpt><trkpt lat="44.7861089" lon="9.1474139"><ele>486.0</ele><time>2026-04-11T13:37:13.018Z</time></trkpt><trkpt lat="44.7860644" lon="9.1472866"><ele>484.6</ele><time>2026-04-11T13:37:15.018Z</time></trkpt><trkpt lat="44.7860216" lon="9.1471629"><ele>483.20000000000005</ele><time>2026-04-11T13:37:18.018Z</time></trkpt><trkpt lat="44.7859537" lon="9.1470302"><ele>481.79999999999995</ele><time>2026-04-11T13:37:20.017Z</time></trkpt><trkpt lat="44.7858971" lon="9.146903"><ele>480.4</ele><time>2026-04-11T13:37:22.017Z</time></trkpt><trkpt lat="44.7858786" lon="9.1468175"><ele>479.0</ele><time>2026-04-11T13:37:24.018Z</time></trkpt><trkpt lat="44.7859174" lon="9.1467322"><ele>479.0</ele><time>2026-04-11T13:37:26.018Z</time></trkpt><trkpt lat="44.7859712" lon="9.1466754"><ele>479.0</ele><time>2026-04-11T13:37:27.017Z</time></trkpt><trkpt lat="44.786017" lon="9.1465767"><ele>479.0</ele><time>2026-04-11T13:37:28.018Z</time></trkpt><trkpt lat="44.7860483" lon="9.1464336"><ele>479.0</ele><time>2026-04-11T13:37:29.017Z</time></trkpt><trkpt lat="44.7860896" lon="9.1462884"><ele>479.0</ele><time>2026-04-11T13:37:30.018Z</time></trkpt><trkpt lat="44.7861492" lon="9.1461438"><ele>477.25</ele><time>2026-04-11T13:37:31.017Z</time></trkpt><trkpt lat="44.7862257" lon="9.1460096"><ele>475.5</ele><time>2026-04-11T13:37:32.019Z</time></trkpt><trkpt lat="44.7863215" lon="9.1458831"><ele>473.75</ele><time>2026-04-11T13:37:33.018Z</time></trkpt><trkpt lat="44.7864377" lon="9.1457636"><ele>472.0</ele><time>2026-04-11T13:37:34.019Z</time></trkpt><trkpt lat="44.7865475" lon="9.1456388"><ele>471.75</ele><time>2026-04-11T13:37:35.018Z</time></trkpt><trkpt lat="44.7866535" lon="9.1455336"><ele>471.5</ele><time>2026-04-11T13:37:36.019Z</time></trkpt><trkpt lat="44.7867486" lon="9.1454039"><ele>471.25</ele><time>2026-04-11T13:37:37.019Z</time></trkpt><trkpt lat="44.7868328" lon="9.1452427"><ele>471.0</ele><time>2026-04-11T13:37:38.019Z</time></trkpt><trkpt lat="44.7869049" lon="9.1450487"><ele>472.33333333333337</ele><time>2026-04-11T13:37:39.019Z</time></trkpt><trkpt lat="44.7869749" lon="9.1448452"><ele>473.6666666666667</ele><time>2026-04-11T13:37:40.018Z</time></trkpt><trkpt lat="44.7870462" lon="9.1446239"><ele>475.0</ele><time>2026-04-11T13:37:41.019Z</time></trkpt><trkpt lat="44.7871163" lon="9.1443862"><ele>475.0</ele><time>2026-04-11T13:37:42.019Z</time></trkpt><trkpt lat="44.7872022" lon="9.1441355"><ele>475.0</ele><time>2026-04-11T13:37:43.019Z</time></trkpt><trkpt lat="44.7872919" lon="9.1438707"><ele>475.0</ele><time>2026-04-11T13:37:44.019Z</time></trkpt><trkpt lat="44.7873775" lon="9.1436258"><ele>472.6666666666667</ele><time>2026-04-11T13:37:45.019Z</time></trkpt><trkpt lat="44.7874586" lon="9.1433986"><ele>470.33333333333337</ele><time>2026-04-11T13:37:46.019Z</time></trkpt><trkpt lat="44.7875335" lon="9.1431789"><ele>468.0</ele><time>2026-04-11T13:37:47.019Z</time></trkpt><trkpt lat="44.7876022" lon="9.1429632"><ele>467.0</ele><time>2026-04-11T13:37:48.019Z</time></trkpt><trkpt lat="44.7876745" lon="9.1427493"><ele>466.0</ele><time>2026-04-11T13:37:49.019Z</time></trkpt><trkpt lat="44.7877688" lon="9.1425258"><ele>465.0</ele><time>2026-04-11T13:37:50.018Z</time></trkpt><trkpt lat="44.7878824" lon="9.1422923"><ele>465.0</ele><time>2026-04-11T13:37:51.019Z</time></trkpt><trkpt lat="44.7880015" lon="9.1420494"><ele>465.0</ele><time>2026-04-11T13:37:52.019Z</time></trkpt><trkpt lat="44.788121" lon="9.1417911"><ele>465.0</ele><time>2026-04-11T13:37:53.019Z</time></trkpt><trkpt lat="44.7882373" lon="9.1415252"><ele>466.0</ele><time>2026-04-11T13:37:54.018Z</time></trkpt><trkpt lat="44.7883493" lon="9.1412748"><ele>467.0</ele><time>2026-04-11T13:37:55.019Z</time></trkpt><trkpt lat="44.7884496" lon="9.1410443"><ele>468.0</ele><time>2026-04-11T13:37:56.018Z</time></trkpt><trkpt lat="44.7885463" lon="9.1408378"><ele>465.66666666666663</ele><time>2026-04-11T13:37:57.019Z</time></trkpt><trkpt lat="44.7886347" lon="9.1406349"><ele>463.3333333333333</ele><time>2026-04-11T13:37:58.019Z</time></trkpt><trkpt lat="44.7887037" lon="9.140423"><ele>461.0</ele><time>2026-04-11T13:37:59.019Z</time></trkpt><trkpt lat="44.7887524" lon="9.1401856"><ele>461.0</ele><time>2026-04-11T13:38:00.019Z</time></trkpt><trkpt lat="44.78879" lon="9.1399527"><ele>461.0</ele><time>2026-04-11T13:38:01.019Z</time></trkpt><trkpt lat="44.7888275" lon="9.139735"><ele>461.0</ele><time>2026-04-11T13:38:02.019Z</time></trkpt><trkpt lat="44.7888804" lon="9.1395332"><ele>459.3333333333333</ele><time>2026-04-11T13:38:03.019Z</time></trkpt><trkpt lat="44.788957" lon="9.1393401"><ele>457.66666666666663</ele><time>2026-04-11T13:38:04.018Z</time></trkpt><trkpt lat="44.7890565" lon="9.139136"><ele>456.0</ele><time>2026-04-11T13:38:05.019Z</time></trkpt><trkpt lat="44.7891738" lon="9.13893"><ele>456.33333333333337</ele><time>2026-04-11T13:38:06.019Z</time></trkpt><trkpt lat="44.7893095" lon="9.1387159"><ele>456.6666666666667</ele><time>2026-04-11T13:38:07.019Z</time></trkpt><trkpt lat="44.7894523" lon="9.1384952"><ele>457.0</ele><time>2026-04-11T13:38:08.019Z</time></trkpt><trkpt lat="44.789597" lon="9.138275"><ele>454.6666666666667</ele><time>2026-04-11T13:38:09.019Z</time></trkpt><trkpt lat="44.7897396" lon="9.1380801"><ele>452.33333333333337</ele><time>2026-04-11T13:38:10.019Z</time></trkpt><trkpt lat="44.7898699" lon="9.1379117"><ele>450.0</ele><time>2026-04-11T13:38:11.019Z</time></trkpt><trkpt lat="44.7899788" lon="9.1377519"><ele>450.0</ele><time>2026-04-11T13:38:12.018Z</time></trkpt><trkpt lat="44.7900715" lon="9.1375667"><ele>450.0</ele><time>2026-04-11T13:38:13.019Z</time></trkpt><trkpt lat="44.790144" lon="9.1373426"><ele>450.0</ele><time>2026-04-11T13:38:14.019Z</time></trkpt><trkpt lat="44.7901958" lon="9.1370958"><ele>453.66666666666663</ele><time>2026-04-11T13:38:15.018Z</time></trkpt><trkpt lat="44.7902414" lon="9.1368327"><ele>457.3333333333333</ele><time>2026-04-11T13:38:16.018Z</time></trkpt><trkpt lat="44.7902997" lon="9.1365616"><ele>461.0</ele><time>2026-04-11T13:38:17.018Z</time></trkpt><trkpt lat="44.7903655" lon="9.1362906"><ele>461.0</ele><time>2026-04-11T13:38:18.018Z</time></trkpt><trkpt lat="44.7904367" lon="9.136029"><ele>461.0</ele><time>2026-04-11T13:38:19.019Z</time></trkpt><trkpt lat="44.7904967" lon="9.1357697"><ele>461.0</ele><time>2026-04-11T13:38:20.018Z</time></trkpt><trkpt lat="44.7905426" lon="9.1354899"><ele>460.3333333333333</ele><time>2026-04-11T13:38:21.02Z</time></trkpt><trkpt lat="44.7905776" lon="9.1351966"><ele>459.66666666666663</ele><time>2026-04-11T13:38:22.02Z</time></trkpt><trkpt lat="44.7906006" lon="9.1348987"><ele>459.0</ele><time>2026-04-11T13:38:23.02Z</time></trkpt><trkpt lat="44.7906206" lon="9.1345903"><ele>459.0</ele><time>2026-04-11T13:38:24.02Z</time></trkpt><trkpt lat="44.7906479" lon="9.1342893"><ele>459.0</ele><time>2026-04-11T13:38:25.02Z</time></trkpt><trkpt lat="44.7906709" lon="9.1340112"><ele>459.0</ele><time>2026-04-11T13:38:26.02Z</time></trkpt><trkpt lat="44.7906966" lon="9.1337489"><ele>457.33333333333337</ele><time>2026-04-11T13:38:27.02Z</time></trkpt><trkpt lat="44.7907219" lon="9.13349"><ele>455.6666666666667</ele><time>2026-04-11T13:38:28.02Z</time></trkpt><trkpt lat="44.7907483" lon="9.1332307"><ele>454.0</ele><time>2026-04-11T13:38:29.02Z</time></trkpt><trkpt lat="44.7907794" lon="9.1329613"><ele>453.6666666666667</ele><time>2026-04-11T13:38:30.02Z</time></trkpt><trkpt lat="44.7908088" lon="9.132687"><ele>453.33333333333337</ele><time>2026-04-11T13:38:31.02Z</time></trkpt><trkpt lat="44.7908385" lon="9.1324044"><ele>453.0</ele><time>2026-04-11T13:38:32.02Z</time></trkpt><trkpt lat="44.7908656" lon="9.1321202"><ele>451.66666666666663</ele><time>2026-04-11T13:38:33.02Z</time></trkpt><trkpt lat="44.7908789" lon="9.1318351"><ele>450.3333333333333</ele><time>2026-04-11T13:38:34.02Z</time></trkpt><trkpt lat="44.7908743" lon="9.1315378"><ele>449.0</ele><time>2026-04-11T13:38:35.019Z</time></trkpt><trkpt lat="44.7908569" lon="9.1312237"><ele>449.0</ele><time>2026-04-11T13:38:36.02Z</time></trkpt><trkpt lat="44.7908342" lon="9.1308972"><ele>449.0</ele><time>2026-04-11T13:38:37.02Z</time></trkpt><trkpt lat="44.7908144" lon="9.130565"><ele>449.0</ele><time>2026-04-11T13:38:38.02Z</time></trkpt><trkpt lat="44.7907949" lon="9.1302306"><ele>449.0</ele><time>2026-04-11T13:38:39.02Z</time></trkpt><trkpt lat="44.7907791" lon="9.1299164"><ele>449.0</ele><time>2026-04-11T13:38:40.02Z</time></trkpt><trkpt lat="44.7907638" lon="9.1296152"><ele>449.0</ele><time>2026-04-11T13:38:41.02Z</time></trkpt><trkpt lat="44.7907476" lon="9.1293236"><ele>449.0</ele><time>2026-04-11T13:38:42.02Z</time></trkpt><trkpt lat="44.7907339" lon="9.1290414"><ele>449.0</ele><time>2026-04-11T13:38:43.02Z</time></trkpt><trkpt lat="44.7907225" lon="9.1287764"><ele>449.0</ele><time>2026-04-11T13:38:44.019Z</time></trkpt><trkpt lat="44.7907082" lon="9.1285318"><ele>449.0</ele><time>2026-04-11T13:38:45.02Z</time></trkpt><trkpt lat="44.7906882" lon="9.1282939"><ele>448.0</ele><time>2026-04-11T13:38:46.02Z</time></trkpt><trkpt lat="44.7906707" lon="9.1280558"><ele>447.0</ele><time>2026-04-11T13:38:47.019Z</time></trkpt><trkpt lat="44.7906648" lon="9.1278087"><ele>446.0</ele><time>2026-04-11T13:38:48.02Z</time></trkpt><trkpt lat="44.7906775" lon="9.1275578"><ele>444.0</ele><time>2026-04-11T13:38:49.019Z</time></trkpt><trkpt lat="44.79069" lon="9.127302"><ele>442.0</ele><time>2026-04-11T13:38:50.019Z</time></trkpt><trkpt lat="44.7907016" lon="9.1270544"><ele>440.0</ele><time>2026-04-11T13:38:51.02Z</time></trkpt><trkpt lat="44.7907139" lon="9.1268177"><ele>440.0</ele><time>2026-04-11T13:38:52.02Z</time></trkpt><trkpt lat="44.7907237" lon="9.126582"><ele>440.0</ele><time>2026-04-11T13:38:53.02Z</time></trkpt><trkpt lat="44.7907198" lon="9.1263115"><ele>440.0</ele><time>2026-04-11T13:38:54.02Z</time></trkpt><trkpt lat="44.7907164" lon="9.1260114"><ele>442.3333333333333</ele><time>2026-04-11T13:38:55.019Z</time></trkpt><trkpt lat="44.7907188" lon="9.1257009"><ele>444.66666666666663</ele><time>2026-04-11T13:38:56.02Z</time></trkpt><trkpt lat="44.7907181" lon="9.1254141"><ele>447.0</ele><time>2026-04-11T13:38:57.019Z</time></trkpt><trkpt lat="44.7906996" lon="9.1251505"><ele>447.0</ele><time>2026-04-11T13:38:58.02Z</time></trkpt><trkpt lat="44.7906783" lon="9.1248994"><ele>447.0</ele><time>2026-04-11T13:38:59.02Z</time></trkpt><trkpt lat="44.7906557" lon="9.1246516"><ele>447.0</ele><time>2026-04-11T13:39:00.02Z</time></trkpt><trkpt lat="44.7906355" lon="9.1244174"><ele>446.0</ele><time>2026-04-11T13:39:01.02Z</time></trkpt><trkpt lat="44.790621" lon="9.1241845"><ele>445.0</ele><time>2026-04-11T13:39:02.02Z</time></trkpt><trkpt lat="44.7906101" lon="9.1239567"><ele>444.0</ele><time>2026-04-11T13:39:03.019Z</time></trkpt><trkpt lat="44.7905997" lon="9.1237274"><ele>442.33333333333337</ele><time>2026-04-11T13:39:04.02Z</time></trkpt><trkpt lat="44.790587" lon="9.1234926"><ele>440.6666666666667</ele><time>2026-04-11T13:39:05.02Z</time></trkpt><trkpt lat="44.7905683" lon="9.1232576"><ele>439.0</ele><time>2026-04-11T13:39:06.02Z</time></trkpt><trkpt lat="44.7905469" lon="9.1230137"><ele>436.0</ele><time>2026-04-11T13:39:07.02Z</time></trkpt><trkpt lat="44.790523" lon="9.1227782"><ele>433.0</ele><time>2026-04-11T13:39:08.02Z</time></trkpt><trkpt lat="44.7905" lon="9.1225341"><ele>430.0</ele><time>2026-04-11T13:39:09.02Z</time></trkpt><trkpt lat="44.7904744" lon="9.1222893"><ele>430.0</ele><time>2026-04-11T13:39:10.021Z</time></trkpt><trkpt lat="44.7904551" lon="9.1220427"><ele>430.0</ele><time>2026-04-11T13:39:11.021Z</time></trkpt><trkpt lat="44.7904425" lon="9.1217969"><ele>430.0</ele><time>2026-04-11T13:39:12.021Z</time></trkpt><trkpt lat="44.7904362" lon="9.1215461"><ele>430.33333333333337</ele><time>2026-04-11T13:39:13.021Z</time></trkpt><trkpt lat="44.7904414" lon="9.1212983"><ele>430.66666666666663</ele><time>2026-04-11T13:39:14.021Z</time></trkpt><trkpt lat="44.7904549" lon="9.1210532"><ele>431.0</ele><time>2026-04-11T13:39:15.02Z</time></trkpt><trkpt lat="44.7904763" lon="9.1208099"><ele>430.0</ele><time>2026-04-11T13:39:16.021Z</time></trkpt><trkpt lat="44.7905041" lon="9.1205629"><ele>429.0</ele><time>2026-04-11T13:39:17.021Z</time></trkpt><trkpt lat="44.7905451" lon="9.120318"><ele>428.0</ele><time>2026-04-11T13:39:18.021Z</time></trkpt><trkpt lat="44.7906046" lon="9.1200827"><ele>427.0</ele><time>2026-04-11T13:39:19.021Z</time></trkpt><trkpt lat="44.7906788" lon="9.1198629"><ele>426.0</ele><time>2026-04-11T13:39:20.02Z</time></trkpt><trkpt lat="44.7907501" lon="9.1196746"><ele>425.0</ele><time>2026-04-11T13:39:21.02Z</time></trkpt><trkpt lat="44.7908145" lon="9.1195063"><ele>425.0</ele><time>2026-04-11T13:39:22.021Z</time></trkpt><trkpt lat="44.7908761" lon="9.11935"><ele>425.0</ele><time>2026-04-11T13:39:23.021Z</time></trkpt><trkpt lat="44.79094" lon="9.1192036"><ele>425.0</ele><time>2026-04-11T13:39:24.021Z</time></trkpt><trkpt lat="44.7910101" lon="9.1190631"><ele>425.0</ele><time>2026-04-11T13:39:25.021Z</time></trkpt><trkpt lat="44.7910931" lon="9.1189182"><ele>426.25</ele><time>2026-04-11T13:39:26.02Z</time></trkpt><trkpt lat="44.7911882" lon="9.1187791"><ele>427.5</ele><time>2026-04-11T13:39:27.021Z</time></trkpt><trkpt lat="44.7912925" lon="9.1186475"><ele>428.75</ele><time>2026-04-11T13:39:28.021Z</time></trkpt><trkpt lat="44.7914061" lon="9.1185225"><ele>430.0</ele><time>2026-04-11T13:39:29.021Z</time></trkpt><trkpt lat="44.7915242" lon="9.1184006"><ele>430.0</ele><time>2026-04-11T13:39:30.02Z</time></trkpt><trkpt lat="44.79164" lon="9.1182723"><ele>430.0</ele><time>2026-04-11T13:39:31.02Z</time></trkpt><trkpt lat="44.791757" lon="9.1181426"><ele>430.0</ele><time>2026-04-11T13:39:32.02Z</time></trkpt><trkpt lat="44.7918744" lon="9.118008"><ele>430.0</ele><time>2026-04-11T13:39:33.02Z</time></trkpt><trkpt lat="44.7919856" lon="9.1178655"><ele>429.75</ele><time>2026-04-11T13:39:34.021Z</time></trkpt><trkpt lat="44.7920857" lon="9.1177044"><ele>429.5</ele><time>2026-04-11T13:39:35.021Z</time></trkpt><trkpt lat="44.7921807" lon="9.1175429"><ele>429.25</ele><time>2026-04-11T13:39:36.021Z</time></trkpt><trkpt lat="44.7922744" lon="9.1173885"><ele>429.0</ele><time>2026-04-11T13:39:37.021Z</time></trkpt><trkpt lat="44.7923569" lon="9.1172446"><ele>429.0</ele><time>2026-04-11T13:39:38.02Z</time></trkpt><trkpt lat="44.7924373" lon="9.1171107"><ele>429.0</ele><time>2026-04-11T13:39:39.021Z</time></trkpt><trkpt lat="44.7925112" lon="9.116988"><ele>429.0</ele><time>2026-04-11T13:39:40.021Z</time></trkpt><trkpt lat="44.7925929" lon="9.1168776"><ele>429.0</ele><time>2026-04-11T13:39:41.021Z</time></trkpt><trkpt lat="44.7926905" lon="9.1167613"><ele>429.0</ele><time>2026-04-11T13:39:42.021Z</time></trkpt><trkpt lat="44.7927944" lon="9.1166458"><ele>429.0</ele><time>2026-04-11T13:39:43.021Z</time></trkpt><trkpt lat="44.7928947" lon="9.116528"><ele>429.0</ele><time>2026-04-11T13:39:44.021Z</time></trkpt><trkpt lat="44.7929927" lon="9.116418"><ele>429.0</ele><time>2026-04-11T13:39:45.02Z</time></trkpt><trkpt lat="44.7930828" lon="9.1163213"><ele>429.0</ele><time>2026-04-11T13:39:46.02Z</time></trkpt><trkpt lat="44.7931788" lon="9.1162187"><ele>429.0</ele><time>2026-04-11T13:39:47.021Z</time></trkpt><trkpt lat="44.7932855" lon="9.1161202"><ele>429.0</ele><time>2026-04-11T13:39:48.021Z</time></trkpt><trkpt lat="44.7933985" lon="9.1160167"><ele>429.0</ele><time>2026-04-11T13:39:49.021Z</time></trkpt><trkpt lat="44.7935148" lon="9.1159031"><ele>429.0</ele><time>2026-04-11T13:39:50.021Z</time></trkpt><trkpt lat="44.79363" lon="9.1157862"><ele>429.0</ele><time>2026-04-11T13:39:51.021Z</time></trkpt><trkpt lat="44.7937526" lon="9.1156769"><ele>429.0</ele><time>2026-04-11T13:39:52.021Z</time></trkpt><trkpt lat="44.7938707" lon="9.1155614"><ele>429.0</ele><time>2026-04-11T13:39:53.02Z</time></trkpt><trkpt lat="44.7939832" lon="9.115432"><ele>427.0</ele><time>2026-04-11T13:39:54.021Z</time></trkpt><trkpt lat="44.7940819" lon="9.1152539"><ele>425.0</ele><time>2026-04-11T13:39:55.02Z</time></trkpt><trkpt lat="44.7941729" lon="9.1150658"><ele>423.0</ele><time>2026-04-11T13:39:56.021Z</time></trkpt><trkpt lat="44.7942446" lon="9.1148474"><ele>421.0</ele><time>2026-04-11T13:39:57.022Z</time></trkpt><trkpt lat="44.7943163" lon="9.114603"><ele>419.0</ele><time>2026-04-11T13:39:58.022Z</time></trkpt><trkpt lat="44.794388" lon="9.1143472"><ele>417.0</ele><time>2026-04-11T13:39:59.021Z</time></trkpt><trkpt lat="44.7944634" lon="9.1140794"><ele>416.0</ele><time>2026-04-11T13:40:00.022Z</time></trkpt><trkpt lat="44.794542" lon="9.1137986"><ele>415.0</ele><time>2026-04-11T13:40:01.022Z</time></trkpt><trkpt lat="44.7946199" lon="9.1135202"><ele>414.0</ele><time>2026-04-11T13:40:02.022Z</time></trkpt><trkpt lat="44.7946944" lon="9.1132512"><ele>413.0</ele><time>2026-04-11T13:40:03.022Z</time></trkpt><trkpt lat="44.7947678" lon="9.1129923"><ele>412.0</ele><time>2026-04-11T13:40:04.022Z</time></trkpt><trkpt lat="44.7948403" lon="9.1127419"><ele>411.0</ele><time>2026-04-11T13:40:05.022Z</time></trkpt><trkpt lat="44.794909" lon="9.1124989"><ele>410.0</ele><time>2026-04-11T13:40:06.022Z</time></trkpt><trkpt lat="44.7949793" lon="9.1122547"><ele>409.0</ele><time>2026-04-11T13:40:07.022Z</time></trkpt><trkpt lat="44.795049" lon="9.1120109"><ele>408.0</ele><time>2026-04-11T13:40:08.022Z</time></trkpt><trkpt lat="44.7951218" lon="9.1117648"><ele>408.66666666666663</ele><time>2026-04-11T13:40:09.022Z</time></trkpt><trkpt lat="44.7951926" lon="9.1115189"><ele>409.3333333333333</ele><time>2026-04-11T13:40:10.021Z</time></trkpt><trkpt lat="44.7952586" lon="9.1112712"><ele>410.0</ele><time>2026-04-11T13:40:11.022Z</time></trkpt><trkpt lat="44.795323" lon="9.1110226"><ele>410.0</ele><time>2026-04-11T13:40:12.022Z</time></trkpt><trkpt lat="44.7953862" lon="9.11077"><ele>410.0</ele><time>2026-04-11T13:40:13.022Z</time></trkpt><trkpt lat="44.7954456" lon="9.1105161"><ele>410.0</ele><time>2026-04-11T13:40:14.022Z</time></trkpt><trkpt lat="44.7954961" lon="9.1102585"><ele>409.66666666666663</ele><time>2026-04-11T13:40:15.022Z</time></trkpt><trkpt lat="44.795548" lon="9.1099976"><ele>409.33333333333337</ele><time>2026-04-11T13:40:16.021Z</time></trkpt><trkpt lat="44.795599" lon="9.109748"><ele>409.0</ele><time>2026-04-11T13:40:17.022Z</time></trkpt><trkpt lat="44.7956489" lon="9.1095114"><ele>407.75</ele><time>2026-04-11T13:40:18.022Z</time></trkpt><trkpt lat="44.7957001" lon="9.1092997"><ele>406.5</ele><time>2026-04-11T13:40:19.022Z</time></trkpt><trkpt lat="44.7957489" lon="9.1091023"><ele>405.25</ele><time>2026-04-11T13:40:20.022Z</time></trkpt><trkpt lat="44.7957998" lon="9.1089294"><ele>404.0</ele><time>2026-04-11T13:40:21.021Z</time></trkpt><trkpt lat="44.7958509" lon="9.1087618"><ele>404.0</ele><time>2026-04-11T13:40:22.022Z</time></trkpt><trkpt lat="44.795896" lon="9.1085975"><ele>404.0</ele><time>2026-04-11T13:40:23.021Z</time></trkpt><trkpt lat="44.79593" lon="9.1084231"><ele>404.0</ele><time>2026-04-11T13:40:24.022Z</time></trkpt><trkpt lat="44.7959486" lon="9.108239"><ele>404.0</ele><time>2026-04-11T13:40:25.022Z</time></trkpt><trkpt lat="44.7959656" lon="9.108048"><ele>404.0</ele><time>2026-04-11T13:40:26.022Z</time></trkpt><trkpt lat="44.7959914" lon="9.1078602"><ele>404.0</ele><time>2026-04-11T13:40:27.022Z</time></trkpt><trkpt lat="44.7960291" lon="9.1076844"><ele>404.0</ele><time>2026-04-11T13:40:28.022Z</time></trkpt><trkpt lat="44.7960784" lon="9.1075186"><ele>404.0</ele><time>2026-04-11T13:40:29.022Z</time></trkpt><trkpt lat="44.7961585" lon="9.1073563"><ele>402.66666666666663</ele><time>2026-04-11T13:40:30.022Z</time></trkpt><trkpt lat="44.7962519" lon="9.1071886"><ele>401.33333333333337</ele><time>2026-04-11T13:40:31.022Z</time></trkpt><trkpt lat="44.7963558" lon="9.1070139"><ele>400.0</ele><time>2026-04-11T13:40:32.022Z</time></trkpt><trkpt lat="44.7964577" lon="9.1068362"><ele>400.0</ele><time>2026-04-11T13:40:33.022Z</time></trkpt><trkpt lat="44.7965514" lon="9.1066775"><ele>400.0</ele><time>2026-04-11T13:40:34.022Z</time></trkpt><trkpt lat="44.7966395" lon="9.1065391"><ele>400.0</ele><time>2026-04-11T13:40:35.022Z</time></trkpt><trkpt lat="44.7967192" lon="9.1064174"><ele>400.0</ele><time>2026-04-11T13:40:36.022Z</time></trkpt><trkpt lat="44.79676" lon="9.1062577"><ele>399.75</ele><time>2026-04-11T13:40:37.021Z</time></trkpt><trkpt lat="44.7967882" lon="9.1060827"><ele>399.5</ele><time>2026-04-11T13:40:38.021Z</time></trkpt><trkpt lat="44.7968243" lon="9.105916"><ele>399.25</ele><time>2026-04-11T13:40:39.021Z</time></trkpt><trkpt lat="44.7968595" lon="9.1057593"><ele>399.0</ele><time>2026-04-11T13:40:40.022Z</time></trkpt><trkpt lat="44.7968891" lon="9.1056062"><ele>398.79999999999995</ele><time>2026-04-11T13:40:41.021Z</time></trkpt><trkpt lat="44.7968944" lon="9.1054508"><ele>398.59999999999997</ele><time>2026-04-11T13:40:42.022Z</time></trkpt><trkpt lat="44.7968803" lon="9.1053034"><ele>398.4</ele><time>2026-04-11T13:40:43.022Z</time></trkpt><trkpt lat="44.7968611" lon="9.1051753"><ele>398.2</ele><time>2026-04-11T13:40:44.022Z</time></trkpt><trkpt lat="44.7968287" lon="9.1050545"><ele>398.0</ele><time>2026-04-11T13:40:45.023Z</time></trkpt><trkpt lat="44.796769" lon="9.1049541"><ele>396.5</ele><time>2026-04-11T13:40:46.023Z</time></trkpt><trkpt lat="44.7966884" lon="9.1048573"><ele>395.0</ele><time>2026-04-11T13:40:47.023Z</time></trkpt><trkpt lat="44.7965993" lon="9.1047533"><ele>393.5</ele><time>2026-04-11T13:40:48.023Z</time></trkpt><trkpt lat="44.7965056" lon="9.1046277"><ele>392.0</ele><time>2026-04-11T13:40:49.023Z</time></trkpt><trkpt lat="44.796414" lon="9.1044937"><ele>392.0</ele><time>2026-04-11T13:40:50.023Z</time></trkpt><trkpt lat="44.7963172" lon="9.1043674"><ele>392.0</ele><time>2026-04-11T13:40:51.023Z</time></trkpt><trkpt lat="44.7962142" lon="9.1042402"><ele>392.0</ele><time>2026-04-11T13:40:52.023Z</time></trkpt><trkpt lat="44.7961071" lon="9.1041052"><ele>392.0</ele><time>2026-04-11T13:40:53.023Z</time></trkpt><trkpt lat="44.7959919" lon="9.1039544"><ele>391.75</ele><time>2026-04-11T13:40:54.023Z</time></trkpt><trkpt lat="44.7958781" lon="9.1038113"><ele>391.5</ele><time>2026-04-11T13:40:55.023Z</time></trkpt><trkpt lat="44.7957769" lon="9.1036813"><ele>391.25</ele><time>2026-04-11T13:40:56.023Z</time></trkpt><trkpt lat="44.795687" lon="9.1035572"><ele>391.0</ele><time>2026-04-11T13:40:57.023Z</time></trkpt><trkpt lat="44.7956099" lon="9.1034351"><ele>391.0</ele><time>2026-04-11T13:40:58.023Z</time></trkpt><trkpt lat="44.7955509" lon="9.1032848"><ele>391.0</ele><time>2026-04-11T13:40:59.022Z</time></trkpt><trkpt lat="44.7955159" lon="9.1031058"><ele>391.0</ele><time>2026-04-11T13:41:00.023Z</time></trkpt><trkpt lat="44.795506" lon="9.1029048"><ele>391.0</ele><time>2026-04-11T13:41:01.023Z</time></trkpt><trkpt lat="44.795513" lon="9.1026975"><ele>390.6666666666667</ele><time>2026-04-11T13:41:02.023Z</time></trkpt><trkpt lat="44.795547" lon="9.1024785"><ele>390.33333333333337</ele><time>2026-04-11T13:41:03.023Z</time></trkpt><trkpt lat="44.7955974" lon="9.10226"><ele>390.0</ele><time>2026-04-11T13:41:04.023Z</time></trkpt><trkpt lat="44.795674" lon="9.1020514"><ele>391.66666666666663</ele><time>2026-04-11T13:41:05.023Z</time></trkpt><trkpt lat="44.7957779" lon="9.1018646"><ele>393.3333333333333</ele><time>2026-04-11T13:41:06.022Z</time></trkpt><trkpt lat="44.7958816" lon="9.1017108"><ele>395.0</ele><time>2026-04-11T13:41:07.023Z</time></trkpt><trkpt lat="44.7959719" lon="9.1015684"><ele>394.25</ele><time>2026-04-11T13:41:08.023Z</time></trkpt><trkpt lat="44.7960527" lon="9.1014211"><ele>393.5</ele><time>2026-04-11T13:41:09.022Z</time></trkpt><trkpt lat="44.7961188" lon="9.1012584"><ele>392.75</ele><time>2026-04-11T13:41:10.023Z</time></trkpt><trkpt lat="44.796164" lon="9.1010818"><ele>392.0</ele><time>2026-04-11T13:41:11.023Z</time></trkpt><trkpt lat="44.7961895" lon="9.1008893"><ele>392.0</ele><time>2026-04-11T13:41:12.023Z</time></trkpt><trkpt lat="44.796198" lon="9.1006791"><ele>392.0</ele><time>2026-04-11T13:41:13.023Z</time></trkpt><trkpt lat="44.7961938" lon="9.1004505"><ele>392.0</ele><time>2026-04-11T13:41:14.023Z</time></trkpt><trkpt lat="44.7961785" lon="9.1002054"><ele>392.0</ele><time>2026-04-11T13:41:15.022Z</time></trkpt><trkpt lat="44.7961574" lon="9.0999413"><ele>392.0</ele><time>2026-04-11T13:41:16.023Z</time></trkpt><trkpt lat="44.7961344" lon="9.0996579"><ele>392.0</ele><time>2026-04-11T13:41:17.023Z</time></trkpt><trkpt lat="44.7961131" lon="9.099354"><ele>390.0</ele><time>2026-04-11T13:41:18.023Z</time></trkpt><trkpt lat="44.7960945" lon="9.0990432"><ele>388.0</ele><time>2026-04-11T13:41:19.023Z</time></trkpt><trkpt lat="44.7960814" lon="9.098717"><ele>388.0</ele><time>2026-04-11T13:41:20.023Z</time></trkpt><trkpt lat="44.7960721" lon="9.0983729"><ele>388.0</ele><time>2026-04-11T13:41:21.023Z</time></trkpt><trkpt lat="44.7960664" lon="9.0980215"><ele>389.0</ele><time>2026-04-11T13:41:22.023Z</time></trkpt><trkpt lat="44.796062" lon="9.0976808"><ele>390.0</ele><time>2026-04-11T13:41:23.023Z</time></trkpt><trkpt lat="44.7960582" lon="9.097356"><ele>390.0</ele><time>2026-04-11T13:41:24.022Z</time></trkpt><trkpt lat="44.7960526" lon="9.0970449"><ele>390.0</ele><time>2026-04-11T13:41:25.023Z</time></trkpt><trkpt lat="44.7960445" lon="9.0967544"><ele>390.0</ele><time>2026-04-11T13:41:26.023Z</time></trkpt><trkpt lat="44.7960289" lon="9.0964846"><ele>390.0</ele><time>2026-04-11T13:41:27.023Z</time></trkpt><trkpt lat="44.7960063" lon="9.0962328"><ele>390.0</ele><time>2026-04-11T13:41:28.023Z</time></trkpt><trkpt lat="44.7959644" lon="9.0959881"><ele>390.0</ele><time>2026-04-11T13:41:29.023Z</time></trkpt><trkpt lat="44.795906" lon="9.0957419"><ele>389.33333333333337</ele><time>2026-04-11T13:41:30.023Z</time></trkpt><trkpt lat="44.7958428" lon="9.095498"><ele>388.6666666666667</ele><time>2026-04-11T13:41:31.023Z</time></trkpt><trkpt lat="44.7957932" lon="9.0952519"><ele>388.0</ele><time>2026-04-11T13:41:32.022Z</time></trkpt><trkpt lat="44.7957646" lon="9.0949971"><ele>388.0</ele><time>2026-04-11T13:41:33.024Z</time></trkpt><trkpt lat="44.7957528" lon="9.0947575"><ele>388.0</ele><time>2026-04-11T13:41:34.024Z</time></trkpt><trkpt lat="44.7957382" lon="9.0945324"><ele>388.0</ele><time>2026-04-11T13:41:35.024Z</time></trkpt><trkpt lat="44.7957114" lon="9.0942975"><ele>387.6666666666667</ele><time>2026-04-11T13:41:36.024Z</time></trkpt><trkpt lat="44.7956718" lon="9.0940534"><ele>387.33333333333337</ele><time>2026-04-11T13:41:37.024Z</time></trkpt><trkpt lat="44.7956244" lon="9.0938056"><ele>387.0</ele><time>2026-04-11T13:41:38.024Z</time></trkpt><trkpt lat="44.7955716" lon="9.0935496"><ele>387.0</ele><time>2026-04-11T13:41:39.024Z</time></trkpt><trkpt lat="44.7955157" lon="9.093287"><ele>387.0</ele><time>2026-04-11T13:41:40.024Z</time></trkpt><trkpt lat="44.7954633" lon="9.093013"><ele>387.0</ele><time>2026-04-11T13:41:41.024Z</time></trkpt><trkpt lat="44.7954088" lon="9.0927329"><ele>385.6666666666667</ele><time>2026-04-11T13:41:42.024Z</time></trkpt><trkpt lat="44.7953486" lon="9.0924446"><ele>384.33333333333337</ele><time>2026-04-11T13:41:43.024Z</time></trkpt><trkpt lat="44.7952878" lon="9.0921535"><ele>383.0</ele><time>2026-04-11T13:41:44.024Z</time></trkpt><trkpt lat="44.7952279" lon="9.0918575"><ele>382.6666666666667</ele><time>2026-04-11T13:41:45.024Z</time></trkpt><trkpt lat="44.7951704" lon="9.0915578"><ele>382.3333333333333</ele><time>2026-04-11T13:41:46.024Z</time></trkpt><trkpt lat="44.7951133" lon="9.0912751"><ele>382.0</ele><time>2026-04-11T13:41:47.024Z</time></trkpt><trkpt lat="44.7950578" lon="9.0909942"><ele>381.66666666666663</ele><time>2026-04-11T13:41:48.023Z</time></trkpt><trkpt lat="44.7950028" lon="9.0907145"><ele>381.3333333333333</ele><time>2026-04-11T13:41:49.024Z</time></trkpt><trkpt lat="44.7949502" lon="9.0904316"><ele>381.0</ele><time>2026-04-11T13:41:50.024Z</time></trkpt><trkpt lat="44.7949061" lon="9.0901471"><ele>379.0</ele><time>2026-04-11T13:41:51.024Z</time></trkpt><trkpt lat="44.7948649" lon="9.0898546"><ele>377.0</ele><time>2026-04-11T13:41:52.023Z</time></trkpt><trkpt lat="44.7948251" lon="9.0895523"><ele>375.0</ele><time>2026-04-11T13:41:53.024Z</time></trkpt><trkpt lat="44.7947737" lon="9.0892513"><ele>374.3333333333333</ele><time>2026-04-11T13:41:54.024Z</time></trkpt><trkpt lat="44.7947177" lon="9.0889474"><ele>373.66666666666663</ele><time>2026-04-11T13:41:55.023Z</time></trkpt><trkpt lat="44.7946639" lon="9.0886409"><ele>373.0</ele><time>2026-04-11T13:41:56.023Z</time></trkpt><trkpt lat="44.7946104" lon="9.0883298"><ele>372.3333333333333</ele><time>2026-04-11T13:41:57.024Z</time></trkpt><trkpt lat="44.7945552" lon="9.0880296"><ele>371.6666666666667</ele><time>2026-04-11T13:41:58.024Z</time></trkpt><trkpt lat="44.7944995" lon="9.0877479"><ele>371.0</ele><time>2026-04-11T13:41:59.024Z</time></trkpt><trkpt lat="44.7944508" lon="9.0874623"><ele>371.0</ele><time>2026-04-11T13:42:00.024Z</time></trkpt><trkpt lat="44.7944124" lon="9.0871757"><ele>371.0</ele><time>2026-04-11T13:42:01.024Z</time></trkpt><trkpt lat="44.7943792" lon="9.0868884"><ele>371.0</ele><time>2026-04-11T13:42:02.024Z</time></trkpt><trkpt lat="44.7943507" lon="9.0865998"><ele>372.6666666666667</ele><time>2026-04-11T13:42:03.024Z</time></trkpt><trkpt lat="44.7943293" lon="9.086311"><ele>374.3333333333333</ele><time>2026-04-11T13:42:04.023Z</time></trkpt><trkpt lat="44.7943095" lon="9.0860275"><ele>376.0</ele><time>2026-04-11T13:42:05.024Z</time></trkpt><trkpt lat="44.7942923" lon="9.0857437"><ele>376.0</ele><time>2026-04-11T13:42:06.024Z</time></trkpt><trkpt lat="44.7942692" lon="9.0854689"><ele>376.0</ele><time>2026-04-11T13:42:07.024Z</time></trkpt><trkpt lat="44.7942443" lon="9.0851935"><ele>376.0</ele><time>2026-04-11T13:42:08.024Z</time></trkpt><trkpt lat="44.7942197" lon="9.0849155"><ele>375.0</ele><time>2026-04-11T13:42:09.023Z</time></trkpt><trkpt lat="44.7941918" lon="9.0846343"><ele>374.0</ele><time>2026-04-11T13:42:10.024Z</time></trkpt><trkpt lat="44.7941573" lon="9.0843535"><ele>373.0</ele><time>2026-04-11T13:42:11.024Z</time></trkpt><trkpt lat="44.794112" lon="9.0840746"><ele>371.0</ele><time>2026-04-11T13:42:12.024Z</time></trkpt><trkpt lat="44.7940519" lon="9.0838021"><ele>369.0</ele><time>2026-04-11T13:42:13.023Z</time></trkpt><trkpt lat="44.7939859" lon="9.0835414"><ele>367.0</ele><time>2026-04-11T13:42:14.023Z</time></trkpt><trkpt lat="44.7939286" lon="9.0832962"><ele>367.0</ele><time>2026-04-11T13:42:15.024Z</time></trkpt><trkpt lat="44.7938797" lon="9.0830681"><ele>367.0</ele><time>2026-04-11T13:42:16.024Z</time></trkpt><trkpt lat="44.7938263" lon="9.0828515"><ele>367.0</ele><time>2026-04-11T13:42:17.024Z</time></trkpt><trkpt lat="44.7937481" lon="9.0826389"><ele>367.0</ele><time>2026-04-11T13:42:18.023Z</time></trkpt><trkpt lat="44.7936442" lon="9.0824256"><ele>367.0</ele><time>2026-04-11T13:42:19.024Z</time></trkpt><trkpt lat="44.793528" lon="9.0822116"><ele>367.0</ele><time>2026-04-11T13:42:20.023Z</time></trkpt><trkpt lat="44.7934098" lon="9.0819864"><ele>367.0</ele><time>2026-04-11T13:42:21.025Z</time></trkpt><trkpt lat="44.7932957" lon="9.0817518"><ele>367.0</ele><time>2026-04-11T13:42:22.025Z</time></trkpt><trkpt lat="44.7931954" lon="9.0815049"><ele>367.0</ele><time>2026-04-11T13:42:23.024Z</time></trkpt><trkpt lat="44.7931024" lon="9.0812473"><ele>366.3333333333333</ele><time>2026-04-11T13:42:24.024Z</time></trkpt><trkpt lat="44.7930187" lon="9.0809817"><ele>365.6666666666667</ele><time>2026-04-11T13:42:25.025Z</time></trkpt><trkpt lat="44.792947" lon="9.0807081"><ele>365.0</ele><time>2026-04-11T13:42:26.025Z</time></trkpt><trkpt lat="44.7928744" lon="9.0804321"><ele>363.6666666666667</ele><time>2026-04-11T13:42:27.025Z</time></trkpt><trkpt lat="44.7928005" lon="9.0801676"><ele>362.3333333333333</ele><time>2026-04-11T13:42:28.024Z</time></trkpt><trkpt lat="44.7927253" lon="9.0799238"><ele>361.0</ele><time>2026-04-11T13:42:29.025Z</time></trkpt><trkpt lat="44.7926519" lon="9.079678"><ele>361.0</ele><time>2026-04-11T13:42:30.025Z</time></trkpt><trkpt lat="44.7925718" lon="9.0794316"><ele>361.0</ele><time>2026-04-11T13:42:31.025Z</time></trkpt><trkpt lat="44.7924712" lon="9.0791929"><ele>361.0</ele><time>2026-04-11T13:42:32.024Z</time></trkpt><trkpt lat="44.7923461" lon="9.0789575"><ele>358.66666666666663</ele><time>2026-04-11T13:42:33.025Z</time></trkpt><trkpt lat="44.7922042" lon="9.0787348"><ele>356.3333333333333</ele><time>2026-04-11T13:42:34.024Z</time></trkpt><trkpt lat="44.7920504" lon="9.0785056"><ele>354.0</ele><time>2026-04-11T13:42:35.025Z</time></trkpt><trkpt lat="44.7918835" lon="9.0782762"><ele>355.5</ele><time>2026-04-11T13:42:36.025Z</time></trkpt><trkpt lat="44.7917183" lon="9.0780385"><ele>357.0</ele><time>2026-04-11T13:42:37.024Z</time></trkpt><trkpt lat="44.7915543" lon="9.0778052"><ele>357.0</ele><time>2026-04-11T13:42:38.025Z</time></trkpt><trkpt lat="44.7914005" lon="9.0775694"><ele>357.0</ele><time>2026-04-11T13:42:39.024Z</time></trkpt><trkpt lat="44.7912537" lon="9.077345"><ele>357.0</ele><time>2026-04-11T13:42:40.025Z</time></trkpt><trkpt lat="44.7911221" lon="9.077125"><ele>356.6666666666667</ele><time>2026-04-11T13:42:41.025Z</time></trkpt><trkpt lat="44.7910077" lon="9.0769157"><ele>356.33333333333337</ele><time>2026-04-11T13:42:42.025Z</time></trkpt><trkpt lat="44.7909038" lon="9.0767108"><ele>356.0</ele><time>2026-04-11T13:42:43.025Z</time></trkpt><trkpt lat="44.7908079" lon="9.0765182"><ele>356.0</ele><time>2026-04-11T13:42:44.025Z</time></trkpt><trkpt lat="44.7907122" lon="9.0763305"><ele>356.0</ele><time>2026-04-11T13:42:45.025Z</time></trkpt><trkpt lat="44.7906206" lon="9.0761418"><ele>356.0</ele><time>2026-04-11T13:42:46.025Z</time></trkpt><trkpt lat="44.7905303" lon="9.0759481"><ele>353.33333333333337</ele><time>2026-04-11T13:42:47.025Z</time></trkpt><trkpt lat="44.7904379" lon="9.0757518"><ele>350.6666666666667</ele><time>2026-04-11T13:42:48.025Z</time></trkpt><trkpt lat="44.7903391" lon="9.0755565"><ele>348.0</ele><time>2026-04-11T13:42:49.025Z</time></trkpt><trkpt lat="44.7902462" lon="9.0753627"><ele>348.3333333333333</ele><time>2026-04-11T13:42:50.025Z</time></trkpt><trkpt lat="44.7901618" lon="9.0751639"><ele>348.66666666666663</ele><time>2026-04-11T13:42:51.025Z</time></trkpt><trkpt lat="44.7900924" lon="9.0749568"><ele>349.0</ele><time>2026-04-11T13:42:52.025Z</time></trkpt><trkpt lat="44.7900346" lon="9.074738"><ele>349.0</ele><time>2026-04-11T13:42:53.025Z</time></trkpt><trkpt lat="44.7899794" lon="9.0745163"><ele>349.0</ele><time>2026-04-11T13:42:54.025Z</time></trkpt><trkpt lat="44.7899059" lon="9.0742984"><ele>349.0</ele><time>2026-04-11T13:42:55.025Z</time></trkpt><trkpt lat="44.7898194" lon="9.0740948"><ele>346.66666666666663</ele><time>2026-04-11T13:42:56.025Z</time></trkpt><trkpt lat="44.7897367" lon="9.0739039"><ele>344.3333333333333</ele><time>2026-04-11T13:42:57.025Z</time></trkpt><trkpt lat="44.7896555" lon="9.0737231"><ele>342.0</ele><time>2026-04-11T13:42:58.024Z</time></trkpt><trkpt lat="44.789587" lon="9.0735399"><ele>342.0</ele><time>2026-04-11T13:42:59.025Z</time></trkpt><trkpt lat="44.7895309" lon="9.073363"><ele>342.0</ele><time>2026-04-11T13:43:00.025Z</time></trkpt><trkpt lat="44.7894744" lon="9.073195"><ele>342.0</ele><time>2026-04-11T13:43:01.025Z</time></trkpt><trkpt lat="44.7893968" lon="9.0730432"><ele>342.0</ele><time>2026-04-11T13:43:02.025Z</time></trkpt><trkpt lat="44.789296" lon="9.0728946"><ele>341.6666666666667</ele><time>2026-04-11T13:43:03.025Z</time></trkpt><trkpt lat="44.7891837" lon="9.0727483"><ele>341.33333333333337</ele><time>2026-04-11T13:43:04.025Z</time></trkpt><trkpt lat="44.7890679" lon="9.0725957"><ele>341.0</ele><time>2026-04-11T13:43:05.025Z</time></trkpt><trkpt lat="44.7889469" lon="9.0724291"><ele>340.0</ele><time>2026-04-11T13:43:06.025Z</time></trkpt><trkpt lat="44.7888384" lon="9.072241"><ele>339.0</ele><time>2026-04-11T13:43:07.025Z</time></trkpt><trkpt lat="44.7887316" lon="9.0720129"><ele>338.0</ele><time>2026-04-11T13:43:08.025Z</time></trkpt><trkpt lat="44.788642" lon="9.0717734"><ele>338.0</ele><time>2026-04-11T13:43:09.025Z</time></trkpt><trkpt lat="44.7885553" lon="9.0715575"><ele>338.0</ele><time>2026-04-11T13:43:10.026Z</time></trkpt><trkpt lat="44.7884781" lon="9.0713512"><ele>338.0</ele><time>2026-04-11T13:43:11.025Z</time></trkpt><trkpt lat="44.7884027" lon="9.0711592"><ele>337.5</ele><time>2026-04-11T13:43:12.026Z</time></trkpt><trkpt lat="44.7883321" lon="9.0709742"><ele>337.0</ele><time>2026-04-11T13:43:13.026Z</time></trkpt><trkpt lat="44.7882616" lon="9.0707905"><ele>336.5</ele><time>2026-04-11T13:43:14.026Z</time></trkpt><trkpt lat="44.7881927" lon="9.0706036"><ele>336.0</ele><time>2026-04-11T13:43:15.026Z</time></trkpt><trkpt lat="44.7881244" lon="9.0704167"><ele>335.6666666666667</ele><time>2026-04-11T13:43:16.026Z</time></trkpt><trkpt lat="44.7880547" lon="9.0702325"><ele>335.33333333333337</ele><time>2026-04-11T13:43:17.026Z</time></trkpt><trkpt lat="44.7879824" lon="9.0700471"><ele>335.0</ele><time>2026-04-11T13:43:18.026Z</time></trkpt><trkpt lat="44.7879107" lon="9.0698565"><ele>334.6666666666667</ele><time>2026-04-11T13:43:19.026Z</time></trkpt><trkpt lat="44.7878327" lon="9.0696626"><ele>334.3333333333333</ele><time>2026-04-11T13:43:20.026Z</time></trkpt><trkpt lat="44.7877491" lon="9.0694636"><ele>334.0</ele><time>2026-04-11T13:43:21.026Z</time></trkpt><trkpt lat="44.7876661" lon="9.0692683"><ele>333.66666666666663</ele><time>2026-04-11T13:43:22.025Z</time></trkpt><trkpt lat="44.7875819" lon="9.069072"><ele>333.3333333333333</ele><time>2026-04-11T13:43:23.026Z</time></trkpt><trkpt lat="44.7875023" lon="9.0688785"><ele>333.0</ele><time>2026-04-11T13:43:24.026Z</time></trkpt><trkpt lat="44.7874242" lon="9.0686795"><ele>333.0</ele><time>2026-04-11T13:43:25.026Z</time></trkpt><trkpt lat="44.7873478" lon="9.0684769"><ele>333.0</ele><time>2026-04-11T13:43:26.026Z</time></trkpt><trkpt lat="44.7872761" lon="9.0682686"><ele>333.0</ele><time>2026-04-11T13:43:27.025Z</time></trkpt><trkpt lat="44.7872052" lon="9.0680582"><ele>333.0</ele><time>2026-04-11T13:43:28.026Z</time></trkpt><trkpt lat="44.7871369" lon="9.0678478"><ele>333.0</ele><time>2026-04-11T13:43:29.026Z</time></trkpt><trkpt lat="44.7870686" lon="9.0676242"><ele>333.0</ele><time>2026-04-11T13:43:30.026Z</time></trkpt><trkpt lat="44.7870017" lon="9.0673958"><ele>333.0</ele><time>2026-04-11T13:43:31.026Z</time></trkpt><trkpt lat="44.7869426" lon="9.0671649"><ele>333.0</ele><time>2026-04-11T13:43:32.026Z</time></trkpt><trkpt lat="44.78688" lon="9.0669316"><ele>333.0</ele><time>2026-04-11T13:43:33.026Z</time></trkpt><trkpt lat="44.7868088" lon="9.0667014"><ele>332.3333333333333</ele><time>2026-04-11T13:43:34.026Z</time></trkpt><trkpt lat="44.7867408" lon="9.0664823"><ele>331.66666666666663</ele><time>2026-04-11T13:43:35.026Z</time></trkpt><trkpt lat="44.7866699" lon="9.0662709"><ele>331.0</ele><time>2026-04-11T13:43:36.026Z</time></trkpt><trkpt lat="44.7865933" lon="9.0660691"><ele>331.0</ele><time>2026-04-11T13:43:37.026Z</time></trkpt><trkpt lat="44.7865071" lon="9.0658785"><ele>331.0</ele><time>2026-04-11T13:43:38.026Z</time></trkpt><trkpt lat="44.7864388" lon="9.0656697"><ele>331.0</ele><time>2026-04-11T13:43:39.026Z</time></trkpt><trkpt lat="44.7863839" lon="9.0654541"><ele>330.75</ele><time>2026-04-11T13:43:40.026Z</time></trkpt><trkpt lat="44.7863493" lon="9.0652331"><ele>330.5</ele><time>2026-04-11T13:43:41.026Z</time></trkpt><trkpt lat="44.7863323" lon="9.0650323"><ele>330.25</ele><time>2026-04-11T13:43:42.026Z</time></trkpt><trkpt lat="44.7863118" lon="9.06485"><ele>330.0</ele><time>2026-04-11T13:43:43.026Z</time></trkpt><trkpt lat="44.7862932" lon="9.0646747"><ele>330.0</ele><time>2026-04-11T13:43:44.026Z</time></trkpt><trkpt lat="44.7862685" lon="9.0645234"><ele>330.0</ele><time>2026-04-11T13:43:45.026Z</time></trkpt><trkpt lat="44.7862334" lon="9.0643977"><ele>330.0</ele><time>2026-04-11T13:43:46.025Z</time></trkpt><trkpt lat="44.7861778" lon="9.064288"><ele>330.0</ele><time>2026-04-11T13:43:47.026Z</time></trkpt><trkpt lat="44.7861068" lon="9.0641976"><ele>330.0</ele><time>2026-04-11T13:43:48.025Z</time></trkpt><trkpt lat="44.7860333" lon="9.0641006"><ele>330.6</ele><time>2026-04-11T13:43:49.026Z</time></trkpt><trkpt lat="44.7859635" lon="9.0639921"><ele>331.2</ele><time>2026-04-11T13:43:50.026Z</time></trkpt><trkpt lat="44.785894" lon="9.0639032"><ele>331.79999999999995</ele><time>2026-04-11T13:43:51.026Z</time></trkpt><trkpt lat="44.785839" lon="9.063824"><ele>332.4</ele><time>2026-04-11T13:43:52.026Z</time></trkpt><trkpt lat="44.7858161" lon="9.0636712"><ele>333.0</ele><time>2026-04-11T13:43:54.026Z</time></trkpt><trkpt lat="44.7858643" lon="9.0635751"><ele>333.0</ele><time>2026-04-11T13:43:55.026Z</time></trkpt><trkpt lat="44.7859314" lon="9.0634595"><ele>333.0</ele><time>2026-04-11T13:43:56.026Z</time></trkpt><trkpt lat="44.7860039" lon="9.0633016"><ele>333.0</ele><time>2026-04-11T13:43:57.027Z</time></trkpt><trkpt lat="44.7860586" lon="9.0631327"><ele>333.0</ele><time>2026-04-11T13:43:58.027Z</time></trkpt><trkpt lat="44.7861349" lon="9.0629685"><ele>332.0</ele><time>2026-04-11T13:43:59.026Z</time></trkpt><trkpt lat="44.7862152" lon="9.0627948"><ele>331.0</ele><time>2026-04-11T13:44:00.026Z</time></trkpt><trkpt lat="44.7862948" lon="9.0626093"><ele>330.0</ele><time>2026-04-11T13:44:01.027Z</time></trkpt><trkpt lat="44.7863753" lon="9.0624153"><ele>329.6666666666667</ele><time>2026-04-11T13:44:02.027Z</time></trkpt><trkpt lat="44.7864669" lon="9.062216"><ele>329.33333333333337</ele><time>2026-04-11T13:44:03.027Z</time></trkpt><trkpt lat="44.7865588" lon="9.0620202"><ele>329.0</ele><time>2026-04-11T13:44:04.026Z</time></trkpt><trkpt lat="44.7866445" lon="9.0618054"><ele>328.6666666666667</ele><time>2026-04-11T13:44:05.027Z</time></trkpt><trkpt lat="44.7867405" lon="9.0615925"><ele>328.3333333333333</ele><time>2026-04-11T13:44:06.027Z</time></trkpt><trkpt lat="44.7868381" lon="9.0613606"><ele>328.0</ele><time>2026-04-11T13:44:07.027Z</time></trkpt><trkpt lat="44.7869373" lon="9.0611251"><ele>328.0</ele><time>2026-04-11T13:44:08.027Z</time></trkpt><trkpt lat="44.7870334" lon="9.0608843"><ele>328.0</ele><time>2026-04-11T13:44:09.027Z</time></trkpt><trkpt lat="44.787137" lon="9.0606471"><ele>328.0</ele><time>2026-04-11T13:44:10.027Z</time></trkpt><trkpt lat="44.7872333" lon="9.0604216"><ele>327.3333333333333</ele><time>2026-04-11T13:44:11.027Z</time></trkpt><trkpt lat="44.7873224" lon="9.0602093"><ele>326.6666666666667</ele><time>2026-04-11T13:44:12.026Z</time></trkpt><trkpt lat="44.787408" lon="9.0599961"><ele>326.0</ele><time>2026-04-11T13:44:13.027Z</time></trkpt><trkpt lat="44.7874899" lon="9.0597716"><ele>326.0</ele><time>2026-04-11T13:44:14.027Z</time></trkpt><trkpt lat="44.7875679" lon="9.0595496"><ele>326.0</ele><time>2026-04-11T13:44:15.027Z</time></trkpt><trkpt lat="44.7876466" lon="9.0593172"><ele>326.0</ele><time>2026-04-11T13:44:16.027Z</time></trkpt><trkpt lat="44.7877283" lon="9.0590759"><ele>324.0</ele><time>2026-04-11T13:44:17.027Z</time></trkpt><trkpt lat="44.7878067" lon="9.0588246"><ele>322.0</ele><time>2026-04-11T13:44:18.027Z</time></trkpt><trkpt lat="44.7878892" lon="9.0585715"><ele>320.0</ele><time>2026-04-11T13:44:19.027Z</time></trkpt><trkpt lat="44.7879653" lon="9.0583232"><ele>320.33333333333337</ele><time>2026-04-11T13:44:20.027Z</time></trkpt><trkpt lat="44.7880399" lon="9.0580848"><ele>320.6666666666667</ele><time>2026-04-11T13:44:21.027Z</time></trkpt><trkpt lat="44.7881199" lon="9.0578524"><ele>321.0</ele><time>2026-04-11T13:44:22.027Z</time></trkpt><trkpt lat="44.7882158" lon="9.0576319"><ele>321.0</ele><time>2026-04-11T13:44:23.026Z</time></trkpt><trkpt lat="44.7883275" lon="9.0574178"><ele>321.0</ele><time>2026-04-11T13:44:24.027Z</time></trkpt><trkpt lat="44.7884522" lon="9.0572095"><ele>321.0</ele><time>2026-04-11T13:44:25.027Z</time></trkpt><trkpt lat="44.7885848" lon="9.0570026"><ele>320.3333333333333</ele><time>2026-04-11T13:44:26.027Z</time></trkpt><trkpt lat="44.7887188" lon="9.0567923"><ele>319.66666666666663</ele><time>2026-04-11T13:44:27.026Z</time></trkpt><trkpt lat="44.7888545" lon="9.0565726"><ele>319.0</ele><time>2026-04-11T13:44:28.027Z</time></trkpt><trkpt lat="44.7889891" lon="9.0563461"><ele>319.0</ele><time>2026-04-11T13:44:29.027Z</time></trkpt><trkpt lat="44.7891285" lon="9.0561212"><ele>319.0</ele><time>2026-04-11T13:44:30.027Z</time></trkpt><trkpt lat="44.7892663" lon="9.0558956"><ele>319.0</ele><time>2026-04-11T13:44:31.027Z</time></trkpt><trkpt lat="44.7893917" lon="9.0556804"><ele>319.0</ele><time>2026-04-11T13:44:32.027Z</time></trkpt><trkpt lat="44.7895125" lon="9.0554727"><ele>319.0</ele><time>2026-04-11T13:44:33.027Z</time></trkpt><trkpt lat="44.7896364" lon="9.0552767"><ele>319.0</ele><time>2026-04-11T13:44:34.027Z</time></trkpt><trkpt lat="44.7897701" lon="9.0550918"><ele>321.0</ele><time>2026-04-11T13:44:35.027Z</time></trkpt><trkpt lat="44.7899102" lon="9.0549139"><ele>323.0</ele><time>2026-04-11T13:44:36.027Z</time></trkpt><trkpt lat="44.7900623" lon="9.0547568"><ele>325.0</ele><time>2026-04-11T13:44:37.027Z</time></trkpt><trkpt lat="44.7902289" lon="9.0546296"><ele>325.0</ele><time>2026-04-11T13:44:38.027Z</time></trkpt><trkpt lat="44.7904074" lon="9.0545123"><ele>325.0</ele><time>2026-04-11T13:44:39.027Z</time></trkpt><trkpt lat="44.7905958" lon="9.0544284"><ele>325.0</ele><time>2026-04-11T13:44:40.026Z</time></trkpt><trkpt lat="44.7907851" lon="9.0543711"><ele>325.0</ele><time>2026-04-11T13:44:41.027Z</time></trkpt><trkpt lat="44.7909708" lon="9.0543281"><ele>325.0</ele><time>2026-04-11T13:44:42.027Z</time></trkpt><trkpt lat="44.7911502" lon="9.0542817"><ele>325.0</ele><time>2026-04-11T13:44:43.027Z</time></trkpt><trkpt lat="44.7913201" lon="9.0542336"><ele>323.66666666666663</ele><time>2026-04-11T13:44:44.027Z</time></trkpt><trkpt lat="44.7914796" lon="9.0541831"><ele>322.3333333333333</ele><time>2026-04-11T13:44:45.027Z</time></trkpt><trkpt lat="44.7916394" lon="9.0541256"><ele>321.0</ele><time>2026-04-11T13:44:46.028Z</time></trkpt><trkpt lat="44.7917932" lon="9.0540295"><ele>321.3333333333333</ele><time>2026-04-11T13:44:47.027Z</time></trkpt><trkpt lat="44.7919421" lon="9.05391"><ele>321.66666666666663</ele><time>2026-04-11T13:44:48.028Z</time></trkpt><trkpt lat="44.792092" lon="9.0537664"><ele>322.0</ele><time>2026-04-11T13:44:49.028Z</time></trkpt><trkpt lat="44.7922357" lon="9.0536089"><ele>322.0</ele><time>2026-04-11T13:44:50.028Z</time></trkpt><trkpt lat="44.7923798" lon="9.0534554"><ele>322.0</ele><time>2026-04-11T13:44:51.028Z</time></trkpt><trkpt lat="44.7925303" lon="9.053318"><ele>322.0</ele><time>2026-04-11T13:44:52.028Z</time></trkpt><trkpt lat="44.7926927" lon="9.0531986"><ele>323.66666666666663</ele><time>2026-04-11T13:44:53.027Z</time></trkpt><trkpt lat="44.7928602" lon="9.0530932"><ele>325.3333333333333</ele><time>2026-04-11T13:44:54.027Z</time></trkpt><trkpt lat="44.7930399" lon="9.0530056"><ele>327.0</ele><time>2026-04-11T13:44:55.028Z</time></trkpt><trkpt lat="44.7932321" lon="9.0529375"><ele>327.0</ele><time>2026-04-11T13:44:56.028Z</time></trkpt><trkpt lat="44.7934477" lon="9.0528754"><ele>327.0</ele><time>2026-04-11T13:44:57.027Z</time></trkpt><trkpt lat="44.7936915" lon="9.052815"><ele>324.5</ele><time>2026-04-11T13:44:58.028Z</time></trkpt><trkpt lat="44.7939348" lon="9.0527628"><ele>322.0</ele><time>2026-04-11T13:44:59.028Z</time></trkpt><trkpt lat="44.7941588" lon="9.0527291"><ele>318.3333333333333</ele><time>2026-04-11T13:45:00.028Z</time></trkpt><trkpt lat="44.7943597" lon="9.0526848"><ele>314.6666666666667</ele><time>2026-04-11T13:45:01.027Z</time></trkpt><trkpt lat="44.7945444" lon="9.0526128"><ele>311.0</ele><time>2026-04-11T13:45:02.027Z</time></trkpt><trkpt lat="44.7947196" lon="9.0525085"><ele>311.33333333333337</ele><time>2026-04-11T13:45:03.027Z</time></trkpt><trkpt lat="44.7948838" lon="9.0523643"><ele>311.6666666666667</ele><time>2026-04-11T13:45:04.027Z</time></trkpt><trkpt lat="44.7950405" lon="9.0521952"><ele>312.0</ele><time>2026-04-11T13:45:05.028Z</time></trkpt><trkpt lat="44.7951972" lon="9.0519984"><ele>312.0</ele><time>2026-04-11T13:45:06.028Z</time></trkpt><trkpt lat="44.7953535" lon="9.0517744"><ele>312.0</ele><time>2026-04-11T13:45:07.027Z</time></trkpt><trkpt lat="44.7955181" lon="9.0515385"><ele>314.5</ele><time>2026-04-11T13:45:08.027Z</time></trkpt><trkpt lat="44.7956881" lon="9.0513047"><ele>317.0</ele><time>2026-04-11T13:45:09.028Z</time></trkpt><trkpt lat="44.7958608" lon="9.0510628"><ele>315.5</ele><time>2026-04-11T13:45:10.028Z</time></trkpt><trkpt lat="44.7960311" lon="9.0508253"><ele>314.0</ele><time>2026-04-11T13:45:11.028Z</time></trkpt><trkpt lat="44.7961889" lon="9.0506022"><ele>314.0</ele><time>2026-04-11T13:45:12.028Z</time></trkpt><trkpt lat="44.7963348" lon="9.0503989"><ele>314.0</ele><time>2026-04-11T13:45:13.028Z</time></trkpt><trkpt lat="44.7964861" lon="9.0502213"><ele>314.0</ele><time>2026-04-11T13:45:14.028Z</time></trkpt><trkpt lat="44.7966558" lon="9.0500656"><ele>313.6666666666667</ele><time>2026-04-11T13:45:15.028Z</time></trkpt><trkpt lat="44.7968401" lon="9.0499282"><ele>313.3333333333333</ele><time>2026-04-11T13:45:16.028Z</time></trkpt><trkpt lat="44.7970315" lon="9.0497976"><ele>313.0</ele><time>2026-04-11T13:45:17.028Z</time></trkpt><trkpt lat="44.7972267" lon="9.0496693"><ele>313.0</ele><time>2026-04-11T13:45:18.027Z</time></trkpt><trkpt lat="44.7974314" lon="9.0495487"><ele>313.0</ele><time>2026-04-11T13:45:19.028Z</time></trkpt><trkpt lat="44.797639" lon="9.0494477"><ele>313.0</ele><time>2026-04-11T13:45:20.028Z</time></trkpt><trkpt lat="44.7978401" lon="9.0493569"><ele>312.66666666666663</ele><time>2026-04-11T13:45:21.027Z</time></trkpt><trkpt lat="44.7980327" lon="9.0492475"><ele>312.3333333333333</ele><time>2026-04-11T13:45:22.028Z</time></trkpt><trkpt lat="44.7982238" lon="9.049109"><ele>312.0</ele><time>2026-04-11T13:45:23.028Z</time></trkpt><trkpt lat="44.7984149" lon="9.0489439"><ele>309.5</ele><time>2026-04-11T13:45:24.028Z</time></trkpt><trkpt lat="44.7986075" lon="9.0487643"><ele>307.0</ele><time>2026-04-11T13:45:25.028Z</time></trkpt><trkpt lat="44.7988011" lon="9.0485759"><ele>307.0</ele><time>2026-04-11T13:45:26.028Z</time></trkpt><trkpt lat="44.7989978" lon="9.0483942"><ele>307.0</ele><time>2026-04-11T13:45:27.028Z</time></trkpt><trkpt lat="44.7991896" lon="9.0482163"><ele>309.0</ele><time>2026-04-11T13:45:28.027Z</time></trkpt><trkpt lat="44.7993765" lon="9.0480484"><ele>311.0</ele><time>2026-04-11T13:45:29.028Z</time></trkpt><trkpt lat="44.7995599" lon="9.0478811"><ele>313.0</ele><time>2026-04-11T13:45:30.027Z</time></trkpt><trkpt lat="44.7997414" lon="9.0477151"><ele>313.0</ele><time>2026-04-11T13:45:31.027Z</time></trkpt><trkpt lat="44.7999204" lon="9.047549"><ele>313.0</ele><time>2026-04-11T13:45:32.028Z</time></trkpt><trkpt lat="44.8000989" lon="9.0473893"><ele>313.0</ele><time>2026-04-11T13:45:33.029Z</time></trkpt><trkpt lat="44.800274" lon="9.0472235"><ele>311.3333333333333</ele><time>2026-04-11T13:45:34.029Z</time></trkpt><trkpt lat="44.8004518" lon="9.0470633"><ele>309.6666666666667</ele><time>2026-04-11T13:45:35.029Z</time></trkpt><trkpt lat="44.8006225" lon="9.046903"><ele>308.0</ele><time>2026-04-11T13:45:36.029Z</time></trkpt><trkpt lat="44.8007862" lon="9.0467515"><ele>308.6666666666667</ele><time>2026-04-11T13:45:37.029Z</time></trkpt><trkpt lat="44.8009349" lon="9.0466135"><ele>309.3333333333333</ele><time>2026-04-11T13:45:38.029Z</time></trkpt><trkpt lat="44.8010717" lon="9.0464889"><ele>310.0</ele><time>2026-04-11T13:45:39.029Z</time></trkpt><trkpt lat="44.8012149" lon="9.0463934"><ele>310.0</ele><time>2026-04-11T13:45:40.029Z</time></trkpt><trkpt lat="44.801366" lon="9.0463213"><ele>310.0</ele><time>2026-04-11T13:45:41.029Z</time></trkpt><trkpt lat="44.8015244" lon="9.0463024"><ele>310.0</ele><time>2026-04-11T13:45:42.029Z</time></trkpt><trkpt lat="44.8016958" lon="9.0463307"><ele>309.3333333333333</ele><time>2026-04-11T13:45:43.028Z</time></trkpt><trkpt lat="44.8018689" lon="9.0463749"><ele>308.6666666666667</ele><time>2026-04-11T13:45:44.029Z</time></trkpt><trkpt lat="44.8020336" lon="9.0463905"><ele>308.0</ele><time>2026-04-11T13:45:45.028Z</time></trkpt><trkpt lat="44.8021985" lon="9.0463634"><ele>308.0</ele><time>2026-04-11T13:45:46.029Z</time></trkpt><trkpt lat="44.802368" lon="9.0463029"><ele>308.0</ele><time>2026-04-11T13:45:47.028Z</time></trkpt><trkpt lat="44.8025378" lon="9.0461921"><ele>308.0</ele><time>2026-04-11T13:45:48.029Z</time></trkpt><trkpt lat="44.8027103" lon="9.046062"><ele>307.0</ele><time>2026-04-11T13:45:49.029Z</time></trkpt><trkpt lat="44.8028732" lon="9.0459254"><ele>306.0</ele><time>2026-04-11T13:45:50.028Z</time></trkpt><trkpt lat="44.8030277" lon="9.0457993"><ele>305.0</ele><time>2026-04-11T13:45:51.028Z</time></trkpt><trkpt lat="44.8031722" lon="9.0456808"><ele>305.0</ele><time>2026-04-11T13:45:52.029Z</time></trkpt><trkpt lat="44.8033061" lon="9.0455495"><ele>305.0</ele><time>2026-04-11T13:45:53.029Z</time></trkpt><trkpt lat="44.8034191" lon="9.0453792"><ele>305.0</ele><time>2026-04-11T13:45:54.028Z</time></trkpt><trkpt lat="44.8035109" lon="9.0451729"><ele>303.33333333333337</ele><time>2026-04-11T13:45:55.029Z</time></trkpt><trkpt lat="44.8035924" lon="9.044958"><ele>301.6666666666667</ele><time>2026-04-11T13:45:56.029Z</time></trkpt><trkpt lat="44.8036782" lon="9.0447669"><ele>300.0</ele><time>2026-04-11T13:45:57.029Z</time></trkpt><trkpt lat="44.8037797" lon="9.0445946"><ele>300.0</ele><time>2026-04-11T13:45:58.029Z</time></trkpt><trkpt lat="44.8039083" lon="9.0444448"><ele>300.0</ele><time>2026-04-11T13:45:59.029Z</time></trkpt><trkpt lat="44.8040609" lon="9.0443168"><ele>300.0</ele><time>2026-04-11T13:46:00.029Z</time></trkpt><trkpt lat="44.8042258" lon="9.044221"><ele>299.0</ele><time>2026-04-11T13:46:01.029Z</time></trkpt><trkpt lat="44.8044134" lon="9.0441528"><ele>298.0</ele><time>2026-04-11T13:46:02.029Z</time></trkpt><trkpt lat="44.8046197" lon="9.0441091"><ele>297.0</ele><time>2026-04-11T13:46:03.028Z</time></trkpt><trkpt lat="44.8048327" lon="9.0440715"><ele>297.0</ele><time>2026-04-11T13:46:04.029Z</time></trkpt><trkpt lat="44.8050554" lon="9.044021"><ele>297.0</ele><time>2026-04-11T13:46:05.029Z</time></trkpt><trkpt lat="44.8052957" lon="9.0439575"><ele>295.0</ele><time>2026-04-11T13:46:06.028Z</time></trkpt><trkpt lat="44.805553" lon="9.0438934"><ele>293.0</ele><time>2026-04-11T13:46:07.028Z</time></trkpt><trkpt lat="44.8058251" lon="9.0438434"><ele>293.0</ele><time>2026-04-11T13:46:08.029Z</time></trkpt><trkpt lat="44.8060935" lon="9.0438028"><ele>293.0</ele><time>2026-04-11T13:46:09.029Z</time></trkpt><trkpt lat="44.8063484" lon="9.0437584"><ele>293.0</ele><time>2026-04-11T13:46:10.028Z</time></trkpt><trkpt lat="44.8065885" lon="9.0437194"><ele>293.0</ele><time>2026-04-11T13:46:11.029Z</time></trkpt><trkpt lat="44.8068223" lon="9.043689"><ele>292.0</ele><time>2026-04-11T13:46:12.029Z</time></trkpt><trkpt lat="44.8070626" lon="9.0436804"><ele>291.0</ele><time>2026-04-11T13:46:13.029Z</time></trkpt><trkpt lat="44.8073009" lon="9.0436793"><ele>291.0</ele><time>2026-04-11T13:46:14.028Z</time></trkpt><trkpt lat="44.8075288" lon="9.0436844"><ele>291.0</ele><time>2026-04-11T13:46:15.029Z</time></trkpt><trkpt lat="44.8077367" lon="9.0436868"><ele>291.0</ele><time>2026-04-11T13:46:16.028Z</time></trkpt><trkpt lat="44.8079353" lon="9.0436911"><ele>289.6666666666667</ele><time>2026-04-11T13:46:17.029Z</time></trkpt><trkpt lat="44.8081223" lon="9.0436906"><ele>288.33333333333337</ele><time>2026-04-11T13:46:18.029Z</time></trkpt><trkpt lat="44.808308" lon="9.0436755"><ele>287.0</ele><time>2026-04-11T13:46:19.029Z</time></trkpt><trkpt lat="44.8084922" lon="9.0436403"><ele>286.6666666666667</ele><time>2026-04-11T13:46:20.029Z</time></trkpt><trkpt lat="44.8086771" lon="9.0435813"><ele>286.3333333333333</ele><time>2026-04-11T13:46:21.029Z</time></trkpt><trkpt lat="44.8088572" lon="9.0434929"><ele>286.0</ele><time>2026-04-11T13:46:22.03Z</time></trkpt><trkpt lat="44.8090329" lon="9.0433817"><ele>286.3333333333333</ele><time>2026-04-11T13:46:23.03Z</time></trkpt><trkpt lat="44.8092069" lon="9.04327"><ele>286.6666666666667</ele><time>2026-04-11T13:46:24.029Z</time></trkpt><trkpt lat="44.8093843" lon="9.0431597"><ele>287.0</ele><time>2026-04-11T13:46:25.03Z</time></trkpt><trkpt lat="44.8095588" lon="9.0430333"><ele>287.0</ele><time>2026-04-11T13:46:26.03Z</time></trkpt><trkpt lat="44.8097256" lon="9.0428863"><ele>287.0</ele><time>2026-04-11T13:46:27.03Z</time></trkpt><trkpt lat="44.8099042" lon="9.0427472"><ele>287.0</ele><time>2026-04-11T13:46:28.03Z</time></trkpt><trkpt lat="44.8100947" lon="9.0426117"><ele>286.6666666666667</ele><time>2026-04-11T13:46:29.03Z</time></trkpt><trkpt lat="44.8102866" lon="9.0424748"><ele>286.3333333333333</ele><time>2026-04-11T13:46:30.03Z</time></trkpt><trkpt lat="44.810478" lon="9.0423459"><ele>286.0</ele><time>2026-04-11T13:46:31.03Z</time></trkpt><trkpt lat="44.8106637" lon="9.0422229"><ele>285.3333333333333</ele><time>2026-04-11T13:46:32.029Z</time></trkpt><trkpt lat="44.8108274" lon="9.0421073"><ele>284.6666666666667</ele><time>2026-04-11T13:46:33.03Z</time></trkpt><trkpt lat="44.8109772" lon="9.041997"><ele>284.0</ele><time>2026-04-11T13:46:34.03Z</time></trkpt><trkpt lat="44.8111222" lon="9.0418923"><ele>283.6666666666667</ele><time>2026-04-11T13:46:35.03Z</time></trkpt><trkpt lat="44.8112644" lon="9.0417838"><ele>283.3333333333333</ele><time>2026-04-11T13:46:36.03Z</time></trkpt><trkpt lat="44.8113941" lon="9.0416343"><ele>283.0</ele><time>2026-04-11T13:46:37.029Z</time></trkpt><trkpt lat="44.8115102" lon="9.0414707"><ele>283.66666666666663</ele><time>2026-04-11T13:46:38.03Z</time></trkpt><trkpt lat="44.8116435" lon="9.0413338"><ele>284.3333333333333</ele><time>2026-04-11T13:46:39.03Z</time></trkpt><trkpt lat="44.8117943" lon="9.0412375"><ele>285.0</ele><time>2026-04-11T13:46:40.03Z</time></trkpt><trkpt lat="44.8119546" lon="9.0411815"><ele>286.0</ele><time>2026-04-11T13:46:41.03Z</time></trkpt><trkpt lat="44.8121118" lon="9.0411482"><ele>287.0</ele><time>2026-04-11T13:46:42.029Z</time></trkpt><trkpt lat="44.8122552" lon="9.0411234"><ele>288.0</ele><time>2026-04-11T13:46:43.03Z</time></trkpt><trkpt lat="44.8123867" lon="9.0411006"><ele>289.0</ele><time>2026-04-11T13:46:44.03Z</time></trkpt><trkpt lat="44.8125197" lon="9.0410886"><ele>288.0</ele><time>2026-04-11T13:46:45.03Z</time></trkpt><trkpt lat="44.8126663" lon="9.0410832"><ele>287.0</ele><time>2026-04-11T13:46:46.03Z</time></trkpt><trkpt lat="44.8128168" lon="9.0410886"><ele>286.0</ele><time>2026-04-11T13:46:47.03Z</time></trkpt><trkpt lat="44.8129711" lon="9.0410912"><ele>286.0</ele><time>2026-04-11T13:46:48.03Z</time></trkpt><trkpt lat="44.8131263" lon="9.0410806"><ele>286.0</ele><time>2026-04-11T13:46:49.03Z</time></trkpt><trkpt lat="44.813276" lon="9.0410451"><ele>286.0</ele><time>2026-04-11T13:46:50.03Z</time></trkpt><trkpt lat="44.8134229" lon="9.0409948"><ele>285.25</ele><time>2026-04-11T13:46:51.03Z</time></trkpt><trkpt lat="44.8135603" lon="9.0409164"><ele>284.5</ele><time>2026-04-11T13:46:52.03Z</time></trkpt><trkpt lat="44.8136877" lon="9.0408384"><ele>283.75</ele><time>2026-04-11T13:46:53.03Z</time></trkpt><trkpt lat="44.8138136" lon="9.0407657"><ele>283.0</ele><time>2026-04-11T13:46:54.03Z</time></trkpt><trkpt lat="44.8139346" lon="9.0407009"><ele>283.0</ele><time>2026-04-11T13:46:55.03Z</time></trkpt><trkpt lat="44.8140456" lon="9.04064"><ele>283.0</ele><time>2026-04-11T13:46:56.03Z</time></trkpt><trkpt lat="44.8141526" lon="9.0405857"><ele>283.0</ele><time>2026-04-11T13:46:57.03Z</time></trkpt><trkpt lat="44.8142449" lon="9.04054"><ele>283.0</ele><time>2026-04-11T13:46:58.03Z</time></trkpt><trkpt lat="44.8143219" lon="9.040501"><ele>283.0</ele><time>2026-04-11T13:46:59.03Z</time></trkpt><trkpt lat="44.8143912" lon="9.0404535"><ele>282.66666666666663</ele><time>2026-04-11T13:47:00.03Z</time></trkpt><trkpt lat="44.8144484" lon="9.0404027"><ele>282.3333333333333</ele><time>2026-04-11T13:47:01.03Z</time></trkpt><trkpt lat="44.8145449" lon="9.040361"><ele>282.0</ele><time>2026-04-11T13:47:03.029Z</time></trkpt><trkpt lat="44.8146165" lon="9.0403178"><ele>281.6666666666667</ele><time>2026-04-11T13:47:05.03Z</time></trkpt><trkpt lat="44.8146729" lon="9.0402683"><ele>281.33333333333337</ele><time>2026-04-11T13:47:15.031Z</time></trkpt><trkpt lat="44.8147661" lon="9.0402151"><ele>281.0</ele><time>2026-04-11T13:47:17.03Z</time></trkpt><trkpt lat="44.8148302" lon="9.0401805"><ele>281.0</ele><time>2026-04-11T13:47:18.031Z</time></trkpt><trkpt lat="44.8149049" lon="9.0401386"><ele>281.0</ele><time>2026-04-11T13:47:19.031Z</time></trkpt><trkpt lat="44.8149967" lon="9.0400865"><ele>281.0</ele><time>2026-04-11T13:47:20.03Z</time></trkpt><trkpt lat="44.8151007" lon="9.0400448"><ele>281.0</ele><time>2026-04-11T13:47:21.03Z</time></trkpt><trkpt lat="44.815209" lon="9.0399873"><ele>281.0</ele><time>2026-04-11T13:47:22.031Z</time></trkpt><trkpt lat="44.8153239" lon="9.0399166"><ele>280.75</ele><time>2026-04-11T13:47:23.031Z</time></trkpt><trkpt lat="44.815451" lon="9.0398457"><ele>280.5</ele><time>2026-04-11T13:47:24.031Z</time></trkpt><trkpt lat="44.8155831" lon="9.0397681"><ele>280.25</ele><time>2026-04-11T13:47:25.03Z</time></trkpt><trkpt lat="44.8157222" lon="9.0397014"><ele>280.0</ele><time>2026-04-11T13:47:26.031Z</time></trkpt><trkpt lat="44.8158629" lon="9.0396211"><ele>279.0</ele><time>2026-04-11T13:47:27.031Z</time></trkpt><trkpt lat="44.816006" lon="9.0395409"><ele>278.0</ele><time>2026-04-11T13:47:28.031Z</time></trkpt><trkpt lat="44.8161559" lon="9.0394516"><ele>277.0</ele><time>2026-04-11T13:47:29.031Z</time></trkpt><trkpt lat="44.8163024" lon="9.0393678"><ele>277.0</ele><time>2026-04-11T13:47:30.031Z</time></trkpt><trkpt lat="44.816456" lon="9.0392791"><ele>277.0</ele><time>2026-04-11T13:47:31.031Z</time></trkpt><trkpt lat="44.8166222" lon="9.0391842"><ele>277.0</ele><time>2026-04-11T13:47:32.031Z</time></trkpt><trkpt lat="44.8167977" lon="9.0390782"><ele>277.3333333333333</ele><time>2026-04-11T13:47:33.031Z</time></trkpt><trkpt lat="44.8169785" lon="9.0389731"><ele>277.6666666666667</ele><time>2026-04-11T13:47:34.031Z</time></trkpt><trkpt lat="44.8171598" lon="9.0388723"><ele>278.0</ele><time>2026-04-11T13:47:35.031Z</time></trkpt><trkpt lat="44.8173352" lon="9.0387746"><ele>278.0</ele><time>2026-04-11T13:47:36.031Z</time></trkpt><trkpt lat="44.8174945" lon="9.0386833"><ele>278.0</ele><time>2026-04-11T13:47:37.031Z</time></trkpt><trkpt lat="44.8176452" lon="9.0385935"><ele>278.0</ele><time>2026-04-11T13:47:38.031Z</time></trkpt><trkpt lat="44.817784" lon="9.0385077"><ele>277.5</ele><time>2026-04-11T13:47:39.03Z</time></trkpt><trkpt lat="44.817915" lon="9.0384315"><ele>277.0</ele><time>2026-04-11T13:47:40.03Z</time></trkpt><trkpt lat="44.818038" lon="9.0383618"><ele>276.5</ele><time>2026-04-11T13:47:41.031Z</time></trkpt><trkpt lat="44.8181593" lon="9.0382946"><ele>276.0</ele><time>2026-04-11T13:47:42.031Z</time></trkpt><trkpt lat="44.8182864" lon="9.0382265"><ele>276.6666666666667</ele><time>2026-04-11T13:47:43.031Z</time></trkpt><trkpt lat="44.8184267" lon="9.0381536"><ele>277.33333333333337</ele><time>2026-04-11T13:47:44.031Z</time></trkpt><trkpt lat="44.8185778" lon="9.0380676"><ele>278.0</ele><time>2026-04-11T13:47:45.031Z</time></trkpt><trkpt lat="44.8187383" lon="9.0379738"><ele>278.0</ele><time>2026-04-11T13:47:46.031Z</time></trkpt><trkpt lat="44.8189045" lon="9.0378786"><ele>278.0</ele><time>2026-04-11T13:47:47.031Z</time></trkpt><trkpt lat="44.8190803" lon="9.0377791"><ele>278.0</ele><time>2026-04-11T13:47:48.031Z</time></trkpt><trkpt lat="44.8192652" lon="9.0376622"><ele>278.33333333333337</ele><time>2026-04-11T13:47:49.031Z</time></trkpt><trkpt lat="44.8194627" lon="9.0375334"><ele>278.6666666666667</ele><time>2026-04-11T13:47:50.031Z</time></trkpt><trkpt lat="44.8196637" lon="9.0373936"><ele>279.0</ele><time>2026-04-11T13:47:51.03Z</time></trkpt><trkpt lat="44.8198688" lon="9.0372446"><ele>279.0</ele><time>2026-04-11T13:47:52.03Z</time></trkpt><trkpt lat="44.8200808" lon="9.0371041"><ele>279.0</ele><time>2026-04-11T13:47:53.031Z</time></trkpt><trkpt lat="44.8203041" lon="9.0369602"><ele>276.0</ele><time>2026-04-11T13:47:54.03Z</time></trkpt><trkpt lat="44.8205328" lon="9.0368133"><ele>273.0</ele><time>2026-04-11T13:47:55.031Z</time></trkpt><trkpt lat="44.8207655" lon="9.0366653"><ele>274.5</ele><time>2026-04-11T13:47:56.031Z</time></trkpt><trkpt lat="44.8209971" lon="9.0365177"><ele>276.0</ele><time>2026-04-11T13:47:57.032Z</time></trkpt><trkpt lat="44.8212325" lon="9.0363634"><ele>276.0</ele><time>2026-04-11T13:47:58.032Z</time></trkpt><trkpt lat="44.8214745" lon="9.0362013"><ele>276.0</ele><time>2026-04-11T13:47:59.032Z</time></trkpt><trkpt lat="44.8217222" lon="9.0360233"><ele>276.0</ele><time>2026-04-11T13:48:00.032Z</time></trkpt><trkpt lat="44.8219843" lon="9.0358334"><ele>276.0</ele><time>2026-04-11T13:48:01.032Z</time></trkpt><trkpt lat="44.8222496" lon="9.035639"><ele>276.0</ele><time>2026-04-11T13:48:02.032Z</time></trkpt><trkpt lat="44.8224997" lon="9.0354501"><ele>276.0</ele><time>2026-04-11T13:48:03.032Z</time></trkpt><trkpt lat="44.8227405" lon="9.0352719"><ele>276.5</ele><time>2026-04-11T13:48:04.032Z</time></trkpt><trkpt lat="44.8229767" lon="9.0350971"><ele>277.0</ele><time>2026-04-11T13:48:05.032Z</time></trkpt><trkpt lat="44.8232148" lon="9.0349191"><ele>277.0</ele><time>2026-04-11T13:48:06.031Z</time></trkpt><trkpt lat="44.8234511" lon="9.0347326"><ele>277.0</ele><time>2026-04-11T13:48:07.032Z</time></trkpt><trkpt lat="44.8236945" lon="9.0345492"><ele>274.5</ele><time>2026-04-11T13:48:08.032Z</time></trkpt><trkpt lat="44.8239401" lon="9.0343624"><ele>272.0</ele><time>2026-04-11T13:48:09.032Z</time></trkpt><trkpt lat="44.824189" lon="9.0341727"><ele>271.5</ele><time>2026-04-11T13:48:10.032Z</time></trkpt><trkpt lat="44.8244436" lon="9.0339842"><ele>271.0</ele><time>2026-04-11T13:48:11.032Z</time></trkpt><trkpt lat="44.8247008" lon="9.0337913"><ele>271.0</ele><time>2026-04-11T13:48:12.032Z</time></trkpt><trkpt lat="44.8249486" lon="9.0336012"><ele>271.0</ele><time>2026-04-11T13:48:13.032Z</time></trkpt><trkpt lat="44.8251782" lon="9.0334191"><ele>271.0</ele><time>2026-04-11T13:48:14.032Z</time></trkpt><trkpt lat="44.8254006" lon="9.0332432"><ele>271.0</ele><time>2026-04-11T13:48:15.031Z</time></trkpt><trkpt lat="44.8256186" lon="9.0330706"><ele>271.0</ele><time>2026-04-11T13:48:16.032Z</time></trkpt><trkpt lat="44.8258373" lon="9.0329061"><ele>271.0</ele><time>2026-04-11T13:48:17.032Z</time></trkpt><trkpt lat="44.8260516" lon="9.0327411"><ele>271.0</ele><time>2026-04-11T13:48:18.031Z</time></trkpt><trkpt lat="44.8262629" lon="9.0325847"><ele>271.0</ele><time>2026-04-11T13:48:19.031Z</time></trkpt><trkpt lat="44.8264724" lon="9.0324328"><ele>271.0</ele><time>2026-04-11T13:48:20.032Z</time></trkpt><trkpt lat="44.8266734" lon="9.0322764"><ele>271.0</ele><time>2026-04-11T13:48:21.031Z</time></trkpt><trkpt lat="44.826873" lon="9.0321041"><ele>270.0</ele><time>2026-04-11T13:48:22.032Z</time></trkpt><trkpt lat="44.8270725" lon="9.0319146"><ele>269.0</ele><time>2026-04-11T13:48:23.032Z</time></trkpt><trkpt lat="44.8272684" lon="9.03171"><ele>269.5</ele><time>2026-04-11T13:48:24.032Z</time></trkpt><trkpt lat="44.8274725" lon="9.0314983"><ele>270.0</ele><time>2026-04-11T13:48:25.031Z</time></trkpt><trkpt lat="44.8276758" lon="9.0312816"><ele>270.0</ele><time>2026-04-11T13:48:26.032Z</time></trkpt><trkpt lat="44.8278813" lon="9.031061"><ele>270.0</ele><time>2026-04-11T13:48:27.032Z</time></trkpt><trkpt lat="44.828088" lon="9.0308431"><ele>270.5</ele><time>2026-04-11T13:48:28.032Z</time></trkpt><trkpt lat="44.8282921" lon="9.030628"><ele>271.0</ele><time>2026-04-11T13:48:29.032Z</time></trkpt><trkpt lat="44.8284911" lon="9.030414"><ele>269.0</ele><time>2026-04-11T13:48:30.032Z</time></trkpt><trkpt lat="44.8286891" lon="9.0301978"><ele>267.0</ele><time>2026-04-11T13:48:31.032Z</time></trkpt><trkpt lat="44.8288934" lon="9.0299796"><ele>268.0</ele><time>2026-04-11T13:48:32.032Z</time></trkpt><trkpt lat="44.829099" lon="9.0297632"><ele>269.0</ele><time>2026-04-11T13:48:33.032Z</time></trkpt><trkpt lat="44.8293099" lon="9.0295586"><ele>266.5</ele><time>2026-04-11T13:48:34.031Z</time></trkpt><trkpt lat="44.8295312" lon="9.0293623"><ele>264.0</ele><time>2026-04-11T13:48:35.032Z</time></trkpt><trkpt lat="44.8297653" lon="9.0291801"><ele>263.5</ele><time>2026-04-11T13:48:36.032Z</time></trkpt><trkpt lat="44.8300124" lon="9.0290185"><ele>263.0</ele><time>2026-04-11T13:48:37.032Z</time></trkpt><trkpt lat="44.8302709" lon="9.0288666"><ele>263.0</ele><time>2026-04-11T13:48:38.032Z</time></trkpt><trkpt lat="44.8305325" lon="9.0287246"><ele>263.0</ele><time>2026-04-11T13:48:39.031Z</time></trkpt><trkpt lat="44.8307952" lon="9.0285931"><ele>262.5</ele><time>2026-04-11T13:48:40.032Z</time></trkpt><trkpt lat="44.8310593" lon="9.0284661"><ele>262.0</ele><time>2026-04-11T13:48:41.031Z</time></trkpt><trkpt lat="44.8313181" lon="9.0283421"><ele>262.0</ele><time>2026-04-11T13:48:42.032Z</time></trkpt><trkpt lat="44.8315708" lon="9.0282196"><ele>262.0</ele><time>2026-04-11T13:48:43.031Z</time></trkpt><trkpt lat="44.831818" lon="9.0280941"><ele>262.0</ele><time>2026-04-11T13:48:44.032Z</time></trkpt><trkpt lat="44.8320658" lon="9.02797"><ele>262.0</ele><time>2026-04-11T13:48:45.033Z</time></trkpt><trkpt lat="44.8323121" lon="9.027846"><ele>262.0</ele><time>2026-04-11T13:48:46.033Z</time></trkpt><trkpt lat="44.8325603" lon="9.0277241"><ele>262.0</ele><time>2026-04-11T13:48:47.033Z</time></trkpt><trkpt lat="44.8328098" lon="9.0276009"><ele>262.5</ele><time>2026-04-11T13:48:48.032Z</time></trkpt><trkpt lat="44.8330591" lon="9.0274758"><ele>263.0</ele><time>2026-04-11T13:48:49.033Z</time></trkpt><trkpt lat="44.8333092" lon="9.0273531"><ele>263.0</ele><time>2026-04-11T13:48:50.033Z</time></trkpt><trkpt lat="44.8335606" lon="9.0272303"><ele>263.0</ele><time>2026-04-11T13:48:51.033Z</time></trkpt><trkpt lat="44.8338069" lon="9.0271073"><ele>263.0</ele><time>2026-04-11T13:48:52.033Z</time></trkpt><trkpt lat="44.8340391" lon="9.0269854"><ele>263.0</ele><time>2026-04-11T13:48:53.033Z</time></trkpt><trkpt lat="44.8342599" lon="9.0268794"><ele>262.0</ele><time>2026-04-11T13:48:54.033Z</time></trkpt><trkpt lat="44.8344676" lon="9.0267783"><ele>261.0</ele><time>2026-04-11T13:48:55.033Z</time></trkpt><trkpt lat="44.8346629" lon="9.0266846"><ele>260.0</ele><time>2026-04-11T13:48:56.033Z</time></trkpt><trkpt lat="44.8348488" lon="9.026593"><ele>260.0</ele><time>2026-04-11T13:48:57.033Z</time></trkpt><trkpt lat="44.8350304" lon="9.0265035"><ele>260.0</ele><time>2026-04-11T13:48:58.033Z</time></trkpt><trkpt lat="44.8352113" lon="9.026409"><ele>260.0</ele><time>2026-04-11T13:48:59.032Z</time></trkpt><trkpt lat="44.8353833" lon="9.026298"><ele>258.6666666666667</ele><time>2026-04-11T13:49:00.033Z</time></trkpt><trkpt lat="44.8355501" lon="9.026158"><ele>257.3333333333333</ele><time>2026-04-11T13:49:01.032Z</time></trkpt><trkpt lat="44.8357099" lon="9.0259972"><ele>256.0</ele><time>2026-04-11T13:49:02.032Z</time></trkpt><trkpt lat="44.8358668" lon="9.0258163"><ele>255.66666666666666</ele><time>2026-04-11T13:49:03.033Z</time></trkpt><trkpt lat="44.8360199" lon="9.0256263"><ele>255.33333333333331</ele><time>2026-04-11T13:49:04.032Z</time></trkpt><trkpt lat="44.8361738" lon="9.0254277"><ele>255.0</ele><time>2026-04-11T13:49:05.033Z</time></trkpt><trkpt lat="44.8363258" lon="9.0252359"><ele>255.0</ele><time>2026-04-11T13:49:06.033Z</time></trkpt><trkpt lat="44.8364871" lon="9.0250541"><ele>255.0</ele><time>2026-04-11T13:49:07.033Z</time></trkpt><trkpt lat="44.8366658" lon="9.0248797"><ele>255.0</ele><time>2026-04-11T13:49:08.033Z</time></trkpt><trkpt lat="44.8368557" lon="9.0247336"><ele>254.0</ele><time>2026-04-11T13:49:09.033Z</time></trkpt><trkpt lat="44.8370538" lon="9.0246024"><ele>253.0</ele><time>2026-04-11T13:49:10.033Z</time></trkpt><trkpt lat="44.8372568" lon="9.024478"><ele>252.0</ele><time>2026-04-11T13:49:11.033Z</time></trkpt><trkpt lat="44.8374704" lon="9.02436"><ele>253.0</ele><time>2026-04-11T13:49:12.033Z</time></trkpt><trkpt lat="44.8376847" lon="9.0242291"><ele>254.0</ele><time>2026-04-11T13:49:13.033Z</time></trkpt><trkpt lat="44.8379018" lon="9.0240962"><ele>254.0</ele><time>2026-04-11T13:49:14.033Z</time></trkpt><trkpt lat="44.8381227" lon="9.0239586"><ele>254.0</ele><time>2026-04-11T13:49:15.032Z</time></trkpt><trkpt lat="44.8383445" lon="9.0238172"><ele>251.5</ele><time>2026-04-11T13:49:16.033Z</time></trkpt><trkpt lat="44.838573" lon="9.0236737"><ele>249.0</ele><time>2026-04-11T13:49:17.033Z</time></trkpt><trkpt lat="44.8388012" lon="9.0235297"><ele>249.0</ele><time>2026-04-11T13:49:18.032Z</time></trkpt><trkpt lat="44.8390188" lon="9.0233902"><ele>249.0</ele><time>2026-04-11T13:49:19.033Z</time></trkpt><trkpt lat="44.8392217" lon="9.0232618"><ele>248.0</ele><time>2026-04-11T13:49:20.033Z</time></trkpt><trkpt lat="44.8394155" lon="9.0231443"><ele>247.0</ele><time>2026-04-11T13:49:21.033Z</time></trkpt><trkpt lat="44.8396077" lon="9.023027"><ele>246.0</ele><time>2026-04-11T13:49:22.033Z</time></trkpt><trkpt lat="44.8397942" lon="9.0228911"><ele>246.0</ele><time>2026-04-11T13:49:23.033Z</time></trkpt><trkpt lat="44.8399707" lon="9.022738"><ele>246.0</ele><time>2026-04-11T13:49:24.033Z</time></trkpt><trkpt lat="44.8401369" lon="9.0225501"><ele>246.0</ele><time>2026-04-11T13:49:25.033Z</time></trkpt><trkpt lat="44.8403035" lon="9.0223536"><ele>243.5</ele><time>2026-04-11T13:49:26.033Z</time></trkpt><trkpt lat="44.840465" lon="9.0221294"><ele>241.0</ele><time>2026-04-11T13:49:27.033Z</time></trkpt><trkpt lat="44.8406196" lon="9.0218881"><ele>241.0</ele><time>2026-04-11T13:49:28.033Z</time></trkpt><trkpt lat="44.8407679" lon="9.0216589"><ele>241.0</ele><time>2026-04-11T13:49:29.033Z</time></trkpt><trkpt lat="44.8409092" lon="9.0214451"><ele>241.0</ele><time>2026-04-11T13:49:30.033Z</time></trkpt><trkpt lat="44.8410475" lon="9.0212351"><ele>240.33333333333331</ele><time>2026-04-11T13:49:31.033Z</time></trkpt><trkpt lat="44.8411851" lon="9.0210212"><ele>239.66666666666669</ele><time>2026-04-11T13:49:32.033Z</time></trkpt><trkpt lat="44.841317" lon="9.0208178"><ele>239.0</ele><time>2026-04-11T13:49:33.034Z</time></trkpt><trkpt lat="44.8414447" lon="9.0206322"><ele>239.0</ele><time>2026-04-11T13:49:34.033Z</time></trkpt><trkpt lat="44.8415639" lon="9.0204593"><ele>239.0</ele><time>2026-04-11T13:49:35.034Z</time></trkpt><trkpt lat="44.8416752" lon="9.0202904"><ele>239.0</ele><time>2026-04-11T13:49:36.034Z</time></trkpt><trkpt lat="44.8417769" lon="9.0201144"><ele>237.33333333333334</ele><time>2026-04-11T13:49:37.033Z</time></trkpt><trkpt lat="44.8418668" lon="9.0199235"><ele>235.66666666666669</ele><time>2026-04-11T13:49:38.034Z</time></trkpt><trkpt lat="44.8419399" lon="9.0197173"><ele>234.0</ele><time>2026-04-11T13:49:39.034Z</time></trkpt><trkpt lat="44.8419974" lon="9.0195074"><ele>234.0</ele><time>2026-04-11T13:49:40.034Z</time></trkpt><trkpt lat="44.842036" lon="9.0192732"><ele>234.0</ele><time>2026-04-11T13:49:41.034Z</time></trkpt><trkpt lat="44.8420648" lon="9.0190139"><ele>234.0</ele><time>2026-04-11T13:49:42.033Z</time></trkpt><trkpt lat="44.8420943" lon="9.0187282"><ele>233.66666666666669</ele><time>2026-04-11T13:49:43.034Z</time></trkpt><trkpt lat="44.8421156" lon="9.0184174"><ele>233.33333333333334</ele><time>2026-04-11T13:49:44.034Z</time></trkpt><trkpt lat="44.8421394" lon="9.0181171"><ele>233.0</ele><time>2026-04-11T13:49:45.034Z</time></trkpt><trkpt lat="44.8421784" lon="9.0178483"><ele>233.0</ele><time>2026-04-11T13:49:46.034Z</time></trkpt><trkpt lat="44.8422368" lon="9.0175941"><ele>233.0</ele><time>2026-04-11T13:49:47.034Z</time></trkpt><trkpt lat="44.8423148" lon="9.0173473"><ele>233.0</ele><time>2026-04-11T13:49:48.034Z</time></trkpt><trkpt lat="44.8424114" lon="9.0171021"><ele>233.33333333333334</ele><time>2026-04-11T13:49:49.034Z</time></trkpt><trkpt lat="44.8425277" lon="9.0168706"><ele>233.66666666666669</ele><time>2026-04-11T13:49:50.033Z</time></trkpt><trkpt lat="44.8426675" lon="9.0166565"><ele>234.0</ele><time>2026-04-11T13:49:51.034Z</time></trkpt><trkpt lat="44.8428228" lon="9.0164548"><ele>237.0</ele><time>2026-04-11T13:49:52.034Z</time></trkpt><trkpt lat="44.8429886" lon="9.0162523"><ele>240.0</ele><time>2026-04-11T13:49:53.034Z</time></trkpt><trkpt lat="44.8431613" lon="9.016048"><ele>243.0</ele><time>2026-04-11T13:49:54.034Z</time></trkpt><trkpt lat="44.8433447" lon="9.0158295"><ele>241.5</ele><time>2026-04-11T13:49:55.034Z</time></trkpt><trkpt lat="44.8435301" lon="9.015601"><ele>240.0</ele><time>2026-04-11T13:49:56.034Z</time></trkpt><trkpt lat="44.8437197" lon="9.0153747"><ele>240.0</ele><time>2026-04-11T13:49:57.033Z</time></trkpt><trkpt lat="44.8439308" lon="9.0151632"><ele>240.0</ele><time>2026-04-11T13:49:58.034Z</time></trkpt><trkpt lat="44.8441456" lon="9.0149768"><ele>240.5</ele><time>2026-04-11T13:49:59.034Z</time></trkpt><trkpt lat="44.8443553" lon="9.0148038"><ele>241.0</ele><time>2026-04-11T13:50:00.033Z</time></trkpt><trkpt lat="44.8445534" lon="9.0146478"><ele>241.0</ele><time>2026-04-11T13:50:01.034Z</time></trkpt><trkpt lat="44.8447385" lon="9.0145095"><ele>241.0</ele><time>2026-04-11T13:50:02.034Z</time></trkpt><trkpt lat="44.8449071" lon="9.0143795"><ele>241.0</ele><time>2026-04-11T13:50:03.034Z</time></trkpt><trkpt lat="44.8450629" lon="9.0142548"><ele>239.66666666666666</ele><time>2026-04-11T13:50:04.034Z</time></trkpt><trkpt lat="44.8452118" lon="9.014117"><ele>238.33333333333331</ele><time>2026-04-11T13:50:05.034Z</time></trkpt><trkpt lat="44.8453525" lon="9.0139594"><ele>237.0</ele><time>2026-04-11T13:50:06.034Z</time></trkpt><trkpt lat="44.8454844" lon="9.01378"><ele>237.0</ele><time>2026-04-11T13:50:07.034Z</time></trkpt><trkpt lat="44.8456043" lon="9.0135823"><ele>237.0</ele><time>2026-04-11T13:50:08.033Z</time></trkpt><trkpt lat="44.8457128" lon="9.0133756"><ele>237.0</ele><time>2026-04-11T13:50:09.034Z</time></trkpt><trkpt lat="44.8458129" lon="9.0131741"><ele>237.0</ele><time>2026-04-11T13:50:10.033Z</time></trkpt><trkpt lat="44.8459104" lon="9.0129867"><ele>237.0</ele><time>2026-04-11T13:50:11.034Z</time></trkpt><trkpt lat="44.8460121" lon="9.0128097"><ele>237.0</ele><time>2026-04-11T13:50:12.034Z</time></trkpt><trkpt lat="44.8461313" lon="9.012655"><ele>237.0</ele><time>2026-04-11T13:50:13.034Z</time></trkpt><trkpt lat="44.8462634" lon="9.0125126"><ele>237.0</ele><time>2026-04-11T13:50:14.033Z</time></trkpt><trkpt lat="44.846414" lon="9.0123811"><ele>237.0</ele><time>2026-04-11T13:50:15.033Z</time></trkpt><trkpt lat="44.846571" lon="9.012264"><ele>237.0</ele><time>2026-04-11T13:50:16.034Z</time></trkpt><trkpt lat="44.8467235" lon="9.0121344"><ele>237.0</ele><time>2026-04-11T13:50:17.034Z</time></trkpt><trkpt lat="44.8468825" lon="9.0119962"><ele>237.0</ele><time>2026-04-11T13:50:18.034Z</time></trkpt><trkpt lat="44.8470465" lon="9.0118654"><ele>236.66666666666669</ele><time>2026-04-11T13:50:19.034Z</time></trkpt><trkpt lat="44.8472005" lon="9.0117162"><ele>236.33333333333334</ele><time>2026-04-11T13:50:20.034Z</time></trkpt><trkpt lat="44.8473426" lon="9.0115814"><ele>236.0</ele><time>2026-04-11T13:50:21.035Z</time></trkpt><trkpt lat="44.8474832" lon="9.0114361"><ele>235.33333333333334</ele><time>2026-04-11T13:50:22.035Z</time></trkpt><trkpt lat="44.8476179" lon="9.0112853"><ele>234.66666666666669</ele><time>2026-04-11T13:50:23.035Z</time></trkpt><trkpt lat="44.847754" lon="9.0111239"><ele>234.0</ele><time>2026-04-11T13:50:24.035Z</time></trkpt><trkpt lat="44.8478911" lon="9.0109675"><ele>234.33333333333331</ele><time>2026-04-11T13:50:25.035Z</time></trkpt><trkpt lat="44.848033" lon="9.0108162"><ele>234.66666666666666</ele><time>2026-04-11T13:50:26.035Z</time></trkpt><trkpt lat="44.8481737" lon="9.0106677"><ele>235.0</ele><time>2026-04-11T13:50:27.035Z</time></trkpt><trkpt lat="44.8483156" lon="9.0105104"><ele>235.0</ele><time>2026-04-11T13:50:28.035Z</time></trkpt><trkpt lat="44.8484573" lon="9.0103511"><ele>235.0</ele><time>2026-04-11T13:50:29.035Z</time></trkpt><trkpt lat="44.8486" lon="9.0101911"><ele>235.0</ele><time>2026-04-11T13:50:30.034Z</time></trkpt><trkpt lat="44.8487398" lon="9.0100264"><ele>233.33333333333331</ele><time>2026-04-11T13:50:31.035Z</time></trkpt><trkpt lat="44.848881" lon="9.0098612"><ele>231.66666666666669</ele><time>2026-04-11T13:50:32.035Z</time></trkpt><trkpt lat="44.8490259" lon="9.0096918"><ele>230.0</ele><time>2026-04-11T13:50:33.035Z</time></trkpt><trkpt lat="44.8491726" lon="9.0095242"><ele>230.0</ele><time>2026-04-11T13:50:34.035Z</time></trkpt><trkpt lat="44.8493189" lon="9.0093548"><ele>230.0</ele><time>2026-04-11T13:50:35.035Z</time></trkpt><trkpt lat="44.8494658" lon="9.0091858"><ele>230.0</ele><time>2026-04-11T13:50:36.035Z</time></trkpt><trkpt lat="44.849615" lon="9.009012"><ele>230.0</ele><time>2026-04-11T13:50:37.035Z</time></trkpt><trkpt lat="44.849767" lon="9.0088401"><ele>230.0</ele><time>2026-04-11T13:50:38.035Z</time></trkpt><trkpt lat="44.8499209" lon="9.008665"><ele>230.0</ele><time>2026-04-11T13:50:39.035Z</time></trkpt><trkpt lat="44.8500729" lon="9.0084879"><ele>230.0</ele><time>2026-04-11T13:50:40.034Z</time></trkpt><trkpt lat="44.8502234" lon="9.0083118"><ele>230.0</ele><time>2026-04-11T13:50:41.035Z</time></trkpt><trkpt lat="44.8503753" lon="9.0081471"><ele>230.0</ele><time>2026-04-11T13:50:42.035Z</time></trkpt><trkpt lat="44.8505335" lon="9.0079903"><ele>230.0</ele><time>2026-04-11T13:50:43.035Z</time></trkpt><trkpt lat="44.8507021" lon="9.0078562"><ele>230.0</ele><time>2026-04-11T13:50:44.034Z</time></trkpt><trkpt lat="44.8508833" lon="9.0077379"><ele>230.0</ele><time>2026-04-11T13:50:45.035Z</time></trkpt><trkpt lat="44.8510651" lon="9.007637"><ele>231.33333333333334</ele><time>2026-04-11T13:50:46.035Z</time></trkpt><trkpt lat="44.851246" lon="9.0075468"><ele>232.66666666666669</ele><time>2026-04-11T13:50:47.035Z</time></trkpt><trkpt lat="44.8514208" lon="9.0074617"><ele>234.0</ele><time>2026-04-11T13:50:48.035Z</time></trkpt><trkpt lat="44.8515918" lon="9.0073822"><ele>234.0</ele><time>2026-04-11T13:50:49.035Z</time></trkpt><trkpt lat="44.8517626" lon="9.0073017"><ele>234.0</ele><time>2026-04-11T13:50:50.035Z</time></trkpt><trkpt lat="44.8519283" lon="9.0072263"><ele>234.0</ele><time>2026-04-11T13:50:51.035Z</time></trkpt><trkpt lat="44.8520936" lon="9.0071487"><ele>232.66666666666669</ele><time>2026-04-11T13:50:52.035Z</time></trkpt><trkpt lat="44.8522645" lon="9.007072"><ele>231.33333333333334</ele><time>2026-04-11T13:50:53.035Z</time></trkpt><trkpt lat="44.8524343" lon="9.0069923"><ele>230.0</ele><time>2026-04-11T13:50:54.035Z</time></trkpt><trkpt lat="44.8526059" lon="9.0069096"><ele>228.33333333333334</ele><time>2026-04-11T13:50:55.035Z</time></trkpt><trkpt lat="44.8527757" lon="9.006831"><ele>226.66666666666669</ele><time>2026-04-11T13:50:56.034Z</time></trkpt><trkpt lat="44.8529414" lon="9.0067556"><ele>225.0</ele><time>2026-04-11T13:50:57.034Z</time></trkpt><trkpt lat="44.8531036" lon="9.0066855"><ele>225.66666666666669</ele><time>2026-04-11T13:50:58.035Z</time></trkpt><trkpt lat="44.8532655" lon="9.0066131"><ele>226.33333333333334</ele><time>2026-04-11T13:50:59.035Z</time></trkpt><trkpt lat="44.8534241" lon="9.0065389"><ele>227.0</ele><time>2026-04-11T13:51:00.035Z</time></trkpt><trkpt lat="44.8535763" lon="9.0064648"><ele>227.0</ele><time>2026-04-11T13:51:01.034Z</time></trkpt><trkpt lat="44.8537217" lon="9.0063911"><ele>227.0</ele><time>2026-04-11T13:51:02.034Z</time></trkpt><trkpt lat="44.8538554" lon="9.0063315"><ele>227.0</ele><time>2026-04-11T13:51:03.035Z</time></trkpt><trkpt lat="44.8539774" lon="9.0062783"><ele>227.0</ele><time>2026-04-11T13:51:04.035Z</time></trkpt><trkpt lat="44.8540917" lon="9.0062278"><ele>227.0</ele><time>2026-04-11T13:51:05.034Z</time></trkpt><trkpt lat="44.8542044" lon="9.0061762"><ele>227.0</ele><time>2026-04-11T13:51:06.035Z</time></trkpt><trkpt lat="44.8543171" lon="9.0061263"><ele>227.0</ele><time>2026-04-11T13:51:07.035Z</time></trkpt><trkpt lat="44.8544279" lon="9.0060734"><ele>227.0</ele><time>2026-04-11T13:51:08.035Z</time></trkpt><trkpt lat="44.8545388" lon="9.0060135"><ele>227.0</ele><time>2026-04-11T13:51:09.036Z</time></trkpt><trkpt lat="44.8546514" lon="9.005957"><ele>227.0</ele><time>2026-04-11T13:51:10.036Z</time></trkpt><trkpt lat="44.8547643" lon="9.0059061"><ele>227.0</ele><time>2026-04-11T13:51:11.036Z</time></trkpt><trkpt lat="44.8548699" lon="9.0058632"><ele>227.0</ele><time>2026-04-11T13:51:12.036Z</time></trkpt><trkpt lat="44.8549614" lon="9.0058308"><ele>227.0</ele><time>2026-04-11T13:51:13.036Z</time></trkpt><trkpt lat="44.8550282" lon="9.0058073"><ele>227.00000000000003</ele><time>2026-04-11T13:51:14.036Z</time></trkpt><trkpt lat="44.8551095" lon="9.0057724"><ele>227.0</ele><time>2026-04-11T13:51:16.036Z</time></trkpt><trkpt lat="44.8551831" lon="9.0057365"><ele>227.0</ele><time>2026-04-11T13:51:19.036Z</time></trkpt><trkpt lat="44.85531" lon="9.0056869"><ele>227.0</ele><time>2026-04-11T13:51:46.035Z</time></trkpt><trkpt lat="44.8553732" lon="9.0056485"><ele>227.00000000000003</ele><time>2026-04-11T13:51:47.035Z</time></trkpt><trkpt lat="44.8554407" lon="9.0056002"><ele>227.0</ele><time>2026-04-11T13:51:48.036Z</time></trkpt><trkpt lat="44.8555439" lon="9.0055521"><ele>227.0</ele><time>2026-04-11T13:51:49.036Z</time></trkpt><trkpt lat="44.8556417" lon="9.0055028"><ele>227.0</ele><time>2026-04-11T13:51:50.036Z</time></trkpt><trkpt lat="44.8557532" lon="9.0054556"><ele>227.0</ele><time>2026-04-11T13:51:51.035Z</time></trkpt><trkpt lat="44.8558647" lon="9.0054062"><ele>227.0</ele><time>2026-04-11T13:51:52.036Z</time></trkpt><trkpt lat="44.8559777" lon="9.0053527"><ele>225.75</ele><time>2026-04-11T13:51:53.035Z</time></trkpt><trkpt lat="44.8561169" lon="9.0053233"><ele>224.5</ele><time>2026-04-11T13:51:54.035Z</time></trkpt><trkpt lat="44.8562454" lon="9.0052547"><ele>223.25</ele><time>2026-04-11T13:51:55.035Z</time></trkpt><trkpt lat="44.8563646" lon="9.0051738"><ele>222.0</ele><time>2026-04-11T13:51:56.036Z</time></trkpt><trkpt lat="44.8564892" lon="9.0050978"><ele>222.0</ele><time>2026-04-11T13:51:57.036Z</time></trkpt><trkpt lat="44.8566085" lon="9.0050052"><ele>222.0</ele><time>2026-04-11T13:51:58.036Z</time></trkpt><trkpt lat="44.8567329" lon="9.0048923"><ele>222.0</ele><time>2026-04-11T13:51:59.036Z</time></trkpt><trkpt lat="44.8568632" lon="9.0047928"><ele>222.0</ele><time>2026-04-11T13:52:00.036Z</time></trkpt><trkpt lat="44.8570018" lon="9.0047145"><ele>229.0</ele><time>2026-04-11T13:52:01.036Z</time></trkpt><trkpt lat="44.8571499" lon="9.0046772"><ele>236.0</ele><time>2026-04-11T13:52:02.035Z</time></trkpt><trkpt lat="44.857305" lon="9.0046703"><ele>243.0</ele><time>2026-04-11T13:52:03.035Z</time></trkpt><trkpt lat="44.8574597" lon="9.004702"><ele>243.33333333333331</ele><time>2026-04-11T13:52:04.036Z</time></trkpt><trkpt lat="44.8576195" lon="9.0047507"><ele>243.66666666666666</ele><time>2026-04-11T13:52:05.035Z</time></trkpt><trkpt lat="44.8577801" lon="9.0047962"><ele>244.0</ele><time>2026-04-11T13:52:06.036Z</time></trkpt><trkpt lat="44.8579335" lon="9.0048362"><ele>244.0</ele><time>2026-04-11T13:52:07.035Z</time></trkpt><trkpt lat="44.8580818" lon="9.0048648"><ele>244.0</ele><time>2026-04-11T13:52:08.036Z</time></trkpt><trkpt lat="44.8582337" lon="9.0048723"><ele>244.0</ele><time>2026-04-11T13:52:09.036Z</time></trkpt><trkpt lat="44.8583919" lon="9.0048568"><ele>238.0</ele><time>2026-04-11T13:52:10.036Z</time></trkpt><trkpt lat="44.8585526" lon="9.0048237"><ele>232.0</ele><time>2026-04-11T13:52:11.036Z</time></trkpt><trkpt lat="44.8587167" lon="9.0047746"><ele>226.0</ele><time>2026-04-11T13:52:12.036Z</time></trkpt><trkpt lat="44.8588799" lon="9.0047088"><ele>226.0</ele><time>2026-04-11T13:52:13.036Z</time></trkpt><trkpt lat="44.8590407" lon="9.0046254"><ele>226.0</ele><time>2026-04-11T13:52:14.035Z</time></trkpt><trkpt lat="44.8591946" lon="9.0045359"><ele>226.0</ele><time>2026-04-11T13:52:15.036Z</time></trkpt><trkpt lat="44.8593426" lon="9.0044392"><ele>223.66666666666666</ele><time>2026-04-11T13:52:16.036Z</time></trkpt><trkpt lat="44.8594794" lon="9.0043156"><ele>221.33333333333331</ele><time>2026-04-11T13:52:17.036Z</time></trkpt><trkpt lat="44.8596069" lon="9.0041731"><ele>219.0</ele><time>2026-04-11T13:52:18.036Z</time></trkpt><trkpt lat="44.85973" lon="9.0040012"><ele>219.0</ele><time>2026-04-11T13:52:19.036Z</time></trkpt><trkpt lat="44.8598467" lon="9.0038039"><ele>219.0</ele><time>2026-04-11T13:52:20.037Z</time></trkpt><trkpt lat="44.8599461" lon="9.0035724"><ele>219.0</ele><time>2026-04-11T13:52:21.037Z</time></trkpt><trkpt lat="44.8600549" lon="9.0033206"><ele>216.66666666666669</ele><time>2026-04-11T13:52:22.037Z</time></trkpt><trkpt lat="44.8601679" lon="9.0030588"><ele>214.33333333333334</ele><time>2026-04-11T13:52:23.037Z</time></trkpt><trkpt lat="44.8602886" lon="9.0027852"><ele>212.0</ele><time>2026-04-11T13:52:24.037Z</time></trkpt><trkpt lat="44.8604083" lon="9.0025077"><ele>213.0</ele><time>2026-04-11T13:52:25.036Z</time></trkpt><trkpt lat="44.8605326" lon="9.0022146"><ele>214.0</ele><time>2026-04-11T13:52:26.037Z</time></trkpt><trkpt lat="44.8606642" lon="9.0019059"><ele>218.0</ele><time>2026-04-11T13:52:27.036Z</time></trkpt><trkpt lat="44.8607967" lon="9.0015928"><ele>222.0</ele><time>2026-04-11T13:52:28.037Z</time></trkpt><trkpt lat="44.8609277" lon="9.0012946"><ele>220.33333333333331</ele><time>2026-04-11T13:52:29.037Z</time></trkpt><trkpt lat="44.8610487" lon="9.0010248"><ele>218.66666666666666</ele><time>2026-04-11T13:52:30.037Z</time></trkpt><trkpt lat="44.861163" lon="9.0007739"><ele>217.0</ele><time>2026-04-11T13:52:31.037Z</time></trkpt><trkpt lat="44.8612678" lon="9.0005443"><ele>217.0</ele><time>2026-04-11T13:52:32.037Z</time></trkpt><trkpt lat="44.8613732" lon="9.0003244"><ele>217.0</ele><time>2026-04-11T13:52:33.037Z</time></trkpt><trkpt lat="44.8614875" lon="9.0001214"><ele>217.0</ele><time>2026-04-11T13:52:34.036Z</time></trkpt><trkpt lat="44.8616134" lon="8.9999436"><ele>217.0</ele><time>2026-04-11T13:52:35.036Z</time></trkpt><trkpt lat="44.8617509" lon="8.9998009"><ele>217.0</ele><time>2026-04-11T13:52:36.036Z</time></trkpt><trkpt lat="44.8618947" lon="8.9996857"><ele>217.0</ele><time>2026-04-11T13:52:37.037Z</time></trkpt><trkpt lat="44.8620577" lon="8.9996"><ele>216.33333333333331</ele><time>2026-04-11T13:52:38.037Z</time></trkpt><trkpt lat="44.8622344" lon="8.9995337"><ele>215.66666666666669</ele><time>2026-04-11T13:52:39.037Z</time></trkpt><trkpt lat="44.8624286" lon="8.9994968"><ele>215.0</ele><time>2026-04-11T13:52:40.036Z</time></trkpt><trkpt lat="44.8626273" lon="8.9994796"><ele>212.66666666666669</ele><time>2026-04-11T13:52:41.037Z</time></trkpt><trkpt lat="44.8628227" lon="8.9994755"><ele>210.33333333333331</ele><time>2026-04-11T13:52:42.037Z</time></trkpt><trkpt lat="44.8630164" lon="8.9994484"><ele>208.0</ele><time>2026-04-11T13:52:43.037Z</time></trkpt><trkpt lat="44.8632096" lon="8.9994002"><ele>208.0</ele><time>2026-04-11T13:52:44.037Z</time></trkpt><trkpt lat="44.8634041" lon="8.9993114"><ele>208.0</ele><time>2026-04-11T13:52:45.036Z</time></trkpt><trkpt lat="44.8635941" lon="8.9991894"><ele>208.0</ele><time>2026-04-11T13:52:46.037Z</time></trkpt><trkpt lat="44.8637815" lon="8.9990423"><ele>208.0</ele><time>2026-04-11T13:52:47.037Z</time></trkpt><trkpt lat="44.8639689" lon="8.9988733"><ele>208.0</ele><time>2026-04-11T13:52:48.037Z</time></trkpt><trkpt lat="44.8641545" lon="8.9986797"><ele>208.5</ele><time>2026-04-11T13:52:49.036Z</time></trkpt><trkpt lat="44.8643402" lon="8.9984795"><ele>209.0</ele><time>2026-04-11T13:52:50.037Z</time></trkpt><trkpt lat="44.8645319" lon="8.9982844"><ele>209.5</ele><time>2026-04-11T13:52:51.037Z</time></trkpt><trkpt lat="44.8647283" lon="8.9980839"><ele>210.0</ele><time>2026-04-11T13:52:52.037Z</time></trkpt><trkpt lat="44.8649293" lon="8.9978856"><ele>208.0</ele><time>2026-04-11T13:52:53.037Z</time></trkpt><trkpt lat="44.8651307" lon="8.9976874"><ele>206.0</ele><time>2026-04-11T13:52:54.037Z</time></trkpt><trkpt lat="44.8653323" lon="8.9974893"><ele>205.5</ele><time>2026-04-11T13:52:55.037Z</time></trkpt><trkpt lat="44.8655316" lon="8.9972925"><ele>205.0</ele><time>2026-04-11T13:52:56.037Z</time></trkpt><trkpt lat="44.8657064" lon="8.9971146"><ele>205.0</ele><time>2026-04-11T13:52:57.037Z</time></trkpt><trkpt lat="44.8658734" lon="8.99695"><ele>205.0</ele><time>2026-04-11T13:52:58.037Z</time></trkpt><trkpt lat="44.8660535" lon="8.9968128"><ele>205.0</ele><time>2026-04-11T13:52:59.036Z</time></trkpt><trkpt lat="44.8662511" lon="8.9967077"><ele>206.0</ele><time>2026-04-11T13:53:00.036Z</time></trkpt><trkpt lat="44.8664565" lon="8.996633"><ele>207.0</ele><time>2026-04-11T13:53:01.037Z</time></trkpt><trkpt lat="44.8666614" lon="8.9965817"><ele>208.0</ele><time>2026-04-11T13:53:02.037Z</time></trkpt><trkpt lat="44.8668626" lon="8.9965374"><ele>208.0</ele><time>2026-04-11T13:53:03.037Z</time></trkpt><trkpt lat="44.8670583" lon="8.9964882"><ele>208.0</ele><time>2026-04-11T13:53:04.036Z</time></trkpt><trkpt lat="44.8672467" lon="8.9964426"><ele>208.0</ele><time>2026-04-11T13:53:05.037Z</time></trkpt><trkpt lat="44.8674208" lon="8.9963994"><ele>208.0</ele><time>2026-04-11T13:53:06.037Z</time></trkpt><trkpt lat="44.8675884" lon="8.9963614"><ele>208.0</ele><time>2026-04-11T13:53:07.036Z</time></trkpt><trkpt lat="44.8677517" lon="8.9963268"><ele>208.0</ele><time>2026-04-11T13:53:08.038Z</time></trkpt><trkpt lat="44.8679185" lon="8.9962935"><ele>207.66666666666666</ele><time>2026-04-11T13:53:09.038Z</time></trkpt><trkpt lat="44.8680777" lon="8.9962384"><ele>207.33333333333331</ele><time>2026-04-11T13:53:10.038Z</time></trkpt><trkpt lat="44.8682353" lon="8.9961756"><ele>207.0</ele><time>2026-04-11T13:53:11.038Z</time></trkpt><trkpt lat="44.8683909" lon="8.9961064"><ele>206.0</ele><time>2026-04-11T13:53:12.038Z</time></trkpt><trkpt lat="44.8685431" lon="8.9960297"><ele>205.0</ele><time>2026-04-11T13:53:13.037Z</time></trkpt><trkpt lat="44.8686949" lon="8.995949"><ele>204.0</ele><time>2026-04-11T13:53:14.038Z</time></trkpt><trkpt lat="44.8688467" lon="8.9958675"><ele>205.33333333333331</ele><time>2026-04-11T13:53:15.038Z</time></trkpt><trkpt lat="44.8690033" lon="8.9957858"><ele>206.66666666666666</ele><time>2026-04-11T13:53:16.038Z</time></trkpt><trkpt lat="44.8691701" lon="8.9957001"><ele>208.0</ele><time>2026-04-11T13:53:17.038Z</time></trkpt><trkpt lat="44.8693509" lon="8.9956096"><ele>208.0</ele><time>2026-04-11T13:53:18.038Z</time></trkpt><trkpt lat="44.8695446" lon="8.9955193"><ele>208.0</ele><time>2026-04-11T13:53:19.038Z</time></trkpt><trkpt lat="44.869744" lon="8.9954265"><ele>208.0</ele><time>2026-04-11T13:53:20.038Z</time></trkpt><trkpt lat="44.8699492" lon="8.9953358"><ele>206.66666666666666</ele><time>2026-04-11T13:53:21.038Z</time></trkpt><trkpt lat="44.8701558" lon="8.995249"><ele>205.33333333333331</ele><time>2026-04-11T13:53:22.037Z</time></trkpt><trkpt lat="44.8703665" lon="8.9951628"><ele>204.0</ele><time>2026-04-11T13:53:23.037Z</time></trkpt><trkpt lat="44.8705823" lon="8.9950753"><ele>205.5</ele><time>2026-04-11T13:53:24.038Z</time></trkpt><trkpt lat="44.8708023" lon="8.9949851"><ele>207.0</ele><time>2026-04-11T13:53:25.038Z</time></trkpt><trkpt lat="44.8710263" lon="8.9948951"><ele>207.0</ele><time>2026-04-11T13:53:26.038Z</time></trkpt><trkpt lat="44.871248" lon="8.9948017"><ele>207.0</ele><time>2026-04-11T13:53:27.038Z</time></trkpt><trkpt lat="44.8714682" lon="8.9946937"><ele>207.0</ele><time>2026-04-11T13:53:28.037Z</time></trkpt><trkpt lat="44.871689" lon="8.9945643"><ele>207.0</ele><time>2026-04-11T13:53:29.038Z</time></trkpt><trkpt lat="44.8719118" lon="8.9944221"><ele>206.5</ele><time>2026-04-11T13:53:30.038Z</time></trkpt><trkpt lat="44.8721347" lon="8.9942755"><ele>206.0</ele><time>2026-04-11T13:53:31.038Z</time></trkpt><trkpt lat="44.8723528" lon="8.9941253"><ele>206.0</ele><time>2026-04-11T13:53:32.038Z</time></trkpt><trkpt lat="44.8725567" lon="8.9939844"><ele>206.0</ele><time>2026-04-11T13:53:33.038Z</time></trkpt><trkpt lat="44.8727512" lon="8.9938601"><ele>206.0</ele><time>2026-04-11T13:53:34.038Z</time></trkpt><trkpt lat="44.8729449" lon="8.993753"><ele>204.66666666666669</ele><time>2026-04-11T13:53:35.038Z</time></trkpt><trkpt lat="44.8731419" lon="8.9936645"><ele>203.33333333333331</ele><time>2026-04-11T13:53:36.037Z</time></trkpt><trkpt lat="44.8733434" lon="8.9935809"><ele>202.0</ele><time>2026-04-11T13:53:37.037Z</time></trkpt><trkpt lat="44.8735471" lon="8.993496"><ele>201.66666666666666</ele><time>2026-04-11T13:53:38.037Z</time></trkpt><trkpt lat="44.8737499" lon="8.9934146"><ele>201.33333333333331</ele><time>2026-04-11T13:53:39.038Z</time></trkpt><trkpt lat="44.8739528" lon="8.993338"><ele>201.0</ele><time>2026-04-11T13:53:40.038Z</time></trkpt><trkpt lat="44.8741602" lon="8.9932903"><ele>200.66666666666669</ele><time>2026-04-11T13:53:41.038Z</time></trkpt><trkpt lat="44.8743722" lon="8.9932863"><ele>200.33333333333334</ele><time>2026-04-11T13:53:42.037Z</time></trkpt><trkpt lat="44.8745789" lon="8.9933172"><ele>200.0</ele><time>2026-04-11T13:53:43.038Z</time></trkpt><trkpt lat="44.8747821" lon="8.9933753"><ele>198.66666666666669</ele><time>2026-04-11T13:53:44.038Z</time></trkpt><trkpt lat="44.8749642" lon="8.9934477"><ele>197.33333333333331</ele><time>2026-04-11T13:53:45.038Z</time></trkpt><trkpt lat="44.8751452" lon="8.9935163"><ele>196.0</ele><time>2026-04-11T13:53:46.038Z</time></trkpt><trkpt lat="44.8753256" lon="8.9935625"><ele>195.33333333333331</ele><time>2026-04-11T13:53:47.038Z</time></trkpt><trkpt lat="44.8755136" lon="8.9935639"><ele>194.66666666666669</ele><time>2026-04-11T13:53:48.037Z</time></trkpt><trkpt lat="44.8757126" lon="8.9935353"><ele>194.0</ele><time>2026-04-11T13:53:49.038Z</time></trkpt><trkpt lat="44.8759145" lon="8.9934859"><ele>194.0</ele><time>2026-04-11T13:53:50.038Z</time></trkpt><trkpt lat="44.8761158" lon="8.9934276"><ele>194.0</ele><time>2026-04-11T13:53:51.038Z</time></trkpt><trkpt lat="44.8763303" lon="8.9933813"><ele>194.0</ele><time>2026-04-11T13:53:52.038Z</time></trkpt><trkpt lat="44.8765452" lon="8.9933317"><ele>194.0</ele><time>2026-04-11T13:53:53.037Z</time></trkpt><trkpt lat="44.8767498" lon="8.9932701"><ele>194.0</ele><time>2026-04-11T13:53:54.038Z</time></trkpt><trkpt lat="44.8769391" lon="8.9932047"><ele>194.0</ele><time>2026-04-11T13:53:55.038Z</time></trkpt><trkpt lat="44.8771155" lon="8.993123"><ele>194.0</ele><time>2026-04-11T13:53:56.037Z</time></trkpt><trkpt lat="44.8772804" lon="8.9930128"><ele>194.0</ele><time>2026-04-11T13:53:57.039Z</time></trkpt><trkpt lat="44.8774422" lon="8.9928587"><ele>194.0</ele><time>2026-04-11T13:53:58.039Z</time></trkpt><trkpt lat="44.8775911" lon="8.9926751"><ele>193.0</ele><time>2026-04-11T13:53:59.039Z</time></trkpt><trkpt lat="44.8777327" lon="8.9924688"><ele>192.0</ele><time>2026-04-11T13:54:00.039Z</time></trkpt><trkpt lat="44.8778662" lon="8.9922479"><ele>191.0</ele><time>2026-04-11T13:54:01.039Z</time></trkpt><trkpt lat="44.877995" lon="8.9920092"><ele>191.0</ele><time>2026-04-11T13:54:02.039Z</time></trkpt><trkpt lat="44.8781248" lon="8.9917701"><ele>191.0</ele><time>2026-04-11T13:54:03.039Z</time></trkpt><trkpt lat="44.8782563" lon="8.9915302"><ele>191.0</ele><time>2026-04-11T13:54:04.039Z</time></trkpt><trkpt lat="44.8783892" lon="8.9912881"><ele>190.33333333333331</ele><time>2026-04-11T13:54:05.039Z</time></trkpt><trkpt lat="44.8785198" lon="8.9910411"><ele>189.66666666666666</ele><time>2026-04-11T13:54:06.038Z</time></trkpt><trkpt lat="44.8786499" lon="8.9907917"><ele>189.0</ele><time>2026-04-11T13:54:07.039Z</time></trkpt><trkpt lat="44.878785" lon="8.9905484"><ele>189.0</ele><time>2026-04-11T13:54:08.039Z</time></trkpt><trkpt lat="44.878943" lon="8.9903253"><ele>189.0</ele><time>2026-04-11T13:54:09.039Z</time></trkpt><trkpt lat="44.879121" lon="8.9901282"><ele>188.0</ele><time>2026-04-11T13:54:10.039Z</time></trkpt><trkpt lat="44.8793201" lon="8.989946"><ele>187.0</ele><time>2026-04-11T13:54:11.039Z</time></trkpt><trkpt lat="44.8795352" lon="8.9897882"><ele>187.0</ele><time>2026-04-11T13:54:12.038Z</time></trkpt><trkpt lat="44.8797637" lon="8.9896569"><ele>187.0</ele><time>2026-04-11T13:54:13.039Z</time></trkpt><trkpt lat="44.8800031" lon="8.9895383"><ele>186.5</ele><time>2026-04-11T13:54:14.039Z</time></trkpt><trkpt lat="44.8802529" lon="8.9894187"><ele>186.0</ele><time>2026-04-11T13:54:15.039Z</time></trkpt><trkpt lat="44.8804991" lon="8.9892962"><ele>186.0</ele><time>2026-04-11T13:54:16.039Z</time></trkpt><trkpt lat="44.8807318" lon="8.9891792"><ele>186.0</ele><time>2026-04-11T13:54:17.039Z</time></trkpt><trkpt lat="44.8809486" lon="8.9890671"><ele>185.66666666666666</ele><time>2026-04-11T13:54:18.039Z</time></trkpt><trkpt lat="44.8811508" lon="8.9889361"><ele>185.33333333333331</ele><time>2026-04-11T13:54:19.039Z</time></trkpt><trkpt lat="44.8813362" lon="8.9887763"><ele>185.0</ele><time>2026-04-11T13:54:20.039Z</time></trkpt><trkpt lat="44.8814939" lon="8.9886071"><ele>185.0</ele><time>2026-04-11T13:54:21.039Z</time></trkpt><trkpt lat="44.8816331" lon="8.9884281"><ele>185.0</ele><time>2026-04-11T13:54:22.039Z</time></trkpt><trkpt lat="44.881751" lon="8.9882443"><ele>185.0</ele><time>2026-04-11T13:54:23.039Z</time></trkpt><trkpt lat="44.8818605" lon="8.9880612"><ele>185.25</ele><time>2026-04-11T13:54:24.039Z</time></trkpt><trkpt lat="44.8819632" lon="8.9878926"><ele>185.5</ele><time>2026-04-11T13:54:25.039Z</time></trkpt><trkpt lat="44.8820567" lon="8.9877404"><ele>185.75</ele><time>2026-04-11T13:54:26.038Z</time></trkpt><trkpt lat="44.8821436" lon="8.9876007"><ele>186.0</ele><time>2026-04-11T13:54:27.039Z</time></trkpt><trkpt lat="44.8822245" lon="8.9874754"><ele>186.0</ele><time>2026-04-11T13:54:28.038Z</time></trkpt><trkpt lat="44.8823011" lon="8.9873627"><ele>186.0</ele><time>2026-04-11T13:54:29.039Z</time></trkpt><trkpt lat="44.8823737" lon="8.9872495"><ele>186.0</ele><time>2026-04-11T13:54:30.039Z</time></trkpt><trkpt lat="44.8824419" lon="8.9871293"><ele>186.0</ele><time>2026-04-11T13:54:31.039Z</time></trkpt><trkpt lat="44.8825091" lon="8.9870092"><ele>186.0</ele><time>2026-04-11T13:54:32.039Z</time></trkpt><trkpt lat="44.8825784" lon="8.9868844"><ele>185.0</ele><time>2026-04-11T13:54:33.038Z</time></trkpt><trkpt lat="44.8826543" lon="8.9867587"><ele>184.0</ele><time>2026-04-11T13:54:34.039Z</time></trkpt><trkpt lat="44.8827279" lon="8.9866369"><ele>183.0</ele><time>2026-04-11T13:54:35.039Z</time></trkpt><trkpt lat="44.8828024" lon="8.9865123"><ele>182.0</ele><time>2026-04-11T13:54:36.038Z</time></trkpt><trkpt lat="44.8828777" lon="8.9863885"><ele>182.0</ele><time>2026-04-11T13:54:37.038Z</time></trkpt><trkpt lat="44.8829547" lon="8.9862692"><ele>182.0</ele><time>2026-04-11T13:54:38.039Z</time></trkpt><trkpt lat="44.8830321" lon="8.9861357"><ele>182.0</ele><time>2026-04-11T13:54:39.039Z</time></trkpt><trkpt lat="44.8831189" lon="8.9859998"><ele>182.0</ele><time>2026-04-11T13:54:40.039Z</time></trkpt><trkpt lat="44.883202" lon="8.9858524"><ele>181.66666666666666</ele><time>2026-04-11T13:54:41.038Z</time></trkpt><trkpt lat="44.8832931" lon="8.9856996"><ele>181.33333333333334</ele><time>2026-04-11T13:54:42.039Z</time></trkpt><trkpt lat="44.8833947" lon="8.9855474"><ele>181.0</ele><time>2026-04-11T13:54:43.039Z</time></trkpt><trkpt lat="44.8835088" lon="8.9853776"><ele>181.0</ele><time>2026-04-11T13:54:44.039Z</time></trkpt><trkpt lat="44.8836595" lon="8.9852001"><ele>181.0</ele><time>2026-04-11T13:54:45.04Z</time></trkpt><trkpt lat="44.883846" lon="8.9850052"><ele>181.0</ele><time>2026-04-11T13:54:46.04Z</time></trkpt><trkpt lat="44.8840275" lon="8.9848265"><ele>181.33333333333334</ele><time>2026-04-11T13:54:47.04Z</time></trkpt><trkpt lat="44.8841926" lon="8.9846641"><ele>181.66666666666666</ele><time>2026-04-11T13:54:48.04Z</time></trkpt><trkpt lat="44.8843475" lon="8.9845147"><ele>182.0</ele><time>2026-04-11T13:54:49.039Z</time></trkpt><trkpt lat="44.8844965" lon="8.9843732"><ele>182.33333333333331</ele><time>2026-04-11T13:54:50.04Z</time></trkpt><trkpt lat="44.8846344" lon="8.9842495"><ele>182.66666666666666</ele><time>2026-04-11T13:54:51.04Z</time></trkpt><trkpt lat="44.8847675" lon="8.9841342"><ele>183.0</ele><time>2026-04-11T13:54:52.04Z</time></trkpt><trkpt lat="44.8848975" lon="8.9840329"><ele>183.0</ele><time>2026-04-11T13:54:53.04Z</time></trkpt><trkpt lat="44.8850075" lon="8.9839217"><ele>183.0</ele><time>2026-04-11T13:54:54.04Z</time></trkpt><trkpt lat="44.8851282" lon="8.9838096"><ele>183.0</ele><time>2026-04-11T13:54:55.039Z</time></trkpt><trkpt lat="44.8852449" lon="8.983699"><ele>183.0</ele><time>2026-04-11T13:54:56.04Z</time></trkpt><trkpt lat="44.8853699" lon="8.983594"><ele>182.75</ele><time>2026-04-11T13:54:57.04Z</time></trkpt><trkpt lat="44.8854758" lon="8.9834874"><ele>182.5</ele><time>2026-04-11T13:54:58.04Z</time></trkpt><trkpt lat="44.8855711" lon="8.9833899"><ele>182.25</ele><time>2026-04-11T13:54:59.039Z</time></trkpt><trkpt lat="44.8856607" lon="8.9833015"><ele>182.0</ele><time>2026-04-11T13:55:00.04Z</time></trkpt><trkpt lat="44.885749" lon="8.9832261"><ele>182.0</ele><time>2026-04-11T13:55:01.04Z</time></trkpt><trkpt lat="44.8858285" lon="8.9831559"><ele>182.0</ele><time>2026-04-11T13:55:02.04Z</time></trkpt><trkpt lat="44.8858928" lon="8.9830908"><ele>182.0</ele><time>2026-04-11T13:55:03.04Z</time></trkpt><trkpt lat="44.8859497" lon="8.9830346"><ele>182.0</ele><time>2026-04-11T13:55:04.04Z</time></trkpt><trkpt lat="44.8860018" lon="8.9829843"><ele>182.0</ele><time>2026-04-11T13:55:05.04Z</time></trkpt><trkpt lat="44.8860869" lon="8.9828865"><ele>182.0</ele><time>2026-04-11T13:55:07.04Z</time></trkpt><trkpt lat="44.8861376" lon="8.9828135"><ele>181.5</ele><time>2026-04-11T13:55:09.04Z</time></trkpt><trkpt lat="44.8862076" lon="8.9827431"><ele>181.0</ele><time>2026-04-11T13:55:17.04Z</time></trkpt><trkpt lat="44.8862532" lon="8.9826641"><ele>180.5</ele><time>2026-04-11T13:55:19.04Z</time></trkpt><trkpt lat="44.8862929" lon="8.9825789"><ele>180.0</ele><time>2026-04-11T13:55:22.04Z</time></trkpt><trkpt lat="44.8863543" lon="8.982442"><ele>179.5</ele><time>2026-04-11T13:55:29.039Z</time></trkpt><trkpt lat="44.886404" lon="8.9823718"><ele>179.0</ele><time>2026-04-11T13:55:30.04Z</time></trkpt><trkpt lat="44.886445" lon="8.9822752"><ele>179.0</ele><time>2026-04-11T13:55:31.04Z</time></trkpt><trkpt lat="44.8865066" lon="8.982184"><ele>179.0</ele><time>2026-04-11T13:55:32.04Z</time></trkpt><trkpt lat="44.8865703" lon="8.9820532"><ele>179.0</ele><time>2026-04-11T13:55:33.04Z</time></trkpt><trkpt lat="44.8866373" lon="8.9819143"><ele>179.0</ele><time>2026-04-11T13:55:34.041Z</time></trkpt><trkpt lat="44.886712" lon="8.9817747"><ele>179.0</ele><time>2026-04-11T13:55:35.041Z</time></trkpt><trkpt lat="44.8867927" lon="8.9816231"><ele>178.5</ele><time>2026-04-11T13:55:36.041Z</time></trkpt><trkpt lat="44.8868739" lon="8.9814655"><ele>178.0</ele><time>2026-04-11T13:55:37.041Z</time></trkpt><trkpt lat="44.8869516" lon="8.9813131"><ele>177.5</ele><time>2026-04-11T13:55:38.041Z</time></trkpt><trkpt lat="44.8870255" lon="8.9811671"><ele>177.0</ele><time>2026-04-11T13:55:39.04Z</time></trkpt><trkpt lat="44.8871007" lon="8.9810219"><ele>177.0</ele><time>2026-04-11T13:55:40.041Z</time></trkpt><trkpt lat="44.887177" lon="8.9808705"><ele>177.0</ele><time>2026-04-11T13:55:41.041Z</time></trkpt><trkpt lat="44.8872536" lon="8.9807172"><ele>177.0</ele><time>2026-04-11T13:55:42.041Z</time></trkpt><trkpt lat="44.8873309" lon="8.9805637"><ele>177.0</ele><time>2026-04-11T13:55:43.041Z</time></trkpt><trkpt lat="44.8874056" lon="8.980407"><ele>177.5</ele><time>2026-04-11T13:55:44.041Z</time></trkpt><trkpt lat="44.8874842" lon="8.9802508"><ele>178.0</ele><time>2026-04-11T13:55:45.041Z</time></trkpt><trkpt lat="44.8875668" lon="8.9800866"><ele>178.5</ele><time>2026-04-11T13:55:46.041Z</time></trkpt><trkpt lat="44.8876484" lon="8.9799162"><ele>179.0</ele><time>2026-04-11T13:55:47.041Z</time></trkpt><trkpt lat="44.887728" lon="8.9797441"><ele>178.5</ele><time>2026-04-11T13:55:48.041Z</time></trkpt><trkpt lat="44.8878107" lon="8.9795752"><ele>178.0</ele><time>2026-04-11T13:55:49.04Z</time></trkpt><trkpt lat="44.887893" lon="8.9794159"><ele>177.5</ele><time>2026-04-11T13:55:50.041Z</time></trkpt><trkpt lat="44.8879795" lon="8.9792565"><ele>177.0</ele><time>2026-04-11T13:55:51.041Z</time></trkpt><trkpt lat="44.8880591" lon="8.9791128"><ele>177.0</ele><time>2026-04-11T13:55:52.04Z</time></trkpt><trkpt lat="44.8881364" lon="8.9789616"><ele>177.0</ele><time>2026-04-11T13:55:53.04Z</time></trkpt><trkpt lat="44.8882148" lon="8.9788002"><ele>177.0</ele><time>2026-04-11T13:55:54.041Z</time></trkpt><trkpt lat="44.8882984" lon="8.9786393"><ele>177.0</ele><time>2026-04-11T13:55:55.04Z</time></trkpt><trkpt lat="44.8883858" lon="8.9784673"><ele>175.33333333333334</ele><time>2026-04-11T13:55:56.041Z</time></trkpt><trkpt lat="44.888474" lon="8.9782783"><ele>173.66666666666669</ele><time>2026-04-11T13:55:57.04Z</time></trkpt><trkpt lat="44.888569" lon="8.978091"><ele>172.0</ele><time>2026-04-11T13:55:58.041Z</time></trkpt><trkpt lat="44.888672" lon="8.9778978"><ele>172.0</ele><time>2026-04-11T13:55:59.041Z</time></trkpt><trkpt lat="44.8887758" lon="8.9776953"><ele>172.0</ele><time>2026-04-11T13:56:00.04Z</time></trkpt><trkpt lat="44.888892" lon="8.9774876"><ele>172.0</ele><time>2026-04-11T13:56:01.041Z</time></trkpt><trkpt lat="44.889017" lon="8.9772748"><ele>171.5</ele><time>2026-04-11T13:56:02.041Z</time></trkpt><trkpt lat="44.8891664" lon="8.9770481"><ele>171.0</ele><time>2026-04-11T13:56:03.041Z</time></trkpt><trkpt lat="44.8893363" lon="8.9767966"><ele>171.0</ele><time>2026-04-11T13:56:04.041Z</time></trkpt><trkpt lat="44.8895095" lon="8.9765381"><ele>171.0</ele><time>2026-04-11T13:56:05.041Z</time></trkpt><trkpt lat="44.8896925" lon="8.9762696"><ele>171.0</ele><time>2026-04-11T13:56:06.041Z</time></trkpt><trkpt lat="44.8898763" lon="8.9760038"><ele>171.0</ele><time>2026-04-11T13:56:07.04Z</time></trkpt><trkpt lat="44.8900573" lon="8.975734"><ele>170.5</ele><time>2026-04-11T13:56:08.041Z</time></trkpt><trkpt lat="44.8902402" lon="8.9754733"><ele>170.0</ele><time>2026-04-11T13:56:09.041Z</time></trkpt><trkpt lat="44.8904207" lon="8.9752052"><ele>170.5</ele><time>2026-04-11T13:56:10.041Z</time></trkpt><trkpt lat="44.890603" lon="8.9749398"><ele>171.0</ele><time>2026-04-11T13:56:11.041Z</time></trkpt><trkpt lat="44.890783" lon="8.9746671"><ele>170.0</ele><time>2026-04-11T13:56:12.041Z</time></trkpt><trkpt lat="44.8909656" lon="8.9744036"><ele>169.0</ele><time>2026-04-11T13:56:13.04Z</time></trkpt><trkpt lat="44.8911457" lon="8.9741268"><ele>169.0</ele><time>2026-04-11T13:56:14.041Z</time></trkpt><trkpt lat="44.8913272" lon="8.9738575"><ele>169.0</ele><time>2026-04-11T13:56:15.041Z</time></trkpt><trkpt lat="44.8915051" lon="8.9735758"><ele>170.5</ele><time>2026-04-11T13:56:16.041Z</time></trkpt><trkpt lat="44.8916883" lon="8.9733005"><ele>172.0</ele><time>2026-04-11T13:56:17.041Z</time></trkpt><trkpt lat="44.8918698" lon="8.9730222"><ele>170.0</ele><time>2026-04-11T13:56:18.041Z</time></trkpt><trkpt lat="44.8920577" lon="8.9727476"><ele>168.0</ele><time>2026-04-11T13:56:19.041Z</time></trkpt><trkpt lat="44.8922432" lon="8.9724657"><ele>168.0</ele><time>2026-04-11T13:56:20.041Z</time></trkpt><trkpt lat="44.8924286" lon="8.9721805"><ele>168.0</ele><time>2026-04-11T13:56:21.041Z</time></trkpt><trkpt lat="44.8926216" lon="8.9718996"><ele>167.5</ele><time>2026-04-11T13:56:22.042Z</time></trkpt><trkpt lat="44.8928134" lon="8.9716151"><ele>167.0</ele><time>2026-04-11T13:56:23.042Z</time></trkpt><trkpt lat="44.8930028" lon="8.9713354"><ele>167.0</ele><time>2026-04-11T13:56:24.042Z</time></trkpt><trkpt lat="44.8931831" lon="8.9710614"><ele>167.0</ele><time>2026-04-11T13:56:25.042Z</time></trkpt><trkpt lat="44.8933558" lon="8.9707983"><ele>166.0</ele><time>2026-04-11T13:56:26.042Z</time></trkpt><trkpt lat="44.893522" lon="8.9705502"><ele>165.0</ele><time>2026-04-11T13:56:27.042Z</time></trkpt><trkpt lat="44.8936779" lon="8.9703175"><ele>165.0</ele><time>2026-04-11T13:56:28.042Z</time></trkpt><trkpt lat="44.893816" lon="8.970095"><ele>165.0</ele><time>2026-04-11T13:56:29.041Z</time></trkpt><trkpt lat="44.8939473" lon="8.9698938"><ele>165.0</ele><time>2026-04-11T13:56:30.042Z</time></trkpt><trkpt lat="44.8940754" lon="8.969701"><ele>164.66666666666666</ele><time>2026-04-11T13:56:31.041Z</time></trkpt><trkpt lat="44.8941908" lon="8.9695235"><ele>164.33333333333331</ele><time>2026-04-11T13:56:32.042Z</time></trkpt><trkpt lat="44.8943047" lon="8.969339"><ele>164.0</ele><time>2026-04-11T13:56:33.042Z</time></trkpt><trkpt lat="44.8944166" lon="8.9691491"><ele>165.33333333333331</ele><time>2026-04-11T13:56:34.042Z</time></trkpt><trkpt lat="44.8945197" lon="8.9689623"><ele>166.66666666666666</ele><time>2026-04-11T13:56:35.041Z</time></trkpt><trkpt lat="44.894608" lon="8.9687859"><ele>168.0</ele><time>2026-04-11T13:56:36.041Z</time></trkpt><trkpt lat="44.8946935" lon="8.9686072"><ele>168.0</ele><time>2026-04-11T13:56:37.042Z</time></trkpt><trkpt lat="44.8947757" lon="8.9684383"><ele>168.0</ele><time>2026-04-11T13:56:38.042Z</time></trkpt><trkpt lat="44.8948549" lon="8.9682745"><ele>168.0</ele><time>2026-04-11T13:56:39.042Z</time></trkpt><trkpt lat="44.8949289" lon="8.9681257"><ele>168.0</ele><time>2026-04-11T13:56:40.042Z</time></trkpt><trkpt lat="44.8950002" lon="8.9679719"><ele>168.0</ele><time>2026-04-11T13:56:41.042Z</time></trkpt><trkpt lat="44.8950714" lon="8.9678176"><ele>168.0</ele><time>2026-04-11T13:56:42.042Z</time></trkpt><trkpt lat="44.8951451" lon="8.9676589"><ele>168.0</ele><time>2026-04-11T13:56:43.042Z</time></trkpt><trkpt lat="44.8952234" lon="8.9674899"><ele>168.0</ele><time>2026-04-11T13:56:44.041Z</time></trkpt><trkpt lat="44.8953058" lon="8.9673104"><ele>169.33333333333334</ele><time>2026-04-11T13:56:45.042Z</time></trkpt><trkpt lat="44.895391" lon="8.967119"><ele>170.66666666666669</ele><time>2026-04-11T13:56:46.042Z</time></trkpt><trkpt lat="44.8954877" lon="8.9669184"><ele>172.0</ele><time>2026-04-11T13:56:47.042Z</time></trkpt><trkpt lat="44.8955847" lon="8.9666997"><ele>171.66666666666669</ele><time>2026-04-11T13:56:48.041Z</time></trkpt><trkpt lat="44.8956957" lon="8.9664565"><ele>171.33333333333334</ele><time>2026-04-11T13:56:49.041Z</time></trkpt><trkpt lat="44.8958153" lon="8.9661803"><ele>171.0</ele><time>2026-04-11T13:56:50.041Z</time></trkpt><trkpt lat="44.8959623" lon="8.9658803"><ele>169.5</ele><time>2026-04-11T13:56:51.042Z</time></trkpt><trkpt lat="44.8961118" lon="8.9655789"><ele>168.0</ele><time>2026-04-11T13:56:52.042Z</time></trkpt><trkpt lat="44.896249" lon="8.9653108"><ele>168.0</ele><time>2026-04-11T13:56:53.041Z</time></trkpt><trkpt lat="44.8963793" lon="8.9650581"><ele>168.0</ele><time>2026-04-11T13:56:54.041Z</time></trkpt><trkpt lat="44.8965" lon="8.9648181"><ele>168.0</ele><time>2026-04-11T13:56:55.042Z</time></trkpt><trkpt lat="44.8966128" lon="8.9645781"><ele>169.66666666666666</ele><time>2026-04-11T13:56:56.041Z</time></trkpt><trkpt lat="44.8967244" lon="8.9643325"><ele>171.33333333333331</ele><time>2026-04-11T13:56:57.042Z</time></trkpt><trkpt lat="44.8968397" lon="8.9640916"><ele>173.0</ele><time>2026-04-11T13:56:58.041Z</time></trkpt><trkpt lat="44.8969603" lon="8.9638453"><ele>173.33333333333331</ele><time>2026-04-11T13:56:59.041Z</time></trkpt><trkpt lat="44.8970768" lon="8.9635882"><ele>173.66666666666666</ele><time>2026-04-11T13:57:00.042Z</time></trkpt><trkpt lat="44.8971959" lon="8.9633363"><ele>174.0</ele><time>2026-04-11T13:57:01.042Z</time></trkpt><trkpt lat="44.8973153" lon="8.9630863"><ele>174.66666666666666</ele><time>2026-04-11T13:57:02.042Z</time></trkpt><trkpt lat="44.8974329" lon="8.9628354"><ele>175.33333333333331</ele><time>2026-04-11T13:57:03.042Z</time></trkpt><trkpt lat="44.8975493" lon="8.9625826"><ele>176.0</ele><time>2026-04-11T13:57:04.042Z</time></trkpt><trkpt lat="44.8976708" lon="8.9623326"><ele>174.0</ele><time>2026-04-11T13:57:05.041Z</time></trkpt><trkpt lat="44.8977933" lon="8.9620873"><ele>172.0</ele><time>2026-04-11T13:57:06.042Z</time></trkpt><trkpt lat="44.897914" lon="8.9618425"><ele>170.0</ele><time>2026-04-11T13:57:07.041Z</time></trkpt><trkpt lat="44.8980327" lon="8.9615948"><ele>169.66666666666666</ele><time>2026-04-11T13:57:08.041Z</time></trkpt><trkpt lat="44.8981469" lon="8.9613441"><ele>169.33333333333334</ele><time>2026-04-11T13:57:09.042Z</time></trkpt><trkpt lat="44.8982653" lon="8.9610898"><ele>169.0</ele><time>2026-04-11T13:57:10.042Z</time></trkpt><trkpt lat="44.8983874" lon="8.9608418"><ele>168.66666666666669</ele><time>2026-04-11T13:57:11.043Z</time></trkpt><trkpt lat="44.8985037" lon="8.9605999"><ele>168.33333333333334</ele><time>2026-04-11T13:57:12.042Z</time></trkpt><trkpt lat="44.8986135" lon="8.960371"><ele>168.0</ele><time>2026-04-11T13:57:13.042Z</time></trkpt><trkpt lat="44.898718" lon="8.9601516"><ele>167.66666666666666</ele><time>2026-04-11T13:57:14.043Z</time></trkpt><trkpt lat="44.8988124" lon="8.9599462"><ele>167.33333333333331</ele><time>2026-04-11T13:57:15.043Z</time></trkpt><trkpt lat="44.8989051" lon="8.9597445"><ele>167.0</ele><time>2026-04-11T13:57:16.043Z</time></trkpt><trkpt lat="44.8989975" lon="8.9595492"><ele>167.0</ele><time>2026-04-11T13:57:17.043Z</time></trkpt><trkpt lat="44.8990906" lon="8.9593507"><ele>167.0</ele><time>2026-04-11T13:57:18.043Z</time></trkpt><trkpt lat="44.8991888" lon="8.9591508"><ele>167.0</ele><time>2026-04-11T13:57:19.043Z</time></trkpt><trkpt lat="44.8992838" lon="8.9589442"><ele>166.66666666666666</ele><time>2026-04-11T13:57:20.043Z</time></trkpt><trkpt lat="44.8993831" lon="8.9587378"><ele>166.33333333333334</ele><time>2026-04-11T13:57:21.043Z</time></trkpt><trkpt lat="44.8994809" lon="8.9585296"><ele>166.0</ele><time>2026-04-11T13:57:22.043Z</time></trkpt><trkpt lat="44.8995838" lon="8.9583193"><ele>166.0</ele><time>2026-04-11T13:57:23.043Z</time></trkpt><trkpt lat="44.8996876" lon="8.9581091"><ele>166.0</ele><time>2026-04-11T13:57:24.042Z</time></trkpt><trkpt lat="44.8997941" lon="8.9578942"><ele>166.0</ele><time>2026-04-11T13:57:25.043Z</time></trkpt><trkpt lat="44.8999056" lon="8.9576659"><ele>165.33333333333334</ele><time>2026-04-11T13:57:26.043Z</time></trkpt><trkpt lat="44.9000103" lon="8.9574387"><ele>164.66666666666666</ele><time>2026-04-11T13:57:27.042Z</time></trkpt><trkpt lat="44.9001147" lon="8.9572053"><ele>164.0</ele><time>2026-04-11T13:57:28.043Z</time></trkpt><trkpt lat="44.9002294" lon="8.9569741"><ele>163.33333333333331</ele><time>2026-04-11T13:57:29.043Z</time></trkpt><trkpt lat="44.9003415" lon="8.9567416"><ele>162.66666666666666</ele><time>2026-04-11T13:57:30.043Z</time></trkpt><trkpt lat="44.9004569" lon="8.956505"><ele>162.0</ele><time>2026-04-11T13:57:31.043Z</time></trkpt><trkpt lat="44.9005726" lon="8.9562669"><ele>161.66666666666666</ele><time>2026-04-11T13:57:32.043Z</time></trkpt><trkpt lat="44.9006927" lon="8.9560286"><ele>161.33333333333331</ele><time>2026-04-11T13:57:33.043Z</time></trkpt><trkpt lat="44.9008124" lon="8.9557843"><ele>161.0</ele><time>2026-04-11T13:57:34.043Z</time></trkpt><trkpt lat="44.9009306" lon="8.9555342"><ele>160.33333333333331</ele><time>2026-04-11T13:57:35.043Z</time></trkpt><trkpt lat="44.9010501" lon="8.9552768"><ele>159.66666666666666</ele><time>2026-04-11T13:57:36.043Z</time></trkpt><trkpt lat="44.9011713" lon="8.9550244"><ele>159.0</ele><time>2026-04-11T13:57:37.043Z</time></trkpt><trkpt lat="44.9012869" lon="8.9547796"><ele>159.0</ele><time>2026-04-11T13:57:38.043Z</time></trkpt><trkpt lat="44.9013977" lon="8.9545473"><ele>159.0</ele><time>2026-04-11T13:57:39.043Z</time></trkpt><trkpt lat="44.9015062" lon="8.954327"><ele>159.0</ele><time>2026-04-11T13:57:40.043Z</time></trkpt><trkpt lat="44.9016068" lon="8.954123"><ele>159.0</ele><time>2026-04-11T13:57:41.043Z</time></trkpt><trkpt lat="44.901703" lon="8.9539195"><ele>159.0</ele><time>2026-04-11T13:57:42.042Z</time></trkpt><trkpt lat="44.9018032" lon="8.9536896"><ele>159.0</ele><time>2026-04-11T13:57:43.043Z</time></trkpt><trkpt lat="44.9019127" lon="8.9534517"><ele>157.66666666666666</ele><time>2026-04-11T13:57:44.042Z</time></trkpt><trkpt lat="44.9020326" lon="8.9532008"><ele>156.33333333333331</ele><time>2026-04-11T13:57:45.043Z</time></trkpt><trkpt lat="44.9021584" lon="8.9529694"><ele>155.0</ele><time>2026-04-11T13:57:46.043Z</time></trkpt><trkpt lat="44.902271" lon="8.9527458"><ele>155.0</ele><time>2026-04-11T13:57:47.043Z</time></trkpt><trkpt lat="44.9023763" lon="8.9525331"><ele>155.0</ele><time>2026-04-11T13:57:48.043Z</time></trkpt><trkpt lat="44.9024732" lon="8.9523314"><ele>155.0</ele><time>2026-04-11T13:57:49.043Z</time></trkpt><trkpt lat="44.9025745" lon="8.9521339"><ele>154.66666666666666</ele><time>2026-04-11T13:57:50.042Z</time></trkpt><trkpt lat="44.902673" lon="8.9519361"><ele>154.33333333333334</ele><time>2026-04-11T13:57:51.043Z</time></trkpt><trkpt lat="44.9027652" lon="8.9517356"><ele>154.0</ele><time>2026-04-11T13:57:52.042Z</time></trkpt><trkpt lat="44.902858" lon="8.9515397"><ele>154.0</ele><time>2026-04-11T13:57:53.043Z</time></trkpt><trkpt lat="44.9029563" lon="8.9513404"><ele>154.0</ele><time>2026-04-11T13:57:54.042Z</time></trkpt><trkpt lat="44.9030552" lon="8.9511395"><ele>154.0</ele><time>2026-04-11T13:57:55.042Z</time></trkpt><trkpt lat="44.9031607" lon="8.9509339"><ele>153.66666666666669</ele><time>2026-04-11T13:57:56.043Z</time></trkpt><trkpt lat="44.9032644" lon="8.9507283"><ele>153.33333333333334</ele><time>2026-04-11T13:57:57.043Z</time></trkpt><trkpt lat="44.9033643" lon="8.9505237"><ele>153.0</ele><time>2026-04-11T13:57:58.042Z</time></trkpt><trkpt lat="44.9034632" lon="8.9503146"><ele>153.0</ele><time>2026-04-11T13:57:59.042Z</time></trkpt><trkpt lat="44.9035549" lon="8.9501275"><ele>153.0</ele><time>2026-04-11T13:58:00.044Z</time></trkpt><trkpt lat="44.9036349" lon="8.9499692"><ele>153.0</ele><time>2026-04-11T13:58:01.043Z</time></trkpt><trkpt lat="44.9036996" lon="8.9498464"><ele>153.0</ele><time>2026-04-11T13:58:02.044Z</time></trkpt><trkpt lat="44.9037512" lon="8.9497329"><ele>153.0</ele><time>2026-04-11T13:58:03.044Z</time></trkpt><trkpt lat="44.903808" lon="8.9496195"><ele>153.0</ele><time>2026-04-11T13:58:04.044Z</time></trkpt><trkpt lat="44.903873" lon="8.9494894"><ele>153.0</ele><time>2026-04-11T13:58:05.043Z</time></trkpt><trkpt lat="44.9039299" lon="8.9493655"><ele>153.0</ele><time>2026-04-11T13:58:06.043Z</time></trkpt><trkpt lat="44.9039908" lon="8.9492371"><ele>153.0</ele><time>2026-04-11T13:58:07.044Z</time></trkpt><trkpt lat="44.9040547" lon="8.9491006"><ele>152.75</ele><time>2026-04-11T13:58:08.044Z</time></trkpt><trkpt lat="44.9041226" lon="8.94896"><ele>152.5</ele><time>2026-04-11T13:58:09.044Z</time></trkpt><trkpt lat="44.9041992" lon="8.9488139"><ele>152.25</ele><time>2026-04-11T13:58:10.044Z</time></trkpt><trkpt lat="44.9042741" lon="8.9486547"><ele>152.0</ele><time>2026-04-11T13:58:11.044Z</time></trkpt><trkpt lat="44.904346" lon="8.9484724"><ele>151.5</ele><time>2026-04-11T13:58:12.044Z</time></trkpt><trkpt lat="44.9044076" lon="8.9482807"><ele>151.0</ele><time>2026-04-11T13:58:13.044Z</time></trkpt><trkpt lat="44.904457" lon="8.948089"><ele>150.5</ele><time>2026-04-11T13:58:14.044Z</time></trkpt><trkpt lat="44.9044921" lon="8.9479109"><ele>150.0</ele><time>2026-04-11T13:58:15.044Z</time></trkpt><trkpt lat="44.9045303" lon="8.9477343"><ele>150.0</ele><time>2026-04-11T13:58:16.044Z</time></trkpt><trkpt lat="44.9045595" lon="8.9475703"><ele>150.0</ele><time>2026-04-11T13:58:17.044Z</time></trkpt><trkpt lat="44.9045876" lon="8.9474141"><ele>150.0</ele><time>2026-04-11T13:58:18.044Z</time></trkpt><trkpt lat="44.9046077" lon="8.9472744"><ele>150.0</ele><time>2026-04-11T13:58:19.044Z</time></trkpt><trkpt lat="44.9046344" lon="8.9471602"><ele>150.0</ele><time>2026-04-11T13:58:20.044Z</time></trkpt><trkpt lat="44.9046735" lon="8.9470738"><ele>150.0</ele><time>2026-04-11T13:58:21.044Z</time></trkpt><trkpt lat="44.9047582" lon="8.9470203"><ele>150.0</ele><time>2026-04-11T13:58:23.044Z</time></trkpt><trkpt lat="44.9048245" lon="8.9470324"><ele>150.0</ele><time>2026-04-11T13:58:26.044Z</time></trkpt><trkpt lat="44.9049289" lon="8.9470211"><ele>150.0</ele><time>2026-04-11T13:58:52.045Z</time></trkpt><trkpt lat="44.9050144" lon="8.9471131"><ele>150.0</ele><time>2026-04-11T13:58:54.045Z</time></trkpt><trkpt lat="44.905055" lon="8.9472055"><ele>150.0</ele><time>2026-04-11T13:58:55.045Z</time></trkpt><trkpt lat="44.9050947" lon="8.9473158"><ele>150.25</ele><time>2026-04-11T13:58:56.045Z</time></trkpt><trkpt lat="44.9051426" lon="8.9474533"><ele>150.5</ele><time>2026-04-11T13:58:57.044Z</time></trkpt><trkpt lat="44.9051979" lon="8.9476008"><ele>150.75</ele><time>2026-04-11T13:58:58.045Z</time></trkpt><trkpt lat="44.9052582" lon="8.9477654"><ele>151.0</ele><time>2026-04-11T13:58:59.045Z</time></trkpt><trkpt lat="44.9053198" lon="8.9479375"><ele>151.0</ele><time>2026-04-11T13:59:00.045Z</time></trkpt><trkpt lat="44.9053884" lon="8.9481154"><ele>151.0</ele><time>2026-04-11T13:59:01.045Z</time></trkpt><trkpt lat="44.9054581" lon="8.9483099"><ele>151.0</ele><time>2026-04-11T13:59:02.045Z</time></trkpt><trkpt lat="44.9055148" lon="8.9485014"><ele>151.0</ele><time>2026-04-11T13:59:03.044Z</time></trkpt><trkpt lat="44.9055574" lon="8.9486839"><ele>151.25</ele><time>2026-04-11T13:59:04.045Z</time></trkpt><trkpt lat="44.9055866" lon="8.948873"><ele>151.5</ele><time>2026-04-11T13:59:05.045Z</time></trkpt><trkpt lat="44.9056293" lon="8.9490782"><ele>151.75</ele><time>2026-04-11T13:59:06.045Z</time></trkpt><trkpt lat="44.905666" lon="8.9492631"><ele>152.0</ele><time>2026-04-11T13:59:07.045Z</time></trkpt><trkpt lat="44.905702" lon="8.9494302"><ele>152.0</ele><time>2026-04-11T13:59:08.045Z</time></trkpt><trkpt lat="44.9057344" lon="8.9495751"><ele>152.0</ele><time>2026-04-11T13:59:09.045Z</time></trkpt><trkpt lat="44.9057579" lon="8.9496995"><ele>152.0</ele><time>2026-04-11T13:59:10.045Z</time></trkpt><trkpt lat="44.9057802" lon="8.9498171"><ele>152.0</ele><time>2026-04-11T13:59:11.045Z</time></trkpt><trkpt lat="44.9058056" lon="8.9499467"><ele>152.0</ele><time>2026-04-11T13:59:12.045Z</time></trkpt><trkpt lat="44.9058369" lon="8.9500915"><ele>152.0</ele><time>2026-04-11T13:59:13.045Z</time></trkpt><trkpt lat="44.9058761" lon="8.9502379"><ele>152.0</ele><time>2026-04-11T13:59:14.045Z</time></trkpt><trkpt lat="44.9059219" lon="8.9503925"><ele>152.0</ele><time>2026-04-11T13:59:15.044Z</time></trkpt><trkpt lat="44.9059734" lon="8.9505544"><ele>152.0</ele><time>2026-04-11T13:59:16.045Z</time></trkpt><trkpt lat="44.9060292" lon="8.9507242"><ele>151.0</ele><time>2026-04-11T13:59:17.045Z</time></trkpt><trkpt lat="44.9060866" lon="8.9508931"><ele>150.0</ele><time>2026-04-11T13:59:18.045Z</time></trkpt><trkpt lat="44.9061418" lon="8.9510677"><ele>149.0</ele><time>2026-04-11T13:59:19.045Z</time></trkpt><trkpt lat="44.9062022" lon="8.9512522"><ele>148.0</ele><time>2026-04-11T13:59:20.045Z</time></trkpt><trkpt lat="44.9062651" lon="8.9514396"><ele>148.0</ele><time>2026-04-11T13:59:21.045Z</time></trkpt><trkpt lat="44.9063329" lon="8.9516308"><ele>148.0</ele><time>2026-04-11T13:59:22.044Z</time></trkpt><trkpt lat="44.9064021" lon="8.9518271"><ele>148.0</ele><time>2026-04-11T13:59:23.045Z</time></trkpt><trkpt lat="44.9064696" lon="8.9520266"><ele>148.66666666666669</ele><time>2026-04-11T13:59:24.045Z</time></trkpt><trkpt lat="44.906538" lon="8.9522336"><ele>149.33333333333334</ele><time>2026-04-11T13:59:25.045Z</time></trkpt><trkpt lat="44.9066057" lon="8.9524398"><ele>150.0</ele><time>2026-04-11T13:59:26.045Z</time></trkpt><trkpt lat="44.9066765" lon="8.9526499"><ele>149.66666666666666</ele><time>2026-04-11T13:59:27.045Z</time></trkpt><trkpt lat="44.9067482" lon="8.9528601"><ele>149.33333333333331</ele><time>2026-04-11T13:59:28.045Z</time></trkpt><trkpt lat="44.9068198" lon="8.9530713"><ele>149.0</ele><time>2026-04-11T13:59:29.045Z</time></trkpt><trkpt lat="44.9068902" lon="8.9532814"><ele>149.66666666666666</ele><time>2026-04-11T13:59:30.045Z</time></trkpt><trkpt lat="44.9069626" lon="8.9534908"><ele>150.33333333333334</ele><time>2026-04-11T13:59:31.045Z</time></trkpt><trkpt lat="44.9070355" lon="8.9536985"><ele>151.0</ele><time>2026-04-11T13:59:32.044Z</time></trkpt><trkpt lat="44.9071074" lon="8.9538981"><ele>151.0</ele><time>2026-04-11T13:59:33.044Z</time></trkpt><trkpt lat="44.9071701" lon="8.9541044"><ele>151.0</ele><time>2026-04-11T13:59:34.045Z</time></trkpt><trkpt lat="44.907221" lon="8.9543196"><ele>151.0</ele><time>2026-04-11T13:59:35.044Z</time></trkpt><trkpt lat="44.9072568" lon="8.9545392"><ele>150.66666666666669</ele><time>2026-04-11T13:59:36.044Z</time></trkpt><trkpt lat="44.9072895" lon="8.9547732"><ele>150.33333333333334</ele><time>2026-04-11T13:59:37.046Z</time></trkpt><trkpt lat="44.9073145" lon="8.955015"><ele>150.0</ele><time>2026-04-11T13:59:38.046Z</time></trkpt><trkpt lat="44.9073348" lon="8.9552637"><ele>149.33333333333334</ele><time>2026-04-11T13:59:39.045Z</time></trkpt><trkpt lat="44.9073526" lon="8.9555139"><ele>148.66666666666669</ele><time>2026-04-11T13:59:40.046Z</time></trkpt><trkpt lat="44.9073725" lon="8.955765"><ele>148.0</ele><time>2026-04-11T13:59:41.046Z</time></trkpt><trkpt lat="44.9073922" lon="8.956017"><ele>148.0</ele><time>2026-04-11T13:59:42.046Z</time></trkpt><trkpt lat="44.9074096" lon="8.9562673"><ele>148.0</ele><time>2026-04-11T13:59:43.046Z</time></trkpt><trkpt lat="44.9074243" lon="8.9565207"><ele>148.0</ele><time>2026-04-11T13:59:44.045Z</time></trkpt><trkpt lat="44.9074501" lon="8.9567727"><ele>148.33333333333334</ele><time>2026-04-11T13:59:45.045Z</time></trkpt><trkpt lat="44.9074718" lon="8.9570216"><ele>148.66666666666666</ele><time>2026-04-11T13:59:46.045Z</time></trkpt><trkpt lat="44.9074927" lon="8.9572692"><ele>149.0</ele><time>2026-04-11T13:59:47.045Z</time></trkpt><trkpt lat="44.9075125" lon="8.9575178"><ele>149.33333333333331</ele><time>2026-04-11T13:59:48.046Z</time></trkpt><trkpt lat="44.90753" lon="8.9577629"><ele>149.66666666666666</ele><time>2026-04-11T13:59:49.046Z</time></trkpt><trkpt lat="44.9075466" lon="8.9580088"><ele>150.0</ele><time>2026-04-11T13:59:50.046Z</time></trkpt><trkpt lat="44.907558" lon="8.9582488"><ele>150.0</ele><time>2026-04-11T13:59:51.046Z</time></trkpt><trkpt lat="44.907565" lon="8.9584938"><ele>150.0</ele><time>2026-04-11T13:59:52.046Z</time></trkpt><trkpt lat="44.9075741" lon="8.9587477"><ele>150.0</ele><time>2026-04-11T13:59:53.045Z</time></trkpt><trkpt lat="44.9075732" lon="8.9590063"><ele>150.0</ele><time>2026-04-11T13:59:54.046Z</time></trkpt><trkpt lat="44.9075663" lon="8.9592706"><ele>150.0</ele><time>2026-04-11T13:59:55.046Z</time></trkpt><trkpt lat="44.9075634" lon="8.9595418"><ele>150.0</ele><time>2026-04-11T13:59:56.046Z</time></trkpt><trkpt lat="44.907558" lon="8.9598163"><ele>150.33333333333334</ele><time>2026-04-11T13:59:57.046Z</time></trkpt><trkpt lat="44.9075474" lon="8.9600872"><ele>150.66666666666669</ele><time>2026-04-11T13:59:58.046Z</time></trkpt><trkpt lat="44.9075419" lon="8.9603542"><ele>151.0</ele><time>2026-04-11T13:59:59.045Z</time></trkpt><trkpt lat="44.9075478" lon="8.9606154"><ele>151.0</ele><time>2026-04-11T14:00:00.046Z</time></trkpt><trkpt lat="44.9075736" lon="8.9608698"><ele>151.0</ele><time>2026-04-11T14:00:01.046Z</time></trkpt><trkpt lat="44.9076153" lon="8.9611279"><ele>151.0</ele><time>2026-04-11T14:00:02.046Z</time></trkpt><trkpt lat="44.9076808" lon="8.9613753"><ele>150.33333333333334</ele><time>2026-04-11T14:00:03.045Z</time></trkpt><trkpt lat="44.9077561" lon="8.9616243"><ele>149.66666666666666</ele><time>2026-04-11T14:00:04.046Z</time></trkpt><trkpt lat="44.9078449" lon="8.9618797"><ele>149.0</ele><time>2026-04-11T14:00:05.046Z</time></trkpt><trkpt lat="44.9079308" lon="8.9621518"><ele>149.0</ele><time>2026-04-11T14:00:06.046Z</time></trkpt><trkpt lat="44.9080242" lon="8.9624279"><ele>149.0</ele><time>2026-04-11T14:00:07.046Z</time></trkpt><trkpt lat="44.9081164" lon="8.9627082"><ele>149.0</ele><time>2026-04-11T14:00:08.046Z</time></trkpt><trkpt lat="44.9082104" lon="8.9629992"><ele>149.0</ele><time>2026-04-11T14:00:09.046Z</time></trkpt><trkpt lat="44.9083087" lon="8.9633029"><ele>149.0</ele><time>2026-04-11T14:00:10.046Z</time></trkpt><trkpt lat="44.9084107" lon="8.9636135"><ele>149.0</ele><time>2026-04-11T14:00:11.046Z</time></trkpt><trkpt lat="44.9085115" lon="8.9639338"><ele>149.0</ele><time>2026-04-11T14:00:12.046Z</time></trkpt><trkpt lat="44.9086196" lon="8.9642594"><ele>149.0</ele><time>2026-04-11T14:00:13.046Z</time></trkpt><trkpt lat="44.9087282" lon="8.9645938"><ele>149.0</ele><time>2026-04-11T14:00:14.046Z</time></trkpt><trkpt lat="44.9088381" lon="8.9649293"><ele>149.5</ele><time>2026-04-11T14:00:15.046Z</time></trkpt><trkpt lat="44.9089445" lon="8.9652645"><ele>150.0</ele><time>2026-04-11T14:00:16.046Z</time></trkpt><trkpt lat="44.9090437" lon="8.9655872"><ele>150.0</ele><time>2026-04-11T14:00:17.046Z</time></trkpt><trkpt lat="44.9091351" lon="8.965859"><ele>150.0</ele><time>2026-04-11T14:00:18.046Z</time></trkpt><trkpt lat="44.9092218" lon="8.966124"><ele>150.0</ele><time>2026-04-11T14:00:19.046Z</time></trkpt><trkpt lat="44.9093067" lon="8.9663664"><ele>150.66666666666666</ele><time>2026-04-11T14:00:20.046Z</time></trkpt><trkpt lat="44.9093791" lon="8.9665912"><ele>151.33333333333331</ele><time>2026-04-11T14:00:21.045Z</time></trkpt><trkpt lat="44.9094427" lon="8.9667845"><ele>152.0</ele><time>2026-04-11T14:00:22.046Z</time></trkpt><trkpt lat="44.9095036" lon="8.9669464"><ele>152.0</ele><time>2026-04-11T14:00:23.046Z</time></trkpt><trkpt lat="44.9095534" lon="8.9670937"><ele>152.0</ele><time>2026-04-11T14:00:24.046Z</time></trkpt><trkpt lat="44.9095946" lon="8.967216"><ele>152.0</ele><time>2026-04-11T14:00:25.045Z</time></trkpt><trkpt lat="44.9096208" lon="8.967312"><ele>152.0</ele><time>2026-04-11T14:00:26.047Z</time></trkpt><trkpt lat="44.9096508" lon="8.9674356"><ele>152.0</ele><time>2026-04-11T14:00:28.047Z</time></trkpt><trkpt lat="44.9096818" lon="8.967527"><ele>152.0</ele><time>2026-04-11T14:00:31.047Z</time></trkpt><trkpt lat="44.9097592" lon="8.9676146"><ele>152.0</ele><time>2026-04-11T14:00:34.047Z</time></trkpt><trkpt lat="44.9098666" lon="8.9675718"><ele>152.0</ele><time>2026-04-11T14:00:36.047Z</time></trkpt><trkpt lat="44.90993" lon="8.9675354"><ele>152.0</ele><time>2026-04-11T14:00:37.047Z</time></trkpt><trkpt lat="44.9100053" lon="8.967491"><ele>152.0</ele><time>2026-04-11T14:00:38.047Z</time></trkpt><trkpt lat="44.9100893" lon="8.9674504"><ele>152.0</ele><time>2026-04-11T14:00:39.046Z</time></trkpt><trkpt lat="44.9101809" lon="8.967412"><ele>152.0</ele><time>2026-04-11T14:00:40.047Z</time></trkpt><trkpt lat="44.9102711" lon="8.9673714"><ele>152.0</ele><time>2026-04-11T14:00:41.047Z</time></trkpt><trkpt lat="44.9103571" lon="8.9673353"><ele>152.0</ele><time>2026-04-11T14:00:42.047Z</time></trkpt><trkpt lat="44.9104368" lon="8.9673006"><ele>152.0</ele><time>2026-04-11T14:00:43.047Z</time></trkpt><trkpt lat="44.9105124" lon="8.9672634"><ele>152.0</ele><time>2026-04-11T14:00:44.047Z</time></trkpt><trkpt lat="44.9105826" lon="8.9672297"><ele>152.0</ele><time>2026-04-11T14:00:45.046Z</time></trkpt><trkpt lat="44.9106491" lon="8.9671996"><ele>152.0</ele><time>2026-04-11T14:00:46.047Z</time></trkpt><trkpt lat="44.9107172" lon="8.9671708"><ele>152.0</ele><time>2026-04-11T14:00:47.047Z</time></trkpt><trkpt lat="44.9107898" lon="8.9671395"><ele>152.0</ele><time>2026-04-11T14:00:48.047Z</time></trkpt><trkpt lat="44.9108676" lon="8.967104"><ele>152.0</ele><time>2026-04-11T14:00:49.047Z</time></trkpt><trkpt lat="44.9109467" lon="8.967063"><ele>152.0</ele><time>2026-04-11T14:00:50.046Z</time></trkpt><trkpt lat="44.9110236" lon="8.9670174"><ele>152.0</ele><time>2026-04-11T14:00:51.046Z</time></trkpt><trkpt lat="44.9111008" lon="8.9669653"><ele>152.0</ele><time>2026-04-11T14:00:52.047Z</time></trkpt><trkpt lat="44.9111719" lon="8.9669004"><ele>151.83333333333331</ele><time>2026-04-11T14:00:53.047Z</time></trkpt><trkpt lat="44.9112377" lon="8.9668246"><ele>151.66666666666666</ele><time>2026-04-11T14:00:54.047Z</time></trkpt><trkpt lat="44.9112973" lon="8.9667386"><ele>151.5</ele><time>2026-04-11T14:00:55.047Z</time></trkpt><trkpt lat="44.9113517" lon="8.9666398"><ele>151.33333333333334</ele><time>2026-04-11T14:00:56.046Z</time></trkpt><trkpt lat="44.9114003" lon="8.9665267"><ele>151.16666666666669</ele><time>2026-04-11T14:00:57.047Z</time></trkpt><trkpt lat="44.9114413" lon="8.9664083"><ele>151.0</ele><time>2026-04-11T14:00:58.047Z</time></trkpt><trkpt lat="44.9114769" lon="8.9662868"><ele>150.8</ele><time>2026-04-11T14:00:59.047Z</time></trkpt><trkpt lat="44.9115048" lon="8.966158"><ele>150.6</ele><time>2026-04-11T14:01:00.047Z</time></trkpt><trkpt lat="44.9115288" lon="8.9660319"><ele>150.4</ele><time>2026-04-11T14:01:01.047Z</time></trkpt><trkpt lat="44.9115622" lon="8.96591"><ele>150.2</ele><time>2026-04-11T14:01:02.046Z</time></trkpt><trkpt lat="44.9116144" lon="8.9658031"><ele>150.0</ele><time>2026-04-11T14:01:03.046Z</time></trkpt><trkpt lat="44.9116879" lon="8.9657196"><ele>149.8</ele><time>2026-04-11T14:01:04.047Z</time></trkpt><trkpt lat="44.9117776" lon="8.9656593"><ele>149.6</ele><time>2026-04-11T14:01:05.047Z</time></trkpt><trkpt lat="44.9118772" lon="8.9656183"><ele>149.4</ele><time>2026-04-11T14:01:06.047Z</time></trkpt><trkpt lat="44.9119836" lon="8.9655783"><ele>149.2</ele><time>2026-04-11T14:01:07.046Z</time></trkpt><trkpt lat="44.9120856" lon="8.9655364"><ele>149.0</ele><time>2026-04-11T14:01:08.046Z</time></trkpt><trkpt lat="44.9121803" lon="8.9654922"><ele>149.0</ele><time>2026-04-11T14:01:09.047Z</time></trkpt><trkpt lat="44.9122705" lon="8.965448"><ele>149.0</ele><time>2026-04-11T14:01:10.047Z</time></trkpt><trkpt lat="44.9123704" lon="8.9653984"><ele>149.0</ele><time>2026-04-11T14:01:11.047Z</time></trkpt><trkpt lat="44.9124722" lon="8.9653416"><ele>149.0</ele><time>2026-04-11T14:01:12.047Z</time></trkpt><trkpt lat="44.9125757" lon="8.9652855"><ele>149.0</ele><time>2026-04-11T14:01:13.046Z</time></trkpt><trkpt lat="44.9126848" lon="8.9652291"><ele>148.75</ele><time>2026-04-11T14:01:14.047Z</time></trkpt><trkpt lat="44.9127973" lon="8.9651706"><ele>148.5</ele><time>2026-04-11T14:01:15.048Z</time></trkpt><trkpt lat="44.9129134" lon="8.9651087"><ele>148.25</ele><time>2026-04-11T14:01:16.047Z</time></trkpt><trkpt lat="44.9130327" lon="8.9650432"><ele>148.0</ele><time>2026-04-11T14:01:17.047Z</time></trkpt><trkpt lat="44.9131562" lon="8.9649781"><ele>147.75</ele><time>2026-04-11T14:01:18.048Z</time></trkpt><trkpt lat="44.9132812" lon="8.9649139"><ele>147.5</ele><time>2026-04-11T14:01:19.047Z</time></trkpt><trkpt lat="44.9134036" lon="8.9648474"><ele>147.25</ele><time>2026-04-11T14:01:20.048Z</time></trkpt><trkpt lat="44.913518" lon="8.9647863"><ele>147.0</ele><time>2026-04-11T14:01:21.047Z</time></trkpt><trkpt lat="44.9136317" lon="8.9647191"><ele>146.75</ele><time>2026-04-11T14:01:22.048Z</time></trkpt><trkpt lat="44.9137462" lon="8.9646367"><ele>146.5</ele><time>2026-04-11T14:01:23.048Z</time></trkpt><trkpt lat="44.9138612" lon="8.9645332"><ele>146.25</ele><time>2026-04-11T14:01:24.048Z</time></trkpt><trkpt lat="44.9139759" lon="8.9644133"><ele>146.0</ele><time>2026-04-11T14:01:25.048Z</time></trkpt><trkpt lat="44.9140909" lon="8.9642878"><ele>146.0</ele><time>2026-04-11T14:01:26.048Z</time></trkpt><trkpt lat="44.9142055" lon="8.9641587"><ele>146.0</ele><time>2026-04-11T14:01:27.047Z</time></trkpt><trkpt lat="44.9143243" lon="8.9640228"><ele>146.0</ele><time>2026-04-11T14:01:28.048Z</time></trkpt><trkpt lat="44.914446" lon="8.9638867"><ele>146.0</ele><time>2026-04-11T14:01:29.048Z</time></trkpt><trkpt lat="44.9145626" lon="8.9637549"><ele>146.0</ele><time>2026-04-11T14:01:30.048Z</time></trkpt><trkpt lat="44.9146701" lon="8.9636193"><ele>146.0</ele><time>2026-04-11T14:01:31.047Z</time></trkpt><trkpt lat="44.9147749" lon="8.9634707"><ele>146.0</ele><time>2026-04-11T14:01:32.048Z</time></trkpt><trkpt lat="44.9148724" lon="8.9633006"><ele>146.0</ele><time>2026-04-11T14:01:33.048Z</time></trkpt><trkpt lat="44.9149539" lon="8.9631035"><ele>146.0</ele><time>2026-04-11T14:01:34.048Z</time></trkpt><trkpt lat="44.9150353" lon="8.9628939"><ele>146.0</ele><time>2026-04-11T14:01:35.048Z</time></trkpt><trkpt lat="44.9151308" lon="8.9626839"><ele>145.66666666666666</ele><time>2026-04-11T14:01:36.048Z</time></trkpt><trkpt lat="44.9152399" lon="8.9624773"><ele>145.33333333333334</ele><time>2026-04-11T14:01:37.048Z</time></trkpt><trkpt lat="44.9153566" lon="8.9622724"><ele>145.0</ele><time>2026-04-11T14:01:38.048Z</time></trkpt><trkpt lat="44.9154812" lon="8.9620676"><ele>145.0</ele><time>2026-04-11T14:01:39.048Z</time></trkpt><trkpt lat="44.9156062" lon="8.9618609"><ele>145.0</ele><time>2026-04-11T14:01:40.048Z</time></trkpt><trkpt lat="44.9157283" lon="8.9616652"><ele>145.0</ele><time>2026-04-11T14:01:41.048Z</time></trkpt><trkpt lat="44.9158425" lon="8.9614828"><ele>145.0</ele><time>2026-04-11T14:01:42.048Z</time></trkpt><trkpt lat="44.9159575" lon="8.9613182"><ele>145.0</ele><time>2026-04-11T14:01:43.048Z</time></trkpt><trkpt lat="44.9160839" lon="8.9611791"><ele>145.0</ele><time>2026-04-11T14:01:44.048Z</time></trkpt><trkpt lat="44.916222" lon="8.961058"><ele>145.0</ele><time>2026-04-11T14:01:45.048Z</time></trkpt><trkpt lat="44.9163719" lon="8.9609601"><ele>145.0</ele><time>2026-04-11T14:01:46.047Z</time></trkpt><trkpt lat="44.9165303" lon="8.9608752"><ele>145.0</ele><time>2026-04-11T14:01:47.048Z</time></trkpt><trkpt lat="44.9166871" lon="8.9607876"><ele>143.66666666666669</ele><time>2026-04-11T14:01:48.048Z</time></trkpt><trkpt lat="44.9168294" lon="8.9606832"><ele>142.33333333333334</ele><time>2026-04-11T14:01:49.048Z</time></trkpt><trkpt lat="44.9169663" lon="8.9605812"><ele>141.0</ele><time>2026-04-11T14:01:50.048Z</time></trkpt><trkpt lat="44.9171132" lon="8.9604855"><ele>141.0</ele><time>2026-04-11T14:01:51.048Z</time></trkpt><trkpt lat="44.9172665" lon="8.9604116"><ele>141.0</ele><time>2026-04-11T14:01:52.047Z</time></trkpt><trkpt lat="44.9174259" lon="8.960348"><ele>141.0</ele><time>2026-04-11T14:01:53.048Z</time></trkpt><trkpt lat="44.9175888" lon="8.9603046"><ele>140.75</ele><time>2026-04-11T14:01:54.048Z</time></trkpt><trkpt lat="44.9177465" lon="8.960268"><ele>140.5</ele><time>2026-04-11T14:01:55.048Z</time></trkpt><trkpt lat="44.9178933" lon="8.9602514"><ele>140.25</ele><time>2026-04-11T14:01:56.048Z</time></trkpt><trkpt lat="44.9180313" lon="8.9602243"><ele>140.0</ele><time>2026-04-11T14:01:57.047Z</time></trkpt><trkpt lat="44.9181623" lon="8.9601762"><ele>140.0</ele><time>2026-04-11T14:01:58.047Z</time></trkpt><trkpt lat="44.9182925" lon="8.9601004"><ele>140.0</ele><time>2026-04-11T14:01:59.048Z</time></trkpt><trkpt lat="44.9184174" lon="8.959998"><ele>140.0</ele><time>2026-04-11T14:02:00.047Z</time></trkpt><trkpt lat="44.9185317" lon="8.9598694"><ele>140.0</ele><time>2026-04-11T14:02:01.048Z</time></trkpt><trkpt lat="44.9186602" lon="8.9597356"><ele>139.66666666666666</ele><time>2026-04-11T14:02:02.048Z</time></trkpt><trkpt lat="44.9187971" lon="8.9596186"><ele>139.33333333333334</ele><time>2026-04-11T14:02:03.048Z</time></trkpt><trkpt lat="44.9189446" lon="8.9595241"><ele>139.0</ele><time>2026-04-11T14:02:04.049Z</time></trkpt><trkpt lat="44.9190902" lon="8.9594351"><ele>139.0</ele><time>2026-04-11T14:02:05.049Z</time></trkpt><trkpt lat="44.9192272" lon="8.9593425"><ele>139.0</ele><time>2026-04-11T14:02:06.049Z</time></trkpt><trkpt lat="44.9193681" lon="8.959251"><ele>139.0</ele><time>2026-04-11T14:02:07.048Z</time></trkpt><trkpt lat="44.9195105" lon="8.9591651"><ele>138.33333333333334</ele><time>2026-04-11T14:02:08.048Z</time></trkpt><trkpt lat="44.9196626" lon="8.9590926"><ele>137.66666666666666</ele><time>2026-04-11T14:02:09.049Z</time></trkpt><trkpt lat="44.9198234" lon="8.959012"><ele>137.0</ele><time>2026-04-11T14:02:10.048Z</time></trkpt><trkpt lat="44.9199912" lon="8.958948"><ele>137.0</ele><time>2026-04-11T14:02:11.049Z</time></trkpt><trkpt lat="44.9201641" lon="8.9588892"><ele>137.0</ele><time>2026-04-11T14:02:12.049Z</time></trkpt><trkpt lat="44.9203427" lon="8.9588281"><ele>137.0</ele><time>2026-04-11T14:02:13.048Z</time></trkpt><trkpt lat="44.9205194" lon="8.9587759"><ele>137.0</ele><time>2026-04-11T14:02:14.048Z</time></trkpt><trkpt lat="44.9206883" lon="8.9587209"><ele>137.0</ele><time>2026-04-11T14:02:15.049Z</time></trkpt><trkpt lat="44.9208525" lon="8.9586747"><ele>137.0</ele><time>2026-04-11T14:02:16.049Z</time></trkpt><trkpt lat="44.9210175" lon="8.9586311"><ele>136.66666666666666</ele><time>2026-04-11T14:02:17.049Z</time></trkpt><trkpt lat="44.9211814" lon="8.9585776"><ele>136.33333333333334</ele><time>2026-04-11T14:02:18.048Z</time></trkpt><trkpt lat="44.9213468" lon="8.9585379"><ele>136.0</ele><time>2026-04-11T14:02:19.049Z</time></trkpt><trkpt lat="44.9215162" lon="8.9585105"><ele>136.0</ele><time>2026-04-11T14:02:20.049Z</time></trkpt><trkpt lat="44.9216835" lon="8.958509"><ele>136.0</ele><time>2026-04-11T14:02:21.049Z</time></trkpt><trkpt lat="44.9218514" lon="8.9585198"><ele>136.0</ele><time>2026-04-11T14:02:22.049Z</time></trkpt><trkpt lat="44.9220172" lon="8.9585419"><ele>136.33333333333334</ele><time>2026-04-11T14:02:23.049Z</time></trkpt><trkpt lat="44.9221816" lon="8.9585715"><ele>136.66666666666666</ele><time>2026-04-11T14:02:24.049Z</time></trkpt><trkpt lat="44.9223468" lon="8.958606"><ele>137.0</ele><time>2026-04-11T14:02:25.049Z</time></trkpt><trkpt lat="44.9225129" lon="8.9586376"><ele>138.66666666666666</ele><time>2026-04-11T14:02:26.048Z</time></trkpt><trkpt lat="44.9226779" lon="8.9586703"><ele>140.33333333333334</ele><time>2026-04-11T14:02:27.049Z</time></trkpt><trkpt lat="44.9228339" lon="8.9587034"><ele>142.0</ele><time>2026-04-11T14:02:28.048Z</time></trkpt><trkpt lat="44.9229746" lon="8.95873"><ele>142.0</ele><time>2026-04-11T14:02:29.049Z</time></trkpt><trkpt lat="44.9230979" lon="8.9587549"><ele>142.0</ele><time>2026-04-11T14:02:30.049Z</time></trkpt><trkpt lat="44.9232098" lon="8.9587815"><ele>142.0</ele><time>2026-04-11T14:02:31.048Z</time></trkpt><trkpt lat="44.9233094" lon="8.9588063"><ele>142.0</ele><time>2026-04-11T14:02:32.048Z</time></trkpt><trkpt lat="44.9233954" lon="8.958809"><ele>142.0</ele><time>2026-04-11T14:02:33.049Z</time></trkpt><trkpt lat="44.9234878" lon="8.9587655"><ele>141.79999999999998</ele><time>2026-04-11T14:02:34.049Z</time></trkpt><trkpt lat="44.923567" lon="8.958684"><ele>141.6</ele><time>2026-04-11T14:02:35.049Z</time></trkpt><trkpt lat="44.9236322" lon="8.9585822"><ele>141.39999999999998</ele><time>2026-04-11T14:02:36.049Z</time></trkpt><trkpt lat="44.9236995" lon="8.9584919"><ele>141.2</ele><time>2026-04-11T14:02:37.049Z</time></trkpt><trkpt lat="44.9237779" lon="8.9584201"><ele>141.0</ele><time>2026-04-11T14:02:38.049Z</time></trkpt><trkpt lat="44.9238667" lon="8.9583653"><ele>141.0</ele><time>2026-04-11T14:02:39.049Z</time></trkpt><trkpt lat="44.9239554" lon="8.9583317"><ele>141.0</ele><time>2026-04-11T14:02:40.049Z</time></trkpt><trkpt lat="44.9240522" lon="8.9583228"><ele>141.0</ele><time>2026-04-11T14:02:41.048Z</time></trkpt><trkpt lat="44.9241497" lon="8.9583389"><ele>141.0</ele><time>2026-04-11T14:02:42.049Z</time></trkpt><trkpt lat="44.9242522" lon="8.9583683"><ele>141.0</ele><time>2026-04-11T14:02:43.049Z</time></trkpt><trkpt lat="44.9243513" lon="8.9584193"><ele>140.8</ele><time>2026-04-11T14:02:44.049Z</time></trkpt><trkpt lat="44.9244366" lon="8.9584986"><ele>140.6</ele><time>2026-04-11T14:02:45.048Z</time></trkpt><trkpt lat="44.9245083" lon="8.9585904"><ele>140.4</ele><time>2026-04-11T14:02:46.049Z</time></trkpt><trkpt lat="44.9245663" lon="8.9586939"><ele>140.2</ele><time>2026-04-11T14:02:47.049Z</time></trkpt><trkpt lat="44.9246128" lon="8.9588018"><ele>140.0</ele><time>2026-04-11T14:02:48.049Z</time></trkpt><trkpt lat="44.9246565" lon="8.9589013"><ele>140.0</ele><time>2026-04-11T14:02:49.049Z</time></trkpt><trkpt lat="44.9247096" lon="8.9589923"><ele>140.0</ele><time>2026-04-11T14:02:50.049Z</time></trkpt><trkpt lat="44.9247838" lon="8.9590598"><ele>140.0</ele><time>2026-04-11T14:02:51.049Z</time></trkpt><trkpt lat="44.9248777" lon="8.9590756"><ele>140.0</ele><time>2026-04-11T14:02:52.049Z</time></trkpt><trkpt lat="44.925014" lon="8.9590799"><ele>140.0</ele><time>2026-04-11T14:02:53.05Z</time></trkpt><trkpt lat="44.9251849" lon="8.9590941"><ele>139.0</ele><time>2026-04-11T14:02:54.049Z</time></trkpt><trkpt lat="44.9253926" lon="8.9591229"><ele>138.0</ele><time>2026-04-11T14:02:55.05Z</time></trkpt><trkpt lat="44.9255804" lon="8.9592136"><ele>137.0</ele><time>2026-04-11T14:02:56.05Z</time></trkpt><trkpt lat="44.9257802" lon="8.959227"><ele>135.33333333333331</ele><time>2026-04-11T14:02:57.05Z</time></trkpt><trkpt lat="44.9259605" lon="8.9592513"><ele>133.66666666666666</ele><time>2026-04-11T14:02:58.049Z</time></trkpt><trkpt lat="44.926113" lon="8.9592798"><ele>132.0</ele><time>2026-04-11T14:02:59.05Z</time></trkpt><trkpt lat="44.926251" lon="8.9593058"><ele>132.0</ele><time>2026-04-11T14:03:00.05Z</time></trkpt><trkpt lat="44.9263682" lon="8.9593117"><ele>132.0</ele><time>2026-04-11T14:03:01.05Z</time></trkpt><trkpt lat="44.9264609" lon="8.9593125"><ele>132.0</ele><time>2026-04-11T14:03:02.05Z</time></trkpt><trkpt lat="44.9265324" lon="8.9593187"><ele>132.0</ele><time>2026-04-11T14:03:03.05Z</time></trkpt><trkpt lat="44.9265881" lon="8.9593616"><ele>132.0</ele><time>2026-04-11T14:03:04.05Z</time></trkpt><trkpt lat="44.9266221" lon="8.9595115"><ele>132.0</ele><time>2026-04-11T14:03:06.05Z</time></trkpt><trkpt lat="44.9266107" lon="8.9596444"><ele>132.0</ele><time>2026-04-11T14:03:07.05Z</time></trkpt><trkpt lat="44.9265948" lon="8.9598072"><ele>132.0</ele><time>2026-04-11T14:03:08.05Z</time></trkpt><trkpt lat="44.926578" lon="8.9600029"><ele>132.0</ele><time>2026-04-11T14:03:09.05Z</time></trkpt><trkpt lat="44.9265635" lon="8.9602099"><ele>132.0</ele><time>2026-04-11T14:03:10.05Z</time></trkpt><trkpt lat="44.9265457" lon="8.9604393"><ele>132.0</ele><time>2026-04-11T14:03:11.05Z</time></trkpt><trkpt lat="44.9265242" lon="8.9607115"><ele>132.0</ele><time>2026-04-11T14:03:12.05Z</time></trkpt><trkpt lat="44.9264954" lon="8.9610018"><ele>132.0</ele><time>2026-04-11T14:03:13.05Z</time></trkpt><trkpt lat="44.9264676" lon="8.9613051"><ele>132.0</ele><time>2026-04-11T14:03:14.049Z</time></trkpt><trkpt lat="44.9264452" lon="8.9616206"><ele>132.0</ele><time>2026-04-11T14:03:15.05Z</time></trkpt><trkpt lat="44.9264241" lon="8.9619224"><ele>132.0</ele><time>2026-04-11T14:03:16.049Z</time></trkpt><trkpt lat="44.9264018" lon="8.9621946"><ele>132.0</ele><time>2026-04-11T14:03:17.049Z</time></trkpt><trkpt lat="44.9263826" lon="8.9624407"><ele>132.0</ele><time>2026-04-11T14:03:18.05Z</time></trkpt><trkpt lat="44.9263636" lon="8.9626611"><ele>132.0</ele><time>2026-04-11T14:03:19.05Z</time></trkpt><trkpt lat="44.9263462" lon="8.9628484"><ele>132.0</ele><time>2026-04-11T14:03:20.05Z</time></trkpt><trkpt lat="44.9263335" lon="8.9630084"><ele>132.0</ele><time>2026-04-11T14:03:21.05Z</time></trkpt><trkpt lat="44.9263269" lon="8.9631583"><ele>132.0</ele><time>2026-04-11T14:03:22.05Z</time></trkpt><trkpt lat="44.9263478" lon="8.9633217"><ele>132.0</ele><time>2026-04-11T14:03:23.05Z</time></trkpt><trkpt lat="44.9264066" lon="8.9634819"><ele>132.0</ele><time>2026-04-11T14:03:24.05Z</time></trkpt><trkpt lat="44.9264828" lon="8.9636412"><ele>132.0</ele><time>2026-04-11T14:03:25.05Z</time></trkpt><trkpt lat="44.9265681" lon="8.9638015"><ele>132.0</ele><time>2026-04-11T14:03:26.05Z</time></trkpt><trkpt lat="44.9266469" lon="8.9639882"><ele>131.66666666666666</ele><time>2026-04-11T14:03:27.05Z</time></trkpt><trkpt lat="44.926706" lon="8.9641987"><ele>131.33333333333331</ele><time>2026-04-11T14:03:28.05Z</time></trkpt><trkpt lat="44.926758" lon="8.9644298"><ele>131.0</ele><time>2026-04-11T14:03:29.05Z</time></trkpt><trkpt lat="44.9268066" lon="8.9646832"><ele>131.0</ele><time>2026-04-11T14:03:30.05Z</time></trkpt><trkpt lat="44.9268531" lon="8.9649361"><ele>131.0</ele><time>2026-04-11T14:03:31.05Z</time></trkpt><trkpt lat="44.9268973" lon="8.9651887"><ele>131.0</ele><time>2026-04-11T14:03:32.05Z</time></trkpt><trkpt lat="44.9269446" lon="8.965454"><ele>130.33333333333331</ele><time>2026-04-11T14:03:33.05Z</time></trkpt><trkpt lat="44.9269932" lon="8.9657254"><ele>129.66666666666666</ele><time>2026-04-11T14:03:34.05Z</time></trkpt><trkpt lat="44.9270425" lon="8.9660015"><ele>129.0</ele><time>2026-04-11T14:03:35.05Z</time></trkpt><trkpt lat="44.9270974" lon="8.9662781"><ele>129.0</ele><time>2026-04-11T14:03:36.05Z</time></trkpt><trkpt lat="44.9271644" lon="8.966557"><ele>129.0</ele><time>2026-04-11T14:03:37.05Z</time></trkpt><trkpt lat="44.9272343" lon="8.9668244"><ele>129.0</ele><time>2026-04-11T14:03:38.05Z</time></trkpt><trkpt lat="44.9272985" lon="8.9670743"><ele>130.0</ele><time>2026-04-11T14:03:39.049Z</time></trkpt><trkpt lat="44.9273597" lon="8.9673053"><ele>131.0</ele><time>2026-04-11T14:03:40.049Z</time></trkpt><trkpt lat="44.9274133" lon="8.9675136"><ele>132.0</ele><time>2026-04-11T14:03:41.049Z</time></trkpt><trkpt lat="44.9274599" lon="8.9677005"><ele>132.0</ele><time>2026-04-11T14:03:42.051Z</time></trkpt><trkpt lat="44.9275125" lon="8.9678682"><ele>132.0</ele><time>2026-04-11T14:03:43.051Z</time></trkpt><trkpt lat="44.9275859" lon="8.9680473"><ele>132.0</ele><time>2026-04-11T14:03:44.051Z</time></trkpt><trkpt lat="44.9276657" lon="8.9682466"><ele>132.0</ele><time>2026-04-11T14:03:45.05Z</time></trkpt><trkpt lat="44.9277471" lon="8.9684625"><ele>132.33333333333334</ele><time>2026-04-11T14:03:46.051Z</time></trkpt><trkpt lat="44.9278331" lon="8.9687015"><ele>132.66666666666669</ele><time>2026-04-11T14:03:47.051Z</time></trkpt><trkpt lat="44.9279263" lon="8.9689314"><ele>133.0</ele><time>2026-04-11T14:03:48.051Z</time></trkpt><trkpt lat="44.9280161" lon="8.9691545"><ele>133.0</ele><time>2026-04-11T14:03:49.051Z</time></trkpt><trkpt lat="44.9280916" lon="8.9693535"><ele>133.0</ele><time>2026-04-11T14:03:50.051Z</time></trkpt><trkpt lat="44.9281647" lon="8.9695379"><ele>133.0</ele><time>2026-04-11T14:03:51.051Z</time></trkpt><trkpt lat="44.9282419" lon="8.9697103"><ele>133.0</ele><time>2026-04-11T14:03:52.051Z</time></trkpt><trkpt lat="44.9283097" lon="8.969884"><ele>133.0</ele><time>2026-04-11T14:03:53.051Z</time></trkpt><trkpt lat="44.9283618" lon="8.9700622"><ele>133.0</ele><time>2026-04-11T14:03:54.051Z</time></trkpt><trkpt lat="44.9283996" lon="8.9702499"><ele>133.0</ele><time>2026-04-11T14:03:55.051Z</time></trkpt><trkpt lat="44.9284385" lon="8.9704404"><ele>133.25</ele><time>2026-04-11T14:03:56.051Z</time></trkpt><trkpt lat="44.9284733" lon="8.9706341"><ele>133.5</ele><time>2026-04-11T14:03:57.051Z</time></trkpt><trkpt lat="44.9285146" lon="8.9708159"><ele>133.75</ele><time>2026-04-11T14:03:58.051Z</time></trkpt><trkpt lat="44.9285566" lon="8.9709514"><ele>134.0</ele><time>2026-04-11T14:03:59.051Z</time></trkpt><trkpt lat="44.9286" lon="8.9710562"><ele>134.0</ele><time>2026-04-11T14:04:00.05Z</time></trkpt><trkpt lat="44.9286568" lon="8.9711251"><ele>134.0</ele><time>2026-04-11T14:04:01.051Z</time></trkpt><trkpt lat="44.9287242" lon="8.971139"><ele>134.0</ele><time>2026-04-11T14:04:02.051Z</time></trkpt><trkpt lat="44.9288095" lon="8.9711107"><ele>134.0</ele><time>2026-04-11T14:04:03.051Z</time></trkpt><trkpt lat="44.9289044" lon="8.9710494"><ele>134.0</ele><time>2026-04-11T14:04:04.051Z</time></trkpt><trkpt lat="44.9290272" lon="8.9709886"><ele>134.0</ele><time>2026-04-11T14:04:05.05Z</time></trkpt><trkpt lat="44.929156" lon="8.9709231"><ele>134.0</ele><time>2026-04-11T14:04:06.051Z</time></trkpt><trkpt lat="44.9292945" lon="8.9708567"><ele>134.0</ele><time>2026-04-11T14:04:07.051Z</time></trkpt><trkpt lat="44.929445" lon="8.9707847"><ele>134.0</ele><time>2026-04-11T14:04:08.05Z</time></trkpt><trkpt lat="44.9295957" lon="8.970715"><ele>134.0</ele><time>2026-04-11T14:04:09.051Z</time></trkpt><trkpt lat="44.9297314" lon="8.9706522"><ele>134.0</ele><time>2026-04-11T14:04:10.05Z</time></trkpt><trkpt lat="44.9298703" lon="8.970616"><ele>134.0</ele><time>2026-04-11T14:04:11.051Z</time></trkpt><trkpt lat="44.9300204" lon="8.9706034"><ele>134.0</ele><time>2026-04-11T14:04:12.051Z</time></trkpt><trkpt lat="44.9301761" lon="8.9706223"><ele>134.33333333333331</ele><time>2026-04-11T14:04:13.051Z</time></trkpt><trkpt lat="44.9303366" lon="8.9706658"><ele>134.66666666666666</ele><time>2026-04-11T14:04:14.051Z</time></trkpt><trkpt lat="44.9305028" lon="8.9707137"><ele>135.0</ele><time>2026-04-11T14:04:15.05Z</time></trkpt><trkpt lat="44.9306739" lon="8.9707574"><ele>135.0</ele><time>2026-04-11T14:04:16.05Z</time></trkpt><trkpt lat="44.9308465" lon="8.9708043"><ele>135.0</ele><time>2026-04-11T14:04:17.051Z</time></trkpt><trkpt lat="44.9310181" lon="8.9708634"><ele>135.0</ele><time>2026-04-11T14:04:18.051Z</time></trkpt><trkpt lat="44.931187" lon="8.9709096"><ele>134.33333333333334</ele><time>2026-04-11T14:04:19.051Z</time></trkpt><trkpt lat="44.9313429" lon="8.9709567"><ele>133.66666666666669</ele><time>2026-04-11T14:04:20.051Z</time></trkpt><trkpt lat="44.9314978" lon="8.9710087"><ele>133.0</ele><time>2026-04-11T14:04:21.05Z</time></trkpt><trkpt lat="44.9316439" lon="8.9710428"><ele>132.25</ele><time>2026-04-11T14:04:22.051Z</time></trkpt><trkpt lat="44.9317919" lon="8.9710713"><ele>131.5</ele><time>2026-04-11T14:04:23.05Z</time></trkpt><trkpt lat="44.9319407" lon="8.9710938"><ele>130.75</ele><time>2026-04-11T14:04:24.051Z</time></trkpt><trkpt lat="44.9320892" lon="8.9711159"><ele>130.0</ele><time>2026-04-11T14:04:25.051Z</time></trkpt><trkpt lat="44.9322306" lon="8.9711436"><ele>130.0</ele><time>2026-04-11T14:04:26.051Z</time></trkpt><trkpt lat="44.9323618" lon="8.9711619"><ele>130.0</ele><time>2026-04-11T14:04:27.051Z</time></trkpt><trkpt lat="44.9324782" lon="8.9711841"><ele>130.0</ele><time>2026-04-11T14:04:28.051Z</time></trkpt><trkpt lat="44.9325927" lon="8.9712013"><ele>130.0</ele><time>2026-04-11T14:04:29.051Z</time></trkpt><trkpt lat="44.9327045" lon="8.9712225"><ele>129.83333333333334</ele><time>2026-04-11T14:04:30.051Z</time></trkpt><trkpt lat="44.9328101" lon="8.9712495"><ele>129.66666666666669</ele><time>2026-04-11T14:04:31.052Z</time></trkpt><trkpt lat="44.9329072" lon="8.9712708"><ele>129.5</ele><time>2026-04-11T14:04:32.052Z</time></trkpt><trkpt lat="44.9329909" lon="8.9712899"><ele>129.33333333333334</ele><time>2026-04-11T14:04:33.052Z</time></trkpt><trkpt lat="44.933069" lon="8.9713077"><ele>129.16666666666666</ele><time>2026-04-11T14:04:34.052Z</time></trkpt><trkpt lat="44.933135" lon="8.9713098"><ele>129.0</ele><time>2026-04-11T14:04:35.052Z</time></trkpt><trkpt lat="44.9332465" lon="8.9713199"><ele>129.0</ele><time>2026-04-11T14:04:37.052Z</time></trkpt><trkpt lat="44.9333454" lon="8.9713492"><ele>129.0</ele><time>2026-04-11T14:04:39.051Z</time></trkpt><trkpt lat="44.933455" lon="8.9713888"><ele>129.0</ele><time>2026-04-11T14:04:41.052Z</time></trkpt><trkpt lat="44.9335279" lon="8.9713945"><ele>129.0</ele><time>2026-04-11T14:04:42.052Z</time></trkpt><trkpt lat="44.9336176" lon="8.9714096"><ele>129.0</ele><time>2026-04-11T14:04:43.052Z</time></trkpt><trkpt lat="44.9337157" lon="8.9714212"><ele>129.0</ele><time>2026-04-11T14:04:44.052Z</time></trkpt><trkpt lat="44.9338208" lon="8.9714425"><ele>129.0</ele><time>2026-04-11T14:04:45.052Z</time></trkpt><trkpt lat="44.9339266" lon="8.9714634"><ele>129.0</ele><time>2026-04-11T14:04:46.052Z</time></trkpt><trkpt lat="44.9340379" lon="8.971482"><ele>129.0</ele><time>2026-04-11T14:04:47.052Z</time></trkpt><trkpt lat="44.9341525" lon="8.9715017"><ele>129.0</ele><time>2026-04-11T14:04:48.052Z</time></trkpt><trkpt lat="44.9342703" lon="8.9715355"><ele>128.75</ele><time>2026-04-11T14:04:49.052Z</time></trkpt><trkpt lat="44.9343793" lon="8.9715872"><ele>128.5</ele><time>2026-04-11T14:04:50.052Z</time></trkpt><trkpt lat="44.9344704" lon="8.9716675"><ele>128.25</ele><time>2026-04-11T14:04:51.052Z</time></trkpt><trkpt lat="44.9345643" lon="8.9717514"><ele>128.0</ele><time>2026-04-11T14:04:52.052Z</time></trkpt><trkpt lat="44.9346524" lon="8.9718742"><ele>128.0</ele><time>2026-04-11T14:04:53.052Z</time></trkpt><trkpt lat="44.9347388" lon="8.9720189"><ele>128.0</ele><time>2026-04-11T14:04:54.052Z</time></trkpt><trkpt lat="44.9348222" lon="8.9721809"><ele>128.0</ele><time>2026-04-11T14:04:55.052Z</time></trkpt><trkpt lat="44.9349047" lon="8.9723642"><ele>128.0</ele><time>2026-04-11T14:04:56.052Z</time></trkpt><trkpt lat="44.934981" lon="8.972563"><ele>128.0</ele><time>2026-04-11T14:04:57.052Z</time></trkpt><trkpt lat="44.9350431" lon="8.9727621"><ele>128.0</ele><time>2026-04-11T14:04:58.052Z</time></trkpt><trkpt lat="44.9350919" lon="8.9729452"><ele>128.0</ele><time>2026-04-11T14:04:59.052Z</time></trkpt><trkpt lat="44.9351366" lon="8.9731219"><ele>128.0</ele><time>2026-04-11T14:05:00.052Z</time></trkpt><trkpt lat="44.9351753" lon="8.9732739"><ele>127.80000000000001</ele><time>2026-04-11T14:05:01.051Z</time></trkpt><trkpt lat="44.935217" lon="8.9734184"><ele>127.60000000000001</ele><time>2026-04-11T14:05:02.052Z</time></trkpt><trkpt lat="44.9352735" lon="8.973548"><ele>127.39999999999999</ele><time>2026-04-11T14:05:03.051Z</time></trkpt><trkpt lat="44.9353497" lon="8.9736549"><ele>127.19999999999999</ele><time>2026-04-11T14:05:04.052Z</time></trkpt><trkpt lat="44.9354494" lon="8.9737258"><ele>127.0</ele><time>2026-04-11T14:05:05.052Z</time></trkpt><trkpt lat="44.9355688" lon="8.973765"><ele>127.0</ele><time>2026-04-11T14:05:06.052Z</time></trkpt><trkpt lat="44.935702" lon="8.9737841"><ele>127.0</ele><time>2026-04-11T14:05:07.052Z</time></trkpt><trkpt lat="44.9358491" lon="8.973795"><ele>127.0</ele><time>2026-04-11T14:05:08.052Z</time></trkpt><trkpt lat="44.9360008" lon="8.9738359"><ele>127.0</ele><time>2026-04-11T14:05:09.052Z</time></trkpt><trkpt lat="44.9361546" lon="8.9738526"><ele>127.0</ele><time>2026-04-11T14:05:10.052Z</time></trkpt><trkpt lat="44.9363166" lon="8.9738754"><ele>127.0</ele><time>2026-04-11T14:05:11.052Z</time></trkpt><trkpt lat="44.9364962" lon="8.9739041"><ele>127.0</ele><time>2026-04-11T14:05:12.052Z</time></trkpt><trkpt lat="44.9366759" lon="8.9739273"><ele>126.0</ele><time>2026-04-11T14:05:13.051Z</time></trkpt><trkpt lat="44.9368622" lon="8.973955"><ele>125.0</ele><time>2026-04-11T14:05:14.052Z</time></trkpt><trkpt lat="44.937047" lon="8.973979"><ele>124.0</ele><time>2026-04-11T14:05:15.052Z</time></trkpt><trkpt lat="44.9372092" lon="8.9740083"><ele>124.0</ele><time>2026-04-11T14:05:16.052Z</time></trkpt><trkpt lat="44.9373609" lon="8.9740329"><ele>124.0</ele><time>2026-04-11T14:05:17.052Z</time></trkpt><trkpt lat="44.9375038" lon="8.9740457"><ele>124.0</ele><time>2026-04-11T14:05:18.052Z</time></trkpt><trkpt lat="44.9376286" lon="8.9740452"><ele>124.0</ele><time>2026-04-11T14:05:19.052Z</time></trkpt><trkpt lat="44.9377395" lon="8.9740236"><ele>123.75</ele><time>2026-04-11T14:05:20.052Z</time></trkpt><trkpt lat="44.9378414" lon="8.9739595"><ele>123.5</ele><time>2026-04-11T14:05:21.053Z</time></trkpt><trkpt lat="44.9379324" lon="8.973856"><ele>123.25</ele><time>2026-04-11T14:05:22.053Z</time></trkpt><trkpt lat="44.9380066" lon="8.973711"><ele>123.0</ele><time>2026-04-11T14:05:23.052Z</time></trkpt><trkpt lat="44.938074" lon="8.9735398"><ele>123.0</ele><time>2026-04-11T14:05:24.053Z</time></trkpt><trkpt lat="44.9381451" lon="8.9733614"><ele>123.0</ele><time>2026-04-11T14:05:25.053Z</time></trkpt><trkpt lat="44.9382317" lon="8.9731822"><ele>123.0</ele><time>2026-04-11T14:05:26.053Z</time></trkpt><trkpt lat="44.9383359" lon="8.9729962"><ele>122.66666666666666</ele><time>2026-04-11T14:05:27.053Z</time></trkpt><trkpt lat="44.9384465" lon="8.9728203"><ele>122.33333333333333</ele><time>2026-04-11T14:05:28.052Z</time></trkpt><trkpt lat="44.938562" lon="8.9726699"><ele>122.0</ele><time>2026-04-11T14:05:29.053Z</time></trkpt><trkpt lat="44.9386744" lon="8.9725431"><ele>122.25</ele><time>2026-04-11T14:05:30.053Z</time></trkpt><trkpt lat="44.9387828" lon="8.9724394"><ele>122.5</ele><time>2026-04-11T14:05:31.053Z</time></trkpt><trkpt lat="44.9388932" lon="8.9723574"><ele>122.75</ele><time>2026-04-11T14:05:32.053Z</time></trkpt><trkpt lat="44.9389973" lon="8.9722968"><ele>123.0</ele><time>2026-04-11T14:05:33.053Z</time></trkpt><trkpt lat="44.9391113" lon="8.9722603"><ele>122.5</ele><time>2026-04-11T14:05:34.053Z</time></trkpt><trkpt lat="44.939233" lon="8.9722526"><ele>122.0</ele><time>2026-04-11T14:05:35.053Z</time></trkpt><trkpt lat="44.9393646" lon="8.9722736"><ele>121.5</ele><time>2026-04-11T14:05:36.053Z</time></trkpt><trkpt lat="44.9395035" lon="8.9723109"><ele>121.0</ele><time>2026-04-11T14:05:37.052Z</time></trkpt><trkpt lat="44.939651" lon="8.9723534"><ele>121.0</ele><time>2026-04-11T14:05:38.053Z</time></trkpt><trkpt lat="44.9397987" lon="8.9723866"><ele>121.0</ele><time>2026-04-11T14:05:39.053Z</time></trkpt><trkpt lat="44.9399498" lon="8.97243"><ele>121.0</ele><time>2026-04-11T14:05:40.053Z</time></trkpt><trkpt lat="44.9401074" lon="8.9724727"><ele>121.0</ele><time>2026-04-11T14:05:41.053Z</time></trkpt><trkpt lat="44.9402699" lon="8.9725169"><ele>121.0</ele><time>2026-04-11T14:05:42.053Z</time></trkpt><trkpt lat="44.9404378" lon="8.9725564"><ele>121.0</ele><time>2026-04-11T14:05:43.053Z</time></trkpt><trkpt lat="44.9406094" lon="8.9726018"><ele>121.0</ele><time>2026-04-11T14:05:44.053Z</time></trkpt><trkpt lat="44.9407865" lon="8.9726455"><ele>121.0</ele><time>2026-04-11T14:05:45.053Z</time></trkpt><trkpt lat="44.9409661" lon="8.9726943"><ele>121.0</ele><time>2026-04-11T14:05:46.053Z</time></trkpt><trkpt lat="44.9411501" lon="8.9727404"><ele>121.33333333333334</ele><time>2026-04-11T14:05:47.052Z</time></trkpt><trkpt lat="44.9413345" lon="8.9727902"><ele>121.66666666666666</ele><time>2026-04-11T14:05:48.053Z</time></trkpt><trkpt lat="44.9415128" lon="8.9728353"><ele>122.0</ele><time>2026-04-11T14:05:49.053Z</time></trkpt><trkpt lat="44.9416749" lon="8.9728776"><ele>121.5</ele><time>2026-04-11T14:05:50.053Z</time></trkpt><trkpt lat="44.941829" lon="8.9729175"><ele>121.0</ele><time>2026-04-11T14:05:51.053Z</time></trkpt><trkpt lat="44.9419759" lon="8.9729542"><ele>120.5</ele><time>2026-04-11T14:05:52.052Z</time></trkpt><trkpt lat="44.9421167" lon="8.9729922"><ele>120.0</ele><time>2026-04-11T14:05:53.053Z</time></trkpt><trkpt lat="44.9422596" lon="8.9730374"><ele>120.0</ele><time>2026-04-11T14:05:54.053Z</time></trkpt><trkpt lat="44.9424066" lon="8.9730944"><ele>120.0</ele><time>2026-04-11T14:05:55.053Z</time></trkpt><trkpt lat="44.9425585" lon="8.9731579"><ele>120.0</ele><time>2026-04-11T14:05:56.053Z</time></trkpt><trkpt lat="44.9427148" lon="8.9732276"><ele>119.66666666666666</ele><time>2026-04-11T14:05:57.053Z</time></trkpt><trkpt lat="44.9428746" lon="8.9733067"><ele>119.33333333333333</ele><time>2026-04-11T14:05:58.053Z</time></trkpt><trkpt lat="44.9430392" lon="8.9733914"><ele>119.0</ele><time>2026-04-11T14:05:59.053Z</time></trkpt><trkpt lat="44.9432057" lon="8.9734757"><ele>119.0</ele><time>2026-04-11T14:06:00.053Z</time></trkpt><trkpt lat="44.9433717" lon="8.9735599"><ele>119.0</ele><time>2026-04-11T14:06:01.053Z</time></trkpt><trkpt lat="44.9435375" lon="8.9736401"><ele>119.0</ele><time>2026-04-11T14:06:02.053Z</time></trkpt><trkpt lat="44.9437019" lon="8.9737156"><ele>119.0</ele><time>2026-04-11T14:06:03.053Z</time></trkpt><trkpt lat="44.9438692" lon="8.9737807"><ele>119.0</ele><time>2026-04-11T14:06:04.053Z</time></trkpt><trkpt lat="44.9440261" lon="8.9738252"><ele>119.0</ele><time>2026-04-11T14:06:05.053Z</time></trkpt><trkpt lat="44.9441704" lon="8.9738639"><ele>119.25</ele><time>2026-04-11T14:06:06.053Z</time></trkpt><trkpt lat="44.9443111" lon="8.9738975"><ele>119.5</ele><time>2026-04-11T14:06:07.053Z</time></trkpt><trkpt lat="44.9444357" lon="8.9739288"><ele>119.75</ele><time>2026-04-11T14:06:08.052Z</time></trkpt><trkpt lat="44.9445378" lon="8.9739567"><ele>120.0</ele><time>2026-04-11T14:06:09.053Z</time></trkpt><trkpt lat="44.9446202" lon="8.9739758"><ele>120.0</ele><time>2026-04-11T14:06:10.054Z</time></trkpt><trkpt lat="44.9447091" lon="8.9740281"><ele>120.0</ele><time>2026-04-11T14:06:12.054Z</time></trkpt><trkpt lat="44.9447239" lon="8.9741686"><ele>120.0</ele><time>2026-04-11T14:06:14.054Z</time></trkpt><trkpt lat="44.9447109" lon="8.9742905"><ele>120.0</ele><time>2026-04-11T14:06:15.053Z</time></trkpt><trkpt lat="44.9446973" lon="8.9744499"><ele>120.0</ele><time>2026-04-11T14:06:16.054Z</time></trkpt><trkpt lat="44.9446773" lon="8.974629"><ele>121.0</ele><time>2026-04-11T14:06:17.054Z</time></trkpt><trkpt lat="44.9446569" lon="8.9748288"><ele>122.0</ele><time>2026-04-11T14:06:18.054Z</time></trkpt><trkpt lat="44.9446405" lon="8.9750339"><ele>123.0</ele><time>2026-04-11T14:06:19.053Z</time></trkpt><trkpt lat="44.9446136" lon="8.97526"><ele>123.66666666666666</ele><time>2026-04-11T14:06:20.053Z</time></trkpt><trkpt lat="44.9445865" lon="8.9754991"><ele>124.33333333333333</ele><time>2026-04-11T14:06:21.054Z</time></trkpt><trkpt lat="44.9445546" lon="8.9757577"><ele>125.0</ele><time>2026-04-11T14:06:22.054Z</time></trkpt><trkpt lat="44.9445235" lon="8.9760128"><ele>125.0</ele><time>2026-04-11T14:06:23.054Z</time></trkpt><trkpt lat="44.9445048" lon="8.9762321"><ele>125.0</ele><time>2026-04-11T14:06:24.053Z</time></trkpt><trkpt lat="44.9444898" lon="8.9764298"><ele>125.0</ele><time>2026-04-11T14:06:25.054Z</time></trkpt><trkpt lat="44.9444747" lon="8.9766135"><ele>125.0</ele><time>2026-04-11T14:06:26.054Z</time></trkpt><trkpt lat="44.9444485" lon="8.976825"><ele>124.5</ele><time>2026-04-11T14:06:27.054Z</time></trkpt><trkpt lat="44.9444555" lon="8.9770101"><ele>124.0</ele><time>2026-04-11T14:06:28.054Z</time></trkpt><trkpt lat="44.9444833" lon="8.9771763"><ele>123.5</ele><time>2026-04-11T14:06:29.054Z</time></trkpt><trkpt lat="44.9445206" lon="8.977326"><ele>123.0</ele><time>2026-04-11T14:06:30.054Z</time></trkpt><trkpt lat="44.9445744" lon="8.977462"><ele>122.5</ele><time>2026-04-11T14:06:31.054Z</time></trkpt><trkpt lat="44.944645" lon="8.9776012"><ele>122.0</ele><time>2026-04-11T14:06:32.053Z</time></trkpt><trkpt lat="44.9447192" lon="8.9777559"><ele>121.5</ele><time>2026-04-11T14:06:33.054Z</time></trkpt><trkpt lat="44.9447842" lon="8.9779203"><ele>121.0</ele><time>2026-04-11T14:06:34.054Z</time></trkpt><trkpt lat="44.944835" lon="8.9780859"><ele>121.0</ele><time>2026-04-11T14:06:35.054Z</time></trkpt><trkpt lat="44.9448614" lon="8.9782521"><ele>121.0</ele><time>2026-04-11T14:06:36.054Z</time></trkpt><trkpt lat="44.9448631" lon="8.978424"><ele>121.0</ele><time>2026-04-11T14:06:37.054Z</time></trkpt><trkpt lat="44.9448436" lon="8.978614"><ele>121.0</ele><time>2026-04-11T14:06:38.054Z</time></trkpt><trkpt lat="44.9448266" lon="8.9788173"><ele>121.0</ele><time>2026-04-11T14:06:39.053Z</time></trkpt><trkpt lat="44.9448053" lon="8.9790189"><ele>121.0</ele><time>2026-04-11T14:06:40.054Z</time></trkpt><trkpt lat="44.9447825" lon="8.9792234"><ele>121.0</ele><time>2026-04-11T14:06:41.054Z</time></trkpt><trkpt lat="44.9447585" lon="8.9794281"><ele>121.0</ele><time>2026-04-11T14:06:42.054Z</time></trkpt><trkpt lat="44.9447361" lon="8.9796306"><ele>120.75</ele><time>2026-04-11T14:06:43.054Z</time></trkpt><trkpt lat="44.9447157" lon="8.9798287"><ele>120.5</ele><time>2026-04-11T14:06:44.054Z</time></trkpt><trkpt lat="44.9446922" lon="8.9800251"><ele>120.25</ele><time>2026-04-11T14:06:45.054Z</time></trkpt><trkpt lat="44.9446676" lon="8.9802195"><ele>120.0</ele><time>2026-04-11T14:06:46.054Z</time></trkpt><trkpt lat="44.944651" lon="8.9804159"><ele>120.0</ele><time>2026-04-11T14:06:47.054Z</time></trkpt><trkpt lat="44.9446337" lon="8.9806182"><ele>120.0</ele><time>2026-04-11T14:06:48.054Z</time></trkpt><trkpt lat="44.9446136" lon="8.9808204"><ele>120.0</ele><time>2026-04-11T14:06:49.054Z</time></trkpt><trkpt lat="44.9445928" lon="8.9810242"><ele>120.0</ele><time>2026-04-11T14:06:50.054Z</time></trkpt><trkpt lat="44.9445698" lon="8.9812247"><ele>120.0</ele><time>2026-04-11T14:06:51.054Z</time></trkpt><trkpt lat="44.9445519" lon="8.981422"><ele>120.0</ele><time>2026-04-11T14:06:52.054Z</time></trkpt><trkpt lat="44.944532" lon="8.9816164"><ele>120.0</ele><time>2026-04-11T14:06:53.054Z</time></trkpt><trkpt lat="44.9445079" lon="8.981816"><ele>120.0</ele><time>2026-04-11T14:06:54.054Z</time></trkpt><trkpt lat="44.9444862" lon="8.9820096"><ele>120.25</ele><time>2026-04-11T14:06:55.054Z</time></trkpt><trkpt lat="44.9444664" lon="8.9822009"><ele>120.5</ele><time>2026-04-11T14:06:56.054Z</time></trkpt><trkpt lat="44.9444427" lon="8.9823953"><ele>120.75</ele><time>2026-04-11T14:06:57.054Z</time></trkpt><trkpt lat="44.9444188" lon="8.9825915"><ele>121.0</ele><time>2026-04-11T14:06:58.054Z</time></trkpt><trkpt lat="44.9443981" lon="8.9827898"><ele>121.0</ele><time>2026-04-11T14:06:59.055Z</time></trkpt><trkpt lat="44.944375" lon="8.9829907"><ele>121.0</ele><time>2026-04-11T14:07:00.055Z</time></trkpt><trkpt lat="44.9443541" lon="8.9831911"><ele>121.0</ele><time>2026-04-11T14:07:01.055Z</time></trkpt><trkpt lat="44.9443341" lon="8.9833889"><ele>121.0</ele><time>2026-04-11T14:07:02.054Z</time></trkpt><trkpt lat="44.9443141" lon="8.983588"><ele>121.0</ele><time>2026-04-11T14:07:03.054Z</time></trkpt><trkpt lat="44.9442927" lon="8.9837893"><ele>121.0</ele><time>2026-04-11T14:07:04.055Z</time></trkpt><trkpt lat="44.9442708" lon="8.9839941"><ele>121.0</ele><time>2026-04-11T14:07:05.055Z</time></trkpt><trkpt lat="44.9442531" lon="8.9842018"><ele>121.0</ele><time>2026-04-11T14:07:06.054Z</time></trkpt><trkpt lat="44.9442347" lon="8.9844073"><ele>120.75</ele><time>2026-04-11T14:07:07.055Z</time></trkpt><trkpt lat="44.9442136" lon="8.9846138"><ele>120.5</ele><time>2026-04-11T14:07:08.055Z</time></trkpt><trkpt lat="44.9441854" lon="8.9848218"><ele>120.25</ele><time>2026-04-11T14:07:09.055Z</time></trkpt><trkpt lat="44.9441636" lon="8.9850304"><ele>120.0</ele><time>2026-04-11T14:07:10.054Z</time></trkpt><trkpt lat="44.9441387" lon="8.9852398"><ele>120.66666666666666</ele><time>2026-04-11T14:07:11.054Z</time></trkpt><trkpt lat="44.9441167" lon="8.9854501"><ele>121.33333333333333</ele><time>2026-04-11T14:07:12.055Z</time></trkpt><trkpt lat="44.9440955" lon="8.9856651"><ele>122.0</ele><time>2026-04-11T14:07:13.055Z</time></trkpt><trkpt lat="44.9440725" lon="8.9858796"><ele>122.0</ele><time>2026-04-11T14:07:14.055Z</time></trkpt><trkpt lat="44.9440503" lon="8.986098"><ele>122.0</ele><time>2026-04-11T14:07:15.055Z</time></trkpt><trkpt lat="44.9440286" lon="8.9863115"><ele>122.0</ele><time>2026-04-11T14:07:16.055Z</time></trkpt><trkpt lat="44.9440054" lon="8.986528"><ele>122.33333333333333</ele><time>2026-04-11T14:07:17.055Z</time></trkpt><trkpt lat="44.9439821" lon="8.9867501"><ele>122.66666666666666</ele><time>2026-04-11T14:07:18.055Z</time></trkpt><trkpt lat="44.9439573" lon="8.9869702"><ele>123.0</ele><time>2026-04-11T14:07:19.054Z</time></trkpt><trkpt lat="44.9439335" lon="8.9871935"><ele>123.0</ele><time>2026-04-11T14:07:20.054Z</time></trkpt><trkpt lat="44.9439096" lon="8.9874143"><ele>123.0</ele><time>2026-04-11T14:07:21.055Z</time></trkpt><trkpt lat="44.9438864" lon="8.9876409"><ele>123.0</ele><time>2026-04-11T14:07:22.055Z</time></trkpt><trkpt lat="44.9438614" lon="8.9878629"><ele>123.33333333333334</ele><time>2026-04-11T14:07:23.055Z</time></trkpt><trkpt lat="44.9438405" lon="8.9880887"><ele>123.66666666666667</ele><time>2026-04-11T14:07:24.055Z</time></trkpt><trkpt lat="44.9438184" lon="8.9883019"><ele>124.0</ele><time>2026-04-11T14:07:25.055Z</time></trkpt><trkpt lat="44.9437963" lon="8.9885119"><ele>124.0</ele><time>2026-04-11T14:07:26.055Z</time></trkpt><trkpt lat="44.9437763" lon="8.9887102"><ele>124.0</ele><time>2026-04-11T14:07:27.054Z</time></trkpt><trkpt lat="44.9437561" lon="8.9889085"><ele>124.0</ele><time>2026-04-11T14:07:28.055Z</time></trkpt><trkpt lat="44.9437344" lon="8.989111"><ele>124.0</ele><time>2026-04-11T14:07:29.054Z</time></trkpt><trkpt lat="44.9437092" lon="8.9893185"><ele>123.66666666666667</ele><time>2026-04-11T14:07:30.055Z</time></trkpt><trkpt lat="44.9436889" lon="8.9895319"><ele>123.33333333333334</ele><time>2026-04-11T14:07:31.055Z</time></trkpt><trkpt lat="44.9436666" lon="8.989753"><ele>123.0</ele><time>2026-04-11T14:07:32.054Z</time></trkpt><trkpt lat="44.9436407" lon="8.9899833"><ele>123.66666666666666</ele><time>2026-04-11T14:07:33.055Z</time></trkpt><trkpt lat="44.9436156" lon="8.9902195"><ele>124.33333333333333</ele><time>2026-04-11T14:07:34.055Z</time></trkpt><trkpt lat="44.943589" lon="8.990464"><ele>125.0</ele><time>2026-04-11T14:07:35.055Z</time></trkpt><trkpt lat="44.9435633" lon="8.9907082"><ele>125.0</ele><time>2026-04-11T14:07:36.055Z</time></trkpt><trkpt lat="44.9435364" lon="8.9909596"><ele>125.0</ele><time>2026-04-11T14:07:37.055Z</time></trkpt><trkpt lat="44.9435069" lon="8.9912014"><ele>125.0</ele><time>2026-04-11T14:07:38.054Z</time></trkpt><trkpt lat="44.9434794" lon="8.9914454"><ele>125.66666666666666</ele><time>2026-04-11T14:07:39.055Z</time></trkpt><trkpt lat="44.943458" lon="8.9916889"><ele>126.33333333333334</ele><time>2026-04-11T14:07:40.055Z</time></trkpt><trkpt lat="44.9434391" lon="8.9919326"><ele>127.0</ele><time>2026-04-11T14:07:41.055Z</time></trkpt><trkpt lat="44.9434201" lon="8.9921747"><ele>127.0</ele><time>2026-04-11T14:07:42.055Z</time></trkpt><trkpt lat="44.9434033" lon="8.9924183"><ele>127.0</ele><time>2026-04-11T14:07:43.054Z</time></trkpt><trkpt lat="44.9433869" lon="8.9926576"><ele>127.0</ele><time>2026-04-11T14:07:44.055Z</time></trkpt><trkpt lat="44.9433725" lon="8.9929007"><ele>127.66666666666667</ele><time>2026-04-11T14:07:45.054Z</time></trkpt><trkpt lat="44.9433566" lon="8.9931406"><ele>128.33333333333334</ele><time>2026-04-11T14:07:46.054Z</time></trkpt><trkpt lat="44.9433378" lon="8.9933816"><ele>129.0</ele><time>2026-04-11T14:07:47.055Z</time></trkpt><trkpt lat="44.9433219" lon="8.9936202"><ele>129.33333333333334</ele><time>2026-04-11T14:07:48.056Z</time></trkpt><trkpt lat="44.9433054" lon="8.9938633"><ele>129.66666666666669</ele><time>2026-04-11T14:07:49.056Z</time></trkpt><trkpt lat="44.9432913" lon="8.9940995"><ele>130.0</ele><time>2026-04-11T14:07:50.056Z</time></trkpt><trkpt lat="44.9432738" lon="8.9943408"><ele>130.0</ele><time>2026-04-11T14:07:51.056Z</time></trkpt><trkpt lat="44.9432533" lon="8.9945844"><ele>130.0</ele><time>2026-04-11T14:07:52.056Z</time></trkpt><trkpt lat="44.9432362" lon="8.994826"><ele>130.0</ele><time>2026-04-11T14:07:53.056Z</time></trkpt><trkpt lat="44.9432194" lon="8.9950458"><ele>130.0</ele><time>2026-04-11T14:07:54.055Z</time></trkpt><trkpt lat="44.9432015" lon="8.9952453"><ele>130.0</ele><time>2026-04-11T14:07:55.056Z</time></trkpt><trkpt lat="44.9431892" lon="8.995429"><ele>130.0</ele><time>2026-04-11T14:07:56.055Z</time></trkpt><trkpt lat="44.9431719" lon="8.9955864"><ele>130.0</ele><time>2026-04-11T14:07:57.056Z</time></trkpt><trkpt lat="44.9431535" lon="8.9957342"><ele>129.8</ele><time>2026-04-11T14:07:58.056Z</time></trkpt><trkpt lat="44.9431367" lon="8.9958827"><ele>129.6</ele><time>2026-04-11T14:07:59.056Z</time></trkpt><trkpt lat="44.9431185" lon="8.9960373"><ele>129.4</ele><time>2026-04-11T14:08:00.056Z</time></trkpt><trkpt lat="44.9430953" lon="8.996191"><ele>129.2</ele><time>2026-04-11T14:08:01.055Z</time></trkpt><trkpt lat="44.9430734" lon="8.9963454"><ele>129.0</ele><time>2026-04-11T14:08:02.056Z</time></trkpt><trkpt lat="44.943057" lon="8.996503"><ele>129.0</ele><time>2026-04-11T14:08:03.056Z</time></trkpt><trkpt lat="44.9430379" lon="8.9966596"><ele>129.0</ele><time>2026-04-11T14:08:04.055Z</time></trkpt><trkpt lat="44.9430158" lon="8.9968222"><ele>129.0</ele><time>2026-04-11T14:08:05.055Z</time></trkpt><trkpt lat="44.9429911" lon="8.9969898"><ele>129.0</ele><time>2026-04-11T14:08:06.056Z</time></trkpt><trkpt lat="44.9429671" lon="8.9971625"><ele>129.25</ele><time>2026-04-11T14:08:07.056Z</time></trkpt><trkpt lat="44.9429422" lon="8.997338"><ele>129.5</ele><time>2026-04-11T14:08:08.056Z</time></trkpt><trkpt lat="44.9429188" lon="8.9975171"><ele>129.75</ele><time>2026-04-11T14:08:09.055Z</time></trkpt><trkpt lat="44.9428943" lon="8.997698"><ele>130.0</ele><time>2026-04-11T14:08:10.056Z</time></trkpt><trkpt lat="44.9428689" lon="8.9978758"><ele>130.0</ele><time>2026-04-11T14:08:11.056Z</time></trkpt><trkpt lat="44.9428449" lon="8.9980492"><ele>130.0</ele><time>2026-04-11T14:08:12.056Z</time></trkpt><trkpt lat="44.9428227" lon="8.9982194"><ele>130.0</ele><time>2026-04-11T14:08:13.055Z</time></trkpt><trkpt lat="44.9427962" lon="8.9983909"><ele>130.0</ele><time>2026-04-11T14:08:14.056Z</time></trkpt><trkpt lat="44.9427674" lon="8.9985688"><ele>130.5</ele><time>2026-04-11T14:08:15.055Z</time></trkpt><trkpt lat="44.9427396" lon="8.9987527"><ele>131.0</ele><time>2026-04-11T14:08:16.056Z</time></trkpt><trkpt lat="44.9427149" lon="8.998946"><ele>131.5</ele><time>2026-04-11T14:08:17.056Z</time></trkpt><trkpt lat="44.942688" lon="8.9991447"><ele>132.0</ele><time>2026-04-11T14:08:18.056Z</time></trkpt><trkpt lat="44.9426608" lon="8.9993528"><ele>133.0</ele><time>2026-04-11T14:08:19.056Z</time></trkpt><trkpt lat="44.9426354" lon="8.9995658"><ele>134.0</ele><time>2026-04-11T14:08:20.055Z</time></trkpt><trkpt lat="44.9426112" lon="8.999783"><ele>135.0</ele><time>2026-04-11T14:08:21.056Z</time></trkpt><trkpt lat="44.9425841" lon="9.0000057"><ele>135.0</ele><time>2026-04-11T14:08:22.056Z</time></trkpt><trkpt lat="44.9425603" lon="9.0002286"><ele>135.0</ele><time>2026-04-11T14:08:23.056Z</time></trkpt><trkpt lat="44.9425359" lon="9.0004515"><ele>135.0</ele><time>2026-04-11T14:08:24.056Z</time></trkpt><trkpt lat="44.9425125" lon="9.0006704"><ele>134.33333333333334</ele><time>2026-04-11T14:08:25.056Z</time></trkpt><trkpt lat="44.9424895" lon="9.0008968"><ele>133.66666666666669</ele><time>2026-04-11T14:08:26.056Z</time></trkpt><trkpt lat="44.9424675" lon="9.0011223"><ele>133.0</ele><time>2026-04-11T14:08:27.056Z</time></trkpt><trkpt lat="44.9424386" lon="9.0013489"><ele>133.0</ele><time>2026-04-11T14:08:28.056Z</time></trkpt><trkpt lat="44.9424101" lon="9.0015737"><ele>133.0</ele><time>2026-04-11T14:08:29.055Z</time></trkpt><trkpt lat="44.942387" lon="9.0017923"><ele>133.0</ele><time>2026-04-11T14:08:30.056Z</time></trkpt><trkpt lat="44.9423534" lon="9.0020203"><ele>133.0</ele><time>2026-04-11T14:08:31.056Z</time></trkpt><trkpt lat="44.9423175" lon="9.002243"><ele>133.0</ele><time>2026-04-11T14:08:32.056Z</time></trkpt><trkpt lat="44.942292" lon="9.0024769"><ele>133.0</ele><time>2026-04-11T14:08:33.055Z</time></trkpt><trkpt lat="44.9422653" lon="9.0027056"><ele>133.0</ele><time>2026-04-11T14:08:34.056Z</time></trkpt><trkpt lat="44.9422378" lon="9.0029415"><ele>133.0</ele><time>2026-04-11T14:08:35.055Z</time></trkpt><trkpt lat="44.9422064" lon="9.003184"><ele>133.0</ele><time>2026-04-11T14:08:36.056Z</time></trkpt><trkpt lat="44.9421919" lon="9.0034172"><ele>133.33333333333334</ele><time>2026-04-11T14:08:37.056Z</time></trkpt><trkpt lat="44.9421815" lon="9.0036463"><ele>133.66666666666666</ele><time>2026-04-11T14:08:38.057Z</time></trkpt><trkpt lat="44.9421725" lon="9.0038717"><ele>134.0</ele><time>2026-04-11T14:08:39.056Z</time></trkpt><trkpt lat="44.9421679" lon="9.0040944"><ele>134.33333333333331</ele><time>2026-04-11T14:08:40.057Z</time></trkpt><trkpt lat="44.9421648" lon="9.0043135"><ele>134.66666666666666</ele><time>2026-04-11T14:08:41.056Z</time></trkpt><trkpt lat="44.9421632" lon="9.0045356"><ele>135.0</ele><time>2026-04-11T14:08:42.057Z</time></trkpt><trkpt lat="44.9421119" lon="9.0048099"><ele>134.66666666666666</ele><time>2026-04-11T14:08:43.057Z</time></trkpt><trkpt lat="44.9420841" lon="9.0050469"><ele>134.33333333333331</ele><time>2026-04-11T14:08:44.057Z</time></trkpt><trkpt lat="44.9420581" lon="9.0052861"><ele>134.0</ele><time>2026-04-11T14:08:45.057Z</time></trkpt><trkpt lat="44.9420365" lon="9.0055244"><ele>134.0</ele><time>2026-04-11T14:08:46.057Z</time></trkpt><trkpt lat="44.9420147" lon="9.0057638"><ele>134.0</ele><time>2026-04-11T14:08:47.057Z</time></trkpt><trkpt lat="44.9419938" lon="9.0060008"><ele>134.0</ele><time>2026-04-11T14:08:48.057Z</time></trkpt><trkpt lat="44.9419733" lon="9.0062381"><ele>134.0</ele><time>2026-04-11T14:08:49.057Z</time></trkpt><trkpt lat="44.9419528" lon="9.006475"><ele>134.0</ele><time>2026-04-11T14:08:50.056Z</time></trkpt><trkpt lat="44.9419342" lon="9.0067127"><ele>134.0</ele><time>2026-04-11T14:08:51.057Z</time></trkpt><trkpt lat="44.9419124" lon="9.0069503"><ele>134.0</ele><time>2026-04-11T14:08:52.057Z</time></trkpt><trkpt lat="44.9418879" lon="9.0071865"><ele>134.0</ele><time>2026-04-11T14:08:53.056Z</time></trkpt><trkpt lat="44.9418655" lon="9.0074269"><ele>134.0</ele><time>2026-04-11T14:08:54.056Z</time></trkpt><trkpt lat="44.9418431" lon="9.007663"><ele>134.33333333333331</ele><time>2026-04-11T14:08:55.057Z</time></trkpt><trkpt lat="44.941822" lon="9.007904"><ele>134.66666666666666</ele><time>2026-04-11T14:08:56.057Z</time></trkpt><trkpt lat="44.9417973" lon="9.0081402"><ele>135.0</ele><time>2026-04-11T14:08:57.057Z</time></trkpt><trkpt lat="44.9417763" lon="9.0083832"><ele>135.0</ele><time>2026-04-11T14:08:58.057Z</time></trkpt><trkpt lat="44.9417564" lon="9.0086232"><ele>135.0</ele><time>2026-04-11T14:08:59.057Z</time></trkpt><trkpt lat="44.9417359" lon="9.0088616"><ele>135.0</ele><time>2026-04-11T14:09:00.057Z</time></trkpt><trkpt lat="44.9417138" lon="9.0091061"><ele>135.33333333333334</ele><time>2026-04-11T14:09:01.057Z</time></trkpt><trkpt lat="44.9416918" lon="9.0093462"><ele>135.66666666666669</ele><time>2026-04-11T14:09:02.056Z</time></trkpt><trkpt lat="44.941671" lon="9.009587"><ele>136.0</ele><time>2026-04-11T14:09:03.057Z</time></trkpt><trkpt lat="44.9416505" lon="9.0098262"><ele>136.33333333333334</ele><time>2026-04-11T14:09:04.057Z</time></trkpt><trkpt lat="44.9416287" lon="9.0100628"><ele>136.66666666666666</ele><time>2026-04-11T14:09:05.057Z</time></trkpt><trkpt lat="44.9416053" lon="9.0102859"><ele>137.0</ele><time>2026-04-11T14:09:06.056Z</time></trkpt><trkpt lat="44.9415874" lon="9.010506"><ele>137.0</ele><time>2026-04-11T14:09:07.056Z</time></trkpt><trkpt lat="44.9415671" lon="9.0107032"><ele>137.0</ele><time>2026-04-11T14:09:08.057Z</time></trkpt><trkpt lat="44.9415507" lon="9.0108933"><ele>137.0</ele><time>2026-04-11T14:09:09.057Z</time></trkpt><trkpt lat="44.9415356" lon="9.0110641"><ele>137.0</ele><time>2026-04-11T14:09:10.057Z</time></trkpt><trkpt lat="44.9415208" lon="9.011219"><ele>137.33333333333331</ele><time>2026-04-11T14:09:11.057Z</time></trkpt><trkpt lat="44.9415079" lon="9.0113614"><ele>137.66666666666666</ele><time>2026-04-11T14:09:12.057Z</time></trkpt><trkpt lat="44.9414947" lon="9.0114898"><ele>138.0</ele><time>2026-04-11T14:09:13.057Z</time></trkpt><trkpt lat="44.9414848" lon="9.0116096"><ele>138.33333333333334</ele><time>2026-04-11T14:09:14.056Z</time></trkpt><trkpt lat="44.9414769" lon="9.0117071"><ele>138.66666666666669</ele><time>2026-04-11T14:09:15.057Z</time></trkpt><trkpt lat="44.94147" lon="9.0117956"><ele>139.0</ele><time>2026-04-11T14:09:16.057Z</time></trkpt><trkpt lat="44.9414447" lon="9.0119614"><ele>139.0</ele><time>2026-04-11T14:09:18.056Z</time></trkpt><trkpt lat="44.9414416" lon="9.0121272"><ele>139.0</ele><time>2026-04-11T14:09:20.057Z</time></trkpt><trkpt lat="44.941433" lon="9.0122604"><ele>139.0</ele><time>2026-04-11T14:09:22.057Z</time></trkpt><trkpt lat="44.9413601" lon="9.0123397"><ele>139.0</ele><time>2026-04-11T14:09:24.057Z</time></trkpt><trkpt lat="44.9412811" lon="9.0123509"><ele>139.0</ele><time>2026-04-11T14:09:25.057Z</time></trkpt><trkpt lat="44.9411817" lon="9.0123645"><ele>139.0</ele><time>2026-04-11T14:09:26.057Z</time></trkpt><trkpt lat="44.9410693" lon="9.0123809"><ele>139.0</ele><time>2026-04-11T14:09:27.057Z</time></trkpt><trkpt lat="44.9409486" lon="9.012395"><ele>139.0</ele><time>2026-04-11T14:09:28.057Z</time></trkpt><trkpt lat="44.940815" lon="9.0124142"><ele>139.0</ele><time>2026-04-11T14:09:29.057Z</time></trkpt><trkpt lat="44.9406708" lon="9.0124341"><ele>139.33333333333334</ele><time>2026-04-11T14:09:30.058Z</time></trkpt><trkpt lat="44.94052" lon="9.012453"><ele>139.66666666666666</ele><time>2026-04-11T14:09:31.058Z</time></trkpt><trkpt lat="44.9403567" lon="9.0124732"><ele>140.0</ele><time>2026-04-11T14:09:32.058Z</time></trkpt><trkpt lat="44.9401825" lon="9.0124958"><ele>140.0</ele><time>2026-04-11T14:09:33.058Z</time></trkpt><trkpt lat="44.940001" lon="9.0125196"><ele>140.0</ele><time>2026-04-11T14:09:34.058Z</time></trkpt><trkpt lat="44.9398269" lon="9.0125431"><ele>140.0</ele><time>2026-04-11T14:09:35.058Z</time></trkpt><trkpt lat="44.9396596" lon="9.0125616"><ele>140.0</ele><time>2026-04-11T14:09:36.058Z</time></trkpt><trkpt lat="44.9394965" lon="9.0125832"><ele>140.0</ele><time>2026-04-11T14:09:37.058Z</time></trkpt><trkpt lat="44.9393356" lon="9.0126039"><ele>140.0</ele><time>2026-04-11T14:09:38.058Z</time></trkpt><trkpt lat="44.9391742" lon="9.0126321"><ele>140.0</ele><time>2026-04-11T14:09:39.057Z</time></trkpt><trkpt lat="44.9390162" lon="9.0126481"><ele>140.0</ele><time>2026-04-11T14:09:40.058Z</time></trkpt><trkpt lat="44.9388569" lon="9.0126651"><ele>140.0</ele><time>2026-04-11T14:09:41.058Z</time></trkpt><trkpt lat="44.9386995" lon="9.01268"><ele>140.0</ele><time>2026-04-11T14:09:42.057Z</time></trkpt><trkpt lat="44.9385412" lon="9.0127042"><ele>140.0</ele><time>2026-04-11T14:09:43.058Z</time></trkpt><trkpt lat="44.9383838" lon="9.0127229"><ele>140.0</ele><time>2026-04-11T14:09:44.058Z</time></trkpt><trkpt lat="44.9382243" lon="9.0127421"><ele>140.33333333333331</ele><time>2026-04-11T14:09:45.057Z</time></trkpt><trkpt lat="44.9380636" lon="9.0127581"><ele>140.66666666666666</ele><time>2026-04-11T14:09:46.058Z</time></trkpt><trkpt lat="44.9379025" lon="9.0127809"><ele>141.0</ele><time>2026-04-11T14:09:47.058Z</time></trkpt><trkpt lat="44.9377391" lon="9.0128014"><ele>141.0</ele><time>2026-04-11T14:09:48.058Z</time></trkpt><trkpt lat="44.9375749" lon="9.0128197"><ele>141.0</ele><time>2026-04-11T14:09:49.058Z</time></trkpt><trkpt lat="44.9374084" lon="9.0128413"><ele>141.0</ele><time>2026-04-11T14:09:50.058Z</time></trkpt><trkpt lat="44.937249" lon="9.0128585"><ele>141.66666666666666</ele><time>2026-04-11T14:09:51.058Z</time></trkpt><trkpt lat="44.9370899" lon="9.0128808"><ele>142.33333333333331</ele><time>2026-04-11T14:09:52.058Z</time></trkpt><trkpt lat="44.9369342" lon="9.0128988"><ele>143.0</ele><time>2026-04-11T14:09:53.058Z</time></trkpt><trkpt lat="44.9367798" lon="9.0129197"><ele>142.75</ele><time>2026-04-11T14:09:54.058Z</time></trkpt><trkpt lat="44.9366299" lon="9.0129344"><ele>142.5</ele><time>2026-04-11T14:09:55.058Z</time></trkpt><trkpt lat="44.9364856" lon="9.0129534"><ele>142.25</ele><time>2026-04-11T14:09:56.058Z</time></trkpt><trkpt lat="44.9363456" lon="9.012971"><ele>142.0</ele><time>2026-04-11T14:09:57.058Z</time></trkpt><trkpt lat="44.9362079" lon="9.0129875"><ele>142.0</ele><time>2026-04-11T14:09:58.058Z</time></trkpt><trkpt lat="44.9360753" lon="9.0130033"><ele>142.0</ele><time>2026-04-11T14:09:59.058Z</time></trkpt><trkpt lat="44.935946" lon="9.0130204"><ele>142.0</ele><time>2026-04-11T14:10:00.058Z</time></trkpt><trkpt lat="44.9358183" lon="9.0130361"><ele>142.0</ele><time>2026-04-11T14:10:01.057Z</time></trkpt><trkpt lat="44.9356915" lon="9.0130507"><ele>142.5</ele><time>2026-04-11T14:10:02.058Z</time></trkpt><trkpt lat="44.9355601" lon="9.0130645"><ele>143.0</ele><time>2026-04-11T14:10:03.058Z</time></trkpt><trkpt lat="44.9354238" lon="9.0130802"><ele>143.5</ele><time>2026-04-11T14:10:04.058Z</time></trkpt><trkpt lat="44.9352803" lon="9.0130969"><ele>144.0</ele><time>2026-04-11T14:10:05.058Z</time></trkpt><trkpt lat="44.935134" lon="9.0131161"><ele>144.33333333333334</ele><time>2026-04-11T14:10:06.058Z</time></trkpt><trkpt lat="44.9349832" lon="9.0131414"><ele>144.66666666666669</ele><time>2026-04-11T14:10:07.058Z</time></trkpt><trkpt lat="44.9348329" lon="9.0131658"><ele>145.0</ele><time>2026-04-11T14:10:08.058Z</time></trkpt><trkpt lat="44.9346784" lon="9.0131854"><ele>145.0</ele><time>2026-04-11T14:10:09.058Z</time></trkpt><trkpt lat="44.934527" lon="9.0132013"><ele>145.0</ele><time>2026-04-11T14:10:10.058Z</time></trkpt><trkpt lat="44.9343742" lon="9.0132216"><ele>145.0</ele><time>2026-04-11T14:10:11.058Z</time></trkpt><trkpt lat="44.934228" lon="9.0132387"><ele>145.75</ele><time>2026-04-11T14:10:12.058Z</time></trkpt><trkpt lat="44.9340848" lon="9.0132562"><ele>146.5</ele><time>2026-04-11T14:10:13.058Z</time></trkpt><trkpt lat="44.9339541" lon="9.0132766"><ele>147.25</ele><time>2026-04-11T14:10:14.058Z</time></trkpt><trkpt lat="44.933831" lon="9.0132912"><ele>148.0</ele><time>2026-04-11T14:10:15.057Z</time></trkpt><trkpt lat="44.9337143" lon="9.0133036"><ele>148.0</ele><time>2026-04-11T14:10:16.058Z</time></trkpt><trkpt lat="44.9336059" lon="9.0133217"><ele>148.0</ele><time>2026-04-11T14:10:17.058Z</time></trkpt><trkpt lat="44.9335035" lon="9.0133339"><ele>148.0</ele><time>2026-04-11T14:10:18.058Z</time></trkpt><trkpt lat="44.9334033" lon="9.0133403"><ele>148.0</ele><time>2026-04-11T14:10:19.057Z</time></trkpt><trkpt lat="44.9333164" lon="9.0133495"><ele>148.0</ele><time>2026-04-11T14:10:20.059Z</time></trkpt><trkpt lat="44.9332361" lon="9.0133579"><ele>148.0</ele><time>2026-04-11T14:10:21.059Z</time></trkpt><trkpt lat="44.9331588" lon="9.0133653"><ele>148.0</ele><time>2026-04-11T14:10:22.059Z</time></trkpt><trkpt lat="44.9330829" lon="9.0133714"><ele>148.0</ele><time>2026-04-11T14:10:23.059Z</time></trkpt><trkpt lat="44.933011" lon="9.0133803"><ele>148.0</ele><time>2026-04-11T14:10:24.059Z</time></trkpt><trkpt lat="44.9329439" lon="9.0133849"><ele>148.0</ele><time>2026-04-11T14:10:25.059Z</time></trkpt><trkpt lat="44.932878" lon="9.0133932"><ele>148.0</ele><time>2026-04-11T14:10:26.059Z</time></trkpt><trkpt lat="44.9328134" lon="9.0133983"><ele>148.0</ele><time>2026-04-11T14:10:27.058Z</time></trkpt><trkpt lat="44.9326926" lon="9.0134077"><ele>148.0</ele><time>2026-04-11T14:10:29.059Z</time></trkpt><trkpt lat="44.9325815" lon="9.0134216"><ele>148.0</ele><time>2026-04-11T14:10:31.059Z</time></trkpt><trkpt lat="44.9324824" lon="9.0134388"><ele>148.0</ele><time>2026-04-11T14:10:33.059Z</time></trkpt><trkpt lat="44.9323921" lon="9.0134366"><ele>148.0</ele><time>2026-04-11T14:10:35.059Z</time></trkpt><trkpt lat="44.9323101" lon="9.0134446"><ele>148.0</ele><time>2026-04-11T14:10:37.059Z</time></trkpt><trkpt lat="44.9322414" lon="9.0134563"><ele>148.20000000000002</ele><time>2026-04-11T14:10:39.059Z</time></trkpt><trkpt lat="44.9321754" lon="9.0134811"><ele>148.4</ele><time>2026-04-11T14:11:08.059Z</time></trkpt><trkpt lat="44.9320725" lon="9.0134928"><ele>148.60000000000002</ele><time>2026-04-11T14:11:10.059Z</time></trkpt><trkpt lat="44.9319076" lon="9.013516"><ele>148.8</ele><time>2026-04-11T14:11:12.059Z</time></trkpt><trkpt lat="44.9318113" lon="9.0135452"><ele>149.0</ele><time>2026-04-11T14:11:13.059Z</time></trkpt><trkpt lat="44.9317103" lon="9.0135661"><ele>149.5</ele><time>2026-04-11T14:11:14.06Z</time></trkpt><trkpt lat="44.9316033" lon="9.0135897"><ele>150.0</ele><time>2026-04-11T14:11:15.06Z</time></trkpt><trkpt lat="44.9314944" lon="9.013633"><ele>150.5</ele><time>2026-04-11T14:11:16.06Z</time></trkpt><trkpt lat="44.9313701" lon="9.0136858"><ele>151.0</ele><time>2026-04-11T14:11:17.06Z</time></trkpt><trkpt lat="44.9312216" lon="9.0137413"><ele>151.0</ele><time>2026-04-11T14:11:18.06Z</time></trkpt><trkpt lat="44.9310591" lon="9.0137636"><ele>151.0</ele><time>2026-04-11T14:11:19.06Z</time></trkpt><trkpt lat="44.930905" lon="9.0137874"><ele>151.0</ele><time>2026-04-11T14:11:20.059Z</time></trkpt><trkpt lat="44.9307554" lon="9.0138273"><ele>151.0</ele><time>2026-04-11T14:11:21.06Z</time></trkpt><trkpt lat="44.9306209" lon="9.0138774"><ele>151.0</ele><time>2026-04-11T14:11:22.059Z</time></trkpt><trkpt lat="44.9304921" lon="9.013945"><ele>151.0</ele><time>2026-04-11T14:11:23.059Z</time></trkpt><trkpt lat="44.9303807" lon="9.0140142"><ele>151.0</ele><time>2026-04-11T14:11:24.059Z</time></trkpt><trkpt lat="44.9302652" lon="9.0140847"><ele>151.0</ele><time>2026-04-11T14:11:25.06Z</time></trkpt><trkpt lat="44.9301572" lon="9.0141382"><ele>151.0</ele><time>2026-04-11T14:11:26.06Z</time></trkpt><trkpt lat="44.9300585" lon="9.014166"><ele>151.0</ele><time>2026-04-11T14:11:27.06Z</time></trkpt><trkpt lat="44.929991" lon="9.0142088"><ele>151.0</ele><time>2026-04-11T14:11:28.06Z</time></trkpt><trkpt lat="44.9299081" lon="9.0141935"><ele>151.0</ele><time>2026-04-11T14:11:29.06Z</time></trkpt><trkpt lat="44.9298444" lon="9.0142401"><ele>151.0</ele><time>2026-04-11T14:11:30.06Z</time></trkpt><trkpt lat="44.9298109" lon="9.0143472"><ele>151.66666666666669</ele><time>2026-04-11T14:11:31.06Z</time></trkpt><trkpt lat="44.9297833" lon="9.0144769"><ele>152.33333333333334</ele><time>2026-04-11T14:11:32.06Z</time></trkpt><trkpt lat="44.9297441" lon="9.014598"><ele>153.0</ele><time>2026-04-11T14:11:33.059Z</time></trkpt><trkpt lat="44.9297101" lon="9.0147086"><ele>153.66666666666666</ele><time>2026-04-11T14:11:34.06Z</time></trkpt><trkpt lat="44.9296702" lon="9.0148051"><ele>154.33333333333331</ele><time>2026-04-11T14:11:35.06Z</time></trkpt><trkpt lat="44.929603" lon="9.0148814"><ele>155.0</ele><time>2026-04-11T14:11:36.06Z</time></trkpt><trkpt lat="44.9295258" lon="9.0149445"><ele>155.0</ele><time>2026-04-11T14:11:37.06Z</time></trkpt><trkpt lat="44.9294385" lon="9.0149999"><ele>155.0</ele><time>2026-04-11T14:11:38.06Z</time></trkpt><trkpt lat="44.9293371" lon="9.0150291"><ele>155.0</ele><time>2026-04-11T14:11:39.06Z</time></trkpt><trkpt lat="44.9292359" lon="9.0150373"><ele>155.0</ele><time>2026-04-11T14:11:40.06Z</time></trkpt><trkpt lat="44.9291276" lon="9.0150607"><ele>155.0</ele><time>2026-04-11T14:11:41.06Z</time></trkpt><trkpt lat="44.9290154" lon="9.0150844"><ele>155.0</ele><time>2026-04-11T14:11:42.06Z</time></trkpt><trkpt lat="44.9288968" lon="9.0150921"><ele>155.0</ele><time>2026-04-11T14:11:43.06Z</time></trkpt><trkpt lat="44.9287916" lon="9.0151162"><ele>155.0</ele><time>2026-04-11T14:11:44.06Z</time></trkpt><trkpt lat="44.9286937" lon="9.0151297"><ele>155.0</ele><time>2026-04-11T14:11:45.059Z</time></trkpt><trkpt lat="44.9286127" lon="9.0151385"><ele>155.0</ele><time>2026-04-11T14:11:46.06Z</time></trkpt><trkpt lat="44.9285375" lon="9.0151449"><ele>155.0</ele><time>2026-04-11T14:11:47.06Z</time></trkpt><trkpt lat="44.9284701" lon="9.0151493"><ele>155.0</ele><time>2026-04-11T14:11:48.06Z</time></trkpt><trkpt lat="44.9284106" lon="9.0152045"><ele>155.0</ele><time>2026-04-11T14:11:51.06Z</time></trkpt><trkpt lat="44.9284265" lon="9.0152938"><ele>155.0</ele><time>2026-04-11T14:11:53.06Z</time></trkpt><trkpt lat="44.9284833" lon="9.0154183"><ele>155.0</ele><time>2026-04-11T14:11:55.06Z</time></trkpt><trkpt lat="44.9285111" lon="9.0154985"><ele>155.0</ele><time>2026-04-11T14:11:56.06Z</time></trkpt><trkpt lat="44.9285493" lon="9.0156086"><ele>155.0</ele><time>2026-04-11T14:11:57.059Z</time></trkpt><trkpt lat="44.9285953" lon="9.0157172"><ele>155.0</ele><time>2026-04-11T14:11:58.06Z</time></trkpt><trkpt lat="44.9286354" lon="9.0158177"><ele>155.0</ele><time>2026-04-11T14:11:59.06Z</time></trkpt><trkpt lat="44.9286793" lon="9.0159195"><ele>155.0</ele><time>2026-04-11T14:12:00.061Z</time></trkpt><trkpt lat="44.9287231" lon="9.0160246"><ele>155.0</ele><time>2026-04-11T14:12:01.06Z</time></trkpt><trkpt lat="44.9287651" lon="9.0161438"><ele>155.0</ele><time>2026-04-11T14:12:02.061Z</time></trkpt><trkpt lat="44.9288168" lon="9.0162679"><ele>154.8</ele><time>2026-04-11T14:12:03.06Z</time></trkpt><trkpt lat="44.9288671" lon="9.0163855"><ele>154.6</ele><time>2026-04-11T14:12:04.061Z</time></trkpt><trkpt lat="44.9289175" lon="9.0164929"><ele>154.4</ele><time>2026-04-11T14:12:05.06Z</time></trkpt><trkpt lat="44.9289727" lon="9.0165857"><ele>154.2</ele><time>2026-04-11T14:12:06.061Z</time></trkpt><trkpt lat="44.9290175" lon="9.0166613"><ele>154.0</ele><time>2026-04-11T14:12:07.06Z</time></trkpt><trkpt lat="44.9291442" lon="9.0167505"><ele>153.83333333333334</ele><time>2026-04-11T14:12:09.061Z</time></trkpt><trkpt lat="44.9292219" lon="9.0167978"><ele>153.66666666666669</ele><time>2026-04-11T14:12:10.061Z</time></trkpt><trkpt lat="44.9293079" lon="9.0168382"><ele>153.5</ele><time>2026-04-11T14:12:11.06Z</time></trkpt><trkpt lat="44.929403" lon="9.0168625"><ele>153.33333333333334</ele><time>2026-04-11T14:12:12.061Z</time></trkpt><trkpt lat="44.9294864" lon="9.0168724"><ele>153.16666666666666</ele><time>2026-04-11T14:12:13.061Z</time></trkpt><trkpt lat="44.9295576" lon="9.0168741"><ele>153.0</ele><time>2026-04-11T14:12:14.061Z</time></trkpt><trkpt lat="44.929648" lon="9.0168716"><ele>153.4</ele><time>2026-04-11T14:12:16.061Z</time></trkpt><trkpt lat="44.9297351" lon="9.016899"><ele>153.8</ele><time>2026-04-11T14:12:19.061Z</time></trkpt><trkpt lat="44.929791" lon="9.0169417"><ele>154.2</ele><time>2026-04-11T14:12:21.061Z</time></trkpt><trkpt lat="44.9298234" lon="9.0170561"><ele>154.6</ele><time>2026-04-11T14:12:23.061Z</time></trkpt><trkpt lat="44.9298223" lon="9.0172092"><ele>155.0</ele><time>2026-04-11T14:12:25.061Z</time></trkpt><trkpt lat="44.9298227" lon="9.0173682"><ele>155.0</ele><time>2026-04-11T14:12:27.061Z</time></trkpt><trkpt lat="44.929821" lon="9.0174737"><ele>155.0</ele><time>2026-04-11T14:12:30.061Z</time></trkpt><trkpt lat="44.9298408" lon="9.0175674"><ele>155.0</ele><time>2026-04-11T14:14:04.063Z</time></trkpt><trkpt lat="44.9298508" lon="9.0177447"><ele>155.0</ele><time>2026-04-11T14:14:06.063Z</time></trkpt><trkpt lat="44.9298605" lon="9.0178399"><ele>155.0</ele><time>2026-04-11T14:14:07.062Z</time></trkpt><trkpt lat="44.9298731" lon="9.0179584"><ele>155.0</ele><time>2026-04-11T14:14:08.062Z</time></trkpt><trkpt lat="44.9298849" lon="9.0180675"><ele>154.83333333333331</ele><time>2026-04-11T14:14:09.063Z</time></trkpt><trkpt lat="44.9298936" lon="9.0181794"><ele>154.66666666666666</ele><time>2026-04-11T14:14:10.063Z</time></trkpt><trkpt lat="44.9299031" lon="9.0182999"><ele>154.5</ele><time>2026-04-11T14:14:11.063Z</time></trkpt><trkpt lat="44.9299151" lon="9.0184145"><ele>154.33333333333334</ele><time>2026-04-11T14:14:12.063Z</time></trkpt><trkpt lat="44.929924" lon="9.0185207"><ele>154.16666666666669</ele><time>2026-04-11T14:14:13.063Z</time></trkpt><trkpt lat="44.9299322" lon="9.0186225"><ele>154.0</ele><time>2026-04-11T14:14:14.063Z</time></trkpt><trkpt lat="44.9299471" lon="9.018734"><ele>153.5</ele><time>2026-04-11T14:14:15.063Z</time></trkpt><trkpt lat="44.9299544" lon="9.0188399"><ele>153.0</ele><time>2026-04-11T14:14:16.063Z</time></trkpt><trkpt lat="44.9299662" lon="9.0189559"><ele>152.5</ele><time>2026-04-11T14:14:17.063Z</time></trkpt><trkpt lat="44.9299693" lon="9.0190593"><ele>152.0</ele><time>2026-04-11T14:14:18.062Z</time></trkpt><trkpt lat="44.9299756" lon="9.019153"><ele>151.5</ele><time>2026-04-11T14:14:19.063Z</time></trkpt><trkpt lat="44.9299859" lon="9.019312"><ele>151.0</ele><time>2026-04-11T14:14:21.062Z</time></trkpt><trkpt lat="44.9299991" lon="9.0194455"><ele>151.16666666666669</ele><time>2026-04-11T14:14:23.063Z</time></trkpt><trkpt lat="44.9300188" lon="9.0195886"><ele>151.33333333333334</ele><time>2026-04-11T14:14:25.063Z</time></trkpt><trkpt lat="44.9300207" lon="9.0197088"><ele>151.5</ele><time>2026-04-11T14:14:27.063Z</time></trkpt><trkpt lat="44.9300169" lon="9.0198016"><ele>151.66666666666666</ele><time>2026-04-11T14:14:29.063Z</time></trkpt><trkpt lat="44.9300085" lon="9.01989"><ele>151.83333333333331</ele><time>2026-04-11T14:14:31.063Z</time></trkpt><trkpt lat="44.9299648" lon="9.0199864"><ele>152.0</ele><time>2026-04-11T14:14:33.063Z</time></trkpt><trkpt lat="44.9299107" lon="9.0201081"><ele>152.0</ele><time>2026-04-11T14:14:35.063Z</time></trkpt><trkpt lat="44.929953" lon="9.0202634"><ele>152.0</ele><time>2026-04-11T14:14:37.064Z</time></trkpt><trkpt lat="44.9300208" lon="9.0203118"><ele>152.0</ele><time>2026-04-11T14:14:38.063Z</time></trkpt><trkpt lat="44.9300919" lon="9.0203066"><ele>152.0</ele><time>2026-04-11T14:14:39.064Z</time></trkpt><trkpt lat="44.9301684" lon="9.0202951"><ele>152.0</ele><time>2026-04-11T14:14:40.064Z</time></trkpt><trkpt lat="44.9302491" lon="9.0203244"><ele>152.0</ele><time>2026-04-11T14:14:41.064Z</time></trkpt><trkpt lat="44.9303334" lon="9.0203843"><ele>151.5</ele><time>2026-04-11T14:14:42.064Z</time></trkpt><trkpt lat="44.9304251" lon="9.0204525"><ele>151.0</ele><time>2026-04-11T14:14:43.064Z</time></trkpt><trkpt lat="44.9305224" lon="9.0205213"><ele>150.5</ele><time>2026-04-11T14:14:44.063Z</time></trkpt><trkpt lat="44.9306333" lon="9.0205762"><ele>150.0</ele><time>2026-04-11T14:14:45.064Z</time></trkpt><trkpt lat="44.9307491" lon="9.0206221"><ele>150.0</ele><time>2026-04-11T14:14:46.064Z</time></trkpt><trkpt lat="44.9308723" lon="9.0206741"><ele>150.0</ele><time>2026-04-11T14:14:47.064Z</time></trkpt><trkpt lat="44.9310022" lon="9.0207236"><ele>150.0</ele><time>2026-04-11T14:14:48.064Z</time></trkpt><trkpt lat="44.9311382" lon="9.0207825"><ele>150.0</ele><time>2026-04-11T14:14:49.064Z</time></trkpt><trkpt lat="44.9312723" lon="9.0208283"><ele>149.75</ele><time>2026-04-11T14:14:50.063Z</time></trkpt><trkpt lat="44.9313976" lon="9.020874"><ele>149.5</ele><time>2026-04-11T14:14:51.063Z</time></trkpt><trkpt lat="44.9315177" lon="9.0209123"><ele>149.25</ele><time>2026-04-11T14:14:52.064Z</time></trkpt><trkpt lat="44.9316384" lon="9.0209612"><ele>149.0</ele><time>2026-04-11T14:14:53.064Z</time></trkpt><trkpt lat="44.9317568" lon="9.0210066"><ele>149.0</ele><time>2026-04-11T14:14:54.064Z</time></trkpt><trkpt lat="44.9318758" lon="9.0210551"><ele>149.0</ele><time>2026-04-11T14:14:55.064Z</time></trkpt><trkpt lat="44.9319958" lon="9.02111"><ele>149.0</ele><time>2026-04-11T14:14:56.064Z</time></trkpt><trkpt lat="44.932119" lon="9.0211595"><ele>149.0</ele><time>2026-04-11T14:14:57.064Z</time></trkpt><trkpt lat="44.9322458" lon="9.0212068"><ele>149.0</ele><time>2026-04-11T14:14:58.064Z</time></trkpt><trkpt lat="44.9323747" lon="9.021257"><ele>149.0</ele><time>2026-04-11T14:14:59.064Z</time></trkpt><trkpt lat="44.9325042" lon="9.0213055"><ele>149.0</ele><time>2026-04-11T14:15:00.064Z</time></trkpt><trkpt lat="44.9326199" lon="9.0213509"><ele>149.0</ele><time>2026-04-11T14:15:01.064Z</time></trkpt><trkpt lat="44.9327334" lon="9.0213998"><ele>148.25</ele><time>2026-04-11T14:15:02.064Z</time></trkpt><trkpt lat="44.9328545" lon="9.0214464"><ele>147.5</ele><time>2026-04-11T14:15:03.064Z</time></trkpt><trkpt lat="44.9329792" lon="9.0214901"><ele>146.75</ele><time>2026-04-11T14:15:04.064Z</time></trkpt><trkpt lat="44.933108" lon="9.0215348"><ele>146.0</ele><time>2026-04-11T14:15:05.064Z</time></trkpt><trkpt lat="44.933245" lon="9.0215852"><ele>146.33333333333331</ele><time>2026-04-11T14:15:06.064Z</time></trkpt><trkpt lat="44.9333907" lon="9.0216433"><ele>146.66666666666666</ele><time>2026-04-11T14:15:07.064Z</time></trkpt><trkpt lat="44.9335356" lon="9.0217031"><ele>147.0</ele><time>2026-04-11T14:15:08.064Z</time></trkpt><trkpt lat="44.9336849" lon="9.0217599"><ele>148.0</ele><time>2026-04-11T14:15:09.064Z</time></trkpt><trkpt lat="44.9338336" lon="9.021816"><ele>149.0</ele><time>2026-04-11T14:15:10.063Z</time></trkpt><trkpt lat="44.9339857" lon="9.0218772"><ele>150.0</ele><time>2026-04-11T14:15:11.064Z</time></trkpt><trkpt lat="44.9341435" lon="9.021936"><ele>149.0</ele><time>2026-04-11T14:15:12.064Z</time></trkpt><trkpt lat="44.9343027" lon="9.0219872"><ele>148.0</ele><time>2026-04-11T14:15:13.064Z</time></trkpt><trkpt lat="44.9344679" lon="9.0220372"><ele>147.0</ele><time>2026-04-11T14:15:14.063Z</time></trkpt><trkpt lat="44.9346353" lon="9.0220772"><ele>147.0</ele><time>2026-04-11T14:15:15.064Z</time></trkpt><trkpt lat="44.9347828" lon="9.0221119"><ele>147.0</ele><time>2026-04-11T14:15:16.064Z</time></trkpt><trkpt lat="44.9349032" lon="9.0221358"><ele>147.0</ele><time>2026-04-11T14:15:17.064Z</time></trkpt><trkpt lat="44.9350192" lon="9.0221585"><ele>147.0</ele><time>2026-04-11T14:15:18.064Z</time></trkpt><trkpt lat="44.935136" lon="9.0221793"><ele>146.5</ele><time>2026-04-11T14:15:19.064Z</time></trkpt><trkpt lat="44.9352695" lon="9.0222078"><ele>146.0</ele><time>2026-04-11T14:15:20.064Z</time></trkpt><trkpt lat="44.9354029" lon="9.0222408"><ele>145.5</ele><time>2026-04-11T14:15:21.064Z</time></trkpt><trkpt lat="44.9355539" lon="9.02227"><ele>145.0</ele><time>2026-04-11T14:15:22.063Z</time></trkpt><trkpt lat="44.9357071" lon="9.0222983"><ele>145.0</ele><time>2026-04-11T14:15:23.064Z</time></trkpt><trkpt lat="44.9358675" lon="9.0223304"><ele>145.0</ele><time>2026-04-11T14:15:24.064Z</time></trkpt><trkpt lat="44.9360372" lon="9.0223667"><ele>145.0</ele><time>2026-04-11T14:15:25.064Z</time></trkpt><trkpt lat="44.9362087" lon="9.0224009"><ele>144.66666666666669</ele><time>2026-04-11T14:15:26.064Z</time></trkpt><trkpt lat="44.9363858" lon="9.0224417"><ele>144.33333333333334</ele><time>2026-04-11T14:15:27.065Z</time></trkpt><trkpt lat="44.9365663" lon="9.0224843"><ele>144.0</ele><time>2026-04-11T14:15:28.065Z</time></trkpt><trkpt lat="44.9367509" lon="9.0225272"><ele>143.66666666666666</ele><time>2026-04-11T14:15:29.065Z</time></trkpt><trkpt lat="44.9369338" lon="9.0225723"><ele>143.33333333333331</ele><time>2026-04-11T14:15:30.065Z</time></trkpt><trkpt lat="44.937114" lon="9.0226236"><ele>143.0</ele><time>2026-04-11T14:15:31.064Z</time></trkpt><trkpt lat="44.9372902" lon="9.0227033"><ele>143.0</ele><time>2026-04-11T14:15:32.065Z</time></trkpt><trkpt lat="44.9374563" lon="9.0228104"><ele>143.0</ele><time>2026-04-11T14:15:33.065Z</time></trkpt><trkpt lat="44.9376221" lon="9.0229437"><ele>143.0</ele><time>2026-04-11T14:15:34.065Z</time></trkpt><trkpt lat="44.9377876" lon="9.0230814"><ele>143.0</ele><time>2026-04-11T14:15:35.065Z</time></trkpt><trkpt lat="44.9379574" lon="9.0232133"><ele>143.0</ele><time>2026-04-11T14:15:36.064Z</time></trkpt><trkpt lat="44.9381333" lon="9.0233527"><ele>143.0</ele><time>2026-04-11T14:15:37.065Z</time></trkpt><trkpt lat="44.9383031" lon="9.0235048"><ele>142.0</ele><time>2026-04-11T14:15:38.065Z</time></trkpt><trkpt lat="44.9384648" lon="9.0236648"><ele>141.0</ele><time>2026-04-11T14:15:39.065Z</time></trkpt><trkpt lat="44.9386205" lon="9.0238314"><ele>140.0</ele><time>2026-04-11T14:15:40.065Z</time></trkpt><trkpt lat="44.9387677" lon="9.0240048"><ele>140.66666666666666</ele><time>2026-04-11T14:15:41.065Z</time></trkpt><trkpt lat="44.9389089" lon="9.0241671"><ele>141.33333333333334</ele><time>2026-04-11T14:15:42.065Z</time></trkpt><trkpt lat="44.9390456" lon="9.0243301"><ele>142.0</ele><time>2026-04-11T14:15:43.065Z</time></trkpt><trkpt lat="44.939179" lon="9.0244877"><ele>141.0</ele><time>2026-04-11T14:15:44.065Z</time></trkpt><trkpt lat="44.9393087" lon="9.0246421"><ele>140.0</ele><time>2026-04-11T14:15:45.065Z</time></trkpt><trkpt lat="44.9394374" lon="9.0247857"><ele>139.0</ele><time>2026-04-11T14:15:46.065Z</time></trkpt><trkpt lat="44.9395594" lon="9.024924"><ele>140.0</ele><time>2026-04-11T14:15:47.065Z</time></trkpt><trkpt lat="44.9396836" lon="9.0250459"><ele>141.0</ele><time>2026-04-11T14:15:48.065Z</time></trkpt><trkpt lat="44.939821" lon="9.0251582"><ele>142.0</ele><time>2026-04-11T14:15:49.065Z</time></trkpt><trkpt lat="44.9399782" lon="9.0252701"><ele>141.33333333333334</ele><time>2026-04-11T14:15:50.065Z</time></trkpt><trkpt lat="44.9401519" lon="9.0253806"><ele>140.66666666666666</ele><time>2026-04-11T14:15:51.065Z</time></trkpt><trkpt lat="44.9403306" lon="9.0255088"><ele>140.0</ele><time>2026-04-11T14:15:52.065Z</time></trkpt><trkpt lat="44.9405066" lon="9.0256316"><ele>140.0</ele><time>2026-04-11T14:15:53.065Z</time></trkpt><trkpt lat="44.9406826" lon="9.0257521"><ele>140.0</ele><time>2026-04-11T14:15:54.064Z</time></trkpt><trkpt lat="44.9408517" lon="9.0258738"><ele>140.0</ele><time>2026-04-11T14:15:55.065Z</time></trkpt><trkpt lat="44.9410011" lon="9.0259995"><ele>140.66666666666666</ele><time>2026-04-11T14:15:56.065Z</time></trkpt><trkpt lat="44.9411399" lon="9.0261103"><ele>141.33333333333334</ele><time>2026-04-11T14:15:57.065Z</time></trkpt><trkpt lat="44.9412798" lon="9.026204"><ele>142.0</ele><time>2026-04-11T14:15:58.065Z</time></trkpt><trkpt lat="44.9414287" lon="9.026273"><ele>142.0</ele><time>2026-04-11T14:15:59.065Z</time></trkpt><trkpt lat="44.9415988" lon="9.0263162"><ele>142.0</ele><time>2026-04-11T14:16:00.065Z</time></trkpt><trkpt lat="44.9417906" lon="9.026352"><ele>142.0</ele><time>2026-04-11T14:16:01.065Z</time></trkpt><trkpt lat="44.9420053" lon="9.0263986"><ele>141.66666666666669</ele><time>2026-04-11T14:16:02.065Z</time></trkpt><trkpt lat="44.9422196" lon="9.0264562"><ele>141.33333333333334</ele><time>2026-04-11T14:16:03.065Z</time></trkpt><trkpt lat="44.9424201" lon="9.0265199"><ele>141.0</ele><time>2026-04-11T14:16:04.065Z</time></trkpt><trkpt lat="44.9425973" lon="9.0265786"><ele>141.0</ele><time>2026-04-11T14:16:05.065Z</time></trkpt><trkpt lat="44.9427661" lon="9.0266209"><ele>141.0</ele><time>2026-04-11T14:16:06.064Z</time></trkpt><trkpt lat="44.9429257" lon="9.0266595"><ele>141.0</ele><time>2026-04-11T14:16:07.065Z</time></trkpt><trkpt lat="44.9430743" lon="9.0266962"><ele>142.0</ele><time>2026-04-11T14:16:08.065Z</time></trkpt><trkpt lat="44.9432216" lon="9.0267392"><ele>143.0</ele><time>2026-04-11T14:16:09.065Z</time></trkpt><trkpt lat="44.943374" lon="9.0267857"><ele>144.0</ele><time>2026-04-11T14:16:10.065Z</time></trkpt><trkpt lat="44.9435353" lon="9.0268218"><ele>144.0</ele><time>2026-04-11T14:16:11.065Z</time></trkpt><trkpt lat="44.9437021" lon="9.0268612"><ele>144.0</ele><time>2026-04-11T14:16:12.065Z</time></trkpt><trkpt lat="44.9438757" lon="9.0269056"><ele>144.0</ele><time>2026-04-11T14:16:13.064Z</time></trkpt><trkpt lat="44.9440504" lon="9.0269521"><ele>143.0</ele><time>2026-04-11T14:16:14.065Z</time></trkpt><trkpt lat="44.9442262" lon="9.0269965"><ele>142.0</ele><time>2026-04-11T14:16:15.064Z</time></trkpt><trkpt lat="44.9444015" lon="9.0270424"><ele>141.0</ele><time>2026-04-11T14:16:16.065Z</time></trkpt><trkpt lat="44.9445819" lon="9.0270881"><ele>141.0</ele><time>2026-04-11T14:16:17.065Z</time></trkpt><trkpt lat="44.9447766" lon="9.0271337"><ele>141.0</ele><time>2026-04-11T14:16:18.066Z</time></trkpt><trkpt lat="44.9449891" lon="9.0272001"><ele>141.0</ele><time>2026-04-11T14:16:19.066Z</time></trkpt><trkpt lat="44.9452156" lon="9.0272879"><ele>142.0</ele><time>2026-04-11T14:16:20.066Z</time></trkpt><trkpt lat="44.9454415" lon="9.0273967"><ele>143.0</ele><time>2026-04-11T14:16:21.066Z</time></trkpt><trkpt lat="44.945666" lon="9.0275134"><ele>143.0</ele><time>2026-04-11T14:16:22.066Z</time></trkpt><trkpt lat="44.945892" lon="9.0276216"><ele>143.0</ele><time>2026-04-11T14:16:23.066Z</time></trkpt><trkpt lat="44.9461093" lon="9.0277131"><ele>143.0</ele><time>2026-04-11T14:16:24.066Z</time></trkpt><trkpt lat="44.9463157" lon="9.0277994"><ele>143.0</ele><time>2026-04-11T14:16:25.066Z</time></trkpt><trkpt lat="44.9465109" lon="9.0278825"><ele>143.0</ele><time>2026-04-11T14:16:26.065Z</time></trkpt><trkpt lat="44.9466925" lon="9.0279611"><ele>142.33333333333331</ele><time>2026-04-11T14:16:27.066Z</time></trkpt><trkpt lat="44.9468722" lon="9.0280423"><ele>141.66666666666666</ele><time>2026-04-11T14:16:28.065Z</time></trkpt><trkpt lat="44.9470506" lon="9.0281197"><ele>141.0</ele><time>2026-04-11T14:16:29.066Z</time></trkpt><trkpt lat="44.947229" lon="9.0281938"><ele>141.0</ele><time>2026-04-11T14:16:30.066Z</time></trkpt><trkpt lat="44.9474072" lon="9.0282663"><ele>141.0</ele><time>2026-04-11T14:16:31.066Z</time></trkpt><trkpt lat="44.9475795" lon="9.028341"><ele>141.0</ele><time>2026-04-11T14:16:32.066Z</time></trkpt><trkpt lat="44.9477592" lon="9.0284153"><ele>142.0</ele><time>2026-04-11T14:16:33.066Z</time></trkpt><trkpt lat="44.9479569" lon="9.0284923"><ele>143.0</ele><time>2026-04-11T14:16:34.066Z</time></trkpt><trkpt lat="44.9481821" lon="9.0285787"><ele>144.0</ele><time>2026-04-11T14:16:35.066Z</time></trkpt><trkpt lat="44.9484108" lon="9.0286799"><ele>144.0</ele><time>2026-04-11T14:16:36.066Z</time></trkpt><trkpt lat="44.9486427" lon="9.0287911"><ele>144.0</ele><time>2026-04-11T14:16:37.065Z</time></trkpt><trkpt lat="44.948864" lon="9.0288954"><ele>144.0</ele><time>2026-04-11T14:16:38.066Z</time></trkpt><trkpt lat="44.949075" lon="9.028985"><ele>144.0</ele><time>2026-04-11T14:16:39.066Z</time></trkpt><trkpt lat="44.9492809" lon="9.0290697"><ele>144.0</ele><time>2026-04-11T14:16:40.066Z</time></trkpt><trkpt lat="44.9494819" lon="9.029159"><ele>143.66666666666666</ele><time>2026-04-11T14:16:41.065Z</time></trkpt><trkpt lat="44.9496782" lon="9.0292571"><ele>143.33333333333331</ele><time>2026-04-11T14:16:42.066Z</time></trkpt><trkpt lat="44.9498631" lon="9.0293676"><ele>143.0</ele><time>2026-04-11T14:16:43.066Z</time></trkpt><trkpt lat="44.9500369" lon="9.0295065"><ele>142.66666666666666</ele><time>2026-04-11T14:16:44.065Z</time></trkpt><trkpt lat="44.9502093" lon="9.0296753"><ele>142.33333333333334</ele><time>2026-04-11T14:16:45.066Z</time></trkpt><trkpt lat="44.9503733" lon="9.0298727"><ele>142.0</ele><time>2026-04-11T14:16:46.066Z</time></trkpt><trkpt lat="44.9505417" lon="9.0300892"><ele>142.5</ele><time>2026-04-11T14:16:47.065Z</time></trkpt><trkpt lat="44.950717" lon="9.0303168"><ele>143.0</ele><time>2026-04-11T14:16:48.066Z</time></trkpt><trkpt lat="44.9509028" lon="9.0305479"><ele>143.0</ele><time>2026-04-11T14:16:49.066Z</time></trkpt><trkpt lat="44.9510901" lon="9.0307806"><ele>143.0</ele><time>2026-04-11T14:16:50.065Z</time></trkpt><trkpt lat="44.9512772" lon="9.0310194"><ele>144.0</ele><time>2026-04-11T14:16:51.065Z</time></trkpt><trkpt lat="44.9514668" lon="9.0312614"><ele>145.0</ele><time>2026-04-11T14:16:52.066Z</time></trkpt><trkpt lat="44.9516586" lon="9.0315051"><ele>145.0</ele><time>2026-04-11T14:16:53.065Z</time></trkpt><trkpt lat="44.9518512" lon="9.0317519"><ele>145.0</ele><time>2026-04-11T14:16:54.066Z</time></trkpt><trkpt lat="44.9520442" lon="9.0319949"><ele>145.0</ele><time>2026-04-11T14:16:55.066Z</time></trkpt><trkpt lat="44.9522272" lon="9.0322251"><ele>145.0</ele><time>2026-04-11T14:16:56.066Z</time></trkpt><trkpt lat="44.9523968" lon="9.0324395"><ele>143.66666666666669</ele><time>2026-04-11T14:16:57.066Z</time></trkpt><trkpt lat="44.952556" lon="9.0326356"><ele>142.33333333333334</ele><time>2026-04-11T14:16:58.066Z</time></trkpt><trkpt lat="44.9527047" lon="9.0328203"><ele>141.0</ele><time>2026-04-11T14:16:59.065Z</time></trkpt><trkpt lat="44.9528342" lon="9.0329913"><ele>141.0</ele><time>2026-04-11T14:17:00.066Z</time></trkpt><trkpt lat="44.9529549" lon="9.0331471"><ele>141.0</ele><time>2026-04-11T14:17:01.065Z</time></trkpt><trkpt lat="44.9530658" lon="9.0332913"><ele>141.0</ele><time>2026-04-11T14:17:02.066Z</time></trkpt><trkpt lat="44.9531626" lon="9.0334208"><ele>141.0</ele><time>2026-04-11T14:17:03.065Z</time></trkpt><trkpt lat="44.9532473" lon="9.0335362"><ele>141.6</ele><time>2026-04-11T14:17:04.066Z</time></trkpt><trkpt lat="44.9533175" lon="9.0336573"><ele>142.2</ele><time>2026-04-11T14:17:05.066Z</time></trkpt><trkpt lat="44.9533698" lon="9.0337835"><ele>142.8</ele><time>2026-04-11T14:17:06.066Z</time></trkpt><trkpt lat="44.9534126" lon="9.0339124"><ele>143.4</ele><time>2026-04-11T14:17:07.065Z</time></trkpt><trkpt lat="44.9534613" lon="9.034014"><ele>144.0</ele><time>2026-04-11T14:17:08.065Z</time></trkpt><trkpt lat="44.9535382" lon="9.0340761"><ele>144.25</ele><time>2026-04-11T14:17:09.066Z</time></trkpt><trkpt lat="44.9536332" lon="9.0341167"><ele>144.5</ele><time>2026-04-11T14:17:10.066Z</time></trkpt><trkpt lat="44.9537453" lon="9.0341866"><ele>144.75</ele><time>2026-04-11T14:17:11.067Z</time></trkpt><trkpt lat="44.9538542" lon="9.0342967"><ele>145.0</ele><time>2026-04-11T14:17:12.067Z</time></trkpt><trkpt lat="44.9539746" lon="9.0344391"><ele>145.0</ele><time>2026-04-11T14:17:13.067Z</time></trkpt><trkpt lat="44.9541019" lon="9.0346041"><ele>145.0</ele><time>2026-04-11T14:17:14.067Z</time></trkpt><trkpt lat="44.9542455" lon="9.0347875"><ele>145.0</ele><time>2026-04-11T14:17:15.067Z</time></trkpt><trkpt lat="44.9544011" lon="9.0349814"><ele>145.0</ele><time>2026-04-11T14:17:16.066Z</time></trkpt><trkpt lat="44.9545609" lon="9.0351854"><ele>145.0</ele><time>2026-04-11T14:17:17.067Z</time></trkpt><trkpt lat="44.9547328" lon="9.0353998"><ele>145.0</ele><time>2026-04-11T14:17:18.067Z</time></trkpt><trkpt lat="44.954917" lon="9.035627"><ele>144.5</ele><time>2026-04-11T14:17:19.067Z</time></trkpt><trkpt lat="44.9551061" lon="9.0358668"><ele>144.0</ele><time>2026-04-11T14:17:20.067Z</time></trkpt><trkpt lat="44.9553051" lon="9.0361167"><ele>144.0</ele><time>2026-04-11T14:17:21.067Z</time></trkpt><trkpt lat="44.955508" lon="9.0363753"><ele>144.0</ele><time>2026-04-11T14:17:22.067Z</time></trkpt><trkpt lat="44.955714" lon="9.0365674"><ele>143.0</ele><time>2026-04-11T14:17:23.067Z</time></trkpt><trkpt lat="44.9558945" lon="9.0367998"><ele>142.0</ele><time>2026-04-11T14:17:24.067Z</time></trkpt><trkpt lat="44.9560611" lon="9.0370206"><ele>142.0</ele><time>2026-04-11T14:17:25.067Z</time></trkpt><trkpt lat="44.9562169" lon="9.0372209"><ele>142.0</ele><time>2026-04-11T14:17:26.067Z</time></trkpt><trkpt lat="44.9563611" lon="9.0373978"><ele>142.0</ele><time>2026-04-11T14:17:27.067Z</time></trkpt><trkpt lat="44.9564914" lon="9.0375946"><ele>141.66666666666669</ele><time>2026-04-11T14:17:28.067Z</time></trkpt><trkpt lat="44.9566155" lon="9.0378213"><ele>141.33333333333334</ele><time>2026-04-11T14:17:29.067Z</time></trkpt><trkpt lat="44.9567361" lon="9.038072"><ele>141.0</ele><time>2026-04-11T14:17:30.066Z</time></trkpt><trkpt lat="44.9568577" lon="9.0383384"><ele>140.0</ele><time>2026-04-11T14:17:31.066Z</time></trkpt><trkpt lat="44.9569821" lon="9.0386207"><ele>139.0</ele><time>2026-04-11T14:17:32.067Z</time></trkpt><trkpt lat="44.9571025" lon="9.0389079"><ele>138.0</ele><time>2026-04-11T14:17:33.067Z</time></trkpt><trkpt lat="44.9572268" lon="9.0391853"><ele>137.0</ele><time>2026-04-11T14:17:34.067Z</time></trkpt><trkpt lat="44.957354" lon="9.0394426"><ele>137.0</ele><time>2026-04-11T14:17:35.067Z</time></trkpt><trkpt lat="44.9574903" lon="9.0396895"><ele>137.0</ele><time>2026-04-11T14:17:36.067Z</time></trkpt><trkpt lat="44.9576453" lon="9.0399244"><ele>137.0</ele><time>2026-04-11T14:17:37.067Z</time></trkpt><trkpt lat="44.9578143" lon="9.0401416"><ele>137.0</ele><time>2026-04-11T14:17:38.066Z</time></trkpt><trkpt lat="44.9580003" lon="9.0403451"><ele>137.0</ele><time>2026-04-11T14:17:39.066Z</time></trkpt><trkpt lat="44.9581931" lon="9.0405235"><ele>136.0</ele><time>2026-04-11T14:17:40.067Z</time></trkpt><trkpt lat="44.9583942" lon="9.0407032"><ele>135.0</ele><time>2026-04-11T14:17:41.067Z</time></trkpt><trkpt lat="44.9585926" lon="9.0408788"><ele>135.0</ele><time>2026-04-11T14:17:42.067Z</time></trkpt><trkpt lat="44.9588001" lon="9.0410664"><ele>135.0</ele><time>2026-04-11T14:17:43.066Z</time></trkpt><trkpt lat="44.959009" lon="9.0412599"><ele>134.5</ele><time>2026-04-11T14:17:44.067Z</time></trkpt><trkpt lat="44.9592187" lon="9.0414467"><ele>134.0</ele><time>2026-04-11T14:17:45.067Z</time></trkpt><trkpt lat="44.9594339" lon="9.0416439"><ele>133.5</ele><time>2026-04-11T14:17:46.066Z</time></trkpt><trkpt lat="44.9596493" lon="9.0418418"><ele>133.0</ele><time>2026-04-11T14:17:47.067Z</time></trkpt><trkpt lat="44.9598555" lon="9.0420315"><ele>132.5</ele><time>2026-04-11T14:17:48.067Z</time></trkpt><trkpt lat="44.9600521" lon="9.0422057"><ele>132.0</ele><time>2026-04-11T14:17:49.067Z</time></trkpt><trkpt lat="44.9602464" lon="9.0423853"><ele>131.0</ele><time>2026-04-11T14:17:50.067Z</time></trkpt><trkpt lat="44.9604368" lon="9.0425709"><ele>130.0</ele><time>2026-04-11T14:17:51.067Z</time></trkpt><trkpt lat="44.9606206" lon="9.04275"><ele>130.0</ele><time>2026-04-11T14:17:52.067Z</time></trkpt><trkpt lat="44.96079" lon="9.0428934"><ele>130.0</ele><time>2026-04-11T14:17:53.067Z</time></trkpt><trkpt lat="44.9609601" lon="9.0430573"><ele>130.0</ele><time>2026-04-11T14:17:54.067Z</time></trkpt><trkpt lat="44.9611197" lon="9.0432047"><ele>130.0</ele><time>2026-04-11T14:17:55.067Z</time></trkpt><trkpt lat="44.9612859" lon="9.0433544"><ele>130.0</ele><time>2026-04-11T14:17:56.066Z</time></trkpt><trkpt lat="44.9614523" lon="9.0435062"><ele>130.0</ele><time>2026-04-11T14:17:57.066Z</time></trkpt><trkpt lat="44.961621" lon="9.0436626"><ele>129.66666666666669</ele><time>2026-04-11T14:17:58.067Z</time></trkpt><trkpt lat="44.961789" lon="9.0438187"><ele>129.33333333333334</ele><time>2026-04-11T14:17:59.067Z</time></trkpt><trkpt lat="44.9619553" lon="9.0439731"><ele>129.0</ele><time>2026-04-11T14:18:00.068Z</time></trkpt><trkpt lat="44.9621181" lon="9.0441271"><ele>129.0</ele><time>2026-04-11T14:18:01.068Z</time></trkpt><trkpt lat="44.9622847" lon="9.0442775"><ele>129.0</ele><time>2026-04-11T14:18:02.067Z</time></trkpt><trkpt lat="44.962446" lon="9.0444346"><ele>129.0</ele><time>2026-04-11T14:18:03.067Z</time></trkpt><trkpt lat="44.962602" lon="9.0446131"><ele>128.66666666666666</ele><time>2026-04-11T14:18:04.068Z</time></trkpt><trkpt lat="44.9627481" lon="9.0448074"><ele>128.33333333333331</ele><time>2026-04-11T14:18:05.068Z</time></trkpt><trkpt lat="44.9628968" lon="9.0450395"><ele>128.0</ele><time>2026-04-11T14:18:06.067Z</time></trkpt><trkpt lat="44.9630559" lon="9.0453164"><ele>128.0</ele><time>2026-04-11T14:18:07.068Z</time></trkpt><trkpt lat="44.9632133" lon="9.0456233"><ele>128.0</ele><time>2026-04-11T14:18:08.068Z</time></trkpt><trkpt lat="44.963395" lon="9.0459561"><ele>128.0</ele><time>2026-04-11T14:18:09.068Z</time></trkpt><trkpt lat="44.9635817" lon="9.0463062"><ele>128.0</ele><time>2026-04-11T14:18:10.068Z</time></trkpt><trkpt lat="44.9637725" lon="9.046677"><ele>127.5</ele><time>2026-04-11T14:18:11.068Z</time></trkpt><trkpt lat="44.9639665" lon="9.0470584"><ele>127.0</ele><time>2026-04-11T14:18:12.068Z</time></trkpt><trkpt lat="44.964165" lon="9.0474299"><ele>127.5</ele><time>2026-04-11T14:18:13.067Z</time></trkpt><trkpt lat="44.9643614" lon="9.0477999"><ele>128.0</ele><time>2026-04-11T14:18:14.068Z</time></trkpt><trkpt lat="44.9645439" lon="9.048151"><ele>129.0</ele><time>2026-04-11T14:18:15.067Z</time></trkpt><trkpt lat="44.9647195" lon="9.0484783"><ele>130.0</ele><time>2026-04-11T14:18:16.068Z</time></trkpt><trkpt lat="44.9648837" lon="9.0487797"><ele>130.0</ele><time>2026-04-11T14:18:17.068Z</time></trkpt><trkpt lat="44.9650332" lon="9.0490674"><ele>130.0</ele><time>2026-04-11T14:18:18.068Z</time></trkpt><trkpt lat="44.965185" lon="9.0493411"><ele>129.5</ele><time>2026-04-11T14:18:19.068Z</time></trkpt><trkpt lat="44.9653282" lon="9.0496109"><ele>129.0</ele><time>2026-04-11T14:18:20.068Z</time></trkpt><trkpt lat="44.9654691" lon="9.0498865"><ele>129.0</ele><time>2026-04-11T14:18:21.068Z</time></trkpt><trkpt lat="44.9656111" lon="9.0501595"><ele>129.0</ele><time>2026-04-11T14:18:22.068Z</time></trkpt><trkpt lat="44.9657476" lon="9.0504381"><ele>127.5</ele><time>2026-04-11T14:18:23.068Z</time></trkpt><trkpt lat="44.9658852" lon="9.0507134"><ele>126.0</ele><time>2026-04-11T14:18:24.068Z</time></trkpt><trkpt lat="44.9660128" lon="9.051008"><ele>126.0</ele><time>2026-04-11T14:18:25.068Z</time></trkpt><trkpt lat="44.9661281" lon="9.0513137"><ele>126.0</ele><time>2026-04-11T14:18:26.068Z</time></trkpt><trkpt lat="44.9662301" lon="9.0516469"><ele>126.5</ele><time>2026-04-11T14:18:27.068Z</time></trkpt><trkpt lat="44.9663256" lon="9.0519845"><ele>127.0</ele><time>2026-04-11T14:18:28.068Z</time></trkpt><trkpt lat="44.9664165" lon="9.0523176"><ele>127.0</ele><time>2026-04-11T14:18:29.068Z</time></trkpt><trkpt lat="44.966507" lon="9.0526463"><ele>127.0</ele><time>2026-04-11T14:18:30.068Z</time></trkpt><trkpt lat="44.9665969" lon="9.0529769"><ele>127.5</ele><time>2026-04-11T14:18:31.067Z</time></trkpt><trkpt lat="44.966684" lon="9.0533014"><ele>128.0</ele><time>2026-04-11T14:18:32.068Z</time></trkpt><trkpt lat="44.9667678" lon="9.0536117"><ele>128.0</ele><time>2026-04-11T14:18:33.068Z</time></trkpt><trkpt lat="44.9668488" lon="9.0539103"><ele>128.0</ele><time>2026-04-11T14:18:34.068Z</time></trkpt><trkpt lat="44.9669277" lon="9.0541938"><ele>128.0</ele><time>2026-04-11T14:18:35.068Z</time></trkpt><trkpt lat="44.9670066" lon="9.05448"><ele>128.33333333333331</ele><time>2026-04-11T14:18:36.068Z</time></trkpt><trkpt lat="44.9670849" lon="9.0547527"><ele>128.66666666666666</ele><time>2026-04-11T14:18:37.068Z</time></trkpt><trkpt lat="44.9671667" lon="9.0550283"><ele>129.0</ele><time>2026-04-11T14:18:38.068Z</time></trkpt><trkpt lat="44.9672443" lon="9.0553006"><ele>129.33333333333334</ele><time>2026-04-11T14:18:39.068Z</time></trkpt><trkpt lat="44.9673229" lon="9.0555845"><ele>129.66666666666669</ele><time>2026-04-11T14:18:40.067Z</time></trkpt><trkpt lat="44.9673945" lon="9.0558681"><ele>130.0</ele><time>2026-04-11T14:18:41.068Z</time></trkpt><trkpt lat="44.967474" lon="9.0561544"><ele>129.0</ele><time>2026-04-11T14:18:42.068Z</time></trkpt><trkpt lat="44.9675516" lon="9.0564477"><ele>128.0</ele><time>2026-04-11T14:18:43.068Z</time></trkpt><trkpt lat="44.9676331" lon="9.0567309"><ele>127.0</ele><time>2026-04-11T14:18:44.068Z</time></trkpt><trkpt lat="44.9677075" lon="9.0570027"><ele>127.0</ele><time>2026-04-11T14:18:45.068Z</time></trkpt><trkpt lat="44.9677784" lon="9.057266"><ele>127.0</ele><time>2026-04-11T14:18:46.068Z</time></trkpt><trkpt lat="44.9678456" lon="9.0575314"><ele>127.0</ele><time>2026-04-11T14:18:47.068Z</time></trkpt><trkpt lat="44.9679152" lon="9.0577981"><ele>127.0</ele><time>2026-04-11T14:18:48.068Z</time></trkpt><trkpt lat="44.9679871" lon="9.0580596"><ele>127.0</ele><time>2026-04-11T14:18:49.068Z</time></trkpt><trkpt lat="44.9680502" lon="9.0583066"><ele>127.0</ele><time>2026-04-11T14:18:50.068Z</time></trkpt><trkpt lat="44.968112" lon="9.0585417"><ele>127.0</ele><time>2026-04-11T14:18:51.069Z</time></trkpt><trkpt lat="44.9681711" lon="9.0587591"><ele>127.0</ele><time>2026-04-11T14:18:52.069Z</time></trkpt><trkpt lat="44.9682261" lon="9.0589655"><ele>127.0</ele><time>2026-04-11T14:18:53.069Z</time></trkpt><trkpt lat="44.9682755" lon="9.05915"><ele>127.0</ele><time>2026-04-11T14:18:54.069Z</time></trkpt><trkpt lat="44.9683143" lon="9.0593086"><ele>126.99999999999999</ele><time>2026-04-11T14:18:55.068Z</time></trkpt><trkpt lat="44.9683484" lon="9.059461"><ele>126.99999999999999</ele><time>2026-04-11T14:18:56.069Z</time></trkpt><trkpt lat="44.9683766" lon="9.0596056"><ele>127.0</ele><time>2026-04-11T14:18:57.068Z</time></trkpt><trkpt lat="44.9684061" lon="9.0597356"><ele>127.0</ele><time>2026-04-11T14:18:58.069Z</time></trkpt><trkpt lat="44.9684376" lon="9.0598333"><ele>126.0</ele><time>2026-04-11T14:18:59.069Z</time></trkpt><trkpt lat="44.9685024" lon="9.0599707"><ele>124.99999999999999</ele><time>2026-04-11T14:19:01.068Z</time></trkpt><trkpt lat="44.9685161" lon="9.0601407"><ele>123.99999999999999</ele><time>2026-04-11T14:19:03.068Z</time></trkpt><trkpt lat="44.9685258" lon="9.0602469"><ele>123.0</ele><time>2026-04-11T14:19:04.068Z</time></trkpt><trkpt lat="44.9685503" lon="9.06034"><ele>122.0</ele><time>2026-04-11T14:19:05.068Z</time></trkpt><trkpt lat="44.9686016" lon="9.060417"><ele>122.0</ele><time>2026-04-11T14:19:06.069Z</time></trkpt><trkpt lat="44.9686659" lon="9.0604581"><ele>121.99999999999999</ele><time>2026-04-11T14:19:07.069Z</time></trkpt><trkpt lat="44.9687442" lon="9.0604763"><ele>121.99999999999999</ele><time>2026-04-11T14:19:08.069Z</time></trkpt><trkpt lat="44.9688311" lon="9.0604975"><ele>122.0</ele><time>2026-04-11T14:19:09.069Z</time></trkpt><trkpt lat="44.968931" lon="9.0605388"><ele>122.0</ele><time>2026-04-11T14:19:10.069Z</time></trkpt><trkpt lat="44.9690401" lon="9.0605973"><ele>122.0</ele><time>2026-04-11T14:19:11.069Z</time></trkpt><trkpt lat="44.9691789" lon="9.0606359"><ele>122.0</ele><time>2026-04-11T14:19:12.069Z</time></trkpt><trkpt lat="44.9693551" lon="9.0606549"><ele>122.0</ele><time>2026-04-11T14:19:13.069Z</time></trkpt><trkpt lat="44.9695653" lon="9.0606819"><ele>122.0</ele><time>2026-04-11T14:19:14.069Z</time></trkpt><trkpt lat="44.9698048" lon="9.0607264"><ele>122.0</ele><time>2026-04-11T14:19:15.069Z</time></trkpt><trkpt lat="44.9700645" lon="9.0607824"><ele>122.0</ele><time>2026-04-11T14:19:16.069Z</time></trkpt><trkpt lat="44.9703377" lon="9.0608319"><ele>122.0</ele><time>2026-04-11T14:19:17.069Z</time></trkpt><trkpt lat="44.9706381" lon="9.0608854"><ele>120.5</ele><time>2026-04-11T14:19:18.069Z</time></trkpt><trkpt lat="44.9709562" lon="9.0609385"><ele>119.0</ele><time>2026-04-11T14:19:19.069Z</time></trkpt><trkpt lat="44.9712631" lon="9.0610262"><ele>119.0</ele><time>2026-04-11T14:19:20.069Z</time></trkpt><trkpt lat="44.9715558" lon="9.0610779"><ele>119.0</ele><time>2026-04-11T14:19:21.069Z</time></trkpt><trkpt lat="44.9718268" lon="9.0611211"><ele>118.5</ele><time>2026-04-11T14:19:22.069Z</time></trkpt><trkpt lat="44.9720821" lon="9.0611637"><ele>118.0</ele><time>2026-04-11T14:19:23.069Z</time></trkpt><trkpt lat="44.9723183" lon="9.0612076"><ele>118.0</ele><time>2026-04-11T14:19:24.069Z</time></trkpt><trkpt lat="44.9725424" lon="9.0612481"><ele>118.0</ele><time>2026-04-11T14:19:25.069Z</time></trkpt><trkpt lat="44.972757" lon="9.0612852"><ele>118.0</ele><time>2026-04-11T14:19:26.069Z</time></trkpt><trkpt lat="44.9729701" lon="9.0613236"><ele>118.0</ele><time>2026-04-11T14:19:27.069Z</time></trkpt><trkpt lat="44.9731804" lon="9.0613596"><ele>118.0</ele><time>2026-04-11T14:19:28.069Z</time></trkpt><trkpt lat="44.9733895" lon="9.0613971"><ele>118.0</ele><time>2026-04-11T14:19:29.069Z</time></trkpt><trkpt lat="44.9735942" lon="9.0614322"><ele>117.0</ele><time>2026-04-11T14:19:30.069Z</time></trkpt><trkpt lat="44.9737993" lon="9.0614691"><ele>116.0</ele><time>2026-04-11T14:19:31.068Z</time></trkpt><trkpt lat="44.9740033" lon="9.0615038"><ele>115.0</ele><time>2026-04-11T14:19:32.069Z</time></trkpt><trkpt lat="44.9742112" lon="9.061538"><ele>115.0</ele><time>2026-04-11T14:19:33.069Z</time></trkpt><trkpt lat="44.9744272" lon="9.0615731"><ele>115.0</ele><time>2026-04-11T14:19:34.068Z</time></trkpt><trkpt lat="44.9746442" lon="9.0616119"><ele>115.0</ele><time>2026-04-11T14:19:35.069Z</time></trkpt><trkpt lat="44.9748646" lon="9.0616527"><ele>115.0</ele><time>2026-04-11T14:19:36.068Z</time></trkpt><trkpt lat="44.9750897" lon="9.0616888"><ele>115.0</ele><time>2026-04-11T14:19:37.068Z</time></trkpt><trkpt lat="44.9753152" lon="9.0617252"><ele>115.0</ele><time>2026-04-11T14:19:38.069Z</time></trkpt><trkpt lat="44.9755357" lon="9.0617626"><ele>115.0</ele><time>2026-04-11T14:19:39.069Z</time></trkpt><trkpt lat="44.9757529" lon="9.0617999"><ele>115.0</ele><time>2026-04-11T14:19:40.069Z</time></trkpt><trkpt lat="44.9759537" lon="9.0618314"><ele>114.0</ele><time>2026-04-11T14:19:41.069Z</time></trkpt><trkpt lat="44.9761483" lon="9.0618606"><ele>113.0</ele><time>2026-04-11T14:19:42.07Z</time></trkpt><trkpt lat="44.9763389" lon="9.0618927"><ele>112.0</ele><time>2026-04-11T14:19:43.07Z</time></trkpt><trkpt lat="44.9765327" lon="9.0619215"><ele>112.0</ele><time>2026-04-11T14:19:44.07Z</time></trkpt><trkpt lat="44.976722" lon="9.0619596"><ele>112.0</ele><time>2026-04-11T14:19:45.07Z</time></trkpt><trkpt lat="44.9769065" lon="9.0619979"><ele>112.0</ele><time>2026-04-11T14:19:46.069Z</time></trkpt><trkpt lat="44.9770924" lon="9.0620403"><ele>112.0</ele><time>2026-04-11T14:19:47.07Z</time></trkpt><trkpt lat="44.9772767" lon="9.0620822"><ele>112.0</ele><time>2026-04-11T14:19:48.07Z</time></trkpt><trkpt lat="44.9774557" lon="9.0621252"><ele>112.0</ele><time>2026-04-11T14:19:49.07Z</time></trkpt><trkpt lat="44.9776284" lon="9.0621633"><ele>112.33333333333334</ele><time>2026-04-11T14:19:50.07Z</time></trkpt><trkpt lat="44.9778116" lon="9.0622037"><ele>112.66666666666666</ele><time>2026-04-11T14:19:51.07Z</time></trkpt><trkpt lat="44.9780089" lon="9.0622446"><ele>113.0</ele><time>2026-04-11T14:19:52.07Z</time></trkpt><trkpt lat="44.978212" lon="9.0622967"><ele>112.33333333333333</ele><time>2026-04-11T14:19:53.07Z</time></trkpt><trkpt lat="44.9784092" lon="9.0623459"><ele>111.66666666666666</ele><time>2026-04-11T14:19:54.07Z</time></trkpt><trkpt lat="44.9785921" lon="9.0623977"><ele>111.0</ele><time>2026-04-11T14:19:55.07Z</time></trkpt><trkpt lat="44.9787593" lon="9.0624449"><ele>111.0</ele><time>2026-04-11T14:19:56.07Z</time></trkpt><trkpt lat="44.9789189" lon="9.0624885"><ele>111.0</ele><time>2026-04-11T14:19:57.07Z</time></trkpt><trkpt lat="44.9790658" lon="9.0625309"><ele>111.0</ele><time>2026-04-11T14:19:58.07Z</time></trkpt><trkpt lat="44.9792124" lon="9.0625736"><ele>110.5</ele><time>2026-04-11T14:19:59.07Z</time></trkpt><trkpt lat="44.9793567" lon="9.0626143"><ele>110.0</ele><time>2026-04-11T14:20:00.07Z</time></trkpt><trkpt lat="44.9794994" lon="9.0626545"><ele>109.5</ele><time>2026-04-11T14:20:01.07Z</time></trkpt><trkpt lat="44.9796398" lon="9.062703"><ele>109.0</ele><time>2026-04-11T14:20:02.07Z</time></trkpt><trkpt lat="44.9797778" lon="9.0627524"><ele>109.0</ele><time>2026-04-11T14:20:03.07Z</time></trkpt><trkpt lat="44.9799089" lon="9.0627866"><ele>109.0</ele><time>2026-04-11T14:20:04.07Z</time></trkpt><trkpt lat="44.9800312" lon="9.0628148"><ele>109.0</ele><time>2026-04-11T14:20:05.07Z</time></trkpt><trkpt lat="44.9801421" lon="9.0628347"><ele>109.0</ele><time>2026-04-11T14:20:06.07Z</time></trkpt><trkpt lat="44.9802349" lon="9.0628464"><ele>108.83333333333334</ele><time>2026-04-11T14:20:07.07Z</time></trkpt><trkpt lat="44.9803127" lon="9.0628607"><ele>108.66666666666667</ele><time>2026-04-11T14:20:08.07Z</time></trkpt><trkpt lat="44.9803838" lon="9.0628717"><ele>108.5</ele><time>2026-04-11T14:20:09.07Z</time></trkpt><trkpt lat="44.9804501" lon="9.06289"><ele>108.33333333333334</ele><time>2026-04-11T14:20:10.069Z</time></trkpt><trkpt lat="44.9805143" lon="9.0629357"><ele>108.16666666666667</ele><time>2026-04-11T14:20:11.07Z</time></trkpt><trkpt lat="44.9805865" lon="9.0630023"><ele>108.0</ele><time>2026-04-11T14:20:12.07Z</time></trkpt><trkpt lat="44.9806631" lon="9.063062"><ele>108.0</ele><time>2026-04-11T14:20:13.069Z</time></trkpt><trkpt lat="44.9807465" lon="9.0630723"><ele>108.00000000000001</ele><time>2026-04-11T14:20:14.07Z</time></trkpt><trkpt lat="44.9808393" lon="9.0630459"><ele>108.00000000000001</ele><time>2026-04-11T14:20:15.069Z</time></trkpt><trkpt lat="44.9809626" lon="9.0630144"><ele>108.0</ele><time>2026-04-11T14:20:16.07Z</time></trkpt><trkpt lat="44.9811009" lon="9.0630369"><ele>108.0</ele><time>2026-04-11T14:20:17.069Z</time></trkpt><trkpt lat="44.981255" lon="9.063075"><ele>108.0</ele><time>2026-04-11T14:20:18.07Z</time></trkpt><trkpt lat="44.9814027" lon="9.0631097"><ele>108.0</ele><time>2026-04-11T14:20:19.07Z</time></trkpt><trkpt lat="44.9815506" lon="9.063149"><ele>108.0</ele><time>2026-04-11T14:20:20.07Z</time></trkpt><trkpt lat="44.981713" lon="9.0631816"><ele>108.0</ele><time>2026-04-11T14:20:21.07Z</time></trkpt><trkpt lat="44.9819003" lon="9.0632221"><ele>108.0</ele><time>2026-04-11T14:20:22.069Z</time></trkpt><trkpt lat="44.9821139" lon="9.0632694"><ele>108.0</ele><time>2026-04-11T14:20:23.07Z</time></trkpt><trkpt lat="44.9823343" lon="9.0633334"><ele>106.5</ele><time>2026-04-11T14:20:24.069Z</time></trkpt><trkpt lat="44.9825625" lon="9.0633973"><ele>105.0</ele><time>2026-04-11T14:20:25.07Z</time></trkpt><trkpt lat="44.9828019" lon="9.0634553"><ele>105.0</ele><time>2026-04-11T14:20:26.07Z</time></trkpt><trkpt lat="44.9830506" lon="9.0635169"><ele>105.0</ele><time>2026-04-11T14:20:27.069Z</time></trkpt><trkpt lat="44.9833051" lon="9.0635815"><ele>104.5</ele><time>2026-04-11T14:20:28.07Z</time></trkpt><trkpt lat="44.9835624" lon="9.0636472"><ele>104.0</ele><time>2026-04-11T14:20:29.07Z</time></trkpt><trkpt lat="44.9838159" lon="9.0637109"><ele>104.0</ele><time>2026-04-11T14:20:30.07Z</time></trkpt><trkpt lat="44.984057" lon="9.063766"><ele>104.0</ele><time>2026-04-11T14:20:31.071Z</time></trkpt><trkpt lat="44.9842818" lon="9.0638071"><ele>104.0</ele><time>2026-04-11T14:20:32.071Z</time></trkpt><trkpt lat="44.9845037" lon="9.0638329"><ele>104.0</ele><time>2026-04-11T14:20:33.071Z</time></trkpt><trkpt lat="44.9847244" lon="9.0638534"><ele>104.0</ele><time>2026-04-11T14:20:34.071Z</time></trkpt><trkpt lat="44.9849467" lon="9.0638728"><ele>103.66666666666666</ele><time>2026-04-11T14:20:35.071Z</time></trkpt><trkpt lat="44.985167" lon="9.0638901"><ele>103.33333333333334</ele><time>2026-04-11T14:20:36.07Z</time></trkpt><trkpt lat="44.9853936" lon="9.0638968"><ele>103.0</ele><time>2026-04-11T14:20:37.071Z</time></trkpt><trkpt lat="44.9856374" lon="9.0639262"><ele>102.0</ele><time>2026-04-11T14:20:38.071Z</time></trkpt><trkpt lat="44.985887" lon="9.0639702"><ele>101.0</ele><time>2026-04-11T14:20:39.071Z</time></trkpt><trkpt lat="44.9861436" lon="9.0640176"><ele>101.0</ele><time>2026-04-11T14:20:40.07Z</time></trkpt><trkpt lat="44.9864029" lon="9.0640706"><ele>101.0</ele><time>2026-04-11T14:20:41.07Z</time></trkpt><trkpt lat="44.9866638" lon="9.064132"><ele>101.5</ele><time>2026-04-11T14:20:42.07Z</time></trkpt><trkpt lat="44.9869254" lon="9.064196"><ele>102.0</ele><time>2026-04-11T14:20:43.071Z</time></trkpt><trkpt lat="44.9871831" lon="9.0642647"><ele>102.0</ele><time>2026-04-11T14:20:44.07Z</time></trkpt><trkpt lat="44.9874349" lon="9.0643404"><ele>102.0</ele><time>2026-04-11T14:20:45.071Z</time></trkpt><trkpt lat="44.9876862" lon="9.0644325"><ele>100.5</ele><time>2026-04-11T14:20:46.071Z</time></trkpt><trkpt lat="44.9879344" lon="9.0645347"><ele>99.0</ele><time>2026-04-11T14:20:47.071Z</time></trkpt><trkpt lat="44.9881819" lon="9.0646382"><ele>98.0</ele><time>2026-04-11T14:20:48.071Z</time></trkpt><trkpt lat="44.9884304" lon="9.064736"><ele>97.0</ele><time>2026-04-11T14:20:49.07Z</time></trkpt><trkpt lat="44.9886796" lon="9.0648409"><ele>97.0</ele><time>2026-04-11T14:20:50.071Z</time></trkpt><trkpt lat="44.988926" lon="9.0649448"><ele>97.0</ele><time>2026-04-11T14:20:51.07Z</time></trkpt><trkpt lat="44.9891707" lon="9.0650471"><ele>98.5</ele><time>2026-04-11T14:20:52.071Z</time></trkpt><trkpt lat="44.9894169" lon="9.0651477"><ele>100.0</ele><time>2026-04-11T14:20:53.07Z</time></trkpt><trkpt lat="44.9896604" lon="9.0652493"><ele>100.0</ele><time>2026-04-11T14:20:54.071Z</time></trkpt><trkpt lat="44.9899051" lon="9.0653527"><ele>100.0</ele><time>2026-04-11T14:20:55.071Z</time></trkpt><trkpt lat="44.9901471" lon="9.0654537"><ele>99.0</ele><time>2026-04-11T14:20:56.071Z</time></trkpt><trkpt lat="44.9903889" lon="9.0655521"><ele>98.0</ele><time>2026-04-11T14:20:57.07Z</time></trkpt><trkpt lat="44.9906305" lon="9.0656512"><ele>98.0</ele><time>2026-04-11T14:20:58.071Z</time></trkpt><trkpt lat="44.9908716" lon="9.0657516"><ele>98.0</ele><time>2026-04-11T14:20:59.071Z</time></trkpt><trkpt lat="44.9911115" lon="9.0658538"><ele>98.0</ele><time>2026-04-11T14:21:00.071Z</time></trkpt><trkpt lat="44.9913516" lon="9.0659541"><ele>98.0</ele><time>2026-04-11T14:21:01.071Z</time></trkpt><trkpt lat="44.9915921" lon="9.0660518"><ele>96.5</ele><time>2026-04-11T14:21:02.071Z</time></trkpt><trkpt lat="44.9918253" lon="9.0661482"><ele>95.0</ele><time>2026-04-11T14:21:03.071Z</time></trkpt><trkpt lat="44.99204" lon="9.0662401"><ele>95.0</ele><time>2026-04-11T14:21:04.071Z</time></trkpt><trkpt lat="44.9922391" lon="9.0663266"><ele>95.0</ele><time>2026-04-11T14:21:05.071Z</time></trkpt><trkpt lat="44.9924284" lon="9.0664043"><ele>95.0</ele><time>2026-04-11T14:21:06.07Z</time></trkpt><trkpt lat="44.9925985" lon="9.0664784"><ele>95.0</ele><time>2026-04-11T14:21:07.07Z</time></trkpt><trkpt lat="44.9927532" lon="9.0665463"><ele>95.0</ele><time>2026-04-11T14:21:08.07Z</time></trkpt><trkpt lat="44.9929065" lon="9.0665635"><ele>95.0</ele><time>2026-04-11T14:21:09.07Z</time></trkpt><trkpt lat="44.9930293" lon="9.066617"><ele>95.0</ele><time>2026-04-11T14:21:10.071Z</time></trkpt><trkpt lat="44.9931305" lon="9.0666604"><ele>95.0</ele><time>2026-04-11T14:21:11.071Z</time></trkpt><trkpt lat="44.9932201" lon="9.0667038"><ele>95.0</ele><time>2026-04-11T14:21:12.07Z</time></trkpt><trkpt lat="44.9932947" lon="9.066749"><ele>95.0</ele><time>2026-04-11T14:21:13.071Z</time></trkpt><trkpt lat="44.9933705" lon="9.0667954"><ele>95.0</ele><time>2026-04-11T14:21:14.071Z</time></trkpt><trkpt lat="44.9934635" lon="9.066841"><ele>95.0</ele><time>2026-04-11T14:21:15.071Z</time></trkpt><trkpt lat="44.9935763" lon="9.0668786"><ele>95.0</ele><time>2026-04-11T14:21:16.07Z</time></trkpt><trkpt lat="44.9936948" lon="9.0669219"><ele>95.0</ele><time>2026-04-11T14:21:17.071Z</time></trkpt><trkpt lat="44.9938248" lon="9.0669787"><ele>95.0</ele><time>2026-04-11T14:21:18.071Z</time></trkpt><trkpt lat="44.9939669" lon="9.0670464"><ele>95.0</ele><time>2026-04-11T14:21:19.071Z</time></trkpt><trkpt lat="44.9941215" lon="9.0671228"><ele>94.33333333333334</ele><time>2026-04-11T14:21:20.071Z</time></trkpt><trkpt lat="44.994275" lon="9.0671957"><ele>93.66666666666667</ele><time>2026-04-11T14:21:21.07Z</time></trkpt><trkpt lat="44.994427" lon="9.0672663"><ele>93.0</ele><time>2026-04-11T14:21:22.072Z</time></trkpt><trkpt lat="44.9945904" lon="9.0673495"><ele>93.0</ele><time>2026-04-11T14:21:23.072Z</time></trkpt><trkpt lat="44.9947645" lon="9.0674335"><ele>93.0</ele><time>2026-04-11T14:21:24.072Z</time></trkpt><trkpt lat="44.9949387" lon="9.06752"><ele>93.0</ele><time>2026-04-11T14:21:25.072Z</time></trkpt><trkpt lat="44.99512" lon="9.0676117"><ele>92.33333333333333</ele><time>2026-04-11T14:21:26.072Z</time></trkpt><trkpt lat="44.9953054" lon="9.0676996"><ele>91.66666666666666</ele><time>2026-04-11T14:21:27.072Z</time></trkpt><trkpt lat="44.9954745" lon="9.0677837"><ele>91.0</ele><time>2026-04-11T14:21:28.072Z</time></trkpt><trkpt lat="44.9956324" lon="9.067859"><ele>91.0</ele><time>2026-04-11T14:21:29.071Z</time></trkpt><trkpt lat="44.9957816" lon="9.0679293"><ele>91.0</ele><time>2026-04-11T14:21:30.072Z</time></trkpt><trkpt lat="44.9959264" lon="9.0679967"><ele>91.0</ele><time>2026-04-11T14:21:31.072Z</time></trkpt><trkpt lat="44.996073" lon="9.0680648"><ele>90.75</ele><time>2026-04-11T14:21:32.071Z</time></trkpt><trkpt lat="44.9962096" lon="9.0681267"><ele>90.5</ele><time>2026-04-11T14:21:33.072Z</time></trkpt><trkpt lat="44.9963357" lon="9.0681858"><ele>90.25</ele><time>2026-04-11T14:21:34.072Z</time></trkpt><trkpt lat="44.996452" lon="9.0682417"><ele>90.0</ele><time>2026-04-11T14:21:35.072Z</time></trkpt><trkpt lat="44.9965505" lon="9.0682904"><ele>90.0</ele><time>2026-04-11T14:21:36.072Z</time></trkpt><trkpt lat="44.9966303" lon="9.0683318"><ele>90.0</ele><time>2026-04-11T14:21:37.071Z</time></trkpt><trkpt lat="44.9966981" lon="9.068367"><ele>90.0</ele><time>2026-04-11T14:21:38.071Z</time></trkpt><trkpt lat="44.9967988" lon="9.068425"><ele>90.0</ele><time>2026-04-11T14:21:40.071Z</time></trkpt><trkpt lat="44.9968619" lon="9.0684704"><ele>90.0</ele><time>2026-04-11T14:21:42.071Z</time></trkpt><trkpt lat="44.9969359" lon="9.0685311"><ele>90.0</ele><time>2026-04-11T14:21:45.072Z</time></trkpt><trkpt lat="44.9969931" lon="9.0686136"><ele>89.83333333333333</ele><time>2026-04-11T14:21:49.072Z</time></trkpt><trkpt lat="44.9970647" lon="9.0687215"><ele>89.66666666666667</ele><time>2026-04-11T14:21:51.072Z</time></trkpt><trkpt lat="44.9971172" lon="9.0687838"><ele>89.5</ele><time>2026-04-11T14:21:52.072Z</time></trkpt><trkpt lat="44.9971802" lon="9.0688204"><ele>89.33333333333334</ele><time>2026-04-11T14:21:53.072Z</time></trkpt><trkpt lat="44.9972486" lon="9.068822"><ele>89.16666666666667</ele><time>2026-04-11T14:21:54.072Z</time></trkpt><trkpt lat="44.9973153" lon="9.0687905"><ele>89.0</ele><time>2026-04-11T14:21:55.072Z</time></trkpt><trkpt lat="44.9973791" lon="9.0687361"><ele>89.0</ele><time>2026-04-11T14:21:56.072Z</time></trkpt><trkpt lat="44.9974421" lon="9.0686807"><ele>89.0</ele><time>2026-04-11T14:21:57.072Z</time></trkpt><trkpt lat="44.9975187" lon="9.0686445"><ele>89.0</ele><time>2026-04-11T14:21:58.072Z</time></trkpt><trkpt lat="44.9976087" lon="9.0686494"><ele>89.0</ele><time>2026-04-11T14:21:59.072Z</time></trkpt><trkpt lat="44.997708" lon="9.0686555"><ele>89.0</ele><time>2026-04-11T14:22:00.072Z</time></trkpt><trkpt lat="44.9978061" lon="9.0686664"><ele>89.0</ele><time>2026-04-11T14:22:01.072Z</time></trkpt><trkpt lat="44.99791" lon="9.068682"><ele>88.80000000000001</ele><time>2026-04-11T14:22:02.072Z</time></trkpt><trkpt lat="44.9980073" lon="9.0686957"><ele>88.60000000000001</ele><time>2026-04-11T14:22:03.072Z</time></trkpt><trkpt lat="44.9981037" lon="9.0687085"><ele>88.4</ele><time>2026-04-11T14:22:04.072Z</time></trkpt><trkpt lat="44.998202" lon="9.0687208"><ele>88.2</ele><time>2026-04-11T14:22:05.072Z</time></trkpt><trkpt lat="44.9983017" lon="9.0687404"><ele>88.0</ele><time>2026-04-11T14:22:06.072Z</time></trkpt><trkpt lat="44.9984051" lon="9.0687569"><ele>87.0</ele><time>2026-04-11T14:22:07.072Z</time></trkpt><trkpt lat="44.9985095" lon="9.0687659"><ele>86.0</ele><time>2026-04-11T14:22:08.072Z</time></trkpt><trkpt lat="44.9986283" lon="9.0687754"><ele>85.0</ele><time>2026-04-11T14:22:09.072Z</time></trkpt><trkpt lat="44.9987645" lon="9.0687881"><ele>84.0</ele><time>2026-04-11T14:22:10.072Z</time></trkpt><trkpt lat="44.9989142" lon="9.0688086"><ele>84.0</ele><time>2026-04-11T14:22:11.072Z</time></trkpt><trkpt lat="44.9990574" lon="9.0688402"><ele>84.0</ele><time>2026-04-11T14:22:12.073Z</time></trkpt><trkpt lat="44.9991946" lon="9.0688686"><ele>84.0</ele><time>2026-04-11T14:22:13.073Z</time></trkpt><trkpt lat="44.999335" lon="9.0688866"><ele>84.0</ele><time>2026-04-11T14:22:14.072Z</time></trkpt><trkpt lat="44.9994812" lon="9.0688995"><ele>83.0</ele><time>2026-04-11T14:22:15.073Z</time></trkpt><trkpt lat="44.9996415" lon="9.0689293"><ele>82.0</ele><time>2026-04-11T14:22:16.073Z</time></trkpt><trkpt lat="44.9998112" lon="9.0689423"><ele>81.0</ele><time>2026-04-11T14:22:17.073Z</time></trkpt><trkpt lat="44.9999998" lon="9.0689726"><ele>81.0</ele><time>2026-04-11T14:22:18.072Z</time></trkpt><trkpt lat="45.0001849" lon="9.0690122"><ele>81.0</ele><time>2026-04-11T14:22:19.073Z</time></trkpt><trkpt lat="45.0003655" lon="9.06905"><ele>81.0</ele><time>2026-04-11T14:22:20.073Z</time></trkpt><trkpt lat="45.0005285" lon="9.0690721"><ele>81.0</ele><time>2026-04-11T14:22:21.072Z</time></trkpt><trkpt lat="45.0006838" lon="9.0690907"><ele>81.0</ele><time>2026-04-11T14:22:22.073Z</time></trkpt><trkpt lat="45.0008311" lon="9.0691237"><ele>81.0</ele><time>2026-04-11T14:22:23.072Z</time></trkpt><trkpt lat="45.0009699" lon="9.0691542"><ele>81.0</ele><time>2026-04-11T14:22:24.073Z</time></trkpt><trkpt lat="45.0011025" lon="9.0691788"><ele>81.5</ele><time>2026-04-11T14:22:25.072Z</time></trkpt><trkpt lat="45.0012286" lon="9.0691891"><ele>82.0</ele><time>2026-04-11T14:22:26.072Z</time></trkpt><trkpt lat="45.0013461" lon="9.06921"><ele>82.5</ele><time>2026-04-11T14:22:27.073Z</time></trkpt><trkpt lat="45.0014593" lon="9.0692297"><ele>83.0</ele><time>2026-04-11T14:22:28.073Z</time></trkpt><trkpt lat="45.0015653" lon="9.0692502"><ele>83.0</ele><time>2026-04-11T14:22:29.073Z</time></trkpt><trkpt lat="45.0016623" lon="9.0692672"><ele>83.0</ele><time>2026-04-11T14:22:30.073Z</time></trkpt><trkpt lat="45.0017518" lon="9.0692766"><ele>83.0</ele><time>2026-04-11T14:22:31.073Z</time></trkpt><trkpt lat="45.0018284" lon="9.0692894"><ele>83.0</ele><time>2026-04-11T14:22:32.073Z</time></trkpt><trkpt lat="45.0019423" lon="9.0693585"><ele>83.0</ele><time>2026-04-11T14:22:34.073Z</time></trkpt><trkpt lat="45.0019886" lon="9.0694292"><ele>83.16666666666667</ele><time>2026-04-11T14:22:35.072Z</time></trkpt><trkpt lat="45.0020474" lon="9.0695149"><ele>83.33333333333334</ele><time>2026-04-11T14:22:36.072Z</time></trkpt><trkpt lat="45.0021259" lon="9.0695673"><ele>83.5</ele><time>2026-04-11T14:22:37.073Z</time></trkpt><trkpt lat="45.002213" lon="9.0695999"><ele>83.66666666666667</ele><time>2026-04-11T14:22:38.072Z</time></trkpt><trkpt lat="45.0023017" lon="9.0695855"><ele>83.83333333333333</ele><time>2026-04-11T14:22:39.073Z</time></trkpt><trkpt lat="45.0023852" lon="9.0695258"><ele>84.0</ele><time>2026-04-11T14:22:40.073Z</time></trkpt><trkpt lat="45.0024669" lon="9.0694577"><ele>83.5</ele><time>2026-04-11T14:22:41.073Z</time></trkpt><trkpt lat="45.0025601" lon="9.0694121"><ele>83.0</ele><time>2026-04-11T14:22:42.073Z</time></trkpt><trkpt lat="45.0026812" lon="9.0694099"><ele>82.5</ele><time>2026-04-11T14:22:43.073Z</time></trkpt><trkpt lat="45.0028356" lon="9.069443"><ele>82.0</ele><time>2026-04-11T14:22:44.073Z</time></trkpt><trkpt lat="45.0029992" lon="9.0694731"><ele>82.0</ele><time>2026-04-11T14:22:45.073Z</time></trkpt><trkpt lat="45.0031764" lon="9.0695088"><ele>82.0</ele><time>2026-04-11T14:22:46.073Z</time></trkpt><trkpt lat="45.0033901" lon="9.0695328"><ele>82.0</ele><time>2026-04-11T14:22:47.073Z</time></trkpt><trkpt lat="45.0036003" lon="9.0695709"><ele>82.0</ele><time>2026-04-11T14:22:48.073Z</time></trkpt><trkpt lat="45.0038203" lon="9.0696022"><ele>82.0</ele><time>2026-04-11T14:22:49.073Z</time></trkpt><trkpt lat="45.0040468" lon="9.0696334"><ele>82.0</ele><time>2026-04-11T14:22:50.073Z</time></trkpt><trkpt lat="45.0042795" lon="9.0696667"><ele>82.5</ele><time>2026-04-11T14:22:51.072Z</time></trkpt><trkpt lat="45.0045186" lon="9.0697017"><ele>83.0</ele><time>2026-04-11T14:22:52.073Z</time></trkpt><trkpt lat="45.0047542" lon="9.0697382"><ele>83.0</ele><time>2026-04-11T14:22:53.073Z</time></trkpt><trkpt lat="45.0049772" lon="9.0697633"><ele>83.0</ele><time>2026-04-11T14:22:54.073Z</time></trkpt><trkpt lat="45.0051966" lon="9.0697957"><ele>83.0</ele><time>2026-04-11T14:22:55.073Z</time></trkpt><trkpt lat="45.0054072" lon="9.0698309"><ele>83.0</ele><time>2026-04-11T14:22:56.073Z</time></trkpt><trkpt lat="45.0055972" lon="9.0698567"><ele>83.0</ele><time>2026-04-11T14:22:57.073Z</time></trkpt><trkpt lat="45.0057881" lon="9.0698929"><ele>83.0</ele><time>2026-04-11T14:22:58.072Z</time></trkpt><trkpt lat="45.0059748" lon="9.0699244"><ele>83.0</ele><time>2026-04-11T14:22:59.073Z</time></trkpt><trkpt lat="45.0061648" lon="9.0699737"><ele>83.0</ele><time>2026-04-11T14:23:00.073Z</time></trkpt><trkpt lat="45.0063482" lon="9.0700378"><ele>83.0</ele><time>2026-04-11T14:23:01.072Z</time></trkpt><trkpt lat="45.0065279" lon="9.0701361"><ele>82.33333333333334</ele><time>2026-04-11T14:23:02.073Z</time></trkpt><trkpt lat="45.0067161" lon="9.0702587"><ele>81.66666666666667</ele><time>2026-04-11T14:23:03.074Z</time></trkpt><trkpt lat="45.0069004" lon="9.0704034"><ele>81.0</ele><time>2026-04-11T14:23:04.074Z</time></trkpt><trkpt lat="45.0070772" lon="9.0705717"><ele>81.0</ele><time>2026-04-11T14:23:05.074Z</time></trkpt><trkpt lat="45.0072495" lon="9.0707651"><ele>81.0</ele><time>2026-04-11T14:23:06.074Z</time></trkpt><trkpt lat="45.00742" lon="9.0709791"><ele>81.0</ele><time>2026-04-11T14:23:07.074Z</time></trkpt><trkpt lat="45.0075936" lon="9.0712187"><ele>81.5</ele><time>2026-04-11T14:23:08.073Z</time></trkpt><trkpt lat="45.0077766" lon="9.0714673"><ele>82.0</ele><time>2026-04-11T14:23:09.074Z</time></trkpt><trkpt lat="45.0079533" lon="9.0717184"><ele>82.0</ele><time>2026-04-11T14:23:10.074Z</time></trkpt><trkpt lat="45.0081125" lon="9.071948"><ele>82.0</ele><time>2026-04-11T14:23:11.073Z</time></trkpt><trkpt lat="45.0082596" lon="9.0721676"><ele>82.0</ele><time>2026-04-11T14:23:12.074Z</time></trkpt><trkpt lat="45.0084035" lon="9.0723572"><ele>81.66666666666666</ele><time>2026-04-11T14:23:13.074Z</time></trkpt><trkpt lat="45.0085549" lon="9.0725451"><ele>81.33333333333333</ele><time>2026-04-11T14:23:14.074Z</time></trkpt><trkpt lat="45.0087179" lon="9.0727082"><ele>81.0</ele><time>2026-04-11T14:23:15.073Z</time></trkpt><trkpt lat="45.0089077" lon="9.0728551"><ele>81.0</ele><time>2026-04-11T14:23:16.074Z</time></trkpt><trkpt lat="45.0091026" lon="9.0729856"><ele>81.0</ele><time>2026-04-11T14:23:17.074Z</time></trkpt><trkpt lat="45.0093088" lon="9.0731117"><ele>81.0</ele><time>2026-04-11T14:23:18.074Z</time></trkpt><trkpt lat="45.0095145" lon="9.0732341"><ele>81.0</ele><time>2026-04-11T14:23:19.074Z</time></trkpt><trkpt lat="45.009732" lon="9.0733606"><ele>81.0</ele><time>2026-04-11T14:23:20.074Z</time></trkpt><trkpt lat="45.0099533" lon="9.073471"><ele>81.0</ele><time>2026-04-11T14:23:21.074Z</time></trkpt><trkpt lat="45.0101827" lon="9.0735595"><ele>81.0</ele><time>2026-04-11T14:23:22.073Z</time></trkpt><trkpt lat="45.0104283" lon="9.0736666"><ele>81.0</ele><time>2026-04-11T14:23:23.074Z</time></trkpt><trkpt lat="45.0106825" lon="9.0737479"><ele>81.0</ele><time>2026-04-11T14:23:24.074Z</time></trkpt><trkpt lat="45.0109514" lon="9.0738122"><ele>81.0</ele><time>2026-04-11T14:23:25.074Z</time></trkpt><trkpt lat="45.0112385" lon="9.0738906"><ele>81.0</ele><time>2026-04-11T14:23:26.074Z</time></trkpt><trkpt lat="45.0115458" lon="9.0739753"><ele>81.0</ele><time>2026-04-11T14:23:27.074Z</time></trkpt><trkpt lat="45.0118735" lon="9.0740698"><ele>81.0</ele><time>2026-04-11T14:23:28.073Z</time></trkpt><trkpt lat="45.0122134" lon="9.0741698"><ele>80.5</ele><time>2026-04-11T14:23:29.074Z</time></trkpt><trkpt lat="45.0125498" lon="9.0742692"><ele>80.0</ele><time>2026-04-11T14:23:30.074Z</time></trkpt><trkpt lat="45.0128623" lon="9.0743655"><ele>80.0</ele><time>2026-04-11T14:23:31.073Z</time></trkpt><trkpt lat="45.0131572" lon="9.0744507"><ele>80.0</ele><time>2026-04-11T14:23:32.073Z</time></trkpt><trkpt lat="45.0134435" lon="9.0745329"><ele>79.5</ele><time>2026-04-11T14:23:33.074Z</time></trkpt><trkpt lat="45.0137223" lon="9.0746121"><ele>79.0</ele><time>2026-04-11T14:23:34.074Z</time></trkpt><trkpt lat="45.0139948" lon="9.0746907"><ele>79.0</ele><time>2026-04-11T14:23:35.073Z</time></trkpt><trkpt lat="45.0142682" lon="9.074766"><ele>79.0</ele><time>2026-04-11T14:23:36.074Z</time></trkpt><trkpt lat="45.0145373" lon="9.0748417"><ele>79.0</ele><time>2026-04-11T14:23:37.073Z</time></trkpt><trkpt lat="45.0148073" lon="9.0749178"><ele>79.0</ele><time>2026-04-11T14:23:38.074Z</time></trkpt><trkpt lat="45.0150772" lon="9.0749922"><ele>78.5</ele><time>2026-04-11T14:23:39.073Z</time></trkpt><trkpt lat="45.0153453" lon="9.0750702"><ele>78.0</ele><time>2026-04-11T14:23:40.074Z</time></trkpt><trkpt lat="45.0156135" lon="9.0751443"><ele>78.0</ele><time>2026-04-11T14:23:41.074Z</time></trkpt><trkpt lat="45.0158783" lon="9.0752205"><ele>78.0</ele><time>2026-04-11T14:23:42.074Z</time></trkpt><trkpt lat="45.0161404" lon="9.07529"><ele>78.0</ele><time>2026-04-11T14:23:43.074Z</time></trkpt><trkpt lat="45.0164037" lon="9.075362"><ele>78.0</ele><time>2026-04-11T14:23:44.074Z</time></trkpt><trkpt lat="45.016662" lon="9.0754336"><ele>78.5</ele><time>2026-04-11T14:23:45.074Z</time></trkpt><trkpt lat="45.0169153" lon="9.0754983"><ele>79.0</ele><time>2026-04-11T14:23:46.074Z</time></trkpt><trkpt lat="45.0171777" lon="9.0755701"><ele>79.0</ele><time>2026-04-11T14:23:47.074Z</time></trkpt><trkpt lat="45.0174387" lon="9.0756462"><ele>79.0</ele><time>2026-04-11T14:23:48.073Z</time></trkpt><trkpt lat="45.0177069" lon="9.0757347"><ele>78.5</ele><time>2026-04-11T14:23:49.074Z</time></trkpt><trkpt lat="45.0179757" lon="9.0758258"><ele>78.0</ele><time>2026-04-11T14:23:50.074Z</time></trkpt><trkpt lat="45.0182464" lon="9.0759059"><ele>77.0</ele><time>2026-04-11T14:23:51.074Z</time></trkpt><trkpt lat="45.0185241" lon="9.0760006"><ele>76.0</ele><time>2026-04-11T14:23:52.075Z</time></trkpt><trkpt lat="45.0188033" lon="9.0760931"><ele>76.0</ele><time>2026-04-11T14:23:53.075Z</time></trkpt><trkpt lat="45.0190856" lon="9.0761815"><ele>76.0</ele><time>2026-04-11T14:23:54.075Z</time></trkpt><trkpt lat="45.0193686" lon="9.0762712"><ele>76.5</ele><time>2026-04-11T14:23:55.075Z</time></trkpt><trkpt lat="45.0196518" lon="9.076367"><ele>77.0</ele><time>2026-04-11T14:23:56.075Z</time></trkpt><trkpt lat="45.0199362" lon="9.0764571"><ele>77.5</ele><time>2026-04-11T14:23:57.075Z</time></trkpt><trkpt lat="45.0202223" lon="9.0765467"><ele>78.0</ele><time>2026-04-11T14:23:58.074Z</time></trkpt><trkpt lat="45.0205041" lon="9.0766355"><ele>78.0</ele><time>2026-04-11T14:23:59.075Z</time></trkpt><trkpt lat="45.0207775" lon="9.0767225"><ele>78.0</ele><time>2026-04-11T14:24:00.075Z</time></trkpt><trkpt lat="45.0210458" lon="9.0768036"><ele>78.0</ele><time>2026-04-11T14:24:01.075Z</time></trkpt><trkpt lat="45.0213071" lon="9.0768692"><ele>78.0</ele><time>2026-04-11T14:24:02.075Z</time></trkpt><trkpt lat="45.0215696" lon="9.0769243"><ele>77.0</ele><time>2026-04-11T14:24:03.075Z</time></trkpt><trkpt lat="45.0218309" lon="9.0769504"><ele>76.0</ele><time>2026-04-11T14:24:04.075Z</time></trkpt><trkpt lat="45.0220939" lon="9.0769761"><ele>76.0</ele><time>2026-04-11T14:24:05.075Z</time></trkpt><trkpt lat="45.0223592" lon="9.0770063"><ele>76.0</ele><time>2026-04-11T14:24:06.075Z</time></trkpt><trkpt lat="45.0226226" lon="9.0770203"><ele>76.0</ele><time>2026-04-11T14:24:07.075Z</time></trkpt><trkpt lat="45.0228881" lon="9.0770388"><ele>76.0</ele><time>2026-04-11T14:24:08.074Z</time></trkpt><trkpt lat="45.023155" lon="9.0770574"><ele>75.5</ele><time>2026-04-11T14:24:09.074Z</time></trkpt><trkpt lat="45.0234233" lon="9.0770803"><ele>75.0</ele><time>2026-04-11T14:24:10.075Z</time></trkpt><trkpt lat="45.0236878" lon="9.0771073"><ele>75.0</ele><time>2026-04-11T14:24:11.075Z</time></trkpt><trkpt lat="45.0239551" lon="9.0771465"><ele>75.0</ele><time>2026-04-11T14:24:12.075Z</time></trkpt><trkpt lat="45.0242203" lon="9.0772017"><ele>75.5</ele><time>2026-04-11T14:24:13.075Z</time></trkpt><trkpt lat="45.024481" lon="9.0772811"><ele>76.0</ele><time>2026-04-11T14:24:14.075Z</time></trkpt><trkpt lat="45.0247402" lon="9.0773856"><ele>76.0</ele><time>2026-04-11T14:24:15.075Z</time></trkpt><trkpt lat="45.0249976" lon="9.0774935"><ele>76.0</ele><time>2026-04-11T14:24:16.075Z</time></trkpt><trkpt lat="45.0252563" lon="9.0775866"><ele>76.0</ele><time>2026-04-11T14:24:17.075Z</time></trkpt><trkpt lat="45.025509" lon="9.0776786"><ele>76.0</ele><time>2026-04-11T14:24:18.074Z</time></trkpt><trkpt lat="45.0257562" lon="9.0777381"><ele>76.0</ele><time>2026-04-11T14:24:19.075Z</time></trkpt><trkpt lat="45.0260006" lon="9.0777689"><ele>76.0</ele><time>2026-04-11T14:24:20.075Z</time></trkpt><trkpt lat="45.0262284" lon="9.0777809"><ele>76.0</ele><time>2026-04-11T14:24:21.075Z</time></trkpt><trkpt lat="45.0264427" lon="9.0777817"><ele>76.0</ele><time>2026-04-11T14:24:22.074Z</time></trkpt><trkpt lat="45.0266401" lon="9.077783"><ele>76.0</ele><time>2026-04-11T14:24:23.075Z</time></trkpt><trkpt lat="45.0268247" lon="9.0777765"><ele>76.33333333333333</ele><time>2026-04-11T14:24:24.075Z</time></trkpt><trkpt lat="45.0270075" lon="9.0777787"><ele>76.66666666666667</ele><time>2026-04-11T14:24:25.075Z</time></trkpt><trkpt lat="45.0272014" lon="9.077785"><ele>77.0</ele><time>2026-04-11T14:24:26.075Z</time></trkpt><trkpt lat="45.0274042" lon="9.0777913"><ele>76.66666666666667</ele><time>2026-04-11T14:24:27.075Z</time></trkpt><trkpt lat="45.0276164" lon="9.0778212"><ele>76.33333333333333</ele><time>2026-04-11T14:24:28.074Z</time></trkpt><trkpt lat="45.0278341" lon="9.0778699"><ele>76.0</ele><time>2026-04-11T14:24:29.075Z</time></trkpt><trkpt lat="45.0280589" lon="9.0779391"><ele>76.0</ele><time>2026-04-11T14:24:30.075Z</time></trkpt><trkpt lat="45.0282832" lon="9.078015"><ele>76.0</ele><time>2026-04-11T14:24:31.075Z</time></trkpt><trkpt lat="45.0285122" lon="9.0780983"><ele>75.0</ele><time>2026-04-11T14:24:32.074Z</time></trkpt><trkpt lat="45.0287357" lon="9.0781771"><ele>74.0</ele><time>2026-04-11T14:24:33.074Z</time></trkpt><trkpt lat="45.0289563" lon="9.0782513"><ele>75.66666666666667</ele><time>2026-04-11T14:24:34.075Z</time></trkpt><trkpt lat="45.0291739" lon="9.078332"><ele>77.33333333333333</ele><time>2026-04-11T14:24:35.075Z</time></trkpt><trkpt lat="45.0293875" lon="9.0784109"><ele>79.0</ele><time>2026-04-11T14:24:36.075Z</time></trkpt><trkpt lat="45.0295991" lon="9.0784851"><ele>79.0</ele><time>2026-04-11T14:24:37.075Z</time></trkpt><trkpt lat="45.0298051" lon="9.0785557"><ele>79.0</ele><time>2026-04-11T14:24:38.075Z</time></trkpt><trkpt lat="45.0300042" lon="9.0786211"><ele>79.0</ele><time>2026-04-11T14:24:39.075Z</time></trkpt><trkpt lat="45.0301898" lon="9.0786806"><ele>78.66666666666666</ele><time>2026-04-11T14:24:40.075Z</time></trkpt><trkpt lat="45.0303652" lon="9.0787332"><ele>78.33333333333333</ele><time>2026-04-11T14:24:41.074Z</time></trkpt><trkpt lat="45.0305291" lon="9.078783"><ele>78.0</ele><time>2026-04-11T14:24:42.076Z</time></trkpt><trkpt lat="45.0306867" lon="9.0788251"><ele>77.5</ele><time>2026-04-11T14:24:43.076Z</time></trkpt><trkpt lat="45.0308423" lon="9.0788682"><ele>77.0</ele><time>2026-04-11T14:24:44.076Z</time></trkpt><trkpt lat="45.0309852" lon="9.0789063"><ele>76.5</ele><time>2026-04-11T14:24:45.075Z</time></trkpt><trkpt lat="45.0311221" lon="9.0789427"><ele>76.0</ele><time>2026-04-11T14:24:46.075Z</time></trkpt><trkpt lat="45.0312608" lon="9.0789784"><ele>76.0</ele><time>2026-04-11T14:24:47.076Z</time></trkpt><trkpt lat="45.0314051" lon="9.0790107"><ele>76.0</ele><time>2026-04-11T14:24:48.076Z</time></trkpt><trkpt lat="45.0315463" lon="9.0790541"><ele>76.0</ele><time>2026-04-11T14:24:49.076Z</time></trkpt><trkpt lat="45.0316905" lon="9.0791029"><ele>76.0</ele><time>2026-04-11T14:24:50.075Z</time></trkpt><trkpt lat="45.0318382" lon="9.0791564"><ele>75.75</ele><time>2026-04-11T14:24:51.075Z</time></trkpt><trkpt lat="45.0319881" lon="9.0792094"><ele>75.5</ele><time>2026-04-11T14:24:52.076Z</time></trkpt><trkpt lat="45.0321287" lon="9.0792591"><ele>75.25</ele><time>2026-04-11T14:24:53.076Z</time></trkpt><trkpt lat="45.0322557" lon="9.0793136"><ele>75.0</ele><time>2026-04-11T14:24:54.075Z</time></trkpt><trkpt lat="45.0323564" lon="9.0793789"><ele>75.0</ele><time>2026-04-11T14:24:55.075Z</time></trkpt><trkpt lat="45.0324291" lon="9.079468"><ele>75.0</ele><time>2026-04-11T14:24:56.076Z</time></trkpt><trkpt lat="45.0324826" lon="9.0795794"><ele>75.0</ele><time>2026-04-11T14:24:57.076Z</time></trkpt><trkpt lat="45.0325473" lon="9.079671"><ele>75.0</ele><time>2026-04-11T14:24:58.076Z</time></trkpt><trkpt lat="45.0326263" lon="9.0797243"><ele>75.0</ele><time>2026-04-11T14:24:59.075Z</time></trkpt><trkpt lat="45.0327226" lon="9.0797251"><ele>74.75</ele><time>2026-04-11T14:25:00.075Z</time></trkpt><trkpt lat="45.0328293" lon="9.0797176"><ele>74.5</ele><time>2026-04-11T14:25:01.076Z</time></trkpt><trkpt lat="45.032948" lon="9.0797376"><ele>74.25</ele><time>2026-04-11T14:25:02.076Z</time></trkpt><trkpt lat="45.0330734" lon="9.0798033"><ele>74.0</ele><time>2026-04-11T14:25:03.076Z</time></trkpt><trkpt lat="45.0332011" lon="9.0799076"><ele>74.0</ele><time>2026-04-11T14:25:04.076Z</time></trkpt><trkpt lat="45.0333492" lon="9.0799969"><ele>74.0</ele><time>2026-04-11T14:25:05.076Z</time></trkpt><trkpt lat="45.0335097" lon="9.0800888"><ele>74.0</ele><time>2026-04-11T14:25:06.076Z</time></trkpt><trkpt lat="45.033676" lon="9.0801776"><ele>74.0</ele><time>2026-04-11T14:25:07.076Z</time></trkpt><trkpt lat="45.0338535" lon="9.0802775"><ele>74.0</ele><time>2026-04-11T14:25:08.075Z</time></trkpt><trkpt lat="45.0340382" lon="9.0803887"><ele>74.0</ele><time>2026-04-11T14:25:09.075Z</time></trkpt><trkpt lat="45.0342307" lon="9.0805018"><ele>74.0</ele><time>2026-04-11T14:25:10.075Z</time></trkpt><trkpt lat="45.0344306" lon="9.0806162"><ele>74.0</ele><time>2026-04-11T14:25:11.076Z</time></trkpt><trkpt lat="45.0346359" lon="9.0807289"><ele>74.0</ele><time>2026-04-11T14:25:12.075Z</time></trkpt><trkpt lat="45.0348468" lon="9.0808578"><ele>73.5</ele><time>2026-04-11T14:25:13.075Z</time></trkpt><trkpt lat="45.0350529" lon="9.080994"><ele>73.0</ele><time>2026-04-11T14:25:14.076Z</time></trkpt><trkpt lat="45.0352694" lon="9.0811343"><ele>73.0</ele><time>2026-04-11T14:25:15.076Z</time></trkpt><trkpt lat="45.0354937" lon="9.0812712"><ele>73.0</ele><time>2026-04-11T14:25:16.075Z</time></trkpt><trkpt lat="45.0357158" lon="9.0814075"><ele>73.5</ele><time>2026-04-11T14:25:17.075Z</time></trkpt><trkpt lat="45.0359381" lon="9.0815439"><ele>74.0</ele><time>2026-04-11T14:25:18.076Z</time></trkpt><trkpt lat="45.0361624" lon="9.0816881"><ele>73.0</ele><time>2026-04-11T14:25:19.076Z</time></trkpt><trkpt lat="45.0363853" lon="9.0818425"><ele>72.0</ele><time>2026-04-11T14:25:20.076Z</time></trkpt><trkpt lat="45.0366056" lon="9.0820156"><ele>72.5</ele><time>2026-04-11T14:25:21.076Z</time></trkpt><trkpt lat="45.03683" lon="9.0822025"><ele>73.0</ele><time>2026-04-11T14:25:22.076Z</time></trkpt><trkpt lat="45.0370573" lon="9.0824031"><ele>73.0</ele><time>2026-04-11T14:25:23.076Z</time></trkpt><trkpt lat="45.0372884" lon="9.0826098"><ele>73.0</ele><time>2026-04-11T14:25:24.076Z</time></trkpt><trkpt lat="45.0375151" lon="9.0828204"><ele>72.5</ele><time>2026-04-11T14:25:25.076Z</time></trkpt><trkpt lat="45.037748" lon="9.083031"><ele>72.0</ele><time>2026-04-11T14:25:26.076Z</time></trkpt><trkpt lat="45.0379819" lon="9.0832437"><ele>72.0</ele><time>2026-04-11T14:25:27.076Z</time></trkpt><trkpt lat="45.0382229" lon="9.0834589"><ele>72.0</ele><time>2026-04-11T14:25:28.075Z</time></trkpt><trkpt lat="45.0384692" lon="9.0836792"><ele>72.0</ele><time>2026-04-11T14:25:29.076Z</time></trkpt><trkpt lat="45.0387195" lon="9.0839031"><ele>72.0</ele><time>2026-04-11T14:25:30.076Z</time></trkpt><trkpt lat="45.0389767" lon="9.0841407"><ele>71.5</ele><time>2026-04-11T14:25:31.076Z</time></trkpt><trkpt lat="45.0392373" lon="9.0843724"><ele>71.0</ele><time>2026-04-11T14:25:32.077Z</time></trkpt><trkpt lat="45.0395013" lon="9.0846119"><ele>71.0</ele><time>2026-04-11T14:25:33.077Z</time></trkpt><trkpt lat="45.0397703" lon="9.0848491"><ele>71.0</ele><time>2026-04-11T14:25:34.077Z</time></trkpt><trkpt lat="45.0400397" lon="9.0851115"><ele>71.0</ele><time>2026-04-11T14:25:35.076Z</time></trkpt><trkpt lat="45.040295" lon="9.0853506"><ele>71.0</ele><time>2026-04-11T14:25:36.077Z</time></trkpt><trkpt lat="45.0405392" lon="9.0855712"><ele>71.0</ele><time>2026-04-11T14:25:37.077Z</time></trkpt><trkpt lat="45.0407714" lon="9.0857825"><ele>71.0</ele><time>2026-04-11T14:25:38.077Z</time></trkpt><trkpt lat="45.0410008" lon="9.0859883"><ele>72.5</ele><time>2026-04-11T14:25:39.077Z</time></trkpt><trkpt lat="45.0412178" lon="9.0861864"><ele>74.0</ele><time>2026-04-11T14:25:40.077Z</time></trkpt><trkpt lat="45.0414116" lon="9.0863615"><ele>74.0</ele><time>2026-04-11T14:25:41.076Z</time></trkpt><trkpt lat="45.0415937" lon="9.0865282"><ele>74.0</ele><time>2026-04-11T14:25:42.077Z</time></trkpt><trkpt lat="45.0417784" lon="9.086689"><ele>74.0</ele><time>2026-04-11T14:25:43.077Z</time></trkpt><trkpt lat="45.0419506" lon="9.0868492"><ele>73.0</ele><time>2026-04-11T14:25:44.077Z</time></trkpt><trkpt lat="45.042118" lon="9.0870016"><ele>72.0</ele><time>2026-04-11T14:25:45.077Z</time></trkpt><trkpt lat="45.042274" lon="9.0871408"><ele>71.0</ele><time>2026-04-11T14:25:46.077Z</time></trkpt><trkpt lat="45.0424286" lon="9.0872837"><ele>70.33333333333334</ele><time>2026-04-11T14:25:47.076Z</time></trkpt><trkpt lat="45.0425813" lon="9.0874272"><ele>69.66666666666667</ele><time>2026-04-11T14:25:48.077Z</time></trkpt><trkpt lat="45.0427334" lon="9.0875644"><ele>69.0</ele><time>2026-04-11T14:25:49.076Z</time></trkpt><trkpt lat="45.0428912" lon="9.0877017"><ele>69.0</ele><time>2026-04-11T14:25:50.077Z</time></trkpt><trkpt lat="45.0430485" lon="9.0878335"><ele>69.0</ele><time>2026-04-11T14:25:51.077Z</time></trkpt><trkpt lat="45.0432118" lon="9.0879686"><ele>69.0</ele><time>2026-04-11T14:25:52.076Z</time></trkpt><trkpt lat="45.0433836" lon="9.0880926"><ele>69.33333333333333</ele><time>2026-04-11T14:25:53.076Z</time></trkpt><trkpt lat="45.0435623" lon="9.088212"><ele>69.66666666666666</ele><time>2026-04-11T14:25:54.077Z</time></trkpt><trkpt lat="45.0437471" lon="9.0883272"><ele>70.0</ele><time>2026-04-11T14:25:55.076Z</time></trkpt><trkpt lat="45.0439342" lon="9.0884363"><ele>70.0</ele><time>2026-04-11T14:25:56.077Z</time></trkpt><trkpt lat="45.0441254" lon="9.0885479"><ele>70.0</ele><time>2026-04-11T14:25:57.077Z</time></trkpt><trkpt lat="45.0443185" lon="9.0886502"><ele>70.0</ele><time>2026-04-11T14:25:58.077Z</time></trkpt><trkpt lat="45.0445154" lon="9.088748"><ele>69.66666666666666</ele><time>2026-04-11T14:25:59.076Z</time></trkpt><trkpt lat="45.0447089" lon="9.0888388"><ele>69.33333333333333</ele><time>2026-04-11T14:26:00.077Z</time></trkpt><trkpt lat="45.0449011" lon="9.0889318"><ele>69.0</ele><time>2026-04-11T14:26:01.077Z</time></trkpt><trkpt lat="45.045095" lon="9.0890278"><ele>69.33333333333333</ele><time>2026-04-11T14:26:02.077Z</time></trkpt><trkpt lat="45.0452878" lon="9.0891143"><ele>69.66666666666666</ele><time>2026-04-11T14:26:03.077Z</time></trkpt><trkpt lat="45.0454813" lon="9.0892042"><ele>70.0</ele><time>2026-04-11T14:26:04.077Z</time></trkpt><trkpt lat="45.0456737" lon="9.0892953"><ele>70.0</ele><time>2026-04-11T14:26:05.076Z</time></trkpt><trkpt lat="45.0458691" lon="9.0893868"><ele>70.0</ele><time>2026-04-11T14:26:06.077Z</time></trkpt><trkpt lat="45.0460655" lon="9.0894792"><ele>70.0</ele><time>2026-04-11T14:26:07.077Z</time></trkpt><trkpt lat="45.0462587" lon="9.0895744"><ele>70.0</ele><time>2026-04-11T14:26:08.077Z</time></trkpt><trkpt lat="45.0464534" lon="9.0896699"><ele>70.0</ele><time>2026-04-11T14:26:09.076Z</time></trkpt><trkpt lat="45.0466483" lon="9.0897643"><ele>70.0</ele><time>2026-04-11T14:26:10.077Z</time></trkpt><trkpt lat="45.0468442" lon="9.0898587"><ele>70.0</ele><time>2026-04-11T14:26:11.077Z</time></trkpt><trkpt lat="45.0470405" lon="9.0899521"><ele>70.0</ele><time>2026-04-11T14:26:12.077Z</time></trkpt><trkpt lat="45.0472366" lon="9.0900492"><ele>70.0</ele><time>2026-04-11T14:26:13.077Z</time></trkpt><trkpt lat="45.0474354" lon="9.0901467"><ele>70.33333333333333</ele><time>2026-04-11T14:26:14.076Z</time></trkpt><trkpt lat="45.0476339" lon="9.090243"><ele>70.66666666666667</ele><time>2026-04-11T14:26:15.077Z</time></trkpt><trkpt lat="45.0478311" lon="9.0903371"><ele>71.0</ele><time>2026-04-11T14:26:16.077Z</time></trkpt><trkpt lat="45.0480294" lon="9.0904353"><ele>71.0</ele><time>2026-04-11T14:26:17.077Z</time></trkpt><trkpt lat="45.0482265" lon="9.0905306"><ele>71.0</ele><time>2026-04-11T14:26:18.077Z</time></trkpt><trkpt lat="45.0484273" lon="9.0906253"><ele>71.0</ele><time>2026-04-11T14:26:19.077Z</time></trkpt><trkpt lat="45.0486277" lon="9.090713"><ele>70.66666666666667</ele><time>2026-04-11T14:26:20.077Z</time></trkpt><trkpt lat="45.0488266" lon="9.090801"><ele>70.33333333333333</ele><time>2026-04-11T14:26:21.077Z</time></trkpt><trkpt lat="45.0490269" lon="9.0909029"><ele>70.0</ele><time>2026-04-11T14:26:22.077Z</time></trkpt><trkpt lat="45.0492224" lon="9.090998"><ele>69.66666666666666</ele><time>2026-04-11T14:26:23.077Z</time></trkpt><trkpt lat="45.0494161" lon="9.09109"><ele>69.33333333333333</ele><time>2026-04-11T14:26:24.078Z</time></trkpt><trkpt lat="45.0496097" lon="9.0911813"><ele>69.0</ele><time>2026-04-11T14:26:25.078Z</time></trkpt><trkpt lat="45.0497986" lon="9.0912712"><ele>69.0</ele><time>2026-04-11T14:26:26.077Z</time></trkpt><trkpt lat="45.0499851" lon="9.0913594"><ele>69.0</ele><time>2026-04-11T14:26:27.077Z</time></trkpt><trkpt lat="45.0501693" lon="9.091449"><ele>69.0</ele><time>2026-04-11T14:26:28.078Z</time></trkpt><trkpt lat="45.0503569" lon="9.091541"><ele>68.66666666666667</ele><time>2026-04-11T14:26:29.078Z</time></trkpt><trkpt lat="45.0505389" lon="9.0916305"><ele>68.33333333333334</ele><time>2026-04-11T14:26:30.077Z</time></trkpt><trkpt lat="45.0507211" lon="9.0917201"><ele>68.0</ele><time>2026-04-11T14:26:31.078Z</time></trkpt><trkpt lat="45.0509062" lon="9.0918097"><ele>68.0</ele><time>2026-04-11T14:26:32.078Z</time></trkpt><trkpt lat="45.0510928" lon="9.0918913"><ele>68.0</ele><time>2026-04-11T14:26:33.078Z</time></trkpt><trkpt lat="45.0512799" lon="9.0919789"><ele>68.0</ele><time>2026-04-11T14:26:34.078Z</time></trkpt><trkpt lat="45.0514673" lon="9.0920682"><ele>68.0</ele><time>2026-04-11T14:26:35.078Z</time></trkpt><trkpt lat="45.0516549" lon="9.092162"><ele>68.0</ele><time>2026-04-11T14:26:36.078Z</time></trkpt><trkpt lat="45.0518416" lon="9.0922555"><ele>68.0</ele><time>2026-04-11T14:26:37.078Z</time></trkpt><trkpt lat="45.052033" lon="9.0923525"><ele>67.66666666666667</ele><time>2026-04-11T14:26:38.078Z</time></trkpt><trkpt lat="45.0522274" lon="9.0924454"><ele>67.33333333333333</ele><time>2026-04-11T14:26:39.078Z</time></trkpt><trkpt lat="45.052419" lon="9.0925356"><ele>67.0</ele><time>2026-04-11T14:26:40.078Z</time></trkpt><trkpt lat="45.0526141" lon="9.0926291"><ele>67.0</ele><time>2026-04-11T14:26:41.078Z</time></trkpt><trkpt lat="45.0528052" lon="9.0927204"><ele>67.0</ele><time>2026-04-11T14:26:42.078Z</time></trkpt><trkpt lat="45.052999" lon="9.092822"><ele>67.0</ele><time>2026-04-11T14:26:43.078Z</time></trkpt><trkpt lat="45.0531952" lon="9.0929276"><ele>67.33333333333333</ele><time>2026-04-11T14:26:44.078Z</time></trkpt><trkpt lat="45.053389" lon="9.0930109"><ele>67.66666666666667</ele><time>2026-04-11T14:26:45.078Z</time></trkpt><trkpt lat="45.0535884" lon="9.0931227"><ele>68.0</ele><time>2026-04-11T14:26:46.078Z</time></trkpt><trkpt lat="45.0537837" lon="9.093226"><ele>68.0</ele><time>2026-04-11T14:26:47.077Z</time></trkpt><trkpt lat="45.0539793" lon="9.0933271"><ele>68.0</ele><time>2026-04-11T14:26:48.078Z</time></trkpt><trkpt lat="45.054176" lon="9.0934229"><ele>68.0</ele><time>2026-04-11T14:26:49.078Z</time></trkpt><trkpt lat="45.0543745" lon="9.0935225"><ele>68.0</ele><time>2026-04-11T14:26:50.078Z</time></trkpt><trkpt lat="45.05457" lon="9.0936145"><ele>68.0</ele><time>2026-04-11T14:26:51.077Z</time></trkpt><trkpt lat="45.0547647" lon="9.0937013"><ele>68.0</ele><time>2026-04-11T14:26:52.078Z</time></trkpt><trkpt lat="45.0549679" lon="9.0938019"><ele>67.66666666666667</ele><time>2026-04-11T14:26:53.077Z</time></trkpt><trkpt lat="45.0551682" lon="9.0939033"><ele>67.33333333333333</ele><time>2026-04-11T14:26:54.078Z</time></trkpt><trkpt lat="45.055361" lon="9.0939869"><ele>67.0</ele><time>2026-04-11T14:26:55.078Z</time></trkpt><trkpt lat="45.0555552" lon="9.0940806"><ele>67.0</ele><time>2026-04-11T14:26:56.078Z</time></trkpt><trkpt lat="45.0557518" lon="9.094173"><ele>67.0</ele><time>2026-04-11T14:26:57.078Z</time></trkpt><trkpt lat="45.0559491" lon="9.0942672"><ele>67.0</ele><time>2026-04-11T14:26:58.078Z</time></trkpt><trkpt lat="45.0561491" lon="9.0943627"><ele>67.0</ele><time>2026-04-11T14:26:59.078Z</time></trkpt><trkpt lat="45.0563528" lon="9.0944576"><ele>67.0</ele><time>2026-04-11T14:27:00.078Z</time></trkpt><trkpt lat="45.0565579" lon="9.0945516"><ele>67.0</ele><time>2026-04-11T14:27:01.078Z</time></trkpt><trkpt lat="45.0567628" lon="9.0946493"><ele>67.0</ele><time>2026-04-11T14:27:02.078Z</time></trkpt><trkpt lat="45.0569677" lon="9.094749"><ele>67.0</ele><time>2026-04-11T14:27:03.078Z</time></trkpt><trkpt lat="45.0571742" lon="9.0948497"><ele>67.0</ele><time>2026-04-11T14:27:04.078Z</time></trkpt><trkpt lat="45.0573813" lon="9.0949502"><ele>66.66666666666666</ele><time>2026-04-11T14:27:05.078Z</time></trkpt><trkpt lat="45.0575931" lon="9.0950533"><ele>66.33333333333333</ele><time>2026-04-11T14:27:06.078Z</time></trkpt><trkpt lat="45.0578047" lon="9.0951522"><ele>66.0</ele><time>2026-04-11T14:27:07.078Z</time></trkpt><trkpt lat="45.0580221" lon="9.0952569"><ele>66.0</ele><time>2026-04-11T14:27:08.078Z</time></trkpt><trkpt lat="45.0582344" lon="9.0953519"><ele>66.0</ele><time>2026-04-11T14:27:09.077Z</time></trkpt><trkpt lat="45.0584535" lon="9.0954584"><ele>66.5</ele><time>2026-04-11T14:27:10.077Z</time></trkpt><trkpt lat="45.058673" lon="9.0955581"><ele>67.0</ele><time>2026-04-11T14:27:11.078Z</time></trkpt><trkpt lat="45.0588881" lon="9.0956647"><ele>67.0</ele><time>2026-04-11T14:27:12.078Z</time></trkpt><trkpt lat="45.0591054" lon="9.0957718"><ele>67.0</ele><time>2026-04-11T14:27:13.079Z</time></trkpt><trkpt lat="45.0593236" lon="9.0958776"><ele>66.5</ele><time>2026-04-11T14:27:14.079Z</time></trkpt><trkpt lat="45.0595455" lon="9.0959799"><ele>66.0</ele><time>2026-04-11T14:27:15.079Z</time></trkpt><trkpt lat="45.0597651" lon="9.0960821"><ele>66.5</ele><time>2026-04-11T14:27:16.079Z</time></trkpt><trkpt lat="45.0599806" lon="9.0961858"><ele>67.0</ele><time>2026-04-11T14:27:17.079Z</time></trkpt><trkpt lat="45.0601913" lon="9.0962926"><ele>67.0</ele><time>2026-04-11T14:27:18.079Z</time></trkpt><trkpt lat="45.0603978" lon="9.0963953"><ele>67.0</ele><time>2026-04-11T14:27:19.079Z</time></trkpt><trkpt lat="45.0606039" lon="9.0964935"><ele>67.0</ele><time>2026-04-11T14:27:20.079Z</time></trkpt><trkpt lat="45.060809" lon="9.096588"><ele>67.0</ele><time>2026-04-11T14:27:21.079Z</time></trkpt><trkpt lat="45.0610111" lon="9.0966845"><ele>67.0</ele><time>2026-04-11T14:27:22.079Z</time></trkpt><trkpt lat="45.0612143" lon="9.0967846"><ele>67.0</ele><time>2026-04-11T14:27:23.078Z</time></trkpt><trkpt lat="45.0614156" lon="9.0968796"><ele>67.0</ele><time>2026-04-11T14:27:24.079Z</time></trkpt><trkpt lat="45.0616178" lon="9.0969746"><ele>67.0</ele><time>2026-04-11T14:27:25.079Z</time></trkpt><trkpt lat="45.0618192" lon="9.0970723"><ele>67.0</ele><time>2026-04-11T14:27:26.079Z</time></trkpt><trkpt lat="45.0620211" lon="9.0971648"><ele>67.0</ele><time>2026-04-11T14:27:27.079Z</time></trkpt><trkpt lat="45.0622226" lon="9.0972668"><ele>67.0</ele><time>2026-04-11T14:27:28.078Z</time></trkpt><trkpt lat="45.0624228" lon="9.0973614"><ele>67.0</ele><time>2026-04-11T14:27:29.079Z</time></trkpt><trkpt lat="45.0626222" lon="9.097451"><ele>67.0</ele><time>2026-04-11T14:27:30.079Z</time></trkpt><trkpt lat="45.0628266" lon="9.0975449"><ele>67.0</ele><time>2026-04-11T14:27:31.078Z</time></trkpt><trkpt lat="45.0630264" lon="9.0976483"><ele>67.0</ele><time>2026-04-11T14:27:32.079Z</time></trkpt><trkpt lat="45.0632284" lon="9.0977544"><ele>67.0</ele><time>2026-04-11T14:27:33.078Z</time></trkpt><trkpt lat="45.0634272" lon="9.0978699"><ele>67.0</ele><time>2026-04-11T14:27:34.079Z</time></trkpt><trkpt lat="45.0636258" lon="9.0979914"><ele>67.0</ele><time>2026-04-11T14:27:35.079Z</time></trkpt><trkpt lat="45.0638217" lon="9.09812"><ele>66.66666666666666</ele><time>2026-04-11T14:27:36.079Z</time></trkpt><trkpt lat="45.0640162" lon="9.0982591"><ele>66.33333333333333</ele><time>2026-04-11T14:27:37.079Z</time></trkpt><trkpt lat="45.0642071" lon="9.0984012"><ele>66.0</ele><time>2026-04-11T14:27:38.079Z</time></trkpt><trkpt lat="45.0643972" lon="9.0985501"><ele>66.0</ele><time>2026-04-11T14:27:39.079Z</time></trkpt><trkpt lat="45.0645838" lon="9.0987009"><ele>66.0</ele><time>2026-04-11T14:27:40.079Z</time></trkpt><trkpt lat="45.0647732" lon="9.0988566"><ele>66.0</ele><time>2026-04-11T14:27:41.079Z</time></trkpt><trkpt lat="45.0649621" lon="9.0990171"><ele>65.66666666666667</ele><time>2026-04-11T14:27:42.079Z</time></trkpt><trkpt lat="45.0651418" lon="9.0991469"><ele>65.33333333333334</ele><time>2026-04-11T14:27:43.079Z</time></trkpt><trkpt lat="45.0653235" lon="9.0992844"><ele>65.0</ele><time>2026-04-11T14:27:44.079Z</time></trkpt><trkpt lat="45.0655091" lon="9.0994347"><ele>65.0</ele><time>2026-04-11T14:27:45.079Z</time></trkpt><trkpt lat="45.0656996" lon="9.0995828"><ele>65.0</ele><time>2026-04-11T14:27:46.079Z</time></trkpt><trkpt lat="45.0658841" lon="9.0997325"><ele>65.0</ele><time>2026-04-11T14:27:47.079Z</time></trkpt><trkpt lat="45.0660671" lon="9.0998805"><ele>65.0</ele><time>2026-04-11T14:27:48.079Z</time></trkpt><trkpt lat="45.0662526" lon="9.1000247"><ele>65.0</ele><time>2026-04-11T14:27:49.079Z</time></trkpt><trkpt lat="45.0664357" lon="9.1001667"><ele>65.0</ele><time>2026-04-11T14:27:50.078Z</time></trkpt><trkpt lat="45.0666118" lon="9.1003112"><ele>65.0</ele><time>2026-04-11T14:27:51.079Z</time></trkpt><trkpt lat="45.0667957" lon="9.1004423"><ele>65.0</ele><time>2026-04-11T14:27:52.079Z</time></trkpt><trkpt lat="45.0669794" lon="9.1005722"><ele>65.0</ele><time>2026-04-11T14:27:53.078Z</time></trkpt><trkpt lat="45.0671607" lon="9.1006917"><ele>64.33333333333334</ele><time>2026-04-11T14:27:54.079Z</time></trkpt><trkpt lat="45.067347" lon="9.1008083"><ele>63.66666666666667</ele><time>2026-04-11T14:27:55.079Z</time></trkpt><trkpt lat="45.0675278" lon="9.1009102"><ele>63.0</ele><time>2026-04-11T14:27:56.079Z</time></trkpt><trkpt lat="45.0677154" lon="9.1010046"><ele>64.66666666666667</ele><time>2026-04-11T14:27:57.079Z</time></trkpt><trkpt lat="45.0678981" lon="9.1010987"><ele>66.33333333333334</ele><time>2026-04-11T14:27:58.079Z</time></trkpt><trkpt lat="45.0680796" lon="9.1011906"><ele>68.0</ele><time>2026-04-11T14:27:59.078Z</time></trkpt><trkpt lat="45.0682449" lon="9.1012746"><ele>67.66666666666667</ele><time>2026-04-11T14:28:00.079Z</time></trkpt><trkpt lat="45.0684048" lon="9.1013516"><ele>67.33333333333333</ele><time>2026-04-11T14:28:01.079Z</time></trkpt><trkpt lat="45.0685477" lon="9.1014238"><ele>67.0</ele><time>2026-04-11T14:28:02.079Z</time></trkpt><trkpt lat="45.0686874" lon="9.101492"><ele>67.0</ele><time>2026-04-11T14:28:03.08Z</time></trkpt><trkpt lat="45.0688221" lon="9.1015634"><ele>67.0</ele><time>2026-04-11T14:28:04.079Z</time></trkpt><trkpt lat="45.0689586" lon="9.1016374"><ele>67.0</ele><time>2026-04-11T14:28:05.08Z</time></trkpt><trkpt lat="45.0690914" lon="9.1017067"><ele>67.0</ele><time>2026-04-11T14:28:06.08Z</time></trkpt><trkpt lat="45.0692272" lon="9.1017737"><ele>66.5</ele><time>2026-04-11T14:28:07.08Z</time></trkpt><trkpt lat="45.0693606" lon="9.1018425"><ele>66.0</ele><time>2026-04-11T14:28:08.08Z</time></trkpt><trkpt lat="45.0694881" lon="9.1019134"><ele>65.5</ele><time>2026-04-11T14:28:09.08Z</time></trkpt><trkpt lat="45.0696042" lon="9.101983"><ele>65.0</ele><time>2026-04-11T14:28:10.08Z</time></trkpt><trkpt lat="45.06971" lon="9.1020409"><ele>65.0</ele><time>2026-04-11T14:28:11.08Z</time></trkpt><trkpt lat="45.0698068" lon="9.1020977"><ele>65.0</ele><time>2026-04-11T14:28:12.08Z</time></trkpt><trkpt lat="45.0698878" lon="9.1021688"><ele>65.0</ele><time>2026-04-11T14:28:13.079Z</time></trkpt><trkpt lat="45.0699474" lon="9.1022649"><ele>65.0</ele><time>2026-04-11T14:28:14.08Z</time></trkpt><trkpt lat="45.0699969" lon="9.1023754"><ele>65.0</ele><time>2026-04-11T14:28:15.08Z</time></trkpt><trkpt lat="45.0700573" lon="9.1024612"><ele>65.2</ele><time>2026-04-11T14:28:16.08Z</time></trkpt><trkpt lat="45.0701362" lon="9.1025033"><ele>65.4</ele><time>2026-04-11T14:28:17.08Z</time></trkpt><trkpt lat="45.070225" lon="9.1025055"><ele>65.6</ele><time>2026-04-11T14:28:18.079Z</time></trkpt><trkpt lat="45.0703223" lon="9.1024744"><ele>65.8</ele><time>2026-04-11T14:28:19.08Z</time></trkpt><trkpt lat="45.0704289" lon="9.102436"><ele>66.0</ele><time>2026-04-11T14:28:20.08Z</time></trkpt><trkpt lat="45.0705461" lon="9.1024271"><ele>66.0</ele><time>2026-04-11T14:28:21.08Z</time></trkpt><trkpt lat="45.0706684" lon="9.1024648"><ele>66.0</ele><time>2026-04-11T14:28:22.08Z</time></trkpt><trkpt lat="45.0707982" lon="9.1025206"><ele>66.0</ele><time>2026-04-11T14:28:23.08Z</time></trkpt><trkpt lat="45.0709406" lon="9.1025859"><ele>66.0</ele><time>2026-04-11T14:28:24.08Z</time></trkpt><trkpt lat="45.0710969" lon="9.1026577"><ele>65.66666666666667</ele><time>2026-04-11T14:28:25.08Z</time></trkpt><trkpt lat="45.0712546" lon="9.1027299"><ele>65.33333333333334</ele><time>2026-04-11T14:28:26.079Z</time></trkpt><trkpt lat="45.0714183" lon="9.1028007"><ele>65.0</ele><time>2026-04-11T14:28:27.08Z</time></trkpt><trkpt lat="45.0716045" lon="9.1028832"><ele>63.66666666666667</ele><time>2026-04-11T14:28:28.08Z</time></trkpt><trkpt lat="45.0717842" lon="9.1029756"><ele>62.33333333333333</ele><time>2026-04-11T14:28:29.079Z</time></trkpt><trkpt lat="45.0719647" lon="9.1030712"><ele>61.0</ele><time>2026-04-11T14:28:30.08Z</time></trkpt><trkpt lat="45.0721539" lon="9.1031699"><ele>61.33333333333333</ele><time>2026-04-11T14:28:31.08Z</time></trkpt><trkpt lat="45.0723445" lon="9.1032677"><ele>61.66666666666667</ele><time>2026-04-11T14:28:32.08Z</time></trkpt><trkpt lat="45.0725389" lon="9.1033679"><ele>62.0</ele><time>2026-04-11T14:28:33.08Z</time></trkpt><trkpt lat="45.0727376" lon="9.1034738"><ele>62.333333333333336</ele><time>2026-04-11T14:28:34.08Z</time></trkpt><trkpt lat="45.0729423" lon="9.1035825"><ele>62.66666666666667</ele><time>2026-04-11T14:28:35.08Z</time></trkpt><trkpt lat="45.0731508" lon="9.1036839"><ele>63.0</ele><time>2026-04-11T14:28:36.08Z</time></trkpt><trkpt lat="45.0733703" lon="9.1037971"><ele>63.5</ele><time>2026-04-11T14:28:37.08Z</time></trkpt><trkpt lat="45.0736054" lon="9.1039119"><ele>64.0</ele><time>2026-04-11T14:28:38.08Z</time></trkpt><trkpt lat="45.0738611" lon="9.104047"><ele>66.5</ele><time>2026-04-11T14:28:39.08Z</time></trkpt><trkpt lat="45.0741338" lon="9.1041807"><ele>69.0</ele><time>2026-04-11T14:28:40.08Z</time></trkpt><trkpt lat="45.0744212" lon="9.1043185"><ele>69.0</ele><time>2026-04-11T14:28:41.08Z</time></trkpt><trkpt lat="45.0747091" lon="9.1044678"><ele>69.0</ele><time>2026-04-11T14:28:42.08Z</time></trkpt><trkpt lat="45.0750104" lon="9.1046119"><ele>69.0</ele><time>2026-04-11T14:28:43.08Z</time></trkpt><trkpt lat="45.075312" lon="9.1047607"><ele>69.0</ele><time>2026-04-11T14:28:44.08Z</time></trkpt><trkpt lat="45.0755999" lon="9.1049082"><ele>69.0</ele><time>2026-04-11T14:28:45.08Z</time></trkpt><trkpt lat="45.075872" lon="9.10504"><ele>69.0</ele><time>2026-04-11T14:28:46.08Z</time></trkpt><trkpt lat="45.0761345" lon="9.1051661"><ele>69.0</ele><time>2026-04-11T14:28:47.08Z</time></trkpt><trkpt lat="45.0763889" lon="9.1052944"><ele>69.0</ele><time>2026-04-11T14:28:48.08Z</time></trkpt><trkpt lat="45.0766367" lon="9.1054194"><ele>68.0</ele><time>2026-04-11T14:28:49.08Z</time></trkpt><trkpt lat="45.0768855" lon="9.1055373"><ele>67.0</ele><time>2026-04-11T14:28:50.08Z</time></trkpt><trkpt lat="45.077128" lon="9.1056652"><ele>68.5</ele><time>2026-04-11T14:28:51.08Z</time></trkpt><trkpt lat="45.0773609" lon="9.105791"><ele>70.0</ele><time>2026-04-11T14:28:52.08Z</time></trkpt><trkpt lat="45.0775832" lon="9.1059034"><ele>66.0</ele><time>2026-04-11T14:28:53.081Z</time></trkpt><trkpt lat="45.0777981" lon="9.1060144"><ele>62.0</ele><time>2026-04-11T14:28:54.081Z</time></trkpt><trkpt lat="45.0780082" lon="9.1061167"><ele>62.0</ele><time>2026-04-11T14:28:55.081Z</time></trkpt><trkpt lat="45.0782106" lon="9.1062226"><ele>62.0</ele><time>2026-04-11T14:28:56.081Z</time></trkpt><trkpt lat="45.078406" lon="9.1063392"><ele>62.0</ele><time>2026-04-11T14:28:57.081Z</time></trkpt><trkpt lat="45.0785952" lon="9.1064694"><ele>62.0</ele><time>2026-04-11T14:28:58.081Z</time></trkpt><trkpt lat="45.0787755" lon="9.1066194"><ele>62.0</ele><time>2026-04-11T14:28:59.08Z</time></trkpt><trkpt lat="45.0789509" lon="9.1067852"><ele>62.0</ele><time>2026-04-11T14:29:00.081Z</time></trkpt><trkpt lat="45.0791217" lon="9.1069729"><ele>62.0</ele><time>2026-04-11T14:29:01.081Z</time></trkpt><trkpt lat="45.079283" lon="9.1071777"><ele>62.0</ele><time>2026-04-11T14:29:02.081Z</time></trkpt><trkpt lat="45.0794387" lon="9.1073927"><ele>62.0</ele><time>2026-04-11T14:29:03.081Z</time></trkpt><trkpt lat="45.0795967" lon="9.1076101"><ele>61.66666666666667</ele><time>2026-04-11T14:29:04.081Z</time></trkpt><trkpt lat="45.0797487" lon="9.1078212"><ele>61.33333333333333</ele><time>2026-04-11T14:29:05.081Z</time></trkpt><trkpt lat="45.0798907" lon="9.1080231"><ele>61.0</ele><time>2026-04-11T14:29:06.081Z</time></trkpt><trkpt lat="45.0800303" lon="9.1082224"><ele>60.666666666666664</ele><time>2026-04-11T14:29:07.08Z</time></trkpt><trkpt lat="45.080167" lon="9.1084195"><ele>60.33333333333333</ele><time>2026-04-11T14:29:08.081Z</time></trkpt><trkpt lat="45.0803045" lon="9.1086158"><ele>60.0</ele><time>2026-04-11T14:29:09.081Z</time></trkpt><trkpt lat="45.0804435" lon="9.1088212"><ele>60.0</ele><time>2026-04-11T14:29:10.081Z</time></trkpt><trkpt lat="45.0805828" lon="9.109026"><ele>60.0</ele><time>2026-04-11T14:29:11.081Z</time></trkpt><trkpt lat="45.0807156" lon="9.1092289"><ele>60.0</ele><time>2026-04-11T14:29:12.081Z</time></trkpt><trkpt lat="45.0808465" lon="9.1094443"><ele>59.66666666666667</ele><time>2026-04-11T14:29:13.081Z</time></trkpt><trkpt lat="45.0809784" lon="9.1096502"><ele>59.333333333333336</ele><time>2026-04-11T14:29:14.081Z</time></trkpt><trkpt lat="45.0811143" lon="9.1098559"><ele>59.0</ele><time>2026-04-11T14:29:15.081Z</time></trkpt><trkpt lat="45.0812531" lon="9.1100616"><ele>59.0</ele><time>2026-04-11T14:29:16.081Z</time></trkpt><trkpt lat="45.0813921" lon="9.1102693"><ele>59.0</ele><time>2026-04-11T14:29:17.08Z</time></trkpt><trkpt lat="45.0815357" lon="9.1104721"><ele>59.0</ele><time>2026-04-11T14:29:18.08Z</time></trkpt><trkpt lat="45.0816782" lon="9.110676"><ele>58.66666666666667</ele><time>2026-04-11T14:29:19.081Z</time></trkpt><trkpt lat="45.0818213" lon="9.110885"><ele>58.33333333333333</ele><time>2026-04-11T14:29:20.081Z</time></trkpt><trkpt lat="45.0819643" lon="9.1110911"><ele>58.0</ele><time>2026-04-11T14:29:21.081Z</time></trkpt><trkpt lat="45.0821071" lon="9.1112929"><ele>58.0</ele><time>2026-04-11T14:29:22.081Z</time></trkpt><trkpt lat="45.0822501" lon="9.1114939"><ele>58.0</ele><time>2026-04-11T14:29:23.081Z</time></trkpt><trkpt lat="45.0823932" lon="9.11169"><ele>58.0</ele><time>2026-04-11T14:29:24.081Z</time></trkpt><trkpt lat="45.0825342" lon="9.1118871"><ele>58.666666666666664</ele><time>2026-04-11T14:29:25.081Z</time></trkpt><trkpt lat="45.082671" lon="9.112085"><ele>59.33333333333333</ele><time>2026-04-11T14:29:26.081Z</time></trkpt><trkpt lat="45.0828064" lon="9.1122815"><ele>60.0</ele><time>2026-04-11T14:29:27.081Z</time></trkpt><trkpt lat="45.0829427" lon="9.1124694"><ele>60.0</ele><time>2026-04-11T14:29:28.081Z</time></trkpt><trkpt lat="45.0830778" lon="9.1126575"><ele>60.0</ele><time>2026-04-11T14:29:29.081Z</time></trkpt><trkpt lat="45.08321" lon="9.1128501"><ele>60.0</ele><time>2026-04-11T14:29:30.08Z</time></trkpt><trkpt lat="45.0833427" lon="9.113033"><ele>60.0</ele><time>2026-04-11T14:29:31.081Z</time></trkpt><trkpt lat="45.0834769" lon="9.1132136"><ele>60.0</ele><time>2026-04-11T14:29:32.08Z</time></trkpt><trkpt lat="45.0836098" lon="9.1134001"><ele>60.0</ele><time>2026-04-11T14:29:33.08Z</time></trkpt><trkpt lat="45.0837415" lon="9.1135867"><ele>60.0</ele><time>2026-04-11T14:29:34.08Z</time></trkpt><trkpt lat="45.0838744" lon="9.1137816"><ele>60.0</ele><time>2026-04-11T14:29:35.081Z</time></trkpt><trkpt lat="45.0840059" lon="9.1139727"><ele>60.0</ele><time>2026-04-11T14:29:36.081Z</time></trkpt><trkpt lat="45.0841386" lon="9.1141648"><ele>60.33333333333333</ele><time>2026-04-11T14:29:37.081Z</time></trkpt><trkpt lat="45.0842736" lon="9.1143577"><ele>60.666666666666664</ele><time>2026-04-11T14:29:38.08Z</time></trkpt><trkpt lat="45.0844103" lon="9.1145493"><ele>61.0</ele><time>2026-04-11T14:29:39.081Z</time></trkpt><trkpt lat="45.0845469" lon="9.1147409"><ele>60.666666666666664</ele><time>2026-04-11T14:29:40.081Z</time></trkpt><trkpt lat="45.0846871" lon="9.1149423"><ele>60.33333333333333</ele><time>2026-04-11T14:29:41.081Z</time></trkpt><trkpt lat="45.0848314" lon="9.1151445"><ele>60.0</ele><time>2026-04-11T14:29:42.081Z</time></trkpt><trkpt lat="45.0849797" lon="9.1153557"><ele>59.66666666666667</ele><time>2026-04-11T14:29:43.082Z</time></trkpt><trkpt lat="45.0851281" lon="9.1155683"><ele>59.333333333333336</ele><time>2026-04-11T14:29:44.082Z</time></trkpt><trkpt lat="45.0852786" lon="9.1157797"><ele>59.0</ele><time>2026-04-11T14:29:45.082Z</time></trkpt><trkpt lat="45.0854317" lon="9.1159947"><ele>59.66666666666667</ele><time>2026-04-11T14:29:46.082Z</time></trkpt><trkpt lat="45.0855838" lon="9.1162072"><ele>60.33333333333333</ele><time>2026-04-11T14:29:47.082Z</time></trkpt><trkpt lat="45.0857352" lon="9.1164179"><ele>61.0</ele><time>2026-04-11T14:29:48.082Z</time></trkpt><trkpt lat="45.0858967" lon="9.1166422"><ele>61.0</ele><time>2026-04-11T14:29:49.082Z</time></trkpt><trkpt lat="45.0860466" lon="9.1168512"><ele>61.0</ele><time>2026-04-11T14:29:50.082Z</time></trkpt><trkpt lat="45.0861982" lon="9.1170682"><ele>61.0</ele><time>2026-04-11T14:29:51.082Z</time></trkpt><trkpt lat="45.086348" lon="9.1172692"><ele>61.0</ele><time>2026-04-11T14:29:52.082Z</time></trkpt><trkpt lat="45.086507" lon="9.1174671"><ele>61.0</ele><time>2026-04-11T14:29:53.081Z</time></trkpt><trkpt lat="45.0866673" lon="9.1176387"><ele>61.0</ele><time>2026-04-11T14:29:54.082Z</time></trkpt><trkpt lat="45.0868245" lon="9.1177953"><ele>61.0</ele><time>2026-04-11T14:29:55.082Z</time></trkpt><trkpt lat="45.0869746" lon="9.1179186"><ele>61.0</ele><time>2026-04-11T14:29:56.082Z</time></trkpt><trkpt lat="45.0871205" lon="9.1180313"><ele>61.0</ele><time>2026-04-11T14:29:57.082Z</time></trkpt><trkpt lat="45.0872457" lon="9.1181196"><ele>61.0</ele><time>2026-04-11T14:29:58.082Z</time></trkpt><trkpt lat="45.0873502" lon="9.1181913"><ele>60.99999999999999</ele><time>2026-04-11T14:29:59.082Z</time></trkpt><trkpt lat="45.0874401" lon="9.1182566"><ele>60.99999999999999</ele><time>2026-04-11T14:30:00.082Z</time></trkpt><trkpt lat="45.0875183" lon="9.1183303"><ele>61.0</ele><time>2026-04-11T14:30:01.082Z</time></trkpt><trkpt lat="45.0876094" lon="9.1184344"><ele>61.0</ele><time>2026-04-11T14:30:02.082Z</time></trkpt><trkpt lat="45.0876796" lon="9.1185145"><ele>61.0</ele><time>2026-04-11T14:30:03.082Z</time></trkpt><trkpt lat="45.0877658" lon="9.1185707"><ele>60.99999999999999</ele><time>2026-04-11T14:30:04.082Z</time></trkpt><trkpt lat="45.0878605" lon="9.1185814"><ele>60.99999999999999</ele><time>2026-04-11T14:30:05.082Z</time></trkpt><trkpt lat="45.0879604" lon="9.1185568"><ele>61.0</ele><time>2026-04-11T14:30:06.082Z</time></trkpt><trkpt lat="45.0880753" lon="9.1185403"><ele>61.0</ele><time>2026-04-11T14:30:07.082Z</time></trkpt><trkpt lat="45.0882013" lon="9.1185601"><ele>60.33333333333333</ele><time>2026-04-11T14:30:08.082Z</time></trkpt><trkpt lat="45.0883432" lon="9.1185885"><ele>59.66666666666667</ele><time>2026-04-11T14:30:09.082Z</time></trkpt><trkpt lat="45.0884976" lon="9.1186189"><ele>59.0</ele><time>2026-04-11T14:30:10.082Z</time></trkpt><trkpt lat="45.088653" lon="9.1186466"><ele>59.0</ele><time>2026-04-11T14:30:11.081Z</time></trkpt><trkpt lat="45.0888146" lon="9.1186684"><ele>59.0</ele><time>2026-04-11T14:30:12.081Z</time></trkpt><trkpt lat="45.0890112" lon="9.1187097"><ele>59.0</ele><time>2026-04-11T14:30:13.082Z</time></trkpt><trkpt lat="45.08921" lon="9.1187447"><ele>59.333333333333336</ele><time>2026-04-11T14:30:14.082Z</time></trkpt><trkpt lat="45.0894041" lon="9.1187597"><ele>59.66666666666667</ele><time>2026-04-11T14:30:15.082Z</time></trkpt><trkpt lat="45.0895835" lon="9.1187777"><ele>60.0</ele><time>2026-04-11T14:30:16.082Z</time></trkpt><trkpt lat="45.0897535" lon="9.1187886"><ele>60.0</ele><time>2026-04-11T14:30:17.082Z</time></trkpt><trkpt lat="45.0899066" lon="9.1188018"><ele>60.0</ele><time>2026-04-11T14:30:18.082Z</time></trkpt><trkpt lat="45.0900432" lon="9.1188212"><ele>60.0</ele><time>2026-04-11T14:30:19.082Z</time></trkpt><trkpt lat="45.0901811" lon="9.1188129"><ele>60.0</ele><time>2026-04-11T14:30:20.082Z</time></trkpt><trkpt lat="45.0902998" lon="9.1188147"><ele>60.2</ele><time>2026-04-11T14:30:21.082Z</time></trkpt><trkpt lat="45.0903995" lon="9.118831"><ele>60.4</ele><time>2026-04-11T14:30:22.082Z</time></trkpt><trkpt lat="45.0904909" lon="9.1188587"><ele>60.599999999999994</ele><time>2026-04-11T14:30:23.082Z</time></trkpt><trkpt lat="45.0905733" lon="9.118914"><ele>60.8</ele><time>2026-04-11T14:30:24.082Z</time></trkpt><trkpt lat="45.0906443" lon="9.1190009"><ele>61.0</ele><time>2026-04-11T14:30:25.081Z</time></trkpt><trkpt lat="45.0907087" lon="9.1190972"><ele>61.166666666666664</ele><time>2026-04-11T14:30:26.082Z</time></trkpt><trkpt lat="45.0907753" lon="9.1191667"><ele>61.33333333333333</ele><time>2026-04-11T14:30:27.082Z</time></trkpt><trkpt lat="45.0908507" lon="9.1191983"><ele>61.5</ele><time>2026-04-11T14:30:28.081Z</time></trkpt><trkpt lat="45.090922" lon="9.1191967"><ele>61.66666666666667</ele><time>2026-04-11T14:30:29.082Z</time></trkpt><trkpt lat="45.0909888" lon="9.1191793"><ele>61.833333333333336</ele><time>2026-04-11T14:30:30.081Z</time></trkpt><trkpt lat="45.0910836" lon="9.1191353"><ele>62.0</ele><time>2026-04-11T14:30:32.082Z</time></trkpt><trkpt lat="45.0911454" lon="9.1190663"><ele>62.0</ele><time>2026-04-11T14:30:35.083Z</time></trkpt><trkpt lat="45.091185" lon="9.1189777"><ele>62.0</ele><time>2026-04-11T14:30:46.083Z</time></trkpt><trkpt lat="45.0911744" lon="9.1188435"><ele>62.0</ele><time>2026-04-11T14:30:49.083Z</time></trkpt><trkpt lat="45.0911542" lon="9.1186933"><ele>62.0</ele><time>2026-04-11T14:30:51.083Z</time></trkpt><trkpt lat="45.0910942" lon="9.118548"><ele>62.0</ele><time>2026-04-11T14:30:53.083Z</time></trkpt><trkpt lat="45.09104" lon="9.1184808"><ele>62.00000000000001</ele><time>2026-04-11T14:30:54.082Z</time></trkpt><trkpt lat="45.0909723" lon="9.1184342"><ele>62.0</ele><time>2026-04-11T14:30:55.083Z</time></trkpt><trkpt lat="45.0908945" lon="9.1184158"><ele>62.0</ele><time>2026-04-11T14:30:56.082Z</time></trkpt><trkpt lat="45.0908186" lon="9.1184145"><ele>62.0</ele><time>2026-04-11T14:30:57.083Z</time></trkpt><trkpt lat="45.0907448" lon="9.1184016"><ele>62.00000000000001</ele><time>2026-04-11T14:30:58.083Z</time></trkpt><trkpt lat="45.0906773" lon="9.1183644"><ele>62.0</ele><time>2026-04-11T14:30:59.083Z</time></trkpt><trkpt lat="45.0906143" lon="9.1182976"><ele>61.8</ele><time>2026-04-11T14:31:00.083Z</time></trkpt><trkpt lat="45.0905515" lon="9.1182147"><ele>61.6</ele><time>2026-04-11T14:31:01.082Z</time></trkpt><trkpt lat="45.090495" lon="9.1180881"><ele>61.39999999999999</ele><time>2026-04-11T14:31:02.083Z</time></trkpt><trkpt lat="45.090459" lon="9.1179721"><ele>61.199999999999996</ele><time>2026-04-11T14:31:03.083Z</time></trkpt><trkpt lat="45.090443" lon="9.1178385"><ele>61.0</ele><time>2026-04-11T14:31:04.083Z</time></trkpt><trkpt lat="45.090454" lon="9.1176996"><ele>61.0</ele><time>2026-04-11T14:31:05.083Z</time></trkpt><trkpt lat="45.0904844" lon="9.1175438"><ele>61.0</ele><time>2026-04-11T14:31:06.083Z</time></trkpt><trkpt lat="45.0905246" lon="9.1173699"><ele>61.0</ele><time>2026-04-11T14:31:07.083Z</time></trkpt><trkpt lat="45.0905655" lon="9.1171794"><ele>61.0</ele><time>2026-04-11T14:31:08.083Z</time></trkpt><trkpt lat="45.0906019" lon="9.1169767"><ele>61.33333333333333</ele><time>2026-04-11T14:31:09.082Z</time></trkpt><trkpt lat="45.0906198" lon="9.1167572"><ele>61.66666666666667</ele><time>2026-04-11T14:31:10.083Z</time></trkpt><trkpt lat="45.0906411" lon="9.1165201"><ele>62.0</ele><time>2026-04-11T14:31:11.083Z</time></trkpt><trkpt lat="45.0906568" lon="9.1162746"><ele>62.0</ele><time>2026-04-11T14:31:12.083Z</time></trkpt><trkpt lat="45.090675" lon="9.1160195"><ele>62.0</ele><time>2026-04-11T14:31:13.082Z</time></trkpt><trkpt lat="45.0906922" lon="9.1157675"><ele>62.0</ele><time>2026-04-11T14:31:14.082Z</time></trkpt><trkpt lat="45.0907107" lon="9.1155164"><ele>62.333333333333336</ele><time>2026-04-11T14:31:15.082Z</time></trkpt><trkpt lat="45.090723" lon="9.1152806"><ele>62.66666666666667</ele><time>2026-04-11T14:31:16.083Z</time></trkpt><trkpt lat="45.0907337" lon="9.1150486"><ele>63.0</ele><time>2026-04-11T14:31:17.083Z</time></trkpt><trkpt lat="45.0907455" lon="9.1148227"><ele>62.33333333333333</ele><time>2026-04-11T14:31:18.083Z</time></trkpt><trkpt lat="45.090758" lon="9.1145989"><ele>61.666666666666664</ele><time>2026-04-11T14:31:19.083Z</time></trkpt><trkpt lat="45.0907717" lon="9.1143833"><ele>61.0</ele><time>2026-04-11T14:31:20.083Z</time></trkpt><trkpt lat="45.0907888" lon="9.1141876"><ele>61.0</ele><time>2026-04-11T14:31:21.083Z</time></trkpt><trkpt lat="45.09079" lon="9.113989"><ele>61.0</ele><time>2026-04-11T14:31:22.083Z</time></trkpt><trkpt lat="45.0907735" lon="9.113783"><ele>61.0</ele><time>2026-04-11T14:31:23.083Z</time></trkpt><trkpt lat="45.0907438" lon="9.113575"><ele>61.0</ele><time>2026-04-11T14:31:24.083Z</time></trkpt><trkpt lat="45.0906986" lon="9.1133748"><ele>60.666666666666664</ele><time>2026-04-11T14:31:25.084Z</time></trkpt><trkpt lat="45.0906405" lon="9.113179"><ele>60.33333333333333</ele><time>2026-04-11T14:31:26.084Z</time></trkpt><trkpt lat="45.0905666" lon="9.1129874"><ele>60.0</ele><time>2026-04-11T14:31:27.084Z</time></trkpt><trkpt lat="45.090488" lon="9.1127913"><ele>60.0</ele><time>2026-04-11T14:31:28.083Z</time></trkpt><trkpt lat="45.0904064" lon="9.1125956"><ele>60.0</ele><time>2026-04-11T14:31:29.083Z</time></trkpt><trkpt lat="45.0903204" lon="9.1124004"><ele>60.0</ele><time>2026-04-11T14:31:30.084Z</time></trkpt><trkpt lat="45.0902345" lon="9.1121953"><ele>60.0</ele><time>2026-04-11T14:31:31.084Z</time></trkpt><trkpt lat="45.0901407" lon="9.1119954"><ele>60.0</ele><time>2026-04-11T14:31:32.084Z</time></trkpt><trkpt lat="45.0900513" lon="9.1117762"><ele>60.0</ele><time>2026-04-11T14:31:33.084Z</time></trkpt><trkpt lat="45.0899646" lon="9.1115442"><ele>60.33333333333333</ele><time>2026-04-11T14:31:34.083Z</time></trkpt><trkpt lat="45.0898708" lon="9.1113335"><ele>60.666666666666664</ele><time>2026-04-11T14:31:35.084Z</time></trkpt><trkpt lat="45.0897765" lon="9.1111227"><ele>61.0</ele><time>2026-04-11T14:31:36.084Z</time></trkpt><trkpt lat="45.0896859" lon="9.1108638"><ele>61.0</ele><time>2026-04-11T14:31:37.084Z</time></trkpt><trkpt lat="45.0895919" lon="9.1106071"><ele>61.0</ele><time>2026-04-11T14:31:38.084Z</time></trkpt><trkpt lat="45.0894997" lon="9.1103724"><ele>61.0</ele><time>2026-04-11T14:31:39.083Z</time></trkpt><trkpt lat="45.089407" lon="9.1101711"><ele>61.0</ele><time>2026-04-11T14:31:40.084Z</time></trkpt><trkpt lat="45.0893171" lon="9.1099313"><ele>61.0</ele><time>2026-04-11T14:31:41.084Z</time></trkpt><trkpt lat="45.089225" lon="9.1097072"><ele>61.0</ele><time>2026-04-11T14:31:42.084Z</time></trkpt><trkpt lat="45.0891282" lon="9.1094729"><ele>61.666666666666664</ele><time>2026-04-11T14:31:43.084Z</time></trkpt><trkpt lat="45.0890276" lon="9.1092337"><ele>62.33333333333333</ele><time>2026-04-11T14:31:44.084Z</time></trkpt><trkpt lat="45.0889234" lon="9.1089875"><ele>63.0</ele><time>2026-04-11T14:31:45.084Z</time></trkpt><trkpt lat="45.0888272" lon="9.108737"><ele>63.0</ele><time>2026-04-11T14:31:46.084Z</time></trkpt><trkpt lat="45.0887314" lon="9.1084745"><ele>63.0</ele><time>2026-04-11T14:31:47.084Z</time></trkpt><trkpt lat="45.0886389" lon="9.1082118"><ele>63.0</ele><time>2026-04-11T14:31:48.084Z</time></trkpt><trkpt lat="45.0885531" lon="9.1079388"><ele>62.66666666666667</ele><time>2026-04-11T14:31:49.083Z</time></trkpt><trkpt lat="45.0884727" lon="9.1076608"><ele>62.333333333333336</ele><time>2026-04-11T14:31:50.084Z</time></trkpt><trkpt lat="45.0883989" lon="9.1073766"><ele>62.0</ele><time>2026-04-11T14:31:51.083Z</time></trkpt><trkpt lat="45.0883328" lon="9.1070893"><ele>61.66666666666667</ele><time>2026-04-11T14:31:52.084Z</time></trkpt><trkpt lat="45.088273" lon="9.1067999"><ele>61.33333333333333</ele><time>2026-04-11T14:31:53.084Z</time></trkpt><trkpt lat="45.0882266" lon="9.1065036"><ele>61.0</ele><time>2026-04-11T14:31:54.084Z</time></trkpt><trkpt lat="45.0881928" lon="9.1062024"><ele>60.666666666666664</ele><time>2026-04-11T14:31:55.083Z</time></trkpt><trkpt lat="45.0881696" lon="9.1059036"><ele>60.33333333333333</ele><time>2026-04-11T14:31:56.083Z</time></trkpt><trkpt lat="45.0881505" lon="9.1055995"><ele>60.0</ele><time>2026-04-11T14:31:57.083Z</time></trkpt><trkpt lat="45.0881303" lon="9.1052963"><ele>60.0</ele><time>2026-04-11T14:31:58.083Z</time></trkpt><trkpt lat="45.088114" lon="9.1049868"><ele>60.0</ele><time>2026-04-11T14:31:59.084Z</time></trkpt><trkpt lat="45.0881011" lon="9.1046732"><ele>60.0</ele><time>2026-04-11T14:32:00.084Z</time></trkpt><trkpt lat="45.0880814" lon="9.1043664"><ele>59.66666666666667</ele><time>2026-04-11T14:32:01.084Z</time></trkpt><trkpt lat="45.0880573" lon="9.1040481"><ele>59.333333333333336</ele><time>2026-04-11T14:32:02.083Z</time></trkpt><trkpt lat="45.0880346" lon="9.1037348"><ele>59.0</ele><time>2026-04-11T14:32:03.084Z</time></trkpt><trkpt lat="45.0880143" lon="9.1034259"><ele>59.66666666666667</ele><time>2026-04-11T14:32:04.083Z</time></trkpt><trkpt lat="45.0879962" lon="9.1031175"><ele>60.33333333333333</ele><time>2026-04-11T14:32:05.083Z</time></trkpt><trkpt lat="45.0879773" lon="9.1028161"><ele>61.0</ele><time>2026-04-11T14:32:06.084Z</time></trkpt><trkpt lat="45.0879615" lon="9.1025306"><ele>60.666666666666664</ele><time>2026-04-11T14:32:07.084Z</time></trkpt><trkpt lat="45.0879455" lon="9.1022686"><ele>60.33333333333333</ele><time>2026-04-11T14:32:08.083Z</time></trkpt><trkpt lat="45.0879293" lon="9.1020199"><ele>60.0</ele><time>2026-04-11T14:32:09.084Z</time></trkpt><trkpt lat="45.0879142" lon="9.101786"><ele>60.25</ele><time>2026-04-11T14:32:10.083Z</time></trkpt><trkpt lat="45.087901" lon="9.1015674"><ele>60.5</ele><time>2026-04-11T14:32:11.084Z</time></trkpt><trkpt lat="45.087888" lon="9.1013587"><ele>60.75</ele><time>2026-04-11T14:32:12.084Z</time></trkpt><trkpt lat="45.0878788" lon="9.1011639"><ele>61.0</ele><time>2026-04-11T14:32:13.083Z</time></trkpt><trkpt lat="45.0878662" lon="9.1009805"><ele>61.0</ele><time>2026-04-11T14:32:14.085Z</time></trkpt><trkpt lat="45.0878546" lon="9.1008033"><ele>61.0</ele><time>2026-04-11T14:32:15.085Z</time></trkpt><trkpt lat="45.0878344" lon="9.1006347"><ele>61.0</ele><time>2026-04-11T14:32:16.085Z</time></trkpt><trkpt lat="45.087834" lon="9.1004758"><ele>61.0</ele><time>2026-04-11T14:32:17.085Z</time></trkpt><trkpt lat="45.0878467" lon="9.1003272"><ele>61.0</ele><time>2026-04-11T14:32:18.085Z</time></trkpt><trkpt lat="45.0878748" lon="9.1001917"><ele>60.99999999999999</ele><time>2026-04-11T14:32:19.084Z</time></trkpt><trkpt lat="45.0879159" lon="9.1000725"><ele>60.99999999999999</ele><time>2026-04-11T14:32:20.085Z</time></trkpt><trkpt lat="45.0879558" lon="9.0999617"><ele>61.0</ele><time>2026-04-11T14:32:21.085Z</time></trkpt><trkpt lat="45.087991" lon="9.0998497"><ele>61.0</ele><time>2026-04-11T14:32:22.085Z</time></trkpt><trkpt lat="45.0880278" lon="9.0997363"><ele>61.0</ele><time>2026-04-11T14:32:23.085Z</time></trkpt><trkpt lat="45.0880838" lon="9.0996339"><ele>60.99999999999999</ele><time>2026-04-11T14:32:24.085Z</time></trkpt><trkpt lat="45.0881472" lon="9.0995365"><ele>60.99999999999999</ele><time>2026-04-11T14:32:25.085Z</time></trkpt><trkpt lat="45.0882222" lon="9.0994497"><ele>61.0</ele><time>2026-04-11T14:32:26.084Z</time></trkpt><trkpt lat="45.0882957" lon="9.0993818"><ele>61.0</ele><time>2026-04-11T14:32:27.085Z</time></trkpt><trkpt lat="45.0883623" lon="9.0993167"><ele>60.99999999999999</ele><time>2026-04-11T14:32:28.085Z</time></trkpt><trkpt lat="45.088421" lon="9.0992511"><ele>61.0</ele><time>2026-04-11T14:32:29.084Z</time></trkpt><trkpt lat="45.0885237" lon="9.0991814"><ele>61.0</ele><time>2026-04-11T14:32:31.085Z</time></trkpt><trkpt lat="45.0886178" lon="9.0992155"><ele>61.0</ele><time>2026-04-11T14:32:33.085Z</time></trkpt><trkpt lat="45.0886715" lon="9.0993186"><ele>60.99999999999999</ele><time>2026-04-11T14:32:35.085Z</time></trkpt><trkpt lat="45.0887032" lon="9.0994088"><ele>61.0</ele><time>2026-04-11T14:32:37.085Z</time></trkpt><trkpt lat="45.0887223" lon="9.0994987"><ele>60.99999999999999</ele><time>2026-04-11T14:32:41.084Z</time></trkpt><trkpt lat="45.0887705" lon="9.0995966"><ele>61.0</ele><time>2026-04-11T14:34:00.086Z</time></trkpt><trkpt lat="45.0888116" lon="9.0996698"><ele>61.0</ele><time>2026-04-11T14:34:01.086Z</time></trkpt><trkpt lat="45.0888579" lon="9.0997561"><ele>61.0</ele><time>2026-04-11T14:34:02.087Z</time></trkpt><trkpt lat="45.0888956" lon="9.0998642"><ele>60.99999999999999</ele><time>2026-04-11T14:34:03.087Z</time></trkpt><trkpt lat="45.0889513" lon="9.0999867"><ele>61.0</ele><time>2026-04-11T14:34:04.087Z</time></trkpt><trkpt lat="45.089015" lon="9.1001117"><ele>61.25</ele><time>2026-04-11T14:34:05.087Z</time></trkpt><trkpt lat="45.0890826" lon="9.1002324"><ele>61.5</ele><time>2026-04-11T14:34:06.087Z</time></trkpt><trkpt lat="45.0891678" lon="9.1003596"><ele>61.75</ele><time>2026-04-11T14:34:07.086Z</time></trkpt><trkpt lat="45.0892638" lon="9.1004799"><ele>62.0</ele><time>2026-04-11T14:34:08.087Z</time></trkpt><trkpt lat="45.0893662" lon="9.1006033"><ele>61.75</ele><time>2026-04-11T14:34:09.087Z</time></trkpt><trkpt lat="45.0894693" lon="9.1007233"><ele>61.5</ele><time>2026-04-11T14:34:10.087Z</time></trkpt><trkpt lat="45.0895719" lon="9.100836"><ele>61.25</ele><time>2026-04-11T14:34:11.087Z</time></trkpt><trkpt lat="45.0896842" lon="9.1009584"><ele>61.0</ele><time>2026-04-11T14:34:12.087Z</time></trkpt><trkpt lat="45.0897971" lon="9.1010738"><ele>61.0</ele><time>2026-04-11T14:34:13.086Z</time></trkpt><trkpt lat="45.0899091" lon="9.1011971"><ele>61.0</ele><time>2026-04-11T14:34:14.087Z</time></trkpt><trkpt lat="45.0900263" lon="9.1013155"><ele>61.0</ele><time>2026-04-11T14:34:15.087Z</time></trkpt><trkpt lat="45.0901486" lon="9.1014217"><ele>61.0</ele><time>2026-04-11T14:34:16.086Z</time></trkpt><trkpt lat="45.0902784" lon="9.1015131"><ele>61.0</ele><time>2026-04-11T14:34:17.087Z</time></trkpt><trkpt lat="45.0904166" lon="9.1015922"><ele>61.0</ele><time>2026-04-11T14:34:18.087Z</time></trkpt><trkpt lat="45.0905531" lon="9.1016901"><ele>61.0</ele><time>2026-04-11T14:34:19.087Z</time></trkpt><trkpt lat="45.090692" lon="9.1017846"><ele>60.666666666666664</ele><time>2026-04-11T14:34:20.086Z</time></trkpt><trkpt lat="45.0908304" lon="9.1018801"><ele>60.33333333333333</ele><time>2026-04-11T14:34:21.087Z</time></trkpt><trkpt lat="45.0909743" lon="9.1019711"><ele>60.0</ele><time>2026-04-11T14:34:22.087Z</time></trkpt><trkpt lat="45.0911102" lon="9.102057"><ele>60.0</ele><time>2026-04-11T14:34:23.087Z</time></trkpt><trkpt lat="45.0912396" lon="9.1021416"><ele>60.0</ele><time>2026-04-11T14:34:24.087Z</time></trkpt><trkpt lat="45.0913549" lon="9.1022245"><ele>60.0</ele><time>2026-04-11T14:34:25.087Z</time></trkpt><trkpt lat="45.0914687" lon="9.1022977"><ele>60.0</ele><time>2026-04-11T14:34:26.087Z</time></trkpt><trkpt lat="45.0915906" lon="9.1023645"><ele>60.5</ele><time>2026-04-11T14:34:27.087Z</time></trkpt><trkpt lat="45.0917176" lon="9.1024231"><ele>61.0</ele><time>2026-04-11T14:34:28.087Z</time></trkpt><trkpt lat="45.0918452" lon="9.1024734"><ele>61.5</ele><time>2026-04-11T14:34:29.086Z</time></trkpt><trkpt lat="45.0919803" lon="9.1025096"><ele>62.0</ele><time>2026-04-11T14:34:30.087Z</time></trkpt><trkpt lat="45.0921234" lon="9.1025498"><ele>62.0</ele><time>2026-04-11T14:34:31.087Z</time></trkpt><trkpt lat="45.0922703" lon="9.1025669"><ele>62.0</ele><time>2026-04-11T14:34:32.087Z</time></trkpt><trkpt lat="45.0924156" lon="9.1025714"><ele>62.0</ele><time>2026-04-11T14:34:33.087Z</time></trkpt><trkpt lat="45.0925565" lon="9.1025655"><ele>62.0</ele><time>2026-04-11T14:34:34.086Z</time></trkpt><trkpt lat="45.0926969" lon="9.1025539"><ele>62.0</ele><time>2026-04-11T14:34:35.087Z</time></trkpt><trkpt lat="45.0928422" lon="9.1025395"><ele>62.0</ele><time>2026-04-11T14:34:36.087Z</time></trkpt><trkpt lat="45.0929953" lon="9.1025252"><ele>62.0</ele><time>2026-04-11T14:34:37.087Z</time></trkpt><trkpt lat="45.0931519" lon="9.1025137"><ele>61.66666666666667</ele><time>2026-04-11T14:34:38.087Z</time></trkpt><trkpt lat="45.0933135" lon="9.1025125"><ele>61.33333333333333</ele><time>2026-04-11T14:34:39.087Z</time></trkpt><trkpt lat="45.0934806" lon="9.1025158"><ele>61.0</ele><time>2026-04-11T14:34:40.086Z</time></trkpt><trkpt lat="45.0936526" lon="9.1025232"><ele>61.0</ele><time>2026-04-11T14:34:41.087Z</time></trkpt><trkpt lat="45.0938301" lon="9.1025306"><ele>61.0</ele><time>2026-04-11T14:34:42.087Z</time></trkpt><trkpt lat="45.0940033" lon="9.1025339"><ele>61.0</ele><time>2026-04-11T14:34:43.087Z</time></trkpt><trkpt lat="45.09416" lon="9.1025353"><ele>60.75</ele><time>2026-04-11T14:34:44.087Z</time></trkpt><trkpt lat="45.0943085" lon="9.1025385"><ele>60.5</ele><time>2026-04-11T14:34:45.086Z</time></trkpt><trkpt lat="45.0944528" lon="9.1025362"><ele>60.25</ele><time>2026-04-11T14:34:46.087Z</time></trkpt><trkpt lat="45.0945994" lon="9.1025334"><ele>60.0</ele><time>2026-04-11T14:34:47.087Z</time></trkpt><trkpt lat="45.0947437" lon="9.1025337"><ele>60.0</ele><time>2026-04-11T14:34:48.087Z</time></trkpt><trkpt lat="45.0948863" lon="9.1025362"><ele>60.0</ele><time>2026-04-11T14:34:49.087Z</time></trkpt><trkpt lat="45.0950258" lon="9.1025463"><ele>60.0</ele><time>2026-04-11T14:34:50.087Z</time></trkpt><trkpt lat="45.0951459" lon="9.1025606"><ele>60.0</ele><time>2026-04-11T14:34:51.086Z</time></trkpt><trkpt lat="45.0952637" lon="9.1025883"><ele>60.25</ele><time>2026-04-11T14:34:52.088Z</time></trkpt><trkpt lat="45.0953865" lon="9.1026355"><ele>60.5</ele><time>2026-04-11T14:34:53.087Z</time></trkpt><trkpt lat="45.095514" lon="9.1026873"><ele>60.75</ele><time>2026-04-11T14:34:54.088Z</time></trkpt><trkpt lat="45.0956497" lon="9.1027472"><ele>61.0</ele><time>2026-04-11T14:34:55.087Z</time></trkpt><trkpt lat="45.0957894" lon="9.1028081"><ele>61.0</ele><time>2026-04-11T14:34:56.088Z</time></trkpt><trkpt lat="45.0959331" lon="9.1028685"><ele>61.0</ele><time>2026-04-11T14:34:57.088Z</time></trkpt><trkpt lat="45.0960762" lon="9.1029349"><ele>61.0</ele><time>2026-04-11T14:34:58.087Z</time></trkpt><trkpt lat="45.0962169" lon="9.103008"><ele>61.0</ele><time>2026-04-11T14:34:59.088Z</time></trkpt><trkpt lat="45.096353" lon="9.1030914"><ele>61.0</ele><time>2026-04-11T14:35:00.088Z</time></trkpt><trkpt lat="45.096482" lon="9.1031775"><ele>61.0</ele><time>2026-04-11T14:35:01.088Z</time></trkpt><trkpt lat="45.0966045" lon="9.1032613"><ele>61.0</ele><time>2026-04-11T14:35:02.088Z</time></trkpt><trkpt lat="45.0967212" lon="9.1033328"><ele>60.8</ele><time>2026-04-11T14:35:03.088Z</time></trkpt><trkpt lat="45.096818" lon="9.1033989"><ele>60.599999999999994</ele><time>2026-04-11T14:35:04.088Z</time></trkpt><trkpt lat="45.0969089" lon="9.1034689"><ele>60.4</ele><time>2026-04-11T14:35:05.088Z</time></trkpt><trkpt lat="45.0969973" lon="9.1035419"><ele>60.2</ele><time>2026-04-11T14:35:06.088Z</time></trkpt><trkpt lat="45.0970863" lon="9.1036247"><ele>60.0</ele><time>2026-04-11T14:35:07.088Z</time></trkpt><trkpt lat="45.0971779" lon="9.1037042"><ele>60.0</ele><time>2026-04-11T14:35:08.088Z</time></trkpt><trkpt lat="45.0972782" lon="9.1037859"><ele>60.0</ele><time>2026-04-11T14:35:09.088Z</time></trkpt><trkpt lat="45.0973771" lon="9.1038674"><ele>60.0</ele><time>2026-04-11T14:35:10.088Z</time></trkpt><trkpt lat="45.0974784" lon="9.1039502"><ele>60.0</ele><time>2026-04-11T14:35:11.088Z</time></trkpt><trkpt lat="45.0975843" lon="9.1040377"><ele>60.75</ele><time>2026-04-11T14:35:12.088Z</time></trkpt><trkpt lat="45.0976892" lon="9.1041315"><ele>61.5</ele><time>2026-04-11T14:35:13.088Z</time></trkpt><trkpt lat="45.0978041" lon="9.1042195"><ele>62.25</ele><time>2026-04-11T14:35:14.088Z</time></trkpt><trkpt lat="45.0979133" lon="9.1043007"><ele>63.0</ele><time>2026-04-11T14:35:15.088Z</time></trkpt><trkpt lat="45.0980243" lon="9.1043912"><ele>63.0</ele><time>2026-04-11T14:35:16.088Z</time></trkpt><trkpt lat="45.0981384" lon="9.1044796"><ele>63.0</ele><time>2026-04-11T14:35:17.088Z</time></trkpt><trkpt lat="45.0982638" lon="9.1045678"><ele>63.0</ele><time>2026-04-11T14:35:18.088Z</time></trkpt><trkpt lat="45.0983892" lon="9.1046545"><ele>63.0</ele><time>2026-04-11T14:35:19.088Z</time></trkpt><trkpt lat="45.0985151" lon="9.1047424"><ele>63.0</ele><time>2026-04-11T14:35:20.087Z</time></trkpt><trkpt lat="45.0986463" lon="9.1048352"><ele>63.0</ele><time>2026-04-11T14:35:21.087Z</time></trkpt><trkpt lat="45.0987778" lon="9.1049287"><ele>63.0</ele><time>2026-04-11T14:35:22.088Z</time></trkpt><trkpt lat="45.0989048" lon="9.1050256"><ele>63.0</ele><time>2026-04-11T14:35:23.088Z</time></trkpt><trkpt lat="45.0990279" lon="9.1051223"><ele>62.75</ele><time>2026-04-11T14:35:24.088Z</time></trkpt><trkpt lat="45.0991463" lon="9.1052195"><ele>62.5</ele><time>2026-04-11T14:35:25.088Z</time></trkpt><trkpt lat="45.0992559" lon="9.1053008"><ele>62.25</ele><time>2026-04-11T14:35:26.088Z</time></trkpt><trkpt lat="45.0993631" lon="9.1053847"><ele>62.0</ele><time>2026-04-11T14:35:27.088Z</time></trkpt><trkpt lat="45.0994722" lon="9.105462"><ele>62.0</ele><time>2026-04-11T14:35:28.088Z</time></trkpt><trkpt lat="45.0995745" lon="9.1055415"><ele>62.0</ele><time>2026-04-11T14:35:29.088Z</time></trkpt><trkpt lat="45.0996801" lon="9.1056197"><ele>62.0</ele><time>2026-04-11T14:35:30.088Z</time></trkpt><trkpt lat="45.0997817" lon="9.1056901"><ele>62.0</ele><time>2026-04-11T14:35:31.088Z</time></trkpt><trkpt lat="45.0998827" lon="9.1057638"><ele>61.8</ele><time>2026-04-11T14:35:32.088Z</time></trkpt><trkpt lat="45.09998" lon="9.1058331"><ele>61.6</ele><time>2026-04-11T14:35:33.088Z</time></trkpt><trkpt lat="45.1000751" lon="9.1059035"><ele>61.39999999999999</ele><time>2026-04-11T14:35:34.087Z</time></trkpt><trkpt lat="45.1001601" lon="9.1059632"><ele>61.199999999999996</ele><time>2026-04-11T14:35:35.088Z</time></trkpt><trkpt lat="45.1002464" lon="9.10602"><ele>61.0</ele><time>2026-04-11T14:35:36.088Z</time></trkpt><trkpt lat="45.1003262" lon="9.106074"><ele>60.99999999999999</ele><time>2026-04-11T14:35:37.087Z</time></trkpt><trkpt lat="45.1003968" lon="9.1061245"><ele>61.0</ele><time>2026-04-11T14:35:38.088Z</time></trkpt><trkpt lat="45.1004647" lon="9.1061725"><ele>61.0</ele><time>2026-04-11T14:35:39.087Z</time></trkpt><trkpt lat="45.1005242" lon="9.1062142"><ele>61.0</ele><time>2026-04-11T14:35:40.088Z</time></trkpt><trkpt lat="45.1006112" lon="9.1062962"><ele>60.99999999999999</ele><time>2026-04-11T14:35:42.088Z</time></trkpt><trkpt lat="45.100672" lon="9.1063539"><ele>61.0</ele><time>2026-04-11T14:35:46.089Z</time></trkpt><trkpt lat="45.1006172" lon="9.1062936"><ele>61.0</ele><time>2026-04-11T14:37:23.089Z</time></trkpt><trkpt lat="45.1005511" lon="9.1062451"><ele>60.99999999999999</ele><time>2026-04-11T14:37:38.091Z</time></trkpt><trkpt lat="45.1004299" lon="9.1061536"><ele>60.99999999999999</ele><time>2026-04-11T14:37:40.09Z</time></trkpt><trkpt lat="45.1003491" lon="9.1060942"><ele>61.0</ele><time>2026-04-11T14:37:41.091Z</time></trkpt><trkpt lat="45.1002626" lon="9.1060327"><ele>61.0</ele><time>2026-04-11T14:37:42.091Z</time></trkpt><trkpt lat="45.1001723" lon="9.1059681"><ele>61.0</ele><time>2026-04-11T14:37:43.091Z</time></trkpt><trkpt lat="45.1000774" lon="9.1058984"><ele>61.0</ele><time>2026-04-11T14:37:44.091Z</time></trkpt><trkpt lat="45.0999741" lon="9.1058238"><ele>61.0</ele><time>2026-04-11T14:37:45.091Z</time></trkpt><trkpt lat="45.0998661" lon="9.1057445"><ele>61.0</ele><time>2026-04-11T14:37:46.09Z</time></trkpt><trkpt lat="45.0997563" lon="9.1056613"><ele>61.25</ele><time>2026-04-11T14:37:47.091Z</time></trkpt><trkpt lat="45.0996439" lon="9.1055776"><ele>61.5</ele><time>2026-04-11T14:37:48.091Z</time></trkpt><trkpt lat="45.0995326" lon="9.1054949"><ele>61.75</ele><time>2026-04-11T14:37:49.091Z</time></trkpt><trkpt lat="45.0994193" lon="9.1054095"><ele>62.0</ele><time>2026-04-11T14:37:50.091Z</time></trkpt><trkpt lat="45.0993027" lon="9.1053233"><ele>62.0</ele><time>2026-04-11T14:37:51.09Z</time></trkpt><trkpt lat="45.0991845" lon="9.1052333"><ele>62.0</ele><time>2026-04-11T14:37:52.091Z</time></trkpt><trkpt lat="45.099065" lon="9.1051422"><ele>62.0</ele><time>2026-04-11T14:37:53.091Z</time></trkpt><trkpt lat="45.0989438" lon="9.1050487"><ele>62.0</ele><time>2026-04-11T14:37:54.09Z</time></trkpt><trkpt lat="45.09882" lon="9.1049524"><ele>62.0</ele><time>2026-04-11T14:37:55.091Z</time></trkpt><trkpt lat="45.0986979" lon="9.1048589"><ele>62.0</ele><time>2026-04-11T14:37:56.091Z</time></trkpt><trkpt lat="45.0985757" lon="9.1047721"><ele>62.0</ele><time>2026-04-11T14:37:57.091Z</time></trkpt><trkpt lat="45.0984523" lon="9.1046861"><ele>62.0</ele><time>2026-04-11T14:37:58.091Z</time></trkpt><trkpt lat="45.0983284" lon="9.1045935"><ele>62.25</ele><time>2026-04-11T14:37:59.091Z</time></trkpt><trkpt lat="45.098213" lon="9.1045057"><ele>62.5</ele><time>2026-04-11T14:38:00.091Z</time></trkpt><trkpt lat="45.0981031" lon="9.1044275"><ele>62.75</ele><time>2026-04-11T14:38:01.091Z</time></trkpt><trkpt lat="45.0979985" lon="9.1043539"><ele>63.0</ele><time>2026-04-11T14:38:02.091Z</time></trkpt><trkpt lat="45.0979016" lon="9.1042834"><ele>63.0</ele><time>2026-04-11T14:38:03.091Z</time></trkpt><trkpt lat="45.0978098" lon="9.1042141"><ele>63.0</ele><time>2026-04-11T14:38:04.091Z</time></trkpt><trkpt lat="45.0977208" lon="9.1041448"><ele>63.0</ele><time>2026-04-11T14:38:05.09Z</time></trkpt><trkpt lat="45.0976317" lon="9.1040737"><ele>63.0</ele><time>2026-04-11T14:38:06.091Z</time></trkpt><trkpt lat="45.097543" lon="9.1040013"><ele>63.0</ele><time>2026-04-11T14:38:07.091Z</time></trkpt><trkpt lat="45.0974514" lon="9.1039292"><ele>62.4</ele><time>2026-04-11T14:38:08.09Z</time></trkpt><trkpt lat="45.0973566" lon="9.103857"><ele>61.8</ele><time>2026-04-11T14:38:09.091Z</time></trkpt><trkpt lat="45.0972604" lon="9.1037797"><ele>61.2</ele><time>2026-04-11T14:38:10.09Z</time></trkpt><trkpt lat="45.0971657" lon="9.1037014"><ele>60.6</ele><time>2026-04-11T14:38:11.091Z</time></trkpt><trkpt lat="45.0970688" lon="9.1036199"><ele>60.0</ele><time>2026-04-11T14:38:12.09Z</time></trkpt><trkpt lat="45.0969756" lon="9.1035386"><ele>60.0</ele><time>2026-04-11T14:38:13.091Z</time></trkpt><trkpt lat="45.0968866" lon="9.1034609"><ele>60.0</ele><time>2026-04-11T14:38:14.09Z</time></trkpt><trkpt lat="45.0967976" lon="9.1033942"><ele>60.0</ele><time>2026-04-11T14:38:15.091Z</time></trkpt><trkpt lat="45.0967066" lon="9.1033274"><ele>60.0</ele><time>2026-04-11T14:38:16.09Z</time></trkpt><trkpt lat="45.0966119" lon="9.1032631"><ele>60.0</ele><time>2026-04-11T14:38:17.091Z</time></trkpt><trkpt lat="45.0965123" lon="9.1031974"><ele>60.25</ele><time>2026-04-11T14:38:18.09Z</time></trkpt><trkpt lat="45.0964111" lon="9.1031307"><ele>60.5</ele><time>2026-04-11T14:38:19.091Z</time></trkpt><trkpt lat="45.0963091" lon="9.1030618"><ele>60.75</ele><time>2026-04-11T14:38:20.09Z</time></trkpt><trkpt lat="45.0962009" lon="9.1029931"><ele>61.0</ele><time>2026-04-11T14:38:21.092Z</time></trkpt><trkpt lat="45.096094" lon="9.1029362"><ele>61.0</ele><time>2026-04-11T14:38:22.092Z</time></trkpt><trkpt lat="45.0959819" lon="9.1028865"><ele>61.0</ele><time>2026-04-11T14:38:23.092Z</time></trkpt><trkpt lat="45.0958655" lon="9.1028411"><ele>61.0</ele><time>2026-04-11T14:38:24.092Z</time></trkpt><trkpt lat="45.095742" lon="9.1027864"><ele>61.0</ele><time>2026-04-11T14:38:25.092Z</time></trkpt><trkpt lat="45.095616" lon="9.1027338"><ele>61.0</ele><time>2026-04-11T14:38:26.091Z</time></trkpt><trkpt lat="45.0954868" lon="9.1026832"><ele>61.0</ele><time>2026-04-11T14:38:27.092Z</time></trkpt><trkpt lat="45.0953639" lon="9.1026374"><ele>61.0</ele><time>2026-04-11T14:38:28.092Z</time></trkpt><trkpt lat="45.0952467" lon="9.1025923"><ele>61.0</ele><time>2026-04-11T14:38:29.091Z</time></trkpt><trkpt lat="45.0951353" lon="9.1025648"><ele>61.0</ele><time>2026-04-11T14:38:30.091Z</time></trkpt><trkpt lat="45.0950232" lon="9.1025433"><ele>61.0</ele><time>2026-04-11T14:38:31.092Z</time></trkpt><trkpt lat="45.0949094" lon="9.1025403"><ele>61.0</ele><time>2026-04-11T14:38:32.092Z</time></trkpt><trkpt lat="45.0947916" lon="9.1025404"><ele>61.0</ele><time>2026-04-11T14:38:33.092Z</time></trkpt><trkpt lat="45.0946684" lon="9.102542"><ele>60.75</ele><time>2026-04-11T14:38:34.092Z</time></trkpt><trkpt lat="45.094542" lon="9.1025462"><ele>60.5</ele><time>2026-04-11T14:38:35.092Z</time></trkpt><trkpt lat="45.0944069" lon="9.1025474"><ele>60.25</ele><time>2026-04-11T14:38:36.092Z</time></trkpt><trkpt lat="45.0942665" lon="9.1025498"><ele>60.0</ele><time>2026-04-11T14:38:37.092Z</time></trkpt><trkpt lat="45.0941237" lon="9.1025467"><ele>60.25</ele><time>2026-04-11T14:38:38.092Z</time></trkpt><trkpt lat="45.0939796" lon="9.1025422"><ele>60.5</ele><time>2026-04-11T14:38:39.091Z</time></trkpt><trkpt lat="45.0938325" lon="9.1025388"><ele>60.75</ele><time>2026-04-11T14:38:40.092Z</time></trkpt><trkpt lat="45.0936813" lon="9.1025381"><ele>61.0</ele><time>2026-04-11T14:38:41.092Z</time></trkpt><trkpt lat="45.093524" lon="9.1025331"><ele>61.0</ele><time>2026-04-11T14:38:42.092Z</time></trkpt><trkpt lat="45.0933709" lon="9.10253"><ele>61.0</ele><time>2026-04-11T14:38:43.092Z</time></trkpt><trkpt lat="45.0932247" lon="9.1025262"><ele>61.0</ele><time>2026-04-11T14:38:44.092Z</time></trkpt><trkpt lat="45.0930827" lon="9.1025273"><ele>61.0</ele><time>2026-04-11T14:38:45.091Z</time></trkpt><trkpt lat="45.0929479" lon="9.1025312"><ele>61.25</ele><time>2026-04-11T14:38:46.092Z</time></trkpt><trkpt lat="45.0928196" lon="9.1025401"><ele>61.5</ele><time>2026-04-11T14:38:47.092Z</time></trkpt><trkpt lat="45.0926911" lon="9.1025495"><ele>61.75</ele><time>2026-04-11T14:38:48.092Z</time></trkpt><trkpt lat="45.0925614" lon="9.102555"><ele>62.0</ele><time>2026-04-11T14:38:49.092Z</time></trkpt><trkpt lat="45.0924283" lon="9.1025561"><ele>62.0</ele><time>2026-04-11T14:38:50.092Z</time></trkpt><trkpt lat="45.0922959" lon="9.1025427"><ele>62.0</ele><time>2026-04-11T14:38:51.092Z</time></trkpt><trkpt lat="45.0921558" lon="9.1025172"><ele>62.0</ele><time>2026-04-11T14:38:52.092Z</time></trkpt><trkpt lat="45.0920136" lon="9.1024806"><ele>62.0</ele><time>2026-04-11T14:38:53.092Z</time></trkpt><trkpt lat="45.09187" lon="9.1024368"><ele>61.333333333333336</ele><time>2026-04-11T14:38:54.091Z</time></trkpt><trkpt lat="45.091724" lon="9.1023878"><ele>60.66666666666667</ele><time>2026-04-11T14:38:55.092Z</time></trkpt><trkpt lat="45.0915797" lon="9.1023287"><ele>60.0</ele><time>2026-04-11T14:38:56.092Z</time></trkpt><trkpt lat="45.0914362" lon="9.1022577"><ele>60.0</ele><time>2026-04-11T14:38:57.092Z</time></trkpt><trkpt lat="45.0912987" lon="9.102176"><ele>60.0</ele><time>2026-04-11T14:38:58.092Z</time></trkpt><trkpt lat="45.0911609" lon="9.1020881"><ele>60.0</ele><time>2026-04-11T14:38:59.092Z</time></trkpt><trkpt lat="45.0910186" lon="9.1019947"><ele>60.0</ele><time>2026-04-11T14:39:00.092Z</time></trkpt><trkpt lat="45.0908763" lon="9.1019045"><ele>60.0</ele><time>2026-04-11T14:39:01.092Z</time></trkpt><trkpt lat="45.0907327" lon="9.1018102"><ele>60.0</ele><time>2026-04-11T14:39:02.091Z</time></trkpt><trkpt lat="45.0905901" lon="9.1017155"><ele>60.25</ele><time>2026-04-11T14:39:03.092Z</time></trkpt><trkpt lat="45.0904485" lon="9.1016223"><ele>60.5</ele><time>2026-04-11T14:39:04.092Z</time></trkpt><trkpt lat="45.0903143" lon="9.1015325"><ele>60.75</ele><time>2026-04-11T14:39:05.092Z</time></trkpt><trkpt lat="45.0901864" lon="9.1014435"><ele>61.0</ele><time>2026-04-11T14:39:06.092Z</time></trkpt><trkpt lat="45.090059" lon="9.1013434"><ele>61.0</ele><time>2026-04-11T14:39:07.092Z</time></trkpt><trkpt lat="45.0899339" lon="9.1012332"><ele>61.0</ele><time>2026-04-11T14:39:08.091Z</time></trkpt><trkpt lat="45.0898123" lon="9.1011109"><ele>61.0</ele><time>2026-04-11T14:39:09.092Z</time></trkpt><trkpt lat="45.0896935" lon="9.1009834"><ele>61.0</ele><time>2026-04-11T14:39:10.091Z</time></trkpt><trkpt lat="45.0895769" lon="9.1008517"><ele>60.75</ele><time>2026-04-11T14:39:11.092Z</time></trkpt><trkpt lat="45.0894583" lon="9.1007172"><ele>60.5</ele><time>2026-04-11T14:39:12.093Z</time></trkpt><trkpt lat="45.0893453" lon="9.1005788"><ele>60.25</ele><time>2026-04-11T14:39:13.093Z</time></trkpt><trkpt lat="45.0892335" lon="9.1004411"><ele>60.0</ele><time>2026-04-11T14:39:14.093Z</time></trkpt><trkpt lat="45.0891323" lon="9.1002928"><ele>60.25</ele><time>2026-04-11T14:39:15.093Z</time></trkpt><trkpt lat="45.0890418" lon="9.1001299"><ele>60.5</ele><time>2026-04-11T14:39:16.093Z</time></trkpt><trkpt lat="45.0889548" lon="9.099957"><ele>60.75</ele><time>2026-04-11T14:39:17.093Z</time></trkpt><trkpt lat="45.0888731" lon="9.0997855"><ele>61.0</ele><time>2026-04-11T14:39:18.093Z</time></trkpt><trkpt lat="45.0888037" lon="9.0996289"><ele>61.0</ele><time>2026-04-11T14:39:19.092Z</time></trkpt><trkpt lat="45.0887486" lon="9.0994937"><ele>60.99999999999999</ele><time>2026-04-11T14:39:20.093Z</time></trkpt><trkpt lat="45.0887032" lon="9.0993763"><ele>60.99999999999999</ele><time>2026-04-11T14:39:21.093Z</time></trkpt><trkpt lat="45.0886636" lon="9.0992792"><ele>61.0</ele><time>2026-04-11T14:39:22.093Z</time></trkpt><trkpt lat="45.0886109" lon="9.0992113"><ele>61.0</ele><time>2026-04-11T14:39:23.093Z</time></trkpt><trkpt lat="45.0884925" lon="9.099186"><ele>60.99999999999999</ele><time>2026-04-11T14:39:25.092Z</time></trkpt><trkpt lat="45.0884367" lon="9.0992375"><ele>61.0</ele><time>2026-04-11T14:39:26.093Z</time></trkpt><trkpt lat="45.0883733" lon="9.0993022"><ele>61.0</ele><time>2026-04-11T14:39:27.093Z</time></trkpt><trkpt lat="45.0883065" lon="9.0993735"><ele>61.0</ele><time>2026-04-11T14:39:28.093Z</time></trkpt><trkpt lat="45.08822" lon="9.0994473"><ele>60.99999999999999</ele><time>2026-04-11T14:39:29.092Z</time></trkpt><trkpt lat="45.0881335" lon="9.0995194"><ele>61.0</ele><time>2026-04-11T14:39:30.093Z</time></trkpt><trkpt lat="45.0880493" lon="9.0995752"><ele>60.99999999999999</ele><time>2026-04-11T14:39:31.093Z</time></trkpt><trkpt lat="45.0879721" lon="9.0996166"><ele>61.0</ele><time>2026-04-11T14:39:32.093Z</time></trkpt><trkpt lat="45.087902" lon="9.0996237"><ele>61.0</ele><time>2026-04-11T14:39:33.092Z</time></trkpt><trkpt lat="45.0878369" lon="9.0995854"><ele>61.0</ele><time>2026-04-11T14:39:34.093Z</time></trkpt><trkpt lat="45.0877747" lon="9.099428"><ele>60.99999999999999</ele><time>2026-04-11T14:39:36.093Z</time></trkpt><trkpt lat="45.0877539" lon="9.0993"><ele>61.0</ele><time>2026-04-11T14:39:37.092Z</time></trkpt><trkpt lat="45.0877381" lon="9.0991407"><ele>61.0</ele><time>2026-04-11T14:39:38.093Z</time></trkpt><trkpt lat="45.0877206" lon="9.0989628"><ele>61.0</ele><time>2026-04-11T14:39:39.093Z</time></trkpt><trkpt lat="45.0877021" lon="9.0987664"><ele>61.0</ele><time>2026-04-11T14:39:40.093Z</time></trkpt><trkpt lat="45.0876885" lon="9.0985494"><ele>61.0</ele><time>2026-04-11T14:39:41.093Z</time></trkpt><trkpt lat="45.0876719" lon="9.0983219"><ele>61.0</ele><time>2026-04-11T14:39:42.093Z</time></trkpt><trkpt lat="45.0876457" lon="9.0980828"><ele>61.0</ele><time>2026-04-11T14:39:43.093Z</time></trkpt><trkpt lat="45.0876164" lon="9.0978305"><ele>61.0</ele><time>2026-04-11T14:39:44.093Z</time></trkpt><trkpt lat="45.0875771" lon="9.0975786"><ele>61.0</ele><time>2026-04-11T14:39:45.092Z</time></trkpt><trkpt lat="45.0875227" lon="9.0973208"><ele>61.0</ele><time>2026-04-11T14:39:46.093Z</time></trkpt><trkpt lat="45.0874551" lon="9.0970606"><ele>61.0</ele><time>2026-04-11T14:39:47.093Z</time></trkpt><trkpt lat="45.0873774" lon="9.0968026"><ele>61.33333333333333</ele><time>2026-04-11T14:39:48.093Z</time></trkpt><trkpt lat="45.0872884" lon="9.0965488"><ele>61.66666666666667</ele><time>2026-04-11T14:39:49.093Z</time></trkpt><trkpt lat="45.0871878" lon="9.0962994"><ele>62.0</ele><time>2026-04-11T14:39:50.093Z</time></trkpt><trkpt lat="45.0870796" lon="9.0960542"><ele>62.0</ele><time>2026-04-11T14:39:51.092Z</time></trkpt><trkpt lat="45.0869616" lon="9.0958065"><ele>62.0</ele><time>2026-04-11T14:39:52.093Z</time></trkpt><trkpt lat="45.0868323" lon="9.0955604"><ele>62.0</ele><time>2026-04-11T14:39:53.093Z</time></trkpt><trkpt lat="45.0867012" lon="9.0953071"><ele>62.5</ele><time>2026-04-11T14:39:54.092Z</time></trkpt><trkpt lat="45.0865747" lon="9.0950438"><ele>63.0</ele><time>2026-04-11T14:39:55.092Z</time></trkpt><trkpt lat="45.0864476" lon="9.0947726"><ele>63.0</ele><time>2026-04-11T14:39:56.093Z</time></trkpt><trkpt lat="45.0863207" lon="9.0945032"><ele>63.0</ele><time>2026-04-11T14:39:57.093Z</time></trkpt><trkpt lat="45.0861967" lon="9.0942304"><ele>63.5</ele><time>2026-04-11T14:39:58.093Z</time></trkpt><trkpt lat="45.0860721" lon="9.0939608"><ele>64.0</ele><time>2026-04-11T14:39:59.093Z</time></trkpt><trkpt lat="45.0859487" lon="9.0936958"><ele>64.0</ele><time>2026-04-11T14:40:00.092Z</time></trkpt><trkpt lat="45.0858276" lon="9.0934362"><ele>64.0</ele><time>2026-04-11T14:40:01.093Z</time></trkpt><trkpt lat="45.0857142" lon="9.0931996"><ele>64.0</ele><time>2026-04-11T14:40:02.092Z</time></trkpt><trkpt lat="45.085609" lon="9.0929746"><ele>64.0</ele><time>2026-04-11T14:40:03.094Z</time></trkpt><trkpt lat="45.0855067" lon="9.0927497"><ele>64.0</ele><time>2026-04-11T14:40:04.094Z</time></trkpt><trkpt lat="45.0854141" lon="9.0925158"><ele>64.0</ele><time>2026-04-11T14:40:05.094Z</time></trkpt><trkpt lat="45.0853403" lon="9.0922691"><ele>63.666666666666664</ele><time>2026-04-11T14:40:06.094Z</time></trkpt><trkpt lat="45.0852836" lon="9.0920292"><ele>63.33333333333333</ele><time>2026-04-11T14:40:07.093Z</time></trkpt><trkpt lat="45.0852376" lon="9.0918031"><ele>63.0</ele><time>2026-04-11T14:40:08.094Z</time></trkpt><trkpt lat="45.0851966" lon="9.0915987"><ele>62.8</ele><time>2026-04-11T14:40:09.094Z</time></trkpt><trkpt lat="45.0851539" lon="9.0914136"><ele>62.599999999999994</ele><time>2026-04-11T14:40:10.093Z</time></trkpt><trkpt lat="45.0851181" lon="9.0912517"><ele>62.400000000000006</ele><time>2026-04-11T14:40:11.094Z</time></trkpt><trkpt lat="45.0850945" lon="9.0911201"><ele>62.2</ele><time>2026-04-11T14:40:12.094Z</time></trkpt><trkpt lat="45.0850754" lon="9.0909943"><ele>62.0</ele><time>2026-04-11T14:40:13.094Z</time></trkpt><trkpt lat="45.0850558" lon="9.0908606"><ele>62.0</ele><time>2026-04-11T14:40:14.094Z</time></trkpt><trkpt lat="45.0850485" lon="9.0907165"><ele>62.0</ele><time>2026-04-11T14:40:15.094Z</time></trkpt><trkpt lat="45.085048" lon="9.0905687"><ele>62.0</ele><time>2026-04-11T14:40:16.094Z</time></trkpt><trkpt lat="45.08505" lon="9.0904148"><ele>62.0</ele><time>2026-04-11T14:40:17.094Z</time></trkpt><trkpt lat="45.0850546" lon="9.0902514"><ele>62.0</ele><time>2026-04-11T14:40:18.094Z</time></trkpt><trkpt lat="45.0850683" lon="9.0900835"><ele>62.25</ele><time>2026-04-11T14:40:19.094Z</time></trkpt><trkpt lat="45.0850911" lon="9.0899062"><ele>62.5</ele><time>2026-04-11T14:40:20.094Z</time></trkpt><trkpt lat="45.0851244" lon="9.089724"><ele>62.75</ele><time>2026-04-11T14:40:21.094Z</time></trkpt><trkpt lat="45.0851693" lon="9.0895376"><ele>63.0</ele><time>2026-04-11T14:40:22.093Z</time></trkpt><trkpt lat="45.0852261" lon="9.089341"><ele>63.0</ele><time>2026-04-11T14:40:23.094Z</time></trkpt><trkpt lat="45.0852899" lon="9.0891455"><ele>63.0</ele><time>2026-04-11T14:40:24.094Z</time></trkpt><trkpt lat="45.0853548" lon="9.0889424"><ele>63.0</ele><time>2026-04-11T14:40:25.094Z</time></trkpt><trkpt lat="45.0854221" lon="9.088735"><ele>63.0</ele><time>2026-04-11T14:40:26.094Z</time></trkpt><trkpt lat="45.0854886" lon="9.0885227"><ele>63.0</ele><time>2026-04-11T14:40:27.094Z</time></trkpt><trkpt lat="45.0855523" lon="9.0883084"><ele>63.0</ele><time>2026-04-11T14:40:28.094Z</time></trkpt><trkpt lat="45.0856194" lon="9.0880918"><ele>62.66666666666667</ele><time>2026-04-11T14:40:29.094Z</time></trkpt><trkpt lat="45.0856857" lon="9.0878643"><ele>62.333333333333336</ele><time>2026-04-11T14:40:30.094Z</time></trkpt><trkpt lat="45.0857554" lon="9.0876271"><ele>62.0</ele><time>2026-04-11T14:40:31.094Z</time></trkpt><trkpt lat="45.085825" lon="9.0873918"><ele>62.66666666666667</ele><time>2026-04-11T14:40:32.093Z</time></trkpt><trkpt lat="45.0858998" lon="9.0871547"><ele>63.33333333333333</ele><time>2026-04-11T14:40:33.093Z</time></trkpt><trkpt lat="45.0859738" lon="9.0869196"><ele>64.0</ele><time>2026-04-11T14:40:34.094Z</time></trkpt><trkpt lat="45.0860547" lon="9.0866863"><ele>63.666666666666664</ele><time>2026-04-11T14:40:35.094Z</time></trkpt><trkpt lat="45.0861431" lon="9.0864565"><ele>63.33333333333333</ele><time>2026-04-11T14:40:36.093Z</time></trkpt><trkpt lat="45.0862307" lon="9.0862278"><ele>63.0</ele><time>2026-04-11T14:40:37.094Z</time></trkpt><trkpt lat="45.0863163" lon="9.0860001"><ele>63.0</ele><time>2026-04-11T14:40:38.094Z</time></trkpt><trkpt lat="45.0863933" lon="9.0857943"><ele>63.0</ele><time>2026-04-11T14:40:39.094Z</time></trkpt><trkpt lat="45.086466" lon="9.0856146"><ele>63.0</ele><time>2026-04-11T14:40:40.094Z</time></trkpt><trkpt lat="45.086527" lon="9.0854709"><ele>63.0</ele><time>2026-04-11T14:40:41.094Z</time></trkpt><trkpt lat="45.0865812" lon="9.085362"><ele>63.0</ele><time>2026-04-11T14:40:42.094Z</time></trkpt><trkpt lat="45.0866286" lon="9.0852619"><ele>63.0</ele><time>2026-04-11T14:40:43.094Z</time></trkpt><trkpt lat="45.0866715" lon="9.0851634"><ele>63.0</ele><time>2026-04-11T14:40:44.094Z</time></trkpt><trkpt lat="45.0867162" lon="9.0850608"><ele>63.0</ele><time>2026-04-11T14:40:45.094Z</time></trkpt><trkpt lat="45.0867618" lon="9.0849539"><ele>63.0</ele><time>2026-04-11T14:40:46.094Z</time></trkpt><trkpt lat="45.086813" lon="9.0848497"><ele>63.0</ele><time>2026-04-11T14:40:47.094Z</time></trkpt><trkpt lat="45.0868711" lon="9.0847465"><ele>63.2</ele><time>2026-04-11T14:40:48.094Z</time></trkpt><trkpt lat="45.0869407" lon="9.0846532"><ele>63.4</ele><time>2026-04-11T14:40:49.093Z</time></trkpt><trkpt lat="45.087015" lon="9.0845605"><ele>63.60000000000001</ele><time>2026-04-11T14:40:50.094Z</time></trkpt><trkpt lat="45.0870868" lon="9.0844652"><ele>63.800000000000004</ele><time>2026-04-11T14:40:51.093Z</time></trkpt><trkpt lat="45.0871601" lon="9.0843717"><ele>64.0</ele><time>2026-04-11T14:40:52.093Z</time></trkpt><trkpt lat="45.0872455" lon="9.0842884"><ele>64.0</ele><time>2026-04-11T14:40:53.093Z</time></trkpt><trkpt lat="45.0873348" lon="9.0842055"><ele>64.0</ele><time>2026-04-11T14:40:54.095Z</time></trkpt><trkpt lat="45.0874219" lon="9.0841112"><ele>64.0</ele><time>2026-04-11T14:40:55.095Z</time></trkpt><trkpt lat="45.0875043" lon="9.0840149"><ele>64.0</ele><time>2026-04-11T14:40:56.094Z</time></trkpt><trkpt lat="45.0875829" lon="9.0839296"><ele>64.0</ele><time>2026-04-11T14:40:57.095Z</time></trkpt><trkpt lat="45.0876593" lon="9.0838583"><ele>63.800000000000004</ele><time>2026-04-11T14:40:58.095Z</time></trkpt><trkpt lat="45.0877332" lon="9.0837868"><ele>63.60000000000001</ele><time>2026-04-11T14:40:59.095Z</time></trkpt><trkpt lat="45.0878062" lon="9.0837192"><ele>63.4</ele><time>2026-04-11T14:41:00.095Z</time></trkpt><trkpt lat="45.0878814" lon="9.0836475"><ele>63.2</ele><time>2026-04-11T14:41:01.095Z</time></trkpt><trkpt lat="45.087952" lon="9.0835602"><ele>63.0</ele><time>2026-04-11T14:41:02.094Z</time></trkpt><trkpt lat="45.0880104" lon="9.0834634"><ele>63.0</ele><time>2026-04-11T14:41:03.094Z</time></trkpt><trkpt lat="45.0880399" lon="9.0833443"><ele>63.0</ele><time>2026-04-11T14:41:04.095Z</time></trkpt><trkpt lat="45.0880384" lon="9.0832231"><ele>63.0</ele><time>2026-04-11T14:41:05.094Z</time></trkpt><trkpt lat="45.0880002" lon="9.083117"><ele>63.0</ele><time>2026-04-11T14:41:06.095Z</time></trkpt><trkpt lat="45.0879362" lon="9.0830224"><ele>63.0</ele><time>2026-04-11T14:41:07.094Z</time></trkpt><trkpt lat="45.0878633" lon="9.0829261"><ele>63.2</ele><time>2026-04-11T14:41:08.095Z</time></trkpt><trkpt lat="45.0877851" lon="9.0828205"><ele>63.4</ele><time>2026-04-11T14:41:09.095Z</time></trkpt><trkpt lat="45.0877022" lon="9.0827089"><ele>63.60000000000001</ele><time>2026-04-11T14:41:10.095Z</time></trkpt><trkpt lat="45.0876185" lon="9.0826046"><ele>63.800000000000004</ele><time>2026-04-11T14:41:11.095Z</time></trkpt><trkpt lat="45.0875303" lon="9.0825051"><ele>64.0</ele><time>2026-04-11T14:41:12.095Z</time></trkpt><trkpt lat="45.0874342" lon="9.0824198"><ele>64.25</ele><time>2026-04-11T14:41:13.094Z</time></trkpt><trkpt lat="45.087329" lon="9.0823482"><ele>64.5</ele><time>2026-04-11T14:41:14.095Z</time></trkpt><trkpt lat="45.0872176" lon="9.0822743"><ele>64.75</ele><time>2026-04-11T14:41:15.095Z</time></trkpt><trkpt lat="45.0870957" lon="9.0821979"><ele>65.0</ele><time>2026-04-11T14:41:16.095Z</time></trkpt><trkpt lat="45.0869789" lon="9.0821119"><ele>65.0</ele><time>2026-04-11T14:41:17.095Z</time></trkpt><trkpt lat="45.0868512" lon="9.0820275"><ele>65.0</ele><time>2026-04-11T14:41:18.095Z</time></trkpt><trkpt lat="45.0867241" lon="9.0819422"><ele>65.0</ele><time>2026-04-11T14:41:19.094Z</time></trkpt><trkpt lat="45.0865949" lon="9.081858"><ele>65.0</ele><time>2026-04-11T14:41:20.095Z</time></trkpt><trkpt lat="45.0864677" lon="9.081782"><ele>65.0</ele><time>2026-04-11T14:41:21.094Z</time></trkpt><trkpt lat="45.0863481" lon="9.0817078"><ele>65.0</ele><time>2026-04-11T14:41:22.095Z</time></trkpt><trkpt lat="45.0862265" lon="9.0816307"><ele>65.0</ele><time>2026-04-11T14:41:23.095Z</time></trkpt><trkpt lat="45.0861085" lon="9.0815531"><ele>65.0</ele><time>2026-04-11T14:41:24.094Z</time></trkpt><trkpt lat="45.0859874" lon="9.0814863"><ele>65.0</ele><time>2026-04-11T14:41:25.095Z</time></trkpt><trkpt lat="45.0858642" lon="9.0814183"><ele>65.0</ele><time>2026-04-11T14:41:26.095Z</time></trkpt><trkpt lat="45.085745" lon="9.0813509"><ele>65.0</ele><time>2026-04-11T14:41:27.095Z</time></trkpt><trkpt lat="45.0856477" lon="9.0812784"><ele>65.0</ele><time>2026-04-11T14:41:28.095Z</time></trkpt><trkpt lat="45.0855422" lon="9.081219"><ele>64.75</ele><time>2026-04-11T14:41:29.095Z</time></trkpt><trkpt lat="45.085438" lon="9.0811433"><ele>64.5</ele><time>2026-04-11T14:41:30.095Z</time></trkpt><trkpt lat="45.085338" lon="9.0810783"><ele>64.25</ele><time>2026-04-11T14:41:31.095Z</time></trkpt><trkpt lat="45.0852365" lon="9.0810085"><ele>64.0</ele><time>2026-04-11T14:41:32.094Z</time></trkpt><trkpt lat="45.0851369" lon="9.0809304"><ele>64.0</ele><time>2026-04-11T14:41:33.095Z</time></trkpt><trkpt lat="45.0850439" lon="9.0808309"><ele>64.0</ele><time>2026-04-11T14:41:34.095Z</time></trkpt><trkpt lat="45.0849589" lon="9.080713"><ele>64.0</ele><time>2026-04-11T14:41:35.095Z</time></trkpt><trkpt lat="45.0848774" lon="9.080591"><ele>64.0</ele><time>2026-04-11T14:41:36.094Z</time></trkpt><trkpt lat="45.0847854" lon="9.0804703"><ele>64.0</ele><time>2026-04-11T14:41:37.095Z</time></trkpt><trkpt lat="45.0846867" lon="9.0803346"><ele>64.0</ele><time>2026-04-11T14:41:38.095Z</time></trkpt><trkpt lat="45.0845868" lon="9.0801777"><ele>64.0</ele><time>2026-04-11T14:41:39.094Z</time></trkpt><trkpt lat="45.0844915" lon="9.0800227"><ele>64.0</ele><time>2026-04-11T14:41:40.095Z</time></trkpt><trkpt lat="45.0844059" lon="9.0798679"><ele>63.75</ele><time>2026-04-11T14:41:41.095Z</time></trkpt><trkpt lat="45.0843151" lon="9.0797309"><ele>63.5</ele><time>2026-04-11T14:41:42.095Z</time></trkpt><trkpt lat="45.0842333" lon="9.0796043"><ele>63.25</ele><time>2026-04-11T14:41:43.094Z</time></trkpt><trkpt lat="45.0841548" lon="9.079479"><ele>63.0</ele><time>2026-04-11T14:41:44.096Z</time></trkpt><trkpt lat="45.0840712" lon="9.0793517"><ele>63.25</ele><time>2026-04-11T14:41:45.096Z</time></trkpt><trkpt lat="45.083987" lon="9.0792176"><ele>63.5</ele><time>2026-04-11T14:41:46.096Z</time></trkpt><trkpt lat="45.0839026" lon="9.0790825"><ele>63.75</ele><time>2026-04-11T14:41:47.096Z</time></trkpt><trkpt lat="45.0838169" lon="9.0789428"><ele>64.0</ele><time>2026-04-11T14:41:48.096Z</time></trkpt><trkpt lat="45.0837457" lon="9.078793"><ele>64.0</ele><time>2026-04-11T14:41:49.096Z</time></trkpt><trkpt lat="45.0836856" lon="9.0786235"><ele>64.0</ele><time>2026-04-11T14:41:50.096Z</time></trkpt><trkpt lat="45.0836312" lon="9.0784413"><ele>64.0</ele><time>2026-04-11T14:41:51.095Z</time></trkpt><trkpt lat="45.0835798" lon="9.0782482"><ele>64.0</ele><time>2026-04-11T14:41:52.096Z</time></trkpt><trkpt lat="45.0835243" lon="9.0780499"><ele>64.0</ele><time>2026-04-11T14:41:53.095Z</time></trkpt><trkpt lat="45.0834714" lon="9.077842"><ele>64.0</ele><time>2026-04-11T14:41:54.096Z</time></trkpt><trkpt lat="45.0834167" lon="9.0776398"><ele>64.0</ele><time>2026-04-11T14:41:55.095Z</time></trkpt><trkpt lat="45.0833603" lon="9.0774337"><ele>64.33333333333333</ele><time>2026-04-11T14:41:56.096Z</time></trkpt><trkpt lat="45.0832923" lon="9.0772241"><ele>64.66666666666667</ele><time>2026-04-11T14:41:57.095Z</time></trkpt><trkpt lat="45.0832177" lon="9.0770359"><ele>65.0</ele><time>2026-04-11T14:41:58.096Z</time></trkpt><trkpt lat="45.0831404" lon="9.07685"><ele>65.0</ele><time>2026-04-11T14:41:59.096Z</time></trkpt><trkpt lat="45.0830632" lon="9.0766655"><ele>65.0</ele><time>2026-04-11T14:42:00.096Z</time></trkpt><trkpt lat="45.0829876" lon="9.0764863"><ele>65.0</ele><time>2026-04-11T14:42:01.096Z</time></trkpt><trkpt lat="45.0829104" lon="9.0763125"><ele>65.0</ele><time>2026-04-11T14:42:02.096Z</time></trkpt><trkpt lat="45.0828316" lon="9.07614"><ele>65.0</ele><time>2026-04-11T14:42:03.096Z</time></trkpt><trkpt lat="45.0827532" lon="9.0759647"><ele>65.0</ele><time>2026-04-11T14:42:04.096Z</time></trkpt><trkpt lat="45.0826773" lon="9.0757874"><ele>65.0</ele><time>2026-04-11T14:42:05.096Z</time></trkpt><trkpt lat="45.082606" lon="9.0756075"><ele>65.0</ele><time>2026-04-11T14:42:06.096Z</time></trkpt><trkpt lat="45.0825336" lon="9.0754266"><ele>64.75</ele><time>2026-04-11T14:42:07.096Z</time></trkpt><trkpt lat="45.0824705" lon="9.0752388"><ele>64.5</ele><time>2026-04-11T14:42:08.096Z</time></trkpt><trkpt lat="45.0824207" lon="9.0750414"><ele>64.25</ele><time>2026-04-11T14:42:09.096Z</time></trkpt><trkpt lat="45.0823687" lon="9.0748436"><ele>64.0</ele><time>2026-04-11T14:42:10.096Z</time></trkpt><trkpt lat="45.0823172" lon="9.0746516"><ele>64.0</ele><time>2026-04-11T14:42:11.096Z</time></trkpt><trkpt lat="45.0822744" lon="9.0744567"><ele>64.0</ele><time>2026-04-11T14:42:12.095Z</time></trkpt><trkpt lat="45.0822473" lon="9.0742639"><ele>64.0</ele><time>2026-04-11T14:42:13.096Z</time></trkpt><trkpt lat="45.0822268" lon="9.0740658"><ele>64.0</ele><time>2026-04-11T14:42:14.096Z</time></trkpt><trkpt lat="45.0822089" lon="9.0738781"><ele>64.0</ele><time>2026-04-11T14:42:15.096Z</time></trkpt><trkpt lat="45.0821858" lon="9.073702"><ele>64.0</ele><time>2026-04-11T14:42:16.096Z</time></trkpt><trkpt lat="45.082169" lon="9.0735441"><ele>64.0</ele><time>2026-04-11T14:42:17.096Z</time></trkpt><trkpt lat="45.0821588" lon="9.0733925"><ele>64.0</ele><time>2026-04-11T14:42:18.096Z</time></trkpt><trkpt lat="45.0821471" lon="9.0732392"><ele>64.0</ele><time>2026-04-11T14:42:19.095Z</time></trkpt><trkpt lat="45.0821287" lon="9.0730877"><ele>64.0</ele><time>2026-04-11T14:42:20.096Z</time></trkpt><trkpt lat="45.0821083" lon="9.0729326"><ele>64.0</ele><time>2026-04-11T14:42:21.095Z</time></trkpt><trkpt lat="45.0820952" lon="9.0727689"><ele>64.0</ele><time>2026-04-11T14:42:22.096Z</time></trkpt><trkpt lat="45.0820863" lon="9.0725993"><ele>64.0</ele><time>2026-04-11T14:42:23.095Z</time></trkpt><trkpt lat="45.0820892" lon="9.0724012"><ele>64.0</ele><time>2026-04-11T14:42:24.096Z</time></trkpt><trkpt lat="45.0821057" lon="9.0721583"><ele>64.0</ele><time>2026-04-11T14:42:25.096Z</time></trkpt><trkpt lat="45.082138" lon="9.0718676"><ele>64.0</ele><time>2026-04-11T14:42:26.096Z</time></trkpt><trkpt lat="45.0821719" lon="9.071539"><ele>64.0</ele><time>2026-04-11T14:42:27.096Z</time></trkpt><trkpt lat="45.0822071" lon="9.0712369"><ele>64.0</ele><time>2026-04-11T14:42:28.096Z</time></trkpt><trkpt lat="45.0822353" lon="9.0709545"><ele>64.0</ele><time>2026-04-11T14:42:29.095Z</time></trkpt><trkpt lat="45.0822637" lon="9.0706956"><ele>64.0</ele><time>2026-04-11T14:42:30.096Z</time></trkpt><trkpt lat="45.0822874" lon="9.0704521"><ele>64.0</ele><time>2026-04-11T14:42:31.096Z</time></trkpt><trkpt lat="45.0823074" lon="9.0702179"><ele>64.0</ele><time>2026-04-11T14:42:32.096Z</time></trkpt><trkpt lat="45.0823268" lon="9.0700027"><ele>64.0</ele><time>2026-04-11T14:42:33.095Z</time></trkpt><trkpt lat="45.0823485" lon="9.0698089"><ele>64.0</ele><time>2026-04-11T14:42:34.096Z</time></trkpt><trkpt lat="45.0823707" lon="9.0696294"><ele>64.0</ele><time>2026-04-11T14:42:35.097Z</time></trkpt><trkpt lat="45.082389" lon="9.0694559"><ele>64.0</ele><time>2026-04-11T14:42:36.096Z</time></trkpt><trkpt lat="45.0823909" lon="9.0692731"><ele>64.0</ele><time>2026-04-11T14:42:37.097Z</time></trkpt><trkpt lat="45.0824024" lon="9.0691064"><ele>64.0</ele><time>2026-04-11T14:42:38.097Z</time></trkpt><trkpt lat="45.0824196" lon="9.0689526"><ele>64.0</ele><time>2026-04-11T14:42:39.097Z</time></trkpt><trkpt lat="45.0824313" lon="9.0687908"><ele>64.0</ele><time>2026-04-11T14:42:40.097Z</time></trkpt><trkpt lat="45.082448" lon="9.0686246"><ele>64.0</ele><time>2026-04-11T14:42:41.096Z</time></trkpt><trkpt lat="45.0824674" lon="9.068458"><ele>64.0</ele><time>2026-04-11T14:42:42.097Z</time></trkpt><trkpt lat="45.0824939" lon="9.0682911"><ele>64.0</ele><time>2026-04-11T14:42:43.096Z</time></trkpt><trkpt lat="45.0825272" lon="9.068118"><ele>64.0</ele><time>2026-04-11T14:42:44.097Z</time></trkpt><trkpt lat="45.0825788" lon="9.0679445"><ele>64.0</ele><time>2026-04-11T14:42:45.097Z</time></trkpt><trkpt lat="45.0826541" lon="9.0677736"><ele>64.25</ele><time>2026-04-11T14:42:46.097Z</time></trkpt><trkpt lat="45.0827482" lon="9.0676151"><ele>64.5</ele><time>2026-04-11T14:42:47.097Z</time></trkpt><trkpt lat="45.0828464" lon="9.067451"><ele>64.75</ele><time>2026-04-11T14:42:48.097Z</time></trkpt><trkpt lat="45.0829325" lon="9.0673101"><ele>65.0</ele><time>2026-04-11T14:42:49.097Z</time></trkpt><trkpt lat="45.0830025" lon="9.0671753"><ele>65.0</ele><time>2026-04-11T14:42:50.096Z</time></trkpt><trkpt lat="45.0830506" lon="9.0670214"><ele>65.0</ele><time>2026-04-11T14:42:51.097Z</time></trkpt><trkpt lat="45.0830586" lon="9.0668496"><ele>65.0</ele><time>2026-04-11T14:42:52.097Z</time></trkpt><trkpt lat="45.0830299" lon="9.0666658"><ele>65.0</ele><time>2026-04-11T14:42:53.096Z</time></trkpt><trkpt lat="45.0829682" lon="9.0664662"><ele>65.0</ele><time>2026-04-11T14:42:54.096Z</time></trkpt><trkpt lat="45.0828905" lon="9.0662548"><ele>65.0</ele><time>2026-04-11T14:42:55.097Z</time></trkpt><trkpt lat="45.0828151" lon="9.0660429"><ele>65.0</ele><time>2026-04-11T14:42:56.096Z</time></trkpt><trkpt lat="45.0827405" lon="9.065811"><ele>64.33333333333334</ele><time>2026-04-11T14:42:57.097Z</time></trkpt><trkpt lat="45.082656" lon="9.065575"><ele>63.66666666666667</ele><time>2026-04-11T14:42:58.096Z</time></trkpt><trkpt lat="45.0825696" lon="9.0653361"><ele>63.0</ele><time>2026-04-11T14:42:59.097Z</time></trkpt><trkpt lat="45.0824792" lon="9.0650943"><ele>63.0</ele><time>2026-04-11T14:43:00.097Z</time></trkpt><trkpt lat="45.0823806" lon="9.0648559"><ele>63.0</ele><time>2026-04-11T14:43:01.097Z</time></trkpt><trkpt lat="45.0822765" lon="9.0645938"><ele>63.0</ele><time>2026-04-11T14:43:02.097Z</time></trkpt><trkpt lat="45.0821627" lon="9.0643516"><ele>63.0</ele><time>2026-04-11T14:43:03.097Z</time></trkpt><trkpt lat="45.0820443" lon="9.0641113"><ele>63.0</ele><time>2026-04-11T14:43:04.097Z</time></trkpt><trkpt lat="45.08192" lon="9.0638748"><ele>63.0</ele><time>2026-04-11T14:43:05.097Z</time></trkpt><trkpt lat="45.0817829" lon="9.063627"><ele>63.0</ele><time>2026-04-11T14:43:06.097Z</time></trkpt><trkpt lat="45.0816508" lon="9.0633532"><ele>63.0</ele><time>2026-04-11T14:43:07.097Z</time></trkpt><trkpt lat="45.0815159" lon="9.0630776"><ele>64.0</ele><time>2026-04-11T14:43:08.097Z</time></trkpt><trkpt lat="45.0813815" lon="9.0627948"><ele>65.0</ele><time>2026-04-11T14:43:09.097Z</time></trkpt><trkpt lat="45.0812484" lon="9.062511"><ele>65.0</ele><time>2026-04-11T14:43:10.097Z</time></trkpt><trkpt lat="45.081125" lon="9.0622445"><ele>65.0</ele><time>2026-04-11T14:43:11.097Z</time></trkpt><trkpt lat="45.0810103" lon="9.0619939"><ele>65.0</ele><time>2026-04-11T14:43:12.096Z</time></trkpt><trkpt lat="45.0808999" lon="9.0617588"><ele>64.33333333333334</ele><time>2026-04-11T14:43:13.097Z</time></trkpt><trkpt lat="45.0808001" lon="9.0615371"><ele>63.66666666666667</ele><time>2026-04-11T14:43:14.097Z</time></trkpt><trkpt lat="45.0806977" lon="9.0613053"><ele>63.0</ele><time>2026-04-11T14:43:15.097Z</time></trkpt><trkpt lat="45.0805909" lon="9.0610626"><ele>63.0</ele><time>2026-04-11T14:43:16.097Z</time></trkpt><trkpt lat="45.0804795" lon="9.0608057"><ele>63.0</ele><time>2026-04-11T14:43:17.097Z</time></trkpt><trkpt lat="45.0803657" lon="9.0605456"><ele>63.0</ele><time>2026-04-11T14:43:18.097Z</time></trkpt><trkpt lat="45.080257" lon="9.0602969"><ele>63.33333333333333</ele><time>2026-04-11T14:43:19.097Z</time></trkpt><trkpt lat="45.0801562" lon="9.0600602"><ele>63.666666666666664</ele><time>2026-04-11T14:43:20.097Z</time></trkpt><trkpt lat="45.0800649" lon="9.0598335"><ele>64.0</ele><time>2026-04-11T14:43:21.096Z</time></trkpt><trkpt lat="45.0799805" lon="9.0596139"><ele>64.0</ele><time>2026-04-11T14:43:22.097Z</time></trkpt><trkpt lat="45.0799014" lon="9.0594055"><ele>64.0</ele><time>2026-04-11T14:43:23.097Z</time></trkpt><trkpt lat="45.0798343" lon="9.0592128"><ele>64.0</ele><time>2026-04-11T14:43:24.097Z</time></trkpt><trkpt lat="45.0797711" lon="9.0589905"><ele>64.33333333333333</ele><time>2026-04-11T14:43:25.097Z</time></trkpt><trkpt lat="45.0797153" lon="9.0587553"><ele>64.66666666666667</ele><time>2026-04-11T14:43:26.097Z</time></trkpt><trkpt lat="45.0796638" lon="9.0585064"><ele>65.0</ele><time>2026-04-11T14:43:27.098Z</time></trkpt><trkpt lat="45.0796137" lon="9.0582572"><ele>65.0</ele><time>2026-04-11T14:43:28.098Z</time></trkpt><trkpt lat="45.07957" lon="9.058021"><ele>65.0</ele><time>2026-04-11T14:43:29.098Z</time></trkpt><trkpt lat="45.0795398" lon="9.0578108"><ele>65.0</ele><time>2026-04-11T14:43:30.098Z</time></trkpt><trkpt lat="45.0795163" lon="9.0576199"><ele>64.75</ele><time>2026-04-11T14:43:31.097Z</time></trkpt><trkpt lat="45.0794821" lon="9.0574515"><ele>64.5</ele><time>2026-04-11T14:43:32.098Z</time></trkpt><trkpt lat="45.0794205" lon="9.0572947"><ele>64.25</ele><time>2026-04-11T14:43:33.098Z</time></trkpt><trkpt lat="45.0793325" lon="9.0571435"><ele>64.0</ele><time>2026-04-11T14:43:34.098Z</time></trkpt><trkpt lat="45.0792191" lon="9.0569977"><ele>64.33333333333333</ele><time>2026-04-11T14:43:35.097Z</time></trkpt><trkpt lat="45.0791001" lon="9.0568481"><ele>64.66666666666667</ele><time>2026-04-11T14:43:36.097Z</time></trkpt><trkpt lat="45.0789776" lon="9.0567008"><ele>65.0</ele><time>2026-04-11T14:43:37.098Z</time></trkpt><trkpt lat="45.0788484" lon="9.0565547"><ele>65.0</ele><time>2026-04-11T14:43:38.098Z</time></trkpt><trkpt lat="45.078734" lon="9.0564086"><ele>65.0</ele><time>2026-04-11T14:43:39.097Z</time></trkpt><trkpt lat="45.0786305" lon="9.0562694"><ele>65.0</ele><time>2026-04-11T14:43:40.097Z</time></trkpt><trkpt lat="45.0785308" lon="9.0561438"><ele>65.0</ele><time>2026-04-11T14:43:41.098Z</time></trkpt><trkpt lat="45.0784309" lon="9.056026"><ele>65.0</ele><time>2026-04-11T14:43:42.098Z</time></trkpt><trkpt lat="45.0783389" lon="9.0559115"><ele>65.0</ele><time>2026-04-11T14:43:43.098Z</time></trkpt><trkpt lat="45.078213" lon="9.0557996"><ele>65.0</ele><time>2026-04-11T14:43:44.098Z</time></trkpt><trkpt lat="45.07813" lon="9.0556975"><ele>65.0</ele><time>2026-04-11T14:43:45.098Z</time></trkpt><trkpt lat="45.0780555" lon="9.0555975"><ele>65.0</ele><time>2026-04-11T14:43:46.098Z</time></trkpt><trkpt lat="45.0779773" lon="9.0555018"><ele>65.0</ele><time>2026-04-11T14:43:47.098Z</time></trkpt><trkpt lat="45.0778986" lon="9.0554074"><ele>65.0</ele><time>2026-04-11T14:43:48.098Z</time></trkpt><trkpt lat="45.0778224" lon="9.0553134"><ele>65.0</ele><time>2026-04-11T14:43:49.098Z</time></trkpt><trkpt lat="45.0777455" lon="9.0552158"><ele>65.0</ele><time>2026-04-11T14:43:50.098Z</time></trkpt><trkpt lat="45.0776681" lon="9.0551217"><ele>65.0</ele><time>2026-04-11T14:43:51.098Z</time></trkpt><trkpt lat="45.077592" lon="9.0550215"><ele>65.0</ele><time>2026-04-11T14:43:52.098Z</time></trkpt><trkpt lat="45.0775154" lon="9.054922"><ele>65.0</ele><time>2026-04-11T14:43:53.098Z</time></trkpt><trkpt lat="45.0774329" lon="9.0548189"><ele>65.0</ele><time>2026-04-11T14:43:54.097Z</time></trkpt><trkpt lat="45.0773441" lon="9.0547153"><ele>65.0</ele><time>2026-04-11T14:43:55.098Z</time></trkpt><trkpt lat="45.0772481" lon="9.0545997"><ele>65.0</ele><time>2026-04-11T14:43:56.098Z</time></trkpt><trkpt lat="45.077153" lon="9.0544716"><ele>65.0</ele><time>2026-04-11T14:43:57.098Z</time></trkpt><trkpt lat="45.0770546" lon="9.054343"><ele>65.0</ele><time>2026-04-11T14:43:58.098Z</time></trkpt><trkpt lat="45.0769522" lon="9.0542225"><ele>65.0</ele><time>2026-04-11T14:43:59.098Z</time></trkpt><trkpt lat="45.0768522" lon="9.0541036"><ele>65.0</ele><time>2026-04-11T14:44:00.098Z</time></trkpt><trkpt lat="45.0767559" lon="9.0539869"><ele>65.0</ele><time>2026-04-11T14:44:01.098Z</time></trkpt><trkpt lat="45.0766651" lon="9.0538706"><ele>65.0</ele><time>2026-04-11T14:44:02.097Z</time></trkpt><trkpt lat="45.076575" lon="9.0537571"><ele>65.0</ele><time>2026-04-11T14:44:03.098Z</time></trkpt><trkpt lat="45.0764899" lon="9.0536489"><ele>65.25</ele><time>2026-04-11T14:44:04.098Z</time></trkpt><trkpt lat="45.076406" lon="9.0535407"><ele>65.5</ele><time>2026-04-11T14:44:05.098Z</time></trkpt><trkpt lat="45.0763253" lon="9.0534313"><ele>65.75</ele><time>2026-04-11T14:44:06.098Z</time></trkpt><trkpt lat="45.076243" lon="9.0533234"><ele>66.0</ele><time>2026-04-11T14:44:07.098Z</time></trkpt><trkpt lat="45.076153" lon="9.0532265"><ele>66.0</ele><time>2026-04-11T14:44:08.098Z</time></trkpt><trkpt lat="45.0760581" lon="9.0531287"><ele>66.0</ele><time>2026-04-11T14:44:09.098Z</time></trkpt><trkpt lat="45.0759553" lon="9.0530312"><ele>66.0</ele><time>2026-04-11T14:44:10.098Z</time></trkpt><trkpt lat="45.0758462" lon="9.052942"><ele>66.0</ele><time>2026-04-11T14:44:11.098Z</time></trkpt><trkpt lat="45.0757385" lon="9.0528485"><ele>66.5</ele><time>2026-04-11T14:44:12.098Z</time></trkpt><trkpt lat="45.0756384" lon="9.0527384"><ele>67.0</ele><time>2026-04-11T14:44:13.098Z</time></trkpt><trkpt lat="45.0755548" lon="9.0525983"><ele>67.5</ele><time>2026-04-11T14:44:14.098Z</time></trkpt><trkpt lat="45.0754872" lon="9.0524424"><ele>68.0</ele><time>2026-04-11T14:44:15.098Z</time></trkpt><trkpt lat="45.0754371" lon="9.0522759"><ele>68.0</ele><time>2026-04-11T14:44:16.099Z</time></trkpt><trkpt lat="45.0754021" lon="9.0520957"><ele>68.0</ele><time>2026-04-11T14:44:17.099Z</time></trkpt><trkpt lat="45.0753777" lon="9.0519078"><ele>68.0</ele><time>2026-04-11T14:44:18.099Z</time></trkpt><trkpt lat="45.0753549" lon="9.0517257"><ele>68.0</ele><time>2026-04-11T14:44:19.098Z</time></trkpt><trkpt lat="45.0753267" lon="9.0515586"><ele>68.0</ele><time>2026-04-11T14:44:20.099Z</time></trkpt><trkpt lat="45.0753048" lon="9.0514059"><ele>68.0</ele><time>2026-04-11T14:44:21.099Z</time></trkpt><trkpt lat="45.0752915" lon="9.0512526"><ele>68.0</ele><time>2026-04-11T14:44:22.098Z</time></trkpt><trkpt lat="45.0752746" lon="9.0511143"><ele>68.0</ele><time>2026-04-11T14:44:23.099Z</time></trkpt><trkpt lat="45.075248" lon="9.0509813"><ele>68.0</ele><time>2026-04-11T14:44:24.099Z</time></trkpt><trkpt lat="45.0752164" lon="9.0508676"><ele>68.0</ele><time>2026-04-11T14:44:25.099Z</time></trkpt><trkpt lat="45.0751661" lon="9.0507176"><ele>67.0</ele><time>2026-04-11T14:44:27.098Z</time></trkpt><trkpt lat="45.0751132" lon="9.0506476"><ele>67.0</ele><time>2026-04-11T14:44:29.099Z</time></trkpt></trkseg></trk></gpx>